<?xml version="1.0" encoding="UTF-8" standalone="no" ?>
<gpx xmlns="http://www.topografix.com/GPX/1/1" xmlns:xsi="http://www.w3.org/2001/XMLSchema-instance" xsi:schemaLocation="http://www.topografix.com/GPX/1/1 http://www.topografix.com/GPX/1/1/gpx.xsd" version="1.1" creator="VisuGPX - https://www.visugpx.com">
  <metadata>
    <name>Crête de Sormiou Diedre Guem</name>
    <desc><![CDATA[Randonnée à Morgiou et escalade du Dièdre Guem
Christine,Marie Laure et Christèle.
François,Didier et Gilles.]]></desc>
  </metadata>
  <trk>
    <name><![CDATA[Nouvelle trace 13]]></name>
    <trkseg>
      <trkpt lat="43.22201" lon="5.41797">
        <ele>171.96765</ele>
        <time>2019-06-19 10:21:44,093</time>
      </trkpt>
      <trkpt lat="43.222" lon="5.41797">
        <ele>171.7558</ele>
        <time>2019-06-19 10:21:48,102</time>
      </trkpt>
      <trkpt lat="43.22196" lon="5.41799">
        <ele>172.28595</ele>
        <time>2019-06-19 10:21:52,093</time>
      </trkpt>
      <trkpt lat="43.22194" lon="5.418">
        <ele>171.15521</ele>
        <time>2019-06-19 10:21:55,102</time>
      </trkpt>
      <trkpt lat="43.22184" lon="5.41804">
        <ele>173.67694</ele>
        <time>2019-06-19 10:22:04,105</time>
      </trkpt>
      <trkpt lat="43.22183" lon="5.41804">
        <ele>173.92725</ele>
        <time>2019-06-19 10:22:05,102</time>
      </trkpt>
      <trkpt lat="43.22178" lon="5.41806">
        <ele>177.11517</ele>
        <time>2019-06-19 10:22:12,104</time>
      </trkpt>
      <trkpt lat="43.22177" lon="5.41807">
        <ele>175.92548</ele>
        <time>2019-06-19 10:22:17,102</time>
      </trkpt>
      <trkpt lat="43.22176" lon="5.41808">
        <ele>175.43121</ele>
        <time>2019-06-19 10:22:18,102</time>
      </trkpt>
      <trkpt lat="43.22174" lon="5.41808">
        <ele>175.55176</ele>
        <time>2019-06-19 10:22:20,100</time>
      </trkpt>
      <trkpt lat="43.22173" lon="5.41809">
        <ele>175.69373</ele>
        <time>2019-06-19 10:22:21,101</time>
      </trkpt>
      <trkpt lat="43.22171" lon="5.41809">
        <ele>176.97241</ele>
        <time>2019-06-19 10:22:22,111</time>
      </trkpt>
      <trkpt lat="43.2217" lon="5.4181">
        <ele>177.3631</ele>
        <time>2019-06-19 10:22:23,115</time>
      </trkpt>
      <trkpt lat="43.22169" lon="5.41811">
        <ele>178.09229</ele>
        <time>2019-06-19 10:22:24,096</time>
      </trkpt>
      <trkpt lat="43.22168" lon="5.41811">
        <ele>177.64087</ele>
        <time>2019-06-19 10:22:25,100</time>
      </trkpt>
      <trkpt lat="43.22167" lon="5.41812">
        <ele>178.67761</ele>
        <time>2019-06-19 10:22:27,099</time>
      </trkpt>
      <trkpt lat="43.22166" lon="5.41812">
        <ele>178.81885</ele>
        <time>2019-06-19 10:22:28,114</time>
      </trkpt>
      <trkpt lat="43.22161" lon="5.41817">
        <ele>178.57758</ele>
        <time>2019-06-19 10:22:37,101</time>
      </trkpt>
      <trkpt lat="43.22161" lon="5.41819">
        <ele>178.96423</ele>
        <time>2019-06-19 10:22:39,101</time>
      </trkpt>
      <trkpt lat="43.22159" lon="5.41817">
        <ele>182.65833</ele>
        <time>2019-06-19 10:22:43,108</time>
      </trkpt>
      <trkpt lat="43.22157" lon="5.41817">
        <ele>182.44055</ele>
        <time>2019-06-19 10:22:47,106</time>
      </trkpt>
      <trkpt lat="43.22156" lon="5.41817">
        <ele>182.68726</ele>
        <time>2019-06-19 10:22:48,133</time>
      </trkpt>
      <trkpt lat="43.22149" lon="5.41818">
        <ele>177.80115</ele>
        <time>2019-06-19 10:22:53,110</time>
      </trkpt>
      <trkpt lat="43.22147" lon="5.41817">
        <ele>179.3847</ele>
        <time>2019-06-19 10:22:54,111</time>
      </trkpt>
      <trkpt lat="43.22137" lon="5.41816">
        <ele>182.00848</ele>
        <time>2019-06-19 10:22:58,116</time>
      </trkpt>
      <trkpt lat="43.22135" lon="5.41814">
        <ele>183.10724</ele>
        <time>2019-06-19 10:23:05,102</time>
      </trkpt>
      <trkpt lat="43.22131" lon="5.41813">
        <ele>182.11835</ele>
        <time>2019-06-19 10:23:07,107</time>
      </trkpt>
      <trkpt lat="43.2213" lon="5.41814">
        <ele>175.52496</ele>
        <time>2019-06-19 10:23:08,110</time>
      </trkpt>
      <trkpt lat="43.22128" lon="5.41815">
        <ele>179.95642</ele>
        <time>2019-06-19 10:23:11,103</time>
      </trkpt>
      <trkpt lat="43.22127" lon="5.41814">
        <ele>183.00415</ele>
        <time>2019-06-19 10:23:12,113</time>
      </trkpt>
      <trkpt lat="43.22126" lon="5.41815">
        <ele>183.78601</ele>
        <time>2019-06-19 10:23:13,113</time>
      </trkpt>
      <trkpt lat="43.22124" lon="5.41815">
        <ele>185.06659</ele>
        <time>2019-06-19 10:23:15,109</time>
      </trkpt>
      <trkpt lat="43.22123" lon="5.41815">
        <ele>186.34009</ele>
        <time>2019-06-19 10:23:16,101</time>
      </trkpt>
      <trkpt lat="43.22122" lon="5.41815">
        <ele>185.75684</ele>
        <time>2019-06-19 10:23:17,113</time>
      </trkpt>
      <trkpt lat="43.2212" lon="5.41815">
        <ele>185.6012</ele>
        <time>2019-06-19 10:23:18,111</time>
      </trkpt>
      <trkpt lat="43.22119" lon="5.41815">
        <ele>185.6919</ele>
        <time>2019-06-19 10:23:19,112</time>
      </trkpt>
      <trkpt lat="43.22117" lon="5.41815">
        <ele>185.41321</ele>
        <time>2019-06-19 10:23:20,095</time>
      </trkpt>
      <trkpt lat="43.22114" lon="5.41814">
        <ele>186.74188</ele>
        <time>2019-06-19 10:23:22,106</time>
      </trkpt>
      <trkpt lat="43.22106" lon="5.41816">
        <ele>185.4815</ele>
        <time>2019-06-19 10:23:29,457</time>
      </trkpt>
      <trkpt lat="43.22104" lon="5.41817">
        <ele>185.96729</ele>
        <time>2019-06-19 10:23:31,101</time>
      </trkpt>
      <trkpt lat="43.22101" lon="5.41819">
        <ele>184.19684</ele>
        <time>2019-06-19 10:23:33,111</time>
      </trkpt>
      <trkpt lat="43.22092" lon="5.41826">
        <ele>183.50317</ele>
        <time>2019-06-19 10:23:40,103</time>
      </trkpt>
      <trkpt lat="43.22091" lon="5.41827">
        <ele>184.3451</ele>
        <time>2019-06-19 10:23:41,114</time>
      </trkpt>
      <trkpt lat="43.2209" lon="5.41828">
        <ele>184.42004</ele>
        <time>2019-06-19 10:23:42,112</time>
      </trkpt>
      <trkpt lat="43.22089" lon="5.41828">
        <ele>185.11914</ele>
        <time>2019-06-19 10:23:43,120</time>
      </trkpt>
      <trkpt lat="43.22088" lon="5.41829">
        <ele>185.01794</ele>
        <time>2019-06-19 10:23:44,111</time>
      </trkpt>
      <trkpt lat="43.22088" lon="5.41829">
        <ele>185.00006</ele>
        <time>2019-06-19 10:23:45,105</time>
      </trkpt>
      <trkpt lat="43.22087" lon="5.4183">
        <ele>185.21985</ele>
        <time>2019-06-19 10:23:46,106</time>
      </trkpt>
      <trkpt lat="43.22084" lon="5.41832">
        <ele>187.11078</ele>
        <time>2019-06-19 10:23:48,106</time>
      </trkpt>
      <trkpt lat="43.22082" lon="5.41833">
        <ele>187.21045</ele>
        <time>2019-06-19 10:23:49,188</time>
      </trkpt>
      <trkpt lat="43.2208" lon="5.41833">
        <ele>186.8551</ele>
        <time>2019-06-19 10:23:50,131</time>
      </trkpt>
      <trkpt lat="43.22078" lon="5.41833">
        <ele>184.43994</ele>
        <time>2019-06-19 10:23:51,110</time>
      </trkpt>
      <trkpt lat="43.22077" lon="5.41833">
        <ele>184.26111</ele>
        <time>2019-06-19 10:23:52,106</time>
      </trkpt>
      <trkpt lat="43.22077" lon="5.41835">
        <ele>184.69336</ele>
        <time>2019-06-19 10:23:53,110</time>
      </trkpt>
      <trkpt lat="43.22076" lon="5.41837">
        <ele>184.26343</ele>
        <time>2019-06-19 10:23:56,099</time>
      </trkpt>
      <trkpt lat="43.22075" lon="5.41838">
        <ele>183.99835</ele>
        <time>2019-06-19 10:23:57,114</time>
      </trkpt>
      <trkpt lat="43.22074" lon="5.41839">
        <ele>187.21045</ele>
        <time>2019-06-19 10:23:58,108</time>
      </trkpt>
      <trkpt lat="43.22072" lon="5.41839">
        <ele>184.51654</ele>
        <time>2019-06-19 10:23:59,131</time>
      </trkpt>
      <trkpt lat="43.22072" lon="5.41839">
        <ele>185.51666</ele>
        <time>2019-06-19 10:24:00,110</time>
      </trkpt>
      <trkpt lat="43.22071" lon="5.41839">
        <ele>185.20642</ele>
        <time>2019-06-19 10:24:01,102</time>
      </trkpt>
      <trkpt lat="43.2207" lon="5.41839">
        <ele>186.29407</ele>
        <time>2019-06-19 10:24:02,108</time>
      </trkpt>
      <trkpt lat="43.2207" lon="5.41839">
        <ele>184.80725</ele>
        <time>2019-06-19 10:24:03,114</time>
      </trkpt>
      <trkpt lat="43.22068" lon="5.41839">
        <ele>185.73438</ele>
        <time>2019-06-19 10:24:05,114</time>
      </trkpt>
      <trkpt lat="43.22067" lon="5.41838">
        <ele>187.16394</ele>
        <time>2019-06-19 10:24:06,107</time>
      </trkpt>
      <trkpt lat="43.22066" lon="5.41838">
        <ele>187.92957</ele>
        <time>2019-06-19 10:24:07,159</time>
      </trkpt>
      <trkpt lat="43.22065" lon="5.41838">
        <ele>184.51654</ele>
        <time>2019-06-19 10:24:08,116</time>
      </trkpt>
      <trkpt lat="43.22064" lon="5.41837">
        <ele>189.32483</ele>
        <time>2019-06-19 10:24:09,113</time>
      </trkpt>
      <trkpt lat="43.22062" lon="5.41838">
        <ele>189.15247</ele>
        <time>2019-06-19 10:24:10,109</time>
      </trkpt>
      <trkpt lat="43.22059" lon="5.41838">
        <ele>188.98932</ele>
        <time>2019-06-19 10:24:11,108</time>
      </trkpt>
      <trkpt lat="43.22058" lon="5.41839">
        <ele>189.98907</ele>
        <time>2019-06-19 10:24:12,143</time>
      </trkpt>
      <trkpt lat="43.22054" lon="5.41839">
        <ele>188.84857</ele>
        <time>2019-06-19 10:24:15,103</time>
      </trkpt>
      <trkpt lat="43.22052" lon="5.41839">
        <ele>188.2467</ele>
        <time>2019-06-19 10:24:16,102</time>
      </trkpt>
      <trkpt lat="43.2205" lon="5.41838">
        <ele>189.32483</ele>
        <time>2019-06-19 10:24:18,096</time>
      </trkpt>
      <trkpt lat="43.22048" lon="5.41837">
        <ele>190.52051</ele>
        <time>2019-06-19 10:24:22,114</time>
      </trkpt>
      <trkpt lat="43.22048" lon="5.41837">
        <ele>190.31903</ele>
        <time>2019-06-19 10:24:23,113</time>
      </trkpt>
      <trkpt lat="43.22045" lon="5.41838">
        <ele>191.7121</ele>
        <time>2019-06-19 10:24:26,109</time>
      </trkpt>
      <trkpt lat="43.22039" lon="5.41838">
        <ele>192.93494</ele>
        <time>2019-06-19 10:24:29,368</time>
      </trkpt>
      <trkpt lat="43.22036" lon="5.41839">
        <ele>194.28699</ele>
        <time>2019-06-19 10:24:31,102</time>
      </trkpt>
      <trkpt lat="43.22035" lon="5.41839">
        <ele>191.34833</ele>
        <time>2019-06-19 10:24:32,403</time>
      </trkpt>
      <trkpt lat="43.22032" lon="5.41839">
        <ele>195.10522</ele>
        <time>2019-06-19 10:24:37,204</time>
      </trkpt>
      <trkpt lat="43.2203" lon="5.41838">
        <ele>196.11926</ele>
        <time>2019-06-19 10:24:38,102</time>
      </trkpt>
      <trkpt lat="43.22029" lon="5.41838">
        <ele>197.34412</ele>
        <time>2019-06-19 10:24:39,117</time>
      </trkpt>
      <trkpt lat="43.22027" lon="5.41838">
        <ele>193.8363</ele>
        <time>2019-06-19 10:24:40,240</time>
      </trkpt>
      <trkpt lat="43.22024" lon="5.41839">
        <ele>197.4812</ele>
        <time>2019-06-19 10:24:42,109</time>
      </trkpt>
      <trkpt lat="43.22023" lon="5.41839">
        <ele>198.13788</ele>
        <time>2019-06-19 10:24:43,111</time>
      </trkpt>
      <trkpt lat="43.2202" lon="5.41839">
        <ele>198.57416</ele>
        <time>2019-06-19 10:24:47,281</time>
      </trkpt>
      <trkpt lat="43.22014" lon="5.41839">
        <ele>197.4812</ele>
        <time>2019-06-19 10:24:52,145</time>
      </trkpt>
      <trkpt lat="43.22012" lon="5.4184">
        <ele>196.76147</ele>
        <time>2019-06-19 10:24:53,121</time>
      </trkpt>
      <trkpt lat="43.22006" lon="5.4184">
        <ele>195.22089</ele>
        <time>2019-06-19 10:24:56,106</time>
      </trkpt>
      <trkpt lat="43.22002" lon="5.4184">
        <ele>195.79053</ele>
        <time>2019-06-19 10:24:58,106</time>
      </trkpt>
      <trkpt lat="43.22001" lon="5.4184">
        <ele>196.9602</ele>
        <time>2019-06-19 10:25:01,115</time>
      </trkpt>
      <trkpt lat="43.21999" lon="5.41842">
        <ele>189.1997</ele>
        <time>2019-06-19 10:25:03,118</time>
      </trkpt>
      <trkpt lat="43.21997" lon="5.41844">
        <ele>191.43286</ele>
        <time>2019-06-19 10:25:05,110</time>
      </trkpt>
      <trkpt lat="43.21996" lon="5.41845">
        <ele>193.17517</ele>
        <time>2019-06-19 10:25:06,107</time>
      </trkpt>
      <trkpt lat="43.21995" lon="5.41846">
        <ele>194.81177</ele>
        <time>2019-06-19 10:25:07,103</time>
      </trkpt>
      <trkpt lat="43.21993" lon="5.41847">
        <ele>196.40833</ele>
        <time>2019-06-19 10:25:08,104</time>
      </trkpt>
      <trkpt lat="43.21986" lon="5.41851">
        <ele>189.1997</ele>
        <time>2019-06-19 10:25:13,166</time>
      </trkpt>
      <trkpt lat="43.21985" lon="5.41853">
        <ele>197.95105</ele>
        <time>2019-06-19 10:25:14,118</time>
      </trkpt>
      <trkpt lat="43.21984" lon="5.41854">
        <ele>198.4013</ele>
        <time>2019-06-19 10:25:15,108</time>
      </trkpt>
      <trkpt lat="43.21983" lon="5.41857">
        <ele>195.94684</ele>
        <time>2019-06-19 10:25:16,115</time>
      </trkpt>
      <trkpt lat="43.21983" lon="5.4186">
        <ele>195.64178</ele>
        <time>2019-06-19 10:25:17,099</time>
      </trkpt>
      <trkpt lat="43.21981" lon="5.41865">
        <ele>190.11212</ele>
        <time>2019-06-19 10:25:19,103</time>
      </trkpt>
      <trkpt lat="43.21979" lon="5.41872">
        <ele>189.13354</ele>
        <time>2019-06-19 10:25:22,105</time>
      </trkpt>
      <trkpt lat="43.21976" lon="5.41878">
        <ele>185.05243</ele>
        <time>2019-06-19 10:25:27,111</time>
      </trkpt>
      <trkpt lat="43.21974" lon="5.41882">
        <ele>183.6419</ele>
        <time>2019-06-19 10:25:40,104</time>
      </trkpt>
      <trkpt lat="43.21974" lon="5.41882">
        <ele>183.91809</ele>
        <time>2019-06-19 10:25:41,125</time>
      </trkpt>
      <trkpt lat="43.21973" lon="5.41881">
        <ele>185.10889</ele>
        <time>2019-06-19 10:25:47,141</time>
      </trkpt>
      <trkpt lat="43.2197" lon="5.41884">
        <ele>186.26636</ele>
        <time>2019-06-19 10:25:51,104</time>
      </trkpt>
      <trkpt lat="43.21965" lon="5.41891">
        <ele>186.44891</ele>
        <time>2019-06-19 10:25:57,100</time>
      </trkpt>
      <trkpt lat="43.21964" lon="5.41892">
        <ele>186.60773</ele>
        <time>2019-06-19 10:25:58,101</time>
      </trkpt>
      <trkpt lat="43.21964" lon="5.41893">
        <ele>186.51337</ele>
        <time>2019-06-19 10:25:59,107</time>
      </trkpt>
      <trkpt lat="43.21963" lon="5.41895">
        <ele>188.66699</ele>
        <time>2019-06-19 10:26:02,103</time>
      </trkpt>
      <trkpt lat="43.21963" lon="5.41892">
        <ele>192.6554</ele>
        <time>2019-06-19 10:26:23,109</time>
      </trkpt>
      <trkpt lat="43.21962" lon="5.41893">
        <ele>193.0376</ele>
        <time>2019-06-19 10:26:24,119</time>
      </trkpt>
      <trkpt lat="43.21961" lon="5.41893">
        <ele>193.1825</ele>
        <time>2019-06-19 10:26:25,108</time>
      </trkpt>
      <trkpt lat="43.21959" lon="5.41893">
        <ele>193.51215</ele>
        <time>2019-06-19 10:26:26,112</time>
      </trkpt>
      <trkpt lat="43.21959" lon="5.41893">
        <ele>193.3852</ele>
        <time>2019-06-19 10:26:27,110</time>
      </trkpt>
      <trkpt lat="43.21957" lon="5.41892">
        <ele>193.29517</ele>
        <time>2019-06-19 10:26:32,101</time>
      </trkpt>
      <trkpt lat="43.21955" lon="5.41892">
        <ele>192.82971</ele>
        <time>2019-06-19 10:26:34,113</time>
      </trkpt>
      <trkpt lat="43.21954" lon="5.41892">
        <ele>193.17029</ele>
        <time>2019-06-19 10:26:36,107</time>
      </trkpt>
      <trkpt lat="43.21953" lon="5.41892">
        <ele>193.10571</ele>
        <time>2019-06-19 10:26:37,102</time>
      </trkpt>
      <trkpt lat="43.2195" lon="5.41893">
        <ele>192.77625</ele>
        <time>2019-06-19 10:26:39,381</time>
      </trkpt>
      <trkpt lat="43.21948" lon="5.41893">
        <ele>193.53027</ele>
        <time>2019-06-19 10:26:41,108</time>
      </trkpt>
      <trkpt lat="43.21947" lon="5.41894">
        <ele>182.57794</ele>
        <time>2019-06-19 10:26:42,131</time>
      </trkpt>
      <trkpt lat="43.21945" lon="5.41894">
        <ele>188.06616</ele>
        <time>2019-06-19 10:26:43,104</time>
      </trkpt>
      <trkpt lat="43.21939" lon="5.41896">
        <ele>190.61847</ele>
        <time>2019-06-19 10:26:47,103</time>
      </trkpt>
      <trkpt lat="43.21938" lon="5.41896">
        <ele>190.67883</ele>
        <time>2019-06-19 10:26:48,135</time>
      </trkpt>
      <trkpt lat="43.21937" lon="5.41896">
        <ele>191.08228</ele>
        <time>2019-06-19 10:26:49,133</time>
      </trkpt>
      <trkpt lat="43.21933" lon="5.41899">
        <ele>192.323</ele>
        <time>2019-06-19 10:26:52,100</time>
      </trkpt>
      <trkpt lat="43.21932" lon="5.419">
        <ele>191.83997</ele>
        <time>2019-06-19 10:26:53,117</time>
      </trkpt>
      <trkpt lat="43.21932" lon="5.419">
        <ele>193.17566</ele>
        <time>2019-06-19 10:26:54,112</time>
      </trkpt>
      <trkpt lat="43.21931" lon="5.419">
        <ele>193.53345</ele>
        <time>2019-06-19 10:26:55,102</time>
      </trkpt>
      <trkpt lat="43.21928" lon="5.41902">
        <ele>191.30505</ele>
        <time>2019-06-19 10:26:58,103</time>
      </trkpt>
      <trkpt lat="43.21926" lon="5.41903">
        <ele>191.6372</ele>
        <time>2019-06-19 10:27:00,106</time>
      </trkpt>
      <trkpt lat="43.21925" lon="5.41904">
        <ele>191.55609</ele>
        <time>2019-06-19 10:27:02,111</time>
      </trkpt>
      <trkpt lat="43.21924" lon="5.41904">
        <ele>192.38672</ele>
        <time>2019-06-19 10:27:03,109</time>
      </trkpt>
      <trkpt lat="43.21923" lon="5.41905">
        <ele>193.89429</ele>
        <time>2019-06-19 10:27:04,107</time>
      </trkpt>
      <trkpt lat="43.21922" lon="5.41905">
        <ele>195.26239</ele>
        <time>2019-06-19 10:27:06,101</time>
      </trkpt>
      <trkpt lat="43.21921" lon="5.41906">
        <ele>192.6012</ele>
        <time>2019-06-19 10:27:07,103</time>
      </trkpt>
      <trkpt lat="43.2192" lon="5.41907">
        <ele>177.6629</ele>
        <time>2019-06-19 10:27:08,108</time>
      </trkpt>
      <trkpt lat="43.21914" lon="5.41913">
        <ele>186.65802</ele>
        <time>2019-06-19 10:27:14,110</time>
      </trkpt>
      <trkpt lat="43.21911" lon="5.41914">
        <ele>187.05786</ele>
        <time>2019-06-19 10:27:16,129</time>
      </trkpt>
      <trkpt lat="43.21911" lon="5.41914">
        <ele>188.11316</ele>
        <time>2019-06-19 10:27:17,101</time>
      </trkpt>
      <trkpt lat="43.21902" lon="5.41924">
        <ele>191.48474</ele>
        <time>2019-06-19 10:27:27,122</time>
      </trkpt>
      <trkpt lat="43.21901" lon="5.41926">
        <ele>191.44055</ele>
        <time>2019-06-19 10:27:28,107</time>
      </trkpt>
      <trkpt lat="43.21901" lon="5.41927">
        <ele>191.6654</ele>
        <time>2019-06-19 10:27:29,110</time>
      </trkpt>
      <trkpt lat="43.219" lon="5.41929">
        <ele>193.932</ele>
        <time>2019-06-19 10:27:32,107</time>
      </trkpt>
      <trkpt lat="43.21896" lon="5.41938">
        <ele>191.07281</ele>
        <time>2019-06-19 10:27:39,097</time>
      </trkpt>
      <trkpt lat="43.21895" lon="5.41939">
        <ele>192.93274</ele>
        <time>2019-06-19 10:27:40,102</time>
      </trkpt>
      <trkpt lat="43.21893" lon="5.41943">
        <ele>195.66742</ele>
        <time>2019-06-19 10:27:44,105</time>
      </trkpt>
      <trkpt lat="43.21892" lon="5.41945">
        <ele>197.6419</ele>
        <time>2019-06-19 10:27:45,114</time>
      </trkpt>
      <trkpt lat="43.2189" lon="5.41954">
        <ele>199.04333</ele>
        <time>2019-06-19 10:27:51,105</time>
      </trkpt>
      <trkpt lat="43.2189" lon="5.41955">
        <ele>199.58319</ele>
        <time>2019-06-19 10:27:52,120</time>
      </trkpt>
      <trkpt lat="43.21889" lon="5.41959">
        <ele>199.59753</ele>
        <time>2019-06-19 10:27:55,116</time>
      </trkpt>
      <trkpt lat="43.21888" lon="5.4196">
        <ele>200.54468</ele>
        <time>2019-06-19 10:27:56,110</time>
      </trkpt>
      <trkpt lat="43.21886" lon="5.41964">
        <ele>200.06555</ele>
        <time>2019-06-19 10:27:58,158</time>
      </trkpt>
      <trkpt lat="43.21883" lon="5.41973">
        <ele>203.64508</ele>
        <time>2019-06-19 10:28:07,103</time>
      </trkpt>
      <trkpt lat="43.2188" lon="5.41978">
        <ele>204.07275</ele>
        <time>2019-06-19 10:28:10,121</time>
      </trkpt>
      <trkpt lat="43.21877" lon="5.41984">
        <ele>199.29199</ele>
        <time>2019-06-19 10:28:14,116</time>
      </trkpt>
      <trkpt lat="43.21877" lon="5.41986">
        <ele>198.9643</ele>
        <time>2019-06-19 10:28:15,105</time>
      </trkpt>
      <trkpt lat="43.21876" lon="5.41987">
        <ele>199.18689</ele>
        <time>2019-06-19 10:28:16,101</time>
      </trkpt>
      <trkpt lat="43.21874" lon="5.41992">
        <ele>198.79883</ele>
        <time>2019-06-19 10:28:20,121</time>
      </trkpt>
      <trkpt lat="43.21874" lon="5.41993">
        <ele>198.91803</ele>
        <time>2019-06-19 10:28:22,112</time>
      </trkpt>
      <trkpt lat="43.21872" lon="5.41995">
        <ele>199.87378</ele>
        <time>2019-06-19 10:28:25,110</time>
      </trkpt>
      <trkpt lat="43.2187" lon="5.41998">
        <ele>198.18463</ele>
        <time>2019-06-19 10:28:29,107</time>
      </trkpt>
      <trkpt lat="43.21868" lon="5.42">
        <ele>196.24811</ele>
        <time>2019-06-19 10:28:30,197</time>
      </trkpt>
      <trkpt lat="43.21867" lon="5.42002">
        <ele>194.87292</ele>
        <time>2019-06-19 10:28:31,130</time>
      </trkpt>
      <trkpt lat="43.21867" lon="5.42003">
        <ele>195.92004</ele>
        <time>2019-06-19 10:28:32,104</time>
      </trkpt>
      <trkpt lat="43.21866" lon="5.42003">
        <ele>195.48303</ele>
        <time>2019-06-19 10:28:33,104</time>
      </trkpt>
      <trkpt lat="43.21865" lon="5.42006">
        <ele>195.08032</ele>
        <time>2019-06-19 10:28:35,109</time>
      </trkpt>
      <trkpt lat="43.21864" lon="5.42007">
        <ele>194.03418</ele>
        <time>2019-06-19 10:28:36,122</time>
      </trkpt>
      <trkpt lat="43.21864" lon="5.42007">
        <ele>194.77728</ele>
        <time>2019-06-19 10:28:38,124</time>
      </trkpt>
      <trkpt lat="43.21863" lon="5.42008">
        <ele>195.2992</ele>
        <time>2019-06-19 10:28:40,121</time>
      </trkpt>
      <trkpt lat="43.21863" lon="5.42009">
        <ele>194.2608</ele>
        <time>2019-06-19 10:28:42,108</time>
      </trkpt>
      <trkpt lat="43.21862" lon="5.42011">
        <ele>193.9126</ele>
        <time>2019-06-19 10:28:43,117</time>
      </trkpt>
      <trkpt lat="43.21862" lon="5.42014">
        <ele>193.06982</ele>
        <time>2019-06-19 10:28:45,123</time>
      </trkpt>
      <trkpt lat="43.21861" lon="5.42014">
        <ele>194.0661</ele>
        <time>2019-06-19 10:28:46,115</time>
      </trkpt>
      <trkpt lat="43.21859" lon="5.42018">
        <ele>195.95508</ele>
        <time>2019-06-19 10:28:51,197</time>
      </trkpt>
      <trkpt lat="43.21858" lon="5.4202">
        <ele>196.07849</ele>
        <time>2019-06-19 10:28:52,115</time>
      </trkpt>
      <trkpt lat="43.21858" lon="5.42025">
        <ele>193.78027</ele>
        <time>2019-06-19 10:28:56,114</time>
      </trkpt>
      <trkpt lat="43.21857" lon="5.42027">
        <ele>193.84906</ele>
        <time>2019-06-19 10:28:57,112</time>
      </trkpt>
      <trkpt lat="43.21856" lon="5.42032">
        <ele>195.54736</ele>
        <time>2019-06-19 10:29:00,144</time>
      </trkpt>
      <trkpt lat="43.21855" lon="5.42034">
        <ele>194.35406</ele>
        <time>2019-06-19 10:29:01,114</time>
      </trkpt>
      <trkpt lat="43.21854" lon="5.42037">
        <ele>195.20703</ele>
        <time>2019-06-19 10:29:04,150</time>
      </trkpt>
      <trkpt lat="43.21853" lon="5.42039">
        <ele>195.23547</ele>
        <time>2019-06-19 10:29:05,113</time>
      </trkpt>
      <trkpt lat="43.21853" lon="5.42042">
        <ele>195.75726</ele>
        <time>2019-06-19 10:29:08,247</time>
      </trkpt>
      <trkpt lat="43.21852" lon="5.42045">
        <ele>196.01941</ele>
        <time>2019-06-19 10:29:10,108</time>
      </trkpt>
      <trkpt lat="43.21851" lon="5.42047">
        <ele>196.06714</ele>
        <time>2019-06-19 10:29:12,110</time>
      </trkpt>
      <trkpt lat="43.21851" lon="5.42048">
        <ele>195.35577</ele>
        <time>2019-06-19 10:29:13,129</time>
      </trkpt>
      <trkpt lat="43.2185" lon="5.42049">
        <ele>194.35144</ele>
        <time>2019-06-19 10:29:14,107</time>
      </trkpt>
      <trkpt lat="43.21849" lon="5.4205">
        <ele>195.76343</ele>
        <time>2019-06-19 10:29:15,103</time>
      </trkpt>
      <trkpt lat="43.21849" lon="5.4205">
        <ele>197.0445</ele>
        <time>2019-06-19 10:29:16,107</time>
      </trkpt>
      <trkpt lat="43.21849" lon="5.42051">
        <ele>197.88416</ele>
        <time>2019-06-19 10:29:17,113</time>
      </trkpt>
      <trkpt lat="43.21849" lon="5.42054">
        <ele>199.388</ele>
        <time>2019-06-19 10:29:19,364</time>
      </trkpt>
      <trkpt lat="43.21849" lon="5.42054">
        <ele>199.60168</ele>
        <time>2019-06-19 10:29:21,097</time>
      </trkpt>
      <trkpt lat="43.2185" lon="5.42054">
        <ele>201.54852</ele>
        <time>2019-06-19 10:29:23,104</time>
      </trkpt>
      <trkpt lat="43.2185" lon="5.42054">
        <ele>202.91571</ele>
        <time>2019-06-19 10:29:24,166</time>
      </trkpt>
      <trkpt lat="43.2185" lon="5.42055">
        <ele>202.07275</ele>
        <time>2019-06-19 10:29:26,116</time>
      </trkpt>
      <trkpt lat="43.2185" lon="5.42057">
        <ele>200.56323</ele>
        <time>2019-06-19 10:29:27,179</time>
      </trkpt>
      <trkpt lat="43.2185" lon="5.42065">
        <ele>205.22021</ele>
        <time>2019-06-19 10:29:34,108</time>
      </trkpt>
      <trkpt lat="43.2185" lon="5.42067">
        <ele>205.20782</ele>
        <time>2019-06-19 10:29:35,180</time>
      </trkpt>
      <trkpt lat="43.21849" lon="5.42068">
        <ele>208.24292</ele>
        <time>2019-06-19 10:29:36,116</time>
      </trkpt>
      <trkpt lat="43.21849" lon="5.42071">
        <ele>211.79785</ele>
        <time>2019-06-19 10:29:40,111</time>
      </trkpt>
      <trkpt lat="43.21849" lon="5.42077">
        <ele>213.30591</ele>
        <time>2019-06-19 10:29:44,102</time>
      </trkpt>
      <trkpt lat="43.21849" lon="5.42077">
        <ele>214.0794</ele>
        <time>2019-06-19 10:29:46,107</time>
      </trkpt>
      <trkpt lat="43.21848" lon="5.42086">
        <ele>212.8598</ele>
        <time>2019-06-19 10:29:51,112</time>
      </trkpt>
      <trkpt lat="43.21847" lon="5.42087">
        <ele>213.14893</ele>
        <time>2019-06-19 10:29:53,148</time>
      </trkpt>
      <trkpt lat="43.21847" lon="5.42087">
        <ele>213.98804</ele>
        <time>2019-06-19 10:29:56,118</time>
      </trkpt>
      <trkpt lat="43.21847" lon="5.42088">
        <ele>214.31256</ele>
        <time>2019-06-19 10:29:57,112</time>
      </trkpt>
      <trkpt lat="43.21847" lon="5.42089">
        <ele>213.07727</ele>
        <time>2019-06-19 10:29:58,095</time>
      </trkpt>
      <trkpt lat="43.21847" lon="5.42091">
        <ele>212.3888</ele>
        <time>2019-06-19 10:29:59,105</time>
      </trkpt>
      <trkpt lat="43.21846" lon="5.42097">
        <ele>213.21088</ele>
        <time>2019-06-19 10:30:03,108</time>
      </trkpt>
      <trkpt lat="43.21846" lon="5.421">
        <ele>213.9397</ele>
        <time>2019-06-19 10:30:04,107</time>
      </trkpt>
      <trkpt lat="43.21846" lon="5.421">
        <ele>214.72266</ele>
        <time>2019-06-19 10:30:05,117</time>
      </trkpt>
      <trkpt lat="43.21846" lon="5.42102">
        <ele>211.54492</ele>
        <time>2019-06-19 10:30:07,178</time>
      </trkpt>
      <trkpt lat="43.21846" lon="5.42103">
        <ele>212.30438</ele>
        <time>2019-06-19 10:30:08,118</time>
      </trkpt>
      <trkpt lat="43.21847" lon="5.42104">
        <ele>212.66797</ele>
        <time>2019-06-19 10:30:24,115</time>
      </trkpt>
      <trkpt lat="43.21847" lon="5.42105">
        <ele>211.85583</ele>
        <time>2019-06-19 10:30:25,110</time>
      </trkpt>
      <trkpt lat="43.21847" lon="5.42106">
        <ele>212.09515</ele>
        <time>2019-06-19 10:30:26,172</time>
      </trkpt>
      <trkpt lat="43.21847" lon="5.42107">
        <ele>212.05627</ele>
        <time>2019-06-19 10:30:27,106</time>
      </trkpt>
      <trkpt lat="43.21846" lon="5.42109">
        <ele>212.16272</ele>
        <time>2019-06-19 10:30:28,117</time>
      </trkpt>
      <trkpt lat="43.21843" lon="5.42115">
        <ele>214.7143</ele>
        <time>2019-06-19 10:30:32,115</time>
      </trkpt>
      <trkpt lat="43.21843" lon="5.42119">
        <ele>212.88501</ele>
        <time>2019-06-19 10:30:35,117</time>
      </trkpt>
      <trkpt lat="43.21843" lon="5.42121">
        <ele>212.53967</ele>
        <time>2019-06-19 10:30:36,114</time>
      </trkpt>
      <trkpt lat="43.21842" lon="5.42125">
        <ele>212.9945</ele>
        <time>2019-06-19 10:30:39,149</time>
      </trkpt>
      <trkpt lat="43.21842" lon="5.42125">
        <ele>213.91113</ele>
        <time>2019-06-19 10:30:41,343</time>
      </trkpt>
      <trkpt lat="43.21842" lon="5.42128">
        <ele>212.83258</ele>
        <time>2019-06-19 10:30:43,128</time>
      </trkpt>
      <trkpt lat="43.21842" lon="5.42132">
        <ele>211.83398</ele>
        <time>2019-06-19 10:30:46,109</time>
      </trkpt>
      <trkpt lat="43.21842" lon="5.42137">
        <ele>215.94183</ele>
        <time>2019-06-19 10:30:51,113</time>
      </trkpt>
      <trkpt lat="43.21842" lon="5.42137">
        <ele>210.64172</ele>
        <time>2019-06-19 10:30:53,113</time>
      </trkpt>
      <trkpt lat="43.21842" lon="5.4214">
        <ele>215.43701</ele>
        <time>2019-06-19 10:30:55,128</time>
      </trkpt>
      <trkpt lat="43.21842" lon="5.42141">
        <ele>215.12598</ele>
        <time>2019-06-19 10:30:56,442</time>
      </trkpt>
      <trkpt lat="43.21843" lon="5.42144">
        <ele>214.89313</ele>
        <time>2019-06-19 10:30:58,133</time>
      </trkpt>
      <trkpt lat="43.21843" lon="5.42146">
        <ele>214.60394</ele>
        <time>2019-06-19 10:30:59,108</time>
      </trkpt>
      <trkpt lat="43.21843" lon="5.42147">
        <ele>214.59454</ele>
        <time>2019-06-19 10:31:00,113</time>
      </trkpt>
      <trkpt lat="43.21844" lon="5.42147">
        <ele>214.1643</ele>
        <time>2019-06-19 10:31:01,109</time>
      </trkpt>
      <trkpt lat="43.21845" lon="5.42148">
        <ele>216.19708</ele>
        <time>2019-06-19 10:31:04,105</time>
      </trkpt>
      <trkpt lat="43.21845" lon="5.42149">
        <ele>214.52728</ele>
        <time>2019-06-19 10:31:05,106</time>
      </trkpt>
      <trkpt lat="43.21845" lon="5.4215">
        <ele>216.6629</ele>
        <time>2019-06-19 10:31:06,123</time>
      </trkpt>
      <trkpt lat="43.21844" lon="5.42151">
        <ele>217.58765</ele>
        <time>2019-06-19 10:31:07,107</time>
      </trkpt>
      <trkpt lat="43.21844" lon="5.42152">
        <ele>217.99792</ele>
        <time>2019-06-19 10:31:08,111</time>
      </trkpt>
      <trkpt lat="43.21844" lon="5.42153">
        <ele>217.99579</ele>
        <time>2019-06-19 10:31:09,105</time>
      </trkpt>
      <trkpt lat="43.21844" lon="5.42154">
        <ele>218.34741</ele>
        <time>2019-06-19 10:31:10,109</time>
      </trkpt>
      <trkpt lat="43.21844" lon="5.42155">
        <ele>219.80865</ele>
        <time>2019-06-19 10:31:11,109</time>
      </trkpt>
      <trkpt lat="43.21844" lon="5.42158">
        <ele>217.97003</ele>
        <time>2019-06-19 10:31:13,114</time>
      </trkpt>
      <trkpt lat="43.21844" lon="5.4216">
        <ele>217.95264</ele>
        <time>2019-06-19 10:31:14,101</time>
      </trkpt>
      <trkpt lat="43.21844" lon="5.42166">
        <ele>220.03479</ele>
        <time>2019-06-19 10:31:18,128</time>
      </trkpt>
      <trkpt lat="43.21844" lon="5.42168">
        <ele>219.71912</ele>
        <time>2019-06-19 10:31:19,103</time>
      </trkpt>
      <trkpt lat="43.21844" lon="5.42169">
        <ele>221.22522</ele>
        <time>2019-06-19 10:31:21,107</time>
      </trkpt>
      <trkpt lat="43.21843" lon="5.42172">
        <ele>221.59271</ele>
        <time>2019-06-19 10:31:23,118</time>
      </trkpt>
      <trkpt lat="43.21842" lon="5.42176">
        <ele>221.67139</ele>
        <time>2019-06-19 10:31:26,108</time>
      </trkpt>
      <trkpt lat="43.21842" lon="5.42178">
        <ele>223.85669</ele>
        <time>2019-06-19 10:31:30,114</time>
      </trkpt>
      <trkpt lat="43.21843" lon="5.42178">
        <ele>224.09216</ele>
        <time>2019-06-19 10:31:31,107</time>
      </trkpt>
      <trkpt lat="43.21842" lon="5.4218">
        <ele>221.36633</ele>
        <time>2019-06-19 10:31:34,114</time>
      </trkpt>
      <trkpt lat="43.21841" lon="5.42185">
        <ele>221.67139</ele>
        <time>2019-06-19 10:31:36,108</time>
      </trkpt>
      <trkpt lat="43.21838" lon="5.42193">
        <ele>225.15283</ele>
        <time>2019-06-19 10:31:42,132</time>
      </trkpt>
      <trkpt lat="43.21838" lon="5.42195">
        <ele>224.44409</ele>
        <time>2019-06-19 10:31:43,118</time>
      </trkpt>
      <trkpt lat="43.21837" lon="5.42196">
        <ele>225.05139</ele>
        <time>2019-06-19 10:31:44,113</time>
      </trkpt>
      <trkpt lat="43.21837" lon="5.42197">
        <ele>225.77246</ele>
        <time>2019-06-19 10:31:45,209</time>
      </trkpt>
      <trkpt lat="43.21837" lon="5.42198">
        <ele>225.06</ele>
        <time>2019-06-19 10:31:46,113</time>
      </trkpt>
      <trkpt lat="43.21838" lon="5.422">
        <ele>226.04065</ele>
        <time>2019-06-19 10:31:47,108</time>
      </trkpt>
      <trkpt lat="43.21837" lon="5.42209">
        <ele>229.92456</ele>
        <time>2019-06-19 10:31:57,116</time>
      </trkpt>
      <trkpt lat="43.21837" lon="5.4221">
        <ele>231.4339</ele>
        <time>2019-06-19 10:31:58,113</time>
      </trkpt>
      <trkpt lat="43.21836" lon="5.42212">
        <ele>233.60596</ele>
        <time>2019-06-19 10:31:59,099</time>
      </trkpt>
      <trkpt lat="43.21836" lon="5.42213">
        <ele>233.68909</ele>
        <time>2019-06-19 10:32:00,113</time>
      </trkpt>
      <trkpt lat="43.21835" lon="5.42215">
        <ele>234.80872</ele>
        <time>2019-06-19 10:32:01,115</time>
      </trkpt>
      <trkpt lat="43.21835" lon="5.42216">
        <ele>235.63867</ele>
        <time>2019-06-19 10:32:02,112</time>
      </trkpt>
      <trkpt lat="43.21834" lon="5.42217">
        <ele>237.66278</ele>
        <time>2019-06-19 10:32:04,116</time>
      </trkpt>
      <trkpt lat="43.21834" lon="5.42218">
        <ele>237.32782</ele>
        <time>2019-06-19 10:32:05,107</time>
      </trkpt>
      <trkpt lat="43.21832" lon="5.42221">
        <ele>237.86957</ele>
        <time>2019-06-19 10:32:07,112</time>
      </trkpt>
      <trkpt lat="43.21832" lon="5.42222">
        <ele>233.60596</ele>
        <time>2019-06-19 10:32:08,100</time>
      </trkpt>
      <trkpt lat="43.21831" lon="5.42224">
        <ele>238.01575</ele>
        <time>2019-06-19 10:32:10,110</time>
      </trkpt>
      <trkpt lat="43.2183" lon="5.42226">
        <ele>237.7287</ele>
        <time>2019-06-19 10:32:12,106</time>
      </trkpt>
      <trkpt lat="43.21828" lon="5.42229">
        <ele>240.32416</ele>
        <time>2019-06-19 10:32:15,109</time>
      </trkpt>
      <trkpt lat="43.21828" lon="5.42229">
        <ele>240.96643</ele>
        <time>2019-06-19 10:32:16,104</time>
      </trkpt>
      <trkpt lat="43.21827" lon="5.4223">
        <ele>240.95978</ele>
        <time>2019-06-19 10:32:17,144</time>
      </trkpt>
      <trkpt lat="43.21826" lon="5.42233">
        <ele>238.45172</ele>
        <time>2019-06-19 10:32:18,106</time>
      </trkpt>
      <trkpt lat="43.21825" lon="5.42235">
        <ele>240.87946</ele>
        <time>2019-06-19 10:32:19,268</time>
      </trkpt>
      <trkpt lat="43.21823" lon="5.42238">
        <ele>242.61115</ele>
        <time>2019-06-19 10:32:23,148</time>
      </trkpt>
      <trkpt lat="43.21822" lon="5.4224">
        <ele>241.64557</ele>
        <time>2019-06-19 10:32:25,109</time>
      </trkpt>
      <trkpt lat="43.2182" lon="5.42244">
        <ele>239.20874</ele>
        <time>2019-06-19 10:32:28,109</time>
      </trkpt>
      <trkpt lat="43.21819" lon="5.42249">
        <ele>241.1925</ele>
        <time>2019-06-19 10:32:31,109</time>
      </trkpt>
      <trkpt lat="43.21819" lon="5.4225">
        <ele>243.35187</ele>
        <time>2019-06-19 10:32:32,103</time>
      </trkpt>
      <trkpt lat="43.21818" lon="5.42251">
        <ele>241.06903</ele>
        <time>2019-06-19 10:32:33,102</time>
      </trkpt>
      <trkpt lat="43.21817" lon="5.42252">
        <ele>241.38434</ele>
        <time>2019-06-19 10:32:34,107</time>
      </trkpt>
      <trkpt lat="43.21817" lon="5.42252">
        <ele>242.47076</ele>
        <time>2019-06-19 10:32:35,101</time>
      </trkpt>
      <trkpt lat="43.21817" lon="5.42252">
        <ele>240.99805</ele>
        <time>2019-06-19 10:32:36,106</time>
      </trkpt>
      <trkpt lat="43.21817" lon="5.42252">
        <ele>240.32849</ele>
        <time>2019-06-19 10:32:37,108</time>
      </trkpt>
      <trkpt lat="43.21817" lon="5.42252">
        <ele>240.57849</ele>
        <time>2019-06-19 10:32:38,111</time>
      </trkpt>
      <trkpt lat="43.21816" lon="5.42259">
        <ele>233.33429</ele>
        <time>2019-06-19 10:33:08,116</time>
      </trkpt>
      <trkpt lat="43.21816" lon="5.42259">
        <ele>233.37244</ele>
        <time>2019-06-19 10:33:29,117</time>
      </trkpt>
      <trkpt lat="43.21816" lon="5.42259">
        <ele>234.7633</ele>
        <time>2019-06-19 10:33:37,141</time>
      </trkpt>
      <trkpt lat="43.21816" lon="5.4226">
        <ele>235.2373</ele>
        <time>2019-06-19 10:33:38,120</time>
      </trkpt>
      <trkpt lat="43.21817" lon="5.42262">
        <ele>233.78967</ele>
        <time>2019-06-19 10:33:41,107</time>
      </trkpt>
      <trkpt lat="43.21816" lon="5.42264">
        <ele>233.10925</ele>
        <time>2019-06-19 10:33:42,108</time>
      </trkpt>
      <trkpt lat="43.21815" lon="5.42269">
        <ele>233.78577</ele>
        <time>2019-06-19 10:33:46,106</time>
      </trkpt>
      <trkpt lat="43.21808" lon="5.42282">
        <ele>229.13464</ele>
        <time>2019-06-19 10:33:55,108</time>
      </trkpt>
      <trkpt lat="43.21807" lon="5.42283">
        <ele>229.39783</ele>
        <time>2019-06-19 10:33:56,113</time>
      </trkpt>
      <trkpt lat="43.21804" lon="5.42286">
        <ele>230.51721</ele>
        <time>2019-06-19 10:33:59,112</time>
      </trkpt>
      <trkpt lat="43.21801" lon="5.42292">
        <ele>230.21216</ele>
        <time>2019-06-19 10:34:05,114</time>
      </trkpt>
      <trkpt lat="43.21801" lon="5.42294">
        <ele>229.35828</ele>
        <time>2019-06-19 10:34:07,117</time>
      </trkpt>
      <trkpt lat="43.21801" lon="5.42295">
        <ele>231.00366</ele>
        <time>2019-06-19 10:34:09,132</time>
      </trkpt>
      <trkpt lat="43.21802" lon="5.42296">
        <ele>231.05115</ele>
        <time>2019-06-19 10:34:10,110</time>
      </trkpt>
      <trkpt lat="43.21801" lon="5.42297">
        <ele>231.67139</ele>
        <time>2019-06-19 10:34:13,114</time>
      </trkpt>
      <trkpt lat="43.21801" lon="5.42301">
        <ele>230.30005</ele>
        <time>2019-06-19 10:34:17,114</time>
      </trkpt>
      <trkpt lat="43.21801" lon="5.42304">
        <ele>236.03564</ele>
        <time>2019-06-19 10:34:25,102</time>
      </trkpt>
      <trkpt lat="43.21801" lon="5.42306">
        <ele>234.19153</ele>
        <time>2019-06-19 10:34:26,116</time>
      </trkpt>
      <trkpt lat="43.21801" lon="5.42308">
        <ele>233.32117</ele>
        <time>2019-06-19 10:34:27,103</time>
      </trkpt>
      <trkpt lat="43.218" lon="5.4231">
        <ele>235.46924</ele>
        <time>2019-06-19 10:34:31,115</time>
      </trkpt>
      <trkpt lat="43.21801" lon="5.42312">
        <ele>234.49365</ele>
        <time>2019-06-19 10:34:32,197</time>
      </trkpt>
      <trkpt lat="43.21801" lon="5.42312">
        <ele>237.107</ele>
        <time>2019-06-19 10:34:33,145</time>
      </trkpt>
      <trkpt lat="43.21802" lon="5.42314">
        <ele>238.70734</ele>
        <time>2019-06-19 10:34:35,110</time>
      </trkpt>
      <trkpt lat="43.21803" lon="5.42317">
        <ele>239.40979</ele>
        <time>2019-06-19 10:34:40,142</time>
      </trkpt>
      <trkpt lat="43.21803" lon="5.42318">
        <ele>240.2044</ele>
        <time>2019-06-19 10:34:41,105</time>
      </trkpt>
      <trkpt lat="43.21803" lon="5.42319">
        <ele>239.2528</ele>
        <time>2019-06-19 10:34:42,116</time>
      </trkpt>
      <trkpt lat="43.21805" lon="5.42322">
        <ele>244.00854</ele>
        <time>2019-06-19 10:34:49,117</time>
      </trkpt>
      <trkpt lat="43.21805" lon="5.42322">
        <ele>245.76257</ele>
        <time>2019-06-19 10:34:50,104</time>
      </trkpt>
      <trkpt lat="43.21808" lon="5.42323">
        <ele>246.32697</ele>
        <time>2019-06-19 10:34:58,114</time>
      </trkpt>
      <trkpt lat="43.21809" lon="5.42324">
        <ele>248.01538</ele>
        <time>2019-06-19 10:34:59,109</time>
      </trkpt>
      <trkpt lat="43.21811" lon="5.42324">
        <ele>248.23145</ele>
        <time>2019-06-19 10:35:00,104</time>
      </trkpt>
      <trkpt lat="43.21813" lon="5.42325">
        <ele>248.86127</ele>
        <time>2019-06-19 10:35:02,106</time>
      </trkpt>
      <trkpt lat="43.21814" lon="5.42325">
        <ele>249.32043</ele>
        <time>2019-06-19 10:35:03,102</time>
      </trkpt>
      <trkpt lat="43.21815" lon="5.42326">
        <ele>249.06604</ele>
        <time>2019-06-19 10:35:05,110</time>
      </trkpt>
      <trkpt lat="43.21817" lon="5.42327">
        <ele>251.83783</ele>
        <time>2019-06-19 10:35:07,101</time>
      </trkpt>
      <trkpt lat="43.21818" lon="5.42328">
        <ele>252.00726</ele>
        <time>2019-06-19 10:35:08,105</time>
      </trkpt>
      <trkpt lat="43.21819" lon="5.42328">
        <ele>253.10516</ele>
        <time>2019-06-19 10:35:09,107</time>
      </trkpt>
      <trkpt lat="43.21819" lon="5.42329">
        <ele>252.98206</ele>
        <time>2019-06-19 10:35:10,110</time>
      </trkpt>
      <trkpt lat="43.21823" lon="5.42329">
        <ele>254.0387</ele>
        <time>2019-06-19 10:35:14,105</time>
      </trkpt>
      <trkpt lat="43.21824" lon="5.42329">
        <ele>255.24109</ele>
        <time>2019-06-19 10:35:15,355</time>
      </trkpt>
      <trkpt lat="43.21828" lon="5.4233">
        <ele>255.5545</ele>
        <time>2019-06-19 10:35:17,125</time>
      </trkpt>
      <trkpt lat="43.2183" lon="5.4233">
        <ele>253.10516</ele>
        <time>2019-06-19 10:35:19,106</time>
      </trkpt>
      <trkpt lat="43.21832" lon="5.42329">
        <ele>253.01721</ele>
        <time>2019-06-19 10:35:20,108</time>
      </trkpt>
      <trkpt lat="43.21834" lon="5.42329">
        <ele>252.36267</ele>
        <time>2019-06-19 10:35:21,115</time>
      </trkpt>
      <trkpt lat="43.2184" lon="5.42327">
        <ele>256.6463</ele>
        <time>2019-06-19 10:35:28,110</time>
      </trkpt>
      <trkpt lat="43.21841" lon="5.42327">
        <ele>253.01721</ele>
        <time>2019-06-19 10:35:29,107</time>
      </trkpt>
      <trkpt lat="43.21845" lon="5.42328">
        <ele>263.7738</ele>
        <time>2019-06-19 10:35:34,123</time>
      </trkpt>
      <trkpt lat="43.21851" lon="5.42328">
        <ele>261.37927</ele>
        <time>2019-06-19 10:35:39,125</time>
      </trkpt>
      <trkpt lat="43.21853" lon="5.42328">
        <ele>264.20966</ele>
        <time>2019-06-19 10:35:40,103</time>
      </trkpt>
      <trkpt lat="43.21857" lon="5.42327">
        <ele>267.86493</ele>
        <time>2019-06-19 10:35:44,101</time>
      </trkpt>
      <trkpt lat="43.21863" lon="5.42321">
        <ele>263.60022</ele>
        <time>2019-06-19 10:35:52,103</time>
      </trkpt>
      <trkpt lat="43.21865" lon="5.42321">
        <ele>264.35278</ele>
        <time>2019-06-19 10:35:53,102</time>
      </trkpt>
      <trkpt lat="43.21867" lon="5.4232">
        <ele>262.50903</ele>
        <time>2019-06-19 10:35:54,106</time>
      </trkpt>
      <trkpt lat="43.21868" lon="5.4232">
        <ele>261.67517</ele>
        <time>2019-06-19 10:35:56,103</time>
      </trkpt>
      <trkpt lat="43.2187" lon="5.4232">
        <ele>261.63733</ele>
        <time>2019-06-19 10:35:57,105</time>
      </trkpt>
      <trkpt lat="43.21871" lon="5.4232">
        <ele>259.3224</ele>
        <time>2019-06-19 10:35:58,108</time>
      </trkpt>
      <trkpt lat="43.21875" lon="5.42317">
        <ele>260.0271</ele>
        <time>2019-06-19 10:36:02,110</time>
      </trkpt>
      <trkpt lat="43.21875" lon="5.42317">
        <ele>259.8014</ele>
        <time>2019-06-19 10:36:03,134</time>
      </trkpt>
      <trkpt lat="43.21879" lon="5.42317">
        <ele>258.9425</ele>
        <time>2019-06-19 10:36:07,106</time>
      </trkpt>
      <trkpt lat="43.2188" lon="5.42317">
        <ele>259.57642</ele>
        <time>2019-06-19 10:36:08,102</time>
      </trkpt>
      <trkpt lat="43.21882" lon="5.42318">
        <ele>259.92358</ele>
        <time>2019-06-19 10:36:10,098</time>
      </trkpt>
      <trkpt lat="43.21883" lon="5.42318">
        <ele>260.0271</ele>
        <time>2019-06-19 10:36:11,105</time>
      </trkpt>
      <trkpt lat="43.21884" lon="5.42319">
        <ele>263.9272</ele>
        <time>2019-06-19 10:36:12,123</time>
      </trkpt>
      <trkpt lat="43.21885" lon="5.42319">
        <ele>264.13403</ele>
        <time>2019-06-19 10:36:13,105</time>
      </trkpt>
      <trkpt lat="43.21887" lon="5.42319">
        <ele>261.75977</ele>
        <time>2019-06-19 10:36:17,102</time>
      </trkpt>
      <trkpt lat="43.21888" lon="5.4232">
        <ele>262.06885</ele>
        <time>2019-06-19 10:36:18,125</time>
      </trkpt>
      <trkpt lat="43.21889" lon="5.42321">
        <ele>262.76416</ele>
        <time>2019-06-19 10:36:19,118</time>
      </trkpt>
      <trkpt lat="43.2189" lon="5.42321">
        <ele>263.3673</ele>
        <time>2019-06-19 10:36:20,105</time>
      </trkpt>
      <trkpt lat="43.21891" lon="5.42322">
        <ele>264.66077</ele>
        <time>2019-06-19 10:36:22,117</time>
      </trkpt>
      <trkpt lat="43.21892" lon="5.42321">
        <ele>264.09454</ele>
        <time>2019-06-19 10:36:23,116</time>
      </trkpt>
      <trkpt lat="43.21893" lon="5.42321">
        <ele>266.3673</ele>
        <time>2019-06-19 10:36:24,105</time>
      </trkpt>
      <trkpt lat="43.21894" lon="5.42321">
        <ele>267.13098</ele>
        <time>2019-06-19 10:36:25,108</time>
      </trkpt>
      <trkpt lat="43.21896" lon="5.4232">
        <ele>265.4441</ele>
        <time>2019-06-19 10:36:27,168</time>
      </trkpt>
      <trkpt lat="43.21897" lon="5.42319">
        <ele>268.15283</ele>
        <time>2019-06-19 10:36:30,122</time>
      </trkpt>
      <trkpt lat="43.219" lon="5.42318">
        <ele>268.85754</ele>
        <time>2019-06-19 10:36:33,115</time>
      </trkpt>
      <trkpt lat="43.21901" lon="5.42319">
        <ele>269.19592</ele>
        <time>2019-06-19 10:36:34,122</time>
      </trkpt>
      <trkpt lat="43.21901" lon="5.42319">
        <ele>270.30615</ele>
        <time>2019-06-19 10:36:35,103</time>
      </trkpt>
      <trkpt lat="43.21902" lon="5.42319">
        <ele>270.77783</ele>
        <time>2019-06-19 10:36:36,107</time>
      </trkpt>
      <trkpt lat="43.21903" lon="5.42319">
        <ele>268.17126</ele>
        <time>2019-06-19 10:36:38,108</time>
      </trkpt>
      <trkpt lat="43.21906" lon="5.42318">
        <ele>265.5879</ele>
        <time>2019-06-19 10:36:46,102</time>
      </trkpt>
      <trkpt lat="43.21906" lon="5.42318">
        <ele>264.88037</ele>
        <time>2019-06-19 10:36:47,100</time>
      </trkpt>
      <trkpt lat="43.21908" lon="5.42319">
        <ele>265.62756</ele>
        <time>2019-06-19 10:37:07,110</time>
      </trkpt>
      <trkpt lat="43.21908" lon="5.42319">
        <ele>265.1234</ele>
        <time>2019-06-19 10:37:27,099</time>
      </trkpt>
      <trkpt lat="43.21908" lon="5.42319">
        <ele>265.55255</ele>
        <time>2019-06-19 10:37:47,106</time>
      </trkpt>
      <trkpt lat="43.21908" lon="5.42319">
        <ele>265.5973</ele>
        <time>2019-06-19 10:38:07,104</time>
      </trkpt>
      <trkpt lat="43.21908" lon="5.4232">
        <ele>264.96527</ele>
        <time>2019-06-19 10:38:08,106</time>
      </trkpt>
      <trkpt lat="43.21908" lon="5.4232">
        <ele>265.58887</ele>
        <time>2019-06-19 10:38:09,101</time>
      </trkpt>
      <trkpt lat="43.21905" lon="5.42323">
        <ele>264.35645</ele>
        <time>2019-06-19 10:38:15,100</time>
      </trkpt>
      <trkpt lat="43.21903" lon="5.42325">
        <ele>262.79968</ele>
        <time>2019-06-19 10:38:18,101</time>
      </trkpt>
      <trkpt lat="43.21902" lon="5.42326">
        <ele>264.34094</ele>
        <time>2019-06-19 10:38:20,104</time>
      </trkpt>
      <trkpt lat="43.21897" lon="5.4233">
        <ele>265.92133</ele>
        <time>2019-06-19 10:38:26,110</time>
      </trkpt>
      <trkpt lat="43.21896" lon="5.42333">
        <ele>265.43042</ele>
        <time>2019-06-19 10:38:29,104</time>
      </trkpt>
      <trkpt lat="43.21894" lon="5.42335">
        <ele>264.38306</ele>
        <time>2019-06-19 10:38:32,126</time>
      </trkpt>
      <trkpt lat="43.21892" lon="5.42338">
        <ele>265.66888</ele>
        <time>2019-06-19 10:38:38,116</time>
      </trkpt>
      <trkpt lat="43.2189" lon="5.42341">
        <ele>264.11713</ele>
        <time>2019-06-19 10:38:41,108</time>
      </trkpt>
      <trkpt lat="43.21889" lon="5.42342">
        <ele>264.68384</ele>
        <time>2019-06-19 10:38:43,116</time>
      </trkpt>
      <trkpt lat="43.21889" lon="5.42344">
        <ele>264.43518</ele>
        <time>2019-06-19 10:38:51,124</time>
      </trkpt>
      <trkpt lat="43.21889" lon="5.42344">
        <ele>264.68384</ele>
        <time>2019-06-19 10:38:52,107</time>
      </trkpt>
      <trkpt lat="43.21888" lon="5.42344">
        <ele>265.34607</ele>
        <time>2019-06-19 10:38:53,109</time>
      </trkpt>
      <trkpt lat="43.21887" lon="5.42345">
        <ele>268.3141</ele>
        <time>2019-06-19 10:38:57,110</time>
      </trkpt>
      <trkpt lat="43.21886" lon="5.42346">
        <ele>268.85046</ele>
        <time>2019-06-19 10:38:58,116</time>
      </trkpt>
      <trkpt lat="43.21886" lon="5.42348">
        <ele>268.57965</ele>
        <time>2019-06-19 10:39:00,096</time>
      </trkpt>
      <trkpt lat="43.21885" lon="5.42349">
        <ele>266.60278</ele>
        <time>2019-06-19 10:39:01,109</time>
      </trkpt>
      <trkpt lat="43.21885" lon="5.42351">
        <ele>267.32635</ele>
        <time>2019-06-19 10:39:03,106</time>
      </trkpt>
      <trkpt lat="43.21884" lon="5.42351">
        <ele>268.0041</ele>
        <time>2019-06-19 10:39:04,096</time>
      </trkpt>
      <trkpt lat="43.21884" lon="5.42351">
        <ele>267.8883</ele>
        <time>2019-06-19 10:39:05,119</time>
      </trkpt>
      <trkpt lat="43.21884" lon="5.42352">
        <ele>269.37634</ele>
        <time>2019-06-19 10:39:07,115</time>
      </trkpt>
      <trkpt lat="43.21884" lon="5.42352">
        <ele>270.20288</ele>
        <time>2019-06-19 10:39:08,101</time>
      </trkpt>
      <trkpt lat="43.21884" lon="5.42353">
        <ele>270.53766</ele>
        <time>2019-06-19 10:39:09,111</time>
      </trkpt>
      <trkpt lat="43.21884" lon="5.42354">
        <ele>272.10327</ele>
        <time>2019-06-19 10:39:10,103</time>
      </trkpt>
      <trkpt lat="43.21884" lon="5.42355">
        <ele>271.41785</ele>
        <time>2019-06-19 10:39:11,104</time>
      </trkpt>
      <trkpt lat="43.21884" lon="5.42356">
        <ele>267.32635</ele>
        <time>2019-06-19 10:39:12,115</time>
      </trkpt>
      <trkpt lat="43.21883" lon="5.42361">
        <ele>266.6936</ele>
        <time>2019-06-19 10:39:17,106</time>
      </trkpt>
      <trkpt lat="43.21882" lon="5.42362">
        <ele>267.98242</ele>
        <time>2019-06-19 10:39:18,108</time>
      </trkpt>
      <trkpt lat="43.21882" lon="5.42364">
        <ele>268.52136</ele>
        <time>2019-06-19 10:39:20,193</time>
      </trkpt>
      <trkpt lat="43.21882" lon="5.42365">
        <ele>271.31232</ele>
        <time>2019-06-19 10:39:22,123</time>
      </trkpt>
      <trkpt lat="43.21882" lon="5.42366">
        <ele>268.6156</ele>
        <time>2019-06-19 10:39:23,104</time>
      </trkpt>
      <trkpt lat="43.21881" lon="5.42367">
        <ele>269.52948</ele>
        <time>2019-06-19 10:39:24,113</time>
      </trkpt>
      <trkpt lat="43.21881" lon="5.42367">
        <ele>270.576</ele>
        <time>2019-06-19 10:39:25,105</time>
      </trkpt>
      <trkpt lat="43.21881" lon="5.42369">
        <ele>271.20813</ele>
        <time>2019-06-19 10:39:27,110</time>
      </trkpt>
      <trkpt lat="43.21879" lon="5.42372">
        <ele>272.48627</ele>
        <time>2019-06-19 10:39:31,212</time>
      </trkpt>
      <trkpt lat="43.21878" lon="5.42377">
        <ele>274.37317</ele>
        <time>2019-06-19 10:39:36,112</time>
      </trkpt>
      <trkpt lat="43.21878" lon="5.42377">
        <ele>274.59448</ele>
        <time>2019-06-19 10:39:37,113</time>
      </trkpt>
      <trkpt lat="43.21877" lon="5.42379">
        <ele>273.37378</ele>
        <time>2019-06-19 10:39:39,102</time>
      </trkpt>
      <trkpt lat="43.21876" lon="5.4238">
        <ele>274.53918</ele>
        <time>2019-06-19 10:39:40,104</time>
      </trkpt>
      <trkpt lat="43.21876" lon="5.42381">
        <ele>274.86078</ele>
        <time>2019-06-19 10:39:41,106</time>
      </trkpt>
      <trkpt lat="43.21876" lon="5.42383">
        <ele>272.7135</ele>
        <time>2019-06-19 10:39:42,107</time>
      </trkpt>
      <trkpt lat="43.21875" lon="5.42383">
        <ele>272.59253</ele>
        <time>2019-06-19 10:39:43,120</time>
      </trkpt>
      <trkpt lat="43.21875" lon="5.42384">
        <ele>272.3346</ele>
        <time>2019-06-19 10:39:44,120</time>
      </trkpt>
      <trkpt lat="43.21874" lon="5.42386">
        <ele>274.01868</ele>
        <time>2019-06-19 10:39:46,112</time>
      </trkpt>
      <trkpt lat="43.21873" lon="5.42389">
        <ele>272.839</ele>
        <time>2019-06-19 10:39:48,105</time>
      </trkpt>
      <trkpt lat="43.21872" lon="5.42392">
        <ele>272.59253</ele>
        <time>2019-06-19 10:39:52,143</time>
      </trkpt>
      <trkpt lat="43.21872" lon="5.42393">
        <ele>274.6454</ele>
        <time>2019-06-19 10:39:53,110</time>
      </trkpt>
      <trkpt lat="43.21867" lon="5.42399">
        <ele>275.58435</ele>
        <time>2019-06-19 10:40:04,165</time>
      </trkpt>
      <trkpt lat="43.21867" lon="5.42401">
        <ele>276.06964</ele>
        <time>2019-06-19 10:40:06,096</time>
      </trkpt>
      <trkpt lat="43.21866" lon="5.42401">
        <ele>271.8739</ele>
        <time>2019-06-19 10:40:07,109</time>
      </trkpt>
      <trkpt lat="43.21865" lon="5.42402">
        <ele>274.10522</ele>
        <time>2019-06-19 10:40:09,128</time>
      </trkpt>
      <trkpt lat="43.21865" lon="5.42402">
        <ele>276.2826</ele>
        <time>2019-06-19 10:40:13,105</time>
      </trkpt>
      <trkpt lat="43.21862" lon="5.42411">
        <ele>277.3684</ele>
        <time>2019-06-19 10:40:21,107</time>
      </trkpt>
      <trkpt lat="43.21862" lon="5.42414">
        <ele>277.87305</ele>
        <time>2019-06-19 10:40:23,103</time>
      </trkpt>
      <trkpt lat="43.21861" lon="5.42416">
        <ele>278.87927</ele>
        <time>2019-06-19 10:40:25,111</time>
      </trkpt>
      <trkpt lat="43.21861" lon="5.42418">
        <ele>278.74402</ele>
        <time>2019-06-19 10:40:26,109</time>
      </trkpt>
      <trkpt lat="43.21861" lon="5.42419">
        <ele>279.09167</ele>
        <time>2019-06-19 10:40:27,116</time>
      </trkpt>
      <trkpt lat="43.2186" lon="5.42421">
        <ele>279.0282</ele>
        <time>2019-06-19 10:40:28,101</time>
      </trkpt>
      <trkpt lat="43.21859" lon="5.42423">
        <ele>279.45178</ele>
        <time>2019-06-19 10:40:30,102</time>
      </trkpt>
      <trkpt lat="43.21859" lon="5.42424">
        <ele>279.276</ele>
        <time>2019-06-19 10:40:31,109</time>
      </trkpt>
      <trkpt lat="43.21855" lon="5.42432">
        <ele>276.38116</ele>
        <time>2019-06-19 10:40:37,100</time>
      </trkpt>
      <trkpt lat="43.21854" lon="5.42434">
        <ele>277.148</ele>
        <time>2019-06-19 10:40:38,103</time>
      </trkpt>
      <trkpt lat="43.21853" lon="5.42436">
        <ele>278.57086</ele>
        <time>2019-06-19 10:40:41,102</time>
      </trkpt>
      <trkpt lat="43.21853" lon="5.42436">
        <ele>278.7046</ele>
        <time>2019-06-19 10:40:43,098</time>
      </trkpt>
      <trkpt lat="43.21851" lon="5.42438">
        <ele>277.5791</ele>
        <time>2019-06-19 10:40:45,109</time>
      </trkpt>
      <trkpt lat="43.21851" lon="5.42439">
        <ele>278.3263</ele>
        <time>2019-06-19 10:40:46,097</time>
      </trkpt>
      <trkpt lat="43.21849" lon="5.42443">
        <ele>275.92664</ele>
        <time>2019-06-19 10:40:50,099</time>
      </trkpt>
      <trkpt lat="43.21848" lon="5.42444">
        <ele>278.7046</ele>
        <time>2019-06-19 10:40:52,109</time>
      </trkpt>
      <trkpt lat="43.21848" lon="5.42445">
        <ele>274.85962</ele>
        <time>2019-06-19 10:40:53,100</time>
      </trkpt>
      <trkpt lat="43.21848" lon="5.42447">
        <ele>275.85718</ele>
        <time>2019-06-19 10:40:55,101</time>
      </trkpt>
      <trkpt lat="43.21848" lon="5.42447">
        <ele>276.62622</ele>
        <time>2019-06-19 10:40:56,117</time>
      </trkpt>
      <trkpt lat="43.21846" lon="5.42453">
        <ele>275.8883</ele>
        <time>2019-06-19 10:41:01,108</time>
      </trkpt>
      <trkpt lat="43.21845" lon="5.42455">
        <ele>277.1739</ele>
        <time>2019-06-19 10:41:03,105</time>
      </trkpt>
      <trkpt lat="43.21845" lon="5.42456">
        <ele>276.73285</ele>
        <time>2019-06-19 10:41:04,100</time>
      </trkpt>
      <trkpt lat="43.21844" lon="5.42457">
        <ele>277.47388</ele>
        <time>2019-06-19 10:41:05,098</time>
      </trkpt>
      <trkpt lat="43.21844" lon="5.42458">
        <ele>278.09003</ele>
        <time>2019-06-19 10:41:06,100</time>
      </trkpt>
      <trkpt lat="43.21843" lon="5.4246">
        <ele>278.92517</ele>
        <time>2019-06-19 10:41:08,107</time>
      </trkpt>
      <trkpt lat="43.21842" lon="5.42461">
        <ele>278.4599</ele>
        <time>2019-06-19 10:41:09,102</time>
      </trkpt>
      <trkpt lat="43.21842" lon="5.42461">
        <ele>277.4779</ele>
        <time>2019-06-19 10:41:10,104</time>
      </trkpt>
      <trkpt lat="43.21841" lon="5.42463">
        <ele>276.56775</ele>
        <time>2019-06-19 10:41:11,104</time>
      </trkpt>
      <trkpt lat="43.21838" lon="5.42467">
        <ele>278.6861</ele>
        <time>2019-06-19 10:41:16,279</time>
      </trkpt>
      <trkpt lat="43.21836" lon="5.42468">
        <ele>279.08264</ele>
        <time>2019-06-19 10:41:18,292</time>
      </trkpt>
      <trkpt lat="43.21832" lon="5.42472">
        <ele>276.74512</ele>
        <time>2019-06-19 10:41:22,279</time>
      </trkpt>
      <trkpt lat="43.21829" lon="5.42476">
        <ele>277.55365</ele>
        <time>2019-06-19 10:41:27,273</time>
      </trkpt>
      <trkpt lat="43.21828" lon="5.42477">
        <ele>277.14136</ele>
        <time>2019-06-19 10:41:28,273</time>
      </trkpt>
      <trkpt lat="43.21828" lon="5.42481">
        <ele>275.6776</ele>
        <time>2019-06-19 10:41:31,277</time>
      </trkpt>
      <trkpt lat="43.21828" lon="5.42482">
        <ele>276.0586</ele>
        <time>2019-06-19 10:41:32,269</time>
      </trkpt>
      <trkpt lat="43.21827" lon="5.42483">
        <ele>276.52563</ele>
        <time>2019-06-19 10:41:33,299</time>
      </trkpt>
      <trkpt lat="43.21825" lon="5.42484">
        <ele>275.21094</ele>
        <time>2019-06-19 10:41:36,267</time>
      </trkpt>
      <trkpt lat="43.21823" lon="5.42487">
        <ele>274.51904</ele>
        <time>2019-06-19 10:41:39,290</time>
      </trkpt>
      <trkpt lat="43.21821" lon="5.42488">
        <ele>276.52563</ele>
        <time>2019-06-19 10:41:42,283</time>
      </trkpt>
      <trkpt lat="43.21817" lon="5.42489">
        <ele>276.19556</ele>
        <time>2019-06-19 10:41:44,273</time>
      </trkpt>
      <trkpt lat="43.21815" lon="5.42489">
        <ele>276.21173</ele>
        <time>2019-06-19 10:41:47,266</time>
      </trkpt>
      <trkpt lat="43.21811" lon="5.4249">
        <ele>275.14136</ele>
        <time>2019-06-19 10:41:52,272</time>
      </trkpt>
      <trkpt lat="43.2181" lon="5.4249">
        <ele>273.7116</ele>
        <time>2019-06-19 10:41:53,272</time>
      </trkpt>
      <trkpt lat="43.21806" lon="5.42491">
        <ele>276.52118</ele>
        <time>2019-06-19 10:41:58,267</time>
      </trkpt>
      <trkpt lat="43.21804" lon="5.42491">
        <ele>277.13306</ele>
        <time>2019-06-19 10:42:01,278</time>
      </trkpt>
      <trkpt lat="43.21801" lon="5.42493">
        <ele>275.57068</ele>
        <time>2019-06-19 10:42:04,286</time>
      </trkpt>
      <trkpt lat="43.21799" lon="5.42495">
        <ele>276.4801</ele>
        <time>2019-06-19 10:42:07,266</time>
      </trkpt>
      <trkpt lat="43.21799" lon="5.42496">
        <ele>277.0254</ele>
        <time>2019-06-19 10:42:11,272</time>
      </trkpt>
      <trkpt lat="43.21798" lon="5.42495">
        <ele>278.8673</ele>
        <time>2019-06-19 10:42:13,273</time>
      </trkpt>
      <trkpt lat="43.21798" lon="5.42495">
        <ele>278.87598</ele>
        <time>2019-06-19 10:42:14,273</time>
      </trkpt>
      <trkpt lat="43.21797" lon="5.42495">
        <ele>278.38696</ele>
        <time>2019-06-19 10:42:16,271</time>
      </trkpt>
      <trkpt lat="43.21795" lon="5.42493">
        <ele>279.97614</ele>
        <time>2019-06-19 10:42:27,279</time>
      </trkpt>
      <trkpt lat="43.21792" lon="5.42494">
        <ele>278.7342</ele>
        <time>2019-06-19 10:42:29,277</time>
      </trkpt>
      <trkpt lat="43.2179" lon="5.42495">
        <ele>279.27307</ele>
        <time>2019-06-19 10:42:32,271</time>
      </trkpt>
      <trkpt lat="43.21787" lon="5.42496">
        <ele>279.54114</ele>
        <time>2019-06-19 10:42:34,289</time>
      </trkpt>
      <trkpt lat="43.21785" lon="5.42496">
        <ele>279.0713</ele>
        <time>2019-06-19 10:42:34,867</time>
      </trkpt>
      <trkpt lat="43.21783" lon="5.42496">
        <ele>278.9973</ele>
        <time>2019-06-19 10:42:35,882</time>
      </trkpt>
      <trkpt lat="43.21778" lon="5.42497">
        <ele>278.82935</ele>
        <time>2019-06-19 10:42:41,861</time>
      </trkpt>
      <trkpt lat="43.21777" lon="5.42497">
        <ele>280.95825</ele>
        <time>2019-06-19 10:42:42,856</time>
      </trkpt>
      <trkpt lat="43.21776" lon="5.42498">
        <ele>281.28687</ele>
        <time>2019-06-19 10:42:43,869</time>
      </trkpt>
      <trkpt lat="43.21775" lon="5.42499">
        <ele>281.29535</ele>
        <time>2019-06-19 10:42:45,857</time>
      </trkpt>
      <trkpt lat="43.21775" lon="5.42499">
        <ele>281.93903</ele>
        <time>2019-06-19 10:42:46,858</time>
      </trkpt>
      <trkpt lat="43.21774" lon="5.42499">
        <ele>282.5105</ele>
        <time>2019-06-19 10:42:47,858</time>
      </trkpt>
      <trkpt lat="43.21772" lon="5.42499">
        <ele>282.2556</ele>
        <time>2019-06-19 10:42:48,853</time>
      </trkpt>
      <trkpt lat="43.21771" lon="5.42499">
        <ele>283.14526</ele>
        <time>2019-06-19 10:42:49,862</time>
      </trkpt>
      <trkpt lat="43.2177" lon="5.42498">
        <ele>280.95825</ele>
        <time>2019-06-19 10:42:51,857</time>
      </trkpt>
      <trkpt lat="43.21769" lon="5.42498">
        <ele>282.85486</ele>
        <time>2019-06-19 10:42:52,883</time>
      </trkpt>
      <trkpt lat="43.21768" lon="5.42498">
        <ele>283.02795</ele>
        <time>2019-06-19 10:42:53,860</time>
      </trkpt>
      <trkpt lat="43.21767" lon="5.42498">
        <ele>277.37628</ele>
        <time>2019-06-19 10:42:54,865</time>
      </trkpt>
      <trkpt lat="43.21761" lon="5.42498">
        <ele>276.46576</ele>
        <time>2019-06-19 10:42:59,861</time>
      </trkpt>
      <trkpt lat="43.2176" lon="5.42498">
        <ele>276.25806</ele>
        <time>2019-06-19 10:43:00,857</time>
      </trkpt>
      <trkpt lat="43.21758" lon="5.42498">
        <ele>277.06787</ele>
        <time>2019-06-19 10:43:02,858</time>
      </trkpt>
      <trkpt lat="43.21758" lon="5.42499">
        <ele>277.1869</ele>
        <time>2019-06-19 10:43:03,852</time>
      </trkpt>
      <trkpt lat="43.21758" lon="5.42499">
        <ele>277.76868</ele>
        <time>2019-06-19 10:43:04,865</time>
      </trkpt>
      <trkpt lat="43.21756" lon="5.425">
        <ele>280.495</ele>
        <time>2019-06-19 10:43:07,856</time>
      </trkpt>
      <trkpt lat="43.21754" lon="5.42502">
        <ele>280.57507</ele>
        <time>2019-06-19 10:43:09,875</time>
      </trkpt>
      <trkpt lat="43.21753" lon="5.42503">
        <ele>277.14722</ele>
        <time>2019-06-19 10:43:11,853</time>
      </trkpt>
      <trkpt lat="43.21751" lon="5.42506">
        <ele>281.71228</ele>
        <time>2019-06-19 10:43:14,852</time>
      </trkpt>
      <trkpt lat="43.21748" lon="5.42508">
        <ele>282.89886</ele>
        <time>2019-06-19 10:43:17,854</time>
      </trkpt>
      <trkpt lat="43.21745" lon="5.4251">
        <ele>282.2107</ele>
        <time>2019-06-19 10:43:21,859</time>
      </trkpt>
      <trkpt lat="43.21739" lon="5.42512">
        <ele>284.76904</ele>
        <time>2019-06-19 10:43:26,861</time>
      </trkpt>
      <trkpt lat="43.21739" lon="5.42512">
        <ele>284.62567</ele>
        <time>2019-06-19 10:43:27,858</time>
      </trkpt>
      <trkpt lat="43.21739" lon="5.42513">
        <ele>284.53088</ele>
        <time>2019-06-19 10:43:29,863</time>
      </trkpt>
      <trkpt lat="43.21738" lon="5.42513">
        <ele>284.58716</ele>
        <time>2019-06-19 10:43:30,858</time>
      </trkpt>
      <trkpt lat="43.21737" lon="5.42515">
        <ele>283.3412</ele>
        <time>2019-06-19 10:43:31,891</time>
      </trkpt>
      <trkpt lat="43.21737" lon="5.42516">
        <ele>283.87152</ele>
        <time>2019-06-19 10:43:32,856</time>
      </trkpt>
      <trkpt lat="43.21736" lon="5.42517">
        <ele>284.0738</ele>
        <time>2019-06-19 10:43:34,939</time>
      </trkpt>
      <trkpt lat="43.21735" lon="5.42518">
        <ele>283.18384</ele>
        <time>2019-06-19 10:43:36,860</time>
      </trkpt>
      <trkpt lat="43.21734" lon="5.42519">
        <ele>283.04517</ele>
        <time>2019-06-19 10:43:38,933</time>
      </trkpt>
      <trkpt lat="43.21732" lon="5.42521">
        <ele>280.43127</ele>
        <time>2019-06-19 10:43:40,860</time>
      </trkpt>
      <trkpt lat="43.2173" lon="5.42523">
        <ele>279.3734</ele>
        <time>2019-06-19 10:43:42,861</time>
      </trkpt>
      <trkpt lat="43.21729" lon="5.42524">
        <ele>280.06836</ele>
        <time>2019-06-19 10:43:43,867</time>
      </trkpt>
      <trkpt lat="43.21726" lon="5.42524">
        <ele>279.69568</ele>
        <time>2019-06-19 10:43:46,857</time>
      </trkpt>
      <trkpt lat="43.21726" lon="5.42524">
        <ele>279.0183</ele>
        <time>2019-06-19 10:43:47,871</time>
      </trkpt>
      <trkpt lat="43.21723" lon="5.42526">
        <ele>279.7683</ele>
        <time>2019-06-19 10:43:49,881</time>
      </trkpt>
      <trkpt lat="43.21723" lon="5.42526">
        <ele>279.3734</ele>
        <time>2019-06-19 10:43:51,869</time>
      </trkpt>
      <trkpt lat="43.21721" lon="5.42527">
        <ele>280.7887</ele>
        <time>2019-06-19 10:43:52,869</time>
      </trkpt>
      <trkpt lat="43.2172" lon="5.42528">
        <ele>280.87695</ele>
        <time>2019-06-19 10:43:53,869</time>
      </trkpt>
      <trkpt lat="43.2172" lon="5.42528">
        <ele>281.588</ele>
        <time>2019-06-19 10:43:54,858</time>
      </trkpt>
      <trkpt lat="43.21717" lon="5.42531">
        <ele>282.0329</ele>
        <time>2019-06-19 10:43:58,859</time>
      </trkpt>
      <trkpt lat="43.21715" lon="5.42535">
        <ele>280.08185</ele>
        <time>2019-06-19 10:44:02,864</time>
      </trkpt>
      <trkpt lat="43.21714" lon="5.42535">
        <ele>281.4265</ele>
        <time>2019-06-19 10:44:03,848</time>
      </trkpt>
      <trkpt lat="43.21714" lon="5.42535">
        <ele>282.4441</ele>
        <time>2019-06-19 10:44:04,869</time>
      </trkpt>
      <trkpt lat="43.21711" lon="5.42536">
        <ele>283.51202</ele>
        <time>2019-06-19 10:44:08,861</time>
      </trkpt>
      <trkpt lat="43.21711" lon="5.42537">
        <ele>282.52283</ele>
        <time>2019-06-19 10:44:09,882</time>
      </trkpt>
      <trkpt lat="43.2171" lon="5.42538">
        <ele>280.08185</ele>
        <time>2019-06-19 10:44:11,859</time>
      </trkpt>
      <trkpt lat="43.21709" lon="5.4254">
        <ele>278.72083</ele>
        <time>2019-06-19 10:44:13,873</time>
      </trkpt>
      <trkpt lat="43.21709" lon="5.42542">
        <ele>278.92236</ele>
        <time>2019-06-19 10:44:15,865</time>
      </trkpt>
      <trkpt lat="43.21708" lon="5.42543">
        <ele>279.3495</ele>
        <time>2019-06-19 10:44:16,861</time>
      </trkpt>
      <trkpt lat="43.21707" lon="5.42545">
        <ele>279.56873</ele>
        <time>2019-06-19 10:44:18,851</time>
      </trkpt>
      <trkpt lat="43.21702" lon="5.42552">
        <ele>279.33118</ele>
        <time>2019-06-19 10:44:25,864</time>
      </trkpt>
      <trkpt lat="43.21701" lon="5.42554">
        <ele>279.247</ele>
        <time>2019-06-19 10:44:27,858</time>
      </trkpt>
      <trkpt lat="43.21699" lon="5.42557">
        <ele>280.39758</ele>
        <time>2019-06-19 10:44:29,878</time>
      </trkpt>
      <trkpt lat="43.21697" lon="5.42557">
        <ele>275.94373</ele>
        <time>2019-06-19 10:44:34,014</time>
      </trkpt>
      <trkpt lat="43.21696" lon="5.42556">
        <ele>278.1997</ele>
        <time>2019-06-19 10:44:54,857</time>
      </trkpt>
      <trkpt lat="43.21696" lon="5.42556">
        <ele>278.43604</ele>
        <time>2019-06-19 10:45:05,851</time>
      </trkpt>
      <trkpt lat="43.21696" lon="5.42556">
        <ele>279.92633</ele>
        <time>2019-06-19 10:45:06,854</time>
      </trkpt>
      <trkpt lat="43.21696" lon="5.42556">
        <ele>280.18518</ele>
        <time>2019-06-19 10:45:10,851</time>
      </trkpt>
      <trkpt lat="43.21695" lon="5.42556">
        <ele>278.23907</ele>
        <time>2019-06-19 10:45:12,854</time>
      </trkpt>
      <trkpt lat="43.21689" lon="5.42563">
        <ele>285.90204</ele>
        <time>2019-06-19 10:45:21,850</time>
      </trkpt>
      <trkpt lat="43.21686" lon="5.42565">
        <ele>287.56494</ele>
        <time>2019-06-19 10:45:25,857</time>
      </trkpt>
      <trkpt lat="43.21684" lon="5.42568">
        <ele>286.09692</ele>
        <time>2019-06-19 10:45:29,850</time>
      </trkpt>
      <trkpt lat="43.2168" lon="5.42569">
        <ele>287.68616</ele>
        <time>2019-06-19 10:45:33,851</time>
      </trkpt>
      <trkpt lat="43.21678" lon="5.42569">
        <ele>288.46692</ele>
        <time>2019-06-19 10:45:35,849</time>
      </trkpt>
      <trkpt lat="43.21678" lon="5.42569">
        <ele>287.79852</ele>
        <time>2019-06-19 10:45:36,858</time>
      </trkpt>
      <trkpt lat="43.21673" lon="5.4257">
        <ele>288.83093</ele>
        <time>2019-06-19 10:45:41,861</time>
      </trkpt>
      <trkpt lat="43.21669" lon="5.42572">
        <ele>290.4126</ele>
        <time>2019-06-19 10:45:45,851</time>
      </trkpt>
      <trkpt lat="43.21668" lon="5.42574">
        <ele>289.87817</ele>
        <time>2019-06-19 10:45:47,882</time>
      </trkpt>
      <trkpt lat="43.21666" lon="5.42578">
        <ele>290.29895</ele>
        <time>2019-06-19 10:45:50,862</time>
      </trkpt>
      <trkpt lat="43.21665" lon="5.42582">
        <ele>289.43787</ele>
        <time>2019-06-19 10:45:53,853</time>
      </trkpt>
      <trkpt lat="43.21665" lon="5.42582">
        <ele>289.8523</ele>
        <time>2019-06-19 10:45:54,858</time>
      </trkpt>
      <trkpt lat="43.21663" lon="5.42585">
        <ele>291.3982</ele>
        <time>2019-06-19 10:45:56,870</time>
      </trkpt>
      <trkpt lat="43.21663" lon="5.42586">
        <ele>290.56714</ele>
        <time>2019-06-19 10:45:57,872</time>
      </trkpt>
      <trkpt lat="43.21661" lon="5.42587">
        <ele>290.02502</ele>
        <time>2019-06-19 10:45:59,875</time>
      </trkpt>
      <trkpt lat="43.21659" lon="5.42589">
        <ele>290.15466</ele>
        <time>2019-06-19 10:46:01,849</time>
      </trkpt>
      <trkpt lat="43.21659" lon="5.42589">
        <ele>289.43787</ele>
        <time>2019-06-19 10:46:02,854</time>
      </trkpt>
      <trkpt lat="43.21658" lon="5.42589">
        <ele>292.21277</ele>
        <time>2019-06-19 10:46:05,856</time>
      </trkpt>
      <trkpt lat="43.21657" lon="5.4259">
        <ele>292.23584</ele>
        <time>2019-06-19 10:46:08,845</time>
      </trkpt>
      <trkpt lat="43.21656" lon="5.4259">
        <ele>292.9317</ele>
        <time>2019-06-19 10:46:09,862</time>
      </trkpt>
      <trkpt lat="43.21655" lon="5.42591">
        <ele>292.15234</ele>
        <time>2019-06-19 10:46:11,856</time>
      </trkpt>
      <trkpt lat="43.21654" lon="5.42591">
        <ele>293.76624</ele>
        <time>2019-06-19 10:46:13,858</time>
      </trkpt>
      <trkpt lat="43.21653" lon="5.42591">
        <ele>294.65833</ele>
        <time>2019-06-19 10:46:14,855</time>
      </trkpt>
      <trkpt lat="43.21652" lon="5.42591">
        <ele>294.9729</ele>
        <time>2019-06-19 10:46:15,858</time>
      </trkpt>
      <trkpt lat="43.21652" lon="5.42591">
        <ele>295.09595</ele>
        <time>2019-06-19 10:46:16,858</time>
      </trkpt>
      <trkpt lat="43.21648" lon="5.42596">
        <ele>291.1057</ele>
        <time>2019-06-19 10:46:21,852</time>
      </trkpt>
      <trkpt lat="43.21645" lon="5.42598">
        <ele>291.86096</ele>
        <time>2019-06-19 10:46:24,863</time>
      </trkpt>
      <trkpt lat="43.21644" lon="5.42601">
        <ele>292.89355</ele>
        <time>2019-06-19 10:46:27,864</time>
      </trkpt>
      <trkpt lat="43.21641" lon="5.42608">
        <ele>296.95032</ele>
        <time>2019-06-19 10:46:36,865</time>
      </trkpt>
      <trkpt lat="43.21641" lon="5.42609">
        <ele>297.18958</ele>
        <time>2019-06-19 10:46:37,860</time>
      </trkpt>
      <trkpt lat="43.2164" lon="5.4261">
        <ele>297.44543</ele>
        <time>2019-06-19 10:46:38,873</time>
      </trkpt>
      <trkpt lat="43.21639" lon="5.42611">
        <ele>297.97327</ele>
        <time>2019-06-19 10:46:39,857</time>
      </trkpt>
      <trkpt lat="43.21638" lon="5.42611">
        <ele>298.4151</ele>
        <time>2019-06-19 10:46:40,856</time>
      </trkpt>
      <trkpt lat="43.21638" lon="5.42612">
        <ele>298.24158</ele>
        <time>2019-06-19 10:46:41,854</time>
      </trkpt>
      <trkpt lat="43.21637" lon="5.42612">
        <ele>296.46484</ele>
        <time>2019-06-19 10:46:42,886</time>
      </trkpt>
      <trkpt lat="43.21637" lon="5.42613">
        <ele>299.67688</ele>
        <time>2019-06-19 10:46:43,860</time>
      </trkpt>
      <trkpt lat="43.21636" lon="5.42613">
        <ele>300.36267</ele>
        <time>2019-06-19 10:46:44,863</time>
      </trkpt>
      <trkpt lat="43.21635" lon="5.42615">
        <ele>301.7732</ele>
        <time>2019-06-19 10:46:45,863</time>
      </trkpt>
      <trkpt lat="43.21635" lon="5.42616">
        <ele>301.5407</ele>
        <time>2019-06-19 10:46:47,865</time>
      </trkpt>
      <trkpt lat="43.21634" lon="5.42617">
        <ele>302.0177</ele>
        <time>2019-06-19 10:46:48,854</time>
      </trkpt>
      <trkpt lat="43.21634" lon="5.42617">
        <ele>302.4488</ele>
        <time>2019-06-19 10:46:50,913</time>
      </trkpt>
      <trkpt lat="43.21633" lon="5.42617">
        <ele>302.36926</ele>
        <time>2019-06-19 10:46:51,856</time>
      </trkpt>
      <trkpt lat="43.21632" lon="5.42618">
        <ele>299.67688</ele>
        <time>2019-06-19 10:46:52,860</time>
      </trkpt>
      <trkpt lat="43.21632" lon="5.42619">
        <ele>302.4309</ele>
        <time>2019-06-19 10:46:53,944</time>
      </trkpt>
      <trkpt lat="43.21631" lon="5.42619">
        <ele>302.4483</ele>
        <time>2019-06-19 10:46:54,859</time>
      </trkpt>
      <trkpt lat="43.2163" lon="5.4262">
        <ele>303.37518</ele>
        <time>2019-06-19 10:46:55,857</time>
      </trkpt>
      <trkpt lat="43.21628" lon="5.42622">
        <ele>303.96912</ele>
        <time>2019-06-19 10:47:00,861</time>
      </trkpt>
      <trkpt lat="43.21627" lon="5.42623">
        <ele>303.86816</ele>
        <time>2019-06-19 10:47:01,867</time>
      </trkpt>
      <trkpt lat="43.21627" lon="5.42623">
        <ele>302.4309</ele>
        <time>2019-06-19 10:47:02,860</time>
      </trkpt>
      <trkpt lat="43.21626" lon="5.42622">
        <ele>305.0089</ele>
        <time>2019-06-19 10:47:04,865</time>
      </trkpt>
      <trkpt lat="43.21626" lon="5.42622">
        <ele>305.13342</ele>
        <time>2019-06-19 10:47:05,854</time>
      </trkpt>
      <trkpt lat="43.21626" lon="5.42621">
        <ele>304.45996</ele>
        <time>2019-06-19 10:47:06,894</time>
      </trkpt>
      <trkpt lat="43.21625" lon="5.42621">
        <ele>304.93787</ele>
        <time>2019-06-19 10:47:07,857</time>
      </trkpt>
      <trkpt lat="43.21625" lon="5.42622">
        <ele>303.67065</ele>
        <time>2019-06-19 10:47:09,861</time>
      </trkpt>
      <trkpt lat="43.21624" lon="5.42624">
        <ele>305.44855</ele>
        <time>2019-06-19 10:47:11,850</time>
      </trkpt>
      <trkpt lat="43.21624" lon="5.42624">
        <ele>304.02942</ele>
        <time>2019-06-19 10:47:12,863</time>
      </trkpt>
      <trkpt lat="43.21623" lon="5.42625">
        <ele>304.5158</ele>
        <time>2019-06-19 10:47:13,858</time>
      </trkpt>
      <trkpt lat="43.21623" lon="5.42626">
        <ele>304.60046</ele>
        <time>2019-06-19 10:47:14,868</time>
      </trkpt>
      <trkpt lat="43.21622" lon="5.42628">
        <ele>305.79077</ele>
        <time>2019-06-19 10:47:17,861</time>
      </trkpt>
      <trkpt lat="43.2162" lon="5.4263">
        <ele>306.4912</ele>
        <time>2019-06-19 10:47:19,857</time>
      </trkpt>
      <trkpt lat="43.2162" lon="5.42631">
        <ele>305.07642</ele>
        <time>2019-06-19 10:47:20,901</time>
      </trkpt>
      <trkpt lat="43.2162" lon="5.42633">
        <ele>305.5011</ele>
        <time>2019-06-19 10:47:21,867</time>
      </trkpt>
      <trkpt lat="43.21618" lon="5.42636">
        <ele>307.47626</ele>
        <time>2019-06-19 10:47:25,863</time>
      </trkpt>
      <trkpt lat="43.21618" lon="5.42637">
        <ele>308.08588</ele>
        <time>2019-06-19 10:47:26,858</time>
      </trkpt>
      <trkpt lat="43.21616" lon="5.42642">
        <ele>306.45526</ele>
        <time>2019-06-19 10:47:32,861</time>
      </trkpt>
      <trkpt lat="43.21615" lon="5.42642">
        <ele>308.649</ele>
        <time>2019-06-19 10:47:33,855</time>
      </trkpt>
      <trkpt lat="43.21613" lon="5.42644">
        <ele>309.24652</ele>
        <time>2019-06-19 10:47:36,855</time>
      </trkpt>
      <trkpt lat="43.21612" lon="5.42648">
        <ele>309.91425</ele>
        <time>2019-06-19 10:47:39,859</time>
      </trkpt>
      <trkpt lat="43.21612" lon="5.42651">
        <ele>308.649</ele>
        <time>2019-06-19 10:47:42,855</time>
      </trkpt>
      <trkpt lat="43.21609" lon="5.42656">
        <ele>308.64093</ele>
        <time>2019-06-19 10:47:47,857</time>
      </trkpt>
      <trkpt lat="43.21609" lon="5.42657">
        <ele>308.93066</ele>
        <time>2019-06-19 10:47:48,867</time>
      </trkpt>
      <trkpt lat="43.21608" lon="5.42657">
        <ele>308.14398</ele>
        <time>2019-06-19 10:47:50,861</time>
      </trkpt>
      <trkpt lat="43.21608" lon="5.42658">
        <ele>308.85034</ele>
        <time>2019-06-19 10:47:51,860</time>
      </trkpt>
      <trkpt lat="43.21608" lon="5.42658">
        <ele>310.16895</ele>
        <time>2019-06-19 10:47:52,866</time>
      </trkpt>
      <trkpt lat="43.21608" lon="5.4266">
        <ele>309.31458</ele>
        <time>2019-06-19 10:47:54,862</time>
      </trkpt>
      <trkpt lat="43.21608" lon="5.42661">
        <ele>309.0913</ele>
        <time>2019-06-19 10:47:55,868</time>
      </trkpt>
      <trkpt lat="43.21607" lon="5.42661">
        <ele>310.25708</ele>
        <time>2019-06-19 10:47:56,863</time>
      </trkpt>
      <trkpt lat="43.21607" lon="5.42662">
        <ele>308.28357</ele>
        <time>2019-06-19 10:47:57,859</time>
      </trkpt>
      <trkpt lat="43.21606" lon="5.42666">
        <ele>309.30945</ele>
        <time>2019-06-19 10:48:01,913</time>
      </trkpt>
      <trkpt lat="43.21602" lon="5.42671">
        <ele>310.7165</ele>
        <time>2019-06-19 10:48:11,857</time>
      </trkpt>
      <trkpt lat="43.21602" lon="5.42671">
        <ele>310.3073</ele>
        <time>2019-06-19 10:48:12,858</time>
      </trkpt>
      <trkpt lat="43.216" lon="5.42673">
        <ele>311.79358</ele>
        <time>2019-06-19 10:48:15,955</time>
      </trkpt>
      <trkpt lat="43.21594" lon="5.42676">
        <ele>310.42902</ele>
        <time>2019-06-19 10:48:20,845</time>
      </trkpt>
      <trkpt lat="43.21594" lon="5.42677">
        <ele>310.91882</ele>
        <time>2019-06-19 10:48:21,851</time>
      </trkpt>
      <trkpt lat="43.21594" lon="5.42678">
        <ele>312.21338</ele>
        <time>2019-06-19 10:48:22,869</time>
      </trkpt>
      <trkpt lat="43.21593" lon="5.4268">
        <ele>311.792</ele>
        <time>2019-06-19 10:48:25,861</time>
      </trkpt>
      <trkpt lat="43.21593" lon="5.4268">
        <ele>312.4856</ele>
        <time>2019-06-19 10:48:26,862</time>
      </trkpt>
      <trkpt lat="43.21593" lon="5.42679">
        <ele>312.36584</ele>
        <time>2019-06-19 10:48:27,879</time>
      </trkpt>
      <trkpt lat="43.21593" lon="5.42679">
        <ele>313.28687</ele>
        <time>2019-06-19 10:48:28,864</time>
      </trkpt>
      <trkpt lat="43.21592" lon="5.42681">
        <ele>315.4065</ele>
        <time>2019-06-19 10:48:31,862</time>
      </trkpt>
      <trkpt lat="43.2159" lon="5.42684">
        <ele>316.0725</ele>
        <time>2019-06-19 10:48:33,863</time>
      </trkpt>
      <trkpt lat="43.21588" lon="5.42687">
        <ele>315.4308</ele>
        <time>2019-06-19 10:48:37,875</time>
      </trkpt>
      <trkpt lat="43.21587" lon="5.42687">
        <ele>315.57343</ele>
        <time>2019-06-19 10:48:38,893</time>
      </trkpt>
      <trkpt lat="43.21586" lon="5.42687">
        <ele>315.71313</ele>
        <time>2019-06-19 10:48:39,856</time>
      </trkpt>
      <trkpt lat="43.21585" lon="5.42689">
        <ele>316.99524</ele>
        <time>2019-06-19 10:48:41,946</time>
      </trkpt>
      <trkpt lat="43.21582" lon="5.42692">
        <ele>316.5476</ele>
        <time>2019-06-19 10:48:44,862</time>
      </trkpt>
      <trkpt lat="43.2158" lon="5.42694">
        <ele>315.75452</ele>
        <time>2019-06-19 10:48:46,859</time>
      </trkpt>
      <trkpt lat="43.21578" lon="5.42697">
        <ele>314.61694</ele>
        <time>2019-06-19 10:48:50,861</time>
      </trkpt>
      <trkpt lat="43.21577" lon="5.42698">
        <ele>315.10718</ele>
        <time>2019-06-19 10:49:00,860</time>
      </trkpt>
      <trkpt lat="43.21577" lon="5.427">
        <ele>314.71216</ele>
        <time>2019-06-19 10:49:03,861</time>
      </trkpt>
      <trkpt lat="43.21577" lon="5.42701">
        <ele>314.89026</ele>
        <time>2019-06-19 10:49:04,861</time>
      </trkpt>
      <trkpt lat="43.21578" lon="5.42702">
        <ele>315.10437</ele>
        <time>2019-06-19 10:49:06,864</time>
      </trkpt>
      <trkpt lat="43.21579" lon="5.42703">
        <ele>316.3418</ele>
        <time>2019-06-19 10:49:07,875</time>
      </trkpt>
      <trkpt lat="43.21579" lon="5.42703">
        <ele>318.21198</ele>
        <time>2019-06-19 10:49:08,862</time>
      </trkpt>
      <trkpt lat="43.21579" lon="5.42706">
        <ele>319.4673</ele>
        <time>2019-06-19 10:49:12,857</time>
      </trkpt>
      <trkpt lat="43.21579" lon="5.42709">
        <ele>317.53992</ele>
        <time>2019-06-19 10:49:16,864</time>
      </trkpt>
      <trkpt lat="43.21579" lon="5.4271">
        <ele>316.82837</ele>
        <time>2019-06-19 10:49:19,865</time>
      </trkpt>
      <trkpt lat="43.2158" lon="5.42711">
        <ele>316.4718</ele>
        <time>2019-06-19 10:49:20,854</time>
      </trkpt>
      <trkpt lat="43.21582" lon="5.42713">
        <ele>318.20126</ele>
        <time>2019-06-19 10:49:23,866</time>
      </trkpt>
      <trkpt lat="43.21582" lon="5.42714">
        <ele>313.79297</ele>
        <time>2019-06-19 10:49:24,857</time>
      </trkpt>
      <trkpt lat="43.21583" lon="5.42715">
        <ele>314.11755</ele>
        <time>2019-06-19 10:49:26,864</time>
      </trkpt>
      <trkpt lat="43.21583" lon="5.42716">
        <ele>313.99695</ele>
        <time>2019-06-19 10:49:27,947</time>
      </trkpt>
      <trkpt lat="43.21582" lon="5.42717">
        <ele>313.13477</ele>
        <time>2019-06-19 10:49:37,860</time>
      </trkpt>
      <trkpt lat="43.21582" lon="5.42719">
        <ele>311.74506</ele>
        <time>2019-06-19 10:49:38,860</time>
      </trkpt>
      <trkpt lat="43.21581" lon="5.42722">
        <ele>309.6925</ele>
        <time>2019-06-19 10:49:42,857</time>
      </trkpt>
      <trkpt lat="43.21581" lon="5.42722">
        <ele>311.96558</ele>
        <time>2019-06-19 10:49:44,858</time>
      </trkpt>
      <trkpt lat="43.21581" lon="5.42723">
        <ele>311.20654</ele>
        <time>2019-06-19 10:49:45,874</time>
      </trkpt>
      <trkpt lat="43.21578" lon="5.42726">
        <ele>309.7837</ele>
        <time>2019-06-19 10:49:51,858</time>
      </trkpt>
      <trkpt lat="43.21578" lon="5.42728">
        <ele>309.8899</ele>
        <time>2019-06-19 10:49:53,859</time>
      </trkpt>
      <trkpt lat="43.21577" lon="5.42732">
        <ele>307.714</ele>
        <time>2019-06-19 10:49:57,861</time>
      </trkpt>
      <trkpt lat="43.21576" lon="5.42734">
        <ele>309.46082</ele>
        <time>2019-06-19 10:50:00,859</time>
      </trkpt>
      <trkpt lat="43.21575" lon="5.42736">
        <ele>308.1283</ele>
        <time>2019-06-19 10:50:03,851</time>
      </trkpt>
      <trkpt lat="43.21574" lon="5.42736">
        <ele>310.1136</ele>
        <time>2019-06-19 10:50:22,890</time>
      </trkpt>
      <trkpt lat="43.21573" lon="5.42736">
        <ele>309.53546</ele>
        <time>2019-06-19 10:50:23,855</time>
      </trkpt>
      <trkpt lat="43.21572" lon="5.42732">
        <ele>309.64062</ele>
        <time>2019-06-19 10:50:30,045</time>
      </trkpt>
      <trkpt lat="43.21571" lon="5.4273">
        <ele>308.71417</ele>
        <time>2019-06-19 10:50:31,846</time>
      </trkpt>
      <trkpt lat="43.21572" lon="5.42728">
        <ele>309.98645</ele>
        <time>2019-06-19 10:50:33,854</time>
      </trkpt>
      <trkpt lat="43.21573" lon="5.42726">
        <ele>308.96265</ele>
        <time>2019-06-19 10:50:36,853</time>
      </trkpt>
      <trkpt lat="43.21572" lon="5.42726">
        <ele>309.90588</ele>
        <time>2019-06-19 10:50:44,860</time>
      </trkpt>
      <trkpt lat="43.2157" lon="5.42717">
        <ele>308.49194</ele>
        <time>2019-06-19 10:50:52,870</time>
      </trkpt>
      <trkpt lat="43.2157" lon="5.42716">
        <ele>308.4812</ele>
        <time>2019-06-19 10:50:53,862</time>
      </trkpt>
      <trkpt lat="43.21569" lon="5.42715">
        <ele>308.1538</ele>
        <time>2019-06-19 10:50:54,870</time>
      </trkpt>
      <trkpt lat="43.21569" lon="5.42715">
        <ele>307.77948</ele>
        <time>2019-06-19 10:50:55,858</time>
      </trkpt>
      <trkpt lat="43.21568" lon="5.42715">
        <ele>307.58063</ele>
        <time>2019-06-19 10:50:56,858</time>
      </trkpt>
      <trkpt lat="43.21568" lon="5.42714">
        <ele>309.8346</ele>
        <time>2019-06-19 10:50:57,856</time>
      </trkpt>
      <trkpt lat="43.21568" lon="5.42713">
        <ele>306.60175</ele>
        <time>2019-06-19 10:50:58,857</time>
      </trkpt>
      <trkpt lat="43.21567" lon="5.42712">
        <ele>305.5752</ele>
        <time>2019-06-19 10:51:00,964</time>
      </trkpt>
      <trkpt lat="43.21566" lon="5.42709">
        <ele>306.0315</ele>
        <time>2019-06-19 10:51:05,887</time>
      </trkpt>
      <trkpt lat="43.21565" lon="5.42709">
        <ele>305.3117</ele>
        <time>2019-06-19 10:51:07,855</time>
      </trkpt>
      <trkpt lat="43.2156" lon="5.42706">
        <ele>303.86646</ele>
        <time>2019-06-19 10:51:14,861</time>
      </trkpt>
      <trkpt lat="43.2156" lon="5.42706">
        <ele>303.43677</ele>
        <time>2019-06-19 10:51:15,855</time>
      </trkpt>
      <trkpt lat="43.21559" lon="5.42706">
        <ele>302.72717</ele>
        <time>2019-06-19 10:51:16,855</time>
      </trkpt>
      <trkpt lat="43.21558" lon="5.42706">
        <ele>303.04688</ele>
        <time>2019-06-19 10:51:17,857</time>
      </trkpt>
      <trkpt lat="43.21557" lon="5.42706">
        <ele>303.80048</ele>
        <time>2019-06-19 10:51:18,874</time>
      </trkpt>
      <trkpt lat="43.21556" lon="5.42707">
        <ele>302.1493</ele>
        <time>2019-06-19 10:51:19,860</time>
      </trkpt>
      <trkpt lat="43.21552" lon="5.42708">
        <ele>301.90033</ele>
        <time>2019-06-19 10:51:39,857</time>
      </trkpt>
      <trkpt lat="43.21552" lon="5.42708">
        <ele>301.91486</ele>
        <time>2019-06-19 10:51:59,849</time>
      </trkpt>
      <trkpt lat="43.21552" lon="5.42708">
        <ele>301.0802</ele>
        <time>2019-06-19 10:52:19,960</time>
      </trkpt>
      <trkpt lat="43.21552" lon="5.42708">
        <ele>301.6615</ele>
        <time>2019-06-19 10:52:39,969</time>
      </trkpt>
      <trkpt lat="43.21552" lon="5.42708">
        <ele>301.6988</ele>
        <time>2019-06-19 10:52:59,966</time>
      </trkpt>
      <trkpt lat="43.21552" lon="5.42708">
        <ele>301.64258</ele>
        <time>2019-06-19 10:53:19,963</time>
      </trkpt>
      <trkpt lat="43.21552" lon="5.42708">
        <ele>301.24646</ele>
        <time>2019-06-19 10:53:36,979</time>
      </trkpt>
      <trkpt lat="43.21551" lon="5.42708">
        <ele>302.0127</ele>
        <time>2019-06-19 10:53:37,992</time>
      </trkpt>
      <trkpt lat="43.21551" lon="5.42708">
        <ele>301.24707</ele>
        <time>2019-06-19 10:53:42,979</time>
      </trkpt>
      <trkpt lat="43.2155" lon="5.42708">
        <ele>300.09546</ele>
        <time>2019-06-19 10:53:43,964</time>
      </trkpt>
      <trkpt lat="43.21549" lon="5.42709">
        <ele>301.92773</ele>
        <time>2019-06-19 10:53:46,075</time>
      </trkpt>
      <trkpt lat="43.21549" lon="5.4271">
        <ele>302.68774</ele>
        <time>2019-06-19 10:53:47,980</time>
      </trkpt>
      <trkpt lat="43.21549" lon="5.4271">
        <ele>301.1383</ele>
        <time>2019-06-19 10:53:48,971</time>
      </trkpt>
      <trkpt lat="43.21549" lon="5.4271">
        <ele>302.43628</ele>
        <time>2019-06-19 10:53:49,976</time>
      </trkpt>
      <trkpt lat="43.21549" lon="5.42711">
        <ele>301.3003</ele>
        <time>2019-06-19 10:53:52,985</time>
      </trkpt>
      <trkpt lat="43.2155" lon="5.42712">
        <ele>299.68372</ele>
        <time>2019-06-19 10:53:53,976</time>
      </trkpt>
      <trkpt lat="43.2155" lon="5.42712">
        <ele>301.00928</ele>
        <time>2019-06-19 10:53:54,972</time>
      </trkpt>
      <trkpt lat="43.2155" lon="5.42713">
        <ele>299.95</ele>
        <time>2019-06-19 10:53:56,047</time>
      </trkpt>
      <trkpt lat="43.21549" lon="5.42714">
        <ele>299.7508</ele>
        <time>2019-06-19 10:53:56,987</time>
      </trkpt>
      <trkpt lat="43.21549" lon="5.42715">
        <ele>299.69348</ele>
        <time>2019-06-19 10:53:57,983</time>
      </trkpt>
      <trkpt lat="43.21548" lon="5.42716">
        <ele>299.50055</ele>
        <time>2019-06-19 10:53:58,975</time>
      </trkpt>
      <trkpt lat="43.21548" lon="5.42717">
        <ele>299.61035</ele>
        <time>2019-06-19 10:53:59,984</time>
      </trkpt>
      <trkpt lat="43.21548" lon="5.42718">
        <ele>299.14813</ele>
        <time>2019-06-19 10:54:00,974</time>
      </trkpt>
      <trkpt lat="43.21548" lon="5.42719">
        <ele>300.08472</ele>
        <time>2019-06-19 10:54:01,983</time>
      </trkpt>
      <trkpt lat="43.21547" lon="5.4272">
        <ele>301.49243</ele>
        <time>2019-06-19 10:54:02,975</time>
      </trkpt>
      <trkpt lat="43.21547" lon="5.42723">
        <ele>297.247</ele>
        <time>2019-06-19 10:54:10,970</time>
      </trkpt>
      <trkpt lat="43.21547" lon="5.42725">
        <ele>294.95367</ele>
        <time>2019-06-19 10:54:12,967</time>
      </trkpt>
      <trkpt lat="43.21547" lon="5.42725">
        <ele>293.48328</ele>
        <time>2019-06-19 10:54:15,981</time>
      </trkpt>
      <trkpt lat="43.21546" lon="5.42726">
        <ele>292.15234</ele>
        <time>2019-06-19 10:54:16,974</time>
      </trkpt>
      <trkpt lat="43.21545" lon="5.42727">
        <ele>291.85254</ele>
        <time>2019-06-19 10:54:17,981</time>
      </trkpt>
      <trkpt lat="43.21542" lon="5.42728">
        <ele>290.59766</ele>
        <time>2019-06-19 10:54:24,008</time>
      </trkpt>
      <trkpt lat="43.21541" lon="5.42728">
        <ele>290.42883</ele>
        <time>2019-06-19 10:54:24,982</time>
      </trkpt>
      <trkpt lat="43.21541" lon="5.42728">
        <ele>290.28857</ele>
        <time>2019-06-19 10:54:25,969</time>
      </trkpt>
      <trkpt lat="43.21541" lon="5.42729">
        <ele>290.31128</ele>
        <time>2019-06-19 10:54:27,018</time>
      </trkpt>
      <trkpt lat="43.21539" lon="5.4273">
        <ele>288.32965</ele>
        <time>2019-06-19 10:54:28,984</time>
      </trkpt>
      <trkpt lat="43.21538" lon="5.4273">
        <ele>288.64252</ele>
        <time>2019-06-19 10:54:29,978</time>
      </trkpt>
      <trkpt lat="43.21537" lon="5.4273">
        <ele>288.40997</ele>
        <time>2019-06-19 10:54:30,986</time>
      </trkpt>
      <trkpt lat="43.21537" lon="5.42731">
        <ele>287.92053</ele>
        <time>2019-06-19 10:54:31,983</time>
      </trkpt>
      <trkpt lat="43.21537" lon="5.42732">
        <ele>288.6964</ele>
        <time>2019-06-19 10:54:32,971</time>
      </trkpt>
      <trkpt lat="43.21535" lon="5.42737">
        <ele>282.97583</ele>
        <time>2019-06-19 10:54:39,981</time>
      </trkpt>
      <trkpt lat="43.21535" lon="5.42739">
        <ele>280.575</ele>
        <time>2019-06-19 10:54:42,979</time>
      </trkpt>
      <trkpt lat="43.21534" lon="5.4274">
        <ele>280.0379</ele>
        <time>2019-06-19 10:54:43,978</time>
      </trkpt>
      <trkpt lat="43.21534" lon="5.42745">
        <ele>278.5229</ele>
        <time>2019-06-19 10:54:50,012</time>
      </trkpt>
      <trkpt lat="43.21533" lon="5.42746">
        <ele>279.28333</ele>
        <time>2019-06-19 10:54:53,981</time>
      </trkpt>
      <trkpt lat="43.21533" lon="5.42746">
        <ele>279.99316</ele>
        <time>2019-06-19 10:54:54,977</time>
      </trkpt>
      <trkpt lat="43.21531" lon="5.42749">
        <ele>278.6953</ele>
        <time>2019-06-19 10:54:57,973</time>
      </trkpt>
      <trkpt lat="43.21526" lon="5.42755">
        <ele>282.84058</ele>
        <time>2019-06-19 10:55:08,983</time>
      </trkpt>
      <trkpt lat="43.21522" lon="5.42757">
        <ele>282.50977</ele>
        <time>2019-06-19 10:55:14,969</time>
      </trkpt>
      <trkpt lat="43.21518" lon="5.42759">
        <ele>278.2567</ele>
        <time>2019-06-19 10:55:21,978</time>
      </trkpt>
      <trkpt lat="43.21517" lon="5.42761">
        <ele>278.0786</ele>
        <time>2019-06-19 10:55:24,982</time>
      </trkpt>
      <trkpt lat="43.21516" lon="5.42763">
        <ele>275.17554</ele>
        <time>2019-06-19 10:55:29,984</time>
      </trkpt>
      <trkpt lat="43.21516" lon="5.42763">
        <ele>274.6551</ele>
        <time>2019-06-19 10:55:30,980</time>
      </trkpt>
      <trkpt lat="43.21516" lon="5.42764">
        <ele>273.86877</ele>
        <time>2019-06-19 10:55:31,974</time>
      </trkpt>
      <trkpt lat="43.21517" lon="5.42766">
        <ele>272.82648</ele>
        <time>2019-06-19 10:55:34,984</time>
      </trkpt>
      <trkpt lat="43.21517" lon="5.42767">
        <ele>273.41736</ele>
        <time>2019-06-19 10:55:35,972</time>
      </trkpt>
      <trkpt lat="43.21516" lon="5.42767">
        <ele>274.30273</ele>
        <time>2019-06-19 10:55:36,970</time>
      </trkpt>
      <trkpt lat="43.21516" lon="5.42769">
        <ele>274.37512</ele>
        <time>2019-06-19 10:55:37,980</time>
      </trkpt>
      <trkpt lat="43.21516" lon="5.4277">
        <ele>273.8694</ele>
        <time>2019-06-19 10:55:38,980</time>
      </trkpt>
      <trkpt lat="43.21517" lon="5.42772">
        <ele>272.5088</ele>
        <time>2019-06-19 10:55:40,990</time>
      </trkpt>
      <trkpt lat="43.21516" lon="5.42774">
        <ele>271.6894</ele>
        <time>2019-06-19 10:55:43,972</time>
      </trkpt>
      <trkpt lat="43.21516" lon="5.42775">
        <ele>272.19067</ele>
        <time>2019-06-19 10:55:45,977</time>
      </trkpt>
      <trkpt lat="43.21516" lon="5.42776">
        <ele>271.8628</ele>
        <time>2019-06-19 10:55:46,971</time>
      </trkpt>
      <trkpt lat="43.21515" lon="5.42776">
        <ele>270.90942</ele>
        <time>2019-06-19 10:55:49,970</time>
      </trkpt>
      <trkpt lat="43.21513" lon="5.42777">
        <ele>271.56067</ele>
        <time>2019-06-19 10:55:53,963</time>
      </trkpt>
      <trkpt lat="43.21512" lon="5.42778">
        <ele>271.79083</ele>
        <time>2019-06-19 10:55:54,970</time>
      </trkpt>
      <trkpt lat="43.21512" lon="5.42778">
        <ele>271.03455</ele>
        <time>2019-06-19 10:55:55,978</time>
      </trkpt>
      <trkpt lat="43.21512" lon="5.42779">
        <ele>270.3883</ele>
        <time>2019-06-19 10:55:58,978</time>
      </trkpt>
      <trkpt lat="43.2151" lon="5.42782">
        <ele>268.29083</ele>
        <time>2019-06-19 10:56:05,010</time>
      </trkpt>
      <trkpt lat="43.2151" lon="5.42782">
        <ele>269.6604</ele>
        <time>2019-06-19 10:56:05,970</time>
      </trkpt>
      <trkpt lat="43.21509" lon="5.42783">
        <ele>267.0171</ele>
        <time>2019-06-19 10:56:07,982</time>
      </trkpt>
      <trkpt lat="43.21508" lon="5.42783">
        <ele>265.77588</ele>
        <time>2019-06-19 10:56:08,973</time>
      </trkpt>
      <trkpt lat="43.21508" lon="5.42784">
        <ele>269.24673</ele>
        <time>2019-06-19 10:56:10,064</time>
      </trkpt>
      <trkpt lat="43.21507" lon="5.42785">
        <ele>266.88794</ele>
        <time>2019-06-19 10:56:11,973</time>
      </trkpt>
      <trkpt lat="43.21505" lon="5.42785">
        <ele>263.92053</ele>
        <time>2019-06-19 10:56:13,974</time>
      </trkpt>
      <trkpt lat="43.21505" lon="5.42786">
        <ele>264.06946</ele>
        <time>2019-06-19 10:56:14,975</time>
      </trkpt>
      <trkpt lat="43.21505" lon="5.42787">
        <ele>261.35876</ele>
        <time>2019-06-19 10:56:15,994</time>
      </trkpt>
      <trkpt lat="43.21504" lon="5.42788">
        <ele>260.75916</ele>
        <time>2019-06-19 10:56:16,985</time>
      </trkpt>
      <trkpt lat="43.21504" lon="5.42789">
        <ele>260.99817</ele>
        <time>2019-06-19 10:56:17,970</time>
      </trkpt>
      <trkpt lat="43.21503" lon="5.4279">
        <ele>259.9679</ele>
        <time>2019-06-19 10:56:19,982</time>
      </trkpt>
      <trkpt lat="43.21503" lon="5.42791">
        <ele>259.02417</ele>
        <time>2019-06-19 10:56:20,983</time>
      </trkpt>
      <trkpt lat="43.21503" lon="5.42792">
        <ele>258.86548</ele>
        <time>2019-06-19 10:56:22,057</time>
      </trkpt>
      <trkpt lat="43.21502" lon="5.42793">
        <ele>258.40845</ele>
        <time>2019-06-19 10:56:23,981</time>
      </trkpt>
      <trkpt lat="43.21502" lon="5.42794">
        <ele>257.71484</ele>
        <time>2019-06-19 10:56:24,970</time>
      </trkpt>
      <trkpt lat="43.21503" lon="5.42796">
        <ele>257.86115</ele>
        <time>2019-06-19 10:56:31,980</time>
      </trkpt>
      <trkpt lat="43.21503" lon="5.42797">
        <ele>258.7765</ele>
        <time>2019-06-19 10:56:32,980</time>
      </trkpt>
      <trkpt lat="43.21503" lon="5.42798">
        <ele>258.4314</ele>
        <time>2019-06-19 10:56:38,975</time>
      </trkpt>
      <trkpt lat="43.21503" lon="5.42799">
        <ele>257.19275</ele>
        <time>2019-06-19 10:56:39,971</time>
      </trkpt>
      <trkpt lat="43.21503" lon="5.42801">
        <ele>257.16663</ele>
        <time>2019-06-19 10:56:41,973</time>
      </trkpt>
      <trkpt lat="43.21503" lon="5.42803">
        <ele>256.49353</ele>
        <time>2019-06-19 10:56:42,971</time>
      </trkpt>
      <trkpt lat="43.21503" lon="5.42804">
        <ele>257.36755</ele>
        <time>2019-06-19 10:56:43,976</time>
      </trkpt>
      <trkpt lat="43.21502" lon="5.42805">
        <ele>258.00128</ele>
        <time>2019-06-19 10:56:44,994</time>
      </trkpt>
      <trkpt lat="43.21501" lon="5.42806">
        <ele>258.2564</ele>
        <time>2019-06-19 10:56:45,988</time>
      </trkpt>
      <trkpt lat="43.215" lon="5.42807">
        <ele>257.69354</ele>
        <time>2019-06-19 10:56:46,974</time>
      </trkpt>
      <trkpt lat="43.215" lon="5.42808">
        <ele>258.575</ele>
        <time>2019-06-19 10:56:47,976</time>
      </trkpt>
      <trkpt lat="43.21499" lon="5.42809">
        <ele>257.84094</ele>
        <time>2019-06-19 10:56:48,980</time>
      </trkpt>
      <trkpt lat="43.21499" lon="5.4281">
        <ele>259.06976</ele>
        <time>2019-06-19 10:56:49,980</time>
      </trkpt>
      <trkpt lat="43.21499" lon="5.42811">
        <ele>259.72095</ele>
        <time>2019-06-19 10:56:50,978</time>
      </trkpt>
      <trkpt lat="43.21499" lon="5.42812">
        <ele>258.09418</ele>
        <time>2019-06-19 10:56:51,972</time>
      </trkpt>
      <trkpt lat="43.21498" lon="5.42813">
        <ele>256.36768</ele>
        <time>2019-06-19 10:56:52,999</time>
      </trkpt>
      <trkpt lat="43.21497" lon="5.42813">
        <ele>254.85455</ele>
        <time>2019-06-19 10:56:53,974</time>
      </trkpt>
      <trkpt lat="43.21496" lon="5.42813">
        <ele>252.57227</ele>
        <time>2019-06-19 10:56:54,976</time>
      </trkpt>
      <trkpt lat="43.21495" lon="5.42813">
        <ele>252.87372</ele>
        <time>2019-06-19 10:56:56,047</time>
      </trkpt>
      <trkpt lat="43.21494" lon="5.42813">
        <ele>251.58185</ele>
        <time>2019-06-19 10:56:56,970</time>
      </trkpt>
      <trkpt lat="43.21494" lon="5.42813">
        <ele>251.61993</ele>
        <time>2019-06-19 10:56:57,967</time>
      </trkpt>
      <trkpt lat="43.21493" lon="5.42813">
        <ele>250.69714</ele>
        <time>2019-06-19 10:56:58,974</time>
      </trkpt>
      <trkpt lat="43.21492" lon="5.42814">
        <ele>248.99152</ele>
        <time>2019-06-19 10:56:59,980</time>
      </trkpt>
      <trkpt lat="43.21492" lon="5.42814">
        <ele>249.26611</ele>
        <time>2019-06-19 10:57:01,044</time>
      </trkpt>
      <trkpt lat="43.21491" lon="5.42815">
        <ele>248.91736</ele>
        <time>2019-06-19 10:57:02,026</time>
      </trkpt>
      <trkpt lat="43.21491" lon="5.42815">
        <ele>248.18768</ele>
        <time>2019-06-19 10:57:02,973</time>
      </trkpt>
      <trkpt lat="43.21489" lon="5.42817">
        <ele>249.55133</ele>
        <time>2019-06-19 10:57:05,976</time>
      </trkpt>
      <trkpt lat="43.21489" lon="5.42818">
        <ele>249.61475</ele>
        <time>2019-06-19 10:57:06,973</time>
      </trkpt>
      <trkpt lat="43.21489" lon="5.4282">
        <ele>250.21112</ele>
        <time>2019-06-19 10:57:08,978</time>
      </trkpt>
      <trkpt lat="43.21489" lon="5.42821">
        <ele>250.83691</ele>
        <time>2019-06-19 10:57:09,975</time>
      </trkpt>
      <trkpt lat="43.21489" lon="5.42822">
        <ele>250.50201</ele>
        <time>2019-06-19 10:57:10,979</time>
      </trkpt>
      <trkpt lat="43.21488" lon="5.42823">
        <ele>250.54358</ele>
        <time>2019-06-19 10:57:13,981</time>
      </trkpt>
      <trkpt lat="43.21489" lon="5.42826">
        <ele>249.62653</ele>
        <time>2019-06-19 10:57:22,980</time>
      </trkpt>
      <trkpt lat="43.21489" lon="5.42827">
        <ele>249.9552</ele>
        <time>2019-06-19 10:57:24,001</time>
      </trkpt>
      <trkpt lat="43.21489" lon="5.4283">
        <ele>249.06152</ele>
        <time>2019-06-19 10:57:43,964</time>
      </trkpt>
      <trkpt lat="43.21489" lon="5.4283">
        <ele>249.0885</ele>
        <time>2019-06-19 10:58:03,964</time>
      </trkpt>
      <trkpt lat="43.21489" lon="5.4283">
        <ele>249.10754</ele>
        <time>2019-06-19 10:58:23,970</time>
      </trkpt>
      <trkpt lat="43.21489" lon="5.4283">
        <ele>249.16846</ele>
        <time>2019-06-19 10:58:44,576</time>
      </trkpt>
      <trkpt lat="43.21488" lon="5.42829">
        <ele>248.53857</ele>
        <time>2019-06-19 10:58:59,583</time>
      </trkpt>
      <trkpt lat="43.21489" lon="5.4283">
        <ele>248.34479</ele>
        <time>2019-06-19 10:59:00,611</time>
      </trkpt>
      <trkpt lat="43.2149" lon="5.42832">
        <ele>247.6206</ele>
        <time>2019-06-19 10:59:11,580</time>
      </trkpt>
      <trkpt lat="43.2149" lon="5.42833">
        <ele>247.72083</ele>
        <time>2019-06-19 10:59:12,582</time>
      </trkpt>
      <trkpt lat="43.2149" lon="5.42834">
        <ele>248.60779</ele>
        <time>2019-06-19 10:59:13,582</time>
      </trkpt>
      <trkpt lat="43.21491" lon="5.42836">
        <ele>248.85303</ele>
        <time>2019-06-19 10:59:17,580</time>
      </trkpt>
      <trkpt lat="43.21491" lon="5.42836">
        <ele>245.69238</ele>
        <time>2019-06-19 10:59:18,578</time>
      </trkpt>
      <trkpt lat="43.2149" lon="5.42837">
        <ele>245.01825</ele>
        <time>2019-06-19 10:59:19,581</time>
      </trkpt>
      <trkpt lat="43.2149" lon="5.42837">
        <ele>244.01251</ele>
        <time>2019-06-19 10:59:20,588</time>
      </trkpt>
      <trkpt lat="43.2149" lon="5.42837">
        <ele>243.51971</ele>
        <time>2019-06-19 10:59:21,580</time>
      </trkpt>
      <trkpt lat="43.21489" lon="5.42838">
        <ele>242.47473</ele>
        <time>2019-06-19 10:59:22,579</time>
      </trkpt>
      <trkpt lat="43.21489" lon="5.42838">
        <ele>245.18176</ele>
        <time>2019-06-19 10:59:23,584</time>
      </trkpt>
      <trkpt lat="43.21489" lon="5.42839">
        <ele>244.1596</ele>
        <time>2019-06-19 10:59:30,583</time>
      </trkpt>
      <trkpt lat="43.21489" lon="5.4284">
        <ele>243.86023</ele>
        <time>2019-06-19 10:59:31,579</time>
      </trkpt>
      <trkpt lat="43.21489" lon="5.42841">
        <ele>243.29883</ele>
        <time>2019-06-19 10:59:32,581</time>
      </trkpt>
      <trkpt lat="43.2149" lon="5.42842">
        <ele>241.63751</ele>
        <time>2019-06-19 10:59:33,588</time>
      </trkpt>
      <trkpt lat="43.21491" lon="5.42844">
        <ele>241.82227</ele>
        <time>2019-06-19 10:59:35,592</time>
      </trkpt>
      <trkpt lat="43.21491" lon="5.42845">
        <ele>240.3053</ele>
        <time>2019-06-19 10:59:36,594</time>
      </trkpt>
      <trkpt lat="43.21491" lon="5.42846">
        <ele>240.20972</ele>
        <time>2019-06-19 10:59:37,584</time>
      </trkpt>
      <trkpt lat="43.21491" lon="5.42847">
        <ele>239.46808</ele>
        <time>2019-06-19 10:59:38,587</time>
      </trkpt>
      <trkpt lat="43.21491" lon="5.42848">
        <ele>239.76599</ele>
        <time>2019-06-19 10:59:39,582</time>
      </trkpt>
      <trkpt lat="43.21491" lon="5.42849">
        <ele>239.69739</ele>
        <time>2019-06-19 10:59:40,591</time>
      </trkpt>
      <trkpt lat="43.2149" lon="5.42851">
        <ele>237.34839</ele>
        <time>2019-06-19 10:59:41,587</time>
      </trkpt>
      <trkpt lat="43.2149" lon="5.42852">
        <ele>236.78082</ele>
        <time>2019-06-19 10:59:42,595</time>
      </trkpt>
      <trkpt lat="43.2149" lon="5.42853">
        <ele>237.08203</ele>
        <time>2019-06-19 10:59:43,590</time>
      </trkpt>
      <trkpt lat="43.2149" lon="5.42854">
        <ele>237.44849</ele>
        <time>2019-06-19 10:59:44,582</time>
      </trkpt>
      <trkpt lat="43.21489" lon="5.42854">
        <ele>237.4956</ele>
        <time>2019-06-19 10:59:45,589</time>
      </trkpt>
      <trkpt lat="43.21491" lon="5.42857">
        <ele>241.15259</ele>
        <time>2019-06-19 10:59:58,579</time>
      </trkpt>
      <trkpt lat="43.21492" lon="5.42858">
        <ele>240.99524</ele>
        <time>2019-06-19 10:59:59,589</time>
      </trkpt>
      <trkpt lat="43.21492" lon="5.42859">
        <ele>240.21936</ele>
        <time>2019-06-19 11:00:00,584</time>
      </trkpt>
      <trkpt lat="43.21492" lon="5.42861">
        <ele>240.94751</ele>
        <time>2019-06-19 11:00:02,585</time>
      </trkpt>
      <trkpt lat="43.21491" lon="5.42861">
        <ele>240.307</ele>
        <time>2019-06-19 11:00:03,589</time>
      </trkpt>
      <trkpt lat="43.21491" lon="5.42862">
        <ele>241.24164</ele>
        <time>2019-06-19 11:00:04,586</time>
      </trkpt>
      <trkpt lat="43.2149" lon="5.42863">
        <ele>241.41235</ele>
        <time>2019-06-19 11:00:05,687</time>
      </trkpt>
      <trkpt lat="43.2149" lon="5.42863">
        <ele>241.62085</ele>
        <time>2019-06-19 11:00:06,613</time>
      </trkpt>
      <trkpt lat="43.21489" lon="5.42866">
        <ele>245.0484</ele>
        <time>2019-06-19 11:00:14,592</time>
      </trkpt>
      <trkpt lat="43.21488" lon="5.42867">
        <ele>248.00366</ele>
        <time>2019-06-19 11:00:15,586</time>
      </trkpt>
      <trkpt lat="43.21488" lon="5.42867">
        <ele>247.48718</ele>
        <time>2019-06-19 11:00:16,595</time>
      </trkpt>
      <trkpt lat="43.21488" lon="5.42867">
        <ele>248.77832</ele>
        <time>2019-06-19 11:00:17,591</time>
      </trkpt>
      <trkpt lat="43.21488" lon="5.42868">
        <ele>249.17896</ele>
        <time>2019-06-19 11:00:18,592</time>
      </trkpt>
      <trkpt lat="43.21487" lon="5.42869">
        <ele>249.23651</ele>
        <time>2019-06-19 11:00:19,587</time>
      </trkpt>
      <trkpt lat="43.21488" lon="5.4287">
        <ele>249.34149</ele>
        <time>2019-06-19 11:00:20,588</time>
      </trkpt>
      <trkpt lat="43.21488" lon="5.42871">
        <ele>248.90881</ele>
        <time>2019-06-19 11:00:21,580</time>
      </trkpt>
      <trkpt lat="43.21488" lon="5.42872">
        <ele>248.18701</ele>
        <time>2019-06-19 11:00:22,583</time>
      </trkpt>
      <trkpt lat="43.21489" lon="5.42872">
        <ele>250.27612</ele>
        <time>2019-06-19 11:00:25,584</time>
      </trkpt>
      <trkpt lat="43.21489" lon="5.42872">
        <ele>249.82196</ele>
        <time>2019-06-19 11:00:26,585</time>
      </trkpt>
      <trkpt lat="43.21489" lon="5.42873">
        <ele>249.56604</ele>
        <time>2019-06-19 11:00:27,595</time>
      </trkpt>
      <trkpt lat="43.21489" lon="5.42874">
        <ele>249.43976</ele>
        <time>2019-06-19 11:00:28,588</time>
      </trkpt>
      <trkpt lat="43.21489" lon="5.42875">
        <ele>248.51318</ele>
        <time>2019-06-19 11:00:29,583</time>
      </trkpt>
      <trkpt lat="43.21489" lon="5.42876">
        <ele>247.92108</ele>
        <time>2019-06-19 11:00:30,585</time>
      </trkpt>
      <trkpt lat="43.21489" lon="5.42878">
        <ele>245.26312</ele>
        <time>2019-06-19 11:00:31,606</time>
      </trkpt>
      <trkpt lat="43.21489" lon="5.42879">
        <ele>243.81744</ele>
        <time>2019-06-19 11:00:32,609</time>
      </trkpt>
      <trkpt lat="43.21489" lon="5.4288">
        <ele>243.32263</ele>
        <time>2019-06-19 11:00:33,842</time>
      </trkpt>
      <trkpt lat="43.21489" lon="5.42882">
        <ele>243.93317</ele>
        <time>2019-06-19 11:00:35,583</time>
      </trkpt>
      <trkpt lat="43.21489" lon="5.42883">
        <ele>243.44128</ele>
        <time>2019-06-19 11:00:36,590</time>
      </trkpt>
      <trkpt lat="43.21489" lon="5.42883">
        <ele>243.89233</ele>
        <time>2019-06-19 11:00:37,600</time>
      </trkpt>
      <trkpt lat="43.21489" lon="5.42885">
        <ele>243.52515</ele>
        <time>2019-06-19 11:00:38,614</time>
      </trkpt>
      <trkpt lat="43.21489" lon="5.42888">
        <ele>242.62164</ele>
        <time>2019-06-19 11:00:40,579</time>
      </trkpt>
      <trkpt lat="43.21488" lon="5.4289">
        <ele>240.46222</ele>
        <time>2019-06-19 11:00:42,585</time>
      </trkpt>
      <trkpt lat="43.21488" lon="5.42892">
        <ele>240.21301</ele>
        <time>2019-06-19 11:00:43,591</time>
      </trkpt>
      <trkpt lat="43.21489" lon="5.42893">
        <ele>239.04211</ele>
        <time>2019-06-19 11:00:44,580</time>
      </trkpt>
      <trkpt lat="43.21489" lon="5.42894">
        <ele>238.26636</ele>
        <time>2019-06-19 11:00:45,592</time>
      </trkpt>
      <trkpt lat="43.21489" lon="5.42896">
        <ele>238.14832</ele>
        <time>2019-06-19 11:00:46,596</time>
      </trkpt>
      <trkpt lat="43.21489" lon="5.42897">
        <ele>237.75348</ele>
        <time>2019-06-19 11:00:47,638</time>
      </trkpt>
      <trkpt lat="43.21489" lon="5.42898">
        <ele>235.23853</ele>
        <time>2019-06-19 11:00:48,881</time>
      </trkpt>
      <trkpt lat="43.21489" lon="5.42899">
        <ele>235.40277</ele>
        <time>2019-06-19 11:00:49,871</time>
      </trkpt>
      <trkpt lat="43.2149" lon="5.42901">
        <ele>234.70532</ele>
        <time>2019-06-19 11:00:51,872</time>
      </trkpt>
      <trkpt lat="43.2149" lon="5.42901">
        <ele>235.08966</ele>
        <time>2019-06-19 11:00:52,882</time>
      </trkpt>
      <trkpt lat="43.21491" lon="5.42902">
        <ele>234.93579</ele>
        <time>2019-06-19 11:00:53,874</time>
      </trkpt>
      <trkpt lat="43.21491" lon="5.42903">
        <ele>234.36084</ele>
        <time>2019-06-19 11:00:54,875</time>
      </trkpt>
      <trkpt lat="43.21492" lon="5.42904">
        <ele>234.36896</ele>
        <time>2019-06-19 11:00:55,879</time>
      </trkpt>
      <trkpt lat="43.21492" lon="5.42904">
        <ele>234.80884</ele>
        <time>2019-06-19 11:00:56,890</time>
      </trkpt>
      <trkpt lat="43.21492" lon="5.42906">
        <ele>233.97388</ele>
        <time>2019-06-19 11:00:58,887</time>
      </trkpt>
      <trkpt lat="43.21491" lon="5.42907">
        <ele>232.53357</ele>
        <time>2019-06-19 11:00:59,877</time>
      </trkpt>
      <trkpt lat="43.2149" lon="5.42908">
        <ele>232.57324</ele>
        <time>2019-06-19 11:01:00,880</time>
      </trkpt>
      <trkpt lat="43.21489" lon="5.42909">
        <ele>231.05707</ele>
        <time>2019-06-19 11:01:01,878</time>
      </trkpt>
      <trkpt lat="43.21489" lon="5.4291">
        <ele>231.47388</ele>
        <time>2019-06-19 11:01:02,874</time>
      </trkpt>
      <trkpt lat="43.21489" lon="5.42911">
        <ele>230.96802</ele>
        <time>2019-06-19 11:01:03,876</time>
      </trkpt>
      <trkpt lat="43.21489" lon="5.42912">
        <ele>231.41077</ele>
        <time>2019-06-19 11:01:04,872</time>
      </trkpt>
      <trkpt lat="43.21489" lon="5.42914">
        <ele>232.58215</ele>
        <time>2019-06-19 11:01:07,875</time>
      </trkpt>
      <trkpt lat="43.21489" lon="5.42915">
        <ele>232.07532</ele>
        <time>2019-06-19 11:01:08,874</time>
      </trkpt>
      <trkpt lat="43.21488" lon="5.42923">
        <ele>231.38379</ele>
        <time>2019-06-19 11:01:16,880</time>
      </trkpt>
      <trkpt lat="43.21488" lon="5.42924">
        <ele>237.66956</ele>
        <time>2019-06-19 11:01:17,872</time>
      </trkpt>
      <trkpt lat="43.21489" lon="5.42929">
        <ele>233.25378</ele>
        <time>2019-06-19 11:01:22,888</time>
      </trkpt>
      <trkpt lat="43.2149" lon="5.42931">
        <ele>232.46368</ele>
        <time>2019-06-19 11:01:23,882</time>
      </trkpt>
      <trkpt lat="43.2149" lon="5.42933">
        <ele>231.97473</ele>
        <time>2019-06-19 11:01:24,871</time>
      </trkpt>
      <trkpt lat="43.2149" lon="5.42935">
        <ele>230.54932</ele>
        <time>2019-06-19 11:01:25,872</time>
      </trkpt>
      <trkpt lat="43.21491" lon="5.42937">
        <ele>230.22852</ele>
        <time>2019-06-19 11:01:26,875</time>
      </trkpt>
      <trkpt lat="43.21491" lon="5.42937">
        <ele>230.6095</ele>
        <time>2019-06-19 11:01:27,875</time>
      </trkpt>
      <trkpt lat="43.21491" lon="5.42938">
        <ele>229.75146</ele>
        <time>2019-06-19 11:01:28,873</time>
      </trkpt>
      <trkpt lat="43.21492" lon="5.42939">
        <ele>230.9411</ele>
        <time>2019-06-19 11:01:29,869</time>
      </trkpt>
      <trkpt lat="43.21492" lon="5.42941">
        <ele>231.43188</ele>
        <time>2019-06-19 11:01:31,873</time>
      </trkpt>
      <trkpt lat="43.21492" lon="5.42942">
        <ele>232.62036</ele>
        <time>2019-06-19 11:01:32,881</time>
      </trkpt>
      <trkpt lat="43.21493" lon="5.42942">
        <ele>231.7218</ele>
        <time>2019-06-19 11:01:34,895</time>
      </trkpt>
      <trkpt lat="43.21494" lon="5.42944">
        <ele>228.48413</ele>
        <time>2019-06-19 11:01:40,881</time>
      </trkpt>
      <trkpt lat="43.21494" lon="5.42945">
        <ele>227.79688</ele>
        <time>2019-06-19 11:01:41,874</time>
      </trkpt>
      <trkpt lat="43.21494" lon="5.42946">
        <ele>227.65381</ele>
        <time>2019-06-19 11:01:42,878</time>
      </trkpt>
      <trkpt lat="43.21494" lon="5.42947">
        <ele>228.73181</ele>
        <time>2019-06-19 11:01:43,873</time>
      </trkpt>
      <trkpt lat="43.21494" lon="5.42947">
        <ele>229.41571</ele>
        <time>2019-06-19 11:01:44,867</time>
      </trkpt>
      <trkpt lat="43.21494" lon="5.42948">
        <ele>229.78552</ele>
        <time>2019-06-19 11:01:45,880</time>
      </trkpt>
      <trkpt lat="43.21494" lon="5.42949">
        <ele>229.74518</ele>
        <time>2019-06-19 11:01:47,904</time>
      </trkpt>
      <trkpt lat="43.21494" lon="5.4295">
        <ele>230.16583</ele>
        <time>2019-06-19 11:01:48,868</time>
      </trkpt>
      <trkpt lat="43.21494" lon="5.42951">
        <ele>230.57227</ele>
        <time>2019-06-19 11:01:49,879</time>
      </trkpt>
      <trkpt lat="43.21494" lon="5.42952">
        <ele>228.4419</ele>
        <time>2019-06-19 11:01:51,881</time>
      </trkpt>
      <trkpt lat="43.21495" lon="5.42952">
        <ele>227.3357</ele>
        <time>2019-06-19 11:01:52,875</time>
      </trkpt>
      <trkpt lat="43.21495" lon="5.42953">
        <ele>227.22424</ele>
        <time>2019-06-19 11:01:53,875</time>
      </trkpt>
      <trkpt lat="43.21495" lon="5.42954">
        <ele>228.13495</ele>
        <time>2019-06-19 11:01:54,870</time>
      </trkpt>
      <trkpt lat="43.21496" lon="5.42955">
        <ele>226.24347</ele>
        <time>2019-06-19 11:02:01,881</time>
      </trkpt>
      <trkpt lat="43.21495" lon="5.42955">
        <ele>225.7622</ele>
        <time>2019-06-19 11:02:02,879</time>
      </trkpt>
      <trkpt lat="43.21495" lon="5.42956">
        <ele>225.67096</ele>
        <time>2019-06-19 11:02:03,880</time>
      </trkpt>
      <trkpt lat="43.21496" lon="5.42956">
        <ele>225.65216</ele>
        <time>2019-06-19 11:02:06,873</time>
      </trkpt>
      <trkpt lat="43.21496" lon="5.42957">
        <ele>226.37354</ele>
        <time>2019-06-19 11:02:07,875</time>
      </trkpt>
      <trkpt lat="43.21496" lon="5.42958">
        <ele>226.1731</ele>
        <time>2019-06-19 11:02:08,879</time>
      </trkpt>
      <trkpt lat="43.21495" lon="5.42958">
        <ele>226.56787</ele>
        <time>2019-06-19 11:02:09,885</time>
      </trkpt>
      <trkpt lat="43.21495" lon="5.42959">
        <ele>226.08704</ele>
        <time>2019-06-19 11:02:10,875</time>
      </trkpt>
      <trkpt lat="43.21496" lon="5.4296">
        <ele>231.05365</ele>
        <time>2019-06-19 11:02:18,899</time>
      </trkpt>
      <trkpt lat="43.21495" lon="5.42961">
        <ele>230.83289</ele>
        <time>2019-06-19 11:02:19,877</time>
      </trkpt>
      <trkpt lat="43.21495" lon="5.42963">
        <ele>229.31317</ele>
        <time>2019-06-19 11:02:21,876</time>
      </trkpt>
      <trkpt lat="43.21494" lon="5.42966">
        <ele>227.24445</ele>
        <time>2019-06-19 11:02:27,875</time>
      </trkpt>
      <trkpt lat="43.21494" lon="5.42968">
        <ele>226.52576</ele>
        <time>2019-06-19 11:02:28,872</time>
      </trkpt>
      <trkpt lat="43.21495" lon="5.42973">
        <ele>223.79065</ele>
        <time>2019-06-19 11:02:32,875</time>
      </trkpt>
      <trkpt lat="43.21494" lon="5.42974">
        <ele>222.13672</ele>
        <time>2019-06-19 11:02:33,870</time>
      </trkpt>
      <trkpt lat="43.21494" lon="5.42975">
        <ele>221.83252</ele>
        <time>2019-06-19 11:02:34,871</time>
      </trkpt>
      <trkpt lat="43.21495" lon="5.42976">
        <ele>221.7439</ele>
        <time>2019-06-19 11:02:36,870</time>
      </trkpt>
      <trkpt lat="43.21495" lon="5.42978">
        <ele>220.98724</ele>
        <time>2019-06-19 11:02:38,879</time>
      </trkpt>
      <trkpt lat="43.21495" lon="5.42978">
        <ele>218.30914</ele>
        <time>2019-06-19 11:02:42,877</time>
      </trkpt>
      <trkpt lat="43.21497" lon="5.4298">
        <ele>235.7511</ele>
        <time>2019-06-19 11:02:44,879</time>
      </trkpt>
      <trkpt lat="43.21497" lon="5.4298">
        <ele>228.94116</ele>
        <time>2019-06-19 11:02:45,890</time>
      </trkpt>
      <trkpt lat="43.21497" lon="5.42982">
        <ele>224.91797</ele>
        <time>2019-06-19 11:02:46,879</time>
      </trkpt>
      <trkpt lat="43.21497" lon="5.42983">
        <ele>219.0094</ele>
        <time>2019-06-19 11:02:48,917</time>
      </trkpt>
      <trkpt lat="43.21497" lon="5.42984">
        <ele>216.6604</ele>
        <time>2019-06-19 11:02:49,873</time>
      </trkpt>
      <trkpt lat="43.21497" lon="5.42986">
        <ele>214.98401</ele>
        <time>2019-06-19 11:02:51,877</time>
      </trkpt>
      <trkpt lat="43.21497" lon="5.42987">
        <ele>214.80035</ele>
        <time>2019-06-19 11:02:52,881</time>
      </trkpt>
      <trkpt lat="43.21498" lon="5.42987">
        <ele>215.43774</ele>
        <time>2019-06-19 11:02:53,934</time>
      </trkpt>
      <trkpt lat="43.21498" lon="5.42988">
        <ele>215.19873</ele>
        <time>2019-06-19 11:02:54,888</time>
      </trkpt>
      <trkpt lat="43.21498" lon="5.4299">
        <ele>214.23969</ele>
        <time>2019-06-19 11:02:55,881</time>
      </trkpt>
      <trkpt lat="43.21499" lon="5.42991">
        <ele>214.64673</ele>
        <time>2019-06-19 11:02:56,873</time>
      </trkpt>
      <trkpt lat="43.215" lon="5.42992">
        <ele>212.67303</ele>
        <time>2019-06-19 11:02:58,878</time>
      </trkpt>
      <trkpt lat="43.21499" lon="5.42994">
        <ele>213.49133</ele>
        <time>2019-06-19 11:02:59,893</time>
      </trkpt>
      <trkpt lat="43.21499" lon="5.42995">
        <ele>213.17432</ele>
        <time>2019-06-19 11:03:00,881</time>
      </trkpt>
      <trkpt lat="43.21499" lon="5.42996">
        <ele>213.04663</ele>
        <time>2019-06-19 11:03:01,876</time>
      </trkpt>
      <trkpt lat="43.21499" lon="5.42997">
        <ele>212.67242</ele>
        <time>2019-06-19 11:03:02,876</time>
      </trkpt>
      <trkpt lat="43.21499" lon="5.42999">
        <ele>211.80408</ele>
        <time>2019-06-19 11:03:03,883</time>
      </trkpt>
      <trkpt lat="43.21499" lon="5.43">
        <ele>211.00562</ele>
        <time>2019-06-19 11:03:04,919</time>
      </trkpt>
      <trkpt lat="43.21499" lon="5.43001">
        <ele>210.91919</ele>
        <time>2019-06-19 11:03:05,880</time>
      </trkpt>
      <trkpt lat="43.215" lon="5.43002">
        <ele>210.57837</ele>
        <time>2019-06-19 11:03:06,893</time>
      </trkpt>
      <trkpt lat="43.215" lon="5.43003">
        <ele>210.52698</ele>
        <time>2019-06-19 11:03:07,875</time>
      </trkpt>
      <trkpt lat="43.21501" lon="5.43004">
        <ele>210.41785</ele>
        <time>2019-06-19 11:03:09,011</time>
      </trkpt>
      <trkpt lat="43.21502" lon="5.43005">
        <ele>210.50421</ele>
        <time>2019-06-19 11:03:10,883</time>
      </trkpt>
      <trkpt lat="43.21502" lon="5.43007">
        <ele>208.27411</ele>
        <time>2019-06-19 11:03:12,887</time>
      </trkpt>
      <trkpt lat="43.21502" lon="5.43007">
        <ele>208.88702</ele>
        <time>2019-06-19 11:03:13,885</time>
      </trkpt>
      <trkpt lat="43.21502" lon="5.43008">
        <ele>209.0758</ele>
        <time>2019-06-19 11:03:14,871</time>
      </trkpt>
      <trkpt lat="43.21503" lon="5.43008">
        <ele>207.828</ele>
        <time>2019-06-19 11:03:15,923</time>
      </trkpt>
      <trkpt lat="43.21504" lon="5.43009">
        <ele>208.54688</ele>
        <time>2019-06-19 11:03:18,906</time>
      </trkpt>
      <trkpt lat="43.21505" lon="5.4301">
        <ele>207.55994</ele>
        <time>2019-06-19 11:03:19,872</time>
      </trkpt>
      <trkpt lat="43.21508" lon="5.4301">
        <ele>208.81958</ele>
        <time>2019-06-19 11:03:22,890</time>
      </trkpt>
      <trkpt lat="43.2151" lon="5.43011">
        <ele>207.12006</ele>
        <time>2019-06-19 11:03:43,875</time>
      </trkpt>
      <trkpt lat="43.21511" lon="5.43011">
        <ele>206.95001</ele>
        <time>2019-06-19 11:04:07,877</time>
      </trkpt>
      <trkpt lat="43.2151" lon="5.43012">
        <ele>207.3385</ele>
        <time>2019-06-19 11:04:10,986</time>
      </trkpt>
      <trkpt lat="43.21511" lon="5.43011">
        <ele>208.94775</ele>
        <time>2019-06-19 11:04:13,067</time>
      </trkpt>
      <trkpt lat="43.21512" lon="5.43011">
        <ele>210.00305</ele>
        <time>2019-06-19 11:04:14,935</time>
      </trkpt>
      <trkpt lat="43.21512" lon="5.43012">
        <ele>209.78412</ele>
        <time>2019-06-19 11:04:15,890</time>
      </trkpt>
      <trkpt lat="43.21511" lon="5.43012">
        <ele>208.03772</ele>
        <time>2019-06-19 11:04:21,880</time>
      </trkpt>
      <trkpt lat="43.21511" lon="5.43012">
        <ele>206.73376</ele>
        <time>2019-06-19 11:04:22,882</time>
      </trkpt>
      <trkpt lat="43.21511" lon="5.43013">
        <ele>207.10034</ele>
        <time>2019-06-19 11:04:23,877</time>
      </trkpt>
      <trkpt lat="43.21511" lon="5.43014">
        <ele>206.98138</ele>
        <time>2019-06-19 11:04:25,017</time>
      </trkpt>
      <trkpt lat="43.21512" lon="5.43014">
        <ele>208.7218</ele>
        <time>2019-06-19 11:04:28,910</time>
      </trkpt>
      <trkpt lat="43.21512" lon="5.43014">
        <ele>211.30347</ele>
        <time>2019-06-19 11:04:29,876</time>
      </trkpt>
      <trkpt lat="43.21511" lon="5.43015">
        <ele>211.05774</ele>
        <time>2019-06-19 11:04:30,883</time>
      </trkpt>
      <trkpt lat="43.21511" lon="5.43016">
        <ele>230.95685</ele>
        <time>2019-06-19 11:04:31,879</time>
      </trkpt>
      <trkpt lat="43.21511" lon="5.43018">
        <ele>213.78918</ele>
        <time>2019-06-19 11:04:39,875</time>
      </trkpt>
      <trkpt lat="43.21507" lon="5.43029">
        <ele>211.59473</ele>
        <time>2019-06-19 11:04:48,876</time>
      </trkpt>
      <trkpt lat="43.21508" lon="5.43029">
        <ele>212.01404</ele>
        <time>2019-06-19 11:05:00,875</time>
      </trkpt>
      <trkpt lat="43.21509" lon="5.43032">
        <ele>210.9231</ele>
        <time>2019-06-19 11:05:06,060</time>
      </trkpt>
      <trkpt lat="43.21504" lon="5.43033">
        <ele>208.43066</ele>
        <time>2019-06-19 11:05:07,874</time>
      </trkpt>
      <trkpt lat="43.21502" lon="5.43034">
        <ele>208.6919</ele>
        <time>2019-06-19 11:05:09,042</time>
      </trkpt>
      <trkpt lat="43.21502" lon="5.43035">
        <ele>209.34607</ele>
        <time>2019-06-19 11:05:10,874</time>
      </trkpt>
      <trkpt lat="43.21501" lon="5.43036">
        <ele>208.21033</ele>
        <time>2019-06-19 11:05:13,874</time>
      </trkpt>
      <trkpt lat="43.21501" lon="5.43036">
        <ele>209.41199</ele>
        <time>2019-06-19 11:05:15,023</time>
      </trkpt>
      <trkpt lat="43.215" lon="5.43037">
        <ele>209.17957</ele>
        <time>2019-06-19 11:05:18,882</time>
      </trkpt>
      <trkpt lat="43.21499" lon="5.43037">
        <ele>207.72736</ele>
        <time>2019-06-19 11:05:20,882</time>
      </trkpt>
      <trkpt lat="43.21498" lon="5.43037">
        <ele>208.91357</ele>
        <time>2019-06-19 11:05:21,892</time>
      </trkpt>
      <trkpt lat="43.21499" lon="5.43037">
        <ele>209.1543</ele>
        <time>2019-06-19 11:05:23,883</time>
      </trkpt>
      <trkpt lat="43.21499" lon="5.43037">
        <ele>209.37878</ele>
        <time>2019-06-19 11:05:25,080</time>
      </trkpt>
      <trkpt lat="43.21499" lon="5.43038">
        <ele>209.91113</ele>
        <time>2019-06-19 11:05:26,872</time>
      </trkpt>
      <trkpt lat="43.21498" lon="5.43038">
        <ele>209.87592</ele>
        <time>2019-06-19 11:05:30,137</time>
      </trkpt>
      <trkpt lat="43.21498" lon="5.43038">
        <ele>276.4084</ele>
        <time>2019-06-19 11:05:31,881</time>
      </trkpt>
      <trkpt lat="43.215" lon="5.43043">
        <ele>217.97919</ele>
        <time>2019-06-19 11:05:42,906</time>
      </trkpt>
      <trkpt lat="43.215" lon="5.43044">
        <ele>217.56903</ele>
        <time>2019-06-19 11:05:43,878</time>
      </trkpt>
      <trkpt lat="43.21499" lon="5.43048">
        <ele>207.31177</ele>
        <time>2019-06-19 11:06:03,137</time>
      </trkpt>
      <trkpt lat="43.215" lon="5.43048">
        <ele>206.13763</ele>
        <time>2019-06-19 11:06:07,138</time>
      </trkpt>
      <trkpt lat="43.215" lon="5.43048">
        <ele>206.21863</ele>
        <time>2019-06-19 11:06:08,137</time>
      </trkpt>
      <trkpt lat="43.21502" lon="5.4305">
        <ele>203.83844</ele>
        <time>2019-06-19 11:06:28,852</time>
      </trkpt>
      <trkpt lat="43.21503" lon="5.4305">
        <ele>204.98706</ele>
        <time>2019-06-19 11:06:30,852</time>
      </trkpt>
      <trkpt lat="43.21503" lon="5.4305">
        <ele>205.27844</ele>
        <time>2019-06-19 11:06:31,849</time>
      </trkpt>
      <trkpt lat="43.21505" lon="5.43048">
        <ele>204.29968</ele>
        <time>2019-06-19 11:06:41,073</time>
      </trkpt>
      <trkpt lat="43.21505" lon="5.43048">
        <ele>205.01605</ele>
        <time>2019-06-19 11:06:42,058</time>
      </trkpt>
      <trkpt lat="43.21506" lon="5.43048">
        <ele>205.96704</ele>
        <time>2019-06-19 11:06:43,053</time>
      </trkpt>
      <trkpt lat="43.21511" lon="5.43049">
        <ele>203.73608</ele>
        <time>2019-06-19 11:06:48,043</time>
      </trkpt>
      <trkpt lat="43.21514" lon="5.43047">
        <ele>204.39337</ele>
        <time>2019-06-19 11:07:04,049</time>
      </trkpt>
      <trkpt lat="43.21515" lon="5.43047">
        <ele>200.47852</ele>
        <time>2019-06-19 11:07:09,041</time>
      </trkpt>
      <trkpt lat="43.21515" lon="5.43047">
        <ele>197.5127</ele>
        <time>2019-06-19 11:07:16,049</time>
      </trkpt>
      <trkpt lat="43.21518" lon="5.4305">
        <ele>199.97662</ele>
        <time>2019-06-19 11:07:19,050</time>
      </trkpt>
      <trkpt lat="43.2152" lon="5.4305">
        <ele>201.65198</ele>
        <time>2019-06-19 11:07:20,053</time>
      </trkpt>
      <trkpt lat="43.21523" lon="5.43051">
        <ele>201.11377</ele>
        <time>2019-06-19 11:07:22,049</time>
      </trkpt>
      <trkpt lat="43.21524" lon="5.43051">
        <ele>200.1969</ele>
        <time>2019-06-19 11:07:23,065</time>
      </trkpt>
      <trkpt lat="43.21525" lon="5.43051">
        <ele>199.49286</ele>
        <time>2019-06-19 11:07:24,043</time>
      </trkpt>
      <trkpt lat="43.21526" lon="5.43052">
        <ele>195.46063</ele>
        <time>2019-06-19 11:07:44,938</time>
      </trkpt>
      <trkpt lat="43.21526" lon="5.43052">
        <ele>192.72974</ele>
        <time>2019-06-19 11:07:53,949</time>
      </trkpt>
      <trkpt lat="43.21526" lon="5.43052">
        <ele>192.33398</ele>
        <time>2019-06-19 11:07:55,030</time>
      </trkpt>
      <trkpt lat="43.21525" lon="5.43052">
        <ele>189.14551</ele>
        <time>2019-06-19 11:07:55,941</time>
      </trkpt>
      <trkpt lat="43.21525" lon="5.43052">
        <ele>186.2381</ele>
        <time>2019-06-19 11:07:56,945</time>
      </trkpt>
      <trkpt lat="43.21525" lon="5.43053">
        <ele>187.64368</ele>
        <time>2019-06-19 11:07:57,944</time>
      </trkpt>
      <trkpt lat="43.21525" lon="5.43053">
        <ele>188.14954</ele>
        <time>2019-06-19 11:07:58,999</time>
      </trkpt>
      <trkpt lat="43.21525" lon="5.43054">
        <ele>186.62909</ele>
        <time>2019-06-19 11:08:01,070</time>
      </trkpt>
      <trkpt lat="43.21525" lon="5.43053">
        <ele>186.02081</ele>
        <time>2019-06-19 11:08:04,938</time>
      </trkpt>
      <trkpt lat="43.21526" lon="5.43053">
        <ele>186.47296</ele>
        <time>2019-06-19 11:08:06,113</time>
      </trkpt>
      <trkpt lat="43.21527" lon="5.43055">
        <ele>187.44446</ele>
        <time>2019-06-19 11:08:07,946</time>
      </trkpt>
      <trkpt lat="43.21528" lon="5.43056">
        <ele>187.82861</ele>
        <time>2019-06-19 11:08:09,115</time>
      </trkpt>
      <trkpt lat="43.2153" lon="5.43058">
        <ele>191.02222</ele>
        <time>2019-06-19 11:08:10,933</time>
      </trkpt>
      <trkpt lat="43.21533" lon="5.43059">
        <ele>186.62909</ele>
        <time>2019-06-19 11:08:13,944</time>
      </trkpt>
      <trkpt lat="43.21534" lon="5.4306">
        <ele>195.54468</ele>
        <time>2019-06-19 11:08:18,951</time>
      </trkpt>
      <trkpt lat="43.21535" lon="5.43061">
        <ele>195.27142</ele>
        <time>2019-06-19 11:08:19,946</time>
      </trkpt>
      <trkpt lat="43.21535" lon="5.43062">
        <ele>195.26367</ele>
        <time>2019-06-19 11:08:20,936</time>
      </trkpt>
      <trkpt lat="43.21535" lon="5.43063">
        <ele>194.80182</ele>
        <time>2019-06-19 11:08:21,939</time>
      </trkpt>
      <trkpt lat="43.2154" lon="5.43074">
        <ele>196.1842</ele>
        <time>2019-06-19 11:08:33,937</time>
      </trkpt>
      <trkpt lat="43.21541" lon="5.43076">
        <ele>196.12653</ele>
        <time>2019-06-19 11:08:34,935</time>
      </trkpt>
      <trkpt lat="43.21541" lon="5.43077">
        <ele>196.91327</ele>
        <time>2019-06-19 11:08:35,931</time>
      </trkpt>
      <trkpt lat="43.21543" lon="5.43089">
        <ele>194.1065</ele>
        <time>2019-06-19 11:08:55,942</time>
      </trkpt>
      <trkpt lat="43.21543" lon="5.43089">
        <ele>194.15894</ele>
        <time>2019-06-19 11:08:58,942</time>
      </trkpt>
      <trkpt lat="43.21543" lon="5.43089">
        <ele>195.16296</ele>
        <time>2019-06-19 11:08:59,934</time>
      </trkpt>
      <trkpt lat="43.21543" lon="5.43087">
        <ele>194.93042</ele>
        <time>2019-06-19 11:09:19,932</time>
      </trkpt>
      <trkpt lat="43.21543" lon="5.43087">
        <ele>195.1159</ele>
        <time>2019-06-19 11:09:21,954</time>
      </trkpt>
      <trkpt lat="43.21543" lon="5.43089">
        <ele>196.08276</ele>
        <time>2019-06-19 11:09:23,925</time>
      </trkpt>
      <trkpt lat="43.21544" lon="5.4309">
        <ele>193.13141</ele>
        <time>2019-06-19 11:09:24,937</time>
      </trkpt>
      <trkpt lat="43.21545" lon="5.43093">
        <ele>192.99683</ele>
        <time>2019-06-19 11:09:27,937</time>
      </trkpt>
      <trkpt lat="43.21544" lon="5.43096">
        <ele>192.28357</ele>
        <time>2019-06-19 11:09:36,960</time>
      </trkpt>
      <trkpt lat="43.21544" lon="5.43098">
        <ele>191.11334</ele>
        <time>2019-06-19 11:09:37,951</time>
      </trkpt>
      <trkpt lat="43.21544" lon="5.43102">
        <ele>192.27307</ele>
        <time>2019-06-19 11:09:41,938</time>
      </trkpt>
      <trkpt lat="43.21543" lon="5.43103">
        <ele>193.0238</ele>
        <time>2019-06-19 11:09:42,939</time>
      </trkpt>
      <trkpt lat="43.21544" lon="5.43103">
        <ele>190.94513</ele>
        <time>2019-06-19 11:09:43,942</time>
      </trkpt>
      <trkpt lat="43.21544" lon="5.43104">
        <ele>191.70312</ele>
        <time>2019-06-19 11:09:44,947</time>
      </trkpt>
      <trkpt lat="43.21544" lon="5.43106">
        <ele>191.59021</ele>
        <time>2019-06-19 11:09:51,967</time>
      </trkpt>
      <trkpt lat="43.21543" lon="5.43107">
        <ele>192.9878</ele>
        <time>2019-06-19 11:09:52,939</time>
      </trkpt>
      <trkpt lat="43.21543" lon="5.43106">
        <ele>194.09406</ele>
        <time>2019-06-19 11:09:53,940</time>
      </trkpt>
      <trkpt lat="43.21543" lon="5.43109">
        <ele>192.92792</ele>
        <time>2019-06-19 11:10:04,941</time>
      </trkpt>
      <trkpt lat="43.21544" lon="5.43111">
        <ele>193.24335</ele>
        <time>2019-06-19 11:10:05,947</time>
      </trkpt>
      <trkpt lat="43.21545" lon="5.43112">
        <ele>193.9226</ele>
        <time>2019-06-19 11:10:06,936</time>
      </trkpt>
      <trkpt lat="43.21545" lon="5.43115">
        <ele>191.01129</ele>
        <time>2019-06-19 11:10:07,966</time>
      </trkpt>
      <trkpt lat="43.21545" lon="5.43116">
        <ele>194.75012</ele>
        <time>2019-06-19 11:10:08,945</time>
      </trkpt>
      <trkpt lat="43.21545" lon="5.43118">
        <ele>190.00238</ele>
        <time>2019-06-19 11:10:09,939</time>
      </trkpt>
      <trkpt lat="43.21544" lon="5.43119">
        <ele>189.22638</ele>
        <time>2019-06-19 11:10:10,935</time>
      </trkpt>
      <trkpt lat="43.21544" lon="5.4312">
        <ele>188.34045</ele>
        <time>2019-06-19 11:10:11,950</time>
      </trkpt>
      <trkpt lat="43.21544" lon="5.43122">
        <ele>187.84418</ele>
        <time>2019-06-19 11:10:12,940</time>
      </trkpt>
      <trkpt lat="43.21545" lon="5.43132">
        <ele>187.24359</ele>
        <time>2019-06-19 11:10:17,567</time>
      </trkpt>
      <trkpt lat="43.21545" lon="5.43134">
        <ele>187.83203</ele>
        <time>2019-06-19 11:10:19,937</time>
      </trkpt>
      <trkpt lat="43.21547" lon="5.43139">
        <ele>187.90845</ele>
        <time>2019-06-19 11:10:25,942</time>
      </trkpt>
      <trkpt lat="43.21547" lon="5.4314">
        <ele>187.8153</ele>
        <time>2019-06-19 11:10:27,943</time>
      </trkpt>
      <trkpt lat="43.21548" lon="5.43142">
        <ele>188.83514</ele>
        <time>2019-06-19 11:10:29,945</time>
      </trkpt>
      <trkpt lat="43.21548" lon="5.43143">
        <ele>189.23138</ele>
        <time>2019-06-19 11:10:30,993</time>
      </trkpt>
      <trkpt lat="43.21548" lon="5.43143">
        <ele>189.95508</ele>
        <time>2019-06-19 11:10:31,945</time>
      </trkpt>
      <trkpt lat="43.21547" lon="5.43144">
        <ele>190.0423</ele>
        <time>2019-06-19 11:10:35,936</time>
      </trkpt>
      <trkpt lat="43.21547" lon="5.43146">
        <ele>190.97437</ele>
        <time>2019-06-19 11:10:37,076</time>
      </trkpt>
      <trkpt lat="43.21547" lon="5.43151">
        <ele>188.83514</ele>
        <time>2019-06-19 11:10:40,942</time>
      </trkpt>
      <trkpt lat="43.21547" lon="5.43153">
        <ele>205.04572</ele>
        <time>2019-06-19 11:10:41,933</time>
      </trkpt>
      <trkpt lat="43.21547" lon="5.43156">
        <ele>200.6175</ele>
        <time>2019-06-19 11:10:44,958</time>
      </trkpt>
      <trkpt lat="43.21547" lon="5.43157">
        <ele>200.0752</ele>
        <time>2019-06-19 11:10:46,022</time>
      </trkpt>
      <trkpt lat="43.21547" lon="5.43159">
        <ele>196.78119</ele>
        <time>2019-06-19 11:10:49,978</time>
      </trkpt>
      <trkpt lat="43.21548" lon="5.43165">
        <ele>193.01819</ele>
        <time>2019-06-19 11:10:54,941</time>
      </trkpt>
      <trkpt lat="43.21548" lon="5.43171">
        <ele>206.82318</ele>
        <time>2019-06-19 11:10:59,947</time>
      </trkpt>
      <trkpt lat="43.21548" lon="5.43172">
        <ele>202.02856</ele>
        <time>2019-06-19 11:11:00,938</time>
      </trkpt>
      <trkpt lat="43.21548" lon="5.43173">
        <ele>199.177</ele>
        <time>2019-06-19 11:11:01,944</time>
      </trkpt>
      <trkpt lat="43.21547" lon="5.43177">
        <ele>197.57068</ele>
        <time>2019-06-19 11:11:05,933</time>
      </trkpt>
      <trkpt lat="43.21549" lon="5.43176">
        <ele>192.06256</ele>
        <time>2019-06-19 11:11:25,931</time>
      </trkpt>
      <trkpt lat="43.21548" lon="5.43176">
        <ele>191.54584</ele>
        <time>2019-06-19 11:11:31,954</time>
      </trkpt>
      <trkpt lat="43.21548" lon="5.43177">
        <ele>190.83472</ele>
        <time>2019-06-19 11:11:32,956</time>
      </trkpt>
      <trkpt lat="43.21548" lon="5.43177">
        <ele>192.99335</ele>
        <time>2019-06-19 11:11:41,934</time>
      </trkpt>
      <trkpt lat="43.21548" lon="5.43178">
        <ele>194.22876</ele>
        <time>2019-06-19 11:11:42,934</time>
      </trkpt>
      <trkpt lat="43.21548" lon="5.43179">
        <ele>194.20062</ele>
        <time>2019-06-19 11:11:43,938</time>
      </trkpt>
      <trkpt lat="43.21547" lon="5.43179">
        <ele>194.49164</ele>
        <time>2019-06-19 11:11:44,936</time>
      </trkpt>
      <trkpt lat="43.21547" lon="5.4318">
        <ele>193.91296</ele>
        <time>2019-06-19 11:11:45,936</time>
      </trkpt>
      <trkpt lat="43.21547" lon="5.43182">
        <ele>193.24121</ele>
        <time>2019-06-19 11:11:46,934</time>
      </trkpt>
      <trkpt lat="43.21548" lon="5.43183">
        <ele>193.63367</ele>
        <time>2019-06-19 11:11:47,937</time>
      </trkpt>
      <trkpt lat="43.21549" lon="5.43184">
        <ele>193.04968</ele>
        <time>2019-06-19 11:11:48,933</time>
      </trkpt>
      <trkpt lat="43.2155" lon="5.43185">
        <ele>194.56506</ele>
        <time>2019-06-19 11:11:49,932</time>
      </trkpt>
      <trkpt lat="43.2155" lon="5.43186">
        <ele>192.99335</ele>
        <time>2019-06-19 11:11:50,931</time>
      </trkpt>
      <trkpt lat="43.21551" lon="5.43187">
        <ele>194.65015</ele>
        <time>2019-06-19 11:11:58,928</time>
      </trkpt>
      <trkpt lat="43.21551" lon="5.43187">
        <ele>193.79364</ele>
        <time>2019-06-19 11:11:59,938</time>
      </trkpt>
      <trkpt lat="43.21549" lon="5.43187">
        <ele>194.8299</ele>
        <time>2019-06-19 11:12:19,943</time>
      </trkpt>
      <trkpt lat="43.2155" lon="5.43187">
        <ele>194.71484</ele>
        <time>2019-06-19 11:12:40,003</time>
      </trkpt>
      <trkpt lat="43.2155" lon="5.43187">
        <ele>194.49017</ele>
        <time>2019-06-19 11:13:00,986</time>
      </trkpt>
      <trkpt lat="43.2155" lon="5.43187">
        <ele>194.98096</ele>
        <time>2019-06-19 11:13:18,028</time>
      </trkpt>
      <trkpt lat="43.21549" lon="5.43187">
        <ele>193.89435</ele>
        <time>2019-06-19 11:13:18,937</time>
      </trkpt>
      <trkpt lat="43.21549" lon="5.43187">
        <ele>194.65747</ele>
        <time>2019-06-19 11:13:19,935</time>
      </trkpt>
      <trkpt lat="43.21549" lon="5.43187">
        <ele>194.13171</ele>
        <time>2019-06-19 11:13:21,031</time>
      </trkpt>
      <trkpt lat="43.2155" lon="5.43187">
        <ele>192.79523</ele>
        <time>2019-06-19 11:13:21,951</time>
      </trkpt>
      <trkpt lat="43.21556" lon="5.43187">
        <ele>223.33679</ele>
        <time>2019-06-19 11:13:38,932</time>
      </trkpt>
      <trkpt lat="43.21556" lon="5.43188">
        <ele>216.41516</ele>
        <time>2019-06-19 11:13:40,056</time>
      </trkpt>
      <trkpt lat="43.21556" lon="5.43187">
        <ele>207.6394</ele>
        <time>2019-06-19 11:13:40,954</time>
      </trkpt>
      <trkpt lat="43.21557" lon="5.43187">
        <ele>204.72455</ele>
        <time>2019-06-19 11:13:41,938</time>
      </trkpt>
      <trkpt lat="43.21558" lon="5.43187">
        <ele>217.26892</ele>
        <time>2019-06-19 11:13:47,943</time>
      </trkpt>
      <trkpt lat="43.21558" lon="5.43187">
        <ele>216.89624</ele>
        <time>2019-06-19 11:13:48,937</time>
      </trkpt>
      <trkpt lat="43.21558" lon="5.43188">
        <ele>211.97339</ele>
        <time>2019-06-19 11:13:49,939</time>
      </trkpt>
      <trkpt lat="43.21558" lon="5.43188">
        <ele>207.42188</ele>
        <time>2019-06-19 11:13:50,950</time>
      </trkpt>
      <trkpt lat="43.21558" lon="5.43189">
        <ele>198.88739</ele>
        <time>2019-06-19 11:13:52,939</time>
      </trkpt>
      <trkpt lat="43.21558" lon="5.43189">
        <ele>197.50586</ele>
        <time>2019-06-19 11:13:53,940</time>
      </trkpt>
      <trkpt lat="43.21559" lon="5.43189">
        <ele>196.04321</ele>
        <time>2019-06-19 11:13:54,961</time>
      </trkpt>
      <trkpt lat="43.21562" lon="5.4319">
        <ele>189.25208</ele>
        <time>2019-06-19 11:13:59,940</time>
      </trkpt>
      <trkpt lat="43.21562" lon="5.43191">
        <ele>188.18256</ele>
        <time>2019-06-19 11:14:00,936</time>
      </trkpt>
      <trkpt lat="43.21564" lon="5.43192">
        <ele>205.97772</ele>
        <time>2019-06-19 11:14:02,931</time>
      </trkpt>
      <trkpt lat="43.21564" lon="5.43192">
        <ele>201.6529</ele>
        <time>2019-06-19 11:14:03,935</time>
      </trkpt>
      <trkpt lat="43.21564" lon="5.43193">
        <ele>194.5874</ele>
        <time>2019-06-19 11:14:05,932</time>
      </trkpt>
      <trkpt lat="43.21565" lon="5.43193">
        <ele>192.2041</ele>
        <time>2019-06-19 11:14:06,932</time>
      </trkpt>
      <trkpt lat="43.21565" lon="5.43196">
        <ele>188.6134</ele>
        <time>2019-06-19 11:14:08,944</time>
      </trkpt>
      <trkpt lat="43.21566" lon="5.43197">
        <ele>187.65704</ele>
        <time>2019-06-19 11:14:11,934</time>
      </trkpt>
      <trkpt lat="43.21566" lon="5.43198">
        <ele>184.90851</ele>
        <time>2019-06-19 11:14:13,939</time>
      </trkpt>
      <trkpt lat="43.21567" lon="5.43199">
        <ele>183.7041</ele>
        <time>2019-06-19 11:14:14,935</time>
      </trkpt>
      <trkpt lat="43.21572" lon="5.43205">
        <ele>180.63818</ele>
        <time>2019-06-19 11:14:23,932</time>
      </trkpt>
      <trkpt lat="43.21573" lon="5.43205">
        <ele>183.7489</ele>
        <time>2019-06-19 11:14:24,934</time>
      </trkpt>
      <trkpt lat="43.21575" lon="5.43205">
        <ele>178.3706</ele>
        <time>2019-06-19 11:14:25,926</time>
      </trkpt>
      <trkpt lat="43.21576" lon="5.43206">
        <ele>178.77747</ele>
        <time>2019-06-19 11:14:35,941</time>
      </trkpt>
      <trkpt lat="43.21576" lon="5.43204">
        <ele>179.95892</ele>
        <time>2019-06-19 11:14:38,936</time>
      </trkpt>
      <trkpt lat="43.21576" lon="5.43203">
        <ele>179.44171</ele>
        <time>2019-06-19 11:14:39,936</time>
      </trkpt>
      <trkpt lat="43.21577" lon="5.43202">
        <ele>219.68994</ele>
        <time>2019-06-19 11:14:41,938</time>
      </trkpt>
      <trkpt lat="43.21576" lon="5.43199">
        <ele>192.28198</ele>
        <time>2019-06-19 11:14:46,063</time>
      </trkpt>
      <trkpt lat="43.21576" lon="5.43198">
        <ele>188.09875</ele>
        <time>2019-06-19 11:14:48,081</time>
      </trkpt>
      <trkpt lat="43.21574" lon="5.43199">
        <ele>181.318</ele>
        <time>2019-06-19 11:14:53,068</time>
      </trkpt>
      <trkpt lat="43.21572" lon="5.43199">
        <ele>181.35065</ele>
        <time>2019-06-19 11:14:54,060</time>
      </trkpt>
      <trkpt lat="43.21571" lon="5.43198">
        <ele>181.15991</ele>
        <time>2019-06-19 11:14:56,117</time>
      </trkpt>
      <trkpt lat="43.21571" lon="5.43197">
        <ele>180.50348</ele>
        <time>2019-06-19 11:14:58,071</time>
      </trkpt>
      <trkpt lat="43.21571" lon="5.43197">
        <ele>179.4403</ele>
        <time>2019-06-19 11:14:59,101</time>
      </trkpt>
      <trkpt lat="43.2157" lon="5.43195">
        <ele>179.37299</ele>
        <time>2019-06-19 11:15:01,081</time>
      </trkpt>
      <trkpt lat="43.2157" lon="5.43194">
        <ele>177.9762</ele>
        <time>2019-06-19 11:15:02,067</time>
      </trkpt>
      <trkpt lat="43.21571" lon="5.43193">
        <ele>179.01752</ele>
        <time>2019-06-19 11:15:03,070</time>
      </trkpt>
      <trkpt lat="43.21572" lon="5.43193">
        <ele>178.62708</ele>
        <time>2019-06-19 11:15:08,065</time>
      </trkpt>
      <trkpt lat="43.21571" lon="5.43192">
        <ele>178.15295</ele>
        <time>2019-06-19 11:15:09,061</time>
      </trkpt>
      <trkpt lat="43.21571" lon="5.43191">
        <ele>179.2456</ele>
        <time>2019-06-19 11:15:10,056</time>
      </trkpt>
      <trkpt lat="43.21572" lon="5.43189">
        <ele>179.58704</ele>
        <time>2019-06-19 11:15:12,063</time>
      </trkpt>
      <trkpt lat="43.21573" lon="5.4319">
        <ele>179.04639</ele>
        <time>2019-06-19 11:15:13,064</time>
      </trkpt>
      <trkpt lat="43.21573" lon="5.43189">
        <ele>178.8175</ele>
        <time>2019-06-19 11:15:17,072</time>
      </trkpt>
      <trkpt lat="43.21573" lon="5.43186">
        <ele>179.36902</ele>
        <time>2019-06-19 11:15:19,068</time>
      </trkpt>
      <trkpt lat="43.21573" lon="5.43184">
        <ele>175.23987</ele>
        <time>2019-06-19 11:15:21,057</time>
      </trkpt>
      <trkpt lat="43.21571" lon="5.43175">
        <ele>172.32959</ele>
        <time>2019-06-19 11:15:28,071</time>
      </trkpt>
      <trkpt lat="43.21571" lon="5.43174">
        <ele>171.19653</ele>
        <time>2019-06-19 11:15:29,071</time>
      </trkpt>
      <trkpt lat="43.21571" lon="5.43173">
        <ele>171.40576</ele>
        <time>2019-06-19 11:15:30,080</time>
      </trkpt>
      <trkpt lat="43.2157" lon="5.43171">
        <ele>171.3761</ele>
        <time>2019-06-19 11:15:31,071</time>
      </trkpt>
      <trkpt lat="43.2157" lon="5.43171">
        <ele>171.66663</ele>
        <time>2019-06-19 11:15:32,064</time>
      </trkpt>
      <trkpt lat="43.21571" lon="5.43169">
        <ele>170.50714</ele>
        <time>2019-06-19 11:15:39,066</time>
      </trkpt>
      <trkpt lat="43.21572" lon="5.43162">
        <ele>172.45825</ele>
        <time>2019-06-19 11:15:46,071</time>
      </trkpt>
      <trkpt lat="43.21573" lon="5.43161">
        <ele>172.15698</ele>
        <time>2019-06-19 11:15:48,082</time>
      </trkpt>
      <trkpt lat="43.21573" lon="5.43161">
        <ele>173.0849</ele>
        <time>2019-06-19 11:15:49,059</time>
      </trkpt>
      <trkpt lat="43.21573" lon="5.43159">
        <ele>228.22992</ele>
        <time>2019-06-19 11:15:58,069</time>
      </trkpt>
      <trkpt lat="43.21573" lon="5.43158">
        <ele>210.16138</ele>
        <time>2019-06-19 11:15:59,064</time>
      </trkpt>
      <trkpt lat="43.21572" lon="5.43157">
        <ele>202.4607</ele>
        <time>2019-06-19 11:16:00,065</time>
      </trkpt>
      <trkpt lat="43.21572" lon="5.43155">
        <ele>186.83289</ele>
        <time>2019-06-19 11:16:03,069</time>
      </trkpt>
      <trkpt lat="43.21572" lon="5.43152">
        <ele>181.93982</ele>
        <time>2019-06-19 11:16:06,110</time>
      </trkpt>
      <trkpt lat="43.21573" lon="5.43151">
        <ele>180.59985</ele>
        <time>2019-06-19 11:16:08,069</time>
      </trkpt>
      <trkpt lat="43.21573" lon="5.4315">
        <ele>180.7539</ele>
        <time>2019-06-19 11:16:09,065</time>
      </trkpt>
      <trkpt lat="43.21572" lon="5.43149">
        <ele>180.28473</ele>
        <time>2019-06-19 11:16:11,062</time>
      </trkpt>
      <trkpt lat="43.21572" lon="5.43148">
        <ele>179.07684</ele>
        <time>2019-06-19 11:16:12,074</time>
      </trkpt>
      <trkpt lat="43.21572" lon="5.43145">
        <ele>171.83557</ele>
        <time>2019-06-19 11:16:16,076</time>
      </trkpt>
      <trkpt lat="43.21572" lon="5.43143">
        <ele>171.26642</ele>
        <time>2019-06-19 11:16:17,072</time>
      </trkpt>
      <trkpt lat="43.21574" lon="5.43142">
        <ele>169.19507</ele>
        <time>2019-06-19 11:16:20,066</time>
      </trkpt>
      <trkpt lat="43.21573" lon="5.4314">
        <ele>165.8418</ele>
        <time>2019-06-19 11:16:27,088</time>
      </trkpt>
      <trkpt lat="43.21569" lon="5.43137">
        <ele>164.46704</ele>
        <time>2019-06-19 11:16:47,068</time>
      </trkpt>
      <trkpt lat="43.21579" lon="5.43139">
        <ele>161.15845</ele>
        <time>2019-06-19 11:17:10,070</time>
      </trkpt>
      <trkpt lat="43.21582" lon="5.43143">
        <ele>156.95374</ele>
        <time>2019-06-19 11:17:16,068</time>
      </trkpt>
      <trkpt lat="43.21582" lon="5.43144">
        <ele>156.06567</ele>
        <time>2019-06-19 11:17:17,075</time>
      </trkpt>
      <trkpt lat="43.21583" lon="5.43145">
        <ele>154.39868</ele>
        <time>2019-06-19 11:17:18,063</time>
      </trkpt>
      <trkpt lat="43.21583" lon="5.43146">
        <ele>153.59955</ele>
        <time>2019-06-19 11:17:20,063</time>
      </trkpt>
      <trkpt lat="43.21584" lon="5.43147">
        <ele>153.84601</ele>
        <time>2019-06-19 11:17:22,222</time>
      </trkpt>
      <trkpt lat="43.21587" lon="5.43148">
        <ele>154.94385</ele>
        <time>2019-06-19 11:17:24,061</time>
      </trkpt>
      <trkpt lat="43.21588" lon="5.43148">
        <ele>154.92255</ele>
        <time>2019-06-19 11:17:25,061</time>
      </trkpt>
      <trkpt lat="43.21589" lon="5.43149">
        <ele>154.88159</ele>
        <time>2019-06-19 11:17:26,059</time>
      </trkpt>
      <trkpt lat="43.2159" lon="5.43149">
        <ele>153.55621</ele>
        <time>2019-06-19 11:17:29,091</time>
      </trkpt>
      <trkpt lat="43.21591" lon="5.43148">
        <ele>153.74487</ele>
        <time>2019-06-19 11:17:30,345</time>
      </trkpt>
      <trkpt lat="43.21592" lon="5.43147">
        <ele>153.84601</ele>
        <time>2019-06-19 11:17:32,073</time>
      </trkpt>
      <trkpt lat="43.21594" lon="5.43147">
        <ele>155.86865</ele>
        <time>2019-06-19 11:17:36,064</time>
      </trkpt>
      <trkpt lat="43.21595" lon="5.43147">
        <ele>155.92383</ele>
        <time>2019-06-19 11:17:37,058</time>
      </trkpt>
      <trkpt lat="43.21595" lon="5.43148">
        <ele>156.48535</ele>
        <time>2019-06-19 11:17:39,065</time>
      </trkpt>
      <trkpt lat="43.21595" lon="5.43149">
        <ele>154.9314</ele>
        <time>2019-06-19 11:17:40,067</time>
      </trkpt>
      <trkpt lat="43.21595" lon="5.4315">
        <ele>154.85284</ele>
        <time>2019-06-19 11:17:41,056</time>
      </trkpt>
      <trkpt lat="43.21596" lon="5.43151">
        <ele>157.14221</ele>
        <time>2019-06-19 11:17:42,074</time>
      </trkpt>
      <trkpt lat="43.21597" lon="5.43151">
        <ele>156.17035</ele>
        <time>2019-06-19 11:17:43,075</time>
      </trkpt>
      <trkpt lat="43.21597" lon="5.4315">
        <ele>157.01868</ele>
        <time>2019-06-19 11:17:44,068</time>
      </trkpt>
      <trkpt lat="43.21598" lon="5.4315">
        <ele>157.60278</ele>
        <time>2019-06-19 11:17:45,083</time>
      </trkpt>
      <trkpt lat="43.21598" lon="5.43149">
        <ele>153.75513</ele>
        <time>2019-06-19 11:17:46,101</time>
      </trkpt>
      <trkpt lat="43.21599" lon="5.4315">
        <ele>154.08209</ele>
        <time>2019-06-19 11:17:47,070</time>
      </trkpt>
      <trkpt lat="43.21599" lon="5.43151">
        <ele>152.80951</ele>
        <time>2019-06-19 11:17:48,076</time>
      </trkpt>
      <trkpt lat="43.21599" lon="5.43151">
        <ele>152.11719</ele>
        <time>2019-06-19 11:17:49,060</time>
      </trkpt>
      <trkpt lat="43.21599" lon="5.43151">
        <ele>152.72644</ele>
        <time>2019-06-19 11:17:50,098</time>
      </trkpt>
      <trkpt lat="43.21599" lon="5.43151">
        <ele>151.63</ele>
        <time>2019-06-19 11:17:51,062</time>
      </trkpt>
      <trkpt lat="43.216" lon="5.4315">
        <ele>152.35669</ele>
        <time>2019-06-19 11:17:52,068</time>
      </trkpt>
      <trkpt lat="43.216" lon="5.4315">
        <ele>151.19604</ele>
        <time>2019-06-19 11:17:53,076</time>
      </trkpt>
      <trkpt lat="43.216" lon="5.43151">
        <ele>151.25128</ele>
        <time>2019-06-19 11:17:54,077</time>
      </trkpt>
      <trkpt lat="43.216" lon="5.43152">
        <ele>150.42859</ele>
        <time>2019-06-19 11:17:55,058</time>
      </trkpt>
      <trkpt lat="43.21599" lon="5.43152">
        <ele>148.06848</ele>
        <time>2019-06-19 11:17:56,061</time>
      </trkpt>
      <trkpt lat="43.21599" lon="5.43153">
        <ele>189.87</ele>
        <time>2019-06-19 11:17:57,070</time>
      </trkpt>
      <trkpt lat="43.21599" lon="5.43154">
        <ele>180.52667</ele>
        <time>2019-06-19 11:17:58,063</time>
      </trkpt>
      <trkpt lat="43.216" lon="5.43156">
        <ele>167.38184</ele>
        <time>2019-06-19 11:18:01,060</time>
      </trkpt>
      <trkpt lat="43.21601" lon="5.43156">
        <ele>164.64655</ele>
        <time>2019-06-19 11:18:02,060</time>
      </trkpt>
      <trkpt lat="43.21601" lon="5.43157">
        <ele>150.94023</ele>
        <time>2019-06-19 11:18:03,066</time>
      </trkpt>
      <trkpt lat="43.21602" lon="5.43157">
        <ele>158.67474</ele>
        <time>2019-06-19 11:18:05,056</time>
      </trkpt>
      <trkpt lat="43.21603" lon="5.43157">
        <ele>156.94781</ele>
        <time>2019-06-19 11:18:06,067</time>
      </trkpt>
      <trkpt lat="43.21606" lon="5.43157">
        <ele>155.77429</ele>
        <time>2019-06-19 11:18:09,060</time>
      </trkpt>
      <trkpt lat="43.21606" lon="5.43157">
        <ele>156.32123</ele>
        <time>2019-06-19 11:18:10,054</time>
      </trkpt>
      <trkpt lat="43.21607" lon="5.43158">
        <ele>155.5268</ele>
        <time>2019-06-19 11:18:11,069</time>
      </trkpt>
      <trkpt lat="43.21608" lon="5.43159">
        <ele>153.21063</ele>
        <time>2019-06-19 11:18:15,058</time>
      </trkpt>
      <trkpt lat="43.21609" lon="5.4316">
        <ele>153.20068</ele>
        <time>2019-06-19 11:18:16,065</time>
      </trkpt>
      <trkpt lat="43.21609" lon="5.43162">
        <ele>170.93457</ele>
        <time>2019-06-19 11:18:36,071</time>
      </trkpt>
      <trkpt lat="43.21609" lon="5.43163">
        <ele>152.25671</ele>
        <time>2019-06-19 11:18:52,081</time>
      </trkpt>
      <trkpt lat="43.21609" lon="5.43165">
        <ele>151.06879</ele>
        <time>2019-06-19 11:18:53,063</time>
      </trkpt>
      <trkpt lat="43.21609" lon="5.43166">
        <ele>151.21155</ele>
        <time>2019-06-19 11:18:54,063</time>
      </trkpt>
      <trkpt lat="43.21609" lon="5.43167">
        <ele>151.97864</ele>
        <time>2019-06-19 11:18:55,060</time>
      </trkpt>
      <trkpt lat="43.2161" lon="5.43169">
        <ele>151.59717</ele>
        <time>2019-06-19 11:18:59,082</time>
      </trkpt>
      <trkpt lat="43.21611" lon="5.43171">
        <ele>150.33295</ele>
        <time>2019-06-19 11:19:00,079</time>
      </trkpt>
      <trkpt lat="43.21614" lon="5.43173">
        <ele>149.45703</ele>
        <time>2019-06-19 11:19:04,054</time>
      </trkpt>
      <trkpt lat="43.21614" lon="5.43174">
        <ele>148.85999</ele>
        <time>2019-06-19 11:19:05,064</time>
      </trkpt>
      <trkpt lat="43.21614" lon="5.43175">
        <ele>147.8761</ele>
        <time>2019-06-19 11:19:06,068</time>
      </trkpt>
      <trkpt lat="43.21615" lon="5.43177">
        <ele>147.57275</ele>
        <time>2019-06-19 11:19:08,075</time>
      </trkpt>
      <trkpt lat="43.21616" lon="5.43177">
        <ele>147.15088</ele>
        <time>2019-06-19 11:19:09,069</time>
      </trkpt>
      <trkpt lat="43.21617" lon="5.4318">
        <ele>148.06213</ele>
        <time>2019-06-19 11:19:17,057</time>
      </trkpt>
      <trkpt lat="43.21617" lon="5.43181">
        <ele>147.86945</ele>
        <time>2019-06-19 11:19:18,066</time>
      </trkpt>
      <trkpt lat="43.21618" lon="5.43182">
        <ele>144.98407</ele>
        <time>2019-06-19 11:19:20,065</time>
      </trkpt>
      <trkpt lat="43.21618" lon="5.43184">
        <ele>143.16663</ele>
        <time>2019-06-19 11:19:22,267</time>
      </trkpt>
      <trkpt lat="43.21619" lon="5.43186">
        <ele>145.07361</ele>
        <time>2019-06-19 11:19:24,061</time>
      </trkpt>
      <trkpt lat="43.21619" lon="5.43187">
        <ele>145.04706</ele>
        <time>2019-06-19 11:19:25,062</time>
      </trkpt>
      <trkpt lat="43.21619" lon="5.43188">
        <ele>144.57538</ele>
        <time>2019-06-19 11:19:26,058</time>
      </trkpt>
      <trkpt lat="43.2162" lon="5.43189">
        <ele>143.10132</ele>
        <time>2019-06-19 11:19:27,060</time>
      </trkpt>
      <trkpt lat="43.21622" lon="5.43191">
        <ele>143.4939</ele>
        <time>2019-06-19 11:19:31,062</time>
      </trkpt>
      <trkpt lat="43.21622" lon="5.43191">
        <ele>143.20923</ele>
        <time>2019-06-19 11:19:32,062</time>
      </trkpt>
      <trkpt lat="43.21623" lon="5.43191">
        <ele>144.19855</ele>
        <time>2019-06-19 11:19:38,062</time>
      </trkpt>
      <trkpt lat="43.21626" lon="5.43196">
        <ele>145.9226</ele>
        <time>2019-06-19 11:19:43,056</time>
      </trkpt>
      <trkpt lat="43.21627" lon="5.43198">
        <ele>234.03375</ele>
        <time>2019-06-19 11:19:46,071</time>
      </trkpt>
      <trkpt lat="43.21627" lon="5.43199">
        <ele>220.17163</ele>
        <time>2019-06-19 11:19:47,065</time>
      </trkpt>
      <trkpt lat="43.21627" lon="5.43199">
        <ele>200.42657</ele>
        <time>2019-06-19 11:19:48,071</time>
      </trkpt>
      <trkpt lat="43.21627" lon="5.432">
        <ele>193.4997</ele>
        <time>2019-06-19 11:19:49,067</time>
      </trkpt>
      <trkpt lat="43.21627" lon="5.43201">
        <ele>176.3197</ele>
        <time>2019-06-19 11:19:51,063</time>
      </trkpt>
      <trkpt lat="43.2163" lon="5.43204">
        <ele>161.29724</ele>
        <time>2019-06-19 11:19:54,078</time>
      </trkpt>
      <trkpt lat="43.21632" lon="5.43205">
        <ele>150.17767</ele>
        <time>2019-06-19 11:19:57,310</time>
      </trkpt>
      <trkpt lat="43.21634" lon="5.43204">
        <ele>142.65466</ele>
        <time>2019-06-19 11:20:02,054</time>
      </trkpt>
      <trkpt lat="43.21633" lon="5.43206">
        <ele>147.91502</ele>
        <time>2019-06-19 11:20:07,061</time>
      </trkpt>
      <trkpt lat="43.21635" lon="5.43207">
        <ele>139.82141</ele>
        <time>2019-06-19 11:20:14,070</time>
      </trkpt>
      <trkpt lat="43.21637" lon="5.43207">
        <ele>141.25488</ele>
        <time>2019-06-19 11:20:16,068</time>
      </trkpt>
      <trkpt lat="43.21638" lon="5.43207">
        <ele>141.06256</ele>
        <time>2019-06-19 11:20:17,069</time>
      </trkpt>
      <trkpt lat="43.2164" lon="5.43207">
        <ele>142.6922</ele>
        <time>2019-06-19 11:20:18,066</time>
      </trkpt>
      <trkpt lat="43.2164" lon="5.43208">
        <ele>137.85657</ele>
        <time>2019-06-19 11:20:31,058</time>
      </trkpt>
      <trkpt lat="43.2164" lon="5.43208">
        <ele>137.42218</ele>
        <time>2019-06-19 11:20:32,055</time>
      </trkpt>
      <trkpt lat="43.21641" lon="5.43209">
        <ele>137.31769</ele>
        <time>2019-06-19 11:20:33,062</time>
      </trkpt>
      <trkpt lat="43.21642" lon="5.4321">
        <ele>135.85718</ele>
        <time>2019-06-19 11:20:34,066</time>
      </trkpt>
      <trkpt lat="43.21645" lon="5.43211">
        <ele>135.06238</ele>
        <time>2019-06-19 11:20:36,062</time>
      </trkpt>
      <trkpt lat="43.21648" lon="5.43212">
        <ele>135.09015</ele>
        <time>2019-06-19 11:20:43,062</time>
      </trkpt>
      <trkpt lat="43.2165" lon="5.43217">
        <ele>133.34601</ele>
        <time>2019-06-19 11:20:49,058</time>
      </trkpt>
      <trkpt lat="43.21651" lon="5.43217">
        <ele>132.854</ele>
        <time>2019-06-19 11:20:50,059</time>
      </trkpt>
      <trkpt lat="43.21652" lon="5.43218">
        <ele>134.70953</ele>
        <time>2019-06-19 11:20:51,057</time>
      </trkpt>
      <trkpt lat="43.21652" lon="5.43219">
        <ele>134.94019</ele>
        <time>2019-06-19 11:20:52,060</time>
      </trkpt>
      <trkpt lat="43.21653" lon="5.4322">
        <ele>136.25818</ele>
        <time>2019-06-19 11:20:53,054</time>
      </trkpt>
      <trkpt lat="43.21655" lon="5.4322">
        <ele>140.3291</ele>
        <time>2019-06-19 11:20:54,063</time>
      </trkpt>
      <trkpt lat="43.21656" lon="5.4322">
        <ele>140.06647</ele>
        <time>2019-06-19 11:20:55,063</time>
      </trkpt>
      <trkpt lat="43.21657" lon="5.43221">
        <ele>140.6665</ele>
        <time>2019-06-19 11:20:56,065</time>
      </trkpt>
      <trkpt lat="43.21659" lon="5.43221">
        <ele>136.17194</ele>
        <time>2019-06-19 11:20:57,063</time>
      </trkpt>
      <trkpt lat="43.21659" lon="5.43221">
        <ele>141.24213</ele>
        <time>2019-06-19 11:20:58,062</time>
      </trkpt>
      <trkpt lat="43.21662" lon="5.43222">
        <ele>141.78772</ele>
        <time>2019-06-19 11:21:01,053</time>
      </trkpt>
      <trkpt lat="43.21664" lon="5.43223">
        <ele>141.51758</ele>
        <time>2019-06-19 11:21:02,064</time>
      </trkpt>
      <trkpt lat="43.21665" lon="5.43223">
        <ele>141.51367</ele>
        <time>2019-06-19 11:21:03,064</time>
      </trkpt>
      <trkpt lat="43.21667" lon="5.43222">
        <ele>140.37659</ele>
        <time>2019-06-19 11:21:04,055</time>
      </trkpt>
      <trkpt lat="43.21671" lon="5.43222">
        <ele>139.22632</ele>
        <time>2019-06-19 11:21:06,070</time>
      </trkpt>
      <trkpt lat="43.21672" lon="5.43223">
        <ele>141.24213</ele>
        <time>2019-06-19 11:21:07,077</time>
      </trkpt>
      <trkpt lat="43.21673" lon="5.43223">
        <ele>137.17719</ele>
        <time>2019-06-19 11:21:08,066</time>
      </trkpt>
      <trkpt lat="43.21674" lon="5.43224">
        <ele>137.66656</ele>
        <time>2019-06-19 11:21:09,065</time>
      </trkpt>
      <trkpt lat="43.21675" lon="5.43225">
        <ele>136.54663</ele>
        <time>2019-06-19 11:21:10,070</time>
      </trkpt>
      <trkpt lat="43.21675" lon="5.43226">
        <ele>136.23047</ele>
        <time>2019-06-19 11:21:11,057</time>
      </trkpt>
      <trkpt lat="43.21676" lon="5.43226">
        <ele>135.39319</ele>
        <time>2019-06-19 11:21:12,080</time>
      </trkpt>
      <trkpt lat="43.21676" lon="5.43227">
        <ele>135.23755</ele>
        <time>2019-06-19 11:21:13,062</time>
      </trkpt>
      <trkpt lat="43.21678" lon="5.43227">
        <ele>134.56506</ele>
        <time>2019-06-19 11:21:15,061</time>
      </trkpt>
      <trkpt lat="43.21681" lon="5.43227">
        <ele>133.4895</ele>
        <time>2019-06-19 11:21:37,057</time>
      </trkpt>
      <trkpt lat="43.21681" lon="5.43228">
        <ele>133.77179</ele>
        <time>2019-06-19 11:21:43,057</time>
      </trkpt>
      <trkpt lat="43.21681" lon="5.43229">
        <ele>132.20233</ele>
        <time>2019-06-19 11:21:44,059</time>
      </trkpt>
      <trkpt lat="43.21682" lon="5.4323">
        <ele>133.44934</ele>
        <time>2019-06-19 11:21:45,057</time>
      </trkpt>
      <trkpt lat="43.21683" lon="5.43231">
        <ele>132.2154</ele>
        <time>2019-06-19 11:21:46,065</time>
      </trkpt>
      <trkpt lat="43.21689" lon="5.43237">
        <ele>129.79706</ele>
        <time>2019-06-19 11:21:56,056</time>
      </trkpt>
      <trkpt lat="43.21691" lon="5.43238">
        <ele>130.57672</ele>
        <time>2019-06-19 11:21:57,301</time>
      </trkpt>
      <trkpt lat="43.21694" lon="5.43239">
        <ele>130.80786</ele>
        <time>2019-06-19 11:21:59,065</time>
      </trkpt>
      <trkpt lat="43.21695" lon="5.4324">
        <ele>131.62366</ele>
        <time>2019-06-19 11:22:00,067</time>
      </trkpt>
      <trkpt lat="43.21696" lon="5.43241">
        <ele>132.8067</ele>
        <time>2019-06-19 11:22:01,076</time>
      </trkpt>
      <trkpt lat="43.21697" lon="5.43241">
        <ele>133.24548</ele>
        <time>2019-06-19 11:22:02,057</time>
      </trkpt>
      <trkpt lat="43.21698" lon="5.43242">
        <ele>134.67694</ele>
        <time>2019-06-19 11:22:03,066</time>
      </trkpt>
      <trkpt lat="43.21699" lon="5.43241">
        <ele>134.94458</ele>
        <time>2019-06-19 11:22:04,069</time>
      </trkpt>
      <trkpt lat="43.21699" lon="5.43241">
        <ele>134.74707</ele>
        <time>2019-06-19 11:22:05,062</time>
      </trkpt>
      <trkpt lat="43.217" lon="5.4324">
        <ele>135.82336</ele>
        <time>2019-06-19 11:22:07,058</time>
      </trkpt>
      <trkpt lat="43.217" lon="5.4324">
        <ele>135.56897</ele>
        <time>2019-06-19 11:22:08,062</time>
      </trkpt>
      <trkpt lat="43.217" lon="5.43241">
        <ele>135.16895</ele>
        <time>2019-06-19 11:22:09,063</time>
      </trkpt>
      <trkpt lat="43.217" lon="5.43242">
        <ele>133.24548</ele>
        <time>2019-06-19 11:22:10,066</time>
      </trkpt>
      <trkpt lat="43.21701" lon="5.43243">
        <ele>135.77277</ele>
        <time>2019-06-19 11:22:12,065</time>
      </trkpt>
      <trkpt lat="43.21702" lon="5.43243">
        <ele>134.64087</ele>
        <time>2019-06-19 11:22:13,307</time>
      </trkpt>
      <trkpt lat="43.21704" lon="5.43244">
        <ele>134.95117</ele>
        <time>2019-06-19 11:22:15,057</time>
      </trkpt>
      <trkpt lat="43.21705" lon="5.43244">
        <ele>135.09631</ele>
        <time>2019-06-19 11:22:16,059</time>
      </trkpt>
      <trkpt lat="43.21707" lon="5.43245">
        <ele>133.77234</ele>
        <time>2019-06-19 11:22:18,066</time>
      </trkpt>
      <trkpt lat="43.21707" lon="5.43245">
        <ele>133.29688</ele>
        <time>2019-06-19 11:22:19,083</time>
      </trkpt>
      <trkpt lat="43.21708" lon="5.43246">
        <ele>133.14679</ele>
        <time>2019-06-19 11:22:20,060</time>
      </trkpt>
      <trkpt lat="43.2171" lon="5.43246">
        <ele>131.9303</ele>
        <time>2019-06-19 11:22:23,055</time>
      </trkpt>
      <trkpt lat="43.21712" lon="5.43245">
        <ele>129.8493</ele>
        <time>2019-06-19 11:22:24,062</time>
      </trkpt>
      <trkpt lat="43.21712" lon="5.43245">
        <ele>129.88837</ele>
        <time>2019-06-19 11:22:25,071</time>
      </trkpt>
      <trkpt lat="43.21712" lon="5.43245">
        <ele>133.07617</ele>
        <time>2019-06-19 11:22:27,065</time>
      </trkpt>
      <trkpt lat="43.21715" lon="5.43246">
        <ele>133.60974</ele>
        <time>2019-06-19 11:22:30,071</time>
      </trkpt>
      <trkpt lat="43.21717" lon="5.43247">
        <ele>133.18579</ele>
        <time>2019-06-19 11:22:31,068</time>
      </trkpt>
      <trkpt lat="43.21717" lon="5.43248">
        <ele>134.01178</ele>
        <time>2019-06-19 11:22:32,060</time>
      </trkpt>
      <trkpt lat="43.21718" lon="5.43249">
        <ele>130.84314</ele>
        <time>2019-06-19 11:22:34,059</time>
      </trkpt>
      <trkpt lat="43.21721" lon="5.43248">
        <ele>129.41138</ele>
        <time>2019-06-19 11:22:37,059</time>
      </trkpt>
      <trkpt lat="43.21722" lon="5.43247">
        <ele>125.50293</ele>
        <time>2019-06-19 11:22:38,061</time>
      </trkpt>
      <trkpt lat="43.21722" lon="5.43245">
        <ele>124.64661</ele>
        <time>2019-06-19 11:22:39,053</time>
      </trkpt>
      <trkpt lat="43.21724" lon="5.43244">
        <ele>125.791504</ele>
        <time>2019-06-19 11:22:42,061</time>
      </trkpt>
      <trkpt lat="43.21728" lon="5.43247">
        <ele>125.980286</ele>
        <time>2019-06-19 11:22:48,086</time>
      </trkpt>
      <trkpt lat="43.2173" lon="5.43246">
        <ele>124.61841</ele>
        <time>2019-06-19 11:23:08,051</time>
      </trkpt>
      <trkpt lat="43.2173" lon="5.43246">
        <ele>124.554504</ele>
        <time>2019-06-19 11:23:28,068</time>
      </trkpt>
      <trkpt lat="43.21731" lon="5.43246">
        <ele>124.173035</ele>
        <time>2019-06-19 11:23:32,054</time>
      </trkpt>
      <trkpt lat="43.2174" lon="5.43241">
        <ele>122.01605</ele>
        <time>2019-06-19 11:23:40,055</time>
      </trkpt>
      <trkpt lat="43.21745" lon="5.43237">
        <ele>120.97699</ele>
        <time>2019-06-19 11:23:44,056</time>
      </trkpt>
      <trkpt lat="43.21748" lon="5.43237">
        <ele>122.30267</ele>
        <time>2019-06-19 11:23:46,048</time>
      </trkpt>
      <trkpt lat="43.21753" lon="5.43242">
        <ele>114.34131</ele>
        <time>2019-06-19 11:23:53,061</time>
      </trkpt>
      <trkpt lat="43.21755" lon="5.43244">
        <ele>115.523254</ele>
        <time>2019-06-19 11:23:59,054</time>
      </trkpt>
      <trkpt lat="43.21755" lon="5.43244">
        <ele>116.34277</ele>
        <time>2019-06-19 11:24:03,707</time>
      </trkpt>
      <trkpt lat="43.21756" lon="5.43244">
        <ele>114.589355</ele>
        <time>2019-06-19 11:24:04,700</time>
      </trkpt>
      <trkpt lat="43.21757" lon="5.43243">
        <ele>112.98193</ele>
        <time>2019-06-19 11:24:08,708</time>
      </trkpt>
      <trkpt lat="43.21757" lon="5.43244">
        <ele>112.75983</ele>
        <time>2019-06-19 11:24:09,714</time>
      </trkpt>
      <trkpt lat="43.21757" lon="5.43245">
        <ele>112.95087</ele>
        <time>2019-06-19 11:24:10,703</time>
      </trkpt>
      <trkpt lat="43.21757" lon="5.43246">
        <ele>115.59733</ele>
        <time>2019-06-19 11:24:11,705</time>
      </trkpt>
      <trkpt lat="43.21757" lon="5.43248">
        <ele>114.22473</ele>
        <time>2019-06-19 11:24:12,702</time>
      </trkpt>
      <trkpt lat="43.21757" lon="5.43248">
        <ele>114.82379</ele>
        <time>2019-06-19 11:24:13,706</time>
      </trkpt>
      <trkpt lat="43.21763" lon="5.43253">
        <ele>121.935</ele>
        <time>2019-06-19 11:24:33,709</time>
      </trkpt>
      <trkpt lat="43.21763" lon="5.43252">
        <ele>121.84308</ele>
        <time>2019-06-19 11:24:34,706</time>
      </trkpt>
      <trkpt lat="43.21765" lon="5.4325">
        <ele>123.27344</ele>
        <time>2019-06-19 11:24:42,711</time>
      </trkpt>
      <trkpt lat="43.21765" lon="5.4325">
        <ele>123.15057</ele>
        <time>2019-06-19 11:24:43,707</time>
      </trkpt>
      <trkpt lat="43.21766" lon="5.43251">
        <ele>121.58557</ele>
        <time>2019-06-19 11:24:49,708</time>
      </trkpt>
      <trkpt lat="43.21766" lon="5.43251">
        <ele>121.513306</ele>
        <time>2019-06-19 11:24:50,709</time>
      </trkpt>
      <trkpt lat="43.21766" lon="5.43251">
        <ele>123.27344</ele>
        <time>2019-06-19 11:24:51,716</time>
      </trkpt>
      <trkpt lat="43.21767" lon="5.43251">
        <ele>123.72052</ele>
        <time>2019-06-19 11:24:53,716</time>
      </trkpt>
      <trkpt lat="43.21766" lon="5.4325">
        <ele>126.179016</ele>
        <time>2019-06-19 11:24:54,720</time>
      </trkpt>
      <trkpt lat="43.21765" lon="5.43249">
        <ele>125.62427</ele>
        <time>2019-06-19 11:24:55,720</time>
      </trkpt>
      <trkpt lat="43.21766" lon="5.43249">
        <ele>123.97998</ele>
        <time>2019-06-19 11:24:56,723</time>
      </trkpt>
      <trkpt lat="43.21767" lon="5.43249">
        <ele>120.823975</ele>
        <time>2019-06-19 11:25:00,888</time>
      </trkpt>
      <trkpt lat="43.21767" lon="5.43249">
        <ele>123.72052</ele>
        <time>2019-06-19 11:25:02,705</time>
      </trkpt>
      <trkpt lat="43.21768" lon="5.43249">
        <ele>132.83209</ele>
        <time>2019-06-19 11:25:23,079</time>
      </trkpt>
      <trkpt lat="43.21768" lon="5.43249">
        <ele>142.59192</ele>
        <time>2019-06-19 11:25:26,442</time>
      </trkpt>
      <trkpt lat="43.21768" lon="5.43249">
        <ele>137.82556</ele>
        <time>2019-06-19 11:25:27,448</time>
      </trkpt>
      <trkpt lat="43.21769" lon="5.4325">
        <ele>124.59851</ele>
        <time>2019-06-19 11:25:47,434</time>
      </trkpt>
      <trkpt lat="43.21769" lon="5.4325">
        <ele>123.484436</ele>
        <time>2019-06-19 11:26:09,428</time>
      </trkpt>
      <trkpt lat="43.21768" lon="5.4325">
        <ele>128.60376</ele>
        <time>2019-06-19 11:26:27,436</time>
      </trkpt>
      <trkpt lat="43.21768" lon="5.43251">
        <ele>127.61255</ele>
        <time>2019-06-19 11:26:28,430</time>
      </trkpt>
      <trkpt lat="43.21768" lon="5.43251">
        <ele>128.26477</ele>
        <time>2019-06-19 11:26:29,431</time>
      </trkpt>
      <trkpt lat="43.21767" lon="5.43252">
        <ele>127.47015</ele>
        <time>2019-06-19 11:26:45,446</time>
      </trkpt>
      <trkpt lat="43.21767" lon="5.43252">
        <ele>124.791504</ele>
        <time>2019-06-19 11:26:46,436</time>
      </trkpt>
      <trkpt lat="43.21767" lon="5.43253">
        <ele>123.97156</ele>
        <time>2019-06-19 11:27:06,426</time>
      </trkpt>
      <trkpt lat="43.21767" lon="5.43253">
        <ele>122.85083</ele>
        <time>2019-06-19 11:27:24,435</time>
      </trkpt>
      <trkpt lat="43.21767" lon="5.43252">
        <ele>123.86556</ele>
        <time>2019-06-19 11:27:25,428</time>
      </trkpt>
      <trkpt lat="43.21768" lon="5.43252">
        <ele>123.759094</ele>
        <time>2019-06-19 11:27:45,425</time>
      </trkpt>
      <trkpt lat="43.21768" lon="5.43252">
        <ele>123.66693</ele>
        <time>2019-06-19 11:28:05,426</time>
      </trkpt>
      <trkpt lat="43.21768" lon="5.43252">
        <ele>123.73932</ele>
        <time>2019-06-19 11:28:25,430</time>
      </trkpt>
      <trkpt lat="43.21768" lon="5.43252">
        <ele>123.71619</ele>
        <time>2019-06-19 11:28:45,440</time>
      </trkpt>
      <trkpt lat="43.21768" lon="5.43252">
        <ele>122.649536</ele>
        <time>2019-06-19 11:28:47,440</time>
      </trkpt>
      <trkpt lat="43.21768" lon="5.43252">
        <ele>121.39319</ele>
        <time>2019-06-19 11:28:48,657</time>
      </trkpt>
      <trkpt lat="43.21769" lon="5.43253">
        <ele>124.08093</ele>
        <time>2019-06-19 11:29:08,431</time>
      </trkpt>
      <trkpt lat="43.21768" lon="5.43253">
        <ele>124.41315</ele>
        <time>2019-06-19 11:29:09,436</time>
      </trkpt>
      <trkpt lat="43.21767" lon="5.43255">
        <ele>124.75049</ele>
        <time>2019-06-19 11:29:10,442</time>
      </trkpt>
      <trkpt lat="43.21766" lon="5.43255">
        <ele>124.714294</ele>
        <time>2019-06-19 11:29:11,435</time>
      </trkpt>
      <trkpt lat="43.21766" lon="5.43256">
        <ele>123.83014</ele>
        <time>2019-06-19 11:29:12,425</time>
      </trkpt>
      <trkpt lat="43.21766" lon="5.43257">
        <ele>123.36322</ele>
        <time>2019-06-19 11:29:14,432</time>
      </trkpt>
      <trkpt lat="43.21765" lon="5.43257">
        <ele>122.25598</ele>
        <time>2019-06-19 11:29:15,424</time>
      </trkpt>
      <trkpt lat="43.21765" lon="5.43258">
        <ele>121.89111</ele>
        <time>2019-06-19 11:29:16,432</time>
      </trkpt>
      <trkpt lat="43.21765" lon="5.4326">
        <ele>169.41064</ele>
        <time>2019-06-19 11:29:17,432</time>
      </trkpt>
      <trkpt lat="43.21766" lon="5.43267">
        <ele>134.42322</ele>
        <time>2019-06-19 11:29:21,428</time>
      </trkpt>
      <trkpt lat="43.21766" lon="5.43268">
        <ele>130.77466</ele>
        <time>2019-06-19 11:29:22,438</time>
      </trkpt>
      <trkpt lat="43.21765" lon="5.43273">
        <ele>127.389404</ele>
        <time>2019-06-19 11:29:25,433</time>
      </trkpt>
      <trkpt lat="43.21765" lon="5.43274">
        <ele>127.65405</ele>
        <time>2019-06-19 11:29:26,428</time>
      </trkpt>
      <trkpt lat="43.21765" lon="5.43276">
        <ele>128.91016</ele>
        <time>2019-06-19 11:29:27,442</time>
      </trkpt>
      <trkpt lat="43.21762" lon="5.43283">
        <ele>125.49579</ele>
        <time>2019-06-19 11:29:31,434</time>
      </trkpt>
      <trkpt lat="43.2176" lon="5.43285">
        <ele>123.55914</ele>
        <time>2019-06-19 11:29:32,434</time>
      </trkpt>
      <trkpt lat="43.21759" lon="5.43286">
        <ele>122.80768</ele>
        <time>2019-06-19 11:29:33,441</time>
      </trkpt>
      <trkpt lat="43.21756" lon="5.43293">
        <ele>121.240845</ele>
        <time>2019-06-19 11:29:39,448</time>
      </trkpt>
      <trkpt lat="43.21756" lon="5.43294">
        <ele>120.34833</ele>
        <time>2019-06-19 11:29:40,429</time>
      </trkpt>
      <trkpt lat="43.21756" lon="5.433">
        <ele>118.00348</ele>
        <time>2019-06-19 11:29:43,448</time>
      </trkpt>
      <trkpt lat="43.21756" lon="5.43302">
        <ele>117.35321</ele>
        <time>2019-06-19 11:29:44,438</time>
      </trkpt>
      <trkpt lat="43.21757" lon="5.43309">
        <ele>121.240845</ele>
        <time>2019-06-19 11:29:48,463</time>
      </trkpt>
      <trkpt lat="43.21758" lon="5.43311">
        <ele>116.33551</ele>
        <time>2019-06-19 11:29:49,431</time>
      </trkpt>
      <trkpt lat="43.21759" lon="5.43312">
        <ele>116.51819</ele>
        <time>2019-06-19 11:29:50,432</time>
      </trkpt>
      <trkpt lat="43.2176" lon="5.43317">
        <ele>116.08917</ele>
        <time>2019-06-19 11:29:52,437</time>
      </trkpt>
      <trkpt lat="43.2176" lon="5.43322">
        <ele>114.77759</ele>
        <time>2019-06-19 11:29:54,428</time>
      </trkpt>
      <trkpt lat="43.2176" lon="5.43325">
        <ele>113.052</ele>
        <time>2019-06-19 11:29:55,434</time>
      </trkpt>
      <trkpt lat="43.21759" lon="5.43329">
        <ele>112.23053</ele>
        <time>2019-06-19 11:29:57,452</time>
      </trkpt>
      <trkpt lat="43.21761" lon="5.4333">
        <ele>110.59778</ele>
        <time>2019-06-19 11:29:59,448</time>
      </trkpt>
      <trkpt lat="43.21762" lon="5.43336">
        <ele>110.001526</ele>
        <time>2019-06-19 11:30:03,433</time>
      </trkpt>
      <trkpt lat="43.21762" lon="5.43338">
        <ele>110.41589</ele>
        <time>2019-06-19 11:30:04,429</time>
      </trkpt>
      <trkpt lat="43.21761" lon="5.43339">
        <ele>111.56976</ele>
        <time>2019-06-19 11:30:05,429</time>
      </trkpt>
      <trkpt lat="43.2176" lon="5.43342">
        <ele>111.42401</ele>
        <time>2019-06-19 11:30:07,431</time>
      </trkpt>
      <trkpt lat="43.21761" lon="5.43345">
        <ele>112.19269</ele>
        <time>2019-06-19 11:30:11,442</time>
      </trkpt>
      <trkpt lat="43.21761" lon="5.43347">
        <ele>111.78723</ele>
        <time>2019-06-19 11:30:12,436</time>
      </trkpt>
      <trkpt lat="43.21762" lon="5.43349">
        <ele>111.61444</ele>
        <time>2019-06-19 11:30:13,441</time>
      </trkpt>
      <trkpt lat="43.21762" lon="5.43351">
        <ele>111.759094</ele>
        <time>2019-06-19 11:30:14,431</time>
      </trkpt>
      <trkpt lat="43.21763" lon="5.43353">
        <ele>111.47601</ele>
        <time>2019-06-19 11:30:15,432</time>
      </trkpt>
      <trkpt lat="43.21763" lon="5.43354">
        <ele>110.499756</ele>
        <time>2019-06-19 11:30:16,433</time>
      </trkpt>
      <trkpt lat="43.21763" lon="5.43357">
        <ele>111.759155</ele>
        <time>2019-06-19 11:30:18,436</time>
      </trkpt>
      <trkpt lat="43.21764" lon="5.43359">
        <ele>110.976135</ele>
        <time>2019-06-19 11:30:20,433</time>
      </trkpt>
      <trkpt lat="43.21764" lon="5.4336">
        <ele>110.58984</ele>
        <time>2019-06-19 11:30:21,434</time>
      </trkpt>
      <trkpt lat="43.21765" lon="5.43366">
        <ele>109.45886</ele>
        <time>2019-06-19 11:30:24,434</time>
      </trkpt>
      <trkpt lat="43.21765" lon="5.43368">
        <ele>109.335266</ele>
        <time>2019-06-19 11:30:25,430</time>
      </trkpt>
      <trkpt lat="43.21765" lon="5.4337">
        <ele>109.989624</ele>
        <time>2019-06-19 11:30:26,425</time>
      </trkpt>
      <trkpt lat="43.21765" lon="5.43372">
        <ele>109.78314</ele>
        <time>2019-06-19 11:30:27,428</time>
      </trkpt>
      <trkpt lat="43.21764" lon="5.43373">
        <ele>110.43457</ele>
        <time>2019-06-19 11:30:28,458</time>
      </trkpt>
      <trkpt lat="43.21764" lon="5.43375">
        <ele>110.4577</ele>
        <time>2019-06-19 11:30:29,437</time>
      </trkpt>
      <trkpt lat="43.21763" lon="5.43378">
        <ele>111.41748</ele>
        <time>2019-06-19 11:30:32,428</time>
      </trkpt>
      <trkpt lat="43.21762" lon="5.4338">
        <ele>111.19354</ele>
        <time>2019-06-19 11:30:33,439</time>
      </trkpt>
      <trkpt lat="43.21762" lon="5.43381">
        <ele>111.206665</ele>
        <time>2019-06-19 11:30:34,429</time>
      </trkpt>
      <trkpt lat="43.21762" lon="5.43383">
        <ele>111.57721</ele>
        <time>2019-06-19 11:30:35,430</time>
      </trkpt>
      <trkpt lat="43.21762" lon="5.43385">
        <ele>111.54242</ele>
        <time>2019-06-19 11:30:36,433</time>
      </trkpt>
      <trkpt lat="43.21762" lon="5.43387">
        <ele>110.4577</ele>
        <time>2019-06-19 11:30:38,431</time>
      </trkpt>
      <trkpt lat="43.21762" lon="5.43388">
        <ele>112.94592</ele>
        <time>2019-06-19 11:30:39,431</time>
      </trkpt>
      <trkpt lat="43.21762" lon="5.43389">
        <ele>112.40326</ele>
        <time>2019-06-19 11:30:40,419</time>
      </trkpt>
      <trkpt lat="43.21762" lon="5.4339">
        <ele>113.15344</ele>
        <time>2019-06-19 11:30:41,431</time>
      </trkpt>
      <trkpt lat="43.21761" lon="5.43391">
        <ele>112.75061</ele>
        <time>2019-06-19 11:30:42,432</time>
      </trkpt>
      <trkpt lat="43.21761" lon="5.43394">
        <ele>112.9552</ele>
        <time>2019-06-19 11:30:44,437</time>
      </trkpt>
      <trkpt lat="43.21761" lon="5.43395">
        <ele>112.57263</ele>
        <time>2019-06-19 11:30:45,425</time>
      </trkpt>
      <trkpt lat="43.21761" lon="5.43397">
        <ele>112.71759</ele>
        <time>2019-06-19 11:30:46,427</time>
      </trkpt>
      <trkpt lat="43.21761" lon="5.43398">
        <ele>113.02655</ele>
        <time>2019-06-19 11:30:47,435</time>
      </trkpt>
      <trkpt lat="43.2176" lon="5.434">
        <ele>112.94592</ele>
        <time>2019-06-19 11:30:48,439</time>
      </trkpt>
      <trkpt lat="43.21759" lon="5.43403">
        <ele>112.55206</ele>
        <time>2019-06-19 11:30:50,433</time>
      </trkpt>
      <trkpt lat="43.21759" lon="5.43404">
        <ele>113.121826</ele>
        <time>2019-06-19 11:30:51,431</time>
      </trkpt>
      <trkpt lat="43.21759" lon="5.43405">
        <ele>111.856445</ele>
        <time>2019-06-19 11:30:52,434</time>
      </trkpt>
      <trkpt lat="43.21759" lon="5.43406">
        <ele>112.046265</ele>
        <time>2019-06-19 11:30:53,428</time>
      </trkpt>
      <trkpt lat="43.21759" lon="5.43407">
        <ele>112.7865</ele>
        <time>2019-06-19 11:30:54,428</time>
      </trkpt>
      <trkpt lat="43.21758" lon="5.43407">
        <ele>112.18646</ele>
        <time>2019-06-19 11:30:55,537</time>
      </trkpt>
      <trkpt lat="43.21756" lon="5.43407">
        <ele>114.44934</ele>
        <time>2019-06-19 11:30:57,664</time>
      </trkpt>
      <trkpt lat="43.21752" lon="5.43409">
        <ele>113.77356</ele>
        <time>2019-06-19 11:31:00,451</time>
      </trkpt>
      <trkpt lat="43.21752" lon="5.43411">
        <ele>110.39899</ele>
        <time>2019-06-19 11:31:02,428</time>
      </trkpt>
      <trkpt lat="43.2175" lon="5.43411">
        <ele>110.09497</ele>
        <time>2019-06-19 11:31:05,433</time>
      </trkpt>
      <trkpt lat="43.21746" lon="5.43412">
        <ele>108.151794</ele>
        <time>2019-06-19 11:31:09,590</time>
      </trkpt>
      <trkpt lat="43.21743" lon="5.43412">
        <ele>107.53198</ele>
        <time>2019-06-19 11:31:11,427</time>
      </trkpt>
      <trkpt lat="43.21742" lon="5.43412">
        <ele>107.497375</ele>
        <time>2019-06-19 11:31:12,433</time>
      </trkpt>
      <trkpt lat="43.21741" lon="5.43412">
        <ele>107.40039</ele>
        <time>2019-06-19 11:31:13,444</time>
      </trkpt>
      <trkpt lat="43.2174" lon="5.43412">
        <ele>108.44049</ele>
        <time>2019-06-19 11:31:16,429</time>
      </trkpt>
      <trkpt lat="43.21739" lon="5.43413">
        <ele>108.169556</ele>
        <time>2019-06-19 11:31:17,423</time>
      </trkpt>
      <trkpt lat="43.21738" lon="5.43413">
        <ele>107.76117</ele>
        <time>2019-06-19 11:31:18,430</time>
      </trkpt>
      <trkpt lat="43.21736" lon="5.43414">
        <ele>107.520935</ele>
        <time>2019-06-19 11:31:19,430</time>
      </trkpt>
      <trkpt lat="43.21733" lon="5.43414">
        <ele>109.49927</ele>
        <time>2019-06-19 11:31:22,426</time>
      </trkpt>
      <trkpt lat="43.21731" lon="5.43414">
        <ele>107.40212</ele>
        <time>2019-06-19 11:31:23,425</time>
      </trkpt>
      <trkpt lat="43.2173" lon="5.43414">
        <ele>109.661255</ele>
        <time>2019-06-19 11:31:24,425</time>
      </trkpt>
      <trkpt lat="43.21728" lon="5.43415">
        <ele>110.73236</ele>
        <time>2019-06-19 11:31:25,428</time>
      </trkpt>
      <trkpt lat="43.21727" lon="5.43415">
        <ele>111.64398</ele>
        <time>2019-06-19 11:31:26,432</time>
      </trkpt>
      <trkpt lat="43.21726" lon="5.43416">
        <ele>111.628784</ele>
        <time>2019-06-19 11:31:27,440</time>
      </trkpt>
      <trkpt lat="43.21725" lon="5.43416">
        <ele>112.45642</ele>
        <time>2019-06-19 11:31:28,443</time>
      </trkpt>
      <trkpt lat="43.21724" lon="5.43416">
        <ele>113.03638</ele>
        <time>2019-06-19 11:31:29,427</time>
      </trkpt>
      <trkpt lat="43.21722" lon="5.43417">
        <ele>112.20929</ele>
        <time>2019-06-19 11:31:31,430</time>
      </trkpt>
      <trkpt lat="43.2172" lon="5.43418">
        <ele>109.661255</ele>
        <time>2019-06-19 11:31:33,428</time>
      </trkpt>
      <trkpt lat="43.21719" lon="5.43419">
        <ele>110.676636</ele>
        <time>2019-06-19 11:31:34,451</time>
      </trkpt>
      <trkpt lat="43.21717" lon="5.43421">
        <ele>108.728516</ele>
        <time>2019-06-19 11:31:36,609</time>
      </trkpt>
      <trkpt lat="43.21714" lon="5.43422">
        <ele>107.474</ele>
        <time>2019-06-19 11:31:38,428</time>
      </trkpt>
      <trkpt lat="43.21713" lon="5.43423">
        <ele>107.93744</ele>
        <time>2019-06-19 11:31:39,431</time>
      </trkpt>
      <trkpt lat="43.21711" lon="5.43424">
        <ele>108.00043</ele>
        <time>2019-06-19 11:31:41,439</time>
      </trkpt>
      <trkpt lat="43.2171" lon="5.43425">
        <ele>108.05902</ele>
        <time>2019-06-19 11:31:42,428</time>
      </trkpt>
      <trkpt lat="43.21707" lon="5.43426">
        <ele>110.16675</ele>
        <time>2019-06-19 11:31:45,429</time>
      </trkpt>
      <trkpt lat="43.21706" lon="5.43427">
        <ele>109.77966</ele>
        <time>2019-06-19 11:31:46,435</time>
      </trkpt>
      <trkpt lat="43.21704" lon="5.43428">
        <ele>109.547485</ele>
        <time>2019-06-19 11:31:47,425</time>
      </trkpt>
      <trkpt lat="43.21697" lon="5.43432">
        <ele>107.673706</ele>
        <time>2019-06-19 11:31:53,442</time>
      </trkpt>
      <trkpt lat="43.21696" lon="5.43434">
        <ele>108.536804</ele>
        <time>2019-06-19 11:31:55,436</time>
      </trkpt>
      <trkpt lat="43.21687" lon="5.43445">
        <ele>101.45148</ele>
        <time>2019-06-19 11:32:06,470</time>
      </trkpt>
      <trkpt lat="43.21686" lon="5.43447">
        <ele>100.57495</ele>
        <time>2019-06-19 11:32:07,432</time>
      </trkpt>
      <trkpt lat="43.21684" lon="5.43451">
        <ele>98.9375</ele>
        <time>2019-06-19 11:32:10,458</time>
      </trkpt>
      <trkpt lat="43.21683" lon="5.43454">
        <ele>97.74072</ele>
        <time>2019-06-19 11:32:12,533</time>
      </trkpt>
      <trkpt lat="43.21683" lon="5.43456">
        <ele>95.39545</ele>
        <time>2019-06-19 11:32:14,581</time>
      </trkpt>
      <trkpt lat="43.21684" lon="5.43458">
        <ele>95.217896</ele>
        <time>2019-06-19 11:32:16,628</time>
      </trkpt>
      <trkpt lat="43.21684" lon="5.4346">
        <ele>93.94452</ele>
        <time>2019-06-19 11:32:18,440</time>
      </trkpt>
      <trkpt lat="43.21684" lon="5.43462">
        <ele>101.45148</ele>
        <time>2019-06-19 11:32:19,603</time>
      </trkpt>
      <trkpt lat="43.21686" lon="5.43466">
        <ele>92.05475</ele>
        <time>2019-06-19 11:32:21,431</time>
      </trkpt>
      <trkpt lat="43.21687" lon="5.43468">
        <ele>91.21796</ele>
        <time>2019-06-19 11:32:22,580</time>
      </trkpt>
      <trkpt lat="43.21688" lon="5.43471">
        <ele>96.35089</ele>
        <time>2019-06-19 11:32:24,654</time>
      </trkpt>
      <trkpt lat="43.21688" lon="5.43475">
        <ele>91.918335</ele>
        <time>2019-06-19 11:32:27,620</time>
      </trkpt>
      <trkpt lat="43.21689" lon="5.43478">
        <ele>91.303406</ele>
        <time>2019-06-19 11:32:29,430</time>
      </trkpt>
      <trkpt lat="43.21688" lon="5.4348">
        <ele>91.7334</ele>
        <time>2019-06-19 11:32:30,429</time>
      </trkpt>
      <trkpt lat="43.21688" lon="5.43482">
        <ele>92.5387</ele>
        <time>2019-06-19 11:32:31,425</time>
      </trkpt>
      <trkpt lat="43.21686" lon="5.43489">
        <ele>91.05365</ele>
        <time>2019-06-19 11:32:35,426</time>
      </trkpt>
      <trkpt lat="43.21686" lon="5.43491">
        <ele>90.94391</ele>
        <time>2019-06-19 11:32:36,430</time>
      </trkpt>
      <trkpt lat="43.21686" lon="5.43493">
        <ele>91.14984</ele>
        <time>2019-06-19 11:32:37,428</time>
      </trkpt>
      <trkpt lat="43.21687" lon="5.43494">
        <ele>91.03784</ele>
        <time>2019-06-19 11:32:38,434</time>
      </trkpt>
      <trkpt lat="43.21687" lon="5.43496">
        <ele>91.38379</ele>
        <time>2019-06-19 11:32:39,432</time>
      </trkpt>
      <trkpt lat="43.21687" lon="5.43496">
        <ele>92.01074</ele>
        <time>2019-06-19 11:32:40,441</time>
      </trkpt>
      <trkpt lat="43.21688" lon="5.43497">
        <ele>91.660034</ele>
        <time>2019-06-19 11:32:41,671</time>
      </trkpt>
      <trkpt lat="43.21688" lon="5.43498">
        <ele>89.56213</ele>
        <time>2019-06-19 11:32:43,433</time>
      </trkpt>
      <trkpt lat="43.21688" lon="5.43499">
        <ele>91.17407</ele>
        <time>2019-06-19 11:32:44,427</time>
      </trkpt>
      <trkpt lat="43.21689" lon="5.43501">
        <ele>88.4082</ele>
        <time>2019-06-19 11:32:45,441</time>
      </trkpt>
      <trkpt lat="43.21689" lon="5.43504">
        <ele>88.786865</ele>
        <time>2019-06-19 11:32:46,433</time>
      </trkpt>
      <trkpt lat="43.21689" lon="5.43505">
        <ele>87.823425</ele>
        <time>2019-06-19 11:32:47,444</time>
      </trkpt>
      <trkpt lat="43.21689" lon="5.43509">
        <ele>87.32623</ele>
        <time>2019-06-19 11:32:50,442</time>
      </trkpt>
      <trkpt lat="43.21688" lon="5.43509">
        <ele>86.98987</ele>
        <time>2019-06-19 11:32:51,607</time>
      </trkpt>
      <trkpt lat="43.21687" lon="5.43512">
        <ele>87.65112</ele>
        <time>2019-06-19 11:32:53,434</time>
      </trkpt>
      <trkpt lat="43.21686" lon="5.43514">
        <ele>87.28674</ele>
        <time>2019-06-19 11:32:54,434</time>
      </trkpt>
      <trkpt lat="43.21686" lon="5.43517">
        <ele>87.352844</ele>
        <time>2019-06-19 11:32:56,441</time>
      </trkpt>
      <trkpt lat="43.21685" lon="5.43519">
        <ele>86.80359</ele>
        <time>2019-06-19 11:32:57,448</time>
      </trkpt>
      <trkpt lat="43.21684" lon="5.43522">
        <ele>86.883545</ele>
        <time>2019-06-19 11:32:59,437</time>
      </trkpt>
      <trkpt lat="43.21684" lon="5.43523">
        <ele>88.078064</ele>
        <time>2019-06-19 11:33:00,425</time>
      </trkpt>
      <trkpt lat="43.21683" lon="5.43526">
        <ele>88.868164</ele>
        <time>2019-06-19 11:33:03,438</time>
      </trkpt>
      <trkpt lat="43.21683" lon="5.43527">
        <ele>89.121826</ele>
        <time>2019-06-19 11:33:04,432</time>
      </trkpt>
      <trkpt lat="43.21683" lon="5.43529">
        <ele>87.352844</ele>
        <time>2019-06-19 11:33:05,430</time>
      </trkpt>
      <trkpt lat="43.21682" lon="5.43532">
        <ele>86.76715</ele>
        <time>2019-06-19 11:33:07,431</time>
      </trkpt>
      <trkpt lat="43.21681" lon="5.43533">
        <ele>86.87329</ele>
        <time>2019-06-19 11:33:08,431</time>
      </trkpt>
      <trkpt lat="43.21681" lon="5.43534">
        <ele>86.3584</ele>
        <time>2019-06-19 11:33:09,430</time>
      </trkpt>
      <trkpt lat="43.21681" lon="5.43536">
        <ele>87.218506</ele>
        <time>2019-06-19 11:33:10,432</time>
      </trkpt>
      <trkpt lat="43.2168" lon="5.4354">
        <ele>85.35205</ele>
        <time>2019-06-19 11:33:12,432</time>
      </trkpt>
      <trkpt lat="43.21679" lon="5.43544">
        <ele>88.11182</ele>
        <time>2019-06-19 11:33:14,433</time>
      </trkpt>
      <trkpt lat="43.21679" lon="5.43545">
        <ele>88.85785</ele>
        <time>2019-06-19 11:33:15,689</time>
      </trkpt>
      <trkpt lat="43.21678" lon="5.43548">
        <ele>85.54431</ele>
        <time>2019-06-19 11:33:17,441</time>
      </trkpt>
      <trkpt lat="43.21678" lon="5.4355">
        <ele>83.25232</ele>
        <time>2019-06-19 11:33:18,630</time>
      </trkpt>
      <trkpt lat="43.21677" lon="5.43552">
        <ele>80.36682</ele>
        <time>2019-06-19 11:33:20,471</time>
      </trkpt>
      <trkpt lat="43.21676" lon="5.43552">
        <ele>79.59296</ele>
        <time>2019-06-19 11:33:21,434</time>
      </trkpt>
      <trkpt lat="43.21675" lon="5.43553">
        <ele>79.94116</ele>
        <time>2019-06-19 11:33:22,668</time>
      </trkpt>
      <trkpt lat="43.21674" lon="5.43558">
        <ele>78.786865</ele>
        <time>2019-06-19 11:33:26,498</time>
      </trkpt>
      <trkpt lat="43.21673" lon="5.43559">
        <ele>78.0918</ele>
        <time>2019-06-19 11:33:27,430</time>
      </trkpt>
      <trkpt lat="43.21673" lon="5.43562">
        <ele>85.54431</ele>
        <time>2019-06-19 11:33:28,425</time>
      </trkpt>
      <trkpt lat="43.21672" lon="5.43564">
        <ele>78.88501</ele>
        <time>2019-06-19 11:33:29,431</time>
      </trkpt>
      <trkpt lat="43.21672" lon="5.43565">
        <ele>78.48779</ele>
        <time>2019-06-19 11:33:30,445</time>
      </trkpt>
      <trkpt lat="43.21672" lon="5.43566">
        <ele>78.13019</ele>
        <time>2019-06-19 11:33:31,452</time>
      </trkpt>
      <trkpt lat="43.21673" lon="5.4357">
        <ele>76.93829</ele>
        <time>2019-06-19 11:33:33,440</time>
      </trkpt>
      <trkpt lat="43.21673" lon="5.43574">
        <ele>78.99341</ele>
        <time>2019-06-19 11:33:35,630</time>
      </trkpt>
      <trkpt lat="43.21673" lon="5.43578">
        <ele>76.86548</ele>
        <time>2019-06-19 11:33:37,432</time>
      </trkpt>
      <trkpt lat="43.21674" lon="5.43585">
        <ele>76.76752</ele>
        <time>2019-06-19 11:33:40,430</time>
      </trkpt>
      <trkpt lat="43.21673" lon="5.43587">
        <ele>75.426025</ele>
        <time>2019-06-19 11:33:41,440</time>
      </trkpt>
      <trkpt lat="43.21672" lon="5.43589">
        <ele>75.24011</ele>
        <time>2019-06-19 11:33:42,610</time>
      </trkpt>
      <trkpt lat="43.21671" lon="5.43592">
        <ele>75.814575</ele>
        <time>2019-06-19 11:33:44,438</time>
      </trkpt>
      <trkpt lat="43.21672" lon="5.43594">
        <ele>74.78717</ele>
        <time>2019-06-19 11:33:46,440</time>
      </trkpt>
      <trkpt lat="43.21672" lon="5.43595">
        <ele>76.22015</ele>
        <time>2019-06-19 11:33:47,431</time>
      </trkpt>
      <trkpt lat="43.21673" lon="5.43595">
        <ele>77.15662</ele>
        <time>2019-06-19 11:33:48,435</time>
      </trkpt>
      <trkpt lat="43.21673" lon="5.43596">
        <ele>77.298706</ele>
        <time>2019-06-19 11:33:49,440</time>
      </trkpt>
      <trkpt lat="43.21673" lon="5.43598">
        <ele>77.20154</ele>
        <time>2019-06-19 11:33:51,428</time>
      </trkpt>
      <trkpt lat="43.21672" lon="5.43602">
        <ele>77.24219</ele>
        <time>2019-06-19 11:33:53,435</time>
      </trkpt>
      <trkpt lat="43.21671" lon="5.43606">
        <ele>78.85791</ele>
        <time>2019-06-19 11:33:55,483</time>
      </trkpt>
      <trkpt lat="43.21672" lon="5.43613">
        <ele>78.80902</ele>
        <time>2019-06-19 11:33:58,436</time>
      </trkpt>
      <trkpt lat="43.21672" lon="5.43616">
        <ele>77.86969</ele>
        <time>2019-06-19 11:33:59,446</time>
      </trkpt>
      <trkpt lat="43.21672" lon="5.4362">
        <ele>77.65796</ele>
        <time>2019-06-19 11:34:01,458</time>
      </trkpt>
      <trkpt lat="43.21672" lon="5.43621">
        <ele>78.168335</ele>
        <time>2019-06-19 11:34:02,430</time>
      </trkpt>
      <trkpt lat="43.21672" lon="5.43622">
        <ele>77.60907</ele>
        <time>2019-06-19 11:34:03,425</time>
      </trkpt>
      <trkpt lat="43.21673" lon="5.43623">
        <ele>77.84808</ele>
        <time>2019-06-19 11:34:04,427</time>
      </trkpt>
      <trkpt lat="43.21674" lon="5.43624">
        <ele>77.22882</ele>
        <time>2019-06-19 11:34:05,436</time>
      </trkpt>
      <trkpt lat="43.21674" lon="5.43625">
        <ele>83.48096</ele>
        <time>2019-06-19 11:34:06,436</time>
      </trkpt>
      <trkpt lat="43.21675" lon="5.43626">
        <ele>80.73126</ele>
        <time>2019-06-19 11:34:07,432</time>
      </trkpt>
      <trkpt lat="43.21675" lon="5.43628">
        <ele>79.007935</ele>
        <time>2019-06-19 11:34:08,436</time>
      </trkpt>
      <trkpt lat="43.21676" lon="5.4363">
        <ele>76.66321</ele>
        <time>2019-06-19 11:34:09,438</time>
      </trkpt>
      <trkpt lat="43.21677" lon="5.43637">
        <ele>76.02197</ele>
        <time>2019-06-19 11:34:12,102</time>
      </trkpt>
      <trkpt lat="43.21678" lon="5.43639">
        <ele>76.66968</ele>
        <time>2019-06-19 11:34:13,115</time>
      </trkpt>
      <trkpt lat="43.21678" lon="5.43641">
        <ele>76.05078</ele>
        <time>2019-06-19 11:34:14,123</time>
      </trkpt>
      <trkpt lat="43.21679" lon="5.43644">
        <ele>75.42529</ele>
        <time>2019-06-19 11:34:15,101</time>
      </trkpt>
      <trkpt lat="43.2168" lon="5.43646">
        <ele>74.96185</ele>
        <time>2019-06-19 11:34:16,093</time>
      </trkpt>
      <trkpt lat="43.21681" lon="5.43649">
        <ele>77.03253</ele>
        <time>2019-06-19 11:34:18,100</time>
      </trkpt>
      <trkpt lat="43.21681" lon="5.43649">
        <ele>76.70618</ele>
        <time>2019-06-19 11:34:19,104</time>
      </trkpt>
      <trkpt lat="43.21681" lon="5.43651">
        <ele>74.77185</ele>
        <time>2019-06-19 11:34:20,100</time>
      </trkpt>
      <trkpt lat="43.21681" lon="5.43652">
        <ele>76.6629</ele>
        <time>2019-06-19 11:34:21,102</time>
      </trkpt>
      <trkpt lat="43.2168" lon="5.43655">
        <ele>77.31549</ele>
        <time>2019-06-19 11:34:23,110</time>
      </trkpt>
      <trkpt lat="43.2168" lon="5.43656">
        <ele>77.90967</ele>
        <time>2019-06-19 11:34:24,110</time>
      </trkpt>
      <trkpt lat="43.21679" lon="5.43658">
        <ele>75.48395</ele>
        <time>2019-06-19 11:34:25,110</time>
      </trkpt>
      <trkpt lat="43.21679" lon="5.4366">
        <ele>73.70099</ele>
        <time>2019-06-19 11:34:26,095</time>
      </trkpt>
      <trkpt lat="43.21679" lon="5.43662">
        <ele>73.34601</ele>
        <time>2019-06-19 11:34:27,168</time>
      </trkpt>
      <trkpt lat="43.21679" lon="5.43664">
        <ele>74.23871</ele>
        <time>2019-06-19 11:34:28,098</time>
      </trkpt>
      <trkpt lat="43.21678" lon="5.43676">
        <ele>77.890076</ele>
        <time>2019-06-19 11:34:37,102</time>
      </trkpt>
      <trkpt lat="43.21672" lon="5.43688">
        <ele>78.45642</ele>
        <time>2019-06-19 11:34:43,835</time>
      </trkpt>
      <trkpt lat="43.2167" lon="5.43693">
        <ele>78.67395</ele>
        <time>2019-06-19 11:34:46,817</time>
      </trkpt>
      <trkpt lat="43.21669" lon="5.43694">
        <ele>78.35956</ele>
        <time>2019-06-19 11:34:47,818</time>
      </trkpt>
      <trkpt lat="43.21668" lon="5.43695">
        <ele>79.53497</ele>
        <time>2019-06-19 11:34:48,814</time>
      </trkpt>
      <trkpt lat="43.21668" lon="5.43695">
        <ele>78.78717</ele>
        <time>2019-06-19 11:34:49,794</time>
      </trkpt>
      <trkpt lat="43.21668" lon="5.43696">
        <ele>77.34149</ele>
        <time>2019-06-19 11:34:52,801</time>
      </trkpt>
      <trkpt lat="43.21666" lon="5.43696">
        <ele>78.800476</ele>
        <time>2019-06-19 11:35:07,829</time>
      </trkpt>
      <trkpt lat="43.21664" lon="5.43698">
        <ele>79.196106</ele>
        <time>2019-06-19 11:35:08,804</time>
      </trkpt>
      <trkpt lat="43.21663" lon="5.43699">
        <ele>78.21918</ele>
        <time>2019-06-19 11:35:09,816</time>
      </trkpt>
      <trkpt lat="43.21662" lon="5.43701">
        <ele>76.53558</ele>
        <time>2019-06-19 11:35:10,809</time>
      </trkpt>
      <trkpt lat="43.2166" lon="5.43704">
        <ele>77.35614</ele>
        <time>2019-06-19 11:35:12,813</time>
      </trkpt>
      <trkpt lat="43.21659" lon="5.43705">
        <ele>77.297424</ele>
        <time>2019-06-19 11:35:13,805</time>
      </trkpt>
      <trkpt lat="43.21658" lon="5.43706">
        <ele>77.79468</ele>
        <time>2019-06-19 11:35:14,816</time>
      </trkpt>
      <trkpt lat="43.21656" lon="5.43707">
        <ele>78.89624</ele>
        <time>2019-06-19 11:35:15,805</time>
      </trkpt>
      <trkpt lat="43.21655" lon="5.43708">
        <ele>79.01416</ele>
        <time>2019-06-19 11:35:16,847</time>
      </trkpt>
      <trkpt lat="43.21653" lon="5.43713">
        <ele>77.09277</ele>
        <time>2019-06-19 11:35:18,808</time>
      </trkpt>
      <trkpt lat="43.21651" lon="5.43715">
        <ele>74.61786</ele>
        <time>2019-06-19 11:35:19,807</time>
      </trkpt>
      <trkpt lat="43.21646" lon="5.43721">
        <ele>72.66925</ele>
        <time>2019-06-19 11:35:22,804</time>
      </trkpt>
      <trkpt lat="43.21644" lon="5.43723">
        <ele>72.38446</ele>
        <time>2019-06-19 11:35:23,808</time>
      </trkpt>
      <trkpt lat="43.21644" lon="5.43725">
        <ele>72.34711</ele>
        <time>2019-06-19 11:35:24,804</time>
      </trkpt>
      <trkpt lat="43.21642" lon="5.43726">
        <ele>72.238525</ele>
        <time>2019-06-19 11:35:25,835</time>
      </trkpt>
      <trkpt lat="43.2164" lon="5.4373">
        <ele>71.23706</ele>
        <time>2019-06-19 11:35:28,804</time>
      </trkpt>
      <trkpt lat="43.21639" lon="5.43731">
        <ele>71.26489</ele>
        <time>2019-06-19 11:35:29,835</time>
      </trkpt>
      <trkpt lat="43.21638" lon="5.43732">
        <ele>71.79431</ele>
        <time>2019-06-19 11:35:30,810</time>
      </trkpt>
      <trkpt lat="43.21638" lon="5.43732">
        <ele>72.35956</ele>
        <time>2019-06-19 11:35:31,804</time>
      </trkpt>
      <trkpt lat="43.21637" lon="5.43736">
        <ele>70.00787</ele>
        <time>2019-06-19 11:35:34,806</time>
      </trkpt>
      <trkpt lat="43.21637" lon="5.43737">
        <ele>69.751465</ele>
        <time>2019-06-19 11:35:35,815</time>
      </trkpt>
      <trkpt lat="43.21637" lon="5.43738">
        <ele>69.534546</ele>
        <time>2019-06-19 11:35:36,802</time>
      </trkpt>
      <trkpt lat="43.21637" lon="5.43739">
        <ele>71.04181</ele>
        <time>2019-06-19 11:35:37,802</time>
      </trkpt>
      <trkpt lat="43.21637" lon="5.4374">
        <ele>71.65527</ele>
        <time>2019-06-19 11:35:38,817</time>
      </trkpt>
      <trkpt lat="43.21636" lon="5.4374">
        <ele>71.68176</ele>
        <time>2019-06-19 11:35:40,055</time>
      </trkpt>
      <trkpt lat="43.21635" lon="5.43742">
        <ele>73.8244</ele>
        <time>2019-06-19 11:35:41,814</time>
      </trkpt>
      <trkpt lat="43.21634" lon="5.43742">
        <ele>74.39966</ele>
        <time>2019-06-19 11:35:43,096</time>
      </trkpt>
      <trkpt lat="43.21633" lon="5.43744">
        <ele>69.751465</ele>
        <time>2019-06-19 11:35:44,831</time>
      </trkpt>
      <trkpt lat="43.21631" lon="5.43747">
        <ele>70.87103</ele>
        <time>2019-06-19 11:35:47,033</time>
      </trkpt>
      <trkpt lat="43.21627" lon="5.43755">
        <ele>67.12543</ele>
        <time>2019-06-19 11:35:54,804</time>
      </trkpt>
      <trkpt lat="43.21626" lon="5.43757">
        <ele>70.87103</ele>
        <time>2019-06-19 11:35:55,808</time>
      </trkpt>
      <trkpt lat="43.21625" lon="5.43758">
        <ele>66.858826</ele>
        <time>2019-06-19 11:35:57,892</time>
      </trkpt>
      <trkpt lat="43.21624" lon="5.43759">
        <ele>66.28772</ele>
        <time>2019-06-19 11:35:58,808</time>
      </trkpt>
      <trkpt lat="43.21624" lon="5.4376">
        <ele>68.08679</ele>
        <time>2019-06-19 11:36:00,045</time>
      </trkpt>
      <trkpt lat="43.21622" lon="5.43759">
        <ele>68.81018</ele>
        <time>2019-06-19 11:36:20,799</time>
      </trkpt>
      <trkpt lat="43.21622" lon="5.43759">
        <ele>69.51843</ele>
        <time>2019-06-19 11:36:22,801</time>
      </trkpt>
      <trkpt lat="43.21622" lon="5.43759">
        <ele>68.765686</ele>
        <time>2019-06-19 11:36:23,805</time>
      </trkpt>
      <trkpt lat="43.2162" lon="5.43759">
        <ele>67.41974</ele>
        <time>2019-06-19 11:36:24,807</time>
      </trkpt>
      <trkpt lat="43.21616" lon="5.43759">
        <ele>67.74127</ele>
        <time>2019-06-19 11:36:29,799</time>
      </trkpt>
      <trkpt lat="43.21614" lon="5.43759">
        <ele>66.723755</ele>
        <time>2019-06-19 11:36:30,803</time>
      </trkpt>
      <trkpt lat="43.21612" lon="5.43759">
        <ele>67.33856</ele>
        <time>2019-06-19 11:36:32,799</time>
      </trkpt>
      <trkpt lat="43.2161" lon="5.43758">
        <ele>68.25781</ele>
        <time>2019-06-19 11:36:33,799</time>
      </trkpt>
      <trkpt lat="43.2161" lon="5.43758">
        <ele>69.43463</ele>
        <time>2019-06-19 11:36:34,798</time>
      </trkpt>
      <trkpt lat="43.21609" lon="5.43759">
        <ele>68.88458</ele>
        <time>2019-06-19 11:36:35,801</time>
      </trkpt>
      <trkpt lat="43.21608" lon="5.43759">
        <ele>67.35138</ele>
        <time>2019-06-19 11:36:36,802</time>
      </trkpt>
      <trkpt lat="43.21606" lon="5.43759">
        <ele>68.262695</ele>
        <time>2019-06-19 11:36:37,798</time>
      </trkpt>
      <trkpt lat="43.21602" lon="5.43757">
        <ele>66.90491</ele>
        <time>2019-06-19 11:36:40,795</time>
      </trkpt>
      <trkpt lat="43.21599" lon="5.43757">
        <ele>67.41962</ele>
        <time>2019-06-19 11:36:42,801</time>
      </trkpt>
      <trkpt lat="43.21598" lon="5.43757">
        <ele>67.5603</ele>
        <time>2019-06-19 11:36:43,799</time>
      </trkpt>
      <trkpt lat="43.21597" lon="5.43758">
        <ele>68.04999</ele>
        <time>2019-06-19 11:36:44,808</time>
      </trkpt>
      <trkpt lat="43.21594" lon="5.43759">
        <ele>68.262695</ele>
        <time>2019-06-19 11:36:46,796</time>
      </trkpt>
      <trkpt lat="43.21593" lon="5.4376">
        <ele>70.744385</ele>
        <time>2019-06-19 11:36:47,803</time>
      </trkpt>
      <trkpt lat="43.21589" lon="5.43761">
        <ele>69.13794</ele>
        <time>2019-06-19 11:36:49,799</time>
      </trkpt>
      <trkpt lat="43.21587" lon="5.43761">
        <ele>69.409485</ele>
        <time>2019-06-19 11:36:50,801</time>
      </trkpt>
      <trkpt lat="43.21586" lon="5.43762">
        <ele>68.09137</ele>
        <time>2019-06-19 11:36:51,807</time>
      </trkpt>
      <trkpt lat="43.21584" lon="5.43763">
        <ele>67.1145</ele>
        <time>2019-06-19 11:36:52,808</time>
      </trkpt>
      <trkpt lat="43.21581" lon="5.43764">
        <ele>68.35364</ele>
        <time>2019-06-19 11:36:54,805</time>
      </trkpt>
      <trkpt lat="43.2158" lon="5.43764">
        <ele>70.744385</ele>
        <time>2019-06-19 11:36:56,800</time>
      </trkpt>
      <trkpt lat="43.21576" lon="5.43765">
        <ele>65.8551</ele>
        <time>2019-06-19 11:36:58,805</time>
      </trkpt>
      <trkpt lat="43.21575" lon="5.43766">
        <ele>65.46124</ele>
        <time>2019-06-19 11:36:59,800</time>
      </trkpt>
      <trkpt lat="43.21571" lon="5.43768">
        <ele>64.86603</ele>
        <time>2019-06-19 11:37:02,793</time>
      </trkpt>
      <trkpt lat="43.21567" lon="5.43769">
        <ele>66.49811</ele>
        <time>2019-06-19 11:37:04,819</time>
      </trkpt>
      <trkpt lat="43.21567" lon="5.4377">
        <ele>64.20917</ele>
        <time>2019-06-19 11:37:05,804</time>
      </trkpt>
      <trkpt lat="43.21566" lon="5.43771">
        <ele>65.52085</ele>
        <time>2019-06-19 11:37:06,799</time>
      </trkpt>
      <trkpt lat="43.21564" lon="5.43775">
        <ele>66.835266</ele>
        <time>2019-06-19 11:37:08,805</time>
      </trkpt>
      <trkpt lat="43.21564" lon="5.43776">
        <ele>67.07837</ele>
        <time>2019-06-19 11:37:09,799</time>
      </trkpt>
      <trkpt lat="43.21563" lon="5.43778">
        <ele>67.82373</ele>
        <time>2019-06-19 11:37:10,809</time>
      </trkpt>
      <trkpt lat="43.21563" lon="5.43778">
        <ele>67.794556</ele>
        <time>2019-06-19 11:37:11,790</time>
      </trkpt>
      <trkpt lat="43.21563" lon="5.4378">
        <ele>65.35535</ele>
        <time>2019-06-19 11:37:12,805</time>
      </trkpt>
      <trkpt lat="43.21561" lon="5.43784">
        <ele>65.2312</ele>
        <time>2019-06-19 11:37:15,973</time>
      </trkpt>
      <trkpt lat="43.21559" lon="5.43786">
        <ele>66.16339</ele>
        <time>2019-06-19 11:37:17,791</time>
      </trkpt>
      <trkpt lat="43.21557" lon="5.43787">
        <ele>66.73523</ele>
        <time>2019-06-19 11:37:20,805</time>
      </trkpt>
      <trkpt lat="43.21555" lon="5.43788">
        <ele>67.02985</ele>
        <time>2019-06-19 11:37:21,806</time>
      </trkpt>
      <trkpt lat="43.21553" lon="5.43791">
        <ele>66.14386</ele>
        <time>2019-06-19 11:37:23,806</time>
      </trkpt>
      <trkpt lat="43.21552" lon="5.43792">
        <ele>66.27728</ele>
        <time>2019-06-19 11:37:24,804</time>
      </trkpt>
      <trkpt lat="43.21551" lon="5.43795">
        <ele>66.071655</ele>
        <time>2019-06-19 11:37:25,797</time>
      </trkpt>
      <trkpt lat="43.2155" lon="5.43797">
        <ele>65.82672</ele>
        <time>2019-06-19 11:37:26,804</time>
      </trkpt>
      <trkpt lat="43.2155" lon="5.43798">
        <ele>65.641846</ele>
        <time>2019-06-19 11:37:27,947</time>
      </trkpt>
      <trkpt lat="43.21548" lon="5.43801">
        <ele>66.27368</ele>
        <time>2019-06-19 11:37:29,803</time>
      </trkpt>
      <trkpt lat="43.21544" lon="5.43807">
        <ele>67.49707</ele>
        <time>2019-06-19 11:37:32,794</time>
      </trkpt>
      <trkpt lat="43.21543" lon="5.43809">
        <ele>68.11243</ele>
        <time>2019-06-19 11:37:33,808</time>
      </trkpt>
      <trkpt lat="43.21543" lon="5.43812">
        <ele>68.105286</ele>
        <time>2019-06-19 11:37:34,806</time>
      </trkpt>
      <trkpt lat="43.21542" lon="5.43814">
        <ele>67.76361</ele>
        <time>2019-06-19 11:37:35,804</time>
      </trkpt>
      <trkpt lat="43.21542" lon="5.43816">
        <ele>67.22046</ele>
        <time>2019-06-19 11:37:36,804</time>
      </trkpt>
      <trkpt lat="43.21543" lon="5.43818">
        <ele>67.763</ele>
        <time>2019-06-19 11:37:37,797</time>
      </trkpt>
      <trkpt lat="43.21543" lon="5.43821">
        <ele>69.14496</ele>
        <time>2019-06-19 11:37:38,799</time>
      </trkpt>
      <trkpt lat="43.21542" lon="5.43825">
        <ele>67.40564</ele>
        <time>2019-06-19 11:37:40,802</time>
      </trkpt>
      <trkpt lat="43.21542" lon="5.4383">
        <ele>69.52234</ele>
        <time>2019-06-19 11:37:45,379</time>
      </trkpt>
      <trkpt lat="43.21542" lon="5.43831">
        <ele>69.81842</ele>
        <time>2019-06-19 11:37:46,372</time>
      </trkpt>
      <trkpt lat="43.21543" lon="5.43836">
        <ele>67.73822</ele>
        <time>2019-06-19 11:37:48,374</time>
      </trkpt>
      <trkpt lat="43.21542" lon="5.43838">
        <ele>67.89258</ele>
        <time>2019-06-19 11:37:49,366</time>
      </trkpt>
      <trkpt lat="43.21542" lon="5.43839">
        <ele>67.40564</ele>
        <time>2019-06-19 11:37:50,371</time>
      </trkpt>
      <trkpt lat="43.21541" lon="5.4384">
        <ele>67.762085</ele>
        <time>2019-06-19 11:37:51,377</time>
      </trkpt>
      <trkpt lat="43.21541" lon="5.43841">
        <ele>68.378784</ele>
        <time>2019-06-19 11:37:52,371</time>
      </trkpt>
      <trkpt lat="43.21539" lon="5.43844">
        <ele>68.14545</ele>
        <time>2019-06-19 11:37:55,370</time>
      </trkpt>
      <trkpt lat="43.21539" lon="5.43846">
        <ele>69.06976</ele>
        <time>2019-06-19 11:37:56,374</time>
      </trkpt>
      <trkpt lat="43.21538" lon="5.43847">
        <ele>69.12988</ele>
        <time>2019-06-19 11:37:57,375</time>
      </trkpt>
      <trkpt lat="43.21537" lon="5.4385">
        <ele>70.9812</ele>
        <time>2019-06-19 11:37:59,049</time>
      </trkpt>
      <trkpt lat="43.21536" lon="5.43852">
        <ele>68.17322</ele>
        <time>2019-06-19 11:38:00,252</time>
      </trkpt>
      <trkpt lat="43.21535" lon="5.43854">
        <ele>69.79657</ele>
        <time>2019-06-19 11:38:02,047</time>
      </trkpt>
      <trkpt lat="43.21535" lon="5.43856">
        <ele>69.68109</ele>
        <time>2019-06-19 11:38:03,043</time>
      </trkpt>
      <trkpt lat="43.21535" lon="5.43856">
        <ele>69.32184</ele>
        <time>2019-06-19 11:38:04,035</time>
      </trkpt>
      <trkpt lat="43.21535" lon="5.43856">
        <ele>69.41583</ele>
        <time>2019-06-19 11:38:05,033</time>
      </trkpt>
      <trkpt lat="43.21535" lon="5.43857">
        <ele>69.61047</ele>
        <time>2019-06-19 11:38:06,049</time>
      </trkpt>
      <trkpt lat="43.21535" lon="5.43858">
        <ele>69.60126</ele>
        <time>2019-06-19 11:38:07,032</time>
      </trkpt>
      <trkpt lat="43.21535" lon="5.43859">
        <ele>69.28418</ele>
        <time>2019-06-19 11:38:08,041</time>
      </trkpt>
      <trkpt lat="43.21535" lon="5.43861">
        <ele>68.26013</ele>
        <time>2019-06-19 11:38:09,038</time>
      </trkpt>
      <trkpt lat="43.21534" lon="5.43865">
        <ele>69.79657</ele>
        <time>2019-06-19 11:38:11,040</time>
      </trkpt>
      <trkpt lat="43.21533" lon="5.43866">
        <ele>67.87988</ele>
        <time>2019-06-19 11:38:12,032</time>
      </trkpt>
      <trkpt lat="43.21532" lon="5.43867">
        <ele>67.93756</ele>
        <time>2019-06-19 11:38:13,049</time>
      </trkpt>
      <trkpt lat="43.21531" lon="5.43869">
        <ele>68.627686</ele>
        <time>2019-06-19 11:38:14,041</time>
      </trkpt>
      <trkpt lat="43.21529" lon="5.4387">
        <ele>66.095215</ele>
        <time>2019-06-19 11:38:15,041</time>
      </trkpt>
      <trkpt lat="43.21526" lon="5.4388">
        <ele>63.734924</ele>
        <time>2019-06-19 11:38:19,036</time>
      </trkpt>
      <trkpt lat="43.21525" lon="5.43887">
        <ele>67.87988</ele>
        <time>2019-06-19 11:38:23,041</time>
      </trkpt>
      <trkpt lat="43.21524" lon="5.43893">
        <ele>63.270447</ele>
        <time>2019-06-19 11:38:26,058</time>
      </trkpt>
      <trkpt lat="43.21524" lon="5.43895">
        <ele>62.81842</ele>
        <time>2019-06-19 11:38:27,042</time>
      </trkpt>
      <trkpt lat="43.21524" lon="5.43896">
        <ele>63.12384</ele>
        <time>2019-06-19 11:38:28,027</time>
      </trkpt>
      <trkpt lat="43.21524" lon="5.43897">
        <ele>63.232788</ele>
        <time>2019-06-19 11:38:29,071</time>
      </trkpt>
      <trkpt lat="43.21524" lon="5.43899">
        <ele>62.911438</ele>
        <time>2019-06-19 11:38:30,055</time>
      </trkpt>
      <trkpt lat="43.21524" lon="5.43902">
        <ele>62.470215</ele>
        <time>2019-06-19 11:38:31,056</time>
      </trkpt>
      <trkpt lat="43.21524" lon="5.43906">
        <ele>64.70459</ele>
        <time>2019-06-19 11:38:33,059</time>
      </trkpt>
      <trkpt lat="43.21523" lon="5.43908">
        <ele>61.91516</ele>
        <time>2019-06-19 11:38:34,040</time>
      </trkpt>
      <trkpt lat="43.21522" lon="5.43909">
        <ele>62.299072</ele>
        <time>2019-06-19 11:38:35,058</time>
      </trkpt>
      <trkpt lat="43.21521" lon="5.43911">
        <ele>62.22583</ele>
        <time>2019-06-19 11:38:36,043</time>
      </trkpt>
      <trkpt lat="43.2152" lon="5.43912">
        <ele>61.698303</ele>
        <time>2019-06-19 11:38:37,050</time>
      </trkpt>
      <trkpt lat="43.21518" lon="5.43913">
        <ele>61.981506</ele>
        <time>2019-06-19 11:38:38,061</time>
      </trkpt>
      <trkpt lat="43.21518" lon="5.43913">
        <ele>61.080505</ele>
        <time>2019-06-19 11:38:39,056</time>
      </trkpt>
      <trkpt lat="43.21516" lon="5.43914">
        <ele>62.146973</ele>
        <time>2019-06-19 11:38:41,052</time>
      </trkpt>
      <trkpt lat="43.21515" lon="5.43915">
        <ele>63.057312</ele>
        <time>2019-06-19 11:38:42,057</time>
      </trkpt>
      <trkpt lat="43.21514" lon="5.43916">
        <ele>61.91516</ele>
        <time>2019-06-19 11:38:43,053</time>
      </trkpt>
      <trkpt lat="43.21512" lon="5.43916">
        <ele>63.38446</ele>
        <time>2019-06-19 11:38:44,044</time>
      </trkpt>
      <trkpt lat="43.21511" lon="5.43917">
        <ele>62.83838</ele>
        <time>2019-06-19 11:38:45,227</time>
      </trkpt>
      <trkpt lat="43.2151" lon="5.43916">
        <ele>64.17993</ele>
        <time>2019-06-19 11:38:46,048</time>
      </trkpt>
      <trkpt lat="43.21508" lon="5.43916">
        <ele>64.51813</ele>
        <time>2019-06-19 11:38:47,289</time>
      </trkpt>
      <trkpt lat="43.21506" lon="5.43915">
        <ele>64.920654</ele>
        <time>2019-06-19 11:38:49,029</time>
      </trkpt>
      <trkpt lat="43.21504" lon="5.43915">
        <ele>67.67639</ele>
        <time>2019-06-19 11:38:51,041</time>
      </trkpt>
      <trkpt lat="43.21504" lon="5.43916">
        <ele>66.77704</ele>
        <time>2019-06-19 11:38:52,040</time>
      </trkpt>
      <trkpt lat="43.21502" lon="5.43919">
        <ele>65.20392</ele>
        <time>2019-06-19 11:38:55,032</time>
      </trkpt>
      <trkpt lat="43.21501" lon="5.43921">
        <ele>64.33545</ele>
        <time>2019-06-19 11:38:56,035</time>
      </trkpt>
      <trkpt lat="43.215" lon="5.43921">
        <ele>65.03534</ele>
        <time>2019-06-19 11:38:57,105</time>
      </trkpt>
      <trkpt lat="43.21494" lon="5.43927">
        <ele>65.20392</ele>
        <time>2019-06-19 11:39:06,040</time>
      </trkpt>
      <trkpt lat="43.21492" lon="5.43929">
        <ele>67.2616</ele>
        <time>2019-06-19 11:39:08,043</time>
      </trkpt>
      <trkpt lat="43.21491" lon="5.4393">
        <ele>67.20508</ele>
        <time>2019-06-19 11:39:09,043</time>
      </trkpt>
      <trkpt lat="43.2149" lon="5.43931">
        <ele>67.893005</ele>
        <time>2019-06-19 11:39:10,023</time>
      </trkpt>
      <trkpt lat="43.21489" lon="5.43932">
        <ele>69.46344</ele>
        <time>2019-06-19 11:39:11,052</time>
      </trkpt>
      <trkpt lat="43.21488" lon="5.43932">
        <ele>69.450806</ele>
        <time>2019-06-19 11:39:12,053</time>
      </trkpt>
      <trkpt lat="43.21489" lon="5.43932">
        <ele>69.63049</ele>
        <time>2019-06-19 11:39:13,052</time>
      </trkpt>
      <trkpt lat="43.21488" lon="5.43934">
        <ele>71.56848</ele>
        <time>2019-06-19 11:39:22,038</time>
      </trkpt>
      <trkpt lat="43.21487" lon="5.43934">
        <ele>71.83795</ele>
        <time>2019-06-19 11:39:23,041</time>
      </trkpt>
      <trkpt lat="43.21486" lon="5.43934">
        <ele>71.90228</ele>
        <time>2019-06-19 11:39:24,410</time>
      </trkpt>
      <trkpt lat="43.2148" lon="5.43934">
        <ele>69.548035</ele>
        <time>2019-06-19 11:39:27,280</time>
      </trkpt>
      <trkpt lat="43.21475" lon="5.43933">
        <ele>70.24689</ele>
        <time>2019-06-19 11:39:29,038</time>
      </trkpt>
      <trkpt lat="43.21474" lon="5.43933">
        <ele>70.3208</ele>
        <time>2019-06-19 11:39:30,316</time>
      </trkpt>
      <trkpt lat="43.21471" lon="5.43934">
        <ele>70.23157</ele>
        <time>2019-06-19 11:39:32,052</time>
      </trkpt>
      <trkpt lat="43.2147" lon="5.43934">
        <ele>71.31897</ele>
        <time>2019-06-19 11:39:33,038</time>
      </trkpt>
      <trkpt lat="43.21469" lon="5.43934">
        <ele>71.67682</ele>
        <time>2019-06-19 11:39:34,282</time>
      </trkpt>
      <trkpt lat="43.21468" lon="5.43934">
        <ele>71.88605</ele>
        <time>2019-06-19 11:39:36,040</time>
      </trkpt>
      <trkpt lat="43.21465" lon="5.43935">
        <ele>70.02429</ele>
        <time>2019-06-19 11:39:38,282</time>
      </trkpt>
      <trkpt lat="43.21458" lon="5.43939">
        <ele>70.23157</ele>
        <time>2019-06-19 11:39:43,309</time>
      </trkpt>
      <trkpt lat="43.21454" lon="5.43942">
        <ele>64.64661</ele>
        <time>2019-06-19 11:39:46,038</time>
      </trkpt>
      <trkpt lat="43.21453" lon="5.43943">
        <ele>65.32715</ele>
        <time>2019-06-19 11:39:47,322</time>
      </trkpt>
      <trkpt lat="43.21451" lon="5.43945">
        <ele>65.69354</ele>
        <time>2019-06-19 11:39:49,062</time>
      </trkpt>
      <trkpt lat="43.2145" lon="5.43946">
        <ele>64.57739</ele>
        <time>2019-06-19 11:39:50,029</time>
      </trkpt>
      <trkpt lat="43.21449" lon="5.43947">
        <ele>64.97064</ele>
        <time>2019-06-19 11:39:53,038</time>
      </trkpt>
      <trkpt lat="43.21448" lon="5.43948">
        <ele>64.23059</ele>
        <time>2019-06-19 11:39:56,043</time>
      </trkpt>
      <trkpt lat="43.21447" lon="5.43948">
        <ele>67.38617</ele>
        <time>2019-06-19 11:39:57,024</time>
      </trkpt>
      <trkpt lat="43.21447" lon="5.43949">
        <ele>67.30188</ele>
        <time>2019-06-19 11:39:58,040</time>
      </trkpt>
      <trkpt lat="43.21446" lon="5.43951">
        <ele>67.38226</ele>
        <time>2019-06-19 11:39:59,038</time>
      </trkpt>
      <trkpt lat="43.21445" lon="5.43953">
        <ele>68.01941</ele>
        <time>2019-06-19 11:40:01,035</time>
      </trkpt>
      <trkpt lat="43.21445" lon="5.43954">
        <ele>68.40735</ele>
        <time>2019-06-19 11:40:02,036</time>
      </trkpt>
      <trkpt lat="43.21443" lon="5.43955">
        <ele>68.84491</ele>
        <time>2019-06-19 11:40:03,026</time>
      </trkpt>
      <trkpt lat="43.21443" lon="5.43956">
        <ele>68.59796</ele>
        <time>2019-06-19 11:40:04,035</time>
      </trkpt>
      <trkpt lat="43.21441" lon="5.43958">
        <ele>68.60419</ele>
        <time>2019-06-19 11:40:05,034</time>
      </trkpt>
      <trkpt lat="43.21441" lon="5.43959">
        <ele>67.38617</ele>
        <time>2019-06-19 11:40:06,294</time>
      </trkpt>
      <trkpt lat="43.2144" lon="5.43961">
        <ele>68.453064</ele>
        <time>2019-06-19 11:40:08,039</time>
      </trkpt>
      <trkpt lat="43.21439" lon="5.43963">
        <ele>66.64368</ele>
        <time>2019-06-19 11:40:09,036</time>
      </trkpt>
      <trkpt lat="43.21439" lon="5.43965">
        <ele>65.80127</ele>
        <time>2019-06-19 11:40:10,243</time>
      </trkpt>
      <trkpt lat="43.21438" lon="5.43967">
        <ele>66.11835</ele>
        <time>2019-06-19 11:40:12,039</time>
      </trkpt>
      <trkpt lat="43.21436" lon="5.43971">
        <ele>65.51489</ele>
        <time>2019-06-19 11:40:15,032</time>
      </trkpt>
      <trkpt lat="43.21435" lon="5.43972">
        <ele>66.37775</ele>
        <time>2019-06-19 11:40:16,312</time>
      </trkpt>
      <trkpt lat="43.21433" lon="5.43974">
        <ele>67.17169</ele>
        <time>2019-06-19 11:40:18,052</time>
      </trkpt>
      <trkpt lat="43.21433" lon="5.43976">
        <ele>67.433105</ele>
        <time>2019-06-19 11:40:19,028</time>
      </trkpt>
      <trkpt lat="43.21432" lon="5.43976">
        <ele>67.2468</ele>
        <time>2019-06-19 11:40:20,051</time>
      </trkpt>
      <trkpt lat="43.21432" lon="5.43977">
        <ele>68.5495</ele>
        <time>2019-06-19 11:40:21,292</time>
      </trkpt>
      <trkpt lat="43.21431" lon="5.43978">
        <ele>69.27576</ele>
        <time>2019-06-19 11:40:23,036</time>
      </trkpt>
      <trkpt lat="43.2143" lon="5.4398">
        <ele>70.265015</ele>
        <time>2019-06-19 11:40:25,031</time>
      </trkpt>
      <trkpt lat="43.21429" lon="5.43981">
        <ele>69.82831</ele>
        <time>2019-06-19 11:40:26,050</time>
      </trkpt>
      <trkpt lat="43.21426" lon="5.43985">
        <ele>65.16345</ele>
        <time>2019-06-19 11:40:29,262</time>
      </trkpt>
      <trkpt lat="43.21422" lon="5.43989">
        <ele>68.5495</ele>
        <time>2019-06-19 11:40:32,305</time>
      </trkpt>
      <trkpt lat="43.21419" lon="5.43991">
        <ele>64.38617</ele>
        <time>2019-06-19 11:40:34,047</time>
      </trkpt>
      <trkpt lat="43.21417" lon="5.43993">
        <ele>64.80029</ele>
        <time>2019-06-19 11:40:35,033</time>
      </trkpt>
      <trkpt lat="43.21417" lon="5.43994">
        <ele>65.58057</ele>
        <time>2019-06-19 11:40:36,314</time>
      </trkpt>
      <trkpt lat="43.21417" lon="5.43998">
        <ele>66.8645</ele>
        <time>2019-06-19 11:40:38,062</time>
      </trkpt>
      <trkpt lat="43.21413" lon="5.44004">
        <ele>64.5907</ele>
        <time>2019-06-19 11:40:43,033</time>
      </trkpt>
      <trkpt lat="43.21413" lon="5.44006">
        <ele>64.183716</ele>
        <time>2019-06-19 11:40:44,164</time>
      </trkpt>
      <trkpt lat="43.21414" lon="5.4401">
        <ele>63.46411</ele>
        <time>2019-06-19 11:40:47,034</time>
      </trkpt>
      <trkpt lat="43.21414" lon="5.44012">
        <ele>63.717224</ele>
        <time>2019-06-19 11:40:50,042</time>
      </trkpt>
      <trkpt lat="43.21413" lon="5.44013">
        <ele>64.02753</ele>
        <time>2019-06-19 11:40:51,280</time>
      </trkpt>
      <trkpt lat="43.21412" lon="5.44015">
        <ele>65.553955</ele>
        <time>2019-06-19 11:40:53,042</time>
      </trkpt>
      <trkpt lat="43.21411" lon="5.44016">
        <ele>66.36066</ele>
        <time>2019-06-19 11:40:54,047</time>
      </trkpt>
      <trkpt lat="43.2141" lon="5.44017">
        <ele>66.354004</ele>
        <time>2019-06-19 11:40:55,045</time>
      </trkpt>
      <trkpt lat="43.21409" lon="5.44017">
        <ele>65.279724</ele>
        <time>2019-06-19 11:40:56,028</time>
      </trkpt>
      <trkpt lat="43.21408" lon="5.44018">
        <ele>63.46411</ele>
        <time>2019-06-19 11:40:57,068</time>
      </trkpt>
      <trkpt lat="43.21408" lon="5.4402">
        <ele>62.76245</ele>
        <time>2019-06-19 11:40:58,043</time>
      </trkpt>
      <trkpt lat="43.21408" lon="5.44021">
        <ele>60.310425</ele>
        <time>2019-06-19 11:40:59,036</time>
      </trkpt>
      <trkpt lat="43.21407" lon="5.44023">
        <ele>60.818237</ele>
        <time>2019-06-19 11:41:01,189</time>
      </trkpt>
      <trkpt lat="43.21408" lon="5.44027">
        <ele>59.28607</ele>
        <time>2019-06-19 11:41:03,039</time>
      </trkpt>
      <trkpt lat="43.21407" lon="5.44028">
        <ele>57.946106</ele>
        <time>2019-06-19 11:41:04,041</time>
      </trkpt>
      <trkpt lat="43.21407" lon="5.4403">
        <ele>58.016235</ele>
        <time>2019-06-19 11:41:05,128</time>
      </trkpt>
      <trkpt lat="43.21405" lon="5.44032">
        <ele>57.711426</ele>
        <time>2019-06-19 11:41:07,252</time>
      </trkpt>
      <trkpt lat="43.21404" lon="5.44044">
        <ele>58.097656</ele>
        <time>2019-06-19 11:41:17,278</time>
      </trkpt>
      <trkpt lat="43.21406" lon="5.44047">
        <ele>59.970337</ele>
        <time>2019-06-19 11:41:19,032</time>
      </trkpt>
      <trkpt lat="43.21406" lon="5.44049">
        <ele>60.858704</ele>
        <time>2019-06-19 11:41:20,029</time>
      </trkpt>
      <trkpt lat="43.21407" lon="5.44051">
        <ele>60.45172</ele>
        <time>2019-06-19 11:41:21,038</time>
      </trkpt>
      <trkpt lat="43.21407" lon="5.44053">
        <ele>59.73932</ele>
        <time>2019-06-19 11:41:22,035</time>
      </trkpt>
      <trkpt lat="43.21407" lon="5.44055">
        <ele>60.625366</ele>
        <time>2019-06-19 11:41:23,039</time>
      </trkpt>
      <trkpt lat="43.21408" lon="5.4407">
        <ele>59.917603</ele>
        <time>2019-06-19 11:41:31,040</time>
      </trkpt>
      <trkpt lat="43.21407" lon="5.44071">
        <ele>59.70575</ele>
        <time>2019-06-19 11:41:32,038</time>
      </trkpt>
      <trkpt lat="43.21407" lon="5.44072">
        <ele>59.41162</ele>
        <time>2019-06-19 11:41:33,020</time>
      </trkpt>
      <trkpt lat="43.21404" lon="5.44079">
        <ele>59.90381</ele>
        <time>2019-06-19 11:41:37,309</time>
      </trkpt>
      <trkpt lat="43.214" lon="5.44081">
        <ele>59.64044</ele>
        <time>2019-06-19 11:41:39,043</time>
      </trkpt>
      <trkpt lat="43.21398" lon="5.44081">
        <ele>60.13733</ele>
        <time>2019-06-19 11:41:40,028</time>
      </trkpt>
      <trkpt lat="43.21394" lon="5.44083">
        <ele>59.394836</ele>
        <time>2019-06-19 11:41:43,035</time>
      </trkpt>
      <trkpt lat="43.21394" lon="5.44084">
        <ele>60.243652</ele>
        <time>2019-06-19 11:41:44,057</time>
      </trkpt>
      <trkpt lat="43.21393" lon="5.44086">
        <ele>61.58612</ele>
        <time>2019-06-19 11:41:45,035</time>
      </trkpt>
      <trkpt lat="43.21393" lon="5.44088">
        <ele>60.384155</ele>
        <time>2019-06-19 11:41:46,042</time>
      </trkpt>
      <trkpt lat="43.21394" lon="5.44092">
        <ele>59.334473</ele>
        <time>2019-06-19 11:41:48,033</time>
      </trkpt>
      <trkpt lat="43.21393" lon="5.44096">
        <ele>58.41919</ele>
        <time>2019-06-19 11:41:50,038</time>
      </trkpt>
      <trkpt lat="43.21392" lon="5.44098">
        <ele>57.86371</ele>
        <time>2019-06-19 11:41:51,033</time>
      </trkpt>
      <trkpt lat="43.2139" lon="5.44103">
        <ele>57.553223</ele>
        <time>2019-06-19 11:41:54,044</time>
      </trkpt>
      <trkpt lat="43.2139" lon="5.44105">
        <ele>57.591064</ele>
        <time>2019-06-19 11:41:55,037</time>
      </trkpt>
      <trkpt lat="43.21386" lon="5.44104">
        <ele>56.740723</ele>
        <time>2019-06-19 11:41:58,044</time>
      </trkpt>
      <trkpt lat="43.21385" lon="5.44104">
        <ele>57.233337</ele>
        <time>2019-06-19 11:41:59,034</time>
      </trkpt>
      <trkpt lat="43.21383" lon="5.44105">
        <ele>56.385742</ele>
        <time>2019-06-19 11:42:00,195</time>
      </trkpt>
      <trkpt lat="43.2138" lon="5.44107">
        <ele>55.980408</ele>
        <time>2019-06-19 11:42:02,034</time>
      </trkpt>
      <trkpt lat="43.21378" lon="5.44109">
        <ele>55.09973</ele>
        <time>2019-06-19 11:42:04,042</time>
      </trkpt>
      <trkpt lat="43.21378" lon="5.44111">
        <ele>54.099854</ele>
        <time>2019-06-19 11:42:05,040</time>
      </trkpt>
      <trkpt lat="43.21377" lon="5.44112">
        <ele>54.098755</ele>
        <time>2019-06-19 11:42:06,031</time>
      </trkpt>
      <trkpt lat="43.21376" lon="5.44114">
        <ele>55.0307</ele>
        <time>2019-06-19 11:42:08,063</time>
      </trkpt>
      <trkpt lat="43.21376" lon="5.44114">
        <ele>55.997253</ele>
        <time>2019-06-19 11:42:09,023</time>
      </trkpt>
      <trkpt lat="43.21374" lon="5.44115">
        <ele>55.352356</ele>
        <time>2019-06-19 11:42:11,030</time>
      </trkpt>
      <trkpt lat="43.21374" lon="5.44117">
        <ele>55.719177</ele>
        <time>2019-06-19 11:42:12,032</time>
      </trkpt>
      <trkpt lat="43.21373" lon="5.44118">
        <ele>55.480896</ele>
        <time>2019-06-19 11:42:13,024</time>
      </trkpt>
      <trkpt lat="43.21372" lon="5.44119">
        <ele>55.061707</ele>
        <time>2019-06-19 11:42:14,166</time>
      </trkpt>
      <trkpt lat="43.21369" lon="5.44125">
        <ele>55.94702</ele>
        <time>2019-06-19 11:42:17,026</time>
      </trkpt>
      <trkpt lat="43.21368" lon="5.44125">
        <ele>55.0307</ele>
        <time>2019-06-19 11:42:18,033</time>
      </trkpt>
      <trkpt lat="43.21367" lon="5.44126">
        <ele>56.669556</ele>
        <time>2019-06-19 11:42:19,036</time>
      </trkpt>
      <trkpt lat="43.21363" lon="5.44127">
        <ele>56.819824</ele>
        <time>2019-06-19 11:42:22,031</time>
      </trkpt>
      <trkpt lat="43.21362" lon="5.44127">
        <ele>55.812744</ele>
        <time>2019-06-19 11:42:23,177</time>
      </trkpt>
      <trkpt lat="43.21358" lon="5.44128">
        <ele>53.8869</ele>
        <time>2019-06-19 11:42:28,031</time>
      </trkpt>
      <trkpt lat="43.21356" lon="5.44129">
        <ele>54.492676</ele>
        <time>2019-06-19 11:42:30,030</time>
      </trkpt>
      <trkpt lat="43.21355" lon="5.4413">
        <ele>55.108337</ele>
        <time>2019-06-19 11:42:31,031</time>
      </trkpt>
      <trkpt lat="43.21353" lon="5.44131">
        <ele>56.167053</ele>
        <time>2019-06-19 11:42:33,032</time>
      </trkpt>
      <trkpt lat="43.21352" lon="5.44132">
        <ele>56.918274</ele>
        <time>2019-06-19 11:42:34,036</time>
      </trkpt>
      <trkpt lat="43.21349" lon="5.44132">
        <ele>56.2016</ele>
        <time>2019-06-19 11:42:36,033</time>
      </trkpt>
      <trkpt lat="43.21344" lon="5.44134">
        <ele>56.839172</ele>
        <time>2019-06-19 11:42:39,041</time>
      </trkpt>
      <trkpt lat="43.21343" lon="5.44134">
        <ele>56.938538</ele>
        <time>2019-06-19 11:42:40,035</time>
      </trkpt>
      <trkpt lat="43.21342" lon="5.44135">
        <ele>57.527832</ele>
        <time>2019-06-19 11:42:41,297</time>
      </trkpt>
      <trkpt lat="43.2134" lon="5.44137">
        <ele>59.240295</ele>
        <time>2019-06-19 11:42:43,035</time>
      </trkpt>
      <trkpt lat="43.21339" lon="5.44138">
        <ele>59.92859</ele>
        <time>2019-06-19 11:42:44,040</time>
      </trkpt>
      <trkpt lat="43.21338" lon="5.44139">
        <ele>60.237732</ele>
        <time>2019-06-19 11:42:45,297</time>
      </trkpt>
      <trkpt lat="43.21336" lon="5.44142">
        <ele>61.80719</ele>
        <time>2019-06-19 11:42:47,036</time>
      </trkpt>
      <trkpt lat="43.21335" lon="5.44144">
        <ele>60.539185</ele>
        <time>2019-06-19 11:42:48,035</time>
      </trkpt>
      <trkpt lat="43.21334" lon="5.44146">
        <ele>59.719055</ele>
        <time>2019-06-19 11:42:49,033</time>
      </trkpt>
      <trkpt lat="43.21334" lon="5.44147">
        <ele>59.407227</ele>
        <time>2019-06-19 11:42:51,300</time>
      </trkpt>
      <trkpt lat="43.21331" lon="5.44151">
        <ele>60.237732</ele>
        <time>2019-06-19 11:42:53,045</time>
      </trkpt>
      <trkpt lat="43.21331" lon="5.44153">
        <ele>56.639343</ele>
        <time>2019-06-19 11:42:54,054</time>
      </trkpt>
      <trkpt lat="43.2133" lon="5.44155">
        <ele>55.505615</ele>
        <time>2019-06-19 11:42:55,038</time>
      </trkpt>
      <trkpt lat="43.21329" lon="5.44157">
        <ele>57.074097</ele>
        <time>2019-06-19 11:42:57,036</time>
      </trkpt>
      <trkpt lat="43.21328" lon="5.4416">
        <ele>56.088745</ele>
        <time>2019-06-19 11:43:00,040</time>
      </trkpt>
      <trkpt lat="43.21328" lon="5.44161">
        <ele>55.598022</ele>
        <time>2019-06-19 11:43:02,032</time>
      </trkpt>
      <trkpt lat="43.21327" lon="5.44163">
        <ele>56.639343</ele>
        <time>2019-06-19 11:43:03,043</time>
      </trkpt>
      <trkpt lat="43.21327" lon="5.44166">
        <ele>55.163208</ele>
        <time>2019-06-19 11:43:05,039</time>
      </trkpt>
      <trkpt lat="43.21325" lon="5.4418">
        <ele>54.76758</ele>
        <time>2019-06-19 11:43:11,289</time>
      </trkpt>
      <trkpt lat="43.21323" lon="5.44185">
        <ele>51.69049</ele>
        <time>2019-06-19 11:43:13,032</time>
      </trkpt>
      <trkpt lat="43.21322" lon="5.44192">
        <ele>53.86737</ele>
        <time>2019-06-19 11:43:17,047</time>
      </trkpt>
      <trkpt lat="43.21322" lon="5.44194">
        <ele>53.636414</ele>
        <time>2019-06-19 11:43:18,037</time>
      </trkpt>
      <trkpt lat="43.21321" lon="5.44196">
        <ele>54.4422</ele>
        <time>2019-06-19 11:43:19,030</time>
      </trkpt>
      <trkpt lat="43.21321" lon="5.44197">
        <ele>54.632935</ele>
        <time>2019-06-19 11:43:20,031</time>
      </trkpt>
      <trkpt lat="43.21321" lon="5.44198">
        <ele>54.70453</ele>
        <time>2019-06-19 11:43:21,040</time>
      </trkpt>
      <trkpt lat="43.21321" lon="5.44199">
        <ele>55.432983</ele>
        <time>2019-06-19 11:43:22,273</time>
      </trkpt>
      <trkpt lat="43.21321" lon="5.44202">
        <ele>54.817627</ele>
        <time>2019-06-19 11:43:24,046</time>
      </trkpt>
      <trkpt lat="43.2132" lon="5.44206">
        <ele>55.284363</ele>
        <time>2019-06-19 11:43:27,034</time>
      </trkpt>
      <trkpt lat="43.2132" lon="5.44207">
        <ele>54.593384</ele>
        <time>2019-06-19 11:43:28,042</time>
      </trkpt>
      <trkpt lat="43.21319" lon="5.44212">
        <ele>50.89099</ele>
        <time>2019-06-19 11:43:31,052</time>
      </trkpt>
      <trkpt lat="43.21319" lon="5.44221">
        <ele>49.05011</ele>
        <time>2019-06-19 11:43:35,047</time>
      </trkpt>
      <trkpt lat="43.21319" lon="5.44222">
        <ele>48.922302</ele>
        <time>2019-06-19 11:43:36,043</time>
      </trkpt>
      <trkpt lat="43.21319" lon="5.44224">
        <ele>49.121704</ele>
        <time>2019-06-19 11:43:37,304</time>
      </trkpt>
      <trkpt lat="43.21318" lon="5.44226">
        <ele>46.794495</ele>
        <time>2019-06-19 11:43:39,036</time>
      </trkpt>
      <trkpt lat="43.21318" lon="5.44228">
        <ele>45.912415</ele>
        <time>2019-06-19 11:43:40,032</time>
      </trkpt>
      <trkpt lat="43.21318" lon="5.44229">
        <ele>46.184692</ele>
        <time>2019-06-19 11:43:41,033</time>
      </trkpt>
      <trkpt lat="43.21317" lon="5.44231">
        <ele>46.764038</ele>
        <time>2019-06-19 11:43:44,040</time>
      </trkpt>
      <trkpt lat="43.21317" lon="5.44232">
        <ele>47.28003</ele>
        <time>2019-06-19 11:43:45,038</time>
      </trkpt>
      <trkpt lat="43.21317" lon="5.44233">
        <ele>47.613953</ele>
        <time>2019-06-19 11:43:46,242</time>
      </trkpt>
      <trkpt lat="43.21316" lon="5.44235">
        <ele>47.86676</ele>
        <time>2019-06-19 11:43:48,039</time>
      </trkpt>
      <trkpt lat="43.21315" lon="5.44236">
        <ele>48.6073</ele>
        <time>2019-06-19 11:43:49,265</time>
      </trkpt>
      <trkpt lat="43.21316" lon="5.44239">
        <ele>49.02765</ele>
        <time>2019-06-19 11:43:51,041</time>
      </trkpt>
      <trkpt lat="43.21316" lon="5.44244">
        <ele>46.184692</ele>
        <time>2019-06-19 11:43:54,041</time>
      </trkpt>
      <trkpt lat="43.21317" lon="5.44249">
        <ele>46.258423</ele>
        <time>2019-06-19 11:43:57,037</time>
      </trkpt>
      <trkpt lat="43.21317" lon="5.44251">
        <ele>46.215454</ele>
        <time>2019-06-19 11:43:58,040</time>
      </trkpt>
      <trkpt lat="43.21317" lon="5.44252">
        <ele>45.671143</ele>
        <time>2019-06-19 11:43:59,038</time>
      </trkpt>
      <trkpt lat="43.21316" lon="5.44254">
        <ele>45.780212</ele>
        <time>2019-06-19 11:44:00,029</time>
      </trkpt>
      <trkpt lat="43.21316" lon="5.44255">
        <ele>46.710876</ele>
        <time>2019-06-19 11:44:01,036</time>
      </trkpt>
      <trkpt lat="43.21317" lon="5.44261">
        <ele>48.297424</ele>
        <time>2019-06-19 11:44:06,036</time>
      </trkpt>
      <trkpt lat="43.21317" lon="5.44263">
        <ele>48.51123</ele>
        <time>2019-06-19 11:44:07,043</time>
      </trkpt>
      <trkpt lat="43.21315" lon="5.44267">
        <ele>46.59143</ele>
        <time>2019-06-19 11:44:10,071</time>
      </trkpt>
      <trkpt lat="43.21315" lon="5.44269">
        <ele>45.41156</ele>
        <time>2019-06-19 11:44:11,098</time>
      </trkpt>
      <trkpt lat="43.21314" lon="5.44273">
        <ele>49.940857</ele>
        <time>2019-06-19 11:44:15,030</time>
      </trkpt>
      <trkpt lat="43.21314" lon="5.44274">
        <ele>47.871296</ele>
        <time>2019-06-19 11:44:16,035</time>
      </trkpt>
      <trkpt lat="43.21313" lon="5.44276">
        <ele>49.528687</ele>
        <time>2019-06-19 11:44:17,306</time>
      </trkpt>
      <trkpt lat="43.21314" lon="5.44276">
        <ele>48.95343</ele>
        <time>2019-06-19 11:44:19,028</time>
      </trkpt>
      <trkpt lat="43.21315" lon="5.44278">
        <ele>46.7666</ele>
        <time>2019-06-19 11:44:20,027</time>
      </trkpt>
      <trkpt lat="43.21315" lon="5.44279">
        <ele>47.5083</ele>
        <time>2019-06-19 11:44:21,034</time>
      </trkpt>
      <trkpt lat="43.21315" lon="5.44281">
        <ele>47.04059</ele>
        <time>2019-06-19 11:44:22,069</time>
      </trkpt>
      <trkpt lat="43.21315" lon="5.44283">
        <ele>46.763794</ele>
        <time>2019-06-19 11:44:23,032</time>
      </trkpt>
      <trkpt lat="43.21315" lon="5.44284">
        <ele>48.776367</ele>
        <time>2019-06-19 11:44:24,032</time>
      </trkpt>
      <trkpt lat="43.21315" lon="5.44286">
        <ele>47.66626</ele>
        <time>2019-06-19 11:44:25,033</time>
      </trkpt>
      <trkpt lat="43.21315" lon="5.44287">
        <ele>45.57892</ele>
        <time>2019-06-19 11:44:26,121</time>
      </trkpt>
      <trkpt lat="43.21315" lon="5.44288">
        <ele>49.528687</ele>
        <time>2019-06-19 11:44:27,026</time>
      </trkpt>
      <trkpt lat="43.21314" lon="5.4429">
        <ele>46.99048</ele>
        <time>2019-06-19 11:44:28,295</time>
      </trkpt>
      <trkpt lat="43.21313" lon="5.44293">
        <ele>48.378235</ele>
        <time>2019-06-19 11:44:30,029</time>
      </trkpt>
      <trkpt lat="43.21312" lon="5.44294">
        <ele>48.404846</ele>
        <time>2019-06-19 11:44:31,034</time>
      </trkpt>
      <trkpt lat="43.21312" lon="5.44295">
        <ele>48.884766</ele>
        <time>2019-06-19 11:44:32,028</time>
      </trkpt>
      <trkpt lat="43.21312" lon="5.44296">
        <ele>47.27997</ele>
        <time>2019-06-19 11:44:33,097</time>
      </trkpt>
      <trkpt lat="43.2131" lon="5.44298">
        <ele>44.41516</ele>
        <time>2019-06-19 11:44:34,033</time>
      </trkpt>
      <trkpt lat="43.21307" lon="5.443">
        <ele>42.165527</ele>
        <time>2019-06-19 11:44:42,029</time>
      </trkpt>
      <trkpt lat="43.21306" lon="5.44302">
        <ele>43.308716</ele>
        <time>2019-06-19 11:44:44,239</time>
      </trkpt>
      <trkpt lat="43.21306" lon="5.44304">
        <ele>44.489014</ele>
        <time>2019-06-19 11:44:46,026</time>
      </trkpt>
      <trkpt lat="43.21306" lon="5.44306">
        <ele>44.54834</ele>
        <time>2019-06-19 11:44:47,122</time>
      </trkpt>
      <trkpt lat="43.21306" lon="5.44307">
        <ele>44.04004</ele>
        <time>2019-06-19 11:44:48,031</time>
      </trkpt>
      <trkpt lat="43.21306" lon="5.44308">
        <ele>42.155945</ele>
        <time>2019-06-19 11:44:49,179</time>
      </trkpt>
      <trkpt lat="43.21306" lon="5.44309">
        <ele>45.29773</ele>
        <time>2019-06-19 11:44:51,221</time>
      </trkpt>
      <trkpt lat="43.21306" lon="5.44311">
        <ele>45.607056</ele>
        <time>2019-06-19 11:44:53,029</time>
      </trkpt>
      <trkpt lat="43.21306" lon="5.44312">
        <ele>45.90326</ele>
        <time>2019-06-19 11:44:54,141</time>
      </trkpt>
      <trkpt lat="43.21307" lon="5.44315">
        <ele>48.46173</ele>
        <time>2019-06-19 11:44:58,032</time>
      </trkpt>
      <trkpt lat="43.21307" lon="5.44316">
        <ele>48.983765</ele>
        <time>2019-06-19 11:44:59,136</time>
      </trkpt>
      <trkpt lat="43.21307" lon="5.4432">
        <ele>44.96234</ele>
        <time>2019-06-19 11:45:01,192</time>
      </trkpt>
      <trkpt lat="43.21307" lon="5.44321">
        <ele>44.87976</ele>
        <time>2019-06-19 11:45:03,036</time>
      </trkpt>
      <trkpt lat="43.21307" lon="5.44322">
        <ele>43.29773</ele>
        <time>2019-06-19 11:45:04,036</time>
      </trkpt>
      <trkpt lat="43.21307" lon="5.44324">
        <ele>42.902405</ele>
        <time>2019-06-19 11:45:09,036</time>
      </trkpt>
      <trkpt lat="43.21307" lon="5.44325">
        <ele>42.524353</ele>
        <time>2019-06-19 11:45:10,035</time>
      </trkpt>
      <trkpt lat="43.21306" lon="5.44326">
        <ele>42.940674</ele>
        <time>2019-06-19 11:45:11,321</time>
      </trkpt>
      <trkpt lat="43.21306" lon="5.44327">
        <ele>45.694153</ele>
        <time>2019-06-19 11:45:13,059</time>
      </trkpt>
      <trkpt lat="43.21307" lon="5.44327">
        <ele>46.154907</ele>
        <time>2019-06-19 11:45:14,041</time>
      </trkpt>
      <trkpt lat="43.21307" lon="5.44327">
        <ele>46.377502</ele>
        <time>2019-06-19 11:45:15,239</time>
      </trkpt>
      <trkpt lat="43.21307" lon="5.44329">
        <ele>43.239136</ele>
        <time>2019-06-19 11:45:17,038</time>
      </trkpt>
      <trkpt lat="43.21307" lon="5.44329">
        <ele>46.60742</ele>
        <time>2019-06-19 11:45:18,243</time>
      </trkpt>
      <trkpt lat="43.21307" lon="5.4433">
        <ele>47.22693</ele>
        <time>2019-06-19 11:45:20,040</time>
      </trkpt>
      <trkpt lat="43.21305" lon="5.44335">
        <ele>49.468384</ele>
        <time>2019-06-19 11:45:23,039</time>
      </trkpt>
      <trkpt lat="43.21304" lon="5.44338">
        <ele>49.1792</ele>
        <time>2019-06-19 11:45:26,041</time>
      </trkpt>
      <trkpt lat="43.21302" lon="5.44339">
        <ele>48.78955</ele>
        <time>2019-06-19 11:45:28,220</time>
      </trkpt>
      <trkpt lat="43.21302" lon="5.44341">
        <ele>46.60742</ele>
        <time>2019-06-19 11:45:30,043</time>
      </trkpt>
      <trkpt lat="43.21302" lon="5.44342">
        <ele>48.50952</ele>
        <time>2019-06-19 11:45:31,252</time>
      </trkpt>
      <trkpt lat="43.21302" lon="5.44341">
        <ele>48.00287</ele>
        <time>2019-06-19 11:45:33,039</time>
      </trkpt>
      <trkpt lat="43.21302" lon="5.4434">
        <ele>48.50952</ele>
        <time>2019-06-19 11:45:44,046</time>
      </trkpt>
      <trkpt lat="43.21303" lon="5.44341">
        <ele>47.12555</ele>
        <time>2019-06-19 11:45:45,029</time>
      </trkpt>
      <trkpt lat="43.21306" lon="5.44342">
        <ele>47.92169</ele>
        <time>2019-06-19 11:46:11,029</time>
      </trkpt>
      <trkpt lat="43.21306" lon="5.44345">
        <ele>47.311462</ele>
        <time>2019-06-19 11:46:25,043</time>
      </trkpt>
      <trkpt lat="43.21306" lon="5.44345">
        <ele>48.04535</ele>
        <time>2019-06-19 11:46:26,262</time>
      </trkpt>
      <trkpt lat="43.21307" lon="5.44344">
        <ele>48.05841</ele>
        <time>2019-06-19 11:46:28,035</time>
      </trkpt>
      <trkpt lat="43.21307" lon="5.44345">
        <ele>47.649902</ele>
        <time>2019-06-19 11:46:29,319</time>
      </trkpt>
      <trkpt lat="43.21308" lon="5.44346">
        <ele>45.440613</ele>
        <time>2019-06-19 11:46:40,074</time>
      </trkpt>
      <trkpt lat="43.21308" lon="5.44345">
        <ele>45.683533</ele>
        <time>2019-06-19 11:46:41,044</time>
      </trkpt>
      <trkpt lat="43.21308" lon="5.44345">
        <ele>45.497375</ele>
        <time>2019-06-19 11:46:42,232</time>
      </trkpt>
      <trkpt lat="43.21307" lon="5.44344">
        <ele>48.390625</ele>
        <time>2019-06-19 11:46:44,027</time>
      </trkpt>
      <trkpt lat="43.21307" lon="5.44342">
        <ele>43.943665</ele>
        <time>2019-06-19 11:46:45,035</time>
      </trkpt>
      <trkpt lat="43.21308" lon="5.44342">
        <ele>43.195923</ele>
        <time>2019-06-19 11:46:46,132</time>
      </trkpt>
      <trkpt lat="43.21308" lon="5.44341">
        <ele>43.47113</ele>
        <time>2019-06-19 11:46:47,043</time>
      </trkpt>
      <trkpt lat="43.21308" lon="5.4434">
        <ele>44.718872</ele>
        <time>2019-06-19 11:46:48,041</time>
      </trkpt>
      <trkpt lat="43.21309" lon="5.44339">
        <ele>45.665466</ele>
        <time>2019-06-19 11:46:49,042</time>
      </trkpt>
      <trkpt lat="43.21309" lon="5.44337">
        <ele>46.020325</ele>
        <time>2019-06-19 11:46:50,038</time>
      </trkpt>
      <trkpt lat="43.2131" lon="5.44336">
        <ele>46.093323</ele>
        <time>2019-06-19 11:46:51,042</time>
      </trkpt>
      <trkpt lat="43.2131" lon="5.44335">
        <ele>43.943665</ele>
        <time>2019-06-19 11:46:55,056</time>
      </trkpt>
      <trkpt lat="43.21311" lon="5.44336">
        <ele>48.99176</ele>
        <time>2019-06-19 11:47:11,029</time>
      </trkpt>
      <trkpt lat="43.21311" lon="5.44337">
        <ele>49.68329</ele>
        <time>2019-06-19 11:47:14,037</time>
      </trkpt>
      <trkpt lat="43.2131" lon="5.44337">
        <ele>51.111633</ele>
        <time>2019-06-19 11:47:18,245</time>
      </trkpt>
      <trkpt lat="43.2131" lon="5.44337">
        <ele>48.536682</ele>
        <time>2019-06-19 11:47:20,040</time>
      </trkpt>
      <trkpt lat="43.21311" lon="5.44336">
        <ele>53.634155</ele>
        <time>2019-06-19 11:47:47,038</time>
      </trkpt>
      <trkpt lat="43.21311" lon="5.44335">
        <ele>53.25238</ele>
        <time>2019-06-19 11:47:50,037</time>
      </trkpt>
      <trkpt lat="43.21311" lon="5.44335">
        <ele>52.22357</ele>
        <time>2019-06-19 11:47:53,042</time>
      </trkpt>
      <trkpt lat="43.21311" lon="5.44334">
        <ele>54.641357</ele>
        <time>2019-06-19 11:48:15,043</time>
      </trkpt>
      <trkpt lat="43.21312" lon="5.44334">
        <ele>46.980347</ele>
        <time>2019-06-19 11:49:27,029</time>
      </trkpt>
      <trkpt lat="43.21313" lon="5.44334">
        <ele>47.967957</ele>
        <time>2019-06-19 11:49:28,278</time>
      </trkpt>
      <trkpt lat="43.21313" lon="5.44334">
        <ele>55.514038</ele>
        <time>2019-06-19 11:49:30,033</time>
      </trkpt>
      <trkpt lat="43.21311" lon="5.44331">
        <ele>65.44238</ele>
        <time>2019-06-19 11:49:53,551</time>
      </trkpt>
      <trkpt lat="43.21311" lon="5.44331">
        <ele>99.33417</ele>
        <time>2019-06-19 11:50:15,375</time>
      </trkpt>
      <trkpt lat="43.2131" lon="5.44331">
        <ele>67.45026</ele>
        <time>2019-06-19 11:50:40,383</time>
      </trkpt>
      <trkpt lat="43.2131" lon="5.44331">
        <ele>65.62958</ele>
        <time>2019-06-19 11:50:57,378</time>
      </trkpt>
      <trkpt lat="43.2131" lon="5.44331">
        <ele>67.06775</ele>
        <time>2019-06-19 11:50:58,649</time>
      </trkpt>
      <trkpt lat="43.21311" lon="5.44331">
        <ele>66.958984</ele>
        <time>2019-06-19 11:51:01,384</time>
      </trkpt>
      <trkpt lat="43.2131" lon="5.4433">
        <ele>66.91193</ele>
        <time>2019-06-19 11:51:02,646</time>
      </trkpt>
      <trkpt lat="43.21308" lon="5.4433">
        <ele>67.519714</ele>
        <time>2019-06-19 11:51:12,634</time>
      </trkpt>
      <trkpt lat="43.21307" lon="5.4433">
        <ele>66.743286</ele>
        <time>2019-06-19 11:51:13,650</time>
      </trkpt>
      <trkpt lat="43.21305" lon="5.44332">
        <ele>58.902466</ele>
        <time>2019-06-19 11:51:33,037</time>
      </trkpt>
      <trkpt lat="43.21305" lon="5.44332">
        <ele>67.02533</ele>
        <time>2019-06-19 11:51:58,026</time>
      </trkpt>
      <trkpt lat="43.21305" lon="5.44331">
        <ele>66.325195</ele>
        <time>2019-06-19 11:52:14,033</time>
      </trkpt>
      <trkpt lat="43.21305" lon="5.44329">
        <ele>61.770325</ele>
        <time>2019-06-19 11:52:15,039</time>
      </trkpt>
      <trkpt lat="43.21305" lon="5.44328">
        <ele>60.21466</ele>
        <time>2019-06-19 11:52:16,156</time>
      </trkpt>
      <trkpt lat="43.21306" lon="5.44324">
        <ele>51.597168</ele>
        <time>2019-06-19 11:52:40,029</time>
      </trkpt>
      <trkpt lat="43.21306" lon="5.44323">
        <ele>50.387085</ele>
        <time>2019-06-19 11:52:47,031</time>
      </trkpt>
      <trkpt lat="43.21306" lon="5.44323">
        <ele>50.98291</ele>
        <time>2019-06-19 11:52:48,033</time>
      </trkpt>
      <trkpt lat="43.21306" lon="5.44323">
        <ele>51.10736</ele>
        <time>2019-06-19 11:52:49,027</time>
      </trkpt>
      <trkpt lat="43.21303" lon="5.44325">
        <ele>51.56134</ele>
        <time>2019-06-19 11:53:01,040</time>
      </trkpt>
      <trkpt lat="43.21304" lon="5.44325">
        <ele>51.644287</ele>
        <time>2019-06-19 11:53:02,028</time>
      </trkpt>
      <trkpt lat="43.21306" lon="5.44324">
        <ele>51.669556</ele>
        <time>2019-06-19 11:53:24,041</time>
      </trkpt>
      <trkpt lat="43.21306" lon="5.44329">
        <ele>45.074707</ele>
        <time>2019-06-19 11:53:49,312</time>
      </trkpt>
      <trkpt lat="43.21305" lon="5.44327">
        <ele>47.22766</ele>
        <time>2019-06-19 11:53:59,030</time>
      </trkpt>
      <trkpt lat="43.21305" lon="5.44327">
        <ele>47.87433</ele>
        <time>2019-06-19 11:54:00,253</time>
      </trkpt>
      <trkpt lat="43.21306" lon="5.44329">
        <ele>49.046753</ele>
        <time>2019-06-19 11:54:02,019</time>
      </trkpt>
      <trkpt lat="43.21306" lon="5.4433">
        <ele>50.497864</ele>
        <time>2019-06-19 11:54:03,034</time>
      </trkpt>
      <trkpt lat="43.21306" lon="5.4433">
        <ele>50.157776</ele>
        <time>2019-06-19 11:54:04,070</time>
      </trkpt>
      <trkpt lat="43.21303" lon="5.4433">
        <ele>53.416504</ele>
        <time>2019-06-19 11:54:29,025</time>
      </trkpt>
      <trkpt lat="43.21303" lon="5.44329">
        <ele>53.716797</ele>
        <time>2019-06-19 11:54:30,027</time>
      </trkpt>
      <trkpt lat="43.21302" lon="5.44335">
        <ele>61.73706</ele>
        <time>2019-06-19 11:54:38,244</time>
      </trkpt>
      <trkpt lat="43.21303" lon="5.44337">
        <ele>62.583862</ele>
        <time>2019-06-19 11:54:40,029</time>
      </trkpt>
      <trkpt lat="43.21303" lon="5.44337">
        <ele>62.82837</ele>
        <time>2019-06-19 11:54:41,287</time>
      </trkpt>
      <trkpt lat="43.21303" lon="5.44337">
        <ele>63.456665</ele>
        <time>2019-06-19 11:54:43,023</time>
      </trkpt>
      <trkpt lat="43.21303" lon="5.44338">
        <ele>63.6864</ele>
        <time>2019-06-19 11:54:44,030</time>
      </trkpt>
      <trkpt lat="43.21303" lon="5.44338">
        <ele>64.37244</ele>
        <time>2019-06-19 11:54:45,267</time>
      </trkpt>
      <trkpt lat="43.21305" lon="5.44339">
        <ele>60.1734</ele>
        <time>2019-06-19 11:54:49,028</time>
      </trkpt>
      <trkpt lat="43.21306" lon="5.44339">
        <ele>61.40149</ele>
        <time>2019-06-19 11:54:50,037</time>
      </trkpt>
      <trkpt lat="43.2131" lon="5.44342">
        <ele>59.702698</ele>
        <time>2019-06-19 11:55:18,029</time>
      </trkpt>
      <trkpt lat="43.2131" lon="5.44342">
        <ele>59.57257</ele>
        <time>2019-06-19 11:56:37,037</time>
      </trkpt>
      <trkpt lat="43.2131" lon="5.44342">
        <ele>59.536316</ele>
        <time>2019-06-19 11:57:11,032</time>
      </trkpt>
      <trkpt lat="43.2131" lon="5.44342">
        <ele>59.513916</ele>
        <time>2019-06-19 11:57:35,045</time>
      </trkpt>
      <trkpt lat="43.2131" lon="5.44342">
        <ele>59.500305</ele>
        <time>2019-06-19 11:58:00,029</time>
      </trkpt>
      <trkpt lat="43.21313" lon="5.44343">
        <ele>53.900635</ele>
        <time>2019-06-19 11:58:25,034</time>
      </trkpt>
      <trkpt lat="43.21313" lon="5.44343">
        <ele>52.984985</ele>
        <time>2019-06-19 11:59:03,221</time>
      </trkpt>
      <trkpt lat="43.21313" lon="5.44343">
        <ele>52.313293</ele>
        <time>2019-06-19 11:59:30,031</time>
      </trkpt>
      <trkpt lat="43.21313" lon="5.44343">
        <ele>52.334106</ele>
        <time>2019-06-19 11:59:54,035</time>
      </trkpt>
      <trkpt lat="43.21313" lon="5.44343">
        <ele>52.2854</ele>
        <time>2019-06-19 12:00:18,034</time>
      </trkpt>
      <trkpt lat="43.21313" lon="5.44343">
        <ele>52.048767</ele>
        <time>2019-06-19 12:00:55,041</time>
      </trkpt>
      <trkpt lat="43.21313" lon="5.44343">
        <ele>51.57556</ele>
        <time>2019-06-19 12:01:09,290</time>
      </trkpt>
      <trkpt lat="43.21313" lon="5.44344">
        <ele>52.657043</ele>
        <time>2019-06-19 12:01:11,031</time>
      </trkpt>
      <trkpt lat="43.21312" lon="5.44344">
        <ele>52.134644</ele>
        <time>2019-06-19 12:01:36,023</time>
      </trkpt>
      <trkpt lat="43.21312" lon="5.44344">
        <ele>52.247803</ele>
        <time>2019-06-19 12:01:56,019</time>
      </trkpt>
      <trkpt lat="43.21312" lon="5.44344">
        <ele>52.24475</ele>
        <time>2019-06-19 12:02:16,034</time>
      </trkpt>
      <trkpt lat="43.21312" lon="5.44344">
        <ele>52.143677</ele>
        <time>2019-06-19 12:02:36,022</time>
      </trkpt>
      <trkpt lat="43.21312" lon="5.44344">
        <ele>52.21173</ele>
        <time>2019-06-19 12:02:56,032</time>
      </trkpt>
      <trkpt lat="43.21312" lon="5.44343">
        <ele>52.395874</ele>
        <time>2019-06-19 12:03:16,023</time>
      </trkpt>
      <trkpt lat="43.21312" lon="5.44342">
        <ele>52.42383</ele>
        <time>2019-06-19 12:03:20,030</time>
      </trkpt>
      <trkpt lat="43.21312" lon="5.44342">
        <ele>53.12097</ele>
        <time>2019-06-19 12:03:21,035</time>
      </trkpt>
      <trkpt lat="43.21313" lon="5.44343">
        <ele>53.56122</ele>
        <time>2019-06-19 12:04:16,023</time>
      </trkpt>
      <trkpt lat="43.21313" lon="5.44343">
        <ele>53.623047</ele>
        <time>2019-06-19 12:04:44,030</time>
      </trkpt>
      <trkpt lat="43.21313" lon="5.44343">
        <ele>53.687683</ele>
        <time>2019-06-19 12:05:11,036</time>
      </trkpt>
      <trkpt lat="43.21313" lon="5.44343">
        <ele>53.911255</ele>
        <time>2019-06-19 12:05:39,033</time>
      </trkpt>
      <trkpt lat="43.21313" lon="5.44343">
        <ele>53.72278</ele>
        <time>2019-06-19 12:06:06,245</time>
      </trkpt>
      <trkpt lat="43.21313" lon="5.44343">
        <ele>54.116333</ele>
        <time>2019-06-19 12:06:17,039</time>
      </trkpt>
      <trkpt lat="43.21313" lon="5.44344">
        <ele>54.191956</ele>
        <time>2019-06-19 12:06:18,274</time>
      </trkpt>
      <trkpt lat="43.21314" lon="5.44344">
        <ele>54.440308</ele>
        <time>2019-06-19 12:06:20,045</time>
      </trkpt>
      <trkpt lat="43.21314" lon="5.44343">
        <ele>55.009644</ele>
        <time>2019-06-19 12:06:21,191</time>
      </trkpt>
      <trkpt lat="43.21314" lon="5.44343">
        <ele>55.70575</ele>
        <time>2019-06-19 12:06:23,032</time>
      </trkpt>
      <trkpt lat="43.21314" lon="5.44343">
        <ele>55.846924</ele>
        <time>2019-06-19 12:06:24,013</time>
      </trkpt>
      <trkpt lat="43.21314" lon="5.44342">
        <ele>56.476013</ele>
        <time>2019-06-19 12:06:25,035</time>
      </trkpt>
      <trkpt lat="43.21314" lon="5.44342">
        <ele>56.706726</ele>
        <time>2019-06-19 12:06:26,030</time>
      </trkpt>
      <trkpt lat="43.21314" lon="5.44342">
        <ele>53.70337</ele>
        <time>2019-06-19 12:06:27,031</time>
      </trkpt>
      <trkpt lat="43.21315" lon="5.44342">
        <ele>56.577393</ele>
        <time>2019-06-19 12:06:28,031</time>
      </trkpt>
      <trkpt lat="43.21315" lon="5.44341">
        <ele>56.40857</ele>
        <time>2019-06-19 12:06:30,029</time>
      </trkpt>
      <trkpt lat="43.21315" lon="5.44341">
        <ele>56.118103</ele>
        <time>2019-06-19 12:06:31,031</time>
      </trkpt>
      <trkpt lat="43.21316" lon="5.44341">
        <ele>54.677795</ele>
        <time>2019-06-19 12:06:33,031</time>
      </trkpt>
      <trkpt lat="43.21316" lon="5.4434">
        <ele>54.239197</ele>
        <time>2019-06-19 12:06:34,037</time>
      </trkpt>
      <trkpt lat="43.21317" lon="5.44339">
        <ele>50.545288</ele>
        <time>2019-06-19 12:06:35,044</time>
      </trkpt>
      <trkpt lat="43.21317" lon="5.44339">
        <ele>51.910706</ele>
        <time>2019-06-19 12:06:36,026</time>
      </trkpt>
      <trkpt lat="43.21317" lon="5.44338">
        <ele>56.577393</ele>
        <time>2019-06-19 12:06:37,028</time>
      </trkpt>
      <trkpt lat="43.21317" lon="5.44338">
        <ele>48.854492</ele>
        <time>2019-06-19 12:06:38,030</time>
      </trkpt>
      <trkpt lat="43.21317" lon="5.44337">
        <ele>48.35614</ele>
        <time>2019-06-19 12:06:39,028</time>
      </trkpt>
      <trkpt lat="43.21317" lon="5.44337">
        <ele>48.214844</ele>
        <time>2019-06-19 12:06:40,034</time>
      </trkpt>
      <trkpt lat="43.21313" lon="5.44337">
        <ele>54.012634</ele>
        <time>2019-06-19 12:07:04,042</time>
      </trkpt>
      <trkpt lat="43.21312" lon="5.44337">
        <ele>54.68933</ele>
        <time>2019-06-19 12:07:05,032</time>
      </trkpt>
      <trkpt lat="43.21311" lon="5.44336">
        <ele>54.5802</ele>
        <time>2019-06-19 12:07:28,265</time>
      </trkpt>
      <trkpt lat="43.21311" lon="5.44336">
        <ele>54.489807</ele>
        <time>2019-06-19 12:07:43,050</time>
      </trkpt>
      <trkpt lat="43.21311" lon="5.44335">
        <ele>54.402954</ele>
        <time>2019-06-19 12:07:44,028</time>
      </trkpt>
      <trkpt lat="43.21313" lon="5.44335">
        <ele>52.315735</ele>
        <time>2019-06-19 12:08:25,036</time>
      </trkpt>
      <trkpt lat="43.21313" lon="5.44334">
        <ele>52.775024</ele>
        <time>2019-06-19 12:08:26,045</time>
      </trkpt>
      <trkpt lat="43.21313" lon="5.44333">
        <ele>51.448242</ele>
        <time>2019-06-19 12:08:27,030</time>
      </trkpt>
      <trkpt lat="43.21313" lon="5.44331">
        <ele>51.77722</ele>
        <time>2019-06-19 12:08:28,027</time>
      </trkpt>
      <trkpt lat="43.21313" lon="5.44329">
        <ele>51.269592</ele>
        <time>2019-06-19 12:08:34,043</time>
      </trkpt>
      <trkpt lat="43.21313" lon="5.44329">
        <ele>50.94153</ele>
        <time>2019-06-19 12:08:35,271</time>
      </trkpt>
      <trkpt lat="43.21313" lon="5.44329">
        <ele>51.94995</ele>
        <time>2019-06-19 12:08:37,039</time>
      </trkpt>
      <trkpt lat="43.21313" lon="5.44329">
        <ele>51.301514</ele>
        <time>2019-06-19 12:08:38,316</time>
      </trkpt>
      <trkpt lat="43.21314" lon="5.44326">
        <ele>51.386536</ele>
        <time>2019-06-19 12:08:40,048</time>
      </trkpt>
      <trkpt lat="43.21314" lon="5.44324">
        <ele>51.396667</ele>
        <time>2019-06-19 12:08:41,042</time>
      </trkpt>
      <trkpt lat="43.21314" lon="5.44323">
        <ele>52.036743</ele>
        <time>2019-06-19 12:08:42,291</time>
      </trkpt>
      <trkpt lat="43.21315" lon="5.44322">
        <ele>52.153748</ele>
        <time>2019-06-19 12:08:44,028</time>
      </trkpt>
      <trkpt lat="43.21315" lon="5.44321">
        <ele>52.84198</ele>
        <time>2019-06-19 12:08:45,031</time>
      </trkpt>
      <trkpt lat="43.21314" lon="5.44321">
        <ele>51.799255</ele>
        <time>2019-06-19 12:08:46,033</time>
      </trkpt>
      <trkpt lat="43.21314" lon="5.4432">
        <ele>51.018494</ele>
        <time>2019-06-19 12:08:49,040</time>
      </trkpt>
      <trkpt lat="43.21318" lon="5.4431">
        <ele>52.153748</ele>
        <time>2019-06-19 12:08:56,042</time>
      </trkpt>
      <trkpt lat="43.21319" lon="5.44306">
        <ele>51.24872</ele>
        <time>2019-06-19 12:08:59,046</time>
      </trkpt>
      <trkpt lat="43.21319" lon="5.44305">
        <ele>50.700928</ele>
        <time>2019-06-19 12:09:00,034</time>
      </trkpt>
      <trkpt lat="43.21318" lon="5.44303">
        <ele>50.60437</ele>
        <time>2019-06-19 12:09:01,267</time>
      </trkpt>
      <trkpt lat="43.21317" lon="5.44299">
        <ele>51.694702</ele>
        <time>2019-06-19 12:09:04,263</time>
      </trkpt>
      <trkpt lat="43.21316" lon="5.44295">
        <ele>53.69342</ele>
        <time>2019-06-19 12:09:07,025</time>
      </trkpt>
      <trkpt lat="43.21317" lon="5.44293">
        <ele>53.672485</ele>
        <time>2019-06-19 12:09:08,030</time>
      </trkpt>
      <trkpt lat="43.21318" lon="5.44292">
        <ele>50.073486</ele>
        <time>2019-06-19 12:09:09,279</time>
      </trkpt>
      <trkpt lat="43.21319" lon="5.44289">
        <ele>54.663452</ele>
        <time>2019-06-19 12:09:11,035</time>
      </trkpt>
      <trkpt lat="43.21319" lon="5.44288">
        <ele>54.723694</ele>
        <time>2019-06-19 12:09:12,039</time>
      </trkpt>
      <trkpt lat="43.21319" lon="5.44287">
        <ele>52.48224</ele>
        <time>2019-06-19 12:09:13,295</time>
      </trkpt>
      <trkpt lat="43.21319" lon="5.44283">
        <ele>52.540527</ele>
        <time>2019-06-19 12:09:15,024</time>
      </trkpt>
      <trkpt lat="43.21319" lon="5.44278">
        <ele>51.84204</ele>
        <time>2019-06-19 12:09:17,033</time>
      </trkpt>
      <trkpt lat="43.21319" lon="5.44277">
        <ele>52.86316</ele>
        <time>2019-06-19 12:09:18,034</time>
      </trkpt>
      <trkpt lat="43.21319" lon="5.44275">
        <ele>53.024353</ele>
        <time>2019-06-19 12:09:19,025</time>
      </trkpt>
      <trkpt lat="43.2132" lon="5.44273">
        <ele>54.663452</ele>
        <time>2019-06-19 12:09:21,034</time>
      </trkpt>
      <trkpt lat="43.2132" lon="5.44272">
        <ele>53.21411</ele>
        <time>2019-06-19 12:09:22,033</time>
      </trkpt>
      <trkpt lat="43.2132" lon="5.44271">
        <ele>54.01538</ele>
        <time>2019-06-19 12:09:23,032</time>
      </trkpt>
      <trkpt lat="43.2132" lon="5.44269">
        <ele>50.558716</ele>
        <time>2019-06-19 12:09:24,027</time>
      </trkpt>
      <trkpt lat="43.21321" lon="5.44267">
        <ele>50.16687</ele>
        <time>2019-06-19 12:09:25,039</time>
      </trkpt>
      <trkpt lat="43.21322" lon="5.44265">
        <ele>50.100525</ele>
        <time>2019-06-19 12:09:26,042</time>
      </trkpt>
      <trkpt lat="43.21323" lon="5.44259">
        <ele>49.549988</ele>
        <time>2019-06-19 12:09:30,041</time>
      </trkpt>
      <trkpt lat="43.21323" lon="5.44256">
        <ele>53.21411</ele>
        <time>2019-06-19 12:09:32,299</time>
      </trkpt>
      <trkpt lat="43.21324" lon="5.44254">
        <ele>51.35083</ele>
        <time>2019-06-19 12:09:34,029</time>
      </trkpt>
      <trkpt lat="43.21323" lon="5.44252">
        <ele>52.62726</ele>
        <time>2019-06-19 12:09:35,032</time>
      </trkpt>
      <trkpt lat="43.21321" lon="5.44249">
        <ele>52.31775</ele>
        <time>2019-06-19 12:09:37,033</time>
      </trkpt>
      <trkpt lat="43.2132" lon="5.44247">
        <ele>52.855713</ele>
        <time>2019-06-19 12:09:38,036</time>
      </trkpt>
      <trkpt lat="43.21321" lon="5.44241">
        <ele>48.784363</ele>
        <time>2019-06-19 12:09:43,284</time>
      </trkpt>
      <trkpt lat="43.21322" lon="5.44238">
        <ele>51.35083</ele>
        <time>2019-06-19 12:09:45,030</time>
      </trkpt>
      <trkpt lat="43.21322" lon="5.44237">
        <ele>49.737183</ele>
        <time>2019-06-19 12:09:46,032</time>
      </trkpt>
      <trkpt lat="43.21322" lon="5.44235">
        <ele>49.015198</ele>
        <time>2019-06-19 12:09:47,030</time>
      </trkpt>
      <trkpt lat="43.21321" lon="5.44233">
        <ele>49.67401</ele>
        <time>2019-06-19 12:09:48,042</time>
      </trkpt>
      <trkpt lat="43.21321" lon="5.44231">
        <ele>50.42047</ele>
        <time>2019-06-19 12:09:49,289</time>
      </trkpt>
      <trkpt lat="43.21321" lon="5.44228">
        <ele>50.375244</ele>
        <time>2019-06-19 12:09:51,036</time>
      </trkpt>
      <trkpt lat="43.21322" lon="5.44227">
        <ele>51.192017</ele>
        <time>2019-06-19 12:09:52,035</time>
      </trkpt>
      <trkpt lat="43.21322" lon="5.44226">
        <ele>52.543762</ele>
        <time>2019-06-19 12:09:53,269</time>
      </trkpt>
      <trkpt lat="43.21322" lon="5.44222">
        <ele>52.24829</ele>
        <time>2019-06-19 12:09:55,039</time>
      </trkpt>
      <trkpt lat="43.21322" lon="5.44221">
        <ele>53.26288</ele>
        <time>2019-06-19 12:09:56,300</time>
      </trkpt>
      <trkpt lat="43.21322" lon="5.44217">
        <ele>49.737183</ele>
        <time>2019-06-19 12:09:58,047</time>
      </trkpt>
      <trkpt lat="43.21322" lon="5.44215">
        <ele>54.435425</ele>
        <time>2019-06-19 12:10:00,269</time>
      </trkpt>
      <trkpt lat="43.21323" lon="5.44213">
        <ele>53.96228</ele>
        <time>2019-06-19 12:10:02,033</time>
      </trkpt>
      <trkpt lat="43.21324" lon="5.44212">
        <ele>54.291016</ele>
        <time>2019-06-19 12:10:03,033</time>
      </trkpt>
      <trkpt lat="43.21324" lon="5.44211">
        <ele>54.473022</ele>
        <time>2019-06-19 12:10:04,045</time>
      </trkpt>
      <trkpt lat="43.21324" lon="5.44209">
        <ele>54.596313</ele>
        <time>2019-06-19 12:10:05,036</time>
      </trkpt>
      <trkpt lat="43.21324" lon="5.44204">
        <ele>50.865723</ele>
        <time>2019-06-19 12:10:09,047</time>
      </trkpt>
      <trkpt lat="43.21324" lon="5.44202">
        <ele>53.52295</ele>
        <time>2019-06-19 12:10:10,291</time>
      </trkpt>
      <trkpt lat="43.21325" lon="5.44198">
        <ele>53.94043</ele>
        <time>2019-06-19 12:10:12,036</time>
      </trkpt>
      <trkpt lat="43.21325" lon="5.44198">
        <ele>54.65692</ele>
        <time>2019-06-19 12:10:13,033</time>
      </trkpt>
      <trkpt lat="43.21325" lon="5.44197">
        <ele>55.0177</ele>
        <time>2019-06-19 12:10:14,293</time>
      </trkpt>
      <trkpt lat="43.21326" lon="5.44194">
        <ele>56.368652</ele>
        <time>2019-06-19 12:10:16,033</time>
      </trkpt>
      <trkpt lat="43.21327" lon="5.44193">
        <ele>55.915466</ele>
        <time>2019-06-19 12:10:17,032</time>
      </trkpt>
      <trkpt lat="43.21327" lon="5.44193">
        <ele>56.831726</ele>
        <time>2019-06-19 12:10:18,247</time>
      </trkpt>
      <trkpt lat="43.21328" lon="5.4419">
        <ele>55.114624</ele>
        <time>2019-06-19 12:10:20,042</time>
      </trkpt>
      <trkpt lat="43.21328" lon="5.44189">
        <ele>55.375</ele>
        <time>2019-06-19 12:10:21,280</time>
      </trkpt>
      <trkpt lat="43.21328" lon="5.44185">
        <ele>54.88214</ele>
        <time>2019-06-19 12:10:23,028</time>
      </trkpt>
      <trkpt lat="43.21328" lon="5.44184">
        <ele>53.94043</ele>
        <time>2019-06-19 12:10:24,054</time>
      </trkpt>
      <trkpt lat="43.21327" lon="5.4418">
        <ele>54.187744</ele>
        <time>2019-06-19 12:10:26,035</time>
      </trkpt>
      <trkpt lat="43.21327" lon="5.44174">
        <ele>53.125977</ele>
        <time>2019-06-19 12:10:29,037</time>
      </trkpt>
      <trkpt lat="43.21327" lon="5.44171">
        <ele>53.497803</ele>
        <time>2019-06-19 12:10:31,316</time>
      </trkpt>
      <trkpt lat="43.21327" lon="5.44167">
        <ele>52.0271</ele>
        <time>2019-06-19 12:10:33,052</time>
      </trkpt>
      <trkpt lat="43.21329" lon="5.4416">
        <ele>54.3407</ele>
        <time>2019-06-19 12:10:38,058</time>
      </trkpt>
      <trkpt lat="43.2133" lon="5.44159">
        <ele>55.466187</ele>
        <time>2019-06-19 12:10:39,025</time>
      </trkpt>
      <trkpt lat="43.21331" lon="5.44154">
        <ele>54.488037</ele>
        <time>2019-06-19 12:10:42,046</time>
      </trkpt>
      <trkpt lat="43.21331" lon="5.44152">
        <ele>54.94104</ele>
        <time>2019-06-19 12:10:43,042</time>
      </trkpt>
      <trkpt lat="43.21331" lon="5.4415">
        <ele>55.479675</ele>
        <time>2019-06-19 12:10:44,030</time>
      </trkpt>
      <trkpt lat="43.21331" lon="5.44146">
        <ele>52.00995</ele>
        <time>2019-06-19 12:10:46,054</time>
      </trkpt>
      <trkpt lat="43.21332" lon="5.44141">
        <ele>54.745117</ele>
        <time>2019-06-19 12:10:48,031</time>
      </trkpt>
      <trkpt lat="43.21333" lon="5.4414">
        <ele>54.71118</ele>
        <time>2019-06-19 12:10:49,021</time>
      </trkpt>
      <trkpt lat="43.21337" lon="5.44138">
        <ele>54.40503</ele>
        <time>2019-06-19 12:10:52,075</time>
      </trkpt>
      <trkpt lat="43.21343" lon="5.44141">
        <ele>57.911377</ele>
        <time>2019-06-19 12:10:56,026</time>
      </trkpt>
      <trkpt lat="43.21343" lon="5.4414">
        <ele>58.589417</ele>
        <time>2019-06-19 12:10:57,029</time>
      </trkpt>
      <trkpt lat="43.21344" lon="5.4414">
        <ele>55.19342</ele>
        <time>2019-06-19 12:10:58,306</time>
      </trkpt>
      <trkpt lat="43.21345" lon="5.44139">
        <ele>58.486145</ele>
        <time>2019-06-19 12:11:00,051</time>
      </trkpt>
      <trkpt lat="43.21346" lon="5.44139">
        <ele>58.84607</ele>
        <time>2019-06-19 12:11:01,036</time>
      </trkpt>
      <trkpt lat="43.21347" lon="5.44139">
        <ele>59.472656</ele>
        <time>2019-06-19 12:11:02,266</time>
      </trkpt>
      <trkpt lat="43.21349" lon="5.44139">
        <ele>60.681885</ele>
        <time>2019-06-19 12:11:04,033</time>
      </trkpt>
      <trkpt lat="43.21352" lon="5.4414">
        <ele>60.635864</ele>
        <time>2019-06-19 12:11:06,032</time>
      </trkpt>
      <trkpt lat="43.21353" lon="5.4414">
        <ele>61.671387</ele>
        <time>2019-06-19 12:11:07,022</time>
      </trkpt>
      <trkpt lat="43.21354" lon="5.44139">
        <ele>62.76837</ele>
        <time>2019-06-19 12:11:08,030</time>
      </trkpt>
      <trkpt lat="43.21355" lon="5.44139">
        <ele>63.57965</ele>
        <time>2019-06-19 12:11:09,032</time>
      </trkpt>
      <trkpt lat="43.21355" lon="5.44139">
        <ele>58.486145</ele>
        <time>2019-06-19 12:11:10,033</time>
      </trkpt>
      <trkpt lat="43.21355" lon="5.44138">
        <ele>63.864746</ele>
        <time>2019-06-19 12:11:11,238</time>
      </trkpt>
      <trkpt lat="43.21357" lon="5.44137">
        <ele>63.38379</ele>
        <time>2019-06-19 12:11:13,036</time>
      </trkpt>
      <trkpt lat="43.21358" lon="5.44137">
        <ele>62.307373</ele>
        <time>2019-06-19 12:11:14,252</time>
      </trkpt>
      <trkpt lat="43.2136" lon="5.44136">
        <ele>63.573303</ele>
        <time>2019-06-19 12:11:16,033</time>
      </trkpt>
      <trkpt lat="43.21361" lon="5.44135">
        <ele>64.40918</ele>
        <time>2019-06-19 12:11:17,268</time>
      </trkpt>
      <trkpt lat="43.21363" lon="5.44133">
        <ele>65.161255</ele>
        <time>2019-06-19 12:11:19,027</time>
      </trkpt>
      <trkpt lat="43.21371" lon="5.44128">
        <ele>66.020996</ele>
        <time>2019-06-19 12:11:26,301</time>
      </trkpt>
      <trkpt lat="43.21371" lon="5.44126">
        <ele>68.48157</ele>
        <time>2019-06-19 12:11:28,046</time>
      </trkpt>
      <trkpt lat="43.21372" lon="5.44125">
        <ele>68.15192</ele>
        <time>2019-06-19 12:11:29,031</time>
      </trkpt>
      <trkpt lat="43.21372" lon="5.44123">
        <ele>68.1134</ele>
        <time>2019-06-19 12:11:30,270</time>
      </trkpt>
      <trkpt lat="43.21374" lon="5.44121">
        <ele>68.574646</ele>
        <time>2019-06-19 12:11:32,034</time>
      </trkpt>
      <trkpt lat="43.21374" lon="5.4412">
        <ele>68.11755</ele>
        <time>2019-06-19 12:11:33,257</time>
      </trkpt>
      <trkpt lat="43.21377" lon="5.44118">
        <ele>68.26691</ele>
        <time>2019-06-19 12:11:35,023</time>
      </trkpt>
      <trkpt lat="43.21378" lon="5.44117">
        <ele>66.68146</ele>
        <time>2019-06-19 12:11:36,036</time>
      </trkpt>
      <trkpt lat="43.21379" lon="5.44116">
        <ele>67.19989</ele>
        <time>2019-06-19 12:11:37,034</time>
      </trkpt>
      <trkpt lat="43.2138" lon="5.44115">
        <ele>66.020996</ele>
        <time>2019-06-19 12:11:38,040</time>
      </trkpt>
      <trkpt lat="43.2138" lon="5.44113">
        <ele>68.48535</ele>
        <time>2019-06-19 12:11:39,029</time>
      </trkpt>
      <trkpt lat="43.21381" lon="5.44112">
        <ele>69.57208</ele>
        <time>2019-06-19 12:11:41,279</time>
      </trkpt>
      <trkpt lat="43.21383" lon="5.4411">
        <ele>67.166016</ele>
        <time>2019-06-19 12:11:43,030</time>
      </trkpt>
      <trkpt lat="43.21384" lon="5.44109">
        <ele>68.7475</ele>
        <time>2019-06-19 12:11:45,029</time>
      </trkpt>
      <trkpt lat="43.21384" lon="5.44109">
        <ele>68.78882</ele>
        <time>2019-06-19 12:11:46,034</time>
      </trkpt>
      <trkpt lat="43.21383" lon="5.44108">
        <ele>68.53735</ele>
        <time>2019-06-19 12:11:47,304</time>
      </trkpt>
      <trkpt lat="43.21383" lon="5.44106">
        <ele>67.33008</ele>
        <time>2019-06-19 12:11:49,033</time>
      </trkpt>
      <trkpt lat="43.21385" lon="5.44103">
        <ele>66.79114</ele>
        <time>2019-06-19 12:11:52,033</time>
      </trkpt>
      <trkpt lat="43.21386" lon="5.44102">
        <ele>67.21643</ele>
        <time>2019-06-19 12:11:53,036</time>
      </trkpt>
      <trkpt lat="43.21386" lon="5.44102">
        <ele>67.23633</ele>
        <time>2019-06-19 12:11:54,319</time>
      </trkpt>
      <trkpt lat="43.21388" lon="5.441">
        <ele>64.250854</ele>
        <time>2019-06-19 12:11:56,046</time>
      </trkpt>
      <trkpt lat="43.21388" lon="5.44099">
        <ele>63.909607</ele>
        <time>2019-06-19 12:11:57,032</time>
      </trkpt>
      <trkpt lat="43.21389" lon="5.44097">
        <ele>63.341064</ele>
        <time>2019-06-19 12:11:58,266</time>
      </trkpt>
      <trkpt lat="43.2139" lon="5.44092">
        <ele>67.05145</ele>
        <time>2019-06-19 12:12:02,033</time>
      </trkpt>
      <trkpt lat="43.21391" lon="5.44092">
        <ele>60.089844</ele>
        <time>2019-06-19 12:12:03,037</time>
      </trkpt>
      <trkpt lat="43.21391" lon="5.44091">
        <ele>58.973267</ele>
        <time>2019-06-19 12:12:04,037</time>
      </trkpt>
      <trkpt lat="43.21392" lon="5.4409">
        <ele>56.565613</ele>
        <time>2019-06-19 12:12:05,283</time>
      </trkpt>
      <trkpt lat="43.21394" lon="5.44087">
        <ele>54.98108</ele>
        <time>2019-06-19 12:12:07,026</time>
      </trkpt>
      <trkpt lat="43.21395" lon="5.44086">
        <ele>54.25775</ele>
        <time>2019-06-19 12:12:08,037</time>
      </trkpt>
      <trkpt lat="43.21395" lon="5.44086">
        <ele>55.095215</ele>
        <time>2019-06-19 12:12:09,315</time>
      </trkpt>
      <trkpt lat="43.21396" lon="5.44083">
        <ele>56.37451</ele>
        <time>2019-06-19 12:12:11,052</time>
      </trkpt>
      <trkpt lat="43.21397" lon="5.44081">
        <ele>55.430603</ele>
        <time>2019-06-19 12:12:13,297</time>
      </trkpt>
      <trkpt lat="43.21398" lon="5.44077">
        <ele>60.089844</ele>
        <time>2019-06-19 12:12:15,063</time>
      </trkpt>
      <trkpt lat="43.21398" lon="5.44075">
        <ele>55.76831</ele>
        <time>2019-06-19 12:12:17,262</time>
      </trkpt>
      <trkpt lat="43.21399" lon="5.44071">
        <ele>56.018982</ele>
        <time>2019-06-19 12:12:20,034</time>
      </trkpt>
      <trkpt lat="43.21398" lon="5.44069">
        <ele>56.391174</ele>
        <time>2019-06-19 12:12:21,298</time>
      </trkpt>
      <trkpt lat="43.21397" lon="5.44065">
        <ele>59.198547</ele>
        <time>2019-06-19 12:12:24,030</time>
      </trkpt>
      <trkpt lat="43.21396" lon="5.44064">
        <ele>60.508667</ele>
        <time>2019-06-19 12:12:25,319</time>
      </trkpt>
      <trkpt lat="43.21395" lon="5.44062">
        <ele>61.00293</ele>
        <time>2019-06-19 12:12:27,058</time>
      </trkpt>
      <trkpt lat="43.21395" lon="5.4406">
        <ele>55.563354</ele>
        <time>2019-06-19 12:12:28,020</time>
      </trkpt>
      <trkpt lat="43.21395" lon="5.44058">
        <ele>60.343628</ele>
        <time>2019-06-19 12:12:29,029</time>
      </trkpt>
      <trkpt lat="43.21395" lon="5.44056">
        <ele>59.19098</ele>
        <time>2019-06-19 12:12:30,033</time>
      </trkpt>
      <trkpt lat="43.21396" lon="5.44054">
        <ele>59.215637</ele>
        <time>2019-06-19 12:12:31,032</time>
      </trkpt>
      <trkpt lat="43.21397" lon="5.44052">
        <ele>59.76184</ele>
        <time>2019-06-19 12:12:32,029</time>
      </trkpt>
      <trkpt lat="43.21398" lon="5.44048">
        <ele>59.328552</ele>
        <time>2019-06-19 12:12:34,032</time>
      </trkpt>
      <trkpt lat="43.21399" lon="5.44045">
        <ele>60.73694</ele>
        <time>2019-06-19 12:12:36,031</time>
      </trkpt>
      <trkpt lat="43.21399" lon="5.44043">
        <ele>60.13971</ele>
        <time>2019-06-19 12:12:37,026</time>
      </trkpt>
      <trkpt lat="43.21399" lon="5.44042">
        <ele>59.575195</ele>
        <time>2019-06-19 12:12:38,035</time>
      </trkpt>
      <trkpt lat="43.21399" lon="5.4404">
        <ele>63.61322</ele>
        <time>2019-06-19 12:12:40,024</time>
      </trkpt>
      <trkpt lat="43.21399" lon="5.44039">
        <ele>65.74359</ele>
        <time>2019-06-19 12:12:41,026</time>
      </trkpt>
      <trkpt lat="43.21399" lon="5.44039">
        <ele>65.40906</ele>
        <time>2019-06-19 12:12:42,029</time>
      </trkpt>
      <trkpt lat="43.21399" lon="5.44039">
        <ele>66.193665</ele>
        <time>2019-06-19 12:12:43,035</time>
      </trkpt>
      <trkpt lat="43.21399" lon="5.44038">
        <ele>66.68671</ele>
        <time>2019-06-19 12:12:44,035</time>
      </trkpt>
      <trkpt lat="43.21399" lon="5.44037">
        <ele>67.55774</ele>
        <time>2019-06-19 12:12:45,026</time>
      </trkpt>
      <trkpt lat="43.21399" lon="5.44035">
        <ele>67.95093</ele>
        <time>2019-06-19 12:12:46,023</time>
      </trkpt>
      <trkpt lat="43.214" lon="5.44034">
        <ele>68.405945</ele>
        <time>2019-06-19 12:12:47,031</time>
      </trkpt>
      <trkpt lat="43.214" lon="5.44033">
        <ele>62.13788</ele>
        <time>2019-06-19 12:12:48,035</time>
      </trkpt>
      <trkpt lat="43.21401" lon="5.44033">
        <ele>68.63312</ele>
        <time>2019-06-19 12:12:49,031</time>
      </trkpt>
      <trkpt lat="43.21402" lon="5.44032">
        <ele>66.77948</ele>
        <time>2019-06-19 12:12:50,034</time>
      </trkpt>
      <trkpt lat="43.21402" lon="5.44031">
        <ele>67.14703</ele>
        <time>2019-06-19 12:12:51,034</time>
      </trkpt>
      <trkpt lat="43.21403" lon="5.4403">
        <ele>66.6568</ele>
        <time>2019-06-19 12:12:52,029</time>
      </trkpt>
      <trkpt lat="43.21405" lon="5.44028">
        <ele>66.499084</ele>
        <time>2019-06-19 12:12:53,024</time>
      </trkpt>
      <trkpt lat="43.21405" lon="5.44025">
        <ele>64.66693</ele>
        <time>2019-06-19 12:12:55,028</time>
      </trkpt>
      <trkpt lat="43.21406" lon="5.44023">
        <ele>64.997314</ele>
        <time>2019-06-19 12:12:57,030</time>
      </trkpt>
      <trkpt lat="43.21413" lon="5.44015">
        <ele>66.4176</ele>
        <time>2019-06-19 12:13:08,370</time>
      </trkpt>
      <trkpt lat="43.21414" lon="5.44014">
        <ele>65.06067</ele>
        <time>2019-06-19 12:13:09,376</time>
      </trkpt>
      <trkpt lat="43.21416" lon="5.44013">
        <ele>64.35242</ele>
        <time>2019-06-19 12:13:10,373</time>
      </trkpt>
      <trkpt lat="43.21417" lon="5.44012">
        <ele>64.47925</ele>
        <time>2019-06-19 12:13:11,374</time>
      </trkpt>
      <trkpt lat="43.21418" lon="5.44011">
        <ele>64.23328</ele>
        <time>2019-06-19 12:13:12,374</time>
      </trkpt>
      <trkpt lat="43.21419" lon="5.44011">
        <ele>64.39667</ele>
        <time>2019-06-19 12:13:13,369</time>
      </trkpt>
      <trkpt lat="43.2142" lon="5.4401">
        <ele>64.93494</ele>
        <time>2019-06-19 12:13:14,375</time>
      </trkpt>
      <trkpt lat="43.21422" lon="5.44009">
        <ele>64.593506</ele>
        <time>2019-06-19 12:13:15,374</time>
      </trkpt>
      <trkpt lat="43.21423" lon="5.44008">
        <ele>63.715088</ele>
        <time>2019-06-19 12:13:16,375</time>
      </trkpt>
      <trkpt lat="43.21424" lon="5.44007">
        <ele>64.262146</ele>
        <time>2019-06-19 12:13:17,371</time>
      </trkpt>
      <trkpt lat="43.21426" lon="5.44005">
        <ele>65.622925</ele>
        <time>2019-06-19 12:13:19,385</time>
      </trkpt>
      <trkpt lat="43.21425" lon="5.44003">
        <ele>66.05194</ele>
        <time>2019-06-19 12:13:20,863</time>
      </trkpt>
      <trkpt lat="43.21425" lon="5.44002">
        <ele>65.81262</ele>
        <time>2019-06-19 12:13:21,844</time>
      </trkpt>
      <trkpt lat="43.21427" lon="5.44">
        <ele>61.325623</ele>
        <time>2019-06-19 12:13:22,839</time>
      </trkpt>
      <trkpt lat="43.21428" lon="5.43998">
        <ele>60.004517</ele>
        <time>2019-06-19 12:13:23,845</time>
      </trkpt>
      <trkpt lat="43.2143" lon="5.43994">
        <ele>61.435486</ele>
        <time>2019-06-19 12:13:25,837</time>
      </trkpt>
      <trkpt lat="43.2143" lon="5.43992">
        <ele>61.407654</ele>
        <time>2019-06-19 12:13:26,842</time>
      </trkpt>
      <trkpt lat="43.2143" lon="5.43989">
        <ele>65.68616</ele>
        <time>2019-06-19 12:13:28,843</time>
      </trkpt>
      <trkpt lat="43.21431" lon="5.43985">
        <ele>61.662964</ele>
        <time>2019-06-19 12:13:31,827</time>
      </trkpt>
      <trkpt lat="43.21431" lon="5.43984">
        <ele>62.48474</ele>
        <time>2019-06-19 12:13:32,838</time>
      </trkpt>
      <trkpt lat="43.21432" lon="5.43983">
        <ele>63.84552</ele>
        <time>2019-06-19 12:13:33,837</time>
      </trkpt>
      <trkpt lat="43.21434" lon="5.43981">
        <ele>62.69934</ele>
        <time>2019-06-19 12:13:36,843</time>
      </trkpt>
      <trkpt lat="43.21434" lon="5.43979">
        <ele>63.567017</ele>
        <time>2019-06-19 12:13:37,837</time>
      </trkpt>
      <trkpt lat="43.21435" lon="5.43978">
        <ele>60.054382</ele>
        <time>2019-06-19 12:13:38,836</time>
      </trkpt>
      <trkpt lat="43.21435" lon="5.43977">
        <ele>64.041626</ele>
        <time>2019-06-19 12:13:39,840</time>
      </trkpt>
      <trkpt lat="43.21436" lon="5.43975">
        <ele>61.819275</ele>
        <time>2019-06-19 12:13:40,832</time>
      </trkpt>
      <trkpt lat="43.21437" lon="5.43974">
        <ele>61.582886</ele>
        <time>2019-06-19 12:13:41,839</time>
      </trkpt>
      <trkpt lat="43.21437" lon="5.43973">
        <ele>62.151245</ele>
        <time>2019-06-19 12:13:42,848</time>
      </trkpt>
      <trkpt lat="43.21438" lon="5.43972">
        <ele>61.169556</ele>
        <time>2019-06-19 12:13:43,848</time>
      </trkpt>
      <trkpt lat="43.21438" lon="5.43972">
        <ele>60.69348</ele>
        <time>2019-06-19 12:13:44,837</time>
      </trkpt>
      <trkpt lat="43.21438" lon="5.4397">
        <ele>59.7619</ele>
        <time>2019-06-19 12:13:45,841</time>
      </trkpt>
      <trkpt lat="43.21438" lon="5.43969">
        <ele>58.460266</ele>
        <time>2019-06-19 12:13:46,834</time>
      </trkpt>
      <trkpt lat="43.21437" lon="5.43964">
        <ele>57.63159</ele>
        <time>2019-06-19 12:13:58,979</time>
      </trkpt>
      <trkpt lat="43.21437" lon="5.43963">
        <ele>60.252808</ele>
        <time>2019-06-19 12:14:01,027</time>
      </trkpt>
      <trkpt lat="43.21436" lon="5.43962">
        <ele>61.00055</ele>
        <time>2019-06-19 12:14:06,116</time>
      </trkpt>
      <trkpt lat="43.21434" lon="5.43963">
        <ele>61.90924</ele>
        <time>2019-06-19 12:14:07,868</time>
      </trkpt>
      <trkpt lat="43.21433" lon="5.43963">
        <ele>61.535767</ele>
        <time>2019-06-19 12:14:08,837</time>
      </trkpt>
      <trkpt lat="43.21432" lon="5.43963">
        <ele>62.27118</ele>
        <time>2019-06-19 12:14:09,839</time>
      </trkpt>
      <trkpt lat="43.21432" lon="5.43964">
        <ele>62.553345</ele>
        <time>2019-06-19 12:14:10,871</time>
      </trkpt>
      <trkpt lat="43.2143" lon="5.43965">
        <ele>59.57141</ele>
        <time>2019-06-19 12:14:14,836</time>
      </trkpt>
      <trkpt lat="43.21429" lon="5.43966">
        <ele>61.00055</ele>
        <time>2019-06-19 12:14:15,937</time>
      </trkpt>
      <trkpt lat="43.21428" lon="5.43967">
        <ele>59.40576</ele>
        <time>2019-06-19 12:14:17,836</time>
      </trkpt>
      <trkpt lat="43.21429" lon="5.43968">
        <ele>60.98285</ele>
        <time>2019-06-19 12:14:18,846</time>
      </trkpt>
      <trkpt lat="43.21429" lon="5.43968">
        <ele>63.240356</ele>
        <time>2019-06-19 12:14:21,830</time>
      </trkpt>
      <trkpt lat="43.21428" lon="5.43968">
        <ele>63.667114</ele>
        <time>2019-06-19 12:14:22,838</time>
      </trkpt>
      <trkpt lat="43.21428" lon="5.43968">
        <ele>63.31195</ele>
        <time>2019-06-19 12:14:23,842</time>
      </trkpt>
      <trkpt lat="43.21428" lon="5.43968">
        <ele>62.774414</ele>
        <time>2019-06-19 12:14:24,932</time>
      </trkpt>
      <trkpt lat="43.21428" lon="5.43969">
        <ele>59.7583</ele>
        <time>2019-06-19 12:14:25,879</time>
      </trkpt>
      <trkpt lat="43.21427" lon="5.4397">
        <ele>59.40576</ele>
        <time>2019-06-19 12:14:26,840</time>
      </trkpt>
      <trkpt lat="43.21427" lon="5.4397">
        <ele>61.237427</ele>
        <time>2019-06-19 12:14:28,137</time>
      </trkpt>
      <trkpt lat="43.21427" lon="5.4397">
        <ele>64.01044</ele>
        <time>2019-06-19 12:14:50,829</time>
      </trkpt>
      <trkpt lat="43.21426" lon="5.43971">
        <ele>63.44037</ele>
        <time>2019-06-19 12:14:56,830</time>
      </trkpt>
      <trkpt lat="43.21426" lon="5.43971">
        <ele>64.12225</ele>
        <time>2019-06-19 12:14:57,829</time>
      </trkpt>
      <trkpt lat="43.21425" lon="5.43971">
        <ele>62.735474</ele>
        <time>2019-06-19 12:14:58,838</time>
      </trkpt>
      <trkpt lat="43.21424" lon="5.43971">
        <ele>61.814575</ele>
        <time>2019-06-19 12:14:59,851</time>
      </trkpt>
      <trkpt lat="43.21423" lon="5.43972">
        <ele>62.305298</ele>
        <time>2019-06-19 12:15:00,843</time>
      </trkpt>
      <trkpt lat="43.21422" lon="5.43971">
        <ele>65.0025</ele>
        <time>2019-06-19 12:15:11,832</time>
      </trkpt>
      <trkpt lat="43.2142" lon="5.43972">
        <ele>64.502075</ele>
        <time>2019-06-19 12:15:12,962</time>
      </trkpt>
      <trkpt lat="43.21415" lon="5.4397">
        <ele>67.68341</ele>
        <time>2019-06-19 12:15:15,040</time>
      </trkpt>
      <trkpt lat="43.21413" lon="5.43969">
        <ele>70.42206</ele>
        <time>2019-06-19 12:15:16,833</time>
      </trkpt>
      <trkpt lat="43.21412" lon="5.43969">
        <ele>70.77167</ele>
        <time>2019-06-19 12:15:18,006</time>
      </trkpt>
      <trkpt lat="43.21411" lon="5.43967">
        <ele>73.15851</ele>
        <time>2019-06-19 12:15:19,904</time>
      </trkpt>
      <trkpt lat="43.2141" lon="5.43966">
        <ele>73.59027</ele>
        <time>2019-06-19 12:15:20,840</time>
      </trkpt>
      <trkpt lat="43.2141" lon="5.43965">
        <ele>73.7428</ele>
        <time>2019-06-19 12:15:21,943</time>
      </trkpt>
      <trkpt lat="43.2141" lon="5.43965">
        <ele>72.94696</ele>
        <time>2019-06-19 12:15:24,004</time>
      </trkpt>
      <trkpt lat="43.21411" lon="5.43965">
        <ele>70.87897</ele>
        <time>2019-06-19 12:15:25,833</time>
      </trkpt>
      <trkpt lat="43.21411" lon="5.43965">
        <ele>72.33374</ele>
        <time>2019-06-19 12:15:26,836</time>
      </trkpt>
      <trkpt lat="43.21412" lon="5.43966">
        <ele>74.20874</ele>
        <time>2019-06-19 12:15:27,835</time>
      </trkpt>
      <trkpt lat="43.21411" lon="5.43968">
        <ele>76.43451</ele>
        <time>2019-06-19 12:15:36,001</time>
      </trkpt>
      <trkpt lat="43.2141" lon="5.43966">
        <ele>76.37537</ele>
        <time>2019-06-19 12:15:37,834</time>
      </trkpt>
      <trkpt lat="43.21409" lon="5.43965">
        <ele>76.58844</ele>
        <time>2019-06-19 12:15:42,835</time>
      </trkpt>
      <trkpt lat="43.21409" lon="5.43963">
        <ele>76.040405</ele>
        <time>2019-06-19 12:15:44,831</time>
      </trkpt>
      <trkpt lat="43.21406" lon="5.4396">
        <ele>80.53674</ele>
        <time>2019-06-19 12:15:54,844</time>
      </trkpt>
      <trkpt lat="43.21406" lon="5.4396">
        <ele>80.44122</ele>
        <time>2019-06-19 12:15:55,827</time>
      </trkpt>
      <trkpt lat="43.21403" lon="5.43956">
        <ele>80.53674</ele>
        <time>2019-06-19 12:16:05,836</time>
      </trkpt>
      <trkpt lat="43.21402" lon="5.43956">
        <ele>76.753174</ele>
        <time>2019-06-19 12:16:06,844</time>
      </trkpt>
      <trkpt lat="43.21402" lon="5.43956">
        <ele>77.2666</ele>
        <time>2019-06-19 12:16:08,012</time>
      </trkpt>
      <trkpt lat="43.21401" lon="5.43956">
        <ele>75.964355</ele>
        <time>2019-06-19 12:16:09,850</time>
      </trkpt>
      <trkpt lat="43.21399" lon="5.43956">
        <ele>77.00842</ele>
        <time>2019-06-19 12:16:11,837</time>
      </trkpt>
      <trkpt lat="43.21399" lon="5.43954">
        <ele>77.007385</ele>
        <time>2019-06-19 12:16:24,847</time>
      </trkpt>
      <trkpt lat="43.214" lon="5.43955">
        <ele>74.8609</ele>
        <time>2019-06-19 12:16:25,835</time>
      </trkpt>
      <trkpt lat="43.214" lon="5.43954">
        <ele>74.29199</ele>
        <time>2019-06-19 12:16:26,842</time>
      </trkpt>
      <trkpt lat="43.21401" lon="5.43954">
        <ele>77.399414</ele>
        <time>2019-06-19 12:16:27,834</time>
      </trkpt>
      <trkpt lat="43.21401" lon="5.43953">
        <ele>74.33441</ele>
        <time>2019-06-19 12:16:28,836</time>
      </trkpt>
      <trkpt lat="43.21401" lon="5.43952">
        <ele>74.92621</ele>
        <time>2019-06-19 12:16:30,829</time>
      </trkpt>
      <trkpt lat="43.214" lon="5.43952">
        <ele>75.51929</ele>
        <time>2019-06-19 12:16:31,980</time>
      </trkpt>
      <trkpt lat="43.21399" lon="5.43951">
        <ele>76.423645</ele>
        <time>2019-06-19 12:16:35,830</time>
      </trkpt>
      <trkpt lat="43.21399" lon="5.43951">
        <ele>77.99164</ele>
        <time>2019-06-19 12:16:36,971</time>
      </trkpt>
      <trkpt lat="43.21398" lon="5.43951">
        <ele>77.35022</ele>
        <time>2019-06-19 12:16:39,021</time>
      </trkpt>
      <trkpt lat="43.21397" lon="5.43951">
        <ele>78.25757</ele>
        <time>2019-06-19 12:16:40,831</time>
      </trkpt>
      <trkpt lat="43.21397" lon="5.4395">
        <ele>74.33441</ele>
        <time>2019-06-19 12:16:41,957</time>
      </trkpt>
      <trkpt lat="43.21395" lon="5.43949">
        <ele>81.16516</ele>
        <time>2019-06-19 12:16:48,831</time>
      </trkpt>
      <trkpt lat="43.21394" lon="5.43949">
        <ele>83.82086</ele>
        <time>2019-06-19 12:16:50,827</time>
      </trkpt>
      <trkpt lat="43.21394" lon="5.43949">
        <ele>84.49158</ele>
        <time>2019-06-19 12:16:51,950</time>
      </trkpt>
      <trkpt lat="43.21394" lon="5.43949">
        <ele>78.62329</ele>
        <time>2019-06-19 12:16:53,833</time>
      </trkpt>
      <trkpt lat="43.21394" lon="5.43948">
        <ele>87.02832</ele>
        <time>2019-06-19 12:16:54,844</time>
      </trkpt>
      <trkpt lat="43.21394" lon="5.43948">
        <ele>87.81604</ele>
        <time>2019-06-19 12:16:56,005</time>
      </trkpt>
      <trkpt lat="43.21394" lon="5.43946">
        <ele>87.90277</ele>
        <time>2019-06-19 12:16:57,835</time>
      </trkpt>
      <trkpt lat="43.21394" lon="5.43945">
        <ele>87.69818</ele>
        <time>2019-06-19 12:16:59,064</time>
      </trkpt>
      <trkpt lat="43.21394" lon="5.43943">
        <ele>86.7124</ele>
        <time>2019-06-19 12:17:00,841</time>
      </trkpt>
      <trkpt lat="43.21394" lon="5.43941">
        <ele>86.765015</ele>
        <time>2019-06-19 12:17:01,836</time>
      </trkpt>
      <trkpt lat="43.21394" lon="5.43941">
        <ele>87.84338</ele>
        <time>2019-06-19 12:17:02,839</time>
      </trkpt>
      <trkpt lat="43.21393" lon="5.43938">
        <ele>86.87427</ele>
        <time>2019-06-19 12:17:06,150</time>
      </trkpt>
      <trkpt lat="43.21394" lon="5.4393">
        <ele>82.482605</ele>
        <time>2019-06-19 12:17:10,848</time>
      </trkpt>
      <trkpt lat="43.21395" lon="5.43928">
        <ele>82.642456</ele>
        <time>2019-06-19 12:17:11,843</time>
      </trkpt>
      <trkpt lat="43.21396" lon="5.43927">
        <ele>82.394104</ele>
        <time>2019-06-19 12:17:12,830</time>
      </trkpt>
      <trkpt lat="43.21394" lon="5.43925">
        <ele>83.00525</ele>
        <time>2019-06-19 12:17:16,834</time>
      </trkpt>
      <trkpt lat="43.21395" lon="5.43924">
        <ele>84.70752</ele>
        <time>2019-06-19 12:17:20,014</time>
      </trkpt>
      <trkpt lat="43.21394" lon="5.43923">
        <ele>86.7901</ele>
        <time>2019-06-19 12:17:28,833</time>
      </trkpt>
      <trkpt lat="43.21394" lon="5.43923">
        <ele>84.30902</ele>
        <time>2019-06-19 12:17:30,853</time>
      </trkpt>
      <trkpt lat="43.21394" lon="5.43922">
        <ele>88.278564</ele>
        <time>2019-06-19 12:17:31,831</time>
      </trkpt>
      <trkpt lat="43.21395" lon="5.43921">
        <ele>88.80463</ele>
        <time>2019-06-19 12:17:32,954</time>
      </trkpt>
      <trkpt lat="43.21395" lon="5.4392">
        <ele>73.933655</ele>
        <time>2019-06-19 12:17:33,857</time>
      </trkpt>
      <trkpt lat="43.21395" lon="5.43919">
        <ele>78.1355</ele>
        <time>2019-06-19 12:17:34,871</time>
      </trkpt>
      <trkpt lat="43.21395" lon="5.43919">
        <ele>81.40271</ele>
        <time>2019-06-19 12:17:35,791</time>
      </trkpt>
      <trkpt lat="43.21396" lon="5.43919">
        <ele>83.436035</ele>
        <time>2019-06-19 12:17:36,772</time>
      </trkpt>
      <trkpt lat="43.21397" lon="5.43913">
        <ele>86.699036</ele>
        <time>2019-06-19 12:17:56,764</time>
      </trkpt>
      <trkpt lat="43.21397" lon="5.43912">
        <ele>87.61676</ele>
        <time>2019-06-19 12:17:57,918</time>
      </trkpt>
      <trkpt lat="43.21397" lon="5.43911">
        <ele>87.68518</ele>
        <time>2019-06-19 12:18:00,078</time>
      </trkpt>
      <trkpt lat="43.21394" lon="5.43909">
        <ele>88.24078</ele>
        <time>2019-06-19 12:18:01,761</time>
      </trkpt>
      <trkpt lat="43.21388" lon="5.43904">
        <ele>91.22766</ele>
        <time>2019-06-19 12:18:21,898</time>
      </trkpt>
      <trkpt lat="43.21386" lon="5.43905">
        <ele>92.13226</ele>
        <time>2019-06-19 12:18:24,021</time>
      </trkpt>
      <trkpt lat="43.21386" lon="5.43903">
        <ele>90.30475</ele>
        <time>2019-06-19 12:18:31,781</time>
      </trkpt>
      <trkpt lat="43.21385" lon="5.439">
        <ele>89.41138</ele>
        <time>2019-06-19 12:18:33,767</time>
      </trkpt>
      <trkpt lat="43.21385" lon="5.43899">
        <ele>89.03369</ele>
        <time>2019-06-19 12:18:34,763</time>
      </trkpt>
      <trkpt lat="43.21386" lon="5.43898">
        <ele>89.40546</ele>
        <time>2019-06-19 12:18:35,770</time>
      </trkpt>
      <trkpt lat="43.21387" lon="5.43898">
        <ele>90.55969</ele>
        <time>2019-06-19 12:18:36,770</time>
      </trkpt>
      <trkpt lat="43.21389" lon="5.43896">
        <ele>89.41138</ele>
        <time>2019-06-19 12:18:44,764</time>
      </trkpt>
      <trkpt lat="43.21388" lon="5.43895">
        <ele>98.16754</ele>
        <time>2019-06-19 12:18:45,770</time>
      </trkpt>
      <trkpt lat="43.21388" lon="5.43894">
        <ele>97.93396</ele>
        <time>2019-06-19 12:18:46,764</time>
      </trkpt>
      <trkpt lat="43.21387" lon="5.43894">
        <ele>98.18298</ele>
        <time>2019-06-19 12:18:47,765</time>
      </trkpt>
      <trkpt lat="43.21385" lon="5.43894">
        <ele>97.50922</ele>
        <time>2019-06-19 12:18:48,767</time>
      </trkpt>
      <trkpt lat="43.21384" lon="5.43894">
        <ele>99.236084</ele>
        <time>2019-06-19 12:18:49,929</time>
      </trkpt>
      <trkpt lat="43.21382" lon="5.43894">
        <ele>99.07483</ele>
        <time>2019-06-19 12:18:51,763</time>
      </trkpt>
      <trkpt lat="43.21376" lon="5.43896">
        <ele>98.86658</ele>
        <time>2019-06-19 12:18:54,929</time>
      </trkpt>
      <trkpt lat="43.21375" lon="5.43897">
        <ele>101.12219</ele>
        <time>2019-06-19 12:18:57,002</time>
      </trkpt>
      <trkpt lat="43.21374" lon="5.43897">
        <ele>98.16754</ele>
        <time>2019-06-19 12:18:58,768</time>
      </trkpt>
      <trkpt lat="43.21374" lon="5.43896">
        <ele>100.670166</ele>
        <time>2019-06-19 12:18:59,761</time>
      </trkpt>
      <trkpt lat="43.21374" lon="5.43896">
        <ele>101.166016</ele>
        <time>2019-06-19 12:19:00,920</time>
      </trkpt>
      <trkpt lat="43.21373" lon="5.43898">
        <ele>102.260315</ele>
        <time>2019-06-19 12:19:02,977</time>
      </trkpt>
      <trkpt lat="43.2137" lon="5.43899">
        <ele>100.83862</ele>
        <time>2019-06-19 12:19:04,762</time>
      </trkpt>
      <trkpt lat="43.21369" lon="5.439">
        <ele>101.83435</ele>
        <time>2019-06-19 12:19:05,890</time>
      </trkpt>
      <trkpt lat="43.21366" lon="5.43902">
        <ele>101.880005</ele>
        <time>2019-06-19 12:19:10,776</time>
      </trkpt>
      <trkpt lat="43.21363" lon="5.43904">
        <ele>100.670166</ele>
        <time>2019-06-19 12:19:13,789</time>
      </trkpt>
      <trkpt lat="43.21363" lon="5.43905">
        <ele>103.45325</ele>
        <time>2019-06-19 12:19:14,774</time>
      </trkpt>
      <trkpt lat="43.21362" lon="5.43906">
        <ele>103.861145</ele>
        <time>2019-06-19 12:19:16,769</time>
      </trkpt>
      <trkpt lat="43.21361" lon="5.43907">
        <ele>103.568726</ele>
        <time>2019-06-19 12:19:18,022</time>
      </trkpt>
      <trkpt lat="43.2136" lon="5.43908">
        <ele>105.55768</ele>
        <time>2019-06-19 12:19:20,773</time>
      </trkpt>
      <trkpt lat="43.21358" lon="5.4391">
        <ele>104.36536</ele>
        <time>2019-06-19 12:19:23,769</time>
      </trkpt>
      <trkpt lat="43.21357" lon="5.43912">
        <ele>104.33002</ele>
        <time>2019-06-19 12:19:26,767</time>
      </trkpt>
      <trkpt lat="43.21356" lon="5.43913">
        <ele>104.392334</ele>
        <time>2019-06-19 12:19:28,033</time>
      </trkpt>
      <trkpt lat="43.21355" lon="5.43916">
        <ele>102.96332</ele>
        <time>2019-06-19 12:19:29,773</time>
      </trkpt>
      <trkpt lat="43.21354" lon="5.43916">
        <ele>105.49933</ele>
        <time>2019-06-19 12:19:30,769</time>
      </trkpt>
      <trkpt lat="43.21354" lon="5.43916">
        <ele>105.17444</ele>
        <time>2019-06-19 12:19:31,944</time>
      </trkpt>
      <trkpt lat="43.21354" lon="5.43918">
        <ele>104.8609</ele>
        <time>2019-06-19 12:19:33,763</time>
      </trkpt>
      <trkpt lat="43.21354" lon="5.43919">
        <ele>104.99182</ele>
        <time>2019-06-19 12:19:34,923</time>
      </trkpt>
      <trkpt lat="43.21354" lon="5.4392">
        <ele>105.93024</ele>
        <time>2019-06-19 12:19:36,966</time>
      </trkpt>
      <trkpt lat="43.21353" lon="5.43918">
        <ele>106.845764</ele>
        <time>2019-06-19 12:19:38,764</time>
      </trkpt>
      <trkpt lat="43.21352" lon="5.43918">
        <ele>104.33002</ele>
        <time>2019-06-19 12:19:39,841</time>
      </trkpt>
      <trkpt lat="43.21352" lon="5.43918">
        <ele>106.39984</ele>
        <time>2019-06-19 12:19:40,774</time>
      </trkpt>
      <trkpt lat="43.21351" lon="5.43919">
        <ele>106.33923</ele>
        <time>2019-06-19 12:19:41,864</time>
      </trkpt>
      <trkpt lat="43.2135" lon="5.43919">
        <ele>108.331055</ele>
        <time>2019-06-19 12:19:43,765</time>
      </trkpt>
      <trkpt lat="43.21349" lon="5.4392">
        <ele>109.35382</ele>
        <time>2019-06-19 12:19:44,764</time>
      </trkpt>
      <trkpt lat="43.21349" lon="5.43921">
        <ele>109.97211</ele>
        <time>2019-06-19 12:19:45,777</time>
      </trkpt>
      <trkpt lat="43.21348" lon="5.43922">
        <ele>111.80676</ele>
        <time>2019-06-19 12:19:48,025</time>
      </trkpt>
      <trkpt lat="43.21346" lon="5.43926">
        <ele>110.97003</ele>
        <time>2019-06-19 12:19:51,779</time>
      </trkpt>
      <trkpt lat="43.21344" lon="5.4393">
        <ele>110.97186</ele>
        <time>2019-06-19 12:19:55,768</time>
      </trkpt>
      <trkpt lat="43.21344" lon="5.43931">
        <ele>110.407776</ele>
        <time>2019-06-19 12:19:56,807</time>
      </trkpt>
      <trkpt lat="43.21344" lon="5.43932">
        <ele>110.585144</ele>
        <time>2019-06-19 12:19:57,773</time>
      </trkpt>
      <trkpt lat="43.21343" lon="5.43933">
        <ele>109.841675</ele>
        <time>2019-06-19 12:19:59,778</time>
      </trkpt>
      <trkpt lat="43.21343" lon="5.43933">
        <ele>111.23047</ele>
        <time>2019-06-19 12:20:00,771</time>
      </trkpt>
      <trkpt lat="43.21342" lon="5.43934">
        <ele>110.90662</ele>
        <time>2019-06-19 12:20:02,824</time>
      </trkpt>
      <trkpt lat="43.21341" lon="5.43935">
        <ele>111.757385</ele>
        <time>2019-06-19 12:20:04,982</time>
      </trkpt>
      <trkpt lat="43.2134" lon="5.43936">
        <ele>109.91699</ele>
        <time>2019-06-19 12:20:06,771</time>
      </trkpt>
      <trkpt lat="43.21339" lon="5.43938">
        <ele>110.97424</ele>
        <time>2019-06-19 12:20:09,763</time>
      </trkpt>
      <trkpt lat="43.21339" lon="5.43939">
        <ele>111.038025</ele>
        <time>2019-06-19 12:20:10,833</time>
      </trkpt>
      <trkpt lat="43.21338" lon="5.4394">
        <ele>110.71564</ele>
        <time>2019-06-19 12:20:11,775</time>
      </trkpt>
      <trkpt lat="43.21338" lon="5.43941">
        <ele>113.12329</ele>
        <time>2019-06-19 12:20:12,983</time>
      </trkpt>
      <trkpt lat="43.21337" lon="5.43943">
        <ele>112.98102</ele>
        <time>2019-06-19 12:20:14,770</time>
      </trkpt>
      <trkpt lat="43.21337" lon="5.43944">
        <ele>113.499146</ele>
        <time>2019-06-19 12:20:15,772</time>
      </trkpt>
      <trkpt lat="43.21337" lon="5.43945">
        <ele>113.32599</ele>
        <time>2019-06-19 12:20:16,772</time>
      </trkpt>
      <trkpt lat="43.21336" lon="5.43946">
        <ele>113.61517</ele>
        <time>2019-06-19 12:20:17,838</time>
      </trkpt>
      <trkpt lat="43.21335" lon="5.43947">
        <ele>114.9837</ele>
        <time>2019-06-19 12:20:18,830</time>
      </trkpt>
      <trkpt lat="43.21335" lon="5.43949">
        <ele>115.32312</ele>
        <time>2019-06-19 12:20:20,765</time>
      </trkpt>
      <trkpt lat="43.21334" lon="5.43951">
        <ele>113.12329</ele>
        <time>2019-06-19 12:20:22,770</time>
      </trkpt>
      <trkpt lat="43.21333" lon="5.43951">
        <ele>114.76874</ele>
        <time>2019-06-19 12:20:23,813</time>
      </trkpt>
      <trkpt lat="43.21332" lon="5.43951">
        <ele>115.03888</ele>
        <time>2019-06-19 12:20:24,777</time>
      </trkpt>
      <trkpt lat="43.21331" lon="5.43951">
        <ele>114.95422</ele>
        <time>2019-06-19 12:20:25,770</time>
      </trkpt>
      <trkpt lat="43.21326" lon="5.43947">
        <ele>111.823364</ele>
        <time>2019-06-19 12:20:37,794</time>
      </trkpt>
      <trkpt lat="43.21327" lon="5.43945">
        <ele>110.93152</ele>
        <time>2019-06-19 12:20:38,773</time>
      </trkpt>
      <trkpt lat="43.21327" lon="5.43944">
        <ele>110.039</ele>
        <time>2019-06-19 12:20:39,775</time>
      </trkpt>
      <trkpt lat="43.21329" lon="5.43943">
        <ele>111.276306</ele>
        <time>2019-06-19 12:20:42,775</time>
      </trkpt>
      <trkpt lat="43.21329" lon="5.43941">
        <ele>112.48596</ele>
        <time>2019-06-19 12:20:43,773</time>
      </trkpt>
      <trkpt lat="43.21329" lon="5.4394">
        <ele>112.00659</ele>
        <time>2019-06-19 12:20:44,785</time>
      </trkpt>
      <trkpt lat="43.21329" lon="5.43939">
        <ele>113.41492</ele>
        <time>2019-06-19 12:20:45,777</time>
      </trkpt>
      <trkpt lat="43.21328" lon="5.43938">
        <ele>111.81244</ele>
        <time>2019-06-19 12:20:46,770</time>
      </trkpt>
      <trkpt lat="43.21327" lon="5.43937">
        <ele>115.12903</ele>
        <time>2019-06-19 12:20:47,783</time>
      </trkpt>
      <trkpt lat="43.21326" lon="5.43934">
        <ele>116.29932</ele>
        <time>2019-06-19 12:20:49,774</time>
      </trkpt>
      <trkpt lat="43.21326" lon="5.43933">
        <ele>117.48236</ele>
        <time>2019-06-19 12:20:51,768</time>
      </trkpt>
      <trkpt lat="43.21326" lon="5.43932">
        <ele>115.941345</ele>
        <time>2019-06-19 12:20:52,795</time>
      </trkpt>
      <trkpt lat="43.21327" lon="5.43931">
        <ele>116.311584</ele>
        <time>2019-06-19 12:20:53,775</time>
      </trkpt>
      <trkpt lat="43.21328" lon="5.43931">
        <ele>113.41492</ele>
        <time>2019-06-19 12:20:54,760</time>
      </trkpt>
      <trkpt lat="43.21329" lon="5.43931">
        <ele>116.95166</ele>
        <time>2019-06-19 12:20:55,771</time>
      </trkpt>
      <trkpt lat="43.21329" lon="5.43931">
        <ele>117.16785</ele>
        <time>2019-06-19 12:20:56,769</time>
      </trkpt>
      <trkpt lat="43.21329" lon="5.43929">
        <ele>116.210754</ele>
        <time>2019-06-19 12:20:57,764</time>
      </trkpt>
      <trkpt lat="43.21329" lon="5.43927">
        <ele>115.42908</ele>
        <time>2019-06-19 12:20:58,891</time>
      </trkpt>
      <trkpt lat="43.21329" lon="5.43922">
        <ele>118.2749</ele>
        <time>2019-06-19 12:21:01,771</time>
      </trkpt>
      <trkpt lat="43.21329" lon="5.43921">
        <ele>117.89374</ele>
        <time>2019-06-19 12:21:02,768</time>
      </trkpt>
      <trkpt lat="43.21329" lon="5.4392">
        <ele>117.97241</ele>
        <time>2019-06-19 12:21:03,809</time>
      </trkpt>
      <trkpt lat="43.21329" lon="5.43919">
        <ele>117.34589</ele>
        <time>2019-06-19 12:21:04,760</time>
      </trkpt>
      <trkpt lat="43.2133" lon="5.43918">
        <ele>117.09579</ele>
        <time>2019-06-19 12:21:05,772</time>
      </trkpt>
      <trkpt lat="43.21331" lon="5.43917">
        <ele>118.40576</ele>
        <time>2019-06-19 12:21:06,773</time>
      </trkpt>
      <trkpt lat="43.21332" lon="5.43916">
        <ele>118.24451</ele>
        <time>2019-06-19 12:21:07,758</time>
      </trkpt>
      <trkpt lat="43.21333" lon="5.43914">
        <ele>118.6319</ele>
        <time>2019-06-19 12:21:09,757</time>
      </trkpt>
      <trkpt lat="43.21335" lon="5.43914">
        <ele>118.86377</ele>
        <time>2019-06-19 12:21:10,759</time>
      </trkpt>
      <trkpt lat="43.21335" lon="5.43914">
        <ele>118.40375</ele>
        <time>2019-06-19 12:21:11,758</time>
      </trkpt>
      <trkpt lat="43.21336" lon="5.43912">
        <ele>118.86859</ele>
        <time>2019-06-19 12:21:12,758</time>
      </trkpt>
      <trkpt lat="43.21337" lon="5.43911">
        <ele>119.33246</ele>
        <time>2019-06-19 12:21:13,765</time>
      </trkpt>
      <trkpt lat="43.21337" lon="5.43908">
        <ele>117.18115</ele>
        <time>2019-06-19 12:21:15,769</time>
      </trkpt>
      <trkpt lat="43.21337" lon="5.43906">
        <ele>116.612854</ele>
        <time>2019-06-19 12:21:16,773</time>
      </trkpt>
      <trkpt lat="43.21336" lon="5.43904">
        <ele>117.836365</ele>
        <time>2019-06-19 12:21:17,777</time>
      </trkpt>
      <trkpt lat="43.21336" lon="5.43903">
        <ele>117.487366</ele>
        <time>2019-06-19 12:21:18,771</time>
      </trkpt>
      <trkpt lat="43.21334" lon="5.43903">
        <ele>121.99036</ele>
        <time>2019-06-19 12:21:19,772</time>
      </trkpt>
      <trkpt lat="43.21334" lon="5.43903">
        <ele>122.14026</ele>
        <time>2019-06-19 12:21:20,766</time>
      </trkpt>
      <trkpt lat="43.21333" lon="5.43901">
        <ele>124.31738</ele>
        <time>2019-06-19 12:21:21,769</time>
      </trkpt>
      <trkpt lat="43.21332" lon="5.439">
        <ele>123.579956</ele>
        <time>2019-06-19 12:21:22,765</time>
      </trkpt>
      <trkpt lat="43.21333" lon="5.439">
        <ele>122.73572</ele>
        <time>2019-06-19 12:21:24,768</time>
      </trkpt>
      <trkpt lat="43.21334" lon="5.439">
        <ele>117.42853</ele>
        <time>2019-06-19 12:21:25,764</time>
      </trkpt>
      <trkpt lat="43.21335" lon="5.439">
        <ele>123.46057</ele>
        <time>2019-06-19 12:21:26,770</time>
      </trkpt>
      <trkpt lat="43.21336" lon="5.43901">
        <ele>124.317566</ele>
        <time>2019-06-19 12:21:27,764</time>
      </trkpt>
      <trkpt lat="43.21337" lon="5.439">
        <ele>122.19098</ele>
        <time>2019-06-19 12:21:28,772</time>
      </trkpt>
      <trkpt lat="43.21337" lon="5.439">
        <ele>121.77765</ele>
        <time>2019-06-19 12:21:29,921</time>
      </trkpt>
      <trkpt lat="43.21337" lon="5.43898">
        <ele>124.36255</ele>
        <time>2019-06-19 12:21:31,765</time>
      </trkpt>
      <trkpt lat="43.21337" lon="5.43898">
        <ele>124.42383</ele>
        <time>2019-06-19 12:21:33,762</time>
      </trkpt>
      <trkpt lat="43.21337" lon="5.43897">
        <ele>124.45026</ele>
        <time>2019-06-19 12:21:34,861</time>
      </trkpt>
      <trkpt lat="43.21337" lon="5.43896">
        <ele>124.8125</ele>
        <time>2019-06-19 12:21:35,767</time>
      </trkpt>
      <trkpt lat="43.21338" lon="5.43895">
        <ele>124.54242</ele>
        <time>2019-06-19 12:21:36,892</time>
      </trkpt>
      <trkpt lat="43.21338" lon="5.43894">
        <ele>125.63153</ele>
        <time>2019-06-19 12:21:38,896</time>
      </trkpt>
      <trkpt lat="43.21339" lon="5.43892">
        <ele>124.76404</ele>
        <time>2019-06-19 12:21:40,956</time>
      </trkpt>
      <trkpt lat="43.2134" lon="5.4389">
        <ele>125.01904</ele>
        <time>2019-06-19 12:21:42,959</time>
      </trkpt>
      <trkpt lat="43.21342" lon="5.43887">
        <ele>124.50427</ele>
        <time>2019-06-19 12:21:45,936</time>
      </trkpt>
      <trkpt lat="43.21342" lon="5.43887">
        <ele>124.73932</ele>
        <time>2019-06-19 12:21:47,772</time>
      </trkpt>
      <trkpt lat="43.21343" lon="5.43886">
        <ele>124.703125</ele>
        <time>2019-06-19 12:21:48,774</time>
      </trkpt>
      <trkpt lat="43.21343" lon="5.43885">
        <ele>124.33722</ele>
        <time>2019-06-19 12:21:49,771</time>
      </trkpt>
      <trkpt lat="43.21343" lon="5.43886">
        <ele>125.85559</ele>
        <time>2019-06-19 12:21:50,780</time>
      </trkpt>
      <trkpt lat="43.21343" lon="5.43888">
        <ele>126.604126</ele>
        <time>2019-06-19 12:22:12,777</time>
      </trkpt>
      <trkpt lat="43.21344" lon="5.43888">
        <ele>126.28845</ele>
        <time>2019-06-19 12:22:13,779</time>
      </trkpt>
      <trkpt lat="43.21344" lon="5.43887">
        <ele>126.634094</ele>
        <time>2019-06-19 12:22:14,767</time>
      </trkpt>
      <trkpt lat="43.21344" lon="5.43886">
        <ele>125.75885</ele>
        <time>2019-06-19 12:22:16,770</time>
      </trkpt>
      <trkpt lat="43.21345" lon="5.43886">
        <ele>127.790405</ele>
        <time>2019-06-19 12:22:17,763</time>
      </trkpt>
      <trkpt lat="43.21346" lon="5.43886">
        <ele>124.52045</ele>
        <time>2019-06-19 12:22:18,765</time>
      </trkpt>
      <trkpt lat="43.21347" lon="5.43886">
        <ele>123.23486</ele>
        <time>2019-06-19 12:22:19,768</time>
      </trkpt>
      <trkpt lat="43.21349" lon="5.43885">
        <ele>123.762085</ele>
        <time>2019-06-19 12:22:20,770</time>
      </trkpt>
      <trkpt lat="43.21349" lon="5.43884">
        <ele>124.9776</ele>
        <time>2019-06-19 12:22:21,769</time>
      </trkpt>
      <trkpt lat="43.2135" lon="5.43873">
        <ele>127.70917</ele>
        <time>2019-06-19 12:22:29,773</time>
      </trkpt>
      <trkpt lat="43.2135" lon="5.43872">
        <ele>127.26117</ele>
        <time>2019-06-19 12:22:31,766</time>
      </trkpt>
      <trkpt lat="43.21348" lon="5.43864">
        <ele>126.436646</ele>
        <time>2019-06-19 12:22:38,764</time>
      </trkpt>
      <trkpt lat="43.21349" lon="5.43863">
        <ele>126.4646</ele>
        <time>2019-06-19 12:22:39,763</time>
      </trkpt>
      <trkpt lat="43.2135" lon="5.43857">
        <ele>128.24146</ele>
        <time>2019-06-19 12:22:46,769</time>
      </trkpt>
      <trkpt lat="43.2135" lon="5.43856">
        <ele>127.21222</ele>
        <time>2019-06-19 12:22:47,916</time>
      </trkpt>
      <trkpt lat="43.21351" lon="5.43855">
        <ele>130.7453</ele>
        <time>2019-06-19 12:22:51,762</time>
      </trkpt>
      <trkpt lat="43.21351" lon="5.43854">
        <ele>131.45422</ele>
        <time>2019-06-19 12:22:52,762</time>
      </trkpt>
      <trkpt lat="43.21352" lon="5.43853">
        <ele>131.5741</ele>
        <time>2019-06-19 12:22:54,764</time>
      </trkpt>
      <trkpt lat="43.21353" lon="5.43851">
        <ele>130.85974</ele>
        <time>2019-06-19 12:22:56,769</time>
      </trkpt>
      <trkpt lat="43.21354" lon="5.43849">
        <ele>130.2096</ele>
        <time>2019-06-19 12:22:58,769</time>
      </trkpt>
      <trkpt lat="43.21354" lon="5.43848">
        <ele>131.12122</ele>
        <time>2019-06-19 12:22:59,761</time>
      </trkpt>
      <trkpt lat="43.21355" lon="5.43847">
        <ele>131.18665</ele>
        <time>2019-06-19 12:23:01,765</time>
      </trkpt>
      <trkpt lat="43.21355" lon="5.43845">
        <ele>130.95667</ele>
        <time>2019-06-19 12:23:03,765</time>
      </trkpt>
      <trkpt lat="43.21355" lon="5.43845">
        <ele>131.14777</ele>
        <time>2019-06-19 12:23:04,763</time>
      </trkpt>
      <trkpt lat="43.21353" lon="5.4384">
        <ele>130.9549</ele>
        <time>2019-06-19 12:23:14,776</time>
      </trkpt>
      <trkpt lat="43.21354" lon="5.4384">
        <ele>132.37048</ele>
        <time>2019-06-19 12:23:15,843</time>
      </trkpt>
      <trkpt lat="43.21356" lon="5.43839">
        <ele>132.13464</ele>
        <time>2019-06-19 12:23:17,872</time>
      </trkpt>
      <trkpt lat="43.21357" lon="5.43838">
        <ele>132.81665</ele>
        <time>2019-06-19 12:23:19,953</time>
      </trkpt>
      <trkpt lat="43.2136" lon="5.43834">
        <ele>135.20532</ele>
        <time>2019-06-19 12:23:25,080</time>
      </trkpt>
      <trkpt lat="43.21362" lon="5.43824">
        <ele>135.74622</ele>
        <time>2019-06-19 12:23:29,778</time>
      </trkpt>
      <trkpt lat="43.21363" lon="5.43821">
        <ele>135.78589</ele>
        <time>2019-06-19 12:23:32,769</time>
      </trkpt>
      <trkpt lat="43.21363" lon="5.43819">
        <ele>136.43176</ele>
        <time>2019-06-19 12:23:33,776</time>
      </trkpt>
      <trkpt lat="43.21363" lon="5.43817">
        <ele>135.99512</ele>
        <time>2019-06-19 12:23:34,782</time>
      </trkpt>
      <trkpt lat="43.21363" lon="5.43815">
        <ele>135.92366</ele>
        <time>2019-06-19 12:23:35,779</time>
      </trkpt>
      <trkpt lat="43.21363" lon="5.43813">
        <ele>136.60242</ele>
        <time>2019-06-19 12:23:36,780</time>
      </trkpt>
      <trkpt lat="43.2136" lon="5.43807">
        <ele>137.86438</ele>
        <time>2019-06-19 12:23:39,778</time>
      </trkpt>
      <trkpt lat="43.2136" lon="5.438">
        <ele>133.64038</ele>
        <time>2019-06-19 12:23:43,807</time>
      </trkpt>
      <trkpt lat="43.2136" lon="5.43798">
        <ele>133.40723</ele>
        <time>2019-06-19 12:23:44,776</time>
      </trkpt>
      <trkpt lat="43.21359" lon="5.43796">
        <ele>136.60242</ele>
        <time>2019-06-19 12:23:45,814</time>
      </trkpt>
      <trkpt lat="43.21359" lon="5.43795">
        <ele>131.38849</ele>
        <time>2019-06-19 12:23:46,762</time>
      </trkpt>
      <trkpt lat="43.21359" lon="5.43794">
        <ele>130.53937</ele>
        <time>2019-06-19 12:23:47,926</time>
      </trkpt>
      <trkpt lat="43.21361" lon="5.43794">
        <ele>131.65417</ele>
        <time>2019-06-19 12:23:49,980</time>
      </trkpt>
      <trkpt lat="43.21363" lon="5.43795">
        <ele>132.37146</ele>
        <time>2019-06-19 12:23:52,771</time>
      </trkpt>
      <trkpt lat="43.21363" lon="5.43795">
        <ele>132.85864</ele>
        <time>2019-06-19 12:23:53,763</time>
      </trkpt>
      <trkpt lat="43.21363" lon="5.43791">
        <ele>133.755</ele>
        <time>2019-06-19 12:23:59,764</time>
      </trkpt>
      <trkpt lat="43.21364" lon="5.43791">
        <ele>134.7378</ele>
        <time>2019-06-19 12:24:00,772</time>
      </trkpt>
      <trkpt lat="43.21364" lon="5.4379">
        <ele>135.12622</ele>
        <time>2019-06-19 12:24:01,763</time>
      </trkpt>
      <trkpt lat="43.21364" lon="5.43788">
        <ele>135.10425</ele>
        <time>2019-06-19 12:24:02,967</time>
      </trkpt>
      <trkpt lat="43.21364" lon="5.43787">
        <ele>135.32617</ele>
        <time>2019-06-19 12:24:04,763</time>
      </trkpt>
      <trkpt lat="43.21365" lon="5.43786">
        <ele>135.58063</ele>
        <time>2019-06-19 12:24:05,769</time>
      </trkpt>
      <trkpt lat="43.21365" lon="5.43786">
        <ele>135.75305</ele>
        <time>2019-06-19 12:24:06,789</time>
      </trkpt>
      <trkpt lat="43.21366" lon="5.43784">
        <ele>135.36975</ele>
        <time>2019-06-19 12:24:07,768</time>
      </trkpt>
      <trkpt lat="43.21367" lon="5.43783">
        <ele>135.6344</ele>
        <time>2019-06-19 12:24:09,767</time>
      </trkpt>
      <trkpt lat="43.21367" lon="5.43782">
        <ele>137.87646</ele>
        <time>2019-06-19 12:24:10,769</time>
      </trkpt>
      <trkpt lat="43.21368" lon="5.43781">
        <ele>138.67639</ele>
        <time>2019-06-19 12:24:11,765</time>
      </trkpt>
      <trkpt lat="43.21368" lon="5.43779">
        <ele>139.53009</ele>
        <time>2019-06-19 12:24:12,765</time>
      </trkpt>
      <trkpt lat="43.21366" lon="5.43777">
        <ele>145.18628</ele>
        <time>2019-06-19 12:24:14,771</time>
      </trkpt>
      <trkpt lat="43.21366" lon="5.43775">
        <ele>143.89606</ele>
        <time>2019-06-19 12:24:15,764</time>
      </trkpt>
      <trkpt lat="43.21366" lon="5.43773">
        <ele>143.44092</ele>
        <time>2019-06-19 12:24:16,764</time>
      </trkpt>
      <trkpt lat="43.21366" lon="5.43771">
        <ele>143.9878</ele>
        <time>2019-06-19 12:24:18,759</time>
      </trkpt>
      <trkpt lat="43.21366" lon="5.4377">
        <ele>143.914</ele>
        <time>2019-06-19 12:24:19,793</time>
      </trkpt>
      <trkpt lat="43.21366" lon="5.43769">
        <ele>143.01312</ele>
        <time>2019-06-19 12:24:22,766</time>
      </trkpt>
      <trkpt lat="43.21366" lon="5.43768">
        <ele>142.4613</ele>
        <time>2019-06-19 12:24:23,765</time>
      </trkpt>
      <trkpt lat="43.21366" lon="5.43766">
        <ele>143.12408</ele>
        <time>2019-06-19 12:24:25,768</time>
      </trkpt>
      <trkpt lat="43.21365" lon="5.43764">
        <ele>143.36292</ele>
        <time>2019-06-19 12:24:27,764</time>
      </trkpt>
      <trkpt lat="43.21365" lon="5.43763">
        <ele>143.914</ele>
        <time>2019-06-19 12:24:29,771</time>
      </trkpt>
      <trkpt lat="43.21364" lon="5.43761">
        <ele>144.0733</ele>
        <time>2019-06-19 12:24:30,762</time>
      </trkpt>
      <trkpt lat="43.21365" lon="5.43759">
        <ele>144.10901</ele>
        <time>2019-06-19 12:24:32,763</time>
      </trkpt>
      <trkpt lat="43.21364" lon="5.43754">
        <ele>145.59521</ele>
        <time>2019-06-19 12:24:36,776</time>
      </trkpt>
      <trkpt lat="43.21363" lon="5.43754">
        <ele>146.62952</ele>
        <time>2019-06-19 12:24:37,778</time>
      </trkpt>
      <trkpt lat="43.21363" lon="5.43753">
        <ele>147.08228</ele>
        <time>2019-06-19 12:24:38,776</time>
      </trkpt>
      <trkpt lat="43.21364" lon="5.4375">
        <ele>146.78876</ele>
        <time>2019-06-19 12:24:45,805</time>
      </trkpt>
      <trkpt lat="43.21364" lon="5.4375">
        <ele>147.33344</ele>
        <time>2019-06-19 12:24:46,774</time>
      </trkpt>
      <trkpt lat="43.21365" lon="5.43749">
        <ele>147.70471</ele>
        <time>2019-06-19 12:24:47,772</time>
      </trkpt>
      <trkpt lat="43.21366" lon="5.43748">
        <ele>148.0357</ele>
        <time>2019-06-19 12:24:48,848</time>
      </trkpt>
      <trkpt lat="43.21367" lon="5.43748">
        <ele>149.09918</ele>
        <time>2019-06-19 12:24:49,778</time>
      </trkpt>
      <trkpt lat="43.21367" lon="5.43747">
        <ele>147.01459</ele>
        <time>2019-06-19 12:24:50,966</time>
      </trkpt>
      <trkpt lat="43.21369" lon="5.43745">
        <ele>148.88739</ele>
        <time>2019-06-19 12:24:52,796</time>
      </trkpt>
      <trkpt lat="43.21371" lon="5.43744">
        <ele>148.85663</ele>
        <time>2019-06-19 12:24:55,777</time>
      </trkpt>
      <trkpt lat="43.21372" lon="5.43743">
        <ele>148.81744</ele>
        <time>2019-06-19 12:24:56,775</time>
      </trkpt>
      <trkpt lat="43.21372" lon="5.43743">
        <ele>149.19794</ele>
        <time>2019-06-19 12:24:58,791</time>
      </trkpt>
      <trkpt lat="43.21373" lon="5.43742">
        <ele>149.01147</ele>
        <time>2019-06-19 12:24:59,768</time>
      </trkpt>
      <trkpt lat="43.21373" lon="5.43742">
        <ele>148.64081</ele>
        <time>2019-06-19 12:25:00,770</time>
      </trkpt>
      <trkpt lat="43.21374" lon="5.43741">
        <ele>148.89856</ele>
        <time>2019-06-19 12:25:01,802</time>
      </trkpt>
      <trkpt lat="43.21376" lon="5.43736">
        <ele>149.17346</ele>
        <time>2019-06-19 12:25:06,818</time>
      </trkpt>
      <trkpt lat="43.21377" lon="5.43735">
        <ele>149.23975</ele>
        <time>2019-06-19 12:25:07,767</time>
      </trkpt>
      <trkpt lat="43.21376" lon="5.43733">
        <ele>149.8739</ele>
        <time>2019-06-19 12:25:08,775</time>
      </trkpt>
      <trkpt lat="43.21376" lon="5.43732">
        <ele>150.46667</ele>
        <time>2019-06-19 12:25:09,767</time>
      </trkpt>
      <trkpt lat="43.21378" lon="5.43729">
        <ele>152.63403</ele>
        <time>2019-06-19 12:25:12,768</time>
      </trkpt>
      <trkpt lat="43.21379" lon="5.43728">
        <ele>152.70337</ele>
        <time>2019-06-19 12:25:13,871</time>
      </trkpt>
      <trkpt lat="43.2138" lon="5.43727">
        <ele>153.15485</ele>
        <time>2019-06-19 12:25:14,819</time>
      </trkpt>
      <trkpt lat="43.21384" lon="5.43721">
        <ele>152.70337</ele>
        <time>2019-06-19 12:25:21,766</time>
      </trkpt>
      <trkpt lat="43.21385" lon="5.43721">
        <ele>154.93933</ele>
        <time>2019-06-19 12:25:23,797</time>
      </trkpt>
      <trkpt lat="43.21385" lon="5.43721">
        <ele>156.1388</ele>
        <time>2019-06-19 12:25:24,775</time>
      </trkpt>
      <trkpt lat="43.21386" lon="5.43722">
        <ele>157.32446</ele>
        <time>2019-06-19 12:25:26,793</time>
      </trkpt>
      <trkpt lat="43.21387" lon="5.43722">
        <ele>157.41449</ele>
        <time>2019-06-19 12:25:27,772</time>
      </trkpt>
      <trkpt lat="43.21387" lon="5.43723">
        <ele>157.72925</ele>
        <time>2019-06-19 12:25:29,762</time>
      </trkpt>
      <trkpt lat="43.21388" lon="5.43722">
        <ele>156.62207</ele>
        <time>2019-06-19 12:25:30,768</time>
      </trkpt>
      <trkpt lat="43.2139" lon="5.43721">
        <ele>158.05212</ele>
        <time>2019-06-19 12:25:32,772</time>
      </trkpt>
      <trkpt lat="43.21392" lon="5.43721">
        <ele>158.16656</ele>
        <time>2019-06-19 12:25:34,777</time>
      </trkpt>
      <trkpt lat="43.21393" lon="5.4372">
        <ele>159.45135</ele>
        <time>2019-06-19 12:25:39,795</time>
      </trkpt>
      <trkpt lat="43.21393" lon="5.4372">
        <ele>158.40985</ele>
        <time>2019-06-19 12:25:40,762</time>
      </trkpt>
      <trkpt lat="43.21395" lon="5.43717">
        <ele>158.54004</ele>
        <time>2019-06-19 12:25:44,780</time>
      </trkpt>
      <trkpt lat="43.21396" lon="5.43716">
        <ele>158.16089</ele>
        <time>2019-06-19 12:25:45,779</time>
      </trkpt>
      <trkpt lat="43.21397" lon="5.43716">
        <ele>157.1947</ele>
        <time>2019-06-19 12:25:47,774</time>
      </trkpt>
      <trkpt lat="43.21398" lon="5.43716">
        <ele>156.79828</ele>
        <time>2019-06-19 12:25:48,778</time>
      </trkpt>
      <trkpt lat="43.214" lon="5.43715">
        <ele>157.45923</ele>
        <time>2019-06-19 12:25:49,907</time>
      </trkpt>
      <trkpt lat="43.21402" lon="5.43713">
        <ele>156.0094</ele>
        <time>2019-06-19 12:25:51,773</time>
      </trkpt>
      <trkpt lat="43.21403" lon="5.43712">
        <ele>156.56494</ele>
        <time>2019-06-19 12:25:52,767</time>
      </trkpt>
      <trkpt lat="43.21404" lon="5.43712">
        <ele>156.72546</ele>
        <time>2019-06-19 12:25:53,779</time>
      </trkpt>
      <trkpt lat="43.21404" lon="5.43712">
        <ele>158.54004</ele>
        <time>2019-06-19 12:25:54,764</time>
      </trkpt>
      <trkpt lat="43.21406" lon="5.43711">
        <ele>197.24707</ele>
        <time>2019-06-19 12:25:55,763</time>
      </trkpt>
      <trkpt lat="43.21406" lon="5.43711">
        <ele>186.64508</ele>
        <time>2019-06-19 12:25:56,775</time>
      </trkpt>
      <trkpt lat="43.21407" lon="5.43711">
        <ele>174.17212</ele>
        <time>2019-06-19 12:25:58,768</time>
      </trkpt>
      <trkpt lat="43.2141" lon="5.43709">
        <ele>165.72571</ele>
        <time>2019-06-19 12:26:01,768</time>
      </trkpt>
      <trkpt lat="43.21411" lon="5.43708">
        <ele>163.91132</ele>
        <time>2019-06-19 12:26:02,774</time>
      </trkpt>
      <trkpt lat="43.21411" lon="5.43706">
        <ele>162.4909</ele>
        <time>2019-06-19 12:26:03,789</time>
      </trkpt>
      <trkpt lat="43.21412" lon="5.43704">
        <ele>197.24707</ele>
        <time>2019-06-19 12:26:04,769</time>
      </trkpt>
      <trkpt lat="43.21412" lon="5.43703">
        <ele>159.07446</ele>
        <time>2019-06-19 12:26:05,767</time>
      </trkpt>
      <trkpt lat="43.21412" lon="5.43701">
        <ele>159.1972</ele>
        <time>2019-06-19 12:26:06,771</time>
      </trkpt>
      <trkpt lat="43.21411" lon="5.437">
        <ele>158.19421</ele>
        <time>2019-06-19 12:26:07,769</time>
      </trkpt>
      <trkpt lat="43.21412" lon="5.43699">
        <ele>156.55261</ele>
        <time>2019-06-19 12:26:09,771</time>
      </trkpt>
      <trkpt lat="43.21413" lon="5.43698">
        <ele>156.50366</ele>
        <time>2019-06-19 12:26:10,763</time>
      </trkpt>
      <trkpt lat="43.21413" lon="5.43696">
        <ele>156.04681</ele>
        <time>2019-06-19 12:26:11,754</time>
      </trkpt>
      <trkpt lat="43.21415" lon="5.43694">
        <ele>157.8623</ele>
        <time>2019-06-19 12:26:13,781</time>
      </trkpt>
      <trkpt lat="43.21415" lon="5.43693">
        <ele>159.07446</ele>
        <time>2019-06-19 12:26:14,773</time>
      </trkpt>
      <trkpt lat="43.21415" lon="5.43693">
        <ele>160.20258</ele>
        <time>2019-06-19 12:26:15,851</time>
      </trkpt>
      <trkpt lat="43.21416" lon="5.43692">
        <ele>161.48279</ele>
        <time>2019-06-19 12:26:16,766</time>
      </trkpt>
      <trkpt lat="43.21416" lon="5.4369">
        <ele>160.50452</ele>
        <time>2019-06-19 12:26:17,938</time>
      </trkpt>
      <trkpt lat="43.21416" lon="5.43687">
        <ele>160.81885</ele>
        <time>2019-06-19 12:26:19,764</time>
      </trkpt>
      <trkpt lat="43.21416" lon="5.43685">
        <ele>161.3952</ele>
        <time>2019-06-19 12:26:20,976</time>
      </trkpt>
      <trkpt lat="43.21416" lon="5.43685">
        <ele>161.96252</ele>
        <time>2019-06-19 12:26:22,772</time>
      </trkpt>
      <trkpt lat="43.21416" lon="5.43685">
        <ele>162.30426</ele>
        <time>2019-06-19 12:26:24,780</time>
      </trkpt>
      <trkpt lat="43.21417" lon="5.43684">
        <ele>161.49939</ele>
        <time>2019-06-19 12:26:25,809</time>
      </trkpt>
      <trkpt lat="43.21417" lon="5.43683">
        <ele>160.20258</ele>
        <time>2019-06-19 12:26:26,764</time>
      </trkpt>
      <trkpt lat="43.21417" lon="5.43681">
        <ele>160.53394</ele>
        <time>2019-06-19 12:26:27,768</time>
      </trkpt>
      <trkpt lat="43.21418" lon="5.4368">
        <ele>161.26062</ele>
        <time>2019-06-19 12:26:28,769</time>
      </trkpt>
      <trkpt lat="43.21418" lon="5.43679">
        <ele>161.7088</ele>
        <time>2019-06-19 12:26:29,763</time>
      </trkpt>
      <trkpt lat="43.21419" lon="5.43679">
        <ele>161.6128</ele>
        <time>2019-06-19 12:26:30,767</time>
      </trkpt>
      <trkpt lat="43.21419" lon="5.43678">
        <ele>162.61115</ele>
        <time>2019-06-19 12:26:31,768</time>
      </trkpt>
      <trkpt lat="43.21419" lon="5.43676">
        <ele>162.90808</ele>
        <time>2019-06-19 12:26:32,768</time>
      </trkpt>
      <trkpt lat="43.21419" lon="5.43675">
        <ele>162.7724</ele>
        <time>2019-06-19 12:26:33,762</time>
      </trkpt>
      <trkpt lat="43.21418" lon="5.43674">
        <ele>162.69537</ele>
        <time>2019-06-19 12:26:34,767</time>
      </trkpt>
      <trkpt lat="43.21418" lon="5.43673">
        <ele>162.27936</ele>
        <time>2019-06-19 12:26:35,776</time>
      </trkpt>
      <trkpt lat="43.21418" lon="5.43673">
        <ele>160.53394</ele>
        <time>2019-06-19 12:26:36,764</time>
      </trkpt>
      <trkpt lat="43.21419" lon="5.43671">
        <ele>162.95752</ele>
        <time>2019-06-19 12:26:37,769</time>
      </trkpt>
      <trkpt lat="43.21421" lon="5.43669">
        <ele>163.25922</ele>
        <time>2019-06-19 12:26:39,767</time>
      </trkpt>
      <trkpt lat="43.21424" lon="5.43666">
        <ele>162.94824</ele>
        <time>2019-06-19 12:26:42,771</time>
      </trkpt>
      <trkpt lat="43.21423" lon="5.43662">
        <ele>159.8822</ele>
        <time>2019-06-19 12:26:45,766</time>
      </trkpt>
      <trkpt lat="43.21425" lon="5.43653">
        <ele>159.83148</ele>
        <time>2019-06-19 12:26:52,772</time>
      </trkpt>
      <trkpt lat="43.21425" lon="5.43652">
        <ele>159.73041</ele>
        <time>2019-06-19 12:26:53,782</time>
      </trkpt>
      <trkpt lat="43.21425" lon="5.43651">
        <ele>159.80444</ele>
        <time>2019-06-19 12:26:54,760</time>
      </trkpt>
      <trkpt lat="43.21426" lon="5.43648">
        <ele>160.32703</ele>
        <time>2019-06-19 12:26:56,809</time>
      </trkpt>
      <trkpt lat="43.21426" lon="5.43646">
        <ele>161.21423</ele>
        <time>2019-06-19 12:26:58,765</time>
      </trkpt>
      <trkpt lat="43.21425" lon="5.43639">
        <ele>159.61035</ele>
        <time>2019-06-19 12:27:02,770</time>
      </trkpt>
      <trkpt lat="43.21425" lon="5.43638">
        <ele>159.00421</ele>
        <time>2019-06-19 12:27:03,855</time>
      </trkpt>
      <trkpt lat="43.21425" lon="5.43633">
        <ele>157.96228</ele>
        <time>2019-06-19 12:27:06,769</time>
      </trkpt>
      <trkpt lat="43.21426" lon="5.43629">
        <ele>158.31848</ele>
        <time>2019-06-19 12:27:08,777</time>
      </trkpt>
      <trkpt lat="43.21426" lon="5.43628">
        <ele>158.7124</ele>
        <time>2019-06-19 12:27:09,767</time>
      </trkpt>
      <trkpt lat="43.21427" lon="5.43627">
        <ele>159.12518</ele>
        <time>2019-06-19 12:27:10,776</time>
      </trkpt>
      <trkpt lat="43.2143" lon="5.43623">
        <ele>160.67963</ele>
        <time>2019-06-19 12:27:14,859</time>
      </trkpt>
      <trkpt lat="43.2143" lon="5.43622">
        <ele>160.92914</ele>
        <time>2019-06-19 12:27:15,800</time>
      </trkpt>
      <trkpt lat="43.2143" lon="5.43621">
        <ele>159.69543</ele>
        <time>2019-06-19 12:27:16,771</time>
      </trkpt>
      <trkpt lat="43.21431" lon="5.4362">
        <ele>158.31848</ele>
        <time>2019-06-19 12:27:17,766</time>
      </trkpt>
      <trkpt lat="43.21433" lon="5.43618">
        <ele>161.29688</ele>
        <time>2019-06-19 12:27:20,763</time>
      </trkpt>
      <trkpt lat="43.21434" lon="5.43617">
        <ele>161.52527</ele>
        <time>2019-06-19 12:27:22,798</time>
      </trkpt>
      <trkpt lat="43.21434" lon="5.43616">
        <ele>163.17566</ele>
        <time>2019-06-19 12:27:23,774</time>
      </trkpt>
      <trkpt lat="43.21435" lon="5.43615">
        <ele>163.54602</ele>
        <time>2019-06-19 12:27:24,765</time>
      </trkpt>
      <trkpt lat="43.21435" lon="5.43613">
        <ele>160.35254</ele>
        <time>2019-06-19 12:27:27,854</time>
      </trkpt>
      <trkpt lat="43.21435" lon="5.43613">
        <ele>162.68286</ele>
        <time>2019-06-19 12:27:28,797</time>
      </trkpt>
      <trkpt lat="43.21435" lon="5.43611">
        <ele>159.67273</ele>
        <time>2019-06-19 12:27:31,765</time>
      </trkpt>
      <trkpt lat="43.21434" lon="5.43609">
        <ele>158.59851</ele>
        <time>2019-06-19 12:27:32,764</time>
      </trkpt>
      <trkpt lat="43.21434" lon="5.43608">
        <ele>158.9519</ele>
        <time>2019-06-19 12:27:33,764</time>
      </trkpt>
      <trkpt lat="43.21435" lon="5.43607">
        <ele>159.25726</ele>
        <time>2019-06-19 12:27:34,764</time>
      </trkpt>
      <trkpt lat="43.21437" lon="5.43598">
        <ele>158.61768</ele>
        <time>2019-06-19 12:27:41,906</time>
      </trkpt>
      <trkpt lat="43.21437" lon="5.43595">
        <ele>158.61646</ele>
        <time>2019-06-19 12:27:43,954</time>
      </trkpt>
      <trkpt lat="43.21438" lon="5.43593">
        <ele>158.7937</ele>
        <time>2019-06-19 12:27:45,774</time>
      </trkpt>
      <trkpt lat="43.21441" lon="5.43588">
        <ele>161.56427</ele>
        <time>2019-06-19 12:27:48,768</time>
      </trkpt>
      <trkpt lat="43.21441" lon="5.43586">
        <ele>159.406</ele>
        <time>2019-06-19 12:27:49,781</time>
      </trkpt>
      <trkpt lat="43.21442" lon="5.43586">
        <ele>162.44635</ele>
        <time>2019-06-19 12:27:50,770</time>
      </trkpt>
      <trkpt lat="43.21442" lon="5.43586">
        <ele>162.83875</ele>
        <time>2019-06-19 12:27:52,777</time>
      </trkpt>
      <trkpt lat="43.21443" lon="5.43585">
        <ele>163.41919</ele>
        <time>2019-06-19 12:27:53,766</time>
      </trkpt>
      <trkpt lat="43.21444" lon="5.43584">
        <ele>165.12067</ele>
        <time>2019-06-19 12:27:55,761</time>
      </trkpt>
      <trkpt lat="43.21444" lon="5.43581">
        <ele>160.7793</ele>
        <time>2019-06-19 12:27:56,765</time>
      </trkpt>
      <trkpt lat="43.21444" lon="5.43578">
        <ele>160.58875</ele>
        <time>2019-06-19 12:27:57,764</time>
      </trkpt>
      <trkpt lat="43.21443" lon="5.43575">
        <ele>162.44635</ele>
        <time>2019-06-19 12:27:59,768</time>
      </trkpt>
      <trkpt lat="43.21444" lon="5.43575">
        <ele>161.81293</ele>
        <time>2019-06-19 12:28:00,769</time>
      </trkpt>
      <trkpt lat="43.21444" lon="5.43574">
        <ele>162.34778</ele>
        <time>2019-06-19 12:28:02,762</time>
      </trkpt>
      <trkpt lat="43.21444" lon="5.43574">
        <ele>163.32031</ele>
        <time>2019-06-19 12:28:03,767</time>
      </trkpt>
      <trkpt lat="43.21445" lon="5.43573">
        <ele>163.393</ele>
        <time>2019-06-19 12:28:05,763</time>
      </trkpt>
      <trkpt lat="43.21445" lon="5.43571">
        <ele>164.61963</ele>
        <time>2019-06-19 12:28:07,766</time>
      </trkpt>
      <trkpt lat="43.21446" lon="5.43571">
        <ele>164.87073</ele>
        <time>2019-06-19 12:28:08,762</time>
      </trkpt>
      <trkpt lat="43.21446" lon="5.43568">
        <ele>161.81293</ele>
        <time>2019-06-19 12:28:09,764</time>
      </trkpt>
      <trkpt lat="43.21446" lon="5.43565">
        <ele>164.66394</ele>
        <time>2019-06-19 12:28:10,764</time>
      </trkpt>
      <trkpt lat="43.21446" lon="5.43564">
        <ele>165.60669</ele>
        <time>2019-06-19 12:28:11,781</time>
      </trkpt>
      <trkpt lat="43.21446" lon="5.43559">
        <ele>162.86829</ele>
        <time>2019-06-19 12:28:14,765</time>
      </trkpt>
      <trkpt lat="43.21446" lon="5.43558">
        <ele>164.21985</ele>
        <time>2019-06-19 12:28:15,767</time>
      </trkpt>
      <trkpt lat="43.21448" lon="5.43557">
        <ele>168.34131</ele>
        <time>2019-06-19 12:28:19,767</time>
      </trkpt>
      <trkpt lat="43.21449" lon="5.43557">
        <ele>167.9032</ele>
        <time>2019-06-19 12:28:20,769</time>
      </trkpt>
      <trkpt lat="43.21449" lon="5.43557">
        <ele>164.66394</ele>
        <time>2019-06-19 12:28:21,773</time>
      </trkpt>
      <trkpt lat="43.21449" lon="5.43556">
        <ele>168.2821</ele>
        <time>2019-06-19 12:28:22,792</time>
      </trkpt>
      <trkpt lat="43.2145" lon="5.43556">
        <ele>169.14783</ele>
        <time>2019-06-19 12:28:23,776</time>
      </trkpt>
      <trkpt lat="43.21451" lon="5.43556">
        <ele>169.12225</ele>
        <time>2019-06-19 12:28:25,762</time>
      </trkpt>
      <trkpt lat="43.21452" lon="5.43556">
        <ele>167.90479</ele>
        <time>2019-06-19 12:28:26,825</time>
      </trkpt>
      <trkpt lat="43.21453" lon="5.43556">
        <ele>167.93353</ele>
        <time>2019-06-19 12:28:27,772</time>
      </trkpt>
      <trkpt lat="43.21453" lon="5.43555">
        <ele>167.02222</ele>
        <time>2019-06-19 12:28:28,775</time>
      </trkpt>
      <trkpt lat="43.21454" lon="5.43554">
        <ele>168.16077</ele>
        <time>2019-06-19 12:28:29,773</time>
      </trkpt>
      <trkpt lat="43.21454" lon="5.43554">
        <ele>169.16437</ele>
        <time>2019-06-19 12:28:30,776</time>
      </trkpt>
      <trkpt lat="43.21455" lon="5.43554">
        <ele>168.2821</ele>
        <time>2019-06-19 12:28:31,774</time>
      </trkpt>
      <trkpt lat="43.21455" lon="5.43553">
        <ele>169.19067</ele>
        <time>2019-06-19 12:28:32,775</time>
      </trkpt>
      <trkpt lat="43.21456" lon="5.43553">
        <ele>169.51929</ele>
        <time>2019-06-19 12:28:33,867</time>
      </trkpt>
      <trkpt lat="43.21457" lon="5.43553">
        <ele>169.73627</ele>
        <time>2019-06-19 12:28:34,795</time>
      </trkpt>
      <trkpt lat="43.21457" lon="5.43552">
        <ele>170.92468</ele>
        <time>2019-06-19 12:28:37,864</time>
      </trkpt>
      <trkpt lat="43.21459" lon="5.43552">
        <ele>172.43347</ele>
        <time>2019-06-19 12:28:43,763</time>
      </trkpt>
      <trkpt lat="43.2146" lon="5.43549">
        <ele>172.99677</ele>
        <time>2019-06-19 12:28:45,815</time>
      </trkpt>
      <trkpt lat="43.2146" lon="5.43547">
        <ele>172.6698</ele>
        <time>2019-06-19 12:28:46,774</time>
      </trkpt>
      <trkpt lat="43.2146" lon="5.43547">
        <ele>172.40839</ele>
        <time>2019-06-19 12:28:47,771</time>
      </trkpt>
      <trkpt lat="43.21459" lon="5.43545">
        <ele>170.24695</ele>
        <time>2019-06-19 12:28:49,771</time>
      </trkpt>
      <trkpt lat="43.2146" lon="5.43542">
        <ele>172.43347</ele>
        <time>2019-06-19 12:28:51,775</time>
      </trkpt>
      <trkpt lat="43.21462" lon="5.43544">
        <ele>174.53314</ele>
        <time>2019-06-19 12:29:02,796</time>
      </trkpt>
      <trkpt lat="43.21462" lon="5.43543">
        <ele>177.32697</ele>
        <time>2019-06-19 12:29:04,766</time>
      </trkpt>
      <trkpt lat="43.21462" lon="5.43542">
        <ele>178.29352</ele>
        <time>2019-06-19 12:29:05,763</time>
      </trkpt>
      <trkpt lat="43.21463" lon="5.43542">
        <ele>179.05145</ele>
        <time>2019-06-19 12:29:06,764</time>
      </trkpt>
      <trkpt lat="43.21464" lon="5.43544">
        <ele>180.55322</ele>
        <time>2019-06-19 12:29:09,768</time>
      </trkpt>
      <trkpt lat="43.21465" lon="5.43545">
        <ele>182.24078</ele>
        <time>2019-06-19 12:29:12,766</time>
      </trkpt>
      <trkpt lat="43.21464" lon="5.43544">
        <ele>181.43958</ele>
        <time>2019-06-19 12:29:13,760</time>
      </trkpt>
      <trkpt lat="43.21465" lon="5.43543">
        <ele>182.27032</ele>
        <time>2019-06-19 12:29:15,765</time>
      </trkpt>
      <trkpt lat="43.21465" lon="5.43543">
        <ele>182.2002</ele>
        <time>2019-06-19 12:29:17,031</time>
      </trkpt>
      <trkpt lat="43.21466" lon="5.43542">
        <ele>180.91943</ele>
        <time>2019-06-19 12:29:23,759</time>
      </trkpt>
      <trkpt lat="43.21467" lon="5.43539">
        <ele>182.27032</ele>
        <time>2019-06-19 12:29:25,875</time>
      </trkpt>
      <trkpt lat="43.21467" lon="5.43537">
        <ele>182.50116</ele>
        <time>2019-06-19 12:29:26,793</time>
      </trkpt>
      <trkpt lat="43.21468" lon="5.43536">
        <ele>183.35974</ele>
        <time>2019-06-19 12:29:28,772</time>
      </trkpt>
      <trkpt lat="43.21473" lon="5.4353">
        <ele>185.57697</ele>
        <time>2019-06-19 12:29:34,769</time>
      </trkpt>
      <trkpt lat="43.21473" lon="5.43529">
        <ele>182.50116</ele>
        <time>2019-06-19 12:29:35,778</time>
      </trkpt>
      <trkpt lat="43.21474" lon="5.43524">
        <ele>186.50006</ele>
        <time>2019-06-19 12:29:39,820</time>
      </trkpt>
      <trkpt lat="43.21475" lon="5.43525">
        <ele>189.40778</ele>
        <time>2019-06-19 12:29:43,772</time>
      </trkpt>
      <trkpt lat="43.21475" lon="5.43525">
        <ele>188.73535</ele>
        <time>2019-06-19 12:29:44,769</time>
      </trkpt>
      <trkpt lat="43.21476" lon="5.43524">
        <ele>185.52094</ele>
        <time>2019-06-19 12:29:45,978</time>
      </trkpt>
      <trkpt lat="43.21477" lon="5.43523">
        <ele>190.06079</ele>
        <time>2019-06-19 12:29:47,768</time>
      </trkpt>
      <trkpt lat="43.21477" lon="5.43523">
        <ele>190.00616</ele>
        <time>2019-06-19 12:29:48,777</time>
      </trkpt>
      <trkpt lat="43.21478" lon="5.43523">
        <ele>190.07037</ele>
        <time>2019-06-19 12:29:49,771</time>
      </trkpt>
      <trkpt lat="43.21478" lon="5.43523">
        <ele>191.88074</ele>
        <time>2019-06-19 12:29:50,839</time>
      </trkpt>
      <trkpt lat="43.21481" lon="5.43521">
        <ele>190.06079</ele>
        <time>2019-06-19 12:29:56,766</time>
      </trkpt>
      <trkpt lat="43.21482" lon="5.43521">
        <ele>198.09857</ele>
        <time>2019-06-19 12:30:00,753</time>
      </trkpt>
      <trkpt lat="43.21483" lon="5.4352">
        <ele>198.80438</ele>
        <time>2019-06-19 12:30:01,763</time>
      </trkpt>
      <trkpt lat="43.21484" lon="5.43519">
        <ele>197.52429</ele>
        <time>2019-06-19 12:30:02,771</time>
      </trkpt>
      <trkpt lat="43.21485" lon="5.43518">
        <ele>195.84973</ele>
        <time>2019-06-19 12:30:04,765</time>
      </trkpt>
      <trkpt lat="43.21487" lon="5.43513">
        <ele>196.44623</ele>
        <time>2019-06-19 12:30:08,774</time>
      </trkpt>
      <trkpt lat="43.21486" lon="5.43511">
        <ele>195.24493</ele>
        <time>2019-06-19 12:30:11,771</time>
      </trkpt>
      <trkpt lat="43.21486" lon="5.43509">
        <ele>194.6861</ele>
        <time>2019-06-19 12:30:12,762</time>
      </trkpt>
      <trkpt lat="43.21487" lon="5.43506">
        <ele>196.52972</ele>
        <time>2019-06-19 12:30:16,781</time>
      </trkpt>
      <trkpt lat="43.21488" lon="5.43506">
        <ele>196.68842</ele>
        <time>2019-06-19 12:30:17,762</time>
      </trkpt>
      <trkpt lat="43.21489" lon="5.43504">
        <ele>194.40405</ele>
        <time>2019-06-19 12:30:19,767</time>
      </trkpt>
      <trkpt lat="43.21489" lon="5.43502">
        <ele>194.13129</ele>
        <time>2019-06-19 12:30:20,778</time>
      </trkpt>
      <trkpt lat="43.2149" lon="5.43501">
        <ele>194.90985</ele>
        <time>2019-06-19 12:30:24,773</time>
      </trkpt>
      <trkpt lat="43.2149" lon="5.43501">
        <ele>194.87158</ele>
        <time>2019-06-19 12:30:25,775</time>
      </trkpt>
      <trkpt lat="43.21491" lon="5.435">
        <ele>196.68842</ele>
        <time>2019-06-19 12:30:26,764</time>
      </trkpt>
      <trkpt lat="43.21491" lon="5.43499">
        <ele>192.68927</ele>
        <time>2019-06-19 12:30:27,763</time>
      </trkpt>
      <trkpt lat="43.21492" lon="5.43498">
        <ele>192.5946</ele>
        <time>2019-06-19 12:30:28,768</time>
      </trkpt>
      <trkpt lat="43.21492" lon="5.43498">
        <ele>192.8493</ele>
        <time>2019-06-19 12:30:29,770</time>
      </trkpt>
      <trkpt lat="43.21494" lon="5.43498">
        <ele>193.18512</ele>
        <time>2019-06-19 12:30:30,774</time>
      </trkpt>
      <trkpt lat="43.21495" lon="5.43494">
        <ele>192.62616</ele>
        <time>2019-06-19 12:30:37,770</time>
      </trkpt>
      <trkpt lat="43.21495" lon="5.43493">
        <ele>191.58447</ele>
        <time>2019-06-19 12:30:38,845</time>
      </trkpt>
      <trkpt lat="43.21495" lon="5.43491">
        <ele>190.70654</ele>
        <time>2019-06-19 12:30:39,814</time>
      </trkpt>
      <trkpt lat="43.21494" lon="5.43491">
        <ele>191.91962</ele>
        <time>2019-06-19 12:30:40,766</time>
      </trkpt>
      <trkpt lat="43.21494" lon="5.43488">
        <ele>191.25696</ele>
        <time>2019-06-19 12:30:43,767</time>
      </trkpt>
      <trkpt lat="43.21493" lon="5.43486">
        <ele>191.5476</ele>
        <time>2019-06-19 12:30:44,781</time>
      </trkpt>
      <trkpt lat="43.21493" lon="5.43484">
        <ele>191.13916</ele>
        <time>2019-06-19 12:30:45,799</time>
      </trkpt>
      <trkpt lat="43.21494" lon="5.43482">
        <ele>192.797</ele>
        <time>2019-06-19 12:30:50,768</time>
      </trkpt>
      <trkpt lat="43.21494" lon="5.43481">
        <ele>193.74872</ele>
        <time>2019-06-19 12:30:51,768</time>
      </trkpt>
      <trkpt lat="43.21494" lon="5.43479">
        <ele>193.98651</ele>
        <time>2019-06-19 12:30:52,861</time>
      </trkpt>
      <trkpt lat="43.21494" lon="5.43478">
        <ele>195.35516</ele>
        <time>2019-06-19 12:30:53,772</time>
      </trkpt>
      <trkpt lat="43.21494" lon="5.43478">
        <ele>196.16797</ele>
        <time>2019-06-19 12:30:54,775</time>
      </trkpt>
      <trkpt lat="43.21494" lon="5.43475">
        <ele>197.0628</ele>
        <time>2019-06-19 12:30:56,776</time>
      </trkpt>
      <trkpt lat="43.21494" lon="5.43474">
        <ele>197.29321</ele>
        <time>2019-06-19 12:30:57,757</time>
      </trkpt>
      <trkpt lat="43.21494" lon="5.43474">
        <ele>198.00665</ele>
        <time>2019-06-19 12:30:59,767</time>
      </trkpt>
      <trkpt lat="43.21494" lon="5.43474">
        <ele>199.33191</ele>
        <time>2019-06-19 12:31:00,774</time>
      </trkpt>
      <trkpt lat="43.21494" lon="5.43473">
        <ele>199.94226</ele>
        <time>2019-06-19 12:31:01,869</time>
      </trkpt>
      <trkpt lat="43.21495" lon="5.43473">
        <ele>201.26746</ele>
        <time>2019-06-19 12:31:03,055</time>
      </trkpt>
      <trkpt lat="43.21494" lon="5.43472">
        <ele>201.54468</ele>
        <time>2019-06-19 12:31:04,755</time>
      </trkpt>
      <trkpt lat="43.21494" lon="5.43471">
        <ele>199.40942</ele>
        <time>2019-06-19 12:31:05,773</time>
      </trkpt>
      <trkpt lat="43.21493" lon="5.43469">
        <ele>197.64496</ele>
        <time>2019-06-19 12:31:06,925</time>
      </trkpt>
      <trkpt lat="43.21493" lon="5.43467">
        <ele>198.00665</ele>
        <time>2019-06-19 12:31:10,775</time>
      </trkpt>
      <trkpt lat="43.21492" lon="5.43466">
        <ele>199.33893</ele>
        <time>2019-06-19 12:31:11,765</time>
      </trkpt>
      <trkpt lat="43.21492" lon="5.43466">
        <ele>199.88837</ele>
        <time>2019-06-19 12:31:12,945</time>
      </trkpt>
      <trkpt lat="43.21491" lon="5.43465">
        <ele>199.94598</ele>
        <time>2019-06-19 12:31:14,849</time>
      </trkpt>
      <trkpt lat="43.21491" lon="5.43463">
        <ele>199.65662</ele>
        <time>2019-06-19 12:31:15,773</time>
      </trkpt>
      <trkpt lat="43.21491" lon="5.43463">
        <ele>199.89905</ele>
        <time>2019-06-19 12:31:16,770</time>
      </trkpt>
      <trkpt lat="43.2149" lon="5.4346">
        <ele>201.61719</ele>
        <time>2019-06-19 12:31:20,803</time>
      </trkpt>
      <trkpt lat="43.21491" lon="5.4346">
        <ele>205.54578</ele>
        <time>2019-06-19 12:31:33,770</time>
      </trkpt>
      <trkpt lat="43.2149" lon="5.43459">
        <ele>206.57294</ele>
        <time>2019-06-19 12:31:34,773</time>
      </trkpt>
      <trkpt lat="43.2149" lon="5.43457">
        <ele>206.88416</ele>
        <time>2019-06-19 12:31:35,773</time>
      </trkpt>
      <trkpt lat="43.21491" lon="5.43457">
        <ele>208.60883</ele>
        <time>2019-06-19 12:31:36,791</time>
      </trkpt>
      <trkpt lat="43.2149" lon="5.43454">
        <ele>206.22058</ele>
        <time>2019-06-19 12:31:43,773</time>
      </trkpt>
      <trkpt lat="43.21489" lon="5.43453">
        <ele>205.92224</ele>
        <time>2019-06-19 12:31:44,782</time>
      </trkpt>
      <trkpt lat="43.21488" lon="5.43453">
        <ele>206.48047</ele>
        <time>2019-06-19 12:31:45,770</time>
      </trkpt>
      <trkpt lat="43.21488" lon="5.43452">
        <ele>208.55255</ele>
        <time>2019-06-19 12:31:47,773</time>
      </trkpt>
      <trkpt lat="43.21487" lon="5.4345">
        <ele>207.96936</ele>
        <time>2019-06-19 12:31:49,775</time>
      </trkpt>
      <trkpt lat="43.21485" lon="5.43449">
        <ele>206.22058</ele>
        <time>2019-06-19 12:31:52,770</time>
      </trkpt>
      <trkpt lat="43.21485" lon="5.43448">
        <ele>208.81915</ele>
        <time>2019-06-19 12:31:53,769</time>
      </trkpt>
      <trkpt lat="43.21484" lon="5.43447">
        <ele>208.966</ele>
        <time>2019-06-19 12:31:54,766</time>
      </trkpt>
      <trkpt lat="43.21483" lon="5.43446">
        <ele>208.73694</ele>
        <time>2019-06-19 12:31:55,783</time>
      </trkpt>
      <trkpt lat="43.21481" lon="5.43446">
        <ele>208.69855</ele>
        <time>2019-06-19 12:31:57,775</time>
      </trkpt>
      <trkpt lat="43.21475" lon="5.43445">
        <ele>204.34106</ele>
        <time>2019-06-19 12:32:07,772</time>
      </trkpt>
      <trkpt lat="43.21473" lon="5.43444">
        <ele>204.0102</ele>
        <time>2019-06-19 12:32:08,771</time>
      </trkpt>
      <trkpt lat="43.21472" lon="5.43444">
        <ele>203.4867</ele>
        <time>2019-06-19 12:32:09,810</time>
      </trkpt>
      <trkpt lat="43.21471" lon="5.43444">
        <ele>202.32343</ele>
        <time>2019-06-19 12:32:11,773</time>
      </trkpt>
      <trkpt lat="43.21469" lon="5.43444">
        <ele>202.45526</ele>
        <time>2019-06-19 12:32:16,772</time>
      </trkpt>
      <trkpt lat="43.21469" lon="5.43443">
        <ele>203.17712</ele>
        <time>2019-06-19 12:32:17,780</time>
      </trkpt>
      <trkpt lat="43.21468" lon="5.43444">
        <ele>205.03833</ele>
        <time>2019-06-19 12:32:21,766</time>
      </trkpt>
      <trkpt lat="43.21468" lon="5.43442">
        <ele>207.30872</ele>
        <time>2019-06-19 12:32:23,807</time>
      </trkpt>
      <trkpt lat="43.21467" lon="5.43441">
        <ele>207.93433</ele>
        <time>2019-06-19 12:32:24,767</time>
      </trkpt>
      <trkpt lat="43.21464" lon="5.43437">
        <ele>209.73193</ele>
        <time>2019-06-19 12:32:27,899</time>
      </trkpt>
      <trkpt lat="43.21463" lon="5.43435">
        <ele>211.50214</ele>
        <time>2019-06-19 12:32:29,782</time>
      </trkpt>
      <trkpt lat="43.21462" lon="5.43433">
        <ele>212.2987</ele>
        <time>2019-06-19 12:32:30,766</time>
      </trkpt>
      <trkpt lat="43.21461" lon="5.43433">
        <ele>212.76367</ele>
        <time>2019-06-19 12:32:31,770</time>
      </trkpt>
      <trkpt lat="43.21461" lon="5.43432">
        <ele>213.59686</ele>
        <time>2019-06-19 12:32:32,769</time>
      </trkpt>
      <trkpt lat="43.21461" lon="5.43431">
        <ele>214.33801</ele>
        <time>2019-06-19 12:32:33,768</time>
      </trkpt>
      <trkpt lat="43.21461" lon="5.4343">
        <ele>216.90802</ele>
        <time>2019-06-19 12:32:35,984</time>
      </trkpt>
      <trkpt lat="43.21461" lon="5.43428">
        <ele>218.32324</ele>
        <time>2019-06-19 12:32:38,054</time>
      </trkpt>
      <trkpt lat="43.2146" lon="5.43425">
        <ele>218.05579</ele>
        <time>2019-06-19 12:32:39,769</time>
      </trkpt>
      <trkpt lat="43.21459" lon="5.43424">
        <ele>216.49933</ele>
        <time>2019-06-19 12:32:42,764</time>
      </trkpt>
      <trkpt lat="43.21458" lon="5.43424">
        <ele>216.42273</ele>
        <time>2019-06-19 12:32:44,776</time>
      </trkpt>
      <trkpt lat="43.21457" lon="5.43423">
        <ele>216.77649</ele>
        <time>2019-06-19 12:32:45,775</time>
      </trkpt>
      <trkpt lat="43.21457" lon="5.43423">
        <ele>216.49176</ele>
        <time>2019-06-19 12:32:46,763</time>
      </trkpt>
      <trkpt lat="43.21456" lon="5.43419">
        <ele>215.80261</ele>
        <time>2019-06-19 12:32:48,758</time>
      </trkpt>
      <trkpt lat="43.21455" lon="5.43416">
        <ele>215.87488</ele>
        <time>2019-06-19 12:32:50,773</time>
      </trkpt>
      <trkpt lat="43.21454" lon="5.43415">
        <ele>215.49097</ele>
        <time>2019-06-19 12:32:51,874</time>
      </trkpt>
      <trkpt lat="43.21451" lon="5.4341">
        <ele>215.64478</ele>
        <time>2019-06-19 12:32:55,778</time>
      </trkpt>
      <trkpt lat="43.21451" lon="5.4341">
        <ele>217.10217</ele>
        <time>2019-06-19 12:32:56,772</time>
      </trkpt>
      <trkpt lat="43.2145" lon="5.43409">
        <ele>215.80261</ele>
        <time>2019-06-19 12:32:58,769</time>
      </trkpt>
      <trkpt lat="43.21445" lon="5.43401">
        <ele>218.4002</ele>
        <time>2019-06-19 12:33:05,784</time>
      </trkpt>
      <trkpt lat="43.21444" lon="5.43396">
        <ele>217.38306</ele>
        <time>2019-06-19 12:33:07,821</time>
      </trkpt>
      <trkpt lat="43.21444" lon="5.43396">
        <ele>215.55066</ele>
        <time>2019-06-19 12:33:08,773</time>
      </trkpt>
      <trkpt lat="43.21443" lon="5.43394">
        <ele>217.37299</ele>
        <time>2019-06-19 12:33:10,773</time>
      </trkpt>
      <trkpt lat="43.21442" lon="5.43392">
        <ele>218.14886</ele>
        <time>2019-06-19 12:33:12,770</time>
      </trkpt>
      <trkpt lat="43.2144" lon="5.43391">
        <ele>217.49963</ele>
        <time>2019-06-19 12:33:13,765</time>
      </trkpt>
      <trkpt lat="43.21439" lon="5.4339">
        <ele>217.80774</ele>
        <time>2019-06-19 12:33:14,779</time>
      </trkpt>
      <trkpt lat="43.21438" lon="5.4339">
        <ele>218.24097</ele>
        <time>2019-06-19 12:33:15,767</time>
      </trkpt>
      <trkpt lat="43.21439" lon="5.43391">
        <ele>218.79987</ele>
        <time>2019-06-19 12:33:17,771</time>
      </trkpt>
      <trkpt lat="43.21439" lon="5.43391">
        <ele>218.92029</ele>
        <time>2019-06-19 12:33:18,772</time>
      </trkpt>
      <trkpt lat="43.21441" lon="5.4339">
        <ele>219.02472</ele>
        <time>2019-06-19 12:33:22,764</time>
      </trkpt>
      <trkpt lat="43.21439" lon="5.43387">
        <ele>217.34332</ele>
        <time>2019-06-19 12:33:30,768</time>
      </trkpt>
      <trkpt lat="43.21438" lon="5.43386">
        <ele>219.14172</ele>
        <time>2019-06-19 12:33:31,897</time>
      </trkpt>
      <trkpt lat="43.21437" lon="5.43383">
        <ele>219.24823</ele>
        <time>2019-06-19 12:33:33,761</time>
      </trkpt>
      <trkpt lat="43.21436" lon="5.43383">
        <ele>217.0758</ele>
        <time>2019-06-19 12:33:34,766</time>
      </trkpt>
      <trkpt lat="43.21434" lon="5.43383">
        <ele>216.47272</ele>
        <time>2019-06-19 12:33:35,798</time>
      </trkpt>
      <trkpt lat="43.21433" lon="5.43382">
        <ele>217.26587</ele>
        <time>2019-06-19 12:33:37,782</time>
      </trkpt>
      <trkpt lat="43.21432" lon="5.43381">
        <ele>217.08105</ele>
        <time>2019-06-19 12:33:38,799</time>
      </trkpt>
      <trkpt lat="43.2143" lon="5.43379">
        <ele>215.20935</ele>
        <time>2019-06-19 12:33:41,770</time>
      </trkpt>
      <trkpt lat="43.21427" lon="5.43378">
        <ele>214.79865</ele>
        <time>2019-06-19 12:33:42,798</time>
      </trkpt>
      <trkpt lat="43.21425" lon="5.43377">
        <ele>216.17786</ele>
        <time>2019-06-19 12:33:44,769</time>
      </trkpt>
      <trkpt lat="43.21425" lon="5.43374">
        <ele>216.3504</ele>
        <time>2019-06-19 12:33:46,768</time>
      </trkpt>
      <trkpt lat="43.21426" lon="5.43371">
        <ele>218.7633</ele>
        <time>2019-06-19 12:33:49,779</time>
      </trkpt>
      <trkpt lat="43.21426" lon="5.43369">
        <ele>218.05841</ele>
        <time>2019-06-19 12:33:50,786</time>
      </trkpt>
      <trkpt lat="43.21425" lon="5.43362">
        <ele>217.1582</ele>
        <time>2019-06-19 12:33:56,768</time>
      </trkpt>
      <trkpt lat="43.21425" lon="5.43361">
        <ele>217.0885</ele>
        <time>2019-06-19 12:33:57,775</time>
      </trkpt>
      <trkpt lat="43.21425" lon="5.4336">
        <ele>216.77551</ele>
        <time>2019-06-19 12:33:59,789</time>
      </trkpt>
      <trkpt lat="43.21424" lon="5.43359">
        <ele>216.79211</ele>
        <time>2019-06-19 12:34:00,770</time>
      </trkpt>
      <trkpt lat="43.2142" lon="5.43354">
        <ele>218.15009</ele>
        <time>2019-06-19 12:34:07,771</time>
      </trkpt>
      <trkpt lat="43.21419" lon="5.43353">
        <ele>217.72888</ele>
        <time>2019-06-19 12:34:08,774</time>
      </trkpt>
      <trkpt lat="43.21419" lon="5.43352">
        <ele>217.83923</ele>
        <time>2019-06-19 12:34:09,829</time>
      </trkpt>
      <trkpt lat="43.21419" lon="5.43351">
        <ele>217.41357</ele>
        <time>2019-06-19 12:34:10,773</time>
      </trkpt>
      <trkpt lat="43.21419" lon="5.43351">
        <ele>217.39227</ele>
        <time>2019-06-19 12:34:11,782</time>
      </trkpt>
      <trkpt lat="43.21419" lon="5.4335">
        <ele>216.3872</ele>
        <time>2019-06-19 12:34:12,772</time>
      </trkpt>
      <trkpt lat="43.21418" lon="5.43349">
        <ele>216.4397</ele>
        <time>2019-06-19 12:34:13,790</time>
      </trkpt>
      <trkpt lat="43.21419" lon="5.43349">
        <ele>217.94482</ele>
        <time>2019-06-19 12:34:14,773</time>
      </trkpt>
      <trkpt lat="43.21419" lon="5.43348">
        <ele>218.46643</ele>
        <time>2019-06-19 12:34:17,907</time>
      </trkpt>
      <trkpt lat="43.21417" lon="5.43346">
        <ele>218.6471</ele>
        <time>2019-06-19 12:34:21,774</time>
      </trkpt>
      <trkpt lat="43.21417" lon="5.43346">
        <ele>219.93481</ele>
        <time>2019-06-19 12:34:29,779</time>
      </trkpt>
      <trkpt lat="43.21417" lon="5.43346">
        <ele>308.27405</ele>
        <time>2019-06-19 12:34:30,763</time>
      </trkpt>
      <trkpt lat="43.21417" lon="5.43345">
        <ele>296.13177</ele>
        <time>2019-06-19 12:34:31,764</time>
      </trkpt>
      <trkpt lat="43.21414" lon="5.43345">
        <ele>278.19775</ele>
        <time>2019-06-19 12:34:33,805</time>
      </trkpt>
      <trkpt lat="43.21411" lon="5.43345">
        <ele>233.31421</ele>
        <time>2019-06-19 12:34:42,766</time>
      </trkpt>
      <trkpt lat="43.21411" lon="5.43344">
        <ele>235.55066</ele>
        <time>2019-06-19 12:34:43,765</time>
      </trkpt>
      <trkpt lat="43.21411" lon="5.43344">
        <ele>230.67072</ele>
        <time>2019-06-19 12:34:45,776</time>
      </trkpt>
      <trkpt lat="43.2141" lon="5.43344">
        <ele>230.63196</ele>
        <time>2019-06-19 12:34:46,766</time>
      </trkpt>
      <trkpt lat="43.21407" lon="5.43343">
        <ele>228.08838</ele>
        <time>2019-06-19 12:34:50,347</time>
      </trkpt>
      <trkpt lat="43.21407" lon="5.43341">
        <ele>228.35144</ele>
        <time>2019-06-19 12:34:51,353</time>
      </trkpt>
      <trkpt lat="43.21407" lon="5.43339">
        <ele>228.91907</ele>
        <time>2019-06-19 12:34:52,350</time>
      </trkpt>
      <trkpt lat="43.21406" lon="5.43337">
        <ele>228.65112</ele>
        <time>2019-06-19 12:34:55,372</time>
      </trkpt>
      <trkpt lat="43.21407" lon="5.43335">
        <ele>229.77222</ele>
        <time>2019-06-19 12:34:57,348</time>
      </trkpt>
      <trkpt lat="43.21407" lon="5.43334">
        <ele>229.13678</ele>
        <time>2019-06-19 12:34:58,337</time>
      </trkpt>
      <trkpt lat="43.21407" lon="5.43332">
        <ele>229.71222</ele>
        <time>2019-06-19 12:34:59,345</time>
      </trkpt>
      <trkpt lat="43.21407" lon="5.43331">
        <ele>229.74121</ele>
        <time>2019-06-19 12:35:00,347</time>
      </trkpt>
      <trkpt lat="43.21406" lon="5.43329">
        <ele>229.1258</ele>
        <time>2019-06-19 12:35:01,376</time>
      </trkpt>
      <trkpt lat="43.21406" lon="5.43328">
        <ele>230.06238</ele>
        <time>2019-06-19 12:35:02,363</time>
      </trkpt>
      <trkpt lat="43.21406" lon="5.43326">
        <ele>230.31317</ele>
        <time>2019-06-19 12:35:03,350</time>
      </trkpt>
      <trkpt lat="43.21407" lon="5.43325">
        <ele>240.06927</ele>
        <time>2019-06-19 12:35:04,373</time>
      </trkpt>
      <trkpt lat="43.21407" lon="5.43325">
        <ele>237.21375</ele>
        <time>2019-06-19 12:35:05,360</time>
      </trkpt>
      <trkpt lat="43.21408" lon="5.43323">
        <ele>233.66064</ele>
        <time>2019-06-19 12:35:08,364</time>
      </trkpt>
      <trkpt lat="43.21408" lon="5.43322">
        <ele>231.85254</ele>
        <time>2019-06-19 12:35:09,364</time>
      </trkpt>
      <trkpt lat="43.21409" lon="5.43321">
        <ele>231.56458</ele>
        <time>2019-06-19 12:35:10,355</time>
      </trkpt>
      <trkpt lat="43.2141" lon="5.43319">
        <ele>229.37854</ele>
        <time>2019-06-19 12:35:12,347</time>
      </trkpt>
      <trkpt lat="43.2141" lon="5.43316">
        <ele>229.02112</ele>
        <time>2019-06-19 12:35:15,351</time>
      </trkpt>
      <trkpt lat="43.21409" lon="5.43315">
        <ele>229.17627</ele>
        <time>2019-06-19 12:35:16,349</time>
      </trkpt>
      <trkpt lat="43.21408" lon="5.43312">
        <ele>228.76556</ele>
        <time>2019-06-19 12:35:20,359</time>
      </trkpt>
      <trkpt lat="43.21407" lon="5.43311">
        <ele>228.13531</ele>
        <time>2019-06-19 12:35:23,343</time>
      </trkpt>
      <trkpt lat="43.21406" lon="5.43309">
        <ele>229.02112</ele>
        <time>2019-06-19 12:35:24,350</time>
      </trkpt>
      <trkpt lat="43.21403" lon="5.433">
        <ele>229.3772</ele>
        <time>2019-06-19 12:35:31,347</time>
      </trkpt>
      <trkpt lat="43.21404" lon="5.43297">
        <ele>228.8534</ele>
        <time>2019-06-19 12:35:33,356</time>
      </trkpt>
      <trkpt lat="43.21403" lon="5.43296">
        <ele>228.2669</ele>
        <time>2019-06-19 12:35:34,366</time>
      </trkpt>
      <trkpt lat="43.21404" lon="5.43295">
        <ele>228.24841</ele>
        <time>2019-06-19 12:35:35,593</time>
      </trkpt>
      <trkpt lat="43.21403" lon="5.43293">
        <ele>227.85468</ele>
        <time>2019-06-19 12:35:39,345</time>
      </trkpt>
      <trkpt lat="43.21403" lon="5.43292">
        <ele>227.92639</ele>
        <time>2019-06-19 12:35:40,355</time>
      </trkpt>
      <trkpt lat="43.21403" lon="5.43289">
        <ele>227.56683</ele>
        <time>2019-06-19 12:35:43,348</time>
      </trkpt>
      <trkpt lat="43.21402" lon="5.43288">
        <ele>227.21936</ele>
        <time>2019-06-19 12:35:44,346</time>
      </trkpt>
      <trkpt lat="43.21402" lon="5.43287">
        <ele>226.70178</ele>
        <time>2019-06-19 12:35:45,346</time>
      </trkpt>
      <trkpt lat="43.21401" lon="5.43284">
        <ele>226.71423</ele>
        <time>2019-06-19 12:35:48,349</time>
      </trkpt>
      <trkpt lat="43.21401" lon="5.43283">
        <ele>227.4256</ele>
        <time>2019-06-19 12:35:49,348</time>
      </trkpt>
      <trkpt lat="43.214" lon="5.43281">
        <ele>226.21246</ele>
        <time>2019-06-19 12:35:50,349</time>
      </trkpt>
      <trkpt lat="43.214" lon="5.43279">
        <ele>226.2373</ele>
        <time>2019-06-19 12:35:51,350</time>
      </trkpt>
      <trkpt lat="43.214" lon="5.43277">
        <ele>226.33466</ele>
        <time>2019-06-19 12:35:52,348</time>
      </trkpt>
      <trkpt lat="43.214" lon="5.43276">
        <ele>226.2669</ele>
        <time>2019-06-19 12:35:53,345</time>
      </trkpt>
      <trkpt lat="43.214" lon="5.43274">
        <ele>225.45233</ele>
        <time>2019-06-19 12:35:54,373</time>
      </trkpt>
      <trkpt lat="43.21399" lon="5.43272">
        <ele>225.30719</ele>
        <time>2019-06-19 12:35:55,346</time>
      </trkpt>
      <trkpt lat="43.21399" lon="5.43271">
        <ele>227.15662</ele>
        <time>2019-06-19 12:35:56,354</time>
      </trkpt>
      <trkpt lat="43.21398" lon="5.43271">
        <ele>226.0597</ele>
        <time>2019-06-19 12:35:57,347</time>
      </trkpt>
      <trkpt lat="43.21398" lon="5.43269">
        <ele>226.62628</ele>
        <time>2019-06-19 12:35:59,350</time>
      </trkpt>
      <trkpt lat="43.21398" lon="5.43269">
        <ele>227.3966</ele>
        <time>2019-06-19 12:36:00,366</time>
      </trkpt>
      <trkpt lat="43.21398" lon="5.43267">
        <ele>230.39734</ele>
        <time>2019-06-19 12:36:02,349</time>
      </trkpt>
      <trkpt lat="43.21398" lon="5.43266">
        <ele>231.92365</ele>
        <time>2019-06-19 12:36:04,350</time>
      </trkpt>
      <trkpt lat="43.214" lon="5.43266">
        <ele>230.79858</ele>
        <time>2019-06-19 12:36:10,351</time>
      </trkpt>
      <trkpt lat="43.21397" lon="5.43259">
        <ele>231.69263</ele>
        <time>2019-06-19 12:36:16,351</time>
      </trkpt>
      <trkpt lat="43.21396" lon="5.43258">
        <ele>232.41919</ele>
        <time>2019-06-19 12:36:17,350</time>
      </trkpt>
      <trkpt lat="43.21396" lon="5.43259">
        <ele>233.38037</ele>
        <time>2019-06-19 12:36:20,351</time>
      </trkpt>
      <trkpt lat="43.21395" lon="5.43259">
        <ele>234.63696</ele>
        <time>2019-06-19 12:36:22,349</time>
      </trkpt>
      <trkpt lat="43.21394" lon="5.43259">
        <ele>234.8086</ele>
        <time>2019-06-19 12:36:23,347</time>
      </trkpt>
      <trkpt lat="43.21393" lon="5.43259">
        <ele>235.78479</ele>
        <time>2019-06-19 12:36:24,351</time>
      </trkpt>
      <trkpt lat="43.21393" lon="5.43258">
        <ele>235.22357</ele>
        <time>2019-06-19 12:36:25,349</time>
      </trkpt>
      <trkpt lat="43.21388" lon="5.43255">
        <ele>232.66034</ele>
        <time>2019-06-19 12:36:34,350</time>
      </trkpt>
      <trkpt lat="43.21386" lon="5.43254">
        <ele>232.88916</ele>
        <time>2019-06-19 12:36:35,453</time>
      </trkpt>
      <trkpt lat="43.21383" lon="5.43254">
        <ele>238.92566</ele>
        <time>2019-06-19 12:36:37,359</time>
      </trkpt>
      <trkpt lat="43.21379" lon="5.43255">
        <ele>236.06201</ele>
        <time>2019-06-19 12:36:40,350</time>
      </trkpt>
      <trkpt lat="43.21375" lon="5.43255">
        <ele>233.3789</ele>
        <time>2019-06-19 12:36:43,349</time>
      </trkpt>
      <trkpt lat="43.21372" lon="5.43256">
        <ele>232.62091</ele>
        <time>2019-06-19 12:36:45,351</time>
      </trkpt>
      <trkpt lat="43.21368" lon="5.43257">
        <ele>229.1565</ele>
        <time>2019-06-19 12:36:51,348</time>
      </trkpt>
      <trkpt lat="43.21367" lon="5.43257">
        <ele>228.7768</ele>
        <time>2019-06-19 12:36:52,354</time>
      </trkpt>
      <trkpt lat="43.21367" lon="5.43257">
        <ele>229.22876</ele>
        <time>2019-06-19 12:36:53,347</time>
      </trkpt>
      <trkpt lat="43.21367" lon="5.43256">
        <ele>232.23083</ele>
        <time>2019-06-19 12:37:00,356</time>
      </trkpt>
      <trkpt lat="43.21366" lon="5.43255">
        <ele>231.9917</ele>
        <time>2019-06-19 12:37:01,360</time>
      </trkpt>
      <trkpt lat="43.21364" lon="5.43256">
        <ele>232.76056</ele>
        <time>2019-06-19 12:37:03,366</time>
      </trkpt>
      <trkpt lat="43.21363" lon="5.43256">
        <ele>232.91522</ele>
        <time>2019-06-19 12:37:04,351</time>
      </trkpt>
      <trkpt lat="43.21363" lon="5.43257">
        <ele>234.125</ele>
        <time>2019-06-19 12:37:05,348</time>
      </trkpt>
      <trkpt lat="43.21362" lon="5.43258">
        <ele>232.49988</ele>
        <time>2019-06-19 12:37:06,370</time>
      </trkpt>
      <trkpt lat="43.21362" lon="5.43258">
        <ele>234.74866</ele>
        <time>2019-06-19 12:37:07,355</time>
      </trkpt>
      <trkpt lat="43.21362" lon="5.43259">
        <ele>236.40283</ele>
        <time>2019-06-19 12:37:08,347</time>
      </trkpt>
      <trkpt lat="43.21362" lon="5.43259">
        <ele>232.23083</ele>
        <time>2019-06-19 12:37:09,366</time>
      </trkpt>
      <trkpt lat="43.21362" lon="5.4326">
        <ele>237.87524</ele>
        <time>2019-06-19 12:37:10,354</time>
      </trkpt>
      <trkpt lat="43.21361" lon="5.43261">
        <ele>237.14404</ele>
        <time>2019-06-19 12:37:12,357</time>
      </trkpt>
      <trkpt lat="43.21361" lon="5.43261">
        <ele>237.50049</ele>
        <time>2019-06-19 12:37:13,353</time>
      </trkpt>
      <trkpt lat="43.21361" lon="5.43261">
        <ele>239.1095</ele>
        <time>2019-06-19 12:37:14,365</time>
      </trkpt>
      <trkpt lat="43.21361" lon="5.43262">
        <ele>239.15082</ele>
        <time>2019-06-19 12:37:15,295</time>
      </trkpt>
      <trkpt lat="43.21361" lon="5.43262">
        <ele>239.75464</ele>
        <time>2019-06-19 12:37:16,298</time>
      </trkpt>
      <trkpt lat="43.21361" lon="5.43262">
        <ele>241.27252</ele>
        <time>2019-06-19 12:37:17,305</time>
      </trkpt>
      <trkpt lat="43.2136" lon="5.43262">
        <ele>242.25037</ele>
        <time>2019-06-19 12:37:18,295</time>
      </trkpt>
      <trkpt lat="43.2136" lon="5.43262">
        <ele>237.87524</ele>
        <time>2019-06-19 12:37:19,298</time>
      </trkpt>
      <trkpt lat="43.2136" lon="5.43262">
        <ele>241.04437</ele>
        <time>2019-06-19 12:37:20,298</time>
      </trkpt>
      <trkpt lat="43.21359" lon="5.43261">
        <ele>242.58728</ele>
        <time>2019-06-19 12:37:21,299</time>
      </trkpt>
      <trkpt lat="43.21359" lon="5.4326">
        <ele>243.79492</ele>
        <time>2019-06-19 12:37:22,297</time>
      </trkpt>
      <trkpt lat="43.21358" lon="5.43259">
        <ele>243.52405</ele>
        <time>2019-06-19 12:37:23,299</time>
      </trkpt>
      <trkpt lat="43.21357" lon="5.43256">
        <ele>245.15094</ele>
        <time>2019-06-19 12:37:25,289</time>
      </trkpt>
      <trkpt lat="43.21357" lon="5.43254">
        <ele>244.84344</ele>
        <time>2019-06-19 12:37:26,294</time>
      </trkpt>
      <trkpt lat="43.21357" lon="5.43254">
        <ele>244.45874</ele>
        <time>2019-06-19 12:37:27,294</time>
      </trkpt>
      <trkpt lat="43.21357" lon="5.43253">
        <ele>245.73376</ele>
        <time>2019-06-19 12:37:28,298</time>
      </trkpt>
      <trkpt lat="43.21356" lon="5.43252">
        <ele>241.04437</ele>
        <time>2019-06-19 12:37:29,299</time>
      </trkpt>
      <trkpt lat="43.21356" lon="5.43251">
        <ele>250.61371</ele>
        <time>2019-06-19 12:37:30,302</time>
      </trkpt>
      <trkpt lat="43.21355" lon="5.43251">
        <ele>248.73962</ele>
        <time>2019-06-19 12:37:31,302</time>
      </trkpt>
      <trkpt lat="43.21354" lon="5.43252">
        <ele>243.5379</ele>
        <time>2019-06-19 12:37:37,298</time>
      </trkpt>
      <trkpt lat="43.21354" lon="5.4325">
        <ele>243.42444</ele>
        <time>2019-06-19 12:37:38,304</time>
      </trkpt>
      <trkpt lat="43.21354" lon="5.43248">
        <ele>243.4339</ele>
        <time>2019-06-19 12:37:41,295</time>
      </trkpt>
      <trkpt lat="43.21354" lon="5.43248">
        <ele>244.14667</ele>
        <time>2019-06-19 12:37:42,295</time>
      </trkpt>
      <trkpt lat="43.21355" lon="5.43247">
        <ele>244.3877</ele>
        <time>2019-06-19 12:37:43,291</time>
      </trkpt>
      <trkpt lat="43.21355" lon="5.43247">
        <ele>244.47089</ele>
        <time>2019-06-19 12:37:44,301</time>
      </trkpt>
      <trkpt lat="43.21356" lon="5.43247">
        <ele>243.9231</ele>
        <time>2019-06-19 12:37:46,308</time>
      </trkpt>
      <trkpt lat="43.21357" lon="5.43246">
        <ele>243.88678</ele>
        <time>2019-06-19 12:37:47,373</time>
      </trkpt>
      <trkpt lat="43.21356" lon="5.43246">
        <ele>242.84338</ele>
        <time>2019-06-19 12:37:48,630</time>
      </trkpt>
      <trkpt lat="43.21357" lon="5.43242">
        <ele>240.96881</ele>
        <time>2019-06-19 12:37:55,300</time>
      </trkpt>
      <trkpt lat="43.21357" lon="5.43241">
        <ele>240.85571</ele>
        <time>2019-06-19 12:37:56,297</time>
      </trkpt>
      <trkpt lat="43.21362" lon="5.43229">
        <ele>242.68878</ele>
        <time>2019-06-19 12:38:06,296</time>
      </trkpt>
      <trkpt lat="43.21363" lon="5.43227">
        <ele>242.2987</ele>
        <time>2019-06-19 12:38:07,304</time>
      </trkpt>
      <trkpt lat="43.21363" lon="5.43226">
        <ele>242.60754</ele>
        <time>2019-06-19 12:38:08,306</time>
      </trkpt>
      <trkpt lat="43.21363" lon="5.43225">
        <ele>242.59784</ele>
        <time>2019-06-19 12:38:09,292</time>
      </trkpt>
      <trkpt lat="43.21364" lon="5.43221">
        <ele>242.72089</ele>
        <time>2019-06-19 12:38:12,305</time>
      </trkpt>
      <trkpt lat="43.21364" lon="5.43219">
        <ele>242.04688</ele>
        <time>2019-06-19 12:38:13,294</time>
      </trkpt>
      <trkpt lat="43.21364" lon="5.43217">
        <ele>241.61731</ele>
        <time>2019-06-19 12:38:14,308</time>
      </trkpt>
      <trkpt lat="43.21364" lon="5.43215">
        <ele>242.1734</ele>
        <time>2019-06-19 12:38:17,301</time>
      </trkpt>
      <trkpt lat="43.21364" lon="5.43215">
        <ele>242.52808</ele>
        <time>2019-06-19 12:38:18,301</time>
      </trkpt>
      <trkpt lat="43.21364" lon="5.43213">
        <ele>241.7425</ele>
        <time>2019-06-19 12:38:21,331</time>
      </trkpt>
      <trkpt lat="43.21364" lon="5.43211">
        <ele>241.53394</ele>
        <time>2019-06-19 12:38:22,301</time>
      </trkpt>
      <trkpt lat="43.21364" lon="5.4321">
        <ele>241.65167</ele>
        <time>2019-06-19 12:38:23,297</time>
      </trkpt>
      <trkpt lat="43.21364" lon="5.4321">
        <ele>242.22095</ele>
        <time>2019-06-19 12:38:24,294</time>
      </trkpt>
      <trkpt lat="43.21364" lon="5.43204">
        <ele>241.7425</ele>
        <time>2019-06-19 12:38:31,337</time>
      </trkpt>
      <trkpt lat="43.21365" lon="5.43202">
        <ele>243.48193</ele>
        <time>2019-06-19 12:38:32,299</time>
      </trkpt>
      <trkpt lat="43.21366" lon="5.43199">
        <ele>245.34772</ele>
        <time>2019-06-19 12:38:35,301</time>
      </trkpt>
      <trkpt lat="43.21367" lon="5.43198">
        <ele>245.823</ele>
        <time>2019-06-19 12:38:36,296</time>
      </trkpt>
      <trkpt lat="43.21367" lon="5.43197">
        <ele>246.95825</ele>
        <time>2019-06-19 12:38:38,296</time>
      </trkpt>
      <trkpt lat="43.21368" lon="5.43196">
        <ele>247.52753</ele>
        <time>2019-06-19 12:38:39,305</time>
      </trkpt>
      <trkpt lat="43.21368" lon="5.43195">
        <ele>247.94006</ele>
        <time>2019-06-19 12:38:40,309</time>
      </trkpt>
      <trkpt lat="43.21367" lon="5.43193">
        <ele>243.51672</ele>
        <time>2019-06-19 12:38:41,297</time>
      </trkpt>
      <trkpt lat="43.21367" lon="5.43192">
        <ele>249.69122</ele>
        <time>2019-06-19 12:38:42,300</time>
      </trkpt>
      <trkpt lat="43.21367" lon="5.43191">
        <ele>249.96973</ele>
        <time>2019-06-19 12:38:43,309</time>
      </trkpt>
      <trkpt lat="43.21367" lon="5.4319">
        <ele>249.48322</ele>
        <time>2019-06-19 12:38:44,304</time>
      </trkpt>
      <trkpt lat="43.21367" lon="5.43189">
        <ele>250.02393</ele>
        <time>2019-06-19 12:38:45,309</time>
      </trkpt>
      <trkpt lat="43.21367" lon="5.43188">
        <ele>250.2602</ele>
        <time>2019-06-19 12:38:46,338</time>
      </trkpt>
      <trkpt lat="43.21367" lon="5.43186">
        <ele>249.9925</ele>
        <time>2019-06-19 12:38:48,309</time>
      </trkpt>
      <trkpt lat="43.21367" lon="5.43185">
        <ele>250.20264</ele>
        <time>2019-06-19 12:38:49,298</time>
      </trkpt>
      <trkpt lat="43.21366" lon="5.43184">
        <ele>248.95941</ele>
        <time>2019-06-19 12:38:52,295</time>
      </trkpt>
      <trkpt lat="43.21367" lon="5.43182">
        <ele>248.948</ele>
        <time>2019-06-19 12:38:53,304</time>
      </trkpt>
      <trkpt lat="43.21367" lon="5.43181">
        <ele>249.67212</ele>
        <time>2019-06-19 12:38:54,298</time>
      </trkpt>
      <trkpt lat="43.21367" lon="5.4318">
        <ele>250.59277</ele>
        <time>2019-06-19 12:38:55,301</time>
      </trkpt>
      <trkpt lat="43.21367" lon="5.4318">
        <ele>250.57361</ele>
        <time>2019-06-19 12:38:56,298</time>
      </trkpt>
      <trkpt lat="43.21368" lon="5.4318">
        <ele>250.49292</ele>
        <time>2019-06-19 12:38:57,317</time>
      </trkpt>
      <trkpt lat="43.21368" lon="5.4318">
        <ele>250.58282</ele>
        <time>2019-06-19 12:38:58,305</time>
      </trkpt>
      <trkpt lat="43.21368" lon="5.43179">
        <ele>250.04834</ele>
        <time>2019-06-19 12:38:59,299</time>
      </trkpt>
      <trkpt lat="43.21368" lon="5.43177">
        <ele>249.56091</ele>
        <time>2019-06-19 12:39:00,288</time>
      </trkpt>
      <trkpt lat="43.21368" lon="5.43176">
        <ele>248.95941</ele>
        <time>2019-06-19 12:39:01,304</time>
      </trkpt>
      <trkpt lat="43.21368" lon="5.43174">
        <ele>248.93573</ele>
        <time>2019-06-19 12:39:02,305</time>
      </trkpt>
      <trkpt lat="43.21368" lon="5.43173">
        <ele>249.17108</ele>
        <time>2019-06-19 12:39:07,297</time>
      </trkpt>
      <trkpt lat="43.21369" lon="5.43172">
        <ele>250.34741</ele>
        <time>2019-06-19 12:39:09,297</time>
      </trkpt>
      <trkpt lat="43.21369" lon="5.4317">
        <ele>248.96912</ele>
        <time>2019-06-19 12:39:10,300</time>
      </trkpt>
      <trkpt lat="43.21369" lon="5.43168">
        <ele>249.2677</ele>
        <time>2019-06-19 12:39:11,303</time>
      </trkpt>
      <trkpt lat="43.21369" lon="5.43167">
        <ele>249.29138</ele>
        <time>2019-06-19 12:39:12,389</time>
      </trkpt>
      <trkpt lat="43.2137" lon="5.43167">
        <ele>250.06226</ele>
        <time>2019-06-19 12:39:13,299</time>
      </trkpt>
      <trkpt lat="43.2137" lon="5.43166">
        <ele>250.16821</ele>
        <time>2019-06-19 12:39:14,305</time>
      </trkpt>
      <trkpt lat="43.21371" lon="5.43163">
        <ele>247.69232</ele>
        <time>2019-06-19 12:39:15,295</time>
      </trkpt>
      <trkpt lat="43.21372" lon="5.4316">
        <ele>246.60419</ele>
        <time>2019-06-19 12:39:17,376</time>
      </trkpt>
      <trkpt lat="43.21371" lon="5.43158">
        <ele>246.1222</ele>
        <time>2019-06-19 12:39:18,363</time>
      </trkpt>
      <trkpt lat="43.21371" lon="5.43157">
        <ele>246.07788</ele>
        <time>2019-06-19 12:39:20,305</time>
      </trkpt>
      <trkpt lat="43.21372" lon="5.43155">
        <ele>245.95642</ele>
        <time>2019-06-19 12:39:22,308</time>
      </trkpt>
      <trkpt lat="43.21372" lon="5.43154">
        <ele>246.21033</ele>
        <time>2019-06-19 12:39:23,297</time>
      </trkpt>
      <trkpt lat="43.21372" lon="5.43153">
        <ele>246.35461</ele>
        <time>2019-06-19 12:39:24,305</time>
      </trkpt>
      <trkpt lat="43.21374" lon="5.43153">
        <ele>247.28699</ele>
        <time>2019-06-19 12:39:26,371</time>
      </trkpt>
      <trkpt lat="43.21375" lon="5.43153">
        <ele>247.38025</ele>
        <time>2019-06-19 12:39:27,314</time>
      </trkpt>
      <trkpt lat="43.21376" lon="5.43153">
        <ele>248.61469</ele>
        <time>2019-06-19 12:39:28,307</time>
      </trkpt>
      <trkpt lat="43.21378" lon="5.43155">
        <ele>249.04913</ele>
        <time>2019-06-19 12:39:30,303</time>
      </trkpt>
      <trkpt lat="43.21379" lon="5.43155">
        <ele>248.44</ele>
        <time>2019-06-19 12:39:32,495</time>
      </trkpt>
      <trkpt lat="43.2138" lon="5.43155">
        <ele>248.802</ele>
        <time>2019-06-19 12:39:34,338</time>
      </trkpt>
      <trkpt lat="43.21381" lon="5.43154">
        <ele>250.12085</ele>
        <time>2019-06-19 12:39:38,338</time>
      </trkpt>
      <trkpt lat="43.21381" lon="5.43153">
        <ele>250.5841</ele>
        <time>2019-06-19 12:39:40,298</time>
      </trkpt>
      <trkpt lat="43.21383" lon="5.43153">
        <ele>248.802</ele>
        <time>2019-06-19 12:39:42,300</time>
      </trkpt>
      <trkpt lat="43.21383" lon="5.43152">
        <ele>249.50323</ele>
        <time>2019-06-19 12:39:43,299</time>
      </trkpt>
      <trkpt lat="43.21384" lon="5.43152">
        <ele>247.81451</ele>
        <time>2019-06-19 12:39:44,303</time>
      </trkpt>
      <trkpt lat="43.21384" lon="5.43152">
        <ele>249.38586</ele>
        <time>2019-06-19 12:39:45,498</time>
      </trkpt>
      <trkpt lat="43.21385" lon="5.43153">
        <ele>250.9461</ele>
        <time>2019-06-19 12:39:47,364</time>
      </trkpt>
      <trkpt lat="43.21386" lon="5.43154">
        <ele>251.03986</ele>
        <time>2019-06-19 12:39:48,308</time>
      </trkpt>
      <trkpt lat="43.21386" lon="5.43155">
        <ele>251.38373</ele>
        <time>2019-06-19 12:39:49,313</time>
      </trkpt>
      <trkpt lat="43.21387" lon="5.43156">
        <ele>251.73328</ele>
        <time>2019-06-19 12:39:50,311</time>
      </trkpt>
      <trkpt lat="43.21388" lon="5.43156">
        <ele>249.50323</ele>
        <time>2019-06-19 12:39:53,303</time>
      </trkpt>
      <trkpt lat="43.21394" lon="5.43159">
        <ele>260.26746</ele>
        <time>2019-06-19 12:40:01,295</time>
      </trkpt>
      <trkpt lat="43.21394" lon="5.4316">
        <ele>259.9013</ele>
        <time>2019-06-19 12:40:02,310</time>
      </trkpt>
      <trkpt lat="43.21394" lon="5.43161">
        <ele>260.06323</ele>
        <time>2019-06-19 12:40:03,299</time>
      </trkpt>
      <trkpt lat="43.21395" lon="5.43162">
        <ele>255.02979</ele>
        <time>2019-06-19 12:40:04,574</time>
      </trkpt>
      <trkpt lat="43.21396" lon="5.43162">
        <ele>258.45905</ele>
        <time>2019-06-19 12:40:06,308</time>
      </trkpt>
      <trkpt lat="43.21397" lon="5.43161">
        <ele>258.2539</ele>
        <time>2019-06-19 12:40:07,309</time>
      </trkpt>
      <trkpt lat="43.214" lon="5.43158">
        <ele>259.2567</ele>
        <time>2019-06-19 12:40:13,300</time>
      </trkpt>
      <trkpt lat="43.214" lon="5.43159">
        <ele>262.27576</ele>
        <time>2019-06-19 12:40:14,296</time>
      </trkpt>
      <trkpt lat="43.21401" lon="5.43161">
        <ele>263.08368</ele>
        <time>2019-06-19 12:40:16,338</time>
      </trkpt>
      <trkpt lat="43.21402" lon="5.43162">
        <ele>264.04382</ele>
        <time>2019-06-19 12:40:17,296</time>
      </trkpt>
      <trkpt lat="43.21402" lon="5.43163">
        <ele>263.4469</ele>
        <time>2019-06-19 12:40:18,309</time>
      </trkpt>
      <trkpt lat="43.21403" lon="5.43163">
        <ele>263.46838</ele>
        <time>2019-06-19 12:40:21,362</time>
      </trkpt>
      <trkpt lat="43.21404" lon="5.4316">
        <ele>263.09875</ele>
        <time>2019-06-19 12:40:23,310</time>
      </trkpt>
      <trkpt lat="43.21404" lon="5.43159">
        <ele>264.04382</ele>
        <time>2019-06-19 12:40:25,352</time>
      </trkpt>
      <trkpt lat="43.21403" lon="5.43157">
        <ele>262.90552</ele>
        <time>2019-06-19 12:40:26,309</time>
      </trkpt>
      <trkpt lat="43.21401" lon="5.43151">
        <ele>265.40137</ele>
        <time>2019-06-19 12:40:31,315</time>
      </trkpt>
      <trkpt lat="43.214" lon="5.43149">
        <ele>264.4629</ele>
        <time>2019-06-19 12:40:33,294</time>
      </trkpt>
      <trkpt lat="43.21398" lon="5.43145">
        <ele>263.71295</ele>
        <time>2019-06-19 12:40:43,305</time>
      </trkpt>
      <trkpt lat="43.21398" lon="5.43145">
        <ele>262.7068</ele>
        <time>2019-06-19 12:40:44,303</time>
      </trkpt>
      <trkpt lat="43.21398" lon="5.43144">
        <ele>263.18567</ele>
        <time>2019-06-19 12:40:47,302</time>
      </trkpt>
      <trkpt lat="43.21397" lon="5.43143">
        <ele>263.05365</ele>
        <time>2019-06-19 12:40:48,298</time>
      </trkpt>
      <trkpt lat="43.21397" lon="5.43142">
        <ele>263.66113</ele>
        <time>2019-06-19 12:40:49,304</time>
      </trkpt>
      <trkpt lat="43.21397" lon="5.43141">
        <ele>264.93884</ele>
        <time>2019-06-19 12:40:50,302</time>
      </trkpt>
      <trkpt lat="43.21396" lon="5.43139">
        <ele>264.3999</ele>
        <time>2019-06-19 12:40:51,312</time>
      </trkpt>
      <trkpt lat="43.21395" lon="5.43137">
        <ele>263.50903</ele>
        <time>2019-06-19 12:40:52,301</time>
      </trkpt>
      <trkpt lat="43.21394" lon="5.43132">
        <ele>263.48608</ele>
        <time>2019-06-19 12:40:55,539</time>
      </trkpt>
      <trkpt lat="43.21392" lon="5.43129">
        <ele>263.8506</ele>
        <time>2019-06-19 12:40:58,311</time>
      </trkpt>
      <trkpt lat="43.21392" lon="5.43128">
        <ele>263.30627</ele>
        <time>2019-06-19 12:40:59,308</time>
      </trkpt>
      <trkpt lat="43.21391" lon="5.43127">
        <ele>264.755</ele>
        <time>2019-06-19 12:41:00,309</time>
      </trkpt>
      <trkpt lat="43.2139" lon="5.43126">
        <ele>265.22162</ele>
        <time>2019-06-19 12:41:02,307</time>
      </trkpt>
      <trkpt lat="43.21389" lon="5.43125">
        <ele>264.56067</ele>
        <time>2019-06-19 12:41:03,303</time>
      </trkpt>
      <trkpt lat="43.21385" lon="5.43122">
        <ele>263.8506</ele>
        <time>2019-06-19 12:41:07,305</time>
      </trkpt>
      <trkpt lat="43.21383" lon="5.43122">
        <ele>263.87207</ele>
        <time>2019-06-19 12:41:09,340</time>
      </trkpt>
      <trkpt lat="43.21384" lon="5.43122">
        <ele>264.28406</ele>
        <time>2019-06-19 12:41:12,294</time>
      </trkpt>
      <trkpt lat="43.21384" lon="5.43121">
        <ele>261.891</ele>
        <time>2019-06-19 12:41:18,289</time>
      </trkpt>
      <trkpt lat="43.21384" lon="5.43121">
        <ele>264.93127</ele>
        <time>2019-06-19 12:41:19,309</time>
      </trkpt>
      <trkpt lat="43.21383" lon="5.43121">
        <ele>264.9148</ele>
        <time>2019-06-19 12:41:21,307</time>
      </trkpt>
      <trkpt lat="43.21381" lon="5.4312">
        <ele>264.7672</ele>
        <time>2019-06-19 12:41:23,335</time>
      </trkpt>
      <trkpt lat="43.2138" lon="5.4312">
        <ele>265.1521</ele>
        <time>2019-06-19 12:41:26,295</time>
      </trkpt>
      <trkpt lat="43.21378" lon="5.4312">
        <ele>267.9292</ele>
        <time>2019-06-19 12:41:27,318</time>
      </trkpt>
      <trkpt lat="43.21377" lon="5.4312">
        <ele>270.0891</ele>
        <time>2019-06-19 12:41:28,301</time>
      </trkpt>
      <trkpt lat="43.21376" lon="5.4312">
        <ele>264.135</ele>
        <time>2019-06-19 12:41:29,303</time>
      </trkpt>
      <trkpt lat="43.21376" lon="5.43121">
        <ele>269.88367</ele>
        <time>2019-06-19 12:41:30,299</time>
      </trkpt>
      <trkpt lat="43.21373" lon="5.43124">
        <ele>266.1667</ele>
        <time>2019-06-19 12:41:33,628</time>
      </trkpt>
      <trkpt lat="43.21371" lon="5.43125">
        <ele>265.43103</ele>
        <time>2019-06-19 12:41:35,294</time>
      </trkpt>
      <trkpt lat="43.2137" lon="5.43126">
        <ele>265.7527</ele>
        <time>2019-06-19 12:41:36,295</time>
      </trkpt>
      <trkpt lat="43.21369" lon="5.43128">
        <ele>266.74976</ele>
        <time>2019-06-19 12:41:37,307</time>
      </trkpt>
      <trkpt lat="43.21368" lon="5.4313">
        <ele>266.4414</ele>
        <time>2019-06-19 12:41:38,308</time>
      </trkpt>
      <trkpt lat="43.21367" lon="5.43131">
        <ele>266.49622</ele>
        <time>2019-06-19 12:41:39,307</time>
      </trkpt>
      <trkpt lat="43.21364" lon="5.43135">
        <ele>267.40567</ele>
        <time>2019-06-19 12:41:42,309</time>
      </trkpt>
      <trkpt lat="43.21361" lon="5.43139">
        <ele>266.22107</ele>
        <time>2019-06-19 12:41:46,313</time>
      </trkpt>
      <trkpt lat="43.21358" lon="5.43142">
        <ele>265.60272</ele>
        <time>2019-06-19 12:41:49,326</time>
      </trkpt>
      <trkpt lat="43.21355" lon="5.43144">
        <ele>265.90173</ele>
        <time>2019-06-19 12:41:52,297</time>
      </trkpt>
      <trkpt lat="43.21355" lon="5.43144">
        <ele>267.50256</ele>
        <time>2019-06-19 12:41:53,309</time>
      </trkpt>
      <trkpt lat="43.21355" lon="5.43145">
        <ele>266.1117</ele>
        <time>2019-06-19 12:41:54,300</time>
      </trkpt>
      <trkpt lat="43.21355" lon="5.43146">
        <ele>266.29578</ele>
        <time>2019-06-19 12:41:55,308</time>
      </trkpt>
      <trkpt lat="43.21354" lon="5.43146">
        <ele>267.0182</ele>
        <time>2019-06-19 12:41:56,308</time>
      </trkpt>
      <trkpt lat="43.21353" lon="5.43147">
        <ele>267.38135</ele>
        <time>2019-06-19 12:41:58,311</time>
      </trkpt>
      <trkpt lat="43.21352" lon="5.43147">
        <ele>267.13354</ele>
        <time>2019-06-19 12:41:59,309</time>
      </trkpt>
      <trkpt lat="43.21351" lon="5.43148">
        <ele>266.8462</ele>
        <time>2019-06-19 12:42:00,312</time>
      </trkpt>
      <trkpt lat="43.2135" lon="5.43148">
        <ele>267.00928</ele>
        <time>2019-06-19 12:42:01,295</time>
      </trkpt>
      <trkpt lat="43.21349" lon="5.43147">
        <ele>268.1897</ele>
        <time>2019-06-19 12:42:02,298</time>
      </trkpt>
      <trkpt lat="43.21349" lon="5.43148">
        <ele>268.36243</ele>
        <time>2019-06-19 12:42:03,289</time>
      </trkpt>
      <trkpt lat="43.21349" lon="5.43148">
        <ele>270.08282</ele>
        <time>2019-06-19 12:42:04,307</time>
      </trkpt>
      <trkpt lat="43.21348" lon="5.43149">
        <ele>316.0183</ele>
        <time>2019-06-19 12:42:05,316</time>
      </trkpt>
      <trkpt lat="43.21346" lon="5.43153">
        <ele>290.44623</ele>
        <time>2019-06-19 12:42:08,312</time>
      </trkpt>
      <trkpt lat="43.21345" lon="5.43154">
        <ele>286.50616</ele>
        <time>2019-06-19 12:42:09,309</time>
      </trkpt>
      <trkpt lat="43.21344" lon="5.43154">
        <ele>286.7657</ele>
        <time>2019-06-19 12:42:10,303</time>
      </trkpt>
      <trkpt lat="43.21344" lon="5.43154">
        <ele>283.59222</ele>
        <time>2019-06-19 12:42:11,298</time>
      </trkpt>
      <trkpt lat="43.21343" lon="5.43155">
        <ele>285.508</ele>
        <time>2019-06-19 12:42:12,299</time>
      </trkpt>
      <trkpt lat="43.21343" lon="5.43156">
        <ele>284.24957</ele>
        <time>2019-06-19 12:42:13,300</time>
      </trkpt>
      <trkpt lat="43.21342" lon="5.43157">
        <ele>282.75977</ele>
        <time>2019-06-19 12:42:14,302</time>
      </trkpt>
      <trkpt lat="43.21342" lon="5.43157">
        <ele>275.80548</ele>
        <time>2019-06-19 12:42:15,302</time>
      </trkpt>
      <trkpt lat="43.2134" lon="5.43164">
        <ele>275.2234</ele>
        <time>2019-06-19 12:42:22,300</time>
      </trkpt>
      <trkpt lat="43.21339" lon="5.43166">
        <ele>276.24188</ele>
        <time>2019-06-19 12:42:23,295</time>
      </trkpt>
      <trkpt lat="43.21339" lon="5.43169">
        <ele>274.0725</ele>
        <time>2019-06-19 12:42:26,306</time>
      </trkpt>
      <trkpt lat="43.21339" lon="5.43169">
        <ele>274.89453</ele>
        <time>2019-06-19 12:42:27,307</time>
      </trkpt>
      <trkpt lat="43.21337" lon="5.43171">
        <ele>273.95312</ele>
        <time>2019-06-19 12:42:30,301</time>
      </trkpt>
      <trkpt lat="43.21336" lon="5.43172">
        <ele>273.00244</ele>
        <time>2019-06-19 12:42:31,309</time>
      </trkpt>
      <trkpt lat="43.21336" lon="5.43173">
        <ele>273.662</ele>
        <time>2019-06-19 12:42:32,301</time>
      </trkpt>
      <trkpt lat="43.21335" lon="5.43174">
        <ele>274.54865</ele>
        <time>2019-06-19 12:42:33,298</time>
      </trkpt>
      <trkpt lat="43.21331" lon="5.43177">
        <ele>274.05286</ele>
        <time>2019-06-19 12:42:36,336</time>
      </trkpt>
      <trkpt lat="43.2133" lon="5.43179">
        <ele>272.766</ele>
        <time>2019-06-19 12:42:37,299</time>
      </trkpt>
      <trkpt lat="43.21329" lon="5.43182">
        <ele>273.4087</ele>
        <time>2019-06-19 12:42:39,298</time>
      </trkpt>
      <trkpt lat="43.21329" lon="5.43183">
        <ele>273.13013</ele>
        <time>2019-06-19 12:42:40,306</time>
      </trkpt>
      <trkpt lat="43.21328" lon="5.43185">
        <ele>274.65894</ele>
        <time>2019-06-19 12:42:43,308</time>
      </trkpt>
      <trkpt lat="43.21328" lon="5.43186">
        <ele>270.8855</ele>
        <time>2019-06-19 12:42:44,291</time>
      </trkpt>
      <trkpt lat="43.21328" lon="5.43186">
        <ele>270.24493</ele>
        <time>2019-06-19 12:42:45,360</time>
      </trkpt>
      <trkpt lat="43.21326" lon="5.43187">
        <ele>263.1792</ele>
        <time>2019-06-19 12:42:50,301</time>
      </trkpt>
      <trkpt lat="43.21325" lon="5.43188">
        <ele>263.95422</ele>
        <time>2019-06-19 12:42:51,303</time>
      </trkpt>
      <trkpt lat="43.21324" lon="5.43189">
        <ele>264.787</ele>
        <time>2019-06-19 12:42:52,315</time>
      </trkpt>
      <trkpt lat="43.21323" lon="5.4319">
        <ele>265.31152</ele>
        <time>2019-06-19 12:42:53,314</time>
      </trkpt>
      <trkpt lat="43.21322" lon="5.43192">
        <ele>266.82483</ele>
        <time>2019-06-19 12:42:54,299</time>
      </trkpt>
      <trkpt lat="43.21321" lon="5.43192">
        <ele>267.40192</ele>
        <time>2019-06-19 12:42:55,302</time>
      </trkpt>
      <trkpt lat="43.2132" lon="5.43193">
        <ele>266.6548</ele>
        <time>2019-06-19 12:42:56,294</time>
      </trkpt>
      <trkpt lat="43.21319" lon="5.43194">
        <ele>268.33954</ele>
        <time>2019-06-19 12:42:57,319</time>
      </trkpt>
      <trkpt lat="43.21315" lon="5.43195">
        <ele>269.24463</ele>
        <time>2019-06-19 12:43:00,310</time>
      </trkpt>
      <trkpt lat="43.21314" lon="5.43195">
        <ele>269.86646</ele>
        <time>2019-06-19 12:43:01,304</time>
      </trkpt>
      <trkpt lat="43.21313" lon="5.43196">
        <ele>269.2555</ele>
        <time>2019-06-19 12:43:02,296</time>
      </trkpt>
      <trkpt lat="43.21313" lon="5.43197">
        <ele>269.8651</ele>
        <time>2019-06-19 12:43:03,297</time>
      </trkpt>
      <trkpt lat="43.21311" lon="5.43198">
        <ele>269.5561</ele>
        <time>2019-06-19 12:43:05,299</time>
      </trkpt>
      <trkpt lat="43.2131" lon="5.43198">
        <ele>269.177</ele>
        <time>2019-06-19 12:43:06,306</time>
      </trkpt>
      <trkpt lat="43.21309" lon="5.43198">
        <ele>269.67523</ele>
        <time>2019-06-19 12:43:07,310</time>
      </trkpt>
      <trkpt lat="43.21309" lon="5.43198">
        <ele>269.85986</ele>
        <time>2019-06-19 12:43:08,300</time>
      </trkpt>
      <trkpt lat="43.21308" lon="5.43198">
        <ele>270.65076</ele>
        <time>2019-06-19 12:43:09,386</time>
      </trkpt>
      <trkpt lat="43.21307" lon="5.43199">
        <ele>270.4591</ele>
        <time>2019-06-19 12:43:11,307</time>
      </trkpt>
      <trkpt lat="43.21306" lon="5.43199">
        <ele>270.55774</ele>
        <time>2019-06-19 12:43:12,314</time>
      </trkpt>
      <trkpt lat="43.21304" lon="5.43199">
        <ele>271.00366</ele>
        <time>2019-06-19 12:43:14,309</time>
      </trkpt>
      <trkpt lat="43.21304" lon="5.43199">
        <ele>271.5</ele>
        <time>2019-06-19 12:43:15,305</time>
      </trkpt>
      <trkpt lat="43.21301" lon="5.432">
        <ele>273.18762</ele>
        <time>2019-06-19 12:43:17,414</time>
      </trkpt>
      <trkpt lat="43.21301" lon="5.43201">
        <ele>274.083</ele>
        <time>2019-06-19 12:43:18,329</time>
      </trkpt>
      <trkpt lat="43.21301" lon="5.43202">
        <ele>272.19324</ele>
        <time>2019-06-19 12:43:19,298</time>
      </trkpt>
      <trkpt lat="43.213" lon="5.43203">
        <ele>273.30524</ele>
        <time>2019-06-19 12:43:20,317</time>
      </trkpt>
      <trkpt lat="43.21299" lon="5.43203">
        <ele>274.40955</ele>
        <time>2019-06-19 12:43:21,301</time>
      </trkpt>
      <trkpt lat="43.21299" lon="5.43205">
        <ele>275.65723</ele>
        <time>2019-06-19 12:43:23,297</time>
      </trkpt>
      <trkpt lat="43.21299" lon="5.43206">
        <ele>276.61737</ele>
        <time>2019-06-19 12:43:24,292</time>
      </trkpt>
      <trkpt lat="43.21299" lon="5.43207">
        <ele>277.91345</ele>
        <time>2019-06-19 12:43:26,315</time>
      </trkpt>
      <trkpt lat="43.213" lon="5.43209">
        <ele>277.4668</ele>
        <time>2019-06-19 12:43:29,295</time>
      </trkpt>
      <trkpt lat="43.213" lon="5.4321">
        <ele>276.7494</ele>
        <time>2019-06-19 12:43:30,336</time>
      </trkpt>
      <trkpt lat="43.21298" lon="5.43211">
        <ele>275.34772</ele>
        <time>2019-06-19 12:43:33,363</time>
      </trkpt>
      <trkpt lat="43.21297" lon="5.43211">
        <ele>232.28357</ele>
        <time>2019-06-19 12:43:34,316</time>
      </trkpt>
      <trkpt lat="43.21297" lon="5.43213">
        <ele>235.99323</ele>
        <time>2019-06-19 12:43:35,313</time>
      </trkpt>
      <trkpt lat="43.21296" lon="5.43214">
        <ele>244.77118</ele>
        <time>2019-06-19 12:43:36,310</time>
      </trkpt>
      <trkpt lat="43.21296" lon="5.43214">
        <ele>249.95789</ele>
        <time>2019-06-19 12:43:37,317</time>
      </trkpt>
      <trkpt lat="43.21295" lon="5.43215">
        <ele>259.57043</ele>
        <time>2019-06-19 12:43:39,307</time>
      </trkpt>
      <trkpt lat="43.21294" lon="5.43215">
        <ele>262.46875</ele>
        <time>2019-06-19 12:43:40,347</time>
      </trkpt>
      <trkpt lat="43.21293" lon="5.43215">
        <ele>267.09167</ele>
        <time>2019-06-19 12:43:41,348</time>
      </trkpt>
      <trkpt lat="43.21293" lon="5.43215">
        <ele>272.4146</ele>
        <time>2019-06-19 12:43:43,301</time>
      </trkpt>
      <trkpt lat="43.21292" lon="5.43217">
        <ele>270.7989</ele>
        <time>2019-06-19 12:43:44,305</time>
      </trkpt>
      <trkpt lat="43.21291" lon="5.43217">
        <ele>271.26892</ele>
        <time>2019-06-19 12:43:45,305</time>
      </trkpt>
      <trkpt lat="43.21291" lon="5.43218">
        <ele>273.0722</ele>
        <time>2019-06-19 12:43:46,381</time>
      </trkpt>
      <trkpt lat="43.2129" lon="5.43219">
        <ele>272.14404</ele>
        <time>2019-06-19 12:43:47,308</time>
      </trkpt>
      <trkpt lat="43.21289" lon="5.43219">
        <ele>271.46246</ele>
        <time>2019-06-19 12:43:48,306</time>
      </trkpt>
      <trkpt lat="43.21289" lon="5.4322">
        <ele>272.8166</ele>
        <time>2019-06-19 12:43:49,299</time>
      </trkpt>
      <trkpt lat="43.21288" lon="5.43221">
        <ele>273.687</ele>
        <time>2019-06-19 12:43:50,343</time>
      </trkpt>
      <trkpt lat="43.21287" lon="5.43222">
        <ele>274.06042</ele>
        <time>2019-06-19 12:43:51,301</time>
      </trkpt>
      <trkpt lat="43.21287" lon="5.43222">
        <ele>274.11066</ele>
        <time>2019-06-19 12:43:52,306</time>
      </trkpt>
      <trkpt lat="43.21286" lon="5.43223">
        <ele>273.2002</ele>
        <time>2019-06-19 12:43:53,312</time>
      </trkpt>
      <trkpt lat="43.21286" lon="5.43225">
        <ele>274.56464</ele>
        <time>2019-06-19 12:43:54,351</time>
      </trkpt>
      <trkpt lat="43.21285" lon="5.43227">
        <ele>274.7019</ele>
        <time>2019-06-19 12:43:55,307</time>
      </trkpt>
      <trkpt lat="43.21285" lon="5.43228">
        <ele>275.57288</ele>
        <time>2019-06-19 12:43:56,312</time>
      </trkpt>
      <trkpt lat="43.21284" lon="5.43229">
        <ele>277.00226</ele>
        <time>2019-06-19 12:43:57,309</time>
      </trkpt>
      <trkpt lat="43.21284" lon="5.4323">
        <ele>277.56964</ele>
        <time>2019-06-19 12:43:58,347</time>
      </trkpt>
      <trkpt lat="43.21283" lon="5.43232">
        <ele>278.6253</ele>
        <time>2019-06-19 12:43:59,301</time>
      </trkpt>
      <trkpt lat="43.21282" lon="5.43235">
        <ele>278.45825</ele>
        <time>2019-06-19 12:44:01,303</time>
      </trkpt>
      <trkpt lat="43.21282" lon="5.43236">
        <ele>277.2649</ele>
        <time>2019-06-19 12:44:02,302</time>
      </trkpt>
      <trkpt lat="43.21281" lon="5.43238">
        <ele>275.57288</ele>
        <time>2019-06-19 12:44:04,316</time>
      </trkpt>
      <trkpt lat="43.2128" lon="5.43239">
        <ele>278.1145</ele>
        <time>2019-06-19 12:44:05,306</time>
      </trkpt>
      <trkpt lat="43.2128" lon="5.4324">
        <ele>278.87262</ele>
        <time>2019-06-19 12:44:07,305</time>
      </trkpt>
      <trkpt lat="43.21278" lon="5.43241">
        <ele>279.35626</ele>
        <time>2019-06-19 12:44:09,301</time>
      </trkpt>
      <trkpt lat="43.21277" lon="5.43241">
        <ele>280.32983</ele>
        <time>2019-06-19 12:44:11,293</time>
      </trkpt>
      <trkpt lat="43.21277" lon="5.43242">
        <ele>279.3064</ele>
        <time>2019-06-19 12:44:12,365</time>
      </trkpt>
      <trkpt lat="43.21275" lon="5.43243">
        <ele>278.19962</ele>
        <time>2019-06-19 12:44:14,300</time>
      </trkpt>
      <trkpt lat="43.21275" lon="5.43242">
        <ele>281.6294</ele>
        <time>2019-06-19 12:44:15,305</time>
      </trkpt>
      <trkpt lat="43.21275" lon="5.43242">
        <ele>281.90857</ele>
        <time>2019-06-19 12:44:18,308</time>
      </trkpt>
      <trkpt lat="43.21275" lon="5.43242">
        <ele>282.20947</ele>
        <time>2019-06-19 12:44:19,301</time>
      </trkpt>
      <trkpt lat="43.21275" lon="5.43241">
        <ele>282.20465</ele>
        <time>2019-06-19 12:44:20,298</time>
      </trkpt>
      <trkpt lat="43.21273" lon="5.43238">
        <ele>282.4204</ele>
        <time>2019-06-19 12:44:23,308</time>
      </trkpt>
      <trkpt lat="43.21272" lon="5.43237">
        <ele>281.65503</ele>
        <time>2019-06-19 12:44:24,296</time>
      </trkpt>
      <trkpt lat="43.21267" lon="5.43234">
        <ele>280.41956</ele>
        <time>2019-06-19 12:44:28,298</time>
      </trkpt>
      <trkpt lat="43.21265" lon="5.43234">
        <ele>280.14868</ele>
        <time>2019-06-19 12:44:31,302</time>
      </trkpt>
      <trkpt lat="43.21264" lon="5.43233">
        <ele>281.00452</ele>
        <time>2019-06-19 12:44:32,293</time>
      </trkpt>
      <trkpt lat="43.21263" lon="5.43233">
        <ele>281.3653</ele>
        <time>2019-06-19 12:44:33,303</time>
      </trkpt>
      <trkpt lat="43.21261" lon="5.43232">
        <ele>280.1612</ele>
        <time>2019-06-19 12:44:37,297</time>
      </trkpt>
      <trkpt lat="43.21261" lon="5.43231">
        <ele>281.35254</ele>
        <time>2019-06-19 12:44:38,300</time>
      </trkpt>
      <trkpt lat="43.21262" lon="5.43232">
        <ele>280.8568</ele>
        <time>2019-06-19 12:44:39,304</time>
      </trkpt>
      <trkpt lat="43.21259" lon="5.43231">
        <ele>280.7588</ele>
        <time>2019-06-19 12:45:00,302</time>
      </trkpt>
      <trkpt lat="43.21259" lon="5.43231">
        <ele>280.7329</ele>
        <time>2019-06-19 12:45:20,307</time>
      </trkpt>
      <trkpt lat="43.21259" lon="5.43232">
        <ele>280.72607</ele>
        <time>2019-06-19 12:45:35,301</time>
      </trkpt>
      <trkpt lat="43.21259" lon="5.43233">
        <ele>278.99988</ele>
        <time>2019-06-19 12:45:36,296</time>
      </trkpt>
      <trkpt lat="43.21259" lon="5.43237">
        <ele>276.70508</ele>
        <time>2019-06-19 12:45:42,315</time>
      </trkpt>
      <trkpt lat="43.21258" lon="5.43243">
        <ele>278.4928</ele>
        <time>2019-06-19 12:45:50,314</time>
      </trkpt>
      <trkpt lat="43.21257" lon="5.43244">
        <ele>278.61682</ele>
        <time>2019-06-19 12:45:52,379</time>
      </trkpt>
      <trkpt lat="43.21257" lon="5.43245">
        <ele>278.94965</ele>
        <time>2019-06-19 12:45:53,302</time>
      </trkpt>
      <trkpt lat="43.21257" lon="5.43245">
        <ele>279.95703</ele>
        <time>2019-06-19 12:46:04,296</time>
      </trkpt>
      <trkpt lat="43.21256" lon="5.43246">
        <ele>279.76245</ele>
        <time>2019-06-19 12:46:05,317</time>
      </trkpt>
      <trkpt lat="43.21255" lon="5.43246">
        <ele>281.7318</ele>
        <time>2019-06-19 12:46:08,297</time>
      </trkpt>
      <trkpt lat="43.21251" lon="5.43246">
        <ele>278.1875</ele>
        <time>2019-06-19 12:46:28,515</time>
      </trkpt>
      <trkpt lat="43.21251" lon="5.43247">
        <ele>277.41284</ele>
        <time>2019-06-19 12:46:44,292</time>
      </trkpt>
      <trkpt lat="43.2125" lon="5.43247">
        <ele>259.70227</ele>
        <time>2019-06-19 12:46:45,308</time>
      </trkpt>
      <trkpt lat="43.21247" lon="5.43249">
        <ele>274.73907</ele>
        <time>2019-06-19 12:47:05,304</time>
      </trkpt>
      <trkpt lat="43.21246" lon="5.43249">
        <ele>275.2245</ele>
        <time>2019-06-19 12:47:28,316</time>
      </trkpt>
      <trkpt lat="43.21246" lon="5.43249">
        <ele>275.56128</ele>
        <time>2019-06-19 12:47:52,225</time>
      </trkpt>
      <trkpt lat="43.21246" lon="5.43249">
        <ele>275.65613</ele>
        <time>2019-06-19 12:48:15,225</time>
      </trkpt>
      <trkpt lat="43.21246" lon="5.43249">
        <ele>275.6776</ele>
        <time>2019-06-19 12:48:36,227</time>
      </trkpt>
      <trkpt lat="43.21247" lon="5.43249">
        <ele>275.75134</ele>
        <time>2019-06-19 12:48:58,311</time>
      </trkpt>
      <trkpt lat="43.21247" lon="5.43249">
        <ele>275.79028</ele>
        <time>2019-06-19 12:49:18,268</time>
      </trkpt>
      <trkpt lat="43.21247" lon="5.43249">
        <ele>275.8048</ele>
        <time>2019-06-19 12:49:48,221</time>
      </trkpt>
      <trkpt lat="43.21247" lon="5.43249">
        <ele>275.6692</ele>
        <time>2019-06-19 12:50:10,227</time>
      </trkpt>
      <trkpt lat="43.21247" lon="5.43249">
        <ele>275.83215</ele>
        <time>2019-06-19 12:50:31,232</time>
      </trkpt>
      <trkpt lat="43.21247" lon="5.43249">
        <ele>275.80896</ele>
        <time>2019-06-19 12:51:02,226</time>
      </trkpt>
      <trkpt lat="43.21247" lon="5.43249">
        <ele>275.86133</ele>
        <time>2019-06-19 12:51:31,240</time>
      </trkpt>
      <trkpt lat="43.21247" lon="5.43249">
        <ele>275.8139</ele>
        <time>2019-06-19 12:52:16,236</time>
      </trkpt>
      <trkpt lat="43.21247" lon="5.43249">
        <ele>275.85742</ele>
        <time>2019-06-19 12:52:54,213</time>
      </trkpt>
      <trkpt lat="43.21246" lon="5.43249">
        <ele>275.84583</ele>
        <time>2019-06-19 12:54:04,227</time>
      </trkpt>
      <trkpt lat="43.21246" lon="5.43249">
        <ele>275.82507</ele>
        <time>2019-06-19 12:54:42,435</time>
      </trkpt>
      <trkpt lat="43.21246" lon="5.43249">
        <ele>275.8048</ele>
        <time>2019-06-19 12:55:09,233</time>
      </trkpt>
      <trkpt lat="43.21246" lon="5.43249">
        <ele>275.7738</ele>
        <time>2019-06-19 12:56:38,225</time>
      </trkpt>
      <trkpt lat="43.21246" lon="5.43249">
        <ele>275.7705</ele>
        <time>2019-06-19 12:56:59,235</time>
      </trkpt>
      <trkpt lat="43.21246" lon="5.43249">
        <ele>275.7661</ele>
        <time>2019-06-19 12:57:19,221</time>
      </trkpt>
      <trkpt lat="43.21246" lon="5.43249">
        <ele>275.73486</ele>
        <time>2019-06-19 12:57:55,225</time>
      </trkpt>
      <trkpt lat="43.21246" lon="5.43249">
        <ele>275.7091</ele>
        <time>2019-06-19 12:58:17,223</time>
      </trkpt>
      <trkpt lat="43.21246" lon="5.43249">
        <ele>275.6858</ele>
        <time>2019-06-19 12:58:38,222</time>
      </trkpt>
      <trkpt lat="43.21246" lon="5.43249">
        <ele>275.66772</ele>
        <time>2019-06-19 12:58:58,226</time>
      </trkpt>
      <trkpt lat="43.21246" lon="5.43249">
        <ele>275.6535</ele>
        <time>2019-06-19 12:59:18,208</time>
      </trkpt>
      <trkpt lat="43.21246" lon="5.43249">
        <ele>275.6504</ele>
        <time>2019-06-19 12:59:42,224</time>
      </trkpt>
      <trkpt lat="43.21246" lon="5.43249">
        <ele>275.65796</ele>
        <time>2019-06-19 13:00:02,216</time>
      </trkpt>
      <trkpt lat="43.21246" lon="5.43249">
        <ele>275.646</ele>
        <time>2019-06-19 13:00:23,233</time>
      </trkpt>
      <trkpt lat="43.21246" lon="5.43249">
        <ele>275.63757</ele>
        <time>2019-06-19 13:00:43,218</time>
      </trkpt>
      <trkpt lat="43.21246" lon="5.43249">
        <ele>275.59814</ele>
        <time>2019-06-19 13:02:24,228</time>
      </trkpt>
      <trkpt lat="43.21246" lon="5.43249">
        <ele>278.76245</ele>
        <time>2019-06-19 13:02:44,224</time>
      </trkpt>
      <trkpt lat="43.21246" lon="5.43249">
        <ele>275.7456</ele>
        <time>2019-06-19 13:03:04,249</time>
      </trkpt>
      <trkpt lat="43.21246" lon="5.43249">
        <ele>275.61963</ele>
        <time>2019-06-19 13:03:24,236</time>
      </trkpt>
      <trkpt lat="43.21246" lon="5.43249">
        <ele>275.56836</ele>
        <time>2019-06-19 13:03:53,219</time>
      </trkpt>
      <trkpt lat="43.21246" lon="5.43249">
        <ele>275.54547</ele>
        <time>2019-06-19 13:04:13,228</time>
      </trkpt>
      <trkpt lat="43.21246" lon="5.43249">
        <ele>275.52838</ele>
        <time>2019-06-19 13:04:48,424</time>
      </trkpt>
      <trkpt lat="43.21246" lon="5.43249">
        <ele>275.58533</ele>
        <time>2019-06-19 13:05:11,223</time>
      </trkpt>
      <trkpt lat="43.21246" lon="5.43249">
        <ele>275.55023</ele>
        <time>2019-06-19 13:05:31,215</time>
      </trkpt>
      <trkpt lat="43.21246" lon="5.43249">
        <ele>275.46924</ele>
        <time>2019-06-19 13:06:19,215</time>
      </trkpt>
      <trkpt lat="43.21246" lon="5.43249">
        <ele>275.40314</ele>
        <time>2019-06-19 13:06:39,217</time>
      </trkpt>
      <trkpt lat="43.21246" lon="5.43249">
        <ele>275.37146</ele>
        <time>2019-06-19 13:06:59,215</time>
      </trkpt>
      <trkpt lat="43.21246" lon="5.43249">
        <ele>275.30444</ele>
        <time>2019-06-19 13:07:19,218</time>
      </trkpt>
      <trkpt lat="43.21246" lon="5.43249">
        <ele>275.24548</ele>
        <time>2019-06-19 13:07:39,215</time>
      </trkpt>
      <trkpt lat="43.21246" lon="5.43249">
        <ele>275.23718</ele>
        <time>2019-06-19 13:07:59,220</time>
      </trkpt>
      <trkpt lat="43.21246" lon="5.43249">
        <ele>275.2268</ele>
        <time>2019-06-19 13:08:20,220</time>
      </trkpt>
      <trkpt lat="43.21246" lon="5.43249">
        <ele>275.20923</ele>
        <time>2019-06-19 13:08:40,222</time>
      </trkpt>
      <trkpt lat="43.21246" lon="5.43249">
        <ele>275.20654</ele>
        <time>2019-06-19 13:09:00,219</time>
      </trkpt>
      <trkpt lat="43.21246" lon="5.43249">
        <ele>275.2024</ele>
        <time>2019-06-19 13:09:20,227</time>
      </trkpt>
      <trkpt lat="43.21246" lon="5.43249">
        <ele>271.85242</ele>
        <time>2019-06-19 13:09:39,774</time>
      </trkpt>
      <trkpt lat="43.21246" lon="5.43249">
        <ele>275.24323</ele>
        <time>2019-06-19 13:09:58,771</time>
      </trkpt>
      <trkpt lat="43.21246" lon="5.43248">
        <ele>275.1217</ele>
        <time>2019-06-19 13:09:59,772</time>
      </trkpt>
      <trkpt lat="43.21245" lon="5.43248">
        <ele>274.8025</ele>
        <time>2019-06-19 13:10:00,781</time>
      </trkpt>
      <trkpt lat="43.21245" lon="5.43248">
        <ele>274.37732</ele>
        <time>2019-06-19 13:10:01,786</time>
      </trkpt>
      <trkpt lat="43.21244" lon="5.43248">
        <ele>274.67725</ele>
        <time>2019-06-19 13:10:02,770</time>
      </trkpt>
      <trkpt lat="43.21243" lon="5.43248">
        <ele>274.40295</ele>
        <time>2019-06-19 13:10:03,771</time>
      </trkpt>
      <trkpt lat="43.21241" lon="5.43248">
        <ele>276.09253</ele>
        <time>2019-06-19 13:10:05,771</time>
      </trkpt>
      <trkpt lat="43.21241" lon="5.43247">
        <ele>275.34583</ele>
        <time>2019-06-19 13:10:06,781</time>
      </trkpt>
      <trkpt lat="43.2124" lon="5.43247">
        <ele>276.21667</ele>
        <time>2019-06-19 13:10:07,771</time>
      </trkpt>
      <trkpt lat="43.2124" lon="5.43247">
        <ele>278.09326</ele>
        <time>2019-06-19 13:10:28,048</time>
      </trkpt>
      <trkpt lat="43.2124" lon="5.43248">
        <ele>277.70923</ele>
        <time>2019-06-19 13:10:32,051</time>
      </trkpt>
      <trkpt lat="43.2124" lon="5.43249">
        <ele>278.62738</ele>
        <time>2019-06-19 13:10:33,064</time>
      </trkpt>
      <trkpt lat="43.21241" lon="5.4325">
        <ele>277.2365</ele>
        <time>2019-06-19 13:10:34,048</time>
      </trkpt>
      <trkpt lat="43.21243" lon="5.4325">
        <ele>278.01953</ele>
        <time>2019-06-19 13:10:36,047</time>
      </trkpt>
      <trkpt lat="43.21244" lon="5.4325">
        <ele>278.41687</ele>
        <time>2019-06-19 13:10:37,048</time>
      </trkpt>
      <trkpt lat="43.21245" lon="5.4325">
        <ele>277.74628</ele>
        <time>2019-06-19 13:10:38,050</time>
      </trkpt>
      <trkpt lat="43.21246" lon="5.4325">
        <ele>276.94238</ele>
        <time>2019-06-19 13:10:40,047</time>
      </trkpt>
      <trkpt lat="43.21246" lon="5.4325">
        <ele>275.602</ele>
        <time>2019-06-19 13:10:41,046</time>
      </trkpt>
      <trkpt lat="43.21249" lon="5.4325">
        <ele>275.73706</ele>
        <time>2019-06-19 13:10:44,210</time>
      </trkpt>
      <trkpt lat="43.21251" lon="5.43249">
        <ele>274.5503</ele>
        <time>2019-06-19 13:10:46,056</time>
      </trkpt>
      <trkpt lat="43.21253" lon="5.43245">
        <ele>274.20123</ele>
        <time>2019-06-19 13:10:52,049</time>
      </trkpt>
      <trkpt lat="43.21254" lon="5.43244">
        <ele>274.36768</ele>
        <time>2019-06-19 13:10:53,056</time>
      </trkpt>
      <trkpt lat="43.21254" lon="5.43241">
        <ele>275.07703</ele>
        <time>2019-06-19 13:10:56,044</time>
      </trkpt>
      <trkpt lat="43.21255" lon="5.43239">
        <ele>275.7821</ele>
        <time>2019-06-19 13:10:57,051</time>
      </trkpt>
      <trkpt lat="43.21256" lon="5.43236">
        <ele>277.59827</ele>
        <time>2019-06-19 13:10:59,053</time>
      </trkpt>
      <trkpt lat="43.21257" lon="5.43235">
        <ele>278.5476</ele>
        <time>2019-06-19 13:11:00,041</time>
      </trkpt>
      <trkpt lat="43.21258" lon="5.43233">
        <ele>279.23926</ele>
        <time>2019-06-19 13:11:01,038</time>
      </trkpt>
      <trkpt lat="43.21258" lon="5.43233">
        <ele>279.15332</ele>
        <time>2019-06-19 13:11:02,050</time>
      </trkpt>
      <trkpt lat="43.21259" lon="5.43233">
        <ele>279.08057</ele>
        <time>2019-06-19 13:11:03,066</time>
      </trkpt>
      <trkpt lat="43.21259" lon="5.43233">
        <ele>278.9654</ele>
        <time>2019-06-19 13:11:04,054</time>
      </trkpt>
      <trkpt lat="43.21257" lon="5.4323">
        <ele>278.01953</ele>
        <time>2019-06-19 13:11:07,063</time>
      </trkpt>
      <trkpt lat="43.21257" lon="5.43229">
        <ele>276.60583</ele>
        <time>2019-06-19 13:11:08,057</time>
      </trkpt>
      <trkpt lat="43.21254" lon="5.43225">
        <ele>277.49792</ele>
        <time>2019-06-19 13:11:14,051</time>
      </trkpt>
      <trkpt lat="43.21253" lon="5.43226">
        <ele>279.21387</ele>
        <time>2019-06-19 13:11:15,056</time>
      </trkpt>
      <trkpt lat="43.21253" lon="5.43226">
        <ele>276.84595</ele>
        <time>2019-06-19 13:11:16,045</time>
      </trkpt>
      <trkpt lat="43.21253" lon="5.43226">
        <ele>277.22485</ele>
        <time>2019-06-19 13:11:17,056</time>
      </trkpt>
      <trkpt lat="43.21253" lon="5.43226">
        <ele>277.3725</ele>
        <time>2019-06-19 13:11:19,047</time>
      </trkpt>
      <trkpt lat="43.21253" lon="5.43225">
        <ele>277.01257</ele>
        <time>2019-06-19 13:11:23,041</time>
      </trkpt>
      <trkpt lat="43.21254" lon="5.43224">
        <ele>277.1833</ele>
        <time>2019-06-19 13:11:24,044</time>
      </trkpt>
      <trkpt lat="43.21254" lon="5.43224">
        <ele>276.84595</ele>
        <time>2019-06-19 13:11:25,048</time>
      </trkpt>
      <trkpt lat="43.21255" lon="5.43223">
        <ele>276.88513</ele>
        <time>2019-06-19 13:11:26,039</time>
      </trkpt>
      <trkpt lat="43.21255" lon="5.43222">
        <ele>277.39197</ele>
        <time>2019-06-19 13:11:27,047</time>
      </trkpt>
      <trkpt lat="43.21256" lon="5.43221">
        <ele>278.15454</ele>
        <time>2019-06-19 13:11:28,046</time>
      </trkpt>
      <trkpt lat="43.21256" lon="5.4322">
        <ele>278.06824</ele>
        <time>2019-06-19 13:11:29,041</time>
      </trkpt>
      <trkpt lat="43.21257" lon="5.43219">
        <ele>279.7544</ele>
        <time>2019-06-19 13:11:32,042</time>
      </trkpt>
      <trkpt lat="43.21257" lon="5.43218">
        <ele>276.88513</ele>
        <time>2019-06-19 13:11:35,043</time>
      </trkpt>
      <trkpt lat="43.21256" lon="5.43216">
        <ele>279.61066</ele>
        <time>2019-06-19 13:11:42,048</time>
      </trkpt>
      <trkpt lat="43.21255" lon="5.43214">
        <ele>276.3733</ele>
        <time>2019-06-19 13:11:43,049</time>
      </trkpt>
      <trkpt lat="43.21252" lon="5.43214">
        <ele>277.3766</ele>
        <time>2019-06-19 13:11:46,043</time>
      </trkpt>
      <trkpt lat="43.21251" lon="5.43213">
        <ele>276.86548</ele>
        <time>2019-06-19 13:11:47,070</time>
      </trkpt>
      <trkpt lat="43.2125" lon="5.43213">
        <ele>276.062</ele>
        <time>2019-06-19 13:11:49,063</time>
      </trkpt>
      <trkpt lat="43.21249" lon="5.43212">
        <ele>275.64075</ele>
        <time>2019-06-19 13:11:50,050</time>
      </trkpt>
      <trkpt lat="43.21249" lon="5.43212">
        <ele>275.98907</ele>
        <time>2019-06-19 13:11:51,048</time>
      </trkpt>
      <trkpt lat="43.21248" lon="5.43212">
        <ele>274.15576</ele>
        <time>2019-06-19 13:11:52,039</time>
      </trkpt>
      <trkpt lat="43.21247" lon="5.4321">
        <ele>272.52203</ele>
        <time>2019-06-19 13:11:54,139</time>
      </trkpt>
      <trkpt lat="43.21244" lon="5.43205">
        <ele>272.54785</ele>
        <time>2019-06-19 13:11:59,044</time>
      </trkpt>
      <trkpt lat="43.21239" lon="5.43199">
        <ele>276.17126</ele>
        <time>2019-06-19 13:12:06,046</time>
      </trkpt>
      <trkpt lat="43.21238" lon="5.43198">
        <ele>274.3421</ele>
        <time>2019-06-19 13:12:07,035</time>
      </trkpt>
      <trkpt lat="43.21238" lon="5.43196">
        <ele>273.54028</ele>
        <time>2019-06-19 13:12:08,047</time>
      </trkpt>
      <trkpt lat="43.21238" lon="5.43194">
        <ele>274.04895</ele>
        <time>2019-06-19 13:12:10,057</time>
      </trkpt>
      <trkpt lat="43.21237" lon="5.43194">
        <ele>273.98987</ele>
        <time>2019-06-19 13:12:11,164</time>
      </trkpt>
      <trkpt lat="43.21237" lon="5.43192">
        <ele>276.17126</ele>
        <time>2019-06-19 13:12:16,043</time>
      </trkpt>
      <trkpt lat="43.21237" lon="5.43191">
        <ele>270.4497</ele>
        <time>2019-06-19 13:12:17,044</time>
      </trkpt>
      <trkpt lat="43.21236" lon="5.43191">
        <ele>269.22235</ele>
        <time>2019-06-19 13:12:18,055</time>
      </trkpt>
      <trkpt lat="43.21236" lon="5.4319">
        <ele>265.95593</ele>
        <time>2019-06-19 13:12:20,043</time>
      </trkpt>
      <trkpt lat="43.21235" lon="5.43189">
        <ele>265.5052</ele>
        <time>2019-06-19 13:12:21,038</time>
      </trkpt>
      <trkpt lat="43.21234" lon="5.43189">
        <ele>266.50684</ele>
        <time>2019-06-19 13:12:22,051</time>
      </trkpt>
      <trkpt lat="43.21233" lon="5.4319">
        <ele>264.85828</ele>
        <time>2019-06-19 13:12:25,051</time>
      </trkpt>
      <trkpt lat="43.21232" lon="5.43189">
        <ele>270.4497</ele>
        <time>2019-06-19 13:12:26,070</time>
      </trkpt>
      <trkpt lat="43.21232" lon="5.43189">
        <ele>263.95886</ele>
        <time>2019-06-19 13:12:27,116</time>
      </trkpt>
      <trkpt lat="43.21232" lon="5.43189">
        <ele>264.89587</ele>
        <time>2019-06-19 13:12:28,073</time>
      </trkpt>
      <trkpt lat="43.21232" lon="5.43189">
        <ele>264.87207</ele>
        <time>2019-06-19 13:12:29,042</time>
      </trkpt>
      <trkpt lat="43.21231" lon="5.43189">
        <ele>265.5835</ele>
        <time>2019-06-19 13:12:30,045</time>
      </trkpt>
      <trkpt lat="43.21231" lon="5.43188">
        <ele>265.50378</ele>
        <time>2019-06-19 13:12:31,035</time>
      </trkpt>
      <trkpt lat="43.21231" lon="5.43188">
        <ele>265.4016</ele>
        <time>2019-06-19 13:12:32,061</time>
      </trkpt>
      <trkpt lat="43.21231" lon="5.43187">
        <ele>264.6576</ele>
        <time>2019-06-19 13:12:34,034</time>
      </trkpt>
      <trkpt lat="43.21231" lon="5.43185">
        <ele>265.03857</ele>
        <time>2019-06-19 13:12:35,048</time>
      </trkpt>
      <trkpt lat="43.21231" lon="5.43184">
        <ele>263.95886</ele>
        <time>2019-06-19 13:12:36,054</time>
      </trkpt>
      <trkpt lat="43.2123" lon="5.43183">
        <ele>230.46033</ele>
        <time>2019-06-19 13:12:37,183</time>
      </trkpt>
      <trkpt lat="43.21229" lon="5.43182">
        <ele>240.70398</ele>
        <time>2019-06-19 13:12:39,066</time>
      </trkpt>
      <trkpt lat="43.21229" lon="5.43181">
        <ele>242.5885</ele>
        <time>2019-06-19 13:12:40,042</time>
      </trkpt>
      <trkpt lat="43.21229" lon="5.43179">
        <ele>251.47455</ele>
        <time>2019-06-19 13:12:42,621</time>
      </trkpt>
      <trkpt lat="43.21228" lon="5.43178">
        <ele>271.1772</ele>
        <time>2019-06-19 13:12:48,636</time>
      </trkpt>
      <trkpt lat="43.21225" lon="5.43171">
        <ele>262.80365</ele>
        <time>2019-06-19 13:12:58,640</time>
      </trkpt>
      <trkpt lat="43.21224" lon="5.4317">
        <ele>262.7517</ele>
        <time>2019-06-19 13:12:59,642</time>
      </trkpt>
      <trkpt lat="43.21222" lon="5.43166">
        <ele>264.72833</ele>
        <time>2019-06-19 13:13:04,634</time>
      </trkpt>
      <trkpt lat="43.21222" lon="5.43165">
        <ele>263.2544</ele>
        <time>2019-06-19 13:13:05,638</time>
      </trkpt>
      <trkpt lat="43.21219" lon="5.43157">
        <ele>262.2334</ele>
        <time>2019-06-19 13:13:16,637</time>
      </trkpt>
      <trkpt lat="43.21219" lon="5.43156">
        <ele>261.7782</ele>
        <time>2019-06-19 13:13:22,635</time>
      </trkpt>
      <trkpt lat="43.21219" lon="5.43155">
        <ele>260.23663</ele>
        <time>2019-06-19 13:13:23,629</time>
      </trkpt>
      <trkpt lat="43.21219" lon="5.43153">
        <ele>261.2495</ele>
        <time>2019-06-19 13:13:24,629</time>
      </trkpt>
      <trkpt lat="43.21219" lon="5.43151">
        <ele>259.333</ele>
        <time>2019-06-19 13:13:25,633</time>
      </trkpt>
      <trkpt lat="43.21219" lon="5.4315">
        <ele>261.91412</ele>
        <time>2019-06-19 13:13:26,633</time>
      </trkpt>
      <trkpt lat="43.21219" lon="5.43149">
        <ele>260.7776</ele>
        <time>2019-06-19 13:13:27,638</time>
      </trkpt>
      <trkpt lat="43.21219" lon="5.43147">
        <ele>261.4135</ele>
        <time>2019-06-19 13:13:28,643</time>
      </trkpt>
      <trkpt lat="43.21219" lon="5.43146">
        <ele>259.73724</ele>
        <time>2019-06-19 13:13:29,635</time>
      </trkpt>
      <trkpt lat="43.21219" lon="5.43145">
        <ele>259.82495</ele>
        <time>2019-06-19 13:13:30,637</time>
      </trkpt>
      <trkpt lat="43.21219" lon="5.43143">
        <ele>259.19067</ele>
        <time>2019-06-19 13:13:31,634</time>
      </trkpt>
      <trkpt lat="43.21217" lon="5.4314">
        <ele>259.1819</ele>
        <time>2019-06-19 13:13:38,665</time>
      </trkpt>
      <trkpt lat="43.21217" lon="5.43139">
        <ele>262.31506</ele>
        <time>2019-06-19 13:13:39,631</time>
      </trkpt>
      <trkpt lat="43.21217" lon="5.43138">
        <ele>261.4071</ele>
        <time>2019-06-19 13:13:40,630</time>
      </trkpt>
      <trkpt lat="43.21217" lon="5.43136">
        <ele>262.6377</ele>
        <time>2019-06-19 13:13:41,630</time>
      </trkpt>
      <trkpt lat="43.21216" lon="5.43131">
        <ele>259.80872</ele>
        <time>2019-06-19 13:13:47,631</time>
      </trkpt>
      <trkpt lat="43.21216" lon="5.43129">
        <ele>261.53186</ele>
        <time>2019-06-19 13:13:48,624</time>
      </trkpt>
      <trkpt lat="43.21215" lon="5.43127">
        <ele>262.38916</ele>
        <time>2019-06-19 13:13:49,628</time>
      </trkpt>
      <trkpt lat="43.21215" lon="5.43125">
        <ele>263.5171</ele>
        <time>2019-06-19 13:13:50,630</time>
      </trkpt>
      <trkpt lat="43.21215" lon="5.43124">
        <ele>263.83838</ele>
        <time>2019-06-19 13:13:51,633</time>
      </trkpt>
      <trkpt lat="43.21215" lon="5.43123">
        <ele>263.04163</ele>
        <time>2019-06-19 13:13:52,686</time>
      </trkpt>
      <trkpt lat="43.21217" lon="5.4312">
        <ele>263.10364</ele>
        <time>2019-06-19 13:13:54,620</time>
      </trkpt>
      <trkpt lat="43.21218" lon="5.43119">
        <ele>262.08502</ele>
        <time>2019-06-19 13:13:55,633</time>
      </trkpt>
      <trkpt lat="43.2122" lon="5.43118">
        <ele>259.80872</ele>
        <time>2019-06-19 13:13:56,624</time>
      </trkpt>
      <trkpt lat="43.21221" lon="5.43117">
        <ele>258.69775</ele>
        <time>2019-06-19 13:13:57,626</time>
      </trkpt>
      <trkpt lat="43.21223" lon="5.43114">
        <ele>254.42535</ele>
        <time>2019-06-19 13:13:59,627</time>
      </trkpt>
      <trkpt lat="43.21225" lon="5.4311">
        <ele>252.52197</ele>
        <time>2019-06-19 13:14:01,631</time>
      </trkpt>
      <trkpt lat="43.21227" lon="5.43108">
        <ele>251.00922</ele>
        <time>2019-06-19 13:14:02,625</time>
      </trkpt>
      <trkpt lat="43.21229" lon="5.43106">
        <ele>249.74597</ele>
        <time>2019-06-19 13:14:08,624</time>
      </trkpt>
      <trkpt lat="43.21231" lon="5.43106">
        <ele>250.12201</ele>
        <time>2019-06-19 13:14:09,638</time>
      </trkpt>
      <trkpt lat="43.21232" lon="5.43106">
        <ele>250.89783</ele>
        <time>2019-06-19 13:14:10,633</time>
      </trkpt>
      <trkpt lat="43.21233" lon="5.43106">
        <ele>251.31812</ele>
        <time>2019-06-19 13:14:11,636</time>
      </trkpt>
      <trkpt lat="43.21234" lon="5.43106">
        <ele>251.04297</ele>
        <time>2019-06-19 13:14:12,633</time>
      </trkpt>
      <trkpt lat="43.21236" lon="5.43106">
        <ele>252.14679</ele>
        <time>2019-06-19 13:14:14,628</time>
      </trkpt>
      <trkpt lat="43.21237" lon="5.43105">
        <ele>252.82794</ele>
        <time>2019-06-19 13:14:15,626</time>
      </trkpt>
      <trkpt lat="43.21239" lon="5.43104">
        <ele>249.64355</ele>
        <time>2019-06-19 13:14:16,631</time>
      </trkpt>
      <trkpt lat="43.2124" lon="5.43103">
        <ele>251.55151</ele>
        <time>2019-06-19 13:14:17,621</time>
      </trkpt>
      <trkpt lat="43.21241" lon="5.43102">
        <ele>247.1781</ele>
        <time>2019-06-19 13:14:18,628</time>
      </trkpt>
      <trkpt lat="43.21242" lon="5.43101">
        <ele>246.8667</ele>
        <time>2019-06-19 13:14:19,631</time>
      </trkpt>
      <trkpt lat="43.21243" lon="5.43101">
        <ele>246.66309</ele>
        <time>2019-06-19 13:14:20,632</time>
      </trkpt>
      <trkpt lat="43.21246" lon="5.43098">
        <ele>247.36627</ele>
        <time>2019-06-19 13:14:22,619</time>
      </trkpt>
      <trkpt lat="43.21249" lon="5.43094">
        <ele>247.14832</ele>
        <time>2019-06-19 13:14:25,647</time>
      </trkpt>
      <trkpt lat="43.21249" lon="5.43092">
        <ele>247.1781</ele>
        <time>2019-06-19 13:14:26,628</time>
      </trkpt>
      <trkpt lat="43.21249" lon="5.4309">
        <ele>248.59875</ele>
        <time>2019-06-19 13:14:27,631</time>
      </trkpt>
      <trkpt lat="43.21249" lon="5.43087">
        <ele>248.84253</ele>
        <time>2019-06-19 13:14:28,623</time>
      </trkpt>
      <trkpt lat="43.21249" lon="5.43084">
        <ele>249.78503</ele>
        <time>2019-06-19 13:14:30,623</time>
      </trkpt>
      <trkpt lat="43.2125" lon="5.43082">
        <ele>249.203</ele>
        <time>2019-06-19 13:14:31,625</time>
      </trkpt>
      <trkpt lat="43.21249" lon="5.43081">
        <ele>251.19043</ele>
        <time>2019-06-19 13:14:32,633</time>
      </trkpt>
      <trkpt lat="43.21249" lon="5.4308">
        <ele>252.02502</ele>
        <time>2019-06-19 13:14:33,620</time>
      </trkpt>
      <trkpt lat="43.2125" lon="5.43079">
        <ele>252.24359</ele>
        <time>2019-06-19 13:14:34,621</time>
      </trkpt>
      <trkpt lat="43.2125" lon="5.43078">
        <ele>252.80267</ele>
        <time>2019-06-19 13:14:35,614</time>
      </trkpt>
      <trkpt lat="43.21252" lon="5.43076">
        <ele>255.29645</ele>
        <time>2019-06-19 13:14:37,622</time>
      </trkpt>
      <trkpt lat="43.21251" lon="5.43074">
        <ele>255.0354</ele>
        <time>2019-06-19 13:14:38,616</time>
      </trkpt>
      <trkpt lat="43.2125" lon="5.43073">
        <ele>254.17218</ele>
        <time>2019-06-19 13:14:39,631</time>
      </trkpt>
      <trkpt lat="43.21249" lon="5.43071">
        <ele>254.59424</ele>
        <time>2019-06-19 13:14:40,630</time>
      </trkpt>
      <trkpt lat="43.21248" lon="5.43069">
        <ele>254.25629</ele>
        <time>2019-06-19 13:14:41,623</time>
      </trkpt>
      <trkpt lat="43.21247" lon="5.43064">
        <ele>253.85803</ele>
        <time>2019-06-19 13:14:43,629</time>
      </trkpt>
      <trkpt lat="43.21248" lon="5.43062">
        <ele>252.46948</ele>
        <time>2019-06-19 13:14:44,628</time>
      </trkpt>
      <trkpt lat="43.21249" lon="5.4306">
        <ele>252.75055</ele>
        <time>2019-06-19 13:14:45,633</time>
      </trkpt>
      <trkpt lat="43.2125" lon="5.43059">
        <ele>253.29553</ele>
        <time>2019-06-19 13:14:46,637</time>
      </trkpt>
      <trkpt lat="43.21251" lon="5.43056">
        <ele>252.91962</ele>
        <time>2019-06-19 13:14:48,630</time>
      </trkpt>
      <trkpt lat="43.21251" lon="5.43055">
        <ele>253.07166</ele>
        <time>2019-06-19 13:14:49,634</time>
      </trkpt>
      <trkpt lat="43.21251" lon="5.43054">
        <ele>252.40741</ele>
        <time>2019-06-19 13:14:50,631</time>
      </trkpt>
      <trkpt lat="43.2125" lon="5.43052">
        <ele>252.8656</ele>
        <time>2019-06-19 13:14:51,625</time>
      </trkpt>
      <trkpt lat="43.21249" lon="5.43051">
        <ele>253.54346</ele>
        <time>2019-06-19 13:14:52,631</time>
      </trkpt>
      <trkpt lat="43.21249" lon="5.43049">
        <ele>251.59436</ele>
        <time>2019-06-19 13:14:53,629</time>
      </trkpt>
      <trkpt lat="43.21249" lon="5.43046">
        <ele>252.93549</ele>
        <time>2019-06-19 13:14:54,632</time>
      </trkpt>
      <trkpt lat="43.21249" lon="5.43045">
        <ele>251.60138</ele>
        <time>2019-06-19 13:14:55,622</time>
      </trkpt>
      <trkpt lat="43.21248" lon="5.43043">
        <ele>253.30597</ele>
        <time>2019-06-19 13:14:56,622</time>
      </trkpt>
      <trkpt lat="43.21248" lon="5.43041">
        <ele>248.6347</ele>
        <time>2019-06-19 13:14:57,633</time>
      </trkpt>
      <trkpt lat="43.21248" lon="5.4304">
        <ele>249.9057</ele>
        <time>2019-06-19 13:14:58,626</time>
      </trkpt>
      <trkpt lat="43.21249" lon="5.43039">
        <ele>246.49811</ele>
        <time>2019-06-19 13:14:59,634</time>
      </trkpt>
      <trkpt lat="43.2125" lon="5.43036">
        <ele>246.16785</ele>
        <time>2019-06-19 13:15:01,622</time>
      </trkpt>
      <trkpt lat="43.2125" lon="5.43035">
        <ele>246.28223</ele>
        <time>2019-06-19 13:15:02,623</time>
      </trkpt>
      <trkpt lat="43.21251" lon="5.43032">
        <ele>244.61475</ele>
        <time>2019-06-19 13:15:04,628</time>
      </trkpt>
      <trkpt lat="43.21252" lon="5.43031">
        <ele>244.67438</ele>
        <time>2019-06-19 13:15:05,625</time>
      </trkpt>
      <trkpt lat="43.21254" lon="5.4303">
        <ele>244.82861</ele>
        <time>2019-06-19 13:15:06,627</time>
      </trkpt>
      <trkpt lat="43.21254" lon="5.43029">
        <ele>244.50854</ele>
        <time>2019-06-19 13:15:08,621</time>
      </trkpt>
      <trkpt lat="43.21255" lon="5.43028">
        <ele>245.40149</ele>
        <time>2019-06-19 13:15:10,628</time>
      </trkpt>
      <trkpt lat="43.21256" lon="5.43027">
        <ele>244.0774</ele>
        <time>2019-06-19 13:15:11,626</time>
      </trkpt>
      <trkpt lat="43.21258" lon="5.43027">
        <ele>241.42969</ele>
        <time>2019-06-19 13:15:12,640</time>
      </trkpt>
      <trkpt lat="43.21259" lon="5.43027">
        <ele>239.9748</ele>
        <time>2019-06-19 13:15:13,629</time>
      </trkpt>
      <trkpt lat="43.2126" lon="5.43025">
        <ele>237.5481</ele>
        <time>2019-06-19 13:15:15,627</time>
      </trkpt>
      <trkpt lat="43.2126" lon="5.43024">
        <ele>237.88214</ele>
        <time>2019-06-19 13:15:16,628</time>
      </trkpt>
      <trkpt lat="43.21267" lon="5.43024">
        <ele>238.88269</ele>
        <time>2019-06-19 13:15:24,658</time>
      </trkpt>
      <trkpt lat="43.21268" lon="5.43023">
        <ele>237.42432</ele>
        <time>2019-06-19 13:15:25,629</time>
      </trkpt>
      <trkpt lat="43.21269" lon="5.43022">
        <ele>237.30359</ele>
        <time>2019-06-19 13:15:26,636</time>
      </trkpt>
      <trkpt lat="43.2127" lon="5.43022">
        <ele>235.4726</ele>
        <time>2019-06-19 13:15:27,623</time>
      </trkpt>
      <trkpt lat="43.21272" lon="5.43022">
        <ele>236.69525</ele>
        <time>2019-06-19 13:15:29,622</time>
      </trkpt>
      <trkpt lat="43.21273" lon="5.43022">
        <ele>235.81592</ele>
        <time>2019-06-19 13:15:30,631</time>
      </trkpt>
      <trkpt lat="43.21275" lon="5.43022">
        <ele>238.49805</ele>
        <time>2019-06-19 13:15:32,622</time>
      </trkpt>
      <trkpt lat="43.21276" lon="5.43021">
        <ele>239.80884</ele>
        <time>2019-06-19 13:15:33,621</time>
      </trkpt>
      <trkpt lat="43.21276" lon="5.43021">
        <ele>240.46283</ele>
        <time>2019-06-19 13:15:34,630</time>
      </trkpt>
      <trkpt lat="43.21277" lon="5.43021">
        <ele>240.76007</ele>
        <time>2019-06-19 13:15:35,628</time>
      </trkpt>
      <trkpt lat="43.21278" lon="5.43021">
        <ele>241.10388</ele>
        <time>2019-06-19 13:15:36,626</time>
      </trkpt>
      <trkpt lat="43.21279" lon="5.43022">
        <ele>240.62793</ele>
        <time>2019-06-19 13:15:37,813</time>
      </trkpt>
      <trkpt lat="43.21283" lon="5.43023">
        <ele>240.66772</ele>
        <time>2019-06-19 13:15:39,635</time>
      </trkpt>
      <trkpt lat="43.21285" lon="5.43023">
        <ele>242.3468</ele>
        <time>2019-06-19 13:15:40,640</time>
      </trkpt>
      <trkpt lat="43.21287" lon="5.43023">
        <ele>242.76459</ele>
        <time>2019-06-19 13:15:41,627</time>
      </trkpt>
      <trkpt lat="43.21289" lon="5.43024">
        <ele>243.3357</ele>
        <time>2019-06-19 13:15:42,640</time>
      </trkpt>
      <trkpt lat="43.21296" lon="5.4302">
        <ele>240.66772</ele>
        <time>2019-06-19 13:15:47,628</time>
      </trkpt>
      <trkpt lat="43.21297" lon="5.43017">
        <ele>244.27515</ele>
        <time>2019-06-19 13:15:50,627</time>
      </trkpt>
      <trkpt lat="43.21299" lon="5.43016">
        <ele>244.94873</ele>
        <time>2019-06-19 13:15:51,625</time>
      </trkpt>
      <trkpt lat="43.21301" lon="5.43014">
        <ele>245.89252</ele>
        <time>2019-06-19 13:15:52,623</time>
      </trkpt>
      <trkpt lat="43.21302" lon="5.43012">
        <ele>245.38232</ele>
        <time>2019-06-19 13:15:53,624</time>
      </trkpt>
      <trkpt lat="43.21303" lon="5.43011">
        <ele>243.56104</ele>
        <time>2019-06-19 13:15:54,628</time>
      </trkpt>
      <trkpt lat="43.21308" lon="5.43007">
        <ele>246.59137</ele>
        <time>2019-06-19 13:15:59,625</time>
      </trkpt>
      <trkpt lat="43.21309" lon="5.43005">
        <ele>247.51453</ele>
        <time>2019-06-19 13:16:00,624</time>
      </trkpt>
      <trkpt lat="43.21311" lon="5.43002">
        <ele>244.26251</ele>
        <time>2019-06-19 13:16:03,635</time>
      </trkpt>
      <trkpt lat="43.21312" lon="5.43">
        <ele>243.5954</ele>
        <time>2019-06-19 13:16:04,628</time>
      </trkpt>
      <trkpt lat="43.21314" lon="5.42999">
        <ele>244.19727</ele>
        <time>2019-06-19 13:16:05,627</time>
      </trkpt>
      <trkpt lat="43.21315" lon="5.42997">
        <ele>246.14441</ele>
        <time>2019-06-19 13:16:06,625</time>
      </trkpt>
      <trkpt lat="43.21316" lon="5.42995">
        <ele>246.22467</ele>
        <time>2019-06-19 13:16:07,619</time>
      </trkpt>
      <trkpt lat="43.21317" lon="5.42994">
        <ele>242.94586</ele>
        <time>2019-06-19 13:16:08,642</time>
      </trkpt>
      <trkpt lat="43.21319" lon="5.42991">
        <ele>243.88281</ele>
        <time>2019-06-19 13:16:11,637</time>
      </trkpt>
      <trkpt lat="43.21319" lon="5.4299">
        <ele>244.87598</ele>
        <time>2019-06-19 13:16:12,630</time>
      </trkpt>
      <trkpt lat="43.21319" lon="5.42991">
        <ele>244.76575</ele>
        <time>2019-06-19 13:16:13,640</time>
      </trkpt>
      <trkpt lat="43.2132" lon="5.4299">
        <ele>246.0531</ele>
        <time>2019-06-19 13:16:15,634</time>
      </trkpt>
      <trkpt lat="43.21321" lon="5.42988">
        <ele>240.15076</ele>
        <time>2019-06-19 13:16:16,629</time>
      </trkpt>
      <trkpt lat="43.21321" lon="5.42986">
        <ele>242.94586</ele>
        <time>2019-06-19 13:16:17,623</time>
      </trkpt>
      <trkpt lat="43.21321" lon="5.42984">
        <ele>243.32898</ele>
        <time>2019-06-19 13:16:20,633</time>
      </trkpt>
      <trkpt lat="43.21322" lon="5.4298">
        <ele>244.00562</ele>
        <time>2019-06-19 13:16:22,637</time>
      </trkpt>
      <trkpt lat="43.21323" lon="5.4298">
        <ele>243.69434</ele>
        <time>2019-06-19 13:16:23,631</time>
      </trkpt>
      <trkpt lat="43.21323" lon="5.42978">
        <ele>244.1449</ele>
        <time>2019-06-19 13:16:25,633</time>
      </trkpt>
      <trkpt lat="43.21324" lon="5.42969">
        <ele>244.07025</ele>
        <time>2019-06-19 13:16:30,628</time>
      </trkpt>
      <trkpt lat="43.21325" lon="5.42965">
        <ele>245.47607</ele>
        <time>2019-06-19 13:16:40,627</time>
      </trkpt>
      <trkpt lat="43.21326" lon="5.42963">
        <ele>245.06909</ele>
        <time>2019-06-19 13:16:41,646</time>
      </trkpt>
      <trkpt lat="43.21327" lon="5.42962">
        <ele>245.12482</ele>
        <time>2019-06-19 13:16:42,629</time>
      </trkpt>
      <trkpt lat="43.21327" lon="5.42961">
        <ele>245.5918</ele>
        <time>2019-06-19 13:16:43,630</time>
      </trkpt>
      <trkpt lat="43.21328" lon="5.42959">
        <ele>245.62762</ele>
        <time>2019-06-19 13:16:45,635</time>
      </trkpt>
      <trkpt lat="43.2133" lon="5.42958">
        <ele>244.48279</ele>
        <time>2019-06-19 13:16:46,629</time>
      </trkpt>
      <trkpt lat="43.21331" lon="5.42957">
        <ele>244.47327</ele>
        <time>2019-06-19 13:16:47,629</time>
      </trkpt>
      <trkpt lat="43.21332" lon="5.42956">
        <ele>244.94977</ele>
        <time>2019-06-19 13:16:48,631</time>
      </trkpt>
      <trkpt lat="43.21334" lon="5.42955">
        <ele>243.50684</ele>
        <time>2019-06-19 13:16:51,632</time>
      </trkpt>
      <trkpt lat="43.21335" lon="5.42954">
        <ele>244.13672</ele>
        <time>2019-06-19 13:16:52,636</time>
      </trkpt>
      <trkpt lat="43.21337" lon="5.42954">
        <ele>245.69849</ele>
        <time>2019-06-19 13:16:53,635</time>
      </trkpt>
      <trkpt lat="43.21339" lon="5.42953">
        <ele>245.69885</ele>
        <time>2019-06-19 13:16:54,627</time>
      </trkpt>
      <trkpt lat="43.21341" lon="5.42953">
        <ele>246.68695</ele>
        <time>2019-06-19 13:16:55,630</time>
      </trkpt>
      <trkpt lat="43.21343" lon="5.42953">
        <ele>245.21901</ele>
        <time>2019-06-19 13:16:57,622</time>
      </trkpt>
      <trkpt lat="43.21343" lon="5.42952">
        <ele>245.67804</ele>
        <time>2019-06-19 13:16:58,633</time>
      </trkpt>
      <trkpt lat="43.21345" lon="5.42951">
        <ele>245.72101</ele>
        <time>2019-06-19 13:16:59,627</time>
      </trkpt>
      <trkpt lat="43.21346" lon="5.42949">
        <ele>245.86908</ele>
        <time>2019-06-19 13:17:00,628</time>
      </trkpt>
      <trkpt lat="43.21348" lon="5.42947">
        <ele>245.44824</ele>
        <time>2019-06-19 13:17:02,626</time>
      </trkpt>
      <trkpt lat="43.21349" lon="5.42947">
        <ele>245.06476</ele>
        <time>2019-06-19 13:17:03,628</time>
      </trkpt>
      <trkpt lat="43.21351" lon="5.42947">
        <ele>244.16254</ele>
        <time>2019-06-19 13:17:04,644</time>
      </trkpt>
      <trkpt lat="43.21354" lon="5.4294">
        <ele>242.52356</ele>
        <time>2019-06-19 13:17:10,627</time>
      </trkpt>
      <trkpt lat="43.21356" lon="5.42938">
        <ele>242.70654</ele>
        <time>2019-06-19 13:17:11,623</time>
      </trkpt>
      <trkpt lat="43.21357" lon="5.42937">
        <ele>242.57288</ele>
        <time>2019-06-19 13:17:12,623</time>
      </trkpt>
      <trkpt lat="43.21358" lon="5.42936">
        <ele>242.21063</ele>
        <time>2019-06-19 13:17:13,623</time>
      </trkpt>
      <trkpt lat="43.21358" lon="5.42934">
        <ele>243.26398</ele>
        <time>2019-06-19 13:17:14,623</time>
      </trkpt>
      <trkpt lat="43.21359" lon="5.42934">
        <ele>245.25513</ele>
        <time>2019-06-19 13:17:15,628</time>
      </trkpt>
      <trkpt lat="43.21359" lon="5.42933">
        <ele>245.3302</ele>
        <time>2019-06-19 13:17:16,623</time>
      </trkpt>
      <trkpt lat="43.2136" lon="5.42931">
        <ele>243.98883</ele>
        <time>2019-06-19 13:17:18,646</time>
      </trkpt>
      <trkpt lat="43.2136" lon="5.4293">
        <ele>244.01709</ele>
        <time>2019-06-19 13:17:19,636</time>
      </trkpt>
      <trkpt lat="43.21361" lon="5.42929">
        <ele>243.27075</ele>
        <time>2019-06-19 13:17:20,626</time>
      </trkpt>
      <trkpt lat="43.21361" lon="5.42927">
        <ele>241.36926</ele>
        <time>2019-06-19 13:17:21,623</time>
      </trkpt>
      <trkpt lat="43.21362" lon="5.42925">
        <ele>240.12573</ele>
        <time>2019-06-19 13:17:22,626</time>
      </trkpt>
      <trkpt lat="43.21361" lon="5.42908">
        <ele>236.13635</ele>
        <time>2019-06-19 13:17:32,622</time>
      </trkpt>
      <trkpt lat="43.21361" lon="5.42905">
        <ele>238.46661</ele>
        <time>2019-06-19 13:17:34,621</time>
      </trkpt>
      <trkpt lat="43.21361" lon="5.42902">
        <ele>238.44287</ele>
        <time>2019-06-19 13:17:38,623</time>
      </trkpt>
      <trkpt lat="43.21361" lon="5.42898">
        <ele>236.95099</ele>
        <time>2019-06-19 13:17:41,619</time>
      </trkpt>
      <trkpt lat="43.21361" lon="5.42897">
        <ele>243.34259</ele>
        <time>2019-06-19 13:17:42,622</time>
      </trkpt>
      <trkpt lat="43.21361" lon="5.42895">
        <ele>237.88019</ele>
        <time>2019-06-19 13:17:43,619</time>
      </trkpt>
      <trkpt lat="43.21362" lon="5.42888">
        <ele>239.6059</ele>
        <time>2019-06-19 13:17:48,626</time>
      </trkpt>
      <trkpt lat="43.21363" lon="5.42885">
        <ele>240.12103</ele>
        <time>2019-06-19 13:17:50,632</time>
      </trkpt>
      <trkpt lat="43.21365" lon="5.42881">
        <ele>236.49573</ele>
        <time>2019-06-19 13:17:53,629</time>
      </trkpt>
      <trkpt lat="43.21365" lon="5.42878">
        <ele>239.32593</ele>
        <time>2019-06-19 13:17:54,622</time>
      </trkpt>
      <trkpt lat="43.21366" lon="5.42873">
        <ele>240.25531</ele>
        <time>2019-06-19 13:17:56,629</time>
      </trkpt>
      <trkpt lat="43.21366" lon="5.42871">
        <ele>239.79272</ele>
        <time>2019-06-19 13:17:57,627</time>
      </trkpt>
      <trkpt lat="43.21366" lon="5.42869">
        <ele>240.89874</ele>
        <time>2019-06-19 13:17:59,626</time>
      </trkpt>
      <trkpt lat="43.21365" lon="5.42859">
        <ele>238.72534</ele>
        <time>2019-06-19 13:18:06,627</time>
      </trkpt>
      <trkpt lat="43.21366" lon="5.42858">
        <ele>240.41516</ele>
        <time>2019-06-19 13:18:07,634</time>
      </trkpt>
      <trkpt lat="43.21364" lon="5.42854">
        <ele>238.9491</ele>
        <time>2019-06-19 13:18:11,626</time>
      </trkpt>
      <trkpt lat="43.21363" lon="5.42853">
        <ele>240.38367</ele>
        <time>2019-06-19 13:18:12,633</time>
      </trkpt>
      <trkpt lat="43.21362" lon="5.42852">
        <ele>238.86066</ele>
        <time>2019-06-19 13:18:13,629</time>
      </trkpt>
      <trkpt lat="43.21361" lon="5.42851">
        <ele>238.05933</ele>
        <time>2019-06-19 13:18:14,626</time>
      </trkpt>
      <trkpt lat="43.21357" lon="5.42846">
        <ele>239.60059</ele>
        <time>2019-06-19 13:18:22,649</time>
      </trkpt>
      <trkpt lat="43.21356" lon="5.42845">
        <ele>238.57239</ele>
        <time>2019-06-19 13:18:23,629</time>
      </trkpt>
      <trkpt lat="43.21353" lon="5.42844">
        <ele>238.80695</ele>
        <time>2019-06-19 13:18:26,634</time>
      </trkpt>
      <trkpt lat="43.2135" lon="5.42844">
        <ele>239.31775</ele>
        <time>2019-06-19 13:18:28,629</time>
      </trkpt>
      <trkpt lat="43.21347" lon="5.42841">
        <ele>240.8241</ele>
        <time>2019-06-19 13:18:31,626</time>
      </trkpt>
      <trkpt lat="43.21345" lon="5.42838">
        <ele>237.33777</ele>
        <time>2019-06-19 13:18:33,633</time>
      </trkpt>
      <trkpt lat="43.21342" lon="5.4283">
        <ele>235.19983</ele>
        <time>2019-06-19 13:18:42,630</time>
      </trkpt>
      <trkpt lat="43.21342" lon="5.42827">
        <ele>234.21399</ele>
        <time>2019-06-19 13:18:44,623</time>
      </trkpt>
      <trkpt lat="43.21335" lon="5.42822">
        <ele>234.88531</ele>
        <time>2019-06-19 13:18:54,620</time>
      </trkpt>
      <trkpt lat="43.21335" lon="5.42821">
        <ele>233.18567</ele>
        <time>2019-06-19 13:18:57,630</time>
      </trkpt>
      <trkpt lat="43.21334" lon="5.42821">
        <ele>234.25372</ele>
        <time>2019-06-19 13:18:58,638</time>
      </trkpt>
      <trkpt lat="43.21333" lon="5.42821">
        <ele>235.41394</ele>
        <time>2019-06-19 13:18:59,628</time>
      </trkpt>
      <trkpt lat="43.2133" lon="5.42821">
        <ele>233.37457</ele>
        <time>2019-06-19 13:19:03,628</time>
      </trkpt>
      <trkpt lat="43.21329" lon="5.42821">
        <ele>232.40393</ele>
        <time>2019-06-19 13:19:05,628</time>
      </trkpt>
      <trkpt lat="43.21328" lon="5.42818">
        <ele>225.99408</ele>
        <time>2019-06-19 13:19:10,638</time>
      </trkpt>
      <trkpt lat="43.21327" lon="5.42817">
        <ele>224.79602</ele>
        <time>2019-06-19 13:19:11,683</time>
      </trkpt>
      <trkpt lat="43.21326" lon="5.42817">
        <ele>226.60303</ele>
        <time>2019-06-19 13:19:12,632</time>
      </trkpt>
      <trkpt lat="43.21325" lon="5.42815">
        <ele>225.67401</ele>
        <time>2019-06-19 13:19:13,642</time>
      </trkpt>
      <trkpt lat="43.21323" lon="5.42812">
        <ele>228.10767</ele>
        <time>2019-06-19 13:19:15,626</time>
      </trkpt>
      <trkpt lat="43.21319" lon="5.42808">
        <ele>230.24377</ele>
        <time>2019-06-19 13:19:18,627</time>
      </trkpt>
      <trkpt lat="43.21318" lon="5.42806">
        <ele>225.99408</ele>
        <time>2019-06-19 13:19:19,622</time>
      </trkpt>
      <trkpt lat="43.21316" lon="5.42805">
        <ele>231.49481</ele>
        <time>2019-06-19 13:19:20,634</time>
      </trkpt>
      <trkpt lat="43.21316" lon="5.42802">
        <ele>234.53094</ele>
        <time>2019-06-19 13:19:24,620</time>
      </trkpt>
      <trkpt lat="43.21315" lon="5.42801">
        <ele>234.28998</ele>
        <time>2019-06-19 13:19:25,624</time>
      </trkpt>
      <trkpt lat="43.21314" lon="5.428">
        <ele>233.70074</ele>
        <time>2019-06-19 13:19:26,629</time>
      </trkpt>
      <trkpt lat="43.21313" lon="5.42799">
        <ele>234.0437</ele>
        <time>2019-06-19 13:19:27,622</time>
      </trkpt>
      <trkpt lat="43.21312" lon="5.42798">
        <ele>234.53552</ele>
        <time>2019-06-19 13:19:28,629</time>
      </trkpt>
      <trkpt lat="43.2131" lon="5.42796">
        <ele>234.61108</ele>
        <time>2019-06-19 13:19:30,628</time>
      </trkpt>
      <trkpt lat="43.2131" lon="5.42794">
        <ele>233.05957</ele>
        <time>2019-06-19 13:19:31,623</time>
      </trkpt>
      <trkpt lat="43.21309" lon="5.42792">
        <ele>232.71936</ele>
        <time>2019-06-19 13:19:33,621</time>
      </trkpt>
      <trkpt lat="43.21309" lon="5.42791">
        <ele>231.0354</ele>
        <time>2019-06-19 13:19:34,622</time>
      </trkpt>
      <trkpt lat="43.21309" lon="5.4279">
        <ele>231.07556</ele>
        <time>2019-06-19 13:19:35,629</time>
      </trkpt>
      <trkpt lat="43.21308" lon="5.42787">
        <ele>230.47064</ele>
        <time>2019-06-19 13:19:37,627</time>
      </trkpt>
      <trkpt lat="43.21307" lon="5.42786">
        <ele>230.71692</ele>
        <time>2019-06-19 13:19:38,631</time>
      </trkpt>
      <trkpt lat="43.21306" lon="5.42783">
        <ele>230.98773</ele>
        <time>2019-06-19 13:19:42,625</time>
      </trkpt>
      <trkpt lat="43.21306" lon="5.42782">
        <ele>231.7384</ele>
        <time>2019-06-19 13:19:46,621</time>
      </trkpt>
      <trkpt lat="43.21305" lon="5.42778">
        <ele>230.54504</ele>
        <time>2019-06-19 13:19:48,831</time>
      </trkpt>
      <trkpt lat="43.21305" lon="5.42776">
        <ele>231.0398</ele>
        <time>2019-06-19 13:19:50,626</time>
      </trkpt>
      <trkpt lat="43.21305" lon="5.42775">
        <ele>229.83873</ele>
        <time>2019-06-19 13:19:51,625</time>
      </trkpt>
      <trkpt lat="43.21305" lon="5.42772">
        <ele>226.55975</ele>
        <time>2019-06-19 13:19:54,640</time>
      </trkpt>
      <trkpt lat="43.21304" lon="5.42768">
        <ele>224.72546</ele>
        <time>2019-06-19 13:19:58,628</time>
      </trkpt>
      <trkpt lat="43.21302" lon="5.42768">
        <ele>225.45093</ele>
        <time>2019-06-19 13:20:00,627</time>
      </trkpt>
      <trkpt lat="43.21298" lon="5.4277">
        <ele>224.52344</ele>
        <time>2019-06-19 13:20:04,629</time>
      </trkpt>
      <trkpt lat="43.21295" lon="5.42771">
        <ele>225.14642</ele>
        <time>2019-06-19 13:20:09,631</time>
      </trkpt>
      <trkpt lat="43.21294" lon="5.42771">
        <ele>224.52246</ele>
        <time>2019-06-19 13:20:17,633</time>
      </trkpt>
      <trkpt lat="43.21293" lon="5.42771">
        <ele>259.12012</ele>
        <time>2019-06-19 13:20:20,586</time>
      </trkpt>
      <trkpt lat="43.21293" lon="5.4277">
        <ele>250.69019</ele>
        <time>2019-06-19 13:20:21,599</time>
      </trkpt>
      <trkpt lat="43.21291" lon="5.42767">
        <ele>231.93658</ele>
        <time>2019-06-19 13:20:26,575</time>
      </trkpt>
      <trkpt lat="43.21289" lon="5.42762">
        <ele>224.62231</ele>
        <time>2019-06-19 13:20:33,575</time>
      </trkpt>
      <trkpt lat="43.21288" lon="5.42762">
        <ele>224.06781</ele>
        <time>2019-06-19 13:20:38,586</time>
      </trkpt>
      <trkpt lat="43.21287" lon="5.42759">
        <ele>217.77466</ele>
        <time>2019-06-19 13:20:45,593</time>
      </trkpt>
      <trkpt lat="43.21286" lon="5.4276">
        <ele>218.24469</ele>
        <time>2019-06-19 13:20:46,581</time>
      </trkpt>
      <trkpt lat="43.21286" lon="5.42761">
        <ele>217.12103</ele>
        <time>2019-06-19 13:20:48,592</time>
      </trkpt>
      <trkpt lat="43.21285" lon="5.42761">
        <ele>214.89941</ele>
        <time>2019-06-19 13:20:49,594</time>
      </trkpt>
      <trkpt lat="43.21284" lon="5.42762">
        <ele>215.14728</ele>
        <time>2019-06-19 13:20:53,186</time>
      </trkpt>
      <trkpt lat="43.21283" lon="5.42762">
        <ele>213.74304</ele>
        <time>2019-06-19 13:21:08,192</time>
      </trkpt>
      <trkpt lat="43.21282" lon="5.42763">
        <ele>214.30225</ele>
        <time>2019-06-19 13:21:09,187</time>
      </trkpt>
      <trkpt lat="43.21281" lon="5.42763">
        <ele>214.86993</ele>
        <time>2019-06-19 13:21:10,186</time>
      </trkpt>
      <trkpt lat="43.2128" lon="5.42763">
        <ele>216.40588</ele>
        <time>2019-06-19 13:21:11,183</time>
      </trkpt>
      <trkpt lat="43.21279" lon="5.42764">
        <ele>214.47919</ele>
        <time>2019-06-19 13:21:12,186</time>
      </trkpt>
      <trkpt lat="43.21278" lon="5.42764">
        <ele>216.55841</ele>
        <time>2019-06-19 13:21:13,192</time>
      </trkpt>
      <trkpt lat="43.21277" lon="5.42763">
        <ele>216.1134</ele>
        <time>2019-06-19 13:21:16,192</time>
      </trkpt>
      <trkpt lat="43.21276" lon="5.42763">
        <ele>215.74554</ele>
        <time>2019-06-19 13:21:18,186</time>
      </trkpt>
      <trkpt lat="43.21276" lon="5.42762">
        <ele>214.62695</ele>
        <time>2019-06-19 13:21:19,192</time>
      </trkpt>
      <trkpt lat="43.21275" lon="5.42759">
        <ele>214.73389</ele>
        <time>2019-06-19 13:21:21,183</time>
      </trkpt>
      <trkpt lat="43.21275" lon="5.42758">
        <ele>216.55841</ele>
        <time>2019-06-19 13:21:22,191</time>
      </trkpt>
      <trkpt lat="43.21276" lon="5.42755">
        <ele>216.0904</ele>
        <time>2019-06-19 13:21:25,207</time>
      </trkpt>
      <trkpt lat="43.21274" lon="5.42749">
        <ele>217.5664</ele>
        <time>2019-06-19 13:21:31,190</time>
      </trkpt>
      <trkpt lat="43.21274" lon="5.42749">
        <ele>216.86383</ele>
        <time>2019-06-19 13:21:32,199</time>
      </trkpt>
      <trkpt lat="43.21274" lon="5.42749">
        <ele>214.49121</ele>
        <time>2019-06-19 13:21:33,198</time>
      </trkpt>
      <trkpt lat="43.21276" lon="5.42748">
        <ele>217.71881</ele>
        <time>2019-06-19 13:21:39,201</time>
      </trkpt>
      <trkpt lat="43.21275" lon="5.42747">
        <ele>216.54169</ele>
        <time>2019-06-19 13:21:57,194</time>
      </trkpt>
      <trkpt lat="43.21275" lon="5.42747">
        <ele>229.77966</ele>
        <time>2019-06-19 13:21:58,192</time>
      </trkpt>
      <trkpt lat="43.21276" lon="5.42745">
        <ele>215.34436</ele>
        <time>2019-06-19 13:22:22,343</time>
      </trkpt>
      <trkpt lat="43.21278" lon="5.4274">
        <ele>211.37518</ele>
        <time>2019-06-19 13:22:49,186</time>
      </trkpt>
      <trkpt lat="43.21279" lon="5.42739">
        <ele>211.57599</ele>
        <time>2019-06-19 13:22:50,197</time>
      </trkpt>
      <trkpt lat="43.21279" lon="5.42738">
        <ele>212.50024</ele>
        <time>2019-06-19 13:22:51,213</time>
      </trkpt>
      <trkpt lat="43.21279" lon="5.42737">
        <ele>210.89978</ele>
        <time>2019-06-19 13:22:52,187</time>
      </trkpt>
      <trkpt lat="43.21279" lon="5.42736">
        <ele>210.9024</ele>
        <time>2019-06-19 13:22:53,360</time>
      </trkpt>
      <trkpt lat="43.21281" lon="5.42737">
        <ele>210.5686</ele>
        <time>2019-06-19 13:22:55,200</time>
      </trkpt>
      <trkpt lat="43.21283" lon="5.42738">
        <ele>209.14996</ele>
        <time>2019-06-19 13:22:58,199</time>
      </trkpt>
      <trkpt lat="43.21283" lon="5.42737">
        <ele>209.01593</ele>
        <time>2019-06-19 13:22:59,225</time>
      </trkpt>
      <trkpt lat="43.21284" lon="5.42737">
        <ele>208.9325</ele>
        <time>2019-06-19 13:23:00,206</time>
      </trkpt>
      <trkpt lat="43.21284" lon="5.42736">
        <ele>209</ele>
        <time>2019-06-19 13:23:01,202</time>
      </trkpt>
      <trkpt lat="43.21284" lon="5.42735">
        <ele>208.12494</ele>
        <time>2019-06-19 13:23:02,188</time>
      </trkpt>
      <trkpt lat="43.21284" lon="5.42735">
        <ele>209.23785</ele>
        <time>2019-06-19 13:23:03,189</time>
      </trkpt>
      <trkpt lat="43.21285" lon="5.42734">
        <ele>209.26282</ele>
        <time>2019-06-19 13:23:04,192</time>
      </trkpt>
      <trkpt lat="43.21286" lon="5.42733">
        <ele>210.53943</ele>
        <time>2019-06-19 13:23:07,188</time>
      </trkpt>
      <trkpt lat="43.21285" lon="5.42733">
        <ele>204.27954</ele>
        <time>2019-06-19 13:23:27,195</time>
      </trkpt>
      <trkpt lat="43.21285" lon="5.42733">
        <ele>203.8808</ele>
        <time>2019-06-19 13:23:42,204</time>
      </trkpt>
      <trkpt lat="43.21285" lon="5.42732">
        <ele>203.63068</ele>
        <time>2019-06-19 13:23:43,193</time>
      </trkpt>
      <trkpt lat="43.21285" lon="5.42731">
        <ele>202.54358</ele>
        <time>2019-06-19 13:23:44,262</time>
      </trkpt>
      <trkpt lat="43.21284" lon="5.42728">
        <ele>202.57239</ele>
        <time>2019-06-19 13:23:51,232</time>
      </trkpt>
      <trkpt lat="43.21284" lon="5.42728">
        <ele>203.55676</ele>
        <time>2019-06-19 13:23:52,198</time>
      </trkpt>
      <trkpt lat="43.21283" lon="5.42727">
        <ele>202.32446</ele>
        <time>2019-06-19 13:23:53,182</time>
      </trkpt>
      <trkpt lat="43.21282" lon="5.42727">
        <ele>202.11768</ele>
        <time>2019-06-19 13:23:55,022</time>
      </trkpt>
      <trkpt lat="43.21282" lon="5.42727">
        <ele>200.69196</ele>
        <time>2019-06-19 13:23:56,029</time>
      </trkpt>
      <trkpt lat="43.21282" lon="5.42728">
        <ele>200.42474</ele>
        <time>2019-06-19 13:23:57,023</time>
      </trkpt>
      <trkpt lat="43.21282" lon="5.42728">
        <ele>200.34125</ele>
        <time>2019-06-19 13:23:59,037</time>
      </trkpt>
      <trkpt lat="43.21282" lon="5.42727">
        <ele>199.95728</ele>
        <time>2019-06-19 13:24:09,019</time>
      </trkpt>
      <trkpt lat="43.21281" lon="5.42726">
        <ele>198.65106</ele>
        <time>2019-06-19 13:24:10,037</time>
      </trkpt>
      <trkpt lat="43.21281" lon="5.42726">
        <ele>196.76282</ele>
        <time>2019-06-19 13:24:11,016</time>
      </trkpt>
      <trkpt lat="43.21281" lon="5.42725">
        <ele>198.08228</ele>
        <time>2019-06-19 13:24:12,017</time>
      </trkpt>
      <trkpt lat="43.2128" lon="5.42725">
        <ele>197.97742</ele>
        <time>2019-06-19 13:24:14,015</time>
      </trkpt>
      <trkpt lat="43.21279" lon="5.42724">
        <ele>196.77307</ele>
        <time>2019-06-19 13:24:15,023</time>
      </trkpt>
      <trkpt lat="43.21279" lon="5.42725">
        <ele>196.6734</ele>
        <time>2019-06-19 13:24:16,029</time>
      </trkpt>
      <trkpt lat="43.21279" lon="5.42724">
        <ele>197.06177</ele>
        <time>2019-06-19 13:24:17,080</time>
      </trkpt>
      <trkpt lat="43.2128" lon="5.42723">
        <ele>197.45276</ele>
        <time>2019-06-19 13:24:18,248</time>
      </trkpt>
      <trkpt lat="43.21279" lon="5.42722">
        <ele>197.05365</ele>
        <time>2019-06-19 13:24:22,023</time>
      </trkpt>
      <trkpt lat="43.21279" lon="5.42722">
        <ele>197.68921</ele>
        <time>2019-06-19 13:24:23,024</time>
      </trkpt>
      <trkpt lat="43.21279" lon="5.42722">
        <ele>197.16425</ele>
        <time>2019-06-19 13:24:24,019</time>
      </trkpt>
      <trkpt lat="43.21278" lon="5.42722">
        <ele>196.4466</ele>
        <time>2019-06-19 13:24:25,032</time>
      </trkpt>
      <trkpt lat="43.21277" lon="5.42721">
        <ele>196.7987</ele>
        <time>2019-06-19 13:24:26,021</time>
      </trkpt>
      <trkpt lat="43.21277" lon="5.42721">
        <ele>197.4112</ele>
        <time>2019-06-19 13:24:27,031</time>
      </trkpt>
      <trkpt lat="43.21277" lon="5.42721">
        <ele>197.52533</ele>
        <time>2019-06-19 13:24:28,030</time>
      </trkpt>
      <trkpt lat="43.21276" lon="5.4272">
        <ele>198.50488</ele>
        <time>2019-06-19 13:24:30,026</time>
      </trkpt>
      <trkpt lat="43.21276" lon="5.4272">
        <ele>198.3363</ele>
        <time>2019-06-19 13:24:31,021</time>
      </trkpt>
      <trkpt lat="43.21277" lon="5.4272">
        <ele>196.92554</ele>
        <time>2019-06-19 13:24:33,025</time>
      </trkpt>
      <trkpt lat="43.21277" lon="5.42719">
        <ele>196.98053</ele>
        <time>2019-06-19 13:24:35,027</time>
      </trkpt>
      <trkpt lat="43.21273" lon="5.42714">
        <ele>196.18195</ele>
        <time>2019-06-19 13:24:42,027</time>
      </trkpt>
      <trkpt lat="43.21273" lon="5.42714">
        <ele>195.39197</ele>
        <time>2019-06-19 13:24:43,030</time>
      </trkpt>
      <trkpt lat="43.21272" lon="5.42714">
        <ele>195.46863</ele>
        <time>2019-06-19 13:24:44,018</time>
      </trkpt>
      <trkpt lat="43.21271" lon="5.42714">
        <ele>194.84778</ele>
        <time>2019-06-19 13:24:45,021</time>
      </trkpt>
      <trkpt lat="43.2127" lon="5.42713">
        <ele>195.01282</ele>
        <time>2019-06-19 13:24:46,022</time>
      </trkpt>
      <trkpt lat="43.2127" lon="5.42713">
        <ele>194.33643</ele>
        <time>2019-06-19 13:24:47,230</time>
      </trkpt>
      <trkpt lat="43.21268" lon="5.42712">
        <ele>194.09491</ele>
        <time>2019-06-19 13:24:49,017</time>
      </trkpt>
      <trkpt lat="43.21267" lon="5.42712">
        <ele>193.81714</ele>
        <time>2019-06-19 13:24:51,024</time>
      </trkpt>
      <trkpt lat="43.21265" lon="5.42712">
        <ele>219.06659</ele>
        <time>2019-06-19 13:24:53,033</time>
      </trkpt>
      <trkpt lat="43.21264" lon="5.42711">
        <ele>210.75226</ele>
        <time>2019-06-19 13:24:54,500</time>
      </trkpt>
      <trkpt lat="43.21262" lon="5.4271">
        <ele>204.08203</ele>
        <time>2019-06-19 13:24:55,506</time>
      </trkpt>
      <trkpt lat="43.21259" lon="5.42708">
        <ele>201.43408</ele>
        <time>2019-06-19 13:24:59,485</time>
      </trkpt>
      <trkpt lat="43.21258" lon="5.42708">
        <ele>202.32837</ele>
        <time>2019-06-19 13:25:00,490</time>
      </trkpt>
      <trkpt lat="43.21258" lon="5.42706">
        <ele>204.18018</ele>
        <time>2019-06-19 13:25:01,497</time>
      </trkpt>
      <trkpt lat="43.21257" lon="5.42706">
        <ele>205.85016</ele>
        <time>2019-06-19 13:25:02,494</time>
      </trkpt>
      <trkpt lat="43.21257" lon="5.42704">
        <ele>199.0971</ele>
        <time>2019-06-19 13:25:09,488</time>
      </trkpt>
      <trkpt lat="43.21256" lon="5.42702">
        <ele>197.78534</ele>
        <time>2019-06-19 13:25:10,514</time>
      </trkpt>
      <trkpt lat="43.21255" lon="5.42702">
        <ele>196.20508</ele>
        <time>2019-06-19 13:25:11,488</time>
      </trkpt>
      <trkpt lat="43.21255" lon="5.42702">
        <ele>194.92804</ele>
        <time>2019-06-19 13:25:12,497</time>
      </trkpt>
      <trkpt lat="43.21255" lon="5.42702">
        <ele>193.47504</ele>
        <time>2019-06-19 13:25:13,488</time>
      </trkpt>
      <trkpt lat="43.21254" lon="5.42704">
        <ele>191.5581</ele>
        <time>2019-06-19 13:25:16,490</time>
      </trkpt>
      <trkpt lat="43.21254" lon="5.42705">
        <ele>189.06549</ele>
        <time>2019-06-19 13:25:20,492</time>
      </trkpt>
      <trkpt lat="43.21248" lon="5.42703">
        <ele>185.43237</ele>
        <time>2019-06-19 13:25:30,491</time>
      </trkpt>
      <trkpt lat="43.21247" lon="5.427">
        <ele>185.84082</ele>
        <time>2019-06-19 13:25:32,497</time>
      </trkpt>
      <trkpt lat="43.21247" lon="5.42699">
        <ele>185.8609</ele>
        <time>2019-06-19 13:25:33,496</time>
      </trkpt>
      <trkpt lat="43.21246" lon="5.42698">
        <ele>185.73059</ele>
        <time>2019-06-19 13:25:34,500</time>
      </trkpt>
      <trkpt lat="43.21245" lon="5.42698">
        <ele>185.97876</ele>
        <time>2019-06-19 13:25:35,662</time>
      </trkpt>
      <trkpt lat="43.21243" lon="5.42699">
        <ele>198.55286</ele>
        <time>2019-06-19 13:25:48,487</time>
      </trkpt>
      <trkpt lat="43.21243" lon="5.42698">
        <ele>199.8385</ele>
        <time>2019-06-19 13:25:49,500</time>
      </trkpt>
      <trkpt lat="43.21242" lon="5.42696">
        <ele>199.36578</ele>
        <time>2019-06-19 13:25:50,488</time>
      </trkpt>
      <trkpt lat="43.21241" lon="5.42693">
        <ele>196.0622</ele>
        <time>2019-06-19 13:25:52,496</time>
      </trkpt>
      <trkpt lat="43.2124" lon="5.42692">
        <ele>192.8808</ele>
        <time>2019-06-19 13:25:53,495</time>
      </trkpt>
      <trkpt lat="43.21239" lon="5.42691">
        <ele>252.00891</ele>
        <time>2019-06-19 13:25:54,499</time>
      </trkpt>
      <trkpt lat="43.21239" lon="5.42691">
        <ele>217.82782</ele>
        <time>2019-06-19 13:25:57,499</time>
      </trkpt>
      <trkpt lat="43.21238" lon="5.4269">
        <ele>212.22467</ele>
        <time>2019-06-19 13:25:58,492</time>
      </trkpt>
      <trkpt lat="43.21237" lon="5.4269">
        <ele>204.06274</ele>
        <time>2019-06-19 13:25:59,481</time>
      </trkpt>
      <trkpt lat="43.21237" lon="5.42689">
        <ele>191.63196</ele>
        <time>2019-06-19 13:26:01,490</time>
      </trkpt>
      <trkpt lat="43.21236" lon="5.42689">
        <ele>188.47546</ele>
        <time>2019-06-19 13:26:02,499</time>
      </trkpt>
      <trkpt lat="43.21237" lon="5.42688">
        <ele>186.07385</ele>
        <time>2019-06-19 13:26:03,495</time>
      </trkpt>
      <trkpt lat="43.21236" lon="5.42688">
        <ele>183.82654</ele>
        <time>2019-06-19 13:26:04,487</time>
      </trkpt>
      <trkpt lat="43.21236" lon="5.42687">
        <ele>181.37317</ele>
        <time>2019-06-19 13:26:05,490</time>
      </trkpt>
      <trkpt lat="43.21236" lon="5.42687">
        <ele>179.61053</ele>
        <time>2019-06-19 13:26:06,490</time>
      </trkpt>
      <trkpt lat="43.21235" lon="5.42687">
        <ele>178.83496</ele>
        <time>2019-06-19 13:26:07,495</time>
      </trkpt>
      <trkpt lat="43.21235" lon="5.42686">
        <ele>177.62213</ele>
        <time>2019-06-19 13:26:08,489</time>
      </trkpt>
      <trkpt lat="43.21234" lon="5.42685">
        <ele>176.43091</ele>
        <time>2019-06-19 13:26:09,491</time>
      </trkpt>
      <trkpt lat="43.21234" lon="5.42685">
        <ele>176.51721</ele>
        <time>2019-06-19 13:26:10,487</time>
      </trkpt>
      <trkpt lat="43.21234" lon="5.42685">
        <ele>176.37952</ele>
        <time>2019-06-19 13:26:11,487</time>
      </trkpt>
      <trkpt lat="43.21233" lon="5.42685">
        <ele>176.888</ele>
        <time>2019-06-19 13:26:12,495</time>
      </trkpt>
      <trkpt lat="43.21232" lon="5.42684">
        <ele>177.45557</ele>
        <time>2019-06-19 13:26:13,500</time>
      </trkpt>
      <trkpt lat="43.21228" lon="5.42683">
        <ele>178.31757</ele>
        <time>2019-06-19 13:26:16,499</time>
      </trkpt>
      <trkpt lat="43.21226" lon="5.42683">
        <ele>178.05249</ele>
        <time>2019-06-19 13:26:17,486</time>
      </trkpt>
      <trkpt lat="43.21225" lon="5.42682">
        <ele>177.61829</ele>
        <time>2019-06-19 13:26:18,491</time>
      </trkpt>
      <trkpt lat="43.21222" lon="5.42681">
        <ele>176.86108</ele>
        <time>2019-06-19 13:26:20,496</time>
      </trkpt>
      <trkpt lat="43.21221" lon="5.42681">
        <ele>176.12659</ele>
        <time>2019-06-19 13:26:21,490</time>
      </trkpt>
      <trkpt lat="43.2122" lon="5.42681">
        <ele>175.58337</ele>
        <time>2019-06-19 13:26:22,495</time>
      </trkpt>
      <trkpt lat="43.21219" lon="5.42681">
        <ele>176.41602</ele>
        <time>2019-06-19 13:26:23,504</time>
      </trkpt>
      <trkpt lat="43.21219" lon="5.42682">
        <ele>176.2898</ele>
        <time>2019-06-19 13:26:24,500</time>
      </trkpt>
      <trkpt lat="43.21218" lon="5.42682">
        <ele>176.03632</ele>
        <time>2019-06-19 13:26:25,489</time>
      </trkpt>
      <trkpt lat="43.21218" lon="5.42682">
        <ele>176.79492</ele>
        <time>2019-06-19 13:26:26,483</time>
      </trkpt>
      <trkpt lat="43.21216" lon="5.42684">
        <ele>176.46594</ele>
        <time>2019-06-19 13:26:29,497</time>
      </trkpt>
      <trkpt lat="43.21215" lon="5.42685">
        <ele>176.18549</ele>
        <time>2019-06-19 13:26:30,485</time>
      </trkpt>
      <trkpt lat="43.21214" lon="5.42686">
        <ele>174.82202</ele>
        <time>2019-06-19 13:26:32,486</time>
      </trkpt>
      <trkpt lat="43.21214" lon="5.42686">
        <ele>174.44617</ele>
        <time>2019-06-19 13:26:33,488</time>
      </trkpt>
      <trkpt lat="43.21213" lon="5.42686">
        <ele>174.36359</ele>
        <time>2019-06-19 13:26:34,483</time>
      </trkpt>
      <trkpt lat="43.21214" lon="5.42686">
        <ele>174.3966</ele>
        <time>2019-06-19 13:26:35,485</time>
      </trkpt>
      <trkpt lat="43.21214" lon="5.42685">
        <ele>174.45703</ele>
        <time>2019-06-19 13:26:37,494</time>
      </trkpt>
      <trkpt lat="43.21214" lon="5.42684">
        <ele>173.4198</ele>
        <time>2019-06-19 13:26:38,486</time>
      </trkpt>
      <trkpt lat="43.21214" lon="5.42684">
        <ele>173.36548</ele>
        <time>2019-06-19 13:26:39,486</time>
      </trkpt>
      <trkpt lat="43.21213" lon="5.42683">
        <ele>172.84668</ele>
        <time>2019-06-19 13:26:40,483</time>
      </trkpt>
      <trkpt lat="43.21212" lon="5.42682">
        <ele>174.37799</ele>
        <time>2019-06-19 13:26:42,489</time>
      </trkpt>
      <trkpt lat="43.21211" lon="5.42682">
        <ele>172.97266</ele>
        <time>2019-06-19 13:26:43,490</time>
      </trkpt>
      <trkpt lat="43.2121" lon="5.42681">
        <ele>203.49194</ele>
        <time>2019-06-19 13:26:45,997</time>
      </trkpt>
      <trkpt lat="43.2121" lon="5.4268">
        <ele>199.7373</ele>
        <time>2019-06-19 13:26:46,989</time>
      </trkpt>
      <trkpt lat="43.2121" lon="5.42679">
        <ele>196.6731</ele>
        <time>2019-06-19 13:26:47,997</time>
      </trkpt>
      <trkpt lat="43.2121" lon="5.42679">
        <ele>196.1753</ele>
        <time>2019-06-19 13:26:48,994</time>
      </trkpt>
      <trkpt lat="43.2121" lon="5.42678">
        <ele>191.13434</ele>
        <time>2019-06-19 13:26:49,990</time>
      </trkpt>
      <trkpt lat="43.21209" lon="5.42677">
        <ele>172.06873</ele>
        <time>2019-06-19 13:27:09,983</time>
      </trkpt>
      <trkpt lat="43.21209" lon="5.42676">
        <ele>173.07727</ele>
        <time>2019-06-19 13:27:11,976</time>
      </trkpt>
      <trkpt lat="43.21209" lon="5.42676">
        <ele>171.47406</ele>
        <time>2019-06-19 13:27:12,987</time>
      </trkpt>
      <trkpt lat="43.21209" lon="5.42675">
        <ele>171.7616</ele>
        <time>2019-06-19 13:27:13,986</time>
      </trkpt>
      <trkpt lat="43.21209" lon="5.42674">
        <ele>170.37726</ele>
        <time>2019-06-19 13:27:14,982</time>
      </trkpt>
      <trkpt lat="43.21209" lon="5.42672">
        <ele>168.31439</ele>
        <time>2019-06-19 13:27:25,979</time>
      </trkpt>
      <trkpt lat="43.21209" lon="5.42671">
        <ele>168.56445</ele>
        <time>2019-06-19 13:27:26,983</time>
      </trkpt>
      <trkpt lat="43.21208" lon="5.42671">
        <ele>167.66772</ele>
        <time>2019-06-19 13:27:27,983</time>
      </trkpt>
      <trkpt lat="43.21207" lon="5.4267">
        <ele>167.52014</ele>
        <time>2019-06-19 13:27:29,992</time>
      </trkpt>
      <trkpt lat="43.21206" lon="5.42673">
        <ele>165.1972</ele>
        <time>2019-06-19 13:27:37,983</time>
      </trkpt>
      <trkpt lat="43.21205" lon="5.42673">
        <ele>164.34949</ele>
        <time>2019-06-19 13:27:38,997</time>
      </trkpt>
      <trkpt lat="43.21203" lon="5.42673">
        <ele>164.9862</ele>
        <time>2019-06-19 13:27:40,973</time>
      </trkpt>
      <trkpt lat="43.212" lon="5.42672">
        <ele>164.21313</ele>
        <time>2019-06-19 13:27:43,978</time>
      </trkpt>
      <trkpt lat="43.21199" lon="5.42672">
        <ele>163.5351</ele>
        <time>2019-06-19 13:27:45,987</time>
      </trkpt>
      <trkpt lat="43.21198" lon="5.42671">
        <ele>165.39441</ele>
        <time>2019-06-19 13:27:47,255</time>
      </trkpt>
      <trkpt lat="43.21199" lon="5.42669">
        <ele>165.59613</ele>
        <time>2019-06-19 13:27:48,990</time>
      </trkpt>
      <trkpt lat="43.21199" lon="5.42668">
        <ele>209.14313</ele>
        <time>2019-06-19 13:27:54,031</time>
      </trkpt>
      <trkpt lat="43.21198" lon="5.42667">
        <ele>195.22284</ele>
        <time>2019-06-19 13:27:54,998</time>
      </trkpt>
      <trkpt lat="43.21198" lon="5.42667">
        <ele>189.29926</ele>
        <time>2019-06-19 13:27:55,986</time>
      </trkpt>
      <trkpt lat="43.21196" lon="5.42667">
        <ele>182.30823</ele>
        <time>2019-06-19 13:27:57,980</time>
      </trkpt>
      <trkpt lat="43.21196" lon="5.42667">
        <ele>180.69739</ele>
        <time>2019-06-19 13:27:58,993</time>
      </trkpt>
      <trkpt lat="43.21196" lon="5.42667">
        <ele>180.73096</ele>
        <time>2019-06-19 13:28:00,287</time>
      </trkpt>
      <trkpt lat="43.21197" lon="5.42666">
        <ele>175.31372</ele>
        <time>2019-06-19 13:28:02,006</time>
      </trkpt>
      <trkpt lat="43.21198" lon="5.42665">
        <ele>174.57166</ele>
        <time>2019-06-19 13:28:02,986</time>
      </trkpt>
      <trkpt lat="43.21198" lon="5.42665">
        <ele>169.96973</ele>
        <time>2019-06-19 13:28:04,985</time>
      </trkpt>
      <trkpt lat="43.21198" lon="5.42664">
        <ele>168.62067</ele>
        <time>2019-06-19 13:28:05,987</time>
      </trkpt>
      <trkpt lat="43.21198" lon="5.42661">
        <ele>166.3233</ele>
        <time>2019-06-19 13:28:10,983</time>
      </trkpt>
      <trkpt lat="43.21198" lon="5.4266">
        <ele>165.4632</ele>
        <time>2019-06-19 13:28:12,982</time>
      </trkpt>
      <trkpt lat="43.21196" lon="5.42658">
        <ele>165.69843</ele>
        <time>2019-06-19 13:28:16,977</time>
      </trkpt>
      <trkpt lat="43.21195" lon="5.42658">
        <ele>163.9544</ele>
        <time>2019-06-19 13:28:18,981</time>
      </trkpt>
      <trkpt lat="43.21195" lon="5.42658">
        <ele>162.46295</ele>
        <time>2019-06-19 13:28:19,988</time>
      </trkpt>
      <trkpt lat="43.21192" lon="5.42657">
        <ele>160.79968</ele>
        <time>2019-06-19 13:28:25,136</time>
      </trkpt>
      <trkpt lat="43.21192" lon="5.42657">
        <ele>161.02222</ele>
        <time>2019-06-19 13:28:29,983</time>
      </trkpt>
      <trkpt lat="43.21191" lon="5.42654">
        <ele>164.23218</ele>
        <time>2019-06-19 13:28:32,975</time>
      </trkpt>
      <trkpt lat="43.21191" lon="5.42654">
        <ele>163.06293</ele>
        <time>2019-06-19 13:28:33,989</time>
      </trkpt>
      <trkpt lat="43.2119" lon="5.42654">
        <ele>161.71576</ele>
        <time>2019-06-19 13:28:35,982</time>
      </trkpt>
      <trkpt lat="43.21191" lon="5.42654">
        <ele>160.65308</ele>
        <time>2019-06-19 13:28:39,985</time>
      </trkpt>
      <trkpt lat="43.21191" lon="5.42654">
        <ele>159.67407</ele>
        <time>2019-06-19 13:28:40,988</time>
      </trkpt>
      <trkpt lat="43.21192" lon="5.42653">
        <ele>158.66089</ele>
        <time>2019-06-19 13:28:41,983</time>
      </trkpt>
      <trkpt lat="43.21193" lon="5.42653">
        <ele>157.71832</ele>
        <time>2019-06-19 13:28:42,975</time>
      </trkpt>
      <trkpt lat="43.21194" lon="5.42653">
        <ele>157.5993</ele>
        <time>2019-06-19 13:28:43,975</time>
      </trkpt>
      <trkpt lat="43.21194" lon="5.42652">
        <ele>161.71576</ele>
        <time>2019-06-19 13:28:44,978</time>
      </trkpt>
      <trkpt lat="43.21195" lon="5.42651">
        <ele>157.7345</ele>
        <time>2019-06-19 13:28:46,042</time>
      </trkpt>
      <trkpt lat="43.21195" lon="5.4265">
        <ele>157.58716</ele>
        <time>2019-06-19 13:28:46,983</time>
      </trkpt>
      <trkpt lat="43.21196" lon="5.42648">
        <ele>156.14929</ele>
        <time>2019-06-19 13:28:49,072</time>
      </trkpt>
      <trkpt lat="43.21197" lon="5.42647">
        <ele>155.93774</ele>
        <time>2019-06-19 13:28:50,024</time>
      </trkpt>
      <trkpt lat="43.21197" lon="5.42646">
        <ele>155.13214</ele>
        <time>2019-06-19 13:28:50,978</time>
      </trkpt>
      <trkpt lat="43.21197" lon="5.42645">
        <ele>154.88953</ele>
        <time>2019-06-19 13:28:56,230</time>
      </trkpt>
      <trkpt lat="43.212" lon="5.42641">
        <ele>155.02783</ele>
        <time>2019-06-19 13:28:59,983</time>
      </trkpt>
      <trkpt lat="43.212" lon="5.42641">
        <ele>154.83173</ele>
        <time>2019-06-19 13:29:00,980</time>
      </trkpt>
      <trkpt lat="43.21201" lon="5.4264">
        <ele>154.30048</ele>
        <time>2019-06-19 13:29:02,991</time>
      </trkpt>
      <trkpt lat="43.21201" lon="5.42639">
        <ele>151.99731</ele>
        <time>2019-06-19 13:29:04,986</time>
      </trkpt>
      <trkpt lat="43.21196" lon="5.42635">
        <ele>150.77936</ele>
        <time>2019-06-19 13:29:16,983</time>
      </trkpt>
      <trkpt lat="43.21196" lon="5.42635">
        <ele>148.2862</ele>
        <time>2019-06-19 13:29:17,982</time>
      </trkpt>
      <trkpt lat="43.21195" lon="5.42636">
        <ele>148.211</ele>
        <time>2019-06-19 13:29:19,077</time>
      </trkpt>
      <trkpt lat="43.21195" lon="5.42637">
        <ele>146.21423</ele>
        <time>2019-06-19 13:29:23,983</time>
      </trkpt>
      <trkpt lat="43.21194" lon="5.42637">
        <ele>146.4679</ele>
        <time>2019-06-19 13:29:24,977</time>
      </trkpt>
      <trkpt lat="43.21193" lon="5.42636">
        <ele>147.3075</ele>
        <time>2019-06-19 13:29:25,978</time>
      </trkpt>
      <trkpt lat="43.21192" lon="5.42636">
        <ele>147.17822</ele>
        <time>2019-06-19 13:29:27,001</time>
      </trkpt>
      <trkpt lat="43.21191" lon="5.42636">
        <ele>148.18915</ele>
        <time>2019-06-19 13:29:27,982</time>
      </trkpt>
      <trkpt lat="43.21189" lon="5.42637">
        <ele>147.09192</ele>
        <time>2019-06-19 13:29:30,052</time>
      </trkpt>
      <trkpt lat="43.21189" lon="5.42638">
        <ele>146.23022</ele>
        <time>2019-06-19 13:29:30,988</time>
      </trkpt>
      <trkpt lat="43.21188" lon="5.42638">
        <ele>145.96216</ele>
        <time>2019-06-19 13:29:31,983</time>
      </trkpt>
      <trkpt lat="43.21186" lon="5.42638">
        <ele>149.01428</ele>
        <time>2019-06-19 13:29:33,974</time>
      </trkpt>
      <trkpt lat="43.21174" lon="5.42634">
        <ele>146.08789</ele>
        <time>2019-06-19 13:29:52,997</time>
      </trkpt>
      <trkpt lat="43.21173" lon="5.42632">
        <ele>145.72986</ele>
        <time>2019-06-19 13:30:06,978</time>
      </trkpt>
      <trkpt lat="43.21173" lon="5.42632">
        <ele>146.11462</ele>
        <time>2019-06-19 13:30:07,979</time>
      </trkpt>
      <trkpt lat="43.21173" lon="5.42632">
        <ele>146.0329</ele>
        <time>2019-06-19 13:30:08,987</time>
      </trkpt>
      <trkpt lat="43.21173" lon="5.42632">
        <ele>145.7049</ele>
        <time>2019-06-19 13:30:11,284</time>
      </trkpt>
      <trkpt lat="43.21172" lon="5.42632">
        <ele>145.71558</ele>
        <time>2019-06-19 13:30:13,002</time>
      </trkpt>
      <trkpt lat="43.21172" lon="5.42632">
        <ele>145.17944</ele>
        <time>2019-06-19 13:30:13,987</time>
      </trkpt>
      <trkpt lat="43.21173" lon="5.42631">
        <ele>142.69891</ele>
        <time>2019-06-19 13:30:17,992</time>
      </trkpt>
      <trkpt lat="43.21173" lon="5.42631">
        <ele>226.14526</ele>
        <time>2019-06-19 13:30:22,986</time>
      </trkpt>
      <trkpt lat="43.21172" lon="5.4263">
        <ele>197.37476</ele>
        <time>2019-06-19 13:30:24,002</time>
      </trkpt>
      <trkpt lat="43.21172" lon="5.42629">
        <ele>179.77942</ele>
        <time>2019-06-19 13:30:24,979</time>
      </trkpt>
      <trkpt lat="43.2117" lon="5.42628">
        <ele>166.54272</ele>
        <time>2019-06-19 13:30:26,982</time>
      </trkpt>
      <trkpt lat="43.21169" lon="5.42628">
        <ele>161.36871</ele>
        <time>2019-06-19 13:30:27,986</time>
      </trkpt>
      <trkpt lat="43.21166" lon="5.42626">
        <ele>197.37476</ele>
        <time>2019-06-19 13:30:32,792</time>
      </trkpt>
      <trkpt lat="43.21165" lon="5.42625">
        <ele>151.41687</ele>
        <time>2019-06-19 13:30:33,788</time>
      </trkpt>
      <trkpt lat="43.21165" lon="5.42625">
        <ele>150.37964</ele>
        <time>2019-06-19 13:30:34,796</time>
      </trkpt>
      <trkpt lat="43.21164" lon="5.42625">
        <ele>143.91058</ele>
        <time>2019-06-19 13:30:36,784</time>
      </trkpt>
      <trkpt lat="43.21164" lon="5.42624">
        <ele>130.78467</ele>
        <time>2019-06-19 13:30:49,791</time>
      </trkpt>
      <trkpt lat="43.21164" lon="5.42624">
        <ele>129.72302</ele>
        <time>2019-06-19 13:30:50,802</time>
      </trkpt>
      <trkpt lat="43.21164" lon="5.42622">
        <ele>133.69836</ele>
        <time>2019-06-19 13:30:56,796</time>
      </trkpt>
      <trkpt lat="43.21164" lon="5.42621">
        <ele>132.49713</ele>
        <time>2019-06-19 13:30:57,799</time>
      </trkpt>
      <trkpt lat="43.21163" lon="5.42621">
        <ele>131.00763</ele>
        <time>2019-06-19 13:30:58,791</time>
      </trkpt>
      <trkpt lat="43.21163" lon="5.42619">
        <ele>132.53436</ele>
        <time>2019-06-19 13:31:00,795</time>
      </trkpt>
      <trkpt lat="43.21162" lon="5.42619">
        <ele>130.79022</ele>
        <time>2019-06-19 13:31:01,797</time>
      </trkpt>
      <trkpt lat="43.21163" lon="5.42619">
        <ele>130.92926</ele>
        <time>2019-06-19 13:31:02,796</time>
      </trkpt>
      <trkpt lat="43.21163" lon="5.42619">
        <ele>128.82007</ele>
        <time>2019-06-19 13:31:05,795</time>
      </trkpt>
      <trkpt lat="43.21162" lon="5.42619">
        <ele>126.69696</ele>
        <time>2019-06-19 13:31:06,790</time>
      </trkpt>
      <trkpt lat="43.21162" lon="5.42618">
        <ele>125.6947</ele>
        <time>2019-06-19 13:31:07,794</time>
      </trkpt>
      <trkpt lat="43.21162" lon="5.42618">
        <ele>125.70166</ele>
        <time>2019-06-19 13:31:08,809</time>
      </trkpt>
      <trkpt lat="43.21162" lon="5.42618">
        <ele>126.28461</ele>
        <time>2019-06-19 13:31:09,794</time>
      </trkpt>
      <trkpt lat="43.21162" lon="5.42618">
        <ele>127.67877</ele>
        <time>2019-06-19 13:31:10,798</time>
      </trkpt>
      <trkpt lat="43.21161" lon="5.42617">
        <ele>128.25146</ele>
        <time>2019-06-19 13:31:11,798</time>
      </trkpt>
      <trkpt lat="43.21161" lon="5.42616">
        <ele>128.48456</ele>
        <time>2019-06-19 13:31:12,790</time>
      </trkpt>
      <trkpt lat="43.2116" lon="5.42615">
        <ele>128.13617</ele>
        <time>2019-06-19 13:31:13,803</time>
      </trkpt>
      <trkpt lat="43.21159" lon="5.42615">
        <ele>127.56824</ele>
        <time>2019-06-19 13:31:14,791</time>
      </trkpt>
      <trkpt lat="43.21159" lon="5.42614">
        <ele>128.05255</ele>
        <time>2019-06-19 13:31:15,794</time>
      </trkpt>
      <trkpt lat="43.21158" lon="5.42613">
        <ele>130.13635</ele>
        <time>2019-06-19 13:31:16,794</time>
      </trkpt>
      <trkpt lat="43.21158" lon="5.42612">
        <ele>130.46686</ele>
        <time>2019-06-19 13:31:17,790</time>
      </trkpt>
      <trkpt lat="43.21157" lon="5.42611">
        <ele>131.13196</ele>
        <time>2019-06-19 13:31:18,790</time>
      </trkpt>
      <trkpt lat="43.21157" lon="5.4261">
        <ele>130.19513</ele>
        <time>2019-06-19 13:31:19,794</time>
      </trkpt>
      <trkpt lat="43.21157" lon="5.42609">
        <ele>130.75305</ele>
        <time>2019-06-19 13:31:20,810</time>
      </trkpt>
      <trkpt lat="43.21157" lon="5.42608">
        <ele>131.94983</ele>
        <time>2019-06-19 13:31:21,798</time>
      </trkpt>
      <trkpt lat="43.21156" lon="5.42608">
        <ele>127.56824</ele>
        <time>2019-06-19 13:31:22,799</time>
      </trkpt>
      <trkpt lat="43.21156" lon="5.42607">
        <ele>132.53442</ele>
        <time>2019-06-19 13:31:23,793</time>
      </trkpt>
      <trkpt lat="43.21155" lon="5.42607">
        <ele>132.49268</ele>
        <time>2019-06-19 13:31:24,791</time>
      </trkpt>
      <trkpt lat="43.21154" lon="5.42607">
        <ele>132.45044</ele>
        <time>2019-06-19 13:31:25,795</time>
      </trkpt>
      <trkpt lat="43.21154" lon="5.42607">
        <ele>131.64844</ele>
        <time>2019-06-19 13:31:26,794</time>
      </trkpt>
      <trkpt lat="43.21153" lon="5.42607">
        <ele>130.71985</ele>
        <time>2019-06-19 13:31:27,790</time>
      </trkpt>
      <trkpt lat="43.21153" lon="5.42607">
        <ele>129.79272</ele>
        <time>2019-06-19 13:31:28,787</time>
      </trkpt>
      <trkpt lat="43.21153" lon="5.42606">
        <ele>129.0326</ele>
        <time>2019-06-19 13:31:29,798</time>
      </trkpt>
      <trkpt lat="43.21153" lon="5.42606">
        <ele>127.627686</ele>
        <time>2019-06-19 13:31:30,802</time>
      </trkpt>
      <trkpt lat="43.21153" lon="5.42606">
        <ele>127.43201</ele>
        <time>2019-06-19 13:31:31,817</time>
      </trkpt>
      <trkpt lat="43.21153" lon="5.42606">
        <ele>126.30707</ele>
        <time>2019-06-19 13:31:32,799</time>
      </trkpt>
      <trkpt lat="43.21151" lon="5.42606">
        <ele>122.97168</ele>
        <time>2019-06-19 13:31:36,799</time>
      </trkpt>
      <trkpt lat="43.21151" lon="5.42606">
        <ele>124.5119</ele>
        <time>2019-06-19 13:31:37,795</time>
      </trkpt>
      <trkpt lat="43.2115" lon="5.42605">
        <ele>122.203186</ele>
        <time>2019-06-19 13:31:38,794</time>
      </trkpt>
      <trkpt lat="43.2115" lon="5.42604">
        <ele>120.70123</ele>
        <time>2019-06-19 13:31:39,792</time>
      </trkpt>
      <trkpt lat="43.2115" lon="5.42601">
        <ele>122.46619</ele>
        <time>2019-06-19 13:31:46,801</time>
      </trkpt>
      <trkpt lat="43.2115" lon="5.42601">
        <ele>122.771545</ele>
        <time>2019-06-19 13:31:47,798</time>
      </trkpt>
      <trkpt lat="43.21149" lon="5.426">
        <ele>121.01276</ele>
        <time>2019-06-19 13:31:48,795</time>
      </trkpt>
      <trkpt lat="43.21149" lon="5.426">
        <ele>119.59906</ele>
        <time>2019-06-19 13:31:49,796</time>
      </trkpt>
      <trkpt lat="43.21148" lon="5.42599">
        <ele>119.32495</ele>
        <time>2019-06-19 13:31:50,791</time>
      </trkpt>
      <trkpt lat="43.21148" lon="5.42598">
        <ele>119.11322</ele>
        <time>2019-06-19 13:31:51,785</time>
      </trkpt>
      <trkpt lat="43.21148" lon="5.42595">
        <ele>122.99219</ele>
        <time>2019-06-19 13:31:53,803</time>
      </trkpt>
      <trkpt lat="43.21147" lon="5.42594">
        <ele>124.41333</ele>
        <time>2019-06-19 13:31:54,799</time>
      </trkpt>
      <trkpt lat="43.21147" lon="5.42594">
        <ele>123.25372</ele>
        <time>2019-06-19 13:31:55,798</time>
      </trkpt>
      <trkpt lat="43.21146" lon="5.42594">
        <ele>124.88043</ele>
        <time>2019-06-19 13:31:57,799</time>
      </trkpt>
      <trkpt lat="43.21145" lon="5.42595">
        <ele>125.42566</ele>
        <time>2019-06-19 13:31:58,799</time>
      </trkpt>
      <trkpt lat="43.21142" lon="5.42595">
        <ele>125.697815</ele>
        <time>2019-06-19 13:32:13,793</time>
      </trkpt>
      <trkpt lat="43.21142" lon="5.42595">
        <ele>125.10022</ele>
        <time>2019-06-19 13:32:14,797</time>
      </trkpt>
      <trkpt lat="43.21141" lon="5.42594">
        <ele>122.42059</ele>
        <time>2019-06-19 13:32:17,798</time>
      </trkpt>
      <trkpt lat="43.21139" lon="5.42594">
        <ele>121.51532</ele>
        <time>2019-06-19 13:32:19,794</time>
      </trkpt>
      <trkpt lat="43.21138" lon="5.42594">
        <ele>124.166016</ele>
        <time>2019-06-19 13:32:20,799</time>
      </trkpt>
      <trkpt lat="43.21137" lon="5.42593">
        <ele>124.203735</ele>
        <time>2019-06-19 13:32:21,792</time>
      </trkpt>
      <trkpt lat="43.21136" lon="5.42591">
        <ele>122.5047</ele>
        <time>2019-06-19 13:32:22,799</time>
      </trkpt>
      <trkpt lat="43.21134" lon="5.4259">
        <ele>120.65979</ele>
        <time>2019-06-19 13:32:24,814</time>
      </trkpt>
      <trkpt lat="43.21134" lon="5.42589">
        <ele>119.22583</ele>
        <time>2019-06-19 13:32:25,797</time>
      </trkpt>
      <trkpt lat="43.21134" lon="5.42588">
        <ele>117.299866</ele>
        <time>2019-06-19 13:32:26,795</time>
      </trkpt>
      <trkpt lat="43.21133" lon="5.42588">
        <ele>116.5838</ele>
        <time>2019-06-19 13:32:27,794</time>
      </trkpt>
      <trkpt lat="43.21133" lon="5.42587">
        <ele>116.00519</ele>
        <time>2019-06-19 13:32:28,793</time>
      </trkpt>
      <trkpt lat="43.21132" lon="5.42587">
        <ele>114.768005</ele>
        <time>2019-06-19 13:32:29,791</time>
      </trkpt>
      <trkpt lat="43.21132" lon="5.42586">
        <ele>116.57434</ele>
        <time>2019-06-19 13:32:30,793</time>
      </trkpt>
      <trkpt lat="43.21131" lon="5.42585">
        <ele>116.06671</ele>
        <time>2019-06-19 13:32:31,792</time>
      </trkpt>
      <trkpt lat="43.2113" lon="5.42584">
        <ele>119.22583</ele>
        <time>2019-06-19 13:32:32,796</time>
      </trkpt>
      <trkpt lat="43.2113" lon="5.42583">
        <ele>113.05994</ele>
        <time>2019-06-19 13:32:33,803</time>
      </trkpt>
      <trkpt lat="43.21129" lon="5.42581">
        <ele>112.00354</ele>
        <time>2019-06-19 13:32:34,797</time>
      </trkpt>
      <trkpt lat="43.21128" lon="5.4258">
        <ele>111.53027</ele>
        <time>2019-06-19 13:32:35,797</time>
      </trkpt>
      <trkpt lat="43.21128" lon="5.42579">
        <ele>112.75824</ele>
        <time>2019-06-19 13:32:36,795</time>
      </trkpt>
      <trkpt lat="43.21128" lon="5.42579">
        <ele>112.558716</ele>
        <time>2019-06-19 13:32:37,797</time>
      </trkpt>
      <trkpt lat="43.21128" lon="5.42578">
        <ele>112.195496</ele>
        <time>2019-06-19 13:32:38,799</time>
      </trkpt>
      <trkpt lat="43.21128" lon="5.42574">
        <ele>111.06781</ele>
        <time>2019-06-19 13:32:42,795</time>
      </trkpt>
      <trkpt lat="43.21128" lon="5.42573">
        <ele>109.200806</ele>
        <time>2019-06-19 13:32:43,795</time>
      </trkpt>
      <trkpt lat="43.21128" lon="5.42573">
        <ele>109.21002</ele>
        <time>2019-06-19 13:32:44,798</time>
      </trkpt>
      <trkpt lat="43.21128" lon="5.42572">
        <ele>108.338684</ele>
        <time>2019-06-19 13:32:45,796</time>
      </trkpt>
      <trkpt lat="43.21128" lon="5.42572">
        <ele>108.67169</ele>
        <time>2019-06-19 13:32:46,808</time>
      </trkpt>
      <trkpt lat="43.21129" lon="5.42571">
        <ele>110.48584</ele>
        <time>2019-06-19 13:32:47,791</time>
      </trkpt>
      <trkpt lat="43.21129" lon="5.4257">
        <ele>109.45282</ele>
        <time>2019-06-19 13:32:48,795</time>
      </trkpt>
      <trkpt lat="43.21129" lon="5.42569">
        <ele>107.9389</ele>
        <time>2019-06-19 13:32:49,795</time>
      </trkpt>
      <trkpt lat="43.21129" lon="5.42568">
        <ele>106.46924</ele>
        <time>2019-06-19 13:32:50,795</time>
      </trkpt>
      <trkpt lat="43.21129" lon="5.42567">
        <ele>107.00891</ele>
        <time>2019-06-19 13:32:51,798</time>
      </trkpt>
      <trkpt lat="43.21129" lon="5.42566">
        <ele>107.12085</ele>
        <time>2019-06-19 13:32:52,806</time>
      </trkpt>
      <trkpt lat="43.21129" lon="5.42564">
        <ele>109.67828</ele>
        <time>2019-06-19 13:32:54,794</time>
      </trkpt>
      <trkpt lat="43.21129" lon="5.42563">
        <ele>109.06232</ele>
        <time>2019-06-19 13:32:55,796</time>
      </trkpt>
      <trkpt lat="43.21128" lon="5.42563">
        <ele>109.33362</ele>
        <time>2019-06-19 13:32:56,794</time>
      </trkpt>
      <trkpt lat="43.21128" lon="5.42562">
        <ele>112.38641</ele>
        <time>2019-06-19 13:32:57,796</time>
      </trkpt>
      <trkpt lat="43.21128" lon="5.42561">
        <ele>112.440186</ele>
        <time>2019-06-19 13:32:58,802</time>
      </trkpt>
      <trkpt lat="43.21127" lon="5.4256">
        <ele>112.15747</ele>
        <time>2019-06-19 13:32:59,797</time>
      </trkpt>
      <trkpt lat="43.21126" lon="5.42556">
        <ele>110.60492</ele>
        <time>2019-06-19 13:33:03,793</time>
      </trkpt>
      <trkpt lat="43.21121" lon="5.42547">
        <ele>137.67896</ele>
        <time>2019-06-19 13:33:13,799</time>
      </trkpt>
      <trkpt lat="43.21121" lon="5.42545">
        <ele>129.36133</ele>
        <time>2019-06-19 13:33:16,066</time>
      </trkpt>
      <trkpt lat="43.2112" lon="5.42536">
        <ele>113.30359</ele>
        <time>2019-06-19 13:33:21,800</time>
      </trkpt>
      <trkpt lat="43.21119" lon="5.42535">
        <ele>113.534485</ele>
        <time>2019-06-19 13:33:22,793</time>
      </trkpt>
      <trkpt lat="43.21119" lon="5.42533">
        <ele>110.32745</ele>
        <time>2019-06-19 13:33:25,798</time>
      </trkpt>
      <trkpt lat="43.21118" lon="5.42532">
        <ele>110.771484</ele>
        <time>2019-06-19 13:33:26,804</time>
      </trkpt>
      <trkpt lat="43.21117" lon="5.42531">
        <ele>110.92926</ele>
        <time>2019-06-19 13:33:27,792</time>
      </trkpt>
      <trkpt lat="43.21116" lon="5.42532">
        <ele>111.32556</ele>
        <time>2019-06-19 13:33:28,792</time>
      </trkpt>
      <trkpt lat="43.21115" lon="5.42532">
        <ele>108.83679</ele>
        <time>2019-06-19 13:33:30,971</time>
      </trkpt>
      <trkpt lat="43.21114" lon="5.42532">
        <ele>108.25372</ele>
        <time>2019-06-19 13:33:33,801</time>
      </trkpt>
      <trkpt lat="43.21113" lon="5.4253">
        <ele>107.7428</ele>
        <time>2019-06-19 13:33:39,796</time>
      </trkpt>
      <trkpt lat="43.21112" lon="5.4253">
        <ele>107.67969</ele>
        <time>2019-06-19 13:33:40,807</time>
      </trkpt>
      <trkpt lat="43.2111" lon="5.42529">
        <ele>105.49463</ele>
        <time>2019-06-19 13:33:48,808</time>
      </trkpt>
      <trkpt lat="43.21109" lon="5.42529">
        <ele>105.43231</ele>
        <time>2019-06-19 13:33:49,806</time>
      </trkpt>
      <trkpt lat="43.21109" lon="5.4253">
        <ele>103.32483</ele>
        <time>2019-06-19 13:33:50,800</time>
      </trkpt>
      <trkpt lat="43.21108" lon="5.4253">
        <ele>103.10297</ele>
        <time>2019-06-19 13:33:51,803</time>
      </trkpt>
      <trkpt lat="43.21108" lon="5.42529">
        <ele>103.49536</ele>
        <time>2019-06-19 13:33:52,802</time>
      </trkpt>
      <trkpt lat="43.21108" lon="5.42529">
        <ele>101.63599</ele>
        <time>2019-06-19 13:33:53,810</time>
      </trkpt>
      <trkpt lat="43.21107" lon="5.42528">
        <ele>101.80878</ele>
        <time>2019-06-19 13:33:54,803</time>
      </trkpt>
      <trkpt lat="43.21104" lon="5.42526">
        <ele>100.43353</ele>
        <time>2019-06-19 13:33:59,660</time>
      </trkpt>
      <trkpt lat="43.21104" lon="5.42526">
        <ele>101.42651</ele>
        <time>2019-06-19 13:34:00,654</time>
      </trkpt>
      <trkpt lat="43.21103" lon="5.42525">
        <ele>100.46008</ele>
        <time>2019-06-19 13:34:01,661</time>
      </trkpt>
      <trkpt lat="43.21099" lon="5.42521">
        <ele>96.97839</ele>
        <time>2019-06-19 13:34:07,656</time>
      </trkpt>
      <trkpt lat="43.21098" lon="5.42521">
        <ele>97.82764</ele>
        <time>2019-06-19 13:34:08,654</time>
      </trkpt>
      <trkpt lat="43.21097" lon="5.42523">
        <ele>96.88562</ele>
        <time>2019-06-19 13:34:10,660</time>
      </trkpt>
      <trkpt lat="43.21096" lon="5.42524">
        <ele>96.80554</ele>
        <time>2019-06-19 13:34:11,651</time>
      </trkpt>
      <trkpt lat="43.21095" lon="5.42524">
        <ele>97.062195</ele>
        <time>2019-06-19 13:34:12,654</time>
      </trkpt>
      <trkpt lat="43.21094" lon="5.42524">
        <ele>96.32306</ele>
        <time>2019-06-19 13:34:13,651</time>
      </trkpt>
      <trkpt lat="43.21088" lon="5.42519">
        <ele>96.288086</ele>
        <time>2019-06-19 13:34:20,678</time>
      </trkpt>
      <trkpt lat="43.21087" lon="5.42517">
        <ele>96.78528</ele>
        <time>2019-06-19 13:34:21,936</time>
      </trkpt>
      <trkpt lat="43.21085" lon="5.42515">
        <ele>95.22943</ele>
        <time>2019-06-19 13:34:23,661</time>
      </trkpt>
      <trkpt lat="43.21084" lon="5.42514">
        <ele>94.33356</ele>
        <time>2019-06-19 13:34:24,657</time>
      </trkpt>
      <trkpt lat="43.21083" lon="5.42512">
        <ele>93.31171</ele>
        <time>2019-06-19 13:34:25,654</time>
      </trkpt>
      <trkpt lat="43.21082" lon="5.42511">
        <ele>157.8377</ele>
        <time>2019-06-19 13:34:26,651</time>
      </trkpt>
      <trkpt lat="43.21081" lon="5.4251">
        <ele>122.52496</ele>
        <time>2019-06-19 13:34:28,615</time>
      </trkpt>
      <trkpt lat="43.21081" lon="5.4251">
        <ele>118.15674</ele>
        <time>2019-06-19 13:34:29,615</time>
      </trkpt>
      <trkpt lat="43.2108" lon="5.4251">
        <ele>110.66388</ele>
        <time>2019-06-19 13:34:30,612</time>
      </trkpt>
      <trkpt lat="43.21078" lon="5.4251">
        <ele>107.38153</ele>
        <time>2019-06-19 13:34:31,608</time>
      </trkpt>
      <trkpt lat="43.21078" lon="5.42503">
        <ele>174.29895</ele>
        <time>2019-06-19 13:34:40,626</time>
      </trkpt>
      <trkpt lat="43.2108" lon="5.42499">
        <ele>140.92133</ele>
        <time>2019-06-19 13:34:42,601</time>
      </trkpt>
      <trkpt lat="43.21079" lon="5.42495">
        <ele>121.08234</ele>
        <time>2019-06-19 13:34:46,605</time>
      </trkpt>
      <trkpt lat="43.21078" lon="5.42494">
        <ele>105.13458</ele>
        <time>2019-06-19 13:34:51,604</time>
      </trkpt>
      <trkpt lat="43.21079" lon="5.42492">
        <ele>100.08258</ele>
        <time>2019-06-19 13:34:55,603</time>
      </trkpt>
      <trkpt lat="43.21079" lon="5.42492">
        <ele>221.11292</ele>
        <time>2019-06-19 13:34:57,589</time>
      </trkpt>
      <trkpt lat="43.21079" lon="5.42491">
        <ele>107.07532</ele>
        <time>2019-06-19 13:34:58,600</time>
      </trkpt>
      <trkpt lat="43.21079" lon="5.42492">
        <ele>157.7381</ele>
        <time>2019-06-19 13:34:59,599</time>
      </trkpt>
      <trkpt lat="43.2108" lon="5.42491">
        <ele>98.47363</ele>
        <time>2019-06-19 13:35:07,850</time>
      </trkpt>
      <trkpt lat="43.21081" lon="5.42489">
        <ele>95.82959</ele>
        <time>2019-06-19 13:35:10,847</time>
      </trkpt>
      <trkpt lat="43.21082" lon="5.42489">
        <ele>96.09326</ele>
        <time>2019-06-19 13:35:11,847</time>
      </trkpt>
      <trkpt lat="43.21083" lon="5.42488">
        <ele>93.85901</ele>
        <time>2019-06-19 13:35:12,867</time>
      </trkpt>
      <trkpt lat="43.21088" lon="5.42484">
        <ele>96.09326</ele>
        <time>2019-06-19 13:35:19,074</time>
      </trkpt>
      <trkpt lat="43.21087" lon="5.42482">
        <ele>92.31537</ele>
        <time>2019-06-19 13:35:20,853</time>
      </trkpt>
      <trkpt lat="43.21086" lon="5.4248">
        <ele>90.83685</ele>
        <time>2019-06-19 13:35:21,930</time>
      </trkpt>
      <trkpt lat="43.21082" lon="5.42474">
        <ele>213.1289</ele>
        <time>2019-06-19 13:35:27,854</time>
      </trkpt>
      <trkpt lat="43.21081" lon="5.42473">
        <ele>108.81506</ele>
        <time>2019-06-19 13:35:33,094</time>
      </trkpt>
      <trkpt lat="43.21079" lon="5.42473">
        <ele>111.76581</ele>
        <time>2019-06-19 13:35:34,077</time>
      </trkpt>
      <trkpt lat="43.21079" lon="5.42472">
        <ele>106.586</ele>
        <time>2019-06-19 13:35:35,077</time>
      </trkpt>
      <trkpt lat="43.21078" lon="5.42471">
        <ele>97.837036</ele>
        <time>2019-06-19 13:35:37,131</time>
      </trkpt>
      <trkpt lat="43.21078" lon="5.4247">
        <ele>95.67078</ele>
        <time>2019-06-19 13:35:38,077</time>
      </trkpt>
      <trkpt lat="43.21077" lon="5.42469">
        <ele>91.71771</ele>
        <time>2019-06-19 13:35:39,082</time>
      </trkpt>
      <trkpt lat="43.21077" lon="5.42469">
        <ele>127.25354</ele>
        <time>2019-06-19 13:35:40,084</time>
      </trkpt>
      <trkpt lat="43.21076" lon="5.42468">
        <ele>86.55237</ele>
        <time>2019-06-19 13:35:41,094</time>
      </trkpt>
      <trkpt lat="43.21076" lon="5.42467">
        <ele>81.0058</ele>
        <time>2019-06-19 13:35:42,087</time>
      </trkpt>
      <trkpt lat="43.21076" lon="5.42467">
        <ele>80.60205</ele>
        <time>2019-06-19 13:35:43,081</time>
      </trkpt>
      <trkpt lat="43.21075" lon="5.42467">
        <ele>80.70795</ele>
        <time>2019-06-19 13:35:45,067</time>
      </trkpt>
      <trkpt lat="43.21074" lon="5.42467">
        <ele>83.82678</ele>
        <time>2019-06-19 13:35:46,082</time>
      </trkpt>
      <trkpt lat="43.21073" lon="5.42467">
        <ele>83.31848</ele>
        <time>2019-06-19 13:35:47,079</time>
      </trkpt>
      <trkpt lat="43.21072" lon="5.42467">
        <ele>81.530396</ele>
        <time>2019-06-19 13:35:49,078</time>
      </trkpt>
      <trkpt lat="43.21071" lon="5.42466">
        <ele>78.4458</ele>
        <time>2019-06-19 13:35:54,081</time>
      </trkpt>
      <trkpt lat="43.21071" lon="5.42466">
        <ele>78.54999</ele>
        <time>2019-06-19 13:35:55,078</time>
      </trkpt>
      <trkpt lat="43.2107" lon="5.42466">
        <ele>79.72882</ele>
        <time>2019-06-19 13:35:56,083</time>
      </trkpt>
      <trkpt lat="43.21069" lon="5.42466">
        <ele>80.18402</ele>
        <time>2019-06-19 13:35:57,118</time>
      </trkpt>
      <trkpt lat="43.21068" lon="5.42466">
        <ele>80.596436</ele>
        <time>2019-06-19 13:35:58,080</time>
      </trkpt>
      <trkpt lat="43.21068" lon="5.42466">
        <ele>80.181274</ele>
        <time>2019-06-19 13:35:59,085</time>
      </trkpt>
      <trkpt lat="43.21067" lon="5.42465">
        <ele>79.18329</ele>
        <time>2019-06-19 13:36:00,076</time>
      </trkpt>
      <trkpt lat="43.21067" lon="5.42464">
        <ele>82.13873</ele>
        <time>2019-06-19 13:36:01,081</time>
      </trkpt>
      <trkpt lat="43.21066" lon="5.42463">
        <ele>79.480896</ele>
        <time>2019-06-19 13:36:02,081</time>
      </trkpt>
      <trkpt lat="43.21066" lon="5.42463">
        <ele>79.80078</ele>
        <time>2019-06-19 13:36:03,081</time>
      </trkpt>
      <trkpt lat="43.21066" lon="5.42462">
        <ele>78.40332</ele>
        <time>2019-06-19 13:36:04,078</time>
      </trkpt>
      <trkpt lat="43.21065" lon="5.42461">
        <ele>77.92572</ele>
        <time>2019-06-19 13:36:05,074</time>
      </trkpt>
      <trkpt lat="43.21064" lon="5.42461">
        <ele>76.179016</ele>
        <time>2019-06-19 13:36:09,112</time>
      </trkpt>
      <trkpt lat="43.21063" lon="5.42459">
        <ele>76.429565</ele>
        <time>2019-06-19 13:36:11,244</time>
      </trkpt>
      <trkpt lat="43.21063" lon="5.42458">
        <ele>76.43994</ele>
        <time>2019-06-19 13:36:13,077</time>
      </trkpt>
      <trkpt lat="43.21063" lon="5.42457">
        <ele>76.62213</ele>
        <time>2019-06-19 13:36:14,068</time>
      </trkpt>
      <trkpt lat="43.21062" lon="5.42456">
        <ele>77.36713</ele>
        <time>2019-06-19 13:36:15,077</time>
      </trkpt>
      <trkpt lat="43.21062" lon="5.42456">
        <ele>77.131836</ele>
        <time>2019-06-19 13:36:16,073</time>
      </trkpt>
      <trkpt lat="43.21061" lon="5.42454">
        <ele>76.3891</ele>
        <time>2019-06-19 13:36:17,071</time>
      </trkpt>
      <trkpt lat="43.21061" lon="5.42453">
        <ele>74.12128</ele>
        <time>2019-06-19 13:36:18,075</time>
      </trkpt>
      <trkpt lat="43.21061" lon="5.42452">
        <ele>73.46759</ele>
        <time>2019-06-19 13:36:19,079</time>
      </trkpt>
      <trkpt lat="43.2106" lon="5.42451">
        <ele>76.62103</ele>
        <time>2019-06-19 13:36:20,078</time>
      </trkpt>
      <trkpt lat="43.21061" lon="5.42451">
        <ele>195.50421</ele>
        <time>2019-06-19 13:36:21,076</time>
      </trkpt>
      <trkpt lat="43.21061" lon="5.4245">
        <ele>174.11292</ele>
        <time>2019-06-19 13:36:22,082</time>
      </trkpt>
      <trkpt lat="43.2106" lon="5.4245">
        <ele>76.62213</ele>
        <time>2019-06-19 13:36:23,079</time>
      </trkpt>
      <trkpt lat="43.2106" lon="5.4245">
        <ele>132.32654</ele>
        <time>2019-06-19 13:36:24,084</time>
      </trkpt>
      <trkpt lat="43.2106" lon="5.4245">
        <ele>126.18738</ele>
        <time>2019-06-19 13:36:25,077</time>
      </trkpt>
      <trkpt lat="43.21059" lon="5.42451">
        <ele>115.27411</ele>
        <time>2019-06-19 13:36:26,072</time>
      </trkpt>
      <trkpt lat="43.21058" lon="5.42451">
        <ele>85.54413</ele>
        <time>2019-06-19 13:36:34,081</time>
      </trkpt>
      <trkpt lat="43.21062" lon="5.42443">
        <ele>82.19714</ele>
        <time>2019-06-19 13:36:40,080</time>
      </trkpt>
      <trkpt lat="43.21062" lon="5.42442">
        <ele>81.36084</ele>
        <time>2019-06-19 13:36:42,074</time>
      </trkpt>
      <trkpt lat="43.21064" lon="5.42439">
        <ele>78.98486</ele>
        <time>2019-06-19 13:36:44,072</time>
      </trkpt>
      <trkpt lat="43.21065" lon="5.42438">
        <ele>76.9444</ele>
        <time>2019-06-19 13:36:45,077</time>
      </trkpt>
      <trkpt lat="43.21068" lon="5.42436">
        <ele>74.70288</ele>
        <time>2019-06-19 13:36:48,069</time>
      </trkpt>
      <trkpt lat="43.2107" lon="5.42431">
        <ele>78.98486</ele>
        <time>2019-06-19 13:36:53,072</time>
      </trkpt>
      <trkpt lat="43.2107" lon="5.4243">
        <ele>72.953</ele>
        <time>2019-06-19 13:36:54,072</time>
      </trkpt>
      <trkpt lat="43.21071" lon="5.42429">
        <ele>72.671814</ele>
        <time>2019-06-19 13:36:59,096</time>
      </trkpt>
      <trkpt lat="43.21071" lon="5.42428">
        <ele>71.05408</ele>
        <time>2019-06-19 13:37:09,068</time>
      </trkpt>
      <trkpt lat="43.21078" lon="5.42427">
        <ele>70.23004</ele>
        <time>2019-06-19 13:37:14,085</time>
      </trkpt>
      <trkpt lat="43.21084" lon="5.42427">
        <ele>65.94006</ele>
        <time>2019-06-19 13:37:21,096</time>
      </trkpt>
      <trkpt lat="43.21086" lon="5.42427">
        <ele>65.01422</ele>
        <time>2019-06-19 13:37:22,122</time>
      </trkpt>
      <trkpt lat="43.21087" lon="5.42427">
        <ele>65.05682</ele>
        <time>2019-06-19 13:37:23,070</time>
      </trkpt>
      <trkpt lat="43.21091" lon="5.42424">
        <ele>63.835327</ele>
        <time>2019-06-19 13:37:26,078</time>
      </trkpt>
      <trkpt lat="43.21101" lon="5.42417">
        <ele>63.835327</ele>
        <time>2019-06-19 13:37:36,080</time>
      </trkpt>
      <trkpt lat="43.21103" lon="5.42415">
        <ele>66.46295</ele>
        <time>2019-06-19 13:37:37,082</time>
      </trkpt>
      <trkpt lat="43.21105" lon="5.42414">
        <ele>66.0614</ele>
        <time>2019-06-19 13:37:38,080</time>
      </trkpt>
      <trkpt lat="43.21106" lon="5.42413">
        <ele>65.847534</ele>
        <time>2019-06-19 13:37:39,221</time>
      </trkpt>
      <trkpt lat="43.21108" lon="5.42409">
        <ele>65.543884</ele>
        <time>2019-06-19 13:37:43,078</time>
      </trkpt>
      <trkpt lat="43.21109" lon="5.42409">
        <ele>67.50482</ele>
        <time>2019-06-19 13:37:44,083</time>
      </trkpt>
      <trkpt lat="43.2111" lon="5.42409">
        <ele>65.65869</ele>
        <time>2019-06-19 13:37:45,072</time>
      </trkpt>
      <trkpt lat="43.21111" lon="5.42408">
        <ele>64.43494</ele>
        <time>2019-06-19 13:37:46,185</time>
      </trkpt>
      <trkpt lat="43.21112" lon="5.42406">
        <ele>65.45282</ele>
        <time>2019-06-19 13:37:48,089</time>
      </trkpt>
      <trkpt lat="43.21111" lon="5.42406">
        <ele>64.00073</ele>
        <time>2019-06-19 13:37:49,180</time>
      </trkpt>
      <trkpt lat="43.21111" lon="5.42406">
        <ele>64.288025</ele>
        <time>2019-06-19 13:37:53,077</time>
      </trkpt>
      <trkpt lat="43.21112" lon="5.42406">
        <ele>64.794556</ele>
        <time>2019-06-19 13:37:54,081</time>
      </trkpt>
      <trkpt lat="43.21114" lon="5.42406">
        <ele>65.32562</ele>
        <time>2019-06-19 13:37:55,088</time>
      </trkpt>
      <trkpt lat="43.21115" lon="5.42405">
        <ele>66.51141</ele>
        <time>2019-06-19 13:37:56,085</time>
      </trkpt>
      <trkpt lat="43.21116" lon="5.42405">
        <ele>68.74896</ele>
        <time>2019-06-19 13:37:57,089</time>
      </trkpt>
      <trkpt lat="43.21122" lon="5.42402">
        <ele>74.286865</ele>
        <time>2019-06-19 13:38:03,078</time>
      </trkpt>
      <trkpt lat="43.21123" lon="5.42401">
        <ele>69.96576</ele>
        <time>2019-06-19 13:38:04,090</time>
      </trkpt>
      <trkpt lat="43.21124" lon="5.42401">
        <ele>72.40369</ele>
        <time>2019-06-19 13:38:05,096</time>
      </trkpt>
      <trkpt lat="43.21129" lon="5.42396">
        <ele>66.89978</ele>
        <time>2019-06-19 13:38:10,085</time>
      </trkpt>
      <trkpt lat="43.2113" lon="5.42394">
        <ele>67.84033</ele>
        <time>2019-06-19 13:38:11,084</time>
      </trkpt>
      <trkpt lat="43.2113" lon="5.42393">
        <ele>69.05463</ele>
        <time>2019-06-19 13:38:12,094</time>
      </trkpt>
      <trkpt lat="43.21131" lon="5.42391">
        <ele>69.157715</ele>
        <time>2019-06-19 13:38:13,221</time>
      </trkpt>
      <trkpt lat="43.21133" lon="5.42387">
        <ele>65.894775</ele>
        <time>2019-06-19 13:38:15,081</time>
      </trkpt>
      <trkpt lat="43.21134" lon="5.42384">
        <ele>67.515686</ele>
        <time>2019-06-19 13:38:17,073</time>
      </trkpt>
      <trkpt lat="43.21134" lon="5.42382">
        <ele>67.802734</ele>
        <time>2019-06-19 13:38:18,067</time>
      </trkpt>
      <trkpt lat="43.21135" lon="5.42381">
        <ele>67.63745</ele>
        <time>2019-06-19 13:38:19,062</time>
      </trkpt>
      <trkpt lat="43.21135" lon="5.4238">
        <ele>66.82153</ele>
        <time>2019-06-19 13:38:20,073</time>
      </trkpt>
      <trkpt lat="43.21135" lon="5.42378">
        <ele>67.41516</ele>
        <time>2019-06-19 13:38:22,080</time>
      </trkpt>
      <trkpt lat="43.21135" lon="5.42377">
        <ele>67.25122</ele>
        <time>2019-06-19 13:38:23,077</time>
      </trkpt>
      <trkpt lat="43.21135" lon="5.42374">
        <ele>67.526245</ele>
        <time>2019-06-19 13:38:25,238</time>
      </trkpt>
      <trkpt lat="43.21134" lon="5.42374">
        <ele>67.49585</ele>
        <time>2019-06-19 13:38:27,082</time>
      </trkpt>
      <trkpt lat="43.21135" lon="5.42373">
        <ele>67.26709</ele>
        <time>2019-06-19 13:38:28,257</time>
      </trkpt>
      <trkpt lat="43.21137" lon="5.42368">
        <ele>66.82153</ele>
        <time>2019-06-19 13:38:31,081</time>
      </trkpt>
      <trkpt lat="43.21142" lon="5.4236">
        <ele>66.1297</ele>
        <time>2019-06-19 13:38:37,066</time>
      </trkpt>
      <trkpt lat="43.21143" lon="5.42359">
        <ele>67.427124</ele>
        <time>2019-06-19 13:38:38,069</time>
      </trkpt>
      <trkpt lat="43.21144" lon="5.42358">
        <ele>65.88513</ele>
        <time>2019-06-19 13:38:39,068</time>
      </trkpt>
      <trkpt lat="43.21145" lon="5.42355">
        <ele>63.235474</ele>
        <time>2019-06-19 13:38:42,090</time>
      </trkpt>
      <trkpt lat="43.21146" lon="5.42355">
        <ele>154.81049</ele>
        <time>2019-06-19 13:38:43,086</time>
      </trkpt>
      <trkpt lat="43.21147" lon="5.42354">
        <ele>130.65771</ele>
        <time>2019-06-19 13:38:44,092</time>
      </trkpt>
      <trkpt lat="43.21148" lon="5.42353">
        <ele>113.881165</ele>
        <time>2019-06-19 13:38:45,792</time>
      </trkpt>
      <trkpt lat="43.21149" lon="5.42352">
        <ele>99.53241</ele>
        <time>2019-06-19 13:38:46,796</time>
      </trkpt>
      <trkpt lat="43.21152" lon="5.42345">
        <ele>154.81049</ele>
        <time>2019-06-19 13:38:51,795</time>
      </trkpt>
      <trkpt lat="43.21153" lon="5.42344">
        <ele>80.16498</ele>
        <time>2019-06-19 13:38:52,791</time>
      </trkpt>
      <trkpt lat="43.21154" lon="5.42343">
        <ele>76.815125</ele>
        <time>2019-06-19 13:38:53,797</time>
      </trkpt>
      <trkpt lat="43.21155" lon="5.4234">
        <ele>68.047485</ele>
        <time>2019-06-19 13:38:58,793</time>
      </trkpt>
      <trkpt lat="43.21155" lon="5.42338">
        <ele>66.94043</ele>
        <time>2019-06-19 13:38:59,798</time>
      </trkpt>
      <trkpt lat="43.21156" lon="5.42336">
        <ele>63.79364</ele>
        <time>2019-06-19 13:39:00,871</time>
      </trkpt>
      <trkpt lat="43.21157" lon="5.42335">
        <ele>62.325256</ele>
        <time>2019-06-19 13:39:01,793</time>
      </trkpt>
      <trkpt lat="43.21159" lon="5.42334">
        <ele>80.16498</ele>
        <time>2019-06-19 13:39:02,797</time>
      </trkpt>
      <trkpt lat="43.21162" lon="5.42333">
        <ele>65.68579</ele>
        <time>2019-06-19 13:39:05,795</time>
      </trkpt>
      <trkpt lat="43.21163" lon="5.42332">
        <ele>66.92456</ele>
        <time>2019-06-19 13:39:06,799</time>
      </trkpt>
      <trkpt lat="43.21164" lon="5.42333">
        <ele>66.32294</ele>
        <time>2019-06-19 13:39:07,798</time>
      </trkpt>
      <trkpt lat="43.21165" lon="5.42332">
        <ele>65.79663</ele>
        <time>2019-06-19 13:39:08,827</time>
      </trkpt>
      <trkpt lat="43.21166" lon="5.42332">
        <ele>66.1416</ele>
        <time>2019-06-19 13:39:10,075</time>
      </trkpt>
      <trkpt lat="43.21168" lon="5.4233">
        <ele>66.80609</ele>
        <time>2019-06-19 13:39:11,795</time>
      </trkpt>
      <trkpt lat="43.21168" lon="5.42322">
        <ele>65.29199</ele>
        <time>2019-06-19 13:39:18,793</time>
      </trkpt>
      <trkpt lat="43.21167" lon="5.42318">
        <ele>66.15924</ele>
        <time>2019-06-19 13:39:20,796</time>
      </trkpt>
      <trkpt lat="43.21165" lon="5.42309">
        <ele>68.718994</ele>
        <time>2019-06-19 13:39:26,812</time>
      </trkpt>
      <trkpt lat="43.21165" lon="5.42307">
        <ele>68.528625</ele>
        <time>2019-06-19 13:39:27,831</time>
      </trkpt>
      <trkpt lat="43.21159" lon="5.42299">
        <ele>192.26996</ele>
        <time>2019-06-19 13:39:35,792</time>
      </trkpt>
      <trkpt lat="43.21159" lon="5.42296">
        <ele>161.95428</ele>
        <time>2019-06-19 13:39:37,813</time>
      </trkpt>
      <trkpt lat="43.21158" lon="5.42294">
        <ele>117.79169</ele>
        <time>2019-06-19 13:39:40,796</time>
      </trkpt>
      <trkpt lat="43.21156" lon="5.42291">
        <ele>110.83484</ele>
        <time>2019-06-19 13:39:42,792</time>
      </trkpt>
      <trkpt lat="43.21148" lon="5.42284">
        <ele>85.08435</ele>
        <time>2019-06-19 13:39:51,796</time>
      </trkpt>
      <trkpt lat="43.21145" lon="5.42281">
        <ele>84.46277</ele>
        <time>2019-06-19 13:39:57,794</time>
      </trkpt>
      <trkpt lat="43.21143" lon="5.42279">
        <ele>81.14563</ele>
        <time>2019-06-19 13:39:59,800</time>
      </trkpt>
      <trkpt lat="43.21142" lon="5.42277">
        <ele>78.34613</ele>
        <time>2019-06-19 13:40:01,795</time>
      </trkpt>
      <trkpt lat="43.21141" lon="5.42276">
        <ele>87.16974</ele>
        <time>2019-06-19 13:40:03,797</time>
      </trkpt>
      <trkpt lat="43.2114" lon="5.42275">
        <ele>72.3772</ele>
        <time>2019-06-19 13:40:04,786</time>
      </trkpt>
      <trkpt lat="43.2114" lon="5.42274">
        <ele>70.894165</ele>
        <time>2019-06-19 13:40:05,794</time>
      </trkpt>
      <trkpt lat="43.21139" lon="5.42272">
        <ele>70.746765</ele>
        <time>2019-06-19 13:40:06,807</time>
      </trkpt>
      <trkpt lat="43.21138" lon="5.42271">
        <ele>75.8739</ele>
        <time>2019-06-19 13:40:08,129</time>
      </trkpt>
      <trkpt lat="43.21137" lon="5.4227">
        <ele>74.35986</ele>
        <time>2019-06-19 13:40:09,120</time>
      </trkpt>
      <trkpt lat="43.21135" lon="5.4227">
        <ele>78.24353</ele>
        <time>2019-06-19 13:40:10,114</time>
      </trkpt>
      <trkpt lat="43.21133" lon="5.42269">
        <ele>72.3772</ele>
        <time>2019-06-19 13:40:13,115</time>
      </trkpt>
      <trkpt lat="43.21132" lon="5.42269">
        <ele>75.7287</ele>
        <time>2019-06-19 13:40:14,114</time>
      </trkpt>
      <trkpt lat="43.21131" lon="5.42268">
        <ele>73.73938</ele>
        <time>2019-06-19 13:40:15,115</time>
      </trkpt>
      <trkpt lat="43.21129" lon="5.42268">
        <ele>72.98755</ele>
        <time>2019-06-19 13:40:16,120</time>
      </trkpt>
      <trkpt lat="43.21128" lon="5.42267">
        <ele>72.6886</ele>
        <time>2019-06-19 13:40:17,117</time>
      </trkpt>
      <trkpt lat="43.21127" lon="5.42265">
        <ele>73.45911</ele>
        <time>2019-06-19 13:40:19,116</time>
      </trkpt>
      <trkpt lat="43.21124" lon="5.42265">
        <ele>77.71332</ele>
        <time>2019-06-19 13:40:24,119</time>
      </trkpt>
      <trkpt lat="43.21123" lon="5.42264">
        <ele>77.87628</ele>
        <time>2019-06-19 13:40:25,125</time>
      </trkpt>
      <trkpt lat="43.21122" lon="5.42263">
        <ele>75.296326</ele>
        <time>2019-06-19 13:40:26,116</time>
      </trkpt>
      <trkpt lat="43.2112" lon="5.42262">
        <ele>72.86194</ele>
        <time>2019-06-19 13:40:32,121</time>
      </trkpt>
      <trkpt lat="43.21118" lon="5.42262">
        <ele>71.9906</ele>
        <time>2019-06-19 13:40:33,113</time>
      </trkpt>
      <trkpt lat="43.21115" lon="5.42262">
        <ele>74.23236</ele>
        <time>2019-06-19 13:40:34,114</time>
      </trkpt>
      <trkpt lat="43.21114" lon="5.42262">
        <ele>71.77905</ele>
        <time>2019-06-19 13:40:35,146</time>
      </trkpt>
      <trkpt lat="43.21112" lon="5.42261">
        <ele>72.42529</ele>
        <time>2019-06-19 13:40:36,116</time>
      </trkpt>
      <trkpt lat="43.2111" lon="5.4226">
        <ele>70.93652</ele>
        <time>2019-06-19 13:40:38,113</time>
      </trkpt>
      <trkpt lat="43.21103" lon="5.42252">
        <ele>67.03418</ele>
        <time>2019-06-19 13:40:46,116</time>
      </trkpt>
      <trkpt lat="43.21102" lon="5.4225">
        <ele>67.72583</ele>
        <time>2019-06-19 13:40:47,112</time>
      </trkpt>
      <trkpt lat="43.211" lon="5.42245">
        <ele>67.21948</ele>
        <time>2019-06-19 13:40:50,126</time>
      </trkpt>
      <trkpt lat="43.21099" lon="5.42244">
        <ele>69.4563</ele>
        <time>2019-06-19 13:40:52,117</time>
      </trkpt>
      <trkpt lat="43.21099" lon="5.42243">
        <ele>65.94275</ele>
        <time>2019-06-19 13:40:53,122</time>
      </trkpt>
      <trkpt lat="43.21097" lon="5.42241">
        <ele>74.6084</ele>
        <time>2019-06-19 13:40:55,115</time>
      </trkpt>
      <trkpt lat="43.21095" lon="5.42235">
        <ele>74.39795</ele>
        <time>2019-06-19 13:40:58,115</time>
      </trkpt>
      <trkpt lat="43.21094" lon="5.42234">
        <ele>75.829895</ele>
        <time>2019-06-19 13:40:59,114</time>
      </trkpt>
      <trkpt lat="43.21093" lon="5.42235">
        <ele>83.442566</ele>
        <time>2019-06-19 13:41:00,128</time>
      </trkpt>
      <trkpt lat="43.21089" lon="5.42234">
        <ele>117.30292</ele>
        <time>2019-06-19 13:41:21,544</time>
      </trkpt>
      <trkpt lat="43.21088" lon="5.42234">
        <ele>131.47253</ele>
        <time>2019-06-19 13:41:41,534</time>
      </trkpt>
      <trkpt lat="43.21088" lon="5.42234">
        <ele>82.48877</ele>
        <time>2019-06-19 13:42:01,345</time>
      </trkpt>
      <trkpt lat="43.21088" lon="5.42234">
        <ele>80.36005</ele>
        <time>2019-06-19 13:42:22,353</time>
      </trkpt>
      <trkpt lat="43.21088" lon="5.42234">
        <ele>79.66687</ele>
        <time>2019-06-19 13:42:48,472</time>
      </trkpt>
      <trkpt lat="43.21088" lon="5.42234">
        <ele>79.04498</ele>
        <time>2019-06-19 13:43:18,571</time>
      </trkpt>
      <trkpt lat="43.21088" lon="5.42234">
        <ele>78.84357</ele>
        <time>2019-06-19 13:43:51,349</time>
      </trkpt>
      <trkpt lat="43.21088" lon="5.42234">
        <ele>78.66925</ele>
        <time>2019-06-19 13:44:20,351</time>
      </trkpt>
      <trkpt lat="43.21088" lon="5.42234">
        <ele>78.50256</ele>
        <time>2019-06-19 13:44:50,345</time>
      </trkpt>
      <trkpt lat="43.21085" lon="5.42233">
        <ele>71.9375</ele>
        <time>2019-06-19 13:45:15,600</time>
      </trkpt>
      <trkpt lat="43.21085" lon="5.42233">
        <ele>67.304565</ele>
        <time>2019-06-19 13:45:29,343</time>
      </trkpt>
      <trkpt lat="43.21085" lon="5.42233">
        <ele>67.02826</ele>
        <time>2019-06-19 13:45:30,346</time>
      </trkpt>
      <trkpt lat="43.21085" lon="5.42231">
        <ele>65.67847</ele>
        <time>2019-06-19 13:46:00,349</time>
      </trkpt>
      <trkpt lat="43.21085" lon="5.4223">
        <ele>93.90271</ele>
        <time>2019-06-19 13:46:09,338</time>
      </trkpt>
      <trkpt lat="43.21085" lon="5.42229">
        <ele>88.05121</ele>
        <time>2019-06-19 13:46:10,347</time>
      </trkpt>
      <trkpt lat="43.21085" lon="5.42228">
        <ele>83.3136</ele>
        <time>2019-06-19 13:46:11,351</time>
      </trkpt>
      <trkpt lat="43.21085" lon="5.42227">
        <ele>83.82776</ele>
        <time>2019-06-19 13:46:12,339</time>
      </trkpt>
      <trkpt lat="43.21084" lon="5.42227">
        <ele>80.943115</ele>
        <time>2019-06-19 13:46:13,343</time>
      </trkpt>
      <trkpt lat="43.21084" lon="5.42226">
        <ele>72.95575</ele>
        <time>2019-06-19 13:46:14,339</time>
      </trkpt>
      <trkpt lat="43.21083" lon="5.42224">
        <ele>68.570496</ele>
        <time>2019-06-19 13:46:15,345</time>
      </trkpt>
      <trkpt lat="43.21082" lon="5.42222">
        <ele>68.11499</ele>
        <time>2019-06-19 13:46:17,347</time>
      </trkpt>
      <trkpt lat="43.21082" lon="5.42222">
        <ele>67.358765</ele>
        <time>2019-06-19 13:46:18,405</time>
      </trkpt>
      <trkpt lat="43.21081" lon="5.42221">
        <ele>68.489075</ele>
        <time>2019-06-19 13:46:19,334</time>
      </trkpt>
      <trkpt lat="43.2108" lon="5.42218">
        <ele>72.11597</ele>
        <time>2019-06-19 13:46:21,339</time>
      </trkpt>
      <trkpt lat="43.21079" lon="5.42217">
        <ele>72.07196</ele>
        <time>2019-06-19 13:46:22,348</time>
      </trkpt>
      <trkpt lat="43.21078" lon="5.42215">
        <ele>71.36981</ele>
        <time>2019-06-19 13:46:23,341</time>
      </trkpt>
      <trkpt lat="43.21077" lon="5.42213">
        <ele>72.36328</ele>
        <time>2019-06-19 13:46:24,341</time>
      </trkpt>
      <trkpt lat="43.21078" lon="5.42211">
        <ele>70.383606</ele>
        <time>2019-06-19 13:46:25,349</time>
      </trkpt>
      <trkpt lat="43.21079" lon="5.42206">
        <ele>69.72131</ele>
        <time>2019-06-19 13:46:28,367</time>
      </trkpt>
      <trkpt lat="43.21079" lon="5.42204">
        <ele>69.56116</ele>
        <time>2019-06-19 13:46:29,628</time>
      </trkpt>
      <trkpt lat="43.2108" lon="5.42198">
        <ele>73.78369</ele>
        <time>2019-06-19 13:46:32,337</time>
      </trkpt>
      <trkpt lat="43.2108" lon="5.42196">
        <ele>73.34442</ele>
        <time>2019-06-19 13:46:33,335</time>
      </trkpt>
      <trkpt lat="43.2108" lon="5.42195">
        <ele>73.120544</ele>
        <time>2019-06-19 13:46:34,344</time>
      </trkpt>
      <trkpt lat="43.2108" lon="5.42194">
        <ele>73.232544</ele>
        <time>2019-06-19 13:46:35,579</time>
      </trkpt>
      <trkpt lat="43.21081" lon="5.42192">
        <ele>74.06494</ele>
        <time>2019-06-19 13:46:37,339</time>
      </trkpt>
      <trkpt lat="43.21082" lon="5.42188">
        <ele>75.588135</ele>
        <time>2019-06-19 13:46:39,347</time>
      </trkpt>
      <trkpt lat="43.21082" lon="5.42188">
        <ele>76.06427</ele>
        <time>2019-06-19 13:46:40,338</time>
      </trkpt>
      <trkpt lat="43.21081" lon="5.42186">
        <ele>74.9444</ele>
        <time>2019-06-19 13:46:42,336</time>
      </trkpt>
      <trkpt lat="43.21082" lon="5.42185">
        <ele>72.62439</ele>
        <time>2019-06-19 13:46:43,457</time>
      </trkpt>
      <trkpt lat="43.21082" lon="5.42182">
        <ele>65.029785</ele>
        <time>2019-06-19 13:46:45,511</time>
      </trkpt>
      <trkpt lat="43.21082" lon="5.42179">
        <ele>63.80597</ele>
        <time>2019-06-19 13:46:47,342</time>
      </trkpt>
      <trkpt lat="43.21083" lon="5.42176">
        <ele>62.091614</ele>
        <time>2019-06-19 13:46:49,345</time>
      </trkpt>
      <trkpt lat="43.21083" lon="5.42174">
        <ele>76.06427</ele>
        <time>2019-06-19 13:46:50,336</time>
      </trkpt>
      <trkpt lat="43.21083" lon="5.42169">
        <ele>60.352722</ele>
        <time>2019-06-19 13:46:53,349</time>
      </trkpt>
      <trkpt lat="43.21084" lon="5.42167">
        <ele>59.02295</ele>
        <time>2019-06-19 13:46:54,595</time>
      </trkpt>
      <trkpt lat="43.21085" lon="5.42164">
        <ele>58.82892</ele>
        <time>2019-06-19 13:46:56,334</time>
      </trkpt>
      <trkpt lat="43.21085" lon="5.42163">
        <ele>60.98297</ele>
        <time>2019-06-19 13:46:57,353</time>
      </trkpt>
      <trkpt lat="43.21085" lon="5.42161">
        <ele>60.179565</ele>
        <time>2019-06-19 13:46:58,346</time>
      </trkpt>
      <trkpt lat="43.21085" lon="5.42157">
        <ele>59.698914</ele>
        <time>2019-06-19 13:47:00,352</time>
      </trkpt>
      <trkpt lat="43.21085" lon="5.42155">
        <ele>60.25476</ele>
        <time>2019-06-19 13:47:01,355</time>
      </trkpt>
      <trkpt lat="43.21085" lon="5.42151">
        <ele>62.37854</ele>
        <time>2019-06-19 13:47:03,347</time>
      </trkpt>
      <trkpt lat="43.21085" lon="5.42149">
        <ele>63.838806</ele>
        <time>2019-06-19 13:47:09,347</time>
      </trkpt>
      <trkpt lat="43.21086" lon="5.42148">
        <ele>63.230713</ele>
        <time>2019-06-19 13:47:10,344</time>
      </trkpt>
      <trkpt lat="43.21087" lon="5.42143">
        <ele>65.57123</ele>
        <time>2019-06-19 13:47:14,345</time>
      </trkpt>
      <trkpt lat="43.21087" lon="5.42142">
        <ele>67.83496</ele>
        <time>2019-06-19 13:47:15,342</time>
      </trkpt>
      <trkpt lat="43.21087" lon="5.42141">
        <ele>68.20715</ele>
        <time>2019-06-19 13:47:16,452</time>
      </trkpt>
      <trkpt lat="43.21087" lon="5.42139">
        <ele>67.47772</ele>
        <time>2019-06-19 13:47:18,349</time>
      </trkpt>
      <trkpt lat="43.21087" lon="5.42133">
        <ele>70.46808</ele>
        <time>2019-06-19 13:47:21,346</time>
      </trkpt>
      <trkpt lat="43.21088" lon="5.42128">
        <ele>67.526245</ele>
        <time>2019-06-19 13:47:23,343</time>
      </trkpt>
      <trkpt lat="43.21088" lon="5.42124">
        <ele>71.76831</ele>
        <time>2019-06-19 13:47:28,343</time>
      </trkpt>
      <trkpt lat="43.21088" lon="5.42122">
        <ele>72.438416</ele>
        <time>2019-06-19 13:47:29,347</time>
      </trkpt>
      <trkpt lat="43.21088" lon="5.42121">
        <ele>73.615234</ele>
        <time>2019-06-19 13:47:30,341</time>
      </trkpt>
      <trkpt lat="43.21088" lon="5.42114">
        <ele>71.701294</ele>
        <time>2019-06-19 13:47:35,338</time>
      </trkpt>
      <trkpt lat="43.21088" lon="5.42113">
        <ele>71.98114</ele>
        <time>2019-06-19 13:47:37,364</time>
      </trkpt>
      <trkpt lat="43.21088" lon="5.42113">
        <ele>70.87109</ele>
        <time>2019-06-19 13:47:38,393</time>
      </trkpt>
      <trkpt lat="43.2109" lon="5.4211">
        <ele>71.28656</ele>
        <time>2019-06-19 13:47:41,347</time>
      </trkpt>
      <trkpt lat="43.21091" lon="5.42107">
        <ele>69.25549</ele>
        <time>2019-06-19 13:47:43,387</time>
      </trkpt>
      <trkpt lat="43.21091" lon="5.42107">
        <ele>71.81995</ele>
        <time>2019-06-19 13:47:44,338</time>
      </trkpt>
      <trkpt lat="43.21092" lon="5.42104">
        <ele>73.00586</ele>
        <time>2019-06-19 13:47:47,360</time>
      </trkpt>
      <trkpt lat="43.21092" lon="5.42102">
        <ele>72.57941</ele>
        <time>2019-06-19 13:47:48,343</time>
      </trkpt>
      <trkpt lat="43.21093" lon="5.421">
        <ele>72.804504</ele>
        <time>2019-06-19 13:47:49,355</time>
      </trkpt>
      <trkpt lat="43.21099" lon="5.42087">
        <ele>62.18225</ele>
        <time>2019-06-19 13:47:57,343</time>
      </trkpt>
      <trkpt lat="43.21099" lon="5.42085">
        <ele>64.16876</ele>
        <time>2019-06-19 13:47:58,361</time>
      </trkpt>
      <trkpt lat="43.21099" lon="5.42084">
        <ele>66.67395</ele>
        <time>2019-06-19 13:47:59,349</time>
      </trkpt>
      <trkpt lat="43.21098" lon="5.42082">
        <ele>65.83191</ele>
        <time>2019-06-19 13:48:01,339</time>
      </trkpt>
      <trkpt lat="43.21098" lon="5.42082">
        <ele>65.22406</ele>
        <time>2019-06-19 13:48:03,352</time>
      </trkpt>
      <trkpt lat="43.21099" lon="5.42079">
        <ele>64.25049</ele>
        <time>2019-06-19 13:48:06,356</time>
      </trkpt>
      <trkpt lat="43.211" lon="5.42077">
        <ele>63.526</ele>
        <time>2019-06-19 13:48:08,356</time>
      </trkpt>
      <trkpt lat="43.211" lon="5.42076">
        <ele>63.015625</ele>
        <time>2019-06-19 13:48:09,347</time>
      </trkpt>
      <trkpt lat="43.211" lon="5.42075">
        <ele>63.593323</ele>
        <time>2019-06-19 13:48:10,489</time>
      </trkpt>
      <trkpt lat="43.21101" lon="5.42072">
        <ele>61.58435</ele>
        <time>2019-06-19 13:48:12,342</time>
      </trkpt>
      <trkpt lat="43.21102" lon="5.4207">
        <ele>62.90985</ele>
        <time>2019-06-19 13:48:13,348</time>
      </trkpt>
      <trkpt lat="43.21102" lon="5.42069">
        <ele>62.267212</ele>
        <time>2019-06-19 13:48:14,416</time>
      </trkpt>
      <trkpt lat="43.21103" lon="5.42068">
        <ele>60.799255</ele>
        <time>2019-06-19 13:48:15,345</time>
      </trkpt>
      <trkpt lat="43.21103" lon="5.42067">
        <ele>60.522217</ele>
        <time>2019-06-19 13:48:16,351</time>
      </trkpt>
      <trkpt lat="43.21104" lon="5.42064">
        <ele>59.89862</ele>
        <time>2019-06-19 13:48:18,382</time>
      </trkpt>
      <trkpt lat="43.21103" lon="5.42059">
        <ele>61.0271</ele>
        <time>2019-06-19 13:48:21,419</time>
      </trkpt>
      <trkpt lat="43.21104" lon="5.42056">
        <ele>56.5343</ele>
        <time>2019-06-19 13:48:23,356</time>
      </trkpt>
      <trkpt lat="43.21104" lon="5.4205">
        <ele>59.53827</ele>
        <time>2019-06-19 13:48:26,340</time>
      </trkpt>
      <trkpt lat="43.21104" lon="5.42048">
        <ele>58.96649</ele>
        <time>2019-06-19 13:48:27,358</time>
      </trkpt>
      <trkpt lat="43.21103" lon="5.42047">
        <ele>58.24774</ele>
        <time>2019-06-19 13:48:28,356</time>
      </trkpt>
      <trkpt lat="43.21103" lon="5.42046">
        <ele>58.812195</ele>
        <time>2019-06-19 13:48:31,347</time>
      </trkpt>
      <trkpt lat="43.21103" lon="5.42044">
        <ele>59.04962</ele>
        <time>2019-06-19 13:48:32,480</time>
      </trkpt>
      <trkpt lat="43.21104" lon="5.42042">
        <ele>59.731445</ele>
        <time>2019-06-19 13:48:34,344</time>
      </trkpt>
      <trkpt lat="43.21104" lon="5.42039">
        <ele>58.30725</ele>
        <time>2019-06-19 13:48:37,377</time>
      </trkpt>
      <trkpt lat="43.21104" lon="5.42038">
        <ele>59.28351</ele>
        <time>2019-06-19 13:48:41,359</time>
      </trkpt>
      <trkpt lat="43.21104" lon="5.42036">
        <ele>61.05603</ele>
        <time>2019-06-19 13:48:42,352</time>
      </trkpt>
      <trkpt lat="43.21104" lon="5.42036">
        <ele>61.772095</ele>
        <time>2019-06-19 13:48:43,357</time>
      </trkpt>
      <trkpt lat="43.21103" lon="5.42034">
        <ele>64.19354</ele>
        <time>2019-06-19 13:48:45,352</time>
      </trkpt>
      <trkpt lat="43.21103" lon="5.42032">
        <ele>64.71747</ele>
        <time>2019-06-19 13:48:47,350</time>
      </trkpt>
      <trkpt lat="43.21104" lon="5.42028">
        <ele>59.359436</ele>
        <time>2019-06-19 13:48:49,335</time>
      </trkpt>
      <trkpt lat="43.21105" lon="5.42028">
        <ele>61.88031</ele>
        <time>2019-06-19 13:48:54,346</time>
      </trkpt>
      <trkpt lat="43.21105" lon="5.42028">
        <ele>61.295166</ele>
        <time>2019-06-19 13:48:55,364</time>
      </trkpt>
      <trkpt lat="43.21105" lon="5.42027">
        <ele>60.297974</ele>
        <time>2019-06-19 13:48:56,354</time>
      </trkpt>
      <trkpt lat="43.21104" lon="5.42027">
        <ele>61.400574</ele>
        <time>2019-06-19 13:48:58,352</time>
      </trkpt>
      <trkpt lat="43.21104" lon="5.42026">
        <ele>60.473267</ele>
        <time>2019-06-19 13:48:59,493</time>
      </trkpt>
      <trkpt lat="43.21103" lon="5.42025">
        <ele>61.865234</ele>
        <time>2019-06-19 13:49:01,667</time>
      </trkpt>
      <trkpt lat="43.21103" lon="5.42022">
        <ele>63.045532</ele>
        <time>2019-06-19 13:49:03,352</time>
      </trkpt>
      <trkpt lat="43.21103" lon="5.42021">
        <ele>61.445984</ele>
        <time>2019-06-19 13:49:04,340</time>
      </trkpt>
      <trkpt lat="43.21102" lon="5.42021">
        <ele>61.46112</ele>
        <time>2019-06-19 13:49:05,347</time>
      </trkpt>
      <trkpt lat="43.21102" lon="5.42021">
        <ele>61.071716</ele>
        <time>2019-06-19 13:49:06,350</time>
      </trkpt>
      <trkpt lat="43.211" lon="5.42021">
        <ele>61.684143</ele>
        <time>2019-06-19 13:49:08,356</time>
      </trkpt>
      <trkpt lat="43.21099" lon="5.42021">
        <ele>58.78772</ele>
        <time>2019-06-19 13:49:09,365</time>
      </trkpt>
      <trkpt lat="43.21097" lon="5.4202">
        <ele>58.486755</ele>
        <time>2019-06-19 13:49:10,347</time>
      </trkpt>
      <trkpt lat="43.21096" lon="5.42019">
        <ele>61.865234</ele>
        <time>2019-06-19 13:49:11,353</time>
      </trkpt>
      <trkpt lat="43.21094" lon="5.42019">
        <ele>59.155396</ele>
        <time>2019-06-19 13:49:12,350</time>
      </trkpt>
      <trkpt lat="43.2109" lon="5.42018">
        <ele>57.524963</ele>
        <time>2019-06-19 13:49:14,381</time>
      </trkpt>
      <trkpt lat="43.21085" lon="5.42017">
        <ele>55.394897</ele>
        <time>2019-06-19 13:49:17,496</time>
      </trkpt>
      <trkpt lat="43.21084" lon="5.42016">
        <ele>56.982788</ele>
        <time>2019-06-19 13:49:19,359</time>
      </trkpt>
      <trkpt lat="43.2108" lon="5.42011">
        <ele>58.67383</ele>
        <time>2019-06-19 13:49:23,346</time>
      </trkpt>
      <trkpt lat="43.21079" lon="5.4201">
        <ele>58.793762</ele>
        <time>2019-06-19 13:49:24,355</time>
      </trkpt>
      <trkpt lat="43.21077" lon="5.42009">
        <ele>59.53717</ele>
        <time>2019-06-19 13:49:25,378</time>
      </trkpt>
      <trkpt lat="43.21076" lon="5.42008">
        <ele>60.60376</ele>
        <time>2019-06-19 13:49:27,348</time>
      </trkpt>
      <trkpt lat="43.21076" lon="5.42008">
        <ele>59.76477</ele>
        <time>2019-06-19 13:49:30,348</time>
      </trkpt>
      <trkpt lat="43.21077" lon="5.42006">
        <ele>58.67383</ele>
        <time>2019-06-19 13:49:32,431</time>
      </trkpt>
      <trkpt lat="43.21077" lon="5.42004">
        <ele>61.788757</ele>
        <time>2019-06-19 13:49:33,345</time>
      </trkpt>
      <trkpt lat="43.21077" lon="5.42003">
        <ele>61.95056</ele>
        <time>2019-06-19 13:49:34,352</time>
      </trkpt>
      <trkpt lat="43.21077" lon="5.42002">
        <ele>61.344604</ele>
        <time>2019-06-19 13:49:36,341</time>
      </trkpt>
      <trkpt lat="43.21075" lon="5.42001">
        <ele>60.46173</ele>
        <time>2019-06-19 13:49:39,368</time>
      </trkpt>
      <trkpt lat="43.21074" lon="5.42">
        <ele>61.439392</ele>
        <time>2019-06-19 13:49:40,351</time>
      </trkpt>
      <trkpt lat="43.2107" lon="5.41998">
        <ele>61.788757</ele>
        <time>2019-06-19 13:49:42,438</time>
      </trkpt>
      <trkpt lat="43.21069" lon="5.41998">
        <ele>59.522583</ele>
        <time>2019-06-19 13:49:43,356</time>
      </trkpt>
      <trkpt lat="43.21069" lon="5.41997">
        <ele>58.4151</ele>
        <time>2019-06-19 13:49:44,361</time>
      </trkpt>
      <trkpt lat="43.21068" lon="5.41998">
        <ele>58.156433</ele>
        <time>2019-06-19 13:49:45,350</time>
      </trkpt>
      <trkpt lat="43.21067" lon="5.41997">
        <ele>58.526306</ele>
        <time>2019-06-19 13:49:46,353</time>
      </trkpt>
      <trkpt lat="43.21066" lon="5.41996">
        <ele>58.20996</ele>
        <time>2019-06-19 13:49:47,343</time>
      </trkpt>
      <trkpt lat="43.21065" lon="5.41995">
        <ele>57.708008</ele>
        <time>2019-06-19 13:49:48,349</time>
      </trkpt>
      <trkpt lat="43.21063" lon="5.41993">
        <ele>57.880676</ele>
        <time>2019-06-19 13:49:50,348</time>
      </trkpt>
      <trkpt lat="43.21062" lon="5.41993">
        <ele>57.25586</ele>
        <time>2019-06-19 13:49:51,453</time>
      </trkpt>
      <trkpt lat="43.21058" lon="5.41992">
        <ele>59.522583</ele>
        <time>2019-06-19 13:49:53,597</time>
      </trkpt>
      <trkpt lat="43.21055" lon="5.41991">
        <ele>56.92859</ele>
        <time>2019-06-19 13:49:55,344</time>
      </trkpt>
      <trkpt lat="43.21054" lon="5.41991">
        <ele>55.894714</ele>
        <time>2019-06-19 13:49:56,346</time>
      </trkpt>
      <trkpt lat="43.21052" lon="5.41991">
        <ele>54.130127</ele>
        <time>2019-06-19 13:49:57,504</time>
      </trkpt>
      <trkpt lat="43.2105" lon="5.41992">
        <ele>52.49475</ele>
        <time>2019-06-19 13:49:59,350</time>
      </trkpt>
      <trkpt lat="43.21049" lon="5.41993">
        <ele>53.05237</ele>
        <time>2019-06-19 13:50:00,350</time>
      </trkpt>
      <trkpt lat="43.21047" lon="5.41994">
        <ele>54.78369</ele>
        <time>2019-06-19 13:50:03,344</time>
      </trkpt>
      <trkpt lat="43.21046" lon="5.41994">
        <ele>55.384033</ele>
        <time>2019-06-19 13:50:04,351</time>
      </trkpt>
      <trkpt lat="43.21045" lon="5.41994">
        <ele>55.894714</ele>
        <time>2019-06-19 13:50:05,352</time>
      </trkpt>
      <trkpt lat="43.21045" lon="5.41993">
        <ele>52.41748</ele>
        <time>2019-06-19 13:50:06,345</time>
      </trkpt>
      <trkpt lat="43.21043" lon="5.41993">
        <ele>52.42383</ele>
        <time>2019-06-19 13:50:07,392</time>
      </trkpt>
      <trkpt lat="43.2104" lon="5.41993">
        <ele>53.096375</ele>
        <time>2019-06-19 13:50:09,346</time>
      </trkpt>
      <trkpt lat="43.21038" lon="5.41994">
        <ele>52.920532</ele>
        <time>2019-06-19 13:50:10,344</time>
      </trkpt>
      <trkpt lat="43.21036" lon="5.41995">
        <ele>54.128967</ele>
        <time>2019-06-19 13:50:11,347</time>
      </trkpt>
      <trkpt lat="43.21031" lon="5.41998">
        <ele>55.57312</ele>
        <time>2019-06-19 13:50:14,346</time>
      </trkpt>
      <trkpt lat="43.21031" lon="5.42">
        <ele>52.41748</ele>
        <time>2019-06-19 13:50:15,341</time>
      </trkpt>
      <trkpt lat="43.21031" lon="5.42001">
        <ele>54.589294</ele>
        <time>2019-06-19 13:50:16,346</time>
      </trkpt>
      <trkpt lat="43.2103" lon="5.42002">
        <ele>51.526184</ele>
        <time>2019-06-19 13:50:17,342</time>
      </trkpt>
      <trkpt lat="43.2103" lon="5.42004">
        <ele>52.32843</ele>
        <time>2019-06-19 13:50:18,344</time>
      </trkpt>
      <trkpt lat="43.2103" lon="5.42007">
        <ele>55.402588</ele>
        <time>2019-06-19 13:50:19,347</time>
      </trkpt>
      <trkpt lat="43.2103" lon="5.42011">
        <ele>55.844055</ele>
        <time>2019-06-19 13:50:20,345</time>
      </trkpt>
      <trkpt lat="43.21029" lon="5.42013">
        <ele>56.09613</ele>
        <time>2019-06-19 13:50:24,341</time>
      </trkpt>
      <trkpt lat="43.21029" lon="5.42013">
        <ele>54.589294</ele>
        <time>2019-06-19 13:50:25,384</time>
      </trkpt>
      <trkpt lat="43.21028" lon="5.42012">
        <ele>55.15973</ele>
        <time>2019-06-19 13:50:26,339</time>
      </trkpt>
      <trkpt lat="43.21027" lon="5.4201">
        <ele>55.419006</ele>
        <time>2019-06-19 13:50:27,339</time>
      </trkpt>
      <trkpt lat="43.21027" lon="5.42009">
        <ele>57.076538</ele>
        <time>2019-06-19 13:50:28,347</time>
      </trkpt>
      <trkpt lat="43.21027" lon="5.42009">
        <ele>57.973633</ele>
        <time>2019-06-19 13:50:30,340</time>
      </trkpt>
      <trkpt lat="43.21026" lon="5.42008">
        <ele>60.519043</ele>
        <time>2019-06-19 13:50:31,333</time>
      </trkpt>
      <trkpt lat="43.21027" lon="5.42009">
        <ele>64.71661</ele>
        <time>2019-06-19 13:50:32,344</time>
      </trkpt>
      <trkpt lat="43.21027" lon="5.42009">
        <ele>64.59967</ele>
        <time>2019-06-19 13:50:34,369</time>
      </trkpt>
      <trkpt lat="43.21027" lon="5.4201">
        <ele>55.15973</ele>
        <time>2019-06-19 13:50:35,343</time>
      </trkpt>
      <trkpt lat="43.21027" lon="5.4201">
        <ele>63.619873</ele>
        <time>2019-06-19 13:50:36,444</time>
      </trkpt>
      <trkpt lat="43.21026" lon="5.42009">
        <ele>62.846252</ele>
        <time>2019-06-19 13:50:42,338</time>
      </trkpt>
      <trkpt lat="43.21025" lon="5.4201">
        <ele>61.54718</ele>
        <time>2019-06-19 13:50:43,349</time>
      </trkpt>
      <trkpt lat="43.21024" lon="5.42011">
        <ele>62.194458</ele>
        <time>2019-06-19 13:50:44,333</time>
      </trkpt>
      <trkpt lat="43.21023" lon="5.42012">
        <ele>65.20703</ele>
        <time>2019-06-19 13:50:45,339</time>
      </trkpt>
      <trkpt lat="43.21022" lon="5.42013">
        <ele>63.6474</ele>
        <time>2019-06-19 13:50:47,341</time>
      </trkpt>
      <trkpt lat="43.21021" lon="5.42013">
        <ele>64.22864</ele>
        <time>2019-06-19 13:50:48,344</time>
      </trkpt>
      <trkpt lat="43.21021" lon="5.42013">
        <ele>62.397827</ele>
        <time>2019-06-19 13:50:49,343</time>
      </trkpt>
      <trkpt lat="43.2102" lon="5.42013">
        <ele>62.134277</ele>
        <time>2019-06-19 13:50:50,341</time>
      </trkpt>
      <trkpt lat="43.21019" lon="5.42013">
        <ele>61.685852</ele>
        <time>2019-06-19 13:50:52,336</time>
      </trkpt>
      <trkpt lat="43.21018" lon="5.42013">
        <ele>62.395508</ele>
        <time>2019-06-19 13:50:53,353</time>
      </trkpt>
      <trkpt lat="43.21016" lon="5.42012">
        <ele>62.3526</ele>
        <time>2019-06-19 13:50:55,342</time>
      </trkpt>
      <trkpt lat="43.21016" lon="5.42011">
        <ele>63.6474</ele>
        <time>2019-06-19 13:50:56,362</time>
      </trkpt>
      <trkpt lat="43.21016" lon="5.42011">
        <ele>61.813293</ele>
        <time>2019-06-19 13:50:57,354</time>
      </trkpt>
      <trkpt lat="43.21015" lon="5.42011">
        <ele>60.92981</ele>
        <time>2019-06-19 13:50:58,462</time>
      </trkpt>
      <trkpt lat="43.21014" lon="5.4201">
        <ele>60.954712</ele>
        <time>2019-06-19 13:51:00,354</time>
      </trkpt>
      <trkpt lat="43.21013" lon="5.42009">
        <ele>61.545654</ele>
        <time>2019-06-19 13:51:02,343</time>
      </trkpt>
      <trkpt lat="43.21012" lon="5.42008">
        <ele>61.39447</ele>
        <time>2019-06-19 13:51:03,679</time>
      </trkpt>
      <trkpt lat="43.21011" lon="5.42007">
        <ele>59.528076</ele>
        <time>2019-06-19 13:51:05,339</time>
      </trkpt>
      <trkpt lat="43.2101" lon="5.42007">
        <ele>59.452087</ele>
        <time>2019-06-19 13:51:06,349</time>
      </trkpt>
      <trkpt lat="43.2101" lon="5.42008">
        <ele>59.686523</ele>
        <time>2019-06-19 13:51:07,552</time>
      </trkpt>
      <trkpt lat="43.2101" lon="5.42004">
        <ele>59.0343</ele>
        <time>2019-06-19 13:51:09,339</time>
      </trkpt>
      <trkpt lat="43.21011" lon="5.42002">
        <ele>58.635864</ele>
        <time>2019-06-19 13:51:10,534</time>
      </trkpt>
      <trkpt lat="43.21012" lon="5.41999">
        <ele>59.448547</ele>
        <time>2019-06-19 13:51:13,352</time>
      </trkpt>
      <trkpt lat="43.21012" lon="5.41998">
        <ele>58.805176</ele>
        <time>2019-06-19 13:51:14,345</time>
      </trkpt>
      <trkpt lat="43.21011" lon="5.41995">
        <ele>56.517456</ele>
        <time>2019-06-19 13:51:15,345</time>
      </trkpt>
      <trkpt lat="43.21011" lon="5.41994">
        <ele>58.287537</ele>
        <time>2019-06-19 13:51:16,334</time>
      </trkpt>
      <trkpt lat="43.21011" lon="5.41993">
        <ele>56.549927</ele>
        <time>2019-06-19 13:51:17,574</time>
      </trkpt>
      <trkpt lat="43.21011" lon="5.41991">
        <ele>56.001038</ele>
        <time>2019-06-19 13:51:19,358</time>
      </trkpt>
      <trkpt lat="43.2101" lon="5.41989">
        <ele>55.956665</ele>
        <time>2019-06-19 13:51:20,339</time>
      </trkpt>
      <trkpt lat="43.21009" lon="5.41987">
        <ele>55.166748</ele>
        <time>2019-06-19 13:51:21,340</time>
      </trkpt>
      <trkpt lat="43.21007" lon="5.41986">
        <ele>54.524475</ele>
        <time>2019-06-19 13:51:22,333</time>
      </trkpt>
      <trkpt lat="43.21005" lon="5.41985">
        <ele>54.72107</ele>
        <time>2019-06-19 13:51:25,343</time>
      </trkpt>
      <trkpt lat="43.21004" lon="5.41985">
        <ele>54.0907</ele>
        <time>2019-06-19 13:51:26,354</time>
      </trkpt>
      <trkpt lat="43.21003" lon="5.41984">
        <ele>52.7843</ele>
        <time>2019-06-19 13:51:30,347</time>
      </trkpt>
      <trkpt lat="43.21003" lon="5.41984">
        <ele>55.023132</ele>
        <time>2019-06-19 13:51:31,340</time>
      </trkpt>
      <trkpt lat="43.21003" lon="5.41983">
        <ele>56.365784</ele>
        <time>2019-06-19 13:51:32,340</time>
      </trkpt>
      <trkpt lat="43.21001" lon="5.41984">
        <ele>58.3963</ele>
        <time>2019-06-19 13:51:52,346</time>
      </trkpt>
      <trkpt lat="43.21" lon="5.41983">
        <ele>56.97809</ele>
        <time>2019-06-19 13:51:53,349</time>
      </trkpt>
      <trkpt lat="43.20999" lon="5.41983">
        <ele>57.515564</ele>
        <time>2019-06-19 13:51:54,340</time>
      </trkpt>
      <trkpt lat="43.20998" lon="5.41984">
        <ele>56.841064</ele>
        <time>2019-06-19 13:51:55,343</time>
      </trkpt>
      <trkpt lat="43.20997" lon="5.41984">
        <ele>56.20392</ele>
        <time>2019-06-19 13:51:56,345</time>
      </trkpt>
      <trkpt lat="43.20996" lon="5.41985">
        <ele>56.731445</ele>
        <time>2019-06-19 13:51:57,338</time>
      </trkpt>
      <trkpt lat="43.20995" lon="5.41984">
        <ele>59.692078</ele>
        <time>2019-06-19 13:52:01,341</time>
      </trkpt>
      <trkpt lat="43.20994" lon="5.41984">
        <ele>59.7052</ele>
        <time>2019-06-19 13:52:02,343</time>
      </trkpt>
      <trkpt lat="43.20993" lon="5.41984">
        <ele>61.53174</ele>
        <time>2019-06-19 13:52:03,337</time>
      </trkpt>
      <trkpt lat="43.20993" lon="5.41983">
        <ele>61.81653</ele>
        <time>2019-06-19 13:52:04,343</time>
      </trkpt>
      <trkpt lat="43.20992" lon="5.41983">
        <ele>60.691956</ele>
        <time>2019-06-19 13:52:05,347</time>
      </trkpt>
      <trkpt lat="43.20992" lon="5.41982">
        <ele>60.49414</ele>
        <time>2019-06-19 13:52:06,346</time>
      </trkpt>
      <trkpt lat="43.20991" lon="5.41983">
        <ele>60.7666</ele>
        <time>2019-06-19 13:52:08,340</time>
      </trkpt>
      <trkpt lat="43.2099" lon="5.41982">
        <ele>61.73291</ele>
        <time>2019-06-19 13:52:09,340</time>
      </trkpt>
      <trkpt lat="43.2099" lon="5.41982">
        <ele>61.71106</ele>
        <time>2019-06-19 13:52:10,340</time>
      </trkpt>
      <trkpt lat="43.2099" lon="5.41983">
        <ele>61.809204</ele>
        <time>2019-06-19 13:52:11,338</time>
      </trkpt>
      <trkpt lat="43.2099" lon="5.41983">
        <ele>61.60382</ele>
        <time>2019-06-19 13:52:12,331</time>
      </trkpt>
      <trkpt lat="43.20989" lon="5.41983">
        <ele>61.745117</ele>
        <time>2019-06-19 13:52:13,353</time>
      </trkpt>
      <trkpt lat="43.20988" lon="5.41983">
        <ele>63.10083</ele>
        <time>2019-06-19 13:52:14,339</time>
      </trkpt>
      <trkpt lat="43.20988" lon="5.41983">
        <ele>62.43445</ele>
        <time>2019-06-19 13:52:15,330</time>
      </trkpt>
      <trkpt lat="43.20987" lon="5.41983">
        <ele>62.979797</ele>
        <time>2019-06-19 13:52:16,336</time>
      </trkpt>
      <trkpt lat="43.20986" lon="5.41983">
        <ele>61.936157</ele>
        <time>2019-06-19 13:52:23,338</time>
      </trkpt>
      <trkpt lat="43.20985" lon="5.41982">
        <ele>62.676453</ele>
        <time>2019-06-19 13:52:24,343</time>
      </trkpt>
      <trkpt lat="43.20984" lon="5.41982">
        <ele>62.845764</ele>
        <time>2019-06-19 13:52:25,363</time>
      </trkpt>
      <trkpt lat="43.20984" lon="5.41983">
        <ele>63.35791</ele>
        <time>2019-06-19 13:52:26,611</time>
      </trkpt>
      <trkpt lat="43.20981" lon="5.41983">
        <ele>62.808044</ele>
        <time>2019-06-19 13:52:28,364</time>
      </trkpt>
      <trkpt lat="43.2098" lon="5.41983">
        <ele>64.98126</ele>
        <time>2019-06-19 13:52:29,573</time>
      </trkpt>
      <trkpt lat="43.2098" lon="5.41985">
        <ele>64.95648</ele>
        <time>2019-06-19 13:52:31,342</time>
      </trkpt>
      <trkpt lat="43.20979" lon="5.41986">
        <ele>63.358032</ele>
        <time>2019-06-19 13:52:32,351</time>
      </trkpt>
      <trkpt lat="43.20978" lon="5.41987">
        <ele>63.557556</ele>
        <time>2019-06-19 13:52:33,348</time>
      </trkpt>
      <trkpt lat="43.20972" lon="5.41991">
        <ele>64.78711</ele>
        <time>2019-06-19 13:52:37,395</time>
      </trkpt>
      <trkpt lat="43.2097" lon="5.41992">
        <ele>64.96393</ele>
        <time>2019-06-19 13:52:38,354</time>
      </trkpt>
      <trkpt lat="43.20968" lon="5.41995">
        <ele>151.42578</ele>
        <time>2019-06-19 13:52:41,349</time>
      </trkpt>
      <trkpt lat="43.20968" lon="5.41995">
        <ele>134.65637</ele>
        <time>2019-06-19 13:52:42,349</time>
      </trkpt>
      <trkpt lat="43.20968" lon="5.41996">
        <ele>116.8454</ele>
        <time>2019-06-19 13:52:43,351</time>
      </trkpt>
      <trkpt lat="43.20967" lon="5.41996">
        <ele>112.47333</ele>
        <time>2019-06-19 13:52:44,341</time>
      </trkpt>
      <trkpt lat="43.20966" lon="5.41998">
        <ele>104.71008</ele>
        <time>2019-06-19 13:52:45,443</time>
      </trkpt>
      <trkpt lat="43.20966" lon="5.41998">
        <ele>99.31677</ele>
        <time>2019-06-19 13:52:46,355</time>
      </trkpt>
      <trkpt lat="43.20962" lon="5.42003">
        <ele>91.50287</ele>
        <time>2019-06-19 13:52:49,410</time>
      </trkpt>
      <trkpt lat="43.20959" lon="5.42006">
        <ele>78.0625</ele>
        <time>2019-06-19 13:52:52,357</time>
      </trkpt>
      <trkpt lat="43.20958" lon="5.42007">
        <ele>75.48706</ele>
        <time>2019-06-19 13:52:53,352</time>
      </trkpt>
      <trkpt lat="43.20955" lon="5.42009">
        <ele>73.95569</ele>
        <time>2019-06-19 13:52:55,385</time>
      </trkpt>
      <trkpt lat="43.20954" lon="5.42011">
        <ele>72.058716</ele>
        <time>2019-06-19 13:52:57,340</time>
      </trkpt>
      <trkpt lat="43.20954" lon="5.42015">
        <ele>72.173584</ele>
        <time>2019-06-19 13:53:00,338</time>
      </trkpt>
      <trkpt lat="43.20954" lon="5.42016">
        <ele>68.041565</ele>
        <time>2019-06-19 13:53:06,340</time>
      </trkpt>
      <trkpt lat="43.20954" lon="5.42017">
        <ele>68.21539</ele>
        <time>2019-06-19 13:53:07,351</time>
      </trkpt>
      <trkpt lat="43.20952" lon="5.42019">
        <ele>70.28015</ele>
        <time>2019-06-19 13:53:10,347</time>
      </trkpt>
      <trkpt lat="43.20951" lon="5.42019">
        <ele>69.46979</ele>
        <time>2019-06-19 13:53:11,357</time>
      </trkpt>
      <trkpt lat="43.2095" lon="5.42019">
        <ele>67.67786</ele>
        <time>2019-06-19 13:53:12,348</time>
      </trkpt>
      <trkpt lat="43.20949" lon="5.42019">
        <ele>66.397766</ele>
        <time>2019-06-19 13:53:13,336</time>
      </trkpt>
      <trkpt lat="43.20949" lon="5.42021">
        <ele>63.37262</ele>
        <time>2019-06-19 13:53:18,345</time>
      </trkpt>
      <trkpt lat="43.20949" lon="5.42022">
        <ele>63.891663</ele>
        <time>2019-06-19 13:53:19,498</time>
      </trkpt>
      <trkpt lat="43.20949" lon="5.42025">
        <ele>64.93823</ele>
        <time>2019-06-19 13:53:21,342</time>
      </trkpt>
      <trkpt lat="43.20949" lon="5.42025">
        <ele>63.49402</ele>
        <time>2019-06-19 13:53:22,425</time>
      </trkpt>
      <trkpt lat="43.20948" lon="5.42026">
        <ele>63.117126</ele>
        <time>2019-06-19 13:53:23,341</time>
      </trkpt>
      <trkpt lat="43.20947" lon="5.42026">
        <ele>62.34851</ele>
        <time>2019-06-19 13:53:24,456</time>
      </trkpt>
      <trkpt lat="43.20946" lon="5.42026">
        <ele>63.108765</ele>
        <time>2019-06-19 13:53:26,449</time>
      </trkpt>
      <trkpt lat="43.20947" lon="5.42027">
        <ele>61.437378</ele>
        <time>2019-06-19 13:53:28,536</time>
      </trkpt>
      <trkpt lat="43.20948" lon="5.42029">
        <ele>59.25879</ele>
        <time>2019-06-19 13:53:33,337</time>
      </trkpt>
      <trkpt lat="43.20949" lon="5.42029">
        <ele>61.154602</ele>
        <time>2019-06-19 13:53:34,451</time>
      </trkpt>
      <trkpt lat="43.2095" lon="5.4203">
        <ele>60.894714</ele>
        <time>2019-06-19 13:53:54,339</time>
      </trkpt>
      <trkpt lat="43.2095" lon="5.4203">
        <ele>60.001343</ele>
        <time>2019-06-19 13:53:55,549</time>
      </trkpt>
      <trkpt lat="43.20949" lon="5.4203">
        <ele>60.597656</ele>
        <time>2019-06-19 13:53:57,347</time>
      </trkpt>
      <trkpt lat="43.20948" lon="5.4203">
        <ele>61.02368</ele>
        <time>2019-06-19 13:53:58,572</time>
      </trkpt>
      <trkpt lat="43.20947" lon="5.4203">
        <ele>60.677795</ele>
        <time>2019-06-19 13:54:00,337</time>
      </trkpt>
      <trkpt lat="43.20947" lon="5.4203">
        <ele>60.22931</ele>
        <time>2019-06-19 13:54:01,597</time>
      </trkpt>
      <trkpt lat="43.20946" lon="5.4203">
        <ele>60.448425</ele>
        <time>2019-06-19 13:54:04,345</time>
      </trkpt>
      <trkpt lat="43.20946" lon="5.4203">
        <ele>61.088867</ele>
        <time>2019-06-19 13:54:05,348</time>
      </trkpt>
      <trkpt lat="43.20945" lon="5.42029">
        <ele>61.15045</ele>
        <time>2019-06-19 13:54:06,562</time>
      </trkpt>
      <trkpt lat="43.20945" lon="5.42029">
        <ele>92.337585</ele>
        <time>2019-06-19 13:54:11,352</time>
      </trkpt>
      <trkpt lat="43.20945" lon="5.42029">
        <ele>81.03076</ele>
        <time>2019-06-19 13:54:12,356</time>
      </trkpt>
      <trkpt lat="43.20944" lon="5.4203">
        <ele>70.95532</ele>
        <time>2019-06-19 13:54:16,330</time>
      </trkpt>
      <trkpt lat="43.20943" lon="5.4203">
        <ele>67.79303</ele>
        <time>2019-06-19 13:54:17,342</time>
      </trkpt>
      <trkpt lat="43.20942" lon="5.4203">
        <ele>64.8009</ele>
        <time>2019-06-19 13:54:18,360</time>
      </trkpt>
      <trkpt lat="43.20941" lon="5.4203">
        <ele>64.035034</ele>
        <time>2019-06-19 13:54:19,351</time>
      </trkpt>
      <trkpt lat="43.2094" lon="5.4203">
        <ele>63.41455</ele>
        <time>2019-06-19 13:54:20,351</time>
      </trkpt>
      <trkpt lat="43.2094" lon="5.4203">
        <ele>62.89319</ele>
        <time>2019-06-19 13:54:21,523</time>
      </trkpt>
      <trkpt lat="43.20938" lon="5.4203">
        <ele>62.324707</ele>
        <time>2019-06-19 13:54:23,349</time>
      </trkpt>
      <trkpt lat="43.20937" lon="5.4203">
        <ele>62.62799</ele>
        <time>2019-06-19 13:54:24,597</time>
      </trkpt>
      <trkpt lat="43.20936" lon="5.42031">
        <ele>61.694153</ele>
        <time>2019-06-19 13:54:26,345</time>
      </trkpt>
      <trkpt lat="43.20935" lon="5.42032">
        <ele>61.38147</ele>
        <time>2019-06-19 13:54:27,621</time>
      </trkpt>
      <trkpt lat="43.20934" lon="5.42033">
        <ele>60.707703</ele>
        <time>2019-06-19 13:54:29,381</time>
      </trkpt>
      <trkpt lat="43.20932" lon="5.42035">
        <ele>59.112732</ele>
        <time>2019-06-19 13:54:31,616</time>
      </trkpt>
      <trkpt lat="43.2093" lon="5.42037">
        <ele>58.798462</ele>
        <time>2019-06-19 13:54:34,343</time>
      </trkpt>
      <trkpt lat="43.20929" lon="5.42038">
        <ele>56.565918</ele>
        <time>2019-06-19 13:54:35,349</time>
      </trkpt>
      <trkpt lat="43.20929" lon="5.42039">
        <ele>57.586</ele>
        <time>2019-06-19 13:54:36,460</time>
      </trkpt>
      <trkpt lat="43.20928" lon="5.4204">
        <ele>59.292236</ele>
        <time>2019-06-19 13:54:38,351</time>
      </trkpt>
      <trkpt lat="43.20927" lon="5.4204">
        <ele>59.44104</ele>
        <time>2019-06-19 13:54:39,347</time>
      </trkpt>
      <trkpt lat="43.20927" lon="5.4204">
        <ele>60.07489</ele>
        <time>2019-06-19 13:54:40,388</time>
      </trkpt>
      <trkpt lat="43.20926" lon="5.42039">
        <ele>60.291992</ele>
        <time>2019-06-19 13:54:44,350</time>
      </trkpt>
      <trkpt lat="43.20925" lon="5.42039">
        <ele>60.290222</ele>
        <time>2019-06-19 13:54:45,336</time>
      </trkpt>
      <trkpt lat="43.20925" lon="5.42039">
        <ele>60.32483</ele>
        <time>2019-06-19 13:54:46,410</time>
      </trkpt>
      <trkpt lat="43.20925" lon="5.42039">
        <ele>65.27893</ele>
        <time>2019-06-19 13:54:47,351</time>
      </trkpt>
      <trkpt lat="43.20925" lon="5.42039">
        <ele>63.6131</ele>
        <time>2019-06-19 13:54:48,344</time>
      </trkpt>
      <trkpt lat="43.20926" lon="5.4204">
        <ele>65.661316</ele>
        <time>2019-06-19 13:54:49,341</time>
      </trkpt>
      <trkpt lat="43.20926" lon="5.42041">
        <ele>65.86633</ele>
        <time>2019-06-19 13:54:50,355</time>
      </trkpt>
      <trkpt lat="43.20924" lon="5.42043">
        <ele>63.996155</ele>
        <time>2019-06-19 13:54:53,336</time>
      </trkpt>
      <trkpt lat="43.20924" lon="5.42043">
        <ele>65.094604</ele>
        <time>2019-06-19 13:54:54,347</time>
      </trkpt>
      <trkpt lat="43.20922" lon="5.42045">
        <ele>65.586975</ele>
        <time>2019-06-19 13:54:57,385</time>
      </trkpt>
      <trkpt lat="43.2092" lon="5.42047">
        <ele>66.597534</ele>
        <time>2019-06-19 13:54:58,340</time>
      </trkpt>
      <trkpt lat="43.20919" lon="5.42048">
        <ele>67.01123</ele>
        <time>2019-06-19 13:54:59,348</time>
      </trkpt>
      <trkpt lat="43.20917" lon="5.42051">
        <ele>67.5235</ele>
        <time>2019-06-19 13:55:01,339</time>
      </trkpt>
      <trkpt lat="43.20915" lon="5.42053">
        <ele>68.36194</ele>
        <time>2019-06-19 13:55:03,350</time>
      </trkpt>
      <trkpt lat="43.20915" lon="5.42054">
        <ele>67.45532</ele>
        <time>2019-06-19 13:55:05,370</time>
      </trkpt>
      <trkpt lat="43.20913" lon="5.42055">
        <ele>67.73535</ele>
        <time>2019-06-19 13:55:07,348</time>
      </trkpt>
      <trkpt lat="43.20913" lon="5.42055">
        <ele>68.583435</ele>
        <time>2019-06-19 13:55:08,356</time>
      </trkpt>
      <trkpt lat="43.20912" lon="5.42055">
        <ele>68.59204</ele>
        <time>2019-06-19 13:55:10,353</time>
      </trkpt>
      <trkpt lat="43.20911" lon="5.42056">
        <ele>68.03265</ele>
        <time>2019-06-19 13:55:11,343</time>
      </trkpt>
      <trkpt lat="43.20909" lon="5.42056">
        <ele>69.64636</ele>
        <time>2019-06-19 13:55:12,380</time>
      </trkpt>
      <trkpt lat="43.20909" lon="5.42057">
        <ele>69.69275</ele>
        <time>2019-06-19 13:55:13,584</time>
      </trkpt>
      <trkpt lat="43.20906" lon="5.42057">
        <ele>65.12128</ele>
        <time>2019-06-19 13:55:15,343</time>
      </trkpt>
      <trkpt lat="43.20904" lon="5.42057">
        <ele>65.062805</ele>
        <time>2019-06-19 13:55:16,341</time>
      </trkpt>
      <trkpt lat="43.20905" lon="5.42057">
        <ele>66.69226</ele>
        <time>2019-06-19 13:55:17,345</time>
      </trkpt>
      <trkpt lat="43.20905" lon="5.42057">
        <ele>65.71008</ele>
        <time>2019-06-19 13:55:18,339</time>
      </trkpt>
      <trkpt lat="43.20905" lon="5.42057">
        <ele>65.63129</ele>
        <time>2019-06-19 13:55:19,334</time>
      </trkpt>
      <trkpt lat="43.20905" lon="5.42059">
        <ele>64.54187</ele>
        <time>2019-06-19 13:55:20,537</time>
      </trkpt>
      <trkpt lat="43.20905" lon="5.42062">
        <ele>63.945435</ele>
        <time>2019-06-19 13:55:22,339</time>
      </trkpt>
      <trkpt lat="43.20904" lon="5.42063">
        <ele>63.676758</ele>
        <time>2019-06-19 13:55:23,336</time>
      </trkpt>
      <trkpt lat="43.20903" lon="5.42065">
        <ele>64.83624</ele>
        <time>2019-06-19 13:55:25,348</time>
      </trkpt>
      <trkpt lat="43.20902" lon="5.42066">
        <ele>64.93323</ele>
        <time>2019-06-19 13:55:26,365</time>
      </trkpt>
      <trkpt lat="43.20901" lon="5.42068">
        <ele>65.508484</ele>
        <time>2019-06-19 13:55:29,349</time>
      </trkpt>
      <trkpt lat="43.209" lon="5.42068">
        <ele>64.71387</ele>
        <time>2019-06-19 13:55:31,338</time>
      </trkpt>
      <trkpt lat="43.20899" lon="5.42069">
        <ele>63.131348</ele>
        <time>2019-06-19 13:55:32,342</time>
      </trkpt>
      <trkpt lat="43.20897" lon="5.42071">
        <ele>62.728516</ele>
        <time>2019-06-19 13:55:34,342</time>
      </trkpt>
      <trkpt lat="43.20896" lon="5.42072">
        <ele>64.16174</ele>
        <time>2019-06-19 13:55:35,339</time>
      </trkpt>
      <trkpt lat="43.20895" lon="5.42074">
        <ele>66.00488</ele>
        <time>2019-06-19 13:55:37,351</time>
      </trkpt>
      <trkpt lat="43.20894" lon="5.42075">
        <ele>67.79083</ele>
        <time>2019-06-19 13:55:38,340</time>
      </trkpt>
      <trkpt lat="43.20896" lon="5.42076">
        <ele>66.15448</ele>
        <time>2019-06-19 13:55:39,345</time>
      </trkpt>
      <trkpt lat="43.20897" lon="5.42079">
        <ele>65.20093</ele>
        <time>2019-06-19 13:55:41,503</time>
      </trkpt>
      <trkpt lat="43.20893" lon="5.42086">
        <ele>62.076782</ele>
        <time>2019-06-19 13:55:45,350</time>
      </trkpt>
      <trkpt lat="43.20892" lon="5.42087">
        <ele>62.23175</ele>
        <time>2019-06-19 13:55:46,347</time>
      </trkpt>
      <trkpt lat="43.20892" lon="5.42088">
        <ele>60.4032</ele>
        <time>2019-06-19 13:55:47,350</time>
      </trkpt>
      <trkpt lat="43.20891" lon="5.42089">
        <ele>61.92865</ele>
        <time>2019-06-19 13:55:48,382</time>
      </trkpt>
      <trkpt lat="43.20891" lon="5.42091">
        <ele>62.360962</ele>
        <time>2019-06-19 13:55:49,342</time>
      </trkpt>
      <trkpt lat="43.2089" lon="5.42093">
        <ele>62.974243</ele>
        <time>2019-06-19 13:55:50,347</time>
      </trkpt>
      <trkpt lat="43.20888" lon="5.42096">
        <ele>65.528625</ele>
        <time>2019-06-19 13:55:52,351</time>
      </trkpt>
      <trkpt lat="43.20888" lon="5.42096">
        <ele>65.14288</ele>
        <time>2019-06-19 13:55:53,362</time>
      </trkpt>
      <trkpt lat="43.20887" lon="5.42097">
        <ele>68.08618</ele>
        <time>2019-06-19 13:55:54,351</time>
      </trkpt>
      <trkpt lat="43.20886" lon="5.42097">
        <ele>68.63739</ele>
        <time>2019-06-19 13:55:55,351</time>
      </trkpt>
      <trkpt lat="43.20886" lon="5.42098">
        <ele>70.23004</ele>
        <time>2019-06-19 13:55:57,405</time>
      </trkpt>
      <trkpt lat="43.20886" lon="5.42097">
        <ele>69.42859</ele>
        <time>2019-06-19 13:55:58,357</time>
      </trkpt>
      <trkpt lat="43.20885" lon="5.42098">
        <ele>69.84473</ele>
        <time>2019-06-19 13:56:00,352</time>
      </trkpt>
      <trkpt lat="43.20885" lon="5.42098">
        <ele>71.57031</ele>
        <time>2019-06-19 13:56:01,352</time>
      </trkpt>
      <trkpt lat="43.20884" lon="5.42099">
        <ele>71.196045</ele>
        <time>2019-06-19 13:56:02,340</time>
      </trkpt>
      <trkpt lat="43.20883" lon="5.42099">
        <ele>71.79224</ele>
        <time>2019-06-19 13:56:03,341</time>
      </trkpt>
      <trkpt lat="43.20881" lon="5.421">
        <ele>73.27637</ele>
        <time>2019-06-19 13:56:05,348</time>
      </trkpt>
      <trkpt lat="43.20883" lon="5.42103">
        <ele>73.578674</ele>
        <time>2019-06-19 13:56:26,344</time>
      </trkpt>
      <trkpt lat="43.20883" lon="5.42103">
        <ele>74.70239</ele>
        <time>2019-06-19 13:56:45,340</time>
      </trkpt>
      <trkpt lat="43.20882" lon="5.42104">
        <ele>79.19739</ele>
        <time>2019-06-19 13:56:47,361</time>
      </trkpt>
      <trkpt lat="43.20881" lon="5.42106">
        <ele>79.46918</ele>
        <time>2019-06-19 13:56:48,345</time>
      </trkpt>
      <trkpt lat="43.2088" lon="5.42107">
        <ele>79.54425</ele>
        <time>2019-06-19 13:56:50,345</time>
      </trkpt>
      <trkpt lat="43.20879" lon="5.42109">
        <ele>81.03357</ele>
        <time>2019-06-19 13:56:51,345</time>
      </trkpt>
      <trkpt lat="43.20878" lon="5.4211">
        <ele>79.761536</ele>
        <time>2019-06-19 13:56:52,387</time>
      </trkpt>
      <trkpt lat="43.20877" lon="5.42112">
        <ele>80.28406</ele>
        <time>2019-06-19 13:56:53,352</time>
      </trkpt>
      <trkpt lat="43.20877" lon="5.42113">
        <ele>79.13385</ele>
        <time>2019-06-19 13:56:54,350</time>
      </trkpt>
      <trkpt lat="43.20878" lon="5.42115">
        <ele>80.456116</ele>
        <time>2019-06-19 13:56:58,352</time>
      </trkpt>
      <trkpt lat="43.20878" lon="5.42116">
        <ele>79.8501</ele>
        <time>2019-06-19 13:56:59,338</time>
      </trkpt>
      <trkpt lat="43.20878" lon="5.42117">
        <ele>79.92218</ele>
        <time>2019-06-19 13:57:00,356</time>
      </trkpt>
      <trkpt lat="43.20878" lon="5.42118">
        <ele>80.30475</ele>
        <time>2019-06-19 13:57:01,363</time>
      </trkpt>
      <trkpt lat="43.20877" lon="5.42119">
        <ele>80.35034</ele>
        <time>2019-06-19 13:57:02,339</time>
      </trkpt>
      <trkpt lat="43.20874" lon="5.42121">
        <ele>80.30792</ele>
        <time>2019-06-19 13:57:07,349</time>
      </trkpt>
      <trkpt lat="43.20873" lon="5.42122">
        <ele>79.782104</ele>
        <time>2019-06-19 13:57:08,381</time>
      </trkpt>
      <trkpt lat="43.20872" lon="5.42123">
        <ele>81.72766</ele>
        <time>2019-06-19 13:57:09,359</time>
      </trkpt>
      <trkpt lat="43.20872" lon="5.42125">
        <ele>80.67151</ele>
        <time>2019-06-19 13:57:10,335</time>
      </trkpt>
      <trkpt lat="43.20872" lon="5.42127">
        <ele>80.585815</ele>
        <time>2019-06-19 13:57:16,350</time>
      </trkpt>
      <trkpt lat="43.20872" lon="5.42127">
        <ele>79.888</ele>
        <time>2019-06-19 13:57:17,342</time>
      </trkpt>
      <trkpt lat="43.20871" lon="5.42128">
        <ele>79.3042</ele>
        <time>2019-06-19 13:57:18,336</time>
      </trkpt>
      <trkpt lat="43.20869" lon="5.42129">
        <ele>76.75543</ele>
        <time>2019-06-19 13:57:19,342</time>
      </trkpt>
      <trkpt lat="43.20867" lon="5.4213">
        <ele>77.369446</ele>
        <time>2019-06-19 13:57:20,363</time>
      </trkpt>
      <trkpt lat="43.20865" lon="5.4213">
        <ele>79.082214</ele>
        <time>2019-06-19 13:57:23,386</time>
      </trkpt>
      <trkpt lat="43.20865" lon="5.42131">
        <ele>81.94702</ele>
        <time>2019-06-19 13:57:24,344</time>
      </trkpt>
      <trkpt lat="43.20866" lon="5.42131">
        <ele>81.704346</ele>
        <time>2019-06-19 13:57:25,346</time>
      </trkpt>
      <trkpt lat="43.20866" lon="5.42132">
        <ele>82.566345</ele>
        <time>2019-06-19 13:57:26,433</time>
      </trkpt>
      <trkpt lat="43.20866" lon="5.42132">
        <ele>82.8103</ele>
        <time>2019-06-19 13:57:27,377</time>
      </trkpt>
      <trkpt lat="43.20865" lon="5.42132">
        <ele>83.92755</ele>
        <time>2019-06-19 13:57:28,348</time>
      </trkpt>
      <trkpt lat="43.20864" lon="5.42133">
        <ele>83.87274</ele>
        <time>2019-06-19 13:57:29,581</time>
      </trkpt>
      <trkpt lat="43.20863" lon="5.42134">
        <ele>82.05365</ele>
        <time>2019-06-19 13:57:31,370</time>
      </trkpt>
      <trkpt lat="43.20863" lon="5.42135">
        <ele>81.84216</ele>
        <time>2019-06-19 13:57:32,345</time>
      </trkpt>
      <trkpt lat="43.20864" lon="5.42137">
        <ele>81.483765</ele>
        <time>2019-06-19 13:57:47,338</time>
      </trkpt>
      <trkpt lat="43.20863" lon="5.42137">
        <ele>80.552124</ele>
        <time>2019-06-19 13:57:48,343</time>
      </trkpt>
      <trkpt lat="43.20863" lon="5.42136">
        <ele>79.48071</ele>
        <time>2019-06-19 13:57:49,339</time>
      </trkpt>
      <trkpt lat="43.20862" lon="5.42135">
        <ele>79.82825</ele>
        <time>2019-06-19 13:57:50,455</time>
      </trkpt>
      <trkpt lat="43.20862" lon="5.42135">
        <ele>78.65991</ele>
        <time>2019-06-19 13:57:52,355</time>
      </trkpt>
      <trkpt lat="43.20862" lon="5.42134">
        <ele>76.68158</ele>
        <time>2019-06-19 13:57:55,341</time>
      </trkpt>
      <trkpt lat="43.20862" lon="5.42133">
        <ele>76.285034</ele>
        <time>2019-06-19 13:57:56,343</time>
      </trkpt>
      <trkpt lat="43.20862" lon="5.42133">
        <ele>78.42731</ele>
        <time>2019-06-19 13:57:57,443</time>
      </trkpt>
      <trkpt lat="43.20861" lon="5.42132">
        <ele>79.82178</ele>
        <time>2019-06-19 13:57:58,399</time>
      </trkpt>
      <trkpt lat="43.2086" lon="5.42132">
        <ele>79.20935</ele>
        <time>2019-06-19 13:57:59,345</time>
      </trkpt>
      <trkpt lat="43.20859" lon="5.42131">
        <ele>79.23901</ele>
        <time>2019-06-19 13:58:00,346</time>
      </trkpt>
      <trkpt lat="43.20857" lon="5.42129">
        <ele>75.86426</ele>
        <time>2019-06-19 13:58:06,344</time>
      </trkpt>
      <trkpt lat="43.20855" lon="5.42129">
        <ele>75.12286</ele>
        <time>2019-06-19 13:58:07,342</time>
      </trkpt>
      <trkpt lat="43.20854" lon="5.42129">
        <ele>72.51587</ele>
        <time>2019-06-19 13:58:08,354</time>
      </trkpt>
      <trkpt lat="43.20852" lon="5.42129">
        <ele>72.52954</ele>
        <time>2019-06-19 13:58:09,334</time>
      </trkpt>
      <trkpt lat="43.20851" lon="5.42129">
        <ele>73.75287</ele>
        <time>2019-06-19 13:58:10,537</time>
      </trkpt>
      <trkpt lat="43.2085" lon="5.4213">
        <ele>77.803406</ele>
        <time>2019-06-19 13:58:12,351</time>
      </trkpt>
      <trkpt lat="43.20851" lon="5.42131">
        <ele>78.2984</ele>
        <time>2019-06-19 13:58:13,350</time>
      </trkpt>
      <trkpt lat="43.20852" lon="5.42131">
        <ele>79.14148</ele>
        <time>2019-06-19 13:58:17,339</time>
      </trkpt>
      <trkpt lat="43.20852" lon="5.42131">
        <ele>78.69873</ele>
        <time>2019-06-19 13:58:18,326</time>
      </trkpt>
      <trkpt lat="43.20851" lon="5.42131">
        <ele>78.68036</ele>
        <time>2019-06-19 13:58:22,363</time>
      </trkpt>
      <trkpt lat="43.2085" lon="5.42131">
        <ele>77.89856</ele>
        <time>2019-06-19 13:58:23,343</time>
      </trkpt>
      <trkpt lat="43.2085" lon="5.42131">
        <ele>77.071106</ele>
        <time>2019-06-19 13:58:24,530</time>
      </trkpt>
      <trkpt lat="43.20849" lon="5.42131">
        <ele>77.21289</ele>
        <time>2019-06-19 13:58:26,540</time>
      </trkpt>
      <trkpt lat="43.20849" lon="5.42131">
        <ele>78.15381</ele>
        <time>2019-06-19 13:58:31,343</time>
      </trkpt>
      <trkpt lat="43.20849" lon="5.42131">
        <ele>78.46088</ele>
        <time>2019-06-19 13:58:32,444</time>
      </trkpt>
      <trkpt lat="43.20845" lon="5.42129">
        <ele>75.8255</ele>
        <time>2019-06-19 13:58:56,351</time>
      </trkpt>
      <trkpt lat="43.20845" lon="5.42129">
        <ele>77.6416</ele>
        <time>2019-06-19 13:58:59,356</time>
      </trkpt>
      <trkpt lat="43.20844" lon="5.42128">
        <ele>76.37598</ele>
        <time>2019-06-19 13:59:00,343</time>
      </trkpt>
      <trkpt lat="43.20843" lon="5.42127">
        <ele>76.43884</ele>
        <time>2019-06-19 13:59:01,343</time>
      </trkpt>
      <trkpt lat="43.20841" lon="5.42127">
        <ele>76.792725</ele>
        <time>2019-06-19 13:59:02,487</time>
      </trkpt>
      <trkpt lat="43.20839" lon="5.42127">
        <ele>77.08331</ele>
        <time>2019-06-19 13:59:04,495</time>
      </trkpt>
      <trkpt lat="43.20838" lon="5.42127">
        <ele>79.69403</ele>
        <time>2019-06-19 13:59:06,336</time>
      </trkpt>
      <trkpt lat="43.20837" lon="5.42127">
        <ele>80.36737</ele>
        <time>2019-06-19 13:59:07,482</time>
      </trkpt>
      <trkpt lat="43.20835" lon="5.42126">
        <ele>81.13104</ele>
        <time>2019-06-19 13:59:09,541</time>
      </trkpt>
      <trkpt lat="43.20834" lon="5.42123">
        <ele>82.375854</ele>
        <time>2019-06-19 13:59:11,340</time>
      </trkpt>
      <trkpt lat="43.20834" lon="5.42123">
        <ele>82.52875</ele>
        <time>2019-06-19 13:59:12,447</time>
      </trkpt>
      <trkpt lat="43.20834" lon="5.42123">
        <ele>82.77496</ele>
        <time>2019-06-19 13:59:14,344</time>
      </trkpt>
      <trkpt lat="43.20834" lon="5.42123">
        <ele>81.54126</ele>
        <time>2019-06-19 13:59:15,416</time>
      </trkpt>
      <trkpt lat="43.20834" lon="5.42123">
        <ele>79.26642</ele>
        <time>2019-06-19 13:59:16,343</time>
      </trkpt>
      <trkpt lat="43.20833" lon="5.42124">
        <ele>78.48645</ele>
        <time>2019-06-19 13:59:17,354</time>
      </trkpt>
      <trkpt lat="43.20833" lon="5.42124">
        <ele>79.51489</ele>
        <time>2019-06-19 13:59:18,353</time>
      </trkpt>
      <trkpt lat="43.20833" lon="5.42125">
        <ele>80.57208</ele>
        <time>2019-06-19 13:59:21,461</time>
      </trkpt>
      <trkpt lat="43.20831" lon="5.42127">
        <ele>82.3374</ele>
        <time>2019-06-19 13:59:23,351</time>
      </trkpt>
      <trkpt lat="43.2083" lon="5.42128">
        <ele>83.869446</ele>
        <time>2019-06-19 13:59:25,388</time>
      </trkpt>
      <trkpt lat="43.2083" lon="5.42128">
        <ele>84.6687</ele>
        <time>2019-06-19 13:59:26,358</time>
      </trkpt>
      <trkpt lat="43.20829" lon="5.42129">
        <ele>84.63867</ele>
        <time>2019-06-19 13:59:27,347</time>
      </trkpt>
      <trkpt lat="43.20828" lon="5.42129">
        <ele>84.52185</ele>
        <time>2019-06-19 13:59:28,348</time>
      </trkpt>
      <trkpt lat="43.20827" lon="5.42129">
        <ele>84.236694</ele>
        <time>2019-06-19 13:59:29,396</time>
      </trkpt>
      <trkpt lat="43.20827" lon="5.42129">
        <ele>83.84332</ele>
        <time>2019-06-19 13:59:30,697</time>
      </trkpt>
      <trkpt lat="43.20825" lon="5.4213">
        <ele>80.57208</ele>
        <time>2019-06-19 13:59:32,344</time>
      </trkpt>
      <trkpt lat="43.20824" lon="5.4213">
        <ele>84.12207</ele>
        <time>2019-06-19 13:59:33,359</time>
      </trkpt>
      <trkpt lat="43.20823" lon="5.4213">
        <ele>83.33887</ele>
        <time>2019-06-19 13:59:34,351</time>
      </trkpt>
      <trkpt lat="43.20822" lon="5.4213">
        <ele>83.178345</ele>
        <time>2019-06-19 13:59:35,449</time>
      </trkpt>
      <trkpt lat="43.2082" lon="5.42133">
        <ele>83.65076</ele>
        <time>2019-06-19 13:59:37,334</time>
      </trkpt>
      <trkpt lat="43.20819" lon="5.42133">
        <ele>196.86395</ele>
        <time>2019-06-19 13:59:38,502</time>
      </trkpt>
      <trkpt lat="43.20816" lon="5.42133">
        <ele>155.9787</ele>
        <time>2019-06-19 13:59:40,343</time>
      </trkpt>
      <trkpt lat="43.20816" lon="5.42133">
        <ele>142.67621</ele>
        <time>2019-06-19 13:59:41,345</time>
      </trkpt>
      <trkpt lat="43.20813" lon="5.42133">
        <ele>121.289185</ele>
        <time>2019-06-19 13:59:43,341</time>
      </trkpt>
      <trkpt lat="43.20812" lon="5.42133">
        <ele>109.2879</ele>
        <time>2019-06-19 13:59:45,347</time>
      </trkpt>
      <trkpt lat="43.2081" lon="5.42134">
        <ele>112.35901</ele>
        <time>2019-06-19 13:59:46,348</time>
      </trkpt>
      <trkpt lat="43.20809" lon="5.42134">
        <ele>114.74402</ele>
        <time>2019-06-19 13:59:47,357</time>
      </trkpt>
      <trkpt lat="43.20808" lon="5.42135">
        <ele>109.46265</ele>
        <time>2019-06-19 13:59:48,359</time>
      </trkpt>
      <trkpt lat="43.20806" lon="5.42135">
        <ele>111.949524</ele>
        <time>2019-06-19 13:59:49,402</time>
      </trkpt>
      <trkpt lat="43.20803" lon="5.42135">
        <ele>118.21887</ele>
        <time>2019-06-19 13:59:51,335</time>
      </trkpt>
      <trkpt lat="43.20801" lon="5.42137">
        <ele>111.335304</ele>
        <time>2019-06-19 13:59:54,335</time>
      </trkpt>
      <trkpt lat="43.208" lon="5.42138">
        <ele>96.1134</ele>
        <time>2019-06-19 13:59:56,337</time>
      </trkpt>
      <trkpt lat="43.208" lon="5.42139">
        <ele>92.38745</ele>
        <time>2019-06-19 13:59:57,337</time>
      </trkpt>
      <trkpt lat="43.20799" lon="5.42139">
        <ele>90.569275</ele>
        <time>2019-06-19 13:59:59,336</time>
      </trkpt>
      <trkpt lat="43.20799" lon="5.42139">
        <ele>89.258545</ele>
        <time>2019-06-19 14:00:00,341</time>
      </trkpt>
      <trkpt lat="43.20798" lon="5.42139">
        <ele>87.60956</ele>
        <time>2019-06-19 14:00:01,337</time>
      </trkpt>
      <trkpt lat="43.20796" lon="5.42139">
        <ele>86.64935</ele>
        <time>2019-06-19 14:00:03,339</time>
      </trkpt>
      <trkpt lat="43.20796" lon="5.42139">
        <ele>87.19867</ele>
        <time>2019-06-19 14:00:04,337</time>
      </trkpt>
      <trkpt lat="43.20794" lon="5.42139">
        <ele>86.189575</ele>
        <time>2019-06-19 14:00:05,369</time>
      </trkpt>
      <trkpt lat="43.20794" lon="5.42139">
        <ele>86.15759</ele>
        <time>2019-06-19 14:00:06,505</time>
      </trkpt>
      <trkpt lat="43.20794" lon="5.42138">
        <ele>88.148254</ele>
        <time>2019-06-19 14:00:08,347</time>
      </trkpt>
      <trkpt lat="43.20794" lon="5.42136">
        <ele>89.62854</ele>
        <time>2019-06-19 14:00:09,337</time>
      </trkpt>
      <trkpt lat="43.20794" lon="5.42136">
        <ele>90.5318</ele>
        <time>2019-06-19 14:00:10,379</time>
      </trkpt>
      <trkpt lat="43.20795" lon="5.42135">
        <ele>93.070435</ele>
        <time>2019-06-19 14:00:11,339</time>
      </trkpt>
      <trkpt lat="43.20796" lon="5.42135">
        <ele>92.6861</ele>
        <time>2019-06-19 14:00:12,354</time>
      </trkpt>
      <trkpt lat="43.20799" lon="5.42136">
        <ele>95.9906</ele>
        <time>2019-06-19 14:00:13,338</time>
      </trkpt>
      <trkpt lat="43.20799" lon="5.42137">
        <ele>95.59253</ele>
        <time>2019-06-19 14:00:16,339</time>
      </trkpt>
      <trkpt lat="43.20799" lon="5.42136">
        <ele>101.8584</ele>
        <time>2019-06-19 14:00:17,339</time>
      </trkpt>
      <trkpt lat="43.20799" lon="5.42135">
        <ele>99.96387</ele>
        <time>2019-06-19 14:00:19,338</time>
      </trkpt>
      <trkpt lat="43.208" lon="5.42135">
        <ele>100.75372</ele>
        <time>2019-06-19 14:00:20,337</time>
      </trkpt>
      <trkpt lat="43.208" lon="5.42135">
        <ele>99.06378</ele>
        <time>2019-06-19 14:00:21,348</time>
      </trkpt>
      <trkpt lat="43.208" lon="5.42135">
        <ele>97.06055</ele>
        <time>2019-06-19 14:00:23,290</time>
      </trkpt>
      <trkpt lat="43.208" lon="5.42134">
        <ele>95.83734</ele>
        <time>2019-06-19 14:00:24,455</time>
      </trkpt>
      <trkpt lat="43.20799" lon="5.42133">
        <ele>93.8811</ele>
        <time>2019-06-19 14:00:26,337</time>
      </trkpt>
      <trkpt lat="43.20798" lon="5.42133">
        <ele>94.06128</ele>
        <time>2019-06-19 14:00:27,340</time>
      </trkpt>
      <trkpt lat="43.20797" lon="5.42133">
        <ele>93.0777</ele>
        <time>2019-06-19 14:00:28,334</time>
      </trkpt>
      <trkpt lat="43.20796" lon="5.42133">
        <ele>91.86273</ele>
        <time>2019-06-19 14:00:29,339</time>
      </trkpt>
      <trkpt lat="43.20791" lon="5.42132">
        <ele>88.82428</ele>
        <time>2019-06-19 14:00:32,337</time>
      </trkpt>
      <trkpt lat="43.2079" lon="5.42132">
        <ele>89.249695</ele>
        <time>2019-06-19 14:00:33,469</time>
      </trkpt>
      <trkpt lat="43.20787" lon="5.4213">
        <ele>87.87457</ele>
        <time>2019-06-19 14:00:35,513</time>
      </trkpt>
      <trkpt lat="43.20785" lon="5.42132">
        <ele>89.172485</ele>
        <time>2019-06-19 14:00:47,346</time>
      </trkpt>
      <trkpt lat="43.20784" lon="5.42132">
        <ele>89.14386</ele>
        <time>2019-06-19 14:00:48,625</time>
      </trkpt>
      <trkpt lat="43.20783" lon="5.42133">
        <ele>89.97327</ele>
        <time>2019-06-19 14:00:50,355</time>
      </trkpt>
      <trkpt lat="43.20783" lon="5.42134">
        <ele>89.070435</ele>
        <time>2019-06-19 14:00:51,341</time>
      </trkpt>
      <trkpt lat="43.20783" lon="5.42135">
        <ele>89.34631</ele>
        <time>2019-06-19 14:00:52,581</time>
      </trkpt>
      <trkpt lat="43.20782" lon="5.42137">
        <ele>90.30823</ele>
        <time>2019-06-19 14:00:54,344</time>
      </trkpt>
      <trkpt lat="43.20781" lon="5.42137">
        <ele>90.531555</ele>
        <time>2019-06-19 14:00:55,352</time>
      </trkpt>
      <trkpt lat="43.20781" lon="5.42137">
        <ele>90.29498</ele>
        <time>2019-06-19 14:00:56,350</time>
      </trkpt>
      <trkpt lat="43.2078" lon="5.4214">
        <ele>90.78711</ele>
        <time>2019-06-19 14:01:00,351</time>
      </trkpt>
      <trkpt lat="43.20779" lon="5.42141">
        <ele>90.36456</ele>
        <time>2019-06-19 14:01:01,485</time>
      </trkpt>
      <trkpt lat="43.20779" lon="5.42145">
        <ele>91.31329</ele>
        <time>2019-06-19 14:01:03,348</time>
      </trkpt>
      <trkpt lat="43.20781" lon="5.42153">
        <ele>90.92688</ele>
        <time>2019-06-19 14:01:14,351</time>
      </trkpt>
      <trkpt lat="43.20782" lon="5.42153">
        <ele>91.52588</ele>
        <time>2019-06-19 14:01:15,615</time>
      </trkpt>
      <trkpt lat="43.20783" lon="5.42153">
        <ele>91.778625</ele>
        <time>2019-06-19 14:01:17,342</time>
      </trkpt>
      <trkpt lat="43.20783" lon="5.42152">
        <ele>94.16431</ele>
        <time>2019-06-19 14:01:18,344</time>
      </trkpt>
      <trkpt lat="43.20784" lon="5.42152">
        <ele>88.63019</ele>
        <time>2019-06-19 14:01:19,350</time>
      </trkpt>
      <trkpt lat="43.20785" lon="5.4215">
        <ele>93.83008</ele>
        <time>2019-06-19 14:01:21,343</time>
      </trkpt>
      <trkpt lat="43.20785" lon="5.42149">
        <ele>92.46771</ele>
        <time>2019-06-19 14:01:22,342</time>
      </trkpt>
      <trkpt lat="43.20786" lon="5.42149">
        <ele>92.77478</ele>
        <time>2019-06-19 14:01:23,353</time>
      </trkpt>
      <trkpt lat="43.20786" lon="5.42148">
        <ele>93.67883</ele>
        <time>2019-06-19 14:01:26,337</time>
      </trkpt>
      <trkpt lat="43.20786" lon="5.42148">
        <ele>93.846375</ele>
        <time>2019-06-19 14:01:27,549</time>
      </trkpt>
      <trkpt lat="43.20786" lon="5.42147">
        <ele>93.440674</ele>
        <time>2019-06-19 14:01:29,343</time>
      </trkpt>
      <trkpt lat="43.20786" lon="5.42146">
        <ele>92.93701</ele>
        <time>2019-06-19 14:01:30,559</time>
      </trkpt>
      <trkpt lat="43.20786" lon="5.42145">
        <ele>94.3797</ele>
        <time>2019-06-19 14:01:32,344</time>
      </trkpt>
      <trkpt lat="43.20785" lon="5.42142">
        <ele>91.36774</ele>
        <time>2019-06-19 14:01:52,497</time>
      </trkpt>
      <trkpt lat="43.20784" lon="5.42141">
        <ele>90.37506</ele>
        <time>2019-06-19 14:01:54,515</time>
      </trkpt>
      <trkpt lat="43.20784" lon="5.4214">
        <ele>91.79761</ele>
        <time>2019-06-19 14:01:59,473</time>
      </trkpt>
      <trkpt lat="43.20783" lon="5.42139">
        <ele>91.506775</ele>
        <time>2019-06-19 14:02:01,549</time>
      </trkpt>
      <trkpt lat="43.20782" lon="5.42137">
        <ele>89.394165</ele>
        <time>2019-06-19 14:02:23,349</time>
      </trkpt>
      <trkpt lat="43.20782" lon="5.42136">
        <ele>90.07178</ele>
        <time>2019-06-19 14:02:24,347</time>
      </trkpt>
      <trkpt lat="43.20783" lon="5.42135">
        <ele>92.43292</ele>
        <time>2019-06-19 14:02:46,351</time>
      </trkpt>
      <trkpt lat="43.20783" lon="5.42135">
        <ele>92.46527</ele>
        <time>2019-06-19 14:02:48,331</time>
      </trkpt>
      <trkpt lat="43.20783" lon="5.42135">
        <ele>91.88995</ele>
        <time>2019-06-19 14:02:49,343</time>
      </trkpt>
      <trkpt lat="43.20783" lon="5.42136">
        <ele>92.85162</ele>
        <time>2019-06-19 14:02:54,340</time>
      </trkpt>
      <trkpt lat="43.20784" lon="5.42135">
        <ele>92.791504</ele>
        <time>2019-06-19 14:02:55,343</time>
      </trkpt>
      <trkpt lat="43.20784" lon="5.42135">
        <ele>91.754944</ele>
        <time>2019-06-19 14:02:56,350</time>
      </trkpt>
      <trkpt lat="43.20783" lon="5.42135">
        <ele>92.46527</ele>
        <time>2019-06-19 14:02:57,348</time>
      </trkpt>
      <trkpt lat="43.20783" lon="5.42135">
        <ele>90.50012</ele>
        <time>2019-06-19 14:02:58,333</time>
      </trkpt>
      <trkpt lat="43.20782" lon="5.42135">
        <ele>89.1499</ele>
        <time>2019-06-19 14:03:15,337</time>
      </trkpt>
      <trkpt lat="43.20783" lon="5.42135">
        <ele>89.10687</ele>
        <time>2019-06-19 14:03:16,353</time>
      </trkpt>
      <trkpt lat="43.20782" lon="5.42134">
        <ele>89.15729</ele>
        <time>2019-06-19 14:03:17,341</time>
      </trkpt>
      <trkpt lat="43.20783" lon="5.42131">
        <ele>88.619446</ele>
        <time>2019-06-19 14:03:38,351</time>
      </trkpt>
      <trkpt lat="43.20784" lon="5.42131">
        <ele>92.89349</ele>
        <time>2019-06-19 14:03:48,345</time>
      </trkpt>
      <trkpt lat="43.20785" lon="5.42131">
        <ele>92.67798</ele>
        <time>2019-06-19 14:03:49,354</time>
      </trkpt>
      <trkpt lat="43.20785" lon="5.42132">
        <ele>92.08246</ele>
        <time>2019-06-19 14:03:57,351</time>
      </trkpt>
      <trkpt lat="43.20784" lon="5.42132">
        <ele>92.89349</ele>
        <time>2019-06-19 14:03:58,542</time>
      </trkpt>
      <trkpt lat="43.20784" lon="5.42132">
        <ele>91.92859</ele>
        <time>2019-06-19 14:04:00,352</time>
      </trkpt>
      <trkpt lat="43.20783" lon="5.42133">
        <ele>92.86151</ele>
        <time>2019-06-19 14:04:01,593</time>
      </trkpt>
      <trkpt lat="43.20784" lon="5.42133">
        <ele>93.53784</ele>
        <time>2019-06-19 14:04:03,343</time>
      </trkpt>
      <trkpt lat="43.20783" lon="5.42133">
        <ele>93.575806</ele>
        <time>2019-06-19 14:04:05,350</time>
      </trkpt>
      <trkpt lat="43.20783" lon="5.42133">
        <ele>93.55994</ele>
        <time>2019-06-19 14:04:06,336</time>
      </trkpt>
      <trkpt lat="43.20783" lon="5.42133">
        <ele>93.76251</ele>
        <time>2019-06-19 14:04:07,357</time>
      </trkpt>
      <trkpt lat="43.20783" lon="5.42132">
        <ele>93.57074</ele>
        <time>2019-06-19 14:04:08,350</time>
      </trkpt>
      <trkpt lat="43.20783" lon="5.42132">
        <ele>93.992004</ele>
        <time>2019-06-19 14:04:09,608</time>
      </trkpt>
      <trkpt lat="43.20784" lon="5.42132">
        <ele>91.92859</ele>
        <time>2019-06-19 14:04:11,346</time>
      </trkpt>
      <trkpt lat="43.20782" lon="5.42132">
        <ele>94.89984</ele>
        <time>2019-06-19 14:04:15,355</time>
      </trkpt>
      <trkpt lat="43.20781" lon="5.42132">
        <ele>94.72357</ele>
        <time>2019-06-19 14:04:16,551</time>
      </trkpt>
      <trkpt lat="43.20779" lon="5.42131">
        <ele>92.4093</ele>
        <time>2019-06-19 14:04:19,569</time>
      </trkpt>
      <trkpt lat="43.20776" lon="5.42131">
        <ele>90.57202</ele>
        <time>2019-06-19 14:04:21,349</time>
      </trkpt>
      <trkpt lat="43.20775" lon="5.42132">
        <ele>95.87793</ele>
        <time>2019-06-19 14:04:24,348</time>
      </trkpt>
      <trkpt lat="43.20776" lon="5.42133">
        <ele>91.836975</ele>
        <time>2019-06-19 14:04:25,635</time>
      </trkpt>
      <trkpt lat="43.20777" lon="5.42134">
        <ele>91.70337</ele>
        <time>2019-06-19 14:04:27,346</time>
      </trkpt>
      <trkpt lat="43.20778" lon="5.42134">
        <ele>93.14966</ele>
        <time>2019-06-19 14:04:32,336</time>
      </trkpt>
      <trkpt lat="43.20777" lon="5.42133">
        <ele>93.84894</ele>
        <time>2019-06-19 14:04:33,615</time>
      </trkpt>
      <trkpt lat="43.20776" lon="5.42133">
        <ele>94.755066</ele>
        <time>2019-06-19 14:04:35,350</time>
      </trkpt>
      <trkpt lat="43.20775" lon="5.42133">
        <ele>97.033936</ele>
        <time>2019-06-19 14:04:41,350</time>
      </trkpt>
      <trkpt lat="43.20775" lon="5.42133">
        <ele>98.30994</ele>
        <time>2019-06-19 14:04:42,360</time>
      </trkpt>
      <trkpt lat="43.20775" lon="5.42131">
        <ele>101.4389</ele>
        <time>2019-06-19 14:04:54,357</time>
      </trkpt>
      <trkpt lat="43.20775" lon="5.42131">
        <ele>101.571045</ele>
        <time>2019-06-19 14:04:55,348</time>
      </trkpt>
      <trkpt lat="43.20775" lon="5.4213">
        <ele>101.63635</ele>
        <time>2019-06-19 14:04:56,637</time>
      </trkpt>
      <trkpt lat="43.20775" lon="5.42129">
        <ele>105.548584</ele>
        <time>2019-06-19 14:05:05,560</time>
      </trkpt>
      <trkpt lat="43.20775" lon="5.42129">
        <ele>105.75635</ele>
        <time>2019-06-19 14:05:07,344</time>
      </trkpt>
      <trkpt lat="43.20777" lon="5.42129">
        <ele>107.50592</ele>
        <time>2019-06-19 14:05:22,349</time>
      </trkpt>
      <trkpt lat="43.20777" lon="5.42129">
        <ele>107.214905</ele>
        <time>2019-06-19 14:05:23,354</time>
      </trkpt>
      <trkpt lat="43.20776" lon="5.42128">
        <ele>107.86841</ele>
        <time>2019-06-19 14:05:24,349</time>
      </trkpt>
      <trkpt lat="43.20775" lon="5.42128">
        <ele>108.04736</ele>
        <time>2019-06-19 14:05:25,587</time>
      </trkpt>
      <trkpt lat="43.20774" lon="5.42127">
        <ele>108.02649</ele>
        <time>2019-06-19 14:05:27,361</time>
      </trkpt>
      <trkpt lat="43.20771" lon="5.42127">
        <ele>106.748474</ele>
        <time>2019-06-19 14:05:53,351</time>
      </trkpt>
      <trkpt lat="43.2077" lon="5.42126">
        <ele>105.874756</ele>
        <time>2019-06-19 14:05:54,623</time>
      </trkpt>
      <trkpt lat="43.20768" lon="5.42126">
        <ele>106.2439</ele>
        <time>2019-06-19 14:05:56,347</time>
      </trkpt>
      <trkpt lat="43.20768" lon="5.42125">
        <ele>105.71094</ele>
        <time>2019-06-19 14:05:57,551</time>
      </trkpt>
      <trkpt lat="43.20766" lon="5.42125">
        <ele>105.197205</ele>
        <time>2019-06-19 14:06:00,350</time>
      </trkpt>
      <trkpt lat="43.20765" lon="5.42125">
        <ele>104.68439</ele>
        <time>2019-06-19 14:06:01,509</time>
      </trkpt>
      <trkpt lat="43.20765" lon="5.42126">
        <ele>105.048035</ele>
        <time>2019-06-19 14:06:03,348</time>
      </trkpt>
      <trkpt lat="43.20766" lon="5.42126">
        <ele>106.227356</ele>
        <time>2019-06-19 14:06:06,348</time>
      </trkpt>
      <trkpt lat="43.20766" lon="5.42125">
        <ele>106.26282</ele>
        <time>2019-06-19 14:06:07,611</time>
      </trkpt>
      <trkpt lat="43.20767" lon="5.42124">
        <ele>107.453</ele>
        <time>2019-06-19 14:06:09,354</time>
      </trkpt>
      <trkpt lat="43.20767" lon="5.42124">
        <ele>106.43463</ele>
        <time>2019-06-19 14:06:10,345</time>
      </trkpt>
      <trkpt lat="43.20767" lon="5.42123">
        <ele>108.70032</ele>
        <time>2019-06-19 14:06:15,326</time>
      </trkpt>
      <trkpt lat="43.20767" lon="5.42122">
        <ele>109.001526</ele>
        <time>2019-06-19 14:06:16,331</time>
      </trkpt>
      <trkpt lat="43.20766" lon="5.42121">
        <ele>109.58862</ele>
        <time>2019-06-19 14:06:17,327</time>
      </trkpt>
      <trkpt lat="43.20767" lon="5.4212">
        <ele>109.50293</ele>
        <time>2019-06-19 14:06:19,355</time>
      </trkpt>
      <trkpt lat="43.20766" lon="5.4212">
        <ele>109.49286</ele>
        <time>2019-06-19 14:06:20,346</time>
      </trkpt>
      <trkpt lat="43.20766" lon="5.42119">
        <ele>108.787964</ele>
        <time>2019-06-19 14:06:21,354</time>
      </trkpt>
      <trkpt lat="43.20766" lon="5.42119">
        <ele>108.68146</ele>
        <time>2019-06-19 14:06:22,340</time>
      </trkpt>
      <trkpt lat="43.20765" lon="5.42118">
        <ele>107.819824</ele>
        <time>2019-06-19 14:06:26,356</time>
      </trkpt>
      <trkpt lat="43.20764" lon="5.42118">
        <ele>106.721985</ele>
        <time>2019-06-19 14:06:27,579</time>
      </trkpt>
      <trkpt lat="43.20762" lon="5.42118">
        <ele>105.99164</ele>
        <time>2019-06-19 14:06:29,337</time>
      </trkpt>
      <trkpt lat="43.20761" lon="5.42118">
        <ele>106.07007</ele>
        <time>2019-06-19 14:06:30,567</time>
      </trkpt>
      <trkpt lat="43.20758" lon="5.42116">
        <ele>105.37097</ele>
        <time>2019-06-19 14:06:49,347</time>
      </trkpt>
      <trkpt lat="43.20757" lon="5.42116">
        <ele>105.90497</ele>
        <time>2019-06-19 14:06:50,345</time>
      </trkpt>
      <trkpt lat="43.20756" lon="5.42116">
        <ele>105.632935</ele>
        <time>2019-06-19 14:06:51,340</time>
      </trkpt>
      <trkpt lat="43.20755" lon="5.42116">
        <ele>105.53766</ele>
        <time>2019-06-19 14:06:53,624</time>
      </trkpt>
      <trkpt lat="43.20755" lon="5.42116">
        <ele>106.369385</ele>
        <time>2019-06-19 14:06:55,351</time>
      </trkpt>
      <trkpt lat="43.20755" lon="5.42115">
        <ele>107.54724</ele>
        <time>2019-06-19 14:06:56,355</time>
      </trkpt>
      <trkpt lat="43.20754" lon="5.42115">
        <ele>108.2215</ele>
        <time>2019-06-19 14:06:57,340</time>
      </trkpt>
      <trkpt lat="43.20754" lon="5.42115">
        <ele>110.34595</ele>
        <time>2019-06-19 14:06:58,351</time>
      </trkpt>
      <trkpt lat="43.20754" lon="5.42114">
        <ele>110.99274</ele>
        <time>2019-06-19 14:06:59,569</time>
      </trkpt>
      <trkpt lat="43.20753" lon="5.42114">
        <ele>112.073425</ele>
        <time>2019-06-19 14:07:01,349</time>
      </trkpt>
      <trkpt lat="43.20753" lon="5.42113">
        <ele>112.51538</ele>
        <time>2019-06-19 14:07:02,583</time>
      </trkpt>
      <trkpt lat="43.20752" lon="5.42114">
        <ele>112.488464</ele>
        <time>2019-06-19 14:07:05,577</time>
      </trkpt>
      <trkpt lat="43.20753" lon="5.42114">
        <ele>113.11536</ele>
        <time>2019-06-19 14:07:07,338</time>
      </trkpt>
      <trkpt lat="43.20753" lon="5.42114">
        <ele>112.81604</ele>
        <time>2019-06-19 14:07:08,557</time>
      </trkpt>
      <trkpt lat="43.20752" lon="5.42114">
        <ele>113.06439</ele>
        <time>2019-06-19 14:07:10,353</time>
      </trkpt>
      <trkpt lat="43.20752" lon="5.42114">
        <ele>113.01349</ele>
        <time>2019-06-19 14:07:11,558</time>
      </trkpt>
      <trkpt lat="43.20751" lon="5.42114">
        <ele>114.20996</ele>
        <time>2019-06-19 14:07:13,353</time>
      </trkpt>
      <trkpt lat="43.20751" lon="5.42113">
        <ele>114.07074</ele>
        <time>2019-06-19 14:07:14,594</time>
      </trkpt>
      <trkpt lat="43.20751" lon="5.42111">
        <ele>116.07678</ele>
        <time>2019-06-19 14:07:16,351</time>
      </trkpt>
      <trkpt lat="43.20752" lon="5.42111">
        <ele>116.92859</ele>
        <time>2019-06-19 14:07:17,354</time>
      </trkpt>
      <trkpt lat="43.20752" lon="5.42111">
        <ele>118.05176</ele>
        <time>2019-06-19 14:07:26,523</time>
      </trkpt>
      <trkpt lat="43.20752" lon="5.42111">
        <ele>119.24689</ele>
        <time>2019-06-19 14:07:28,358</time>
      </trkpt>
      <trkpt lat="43.20752" lon="5.4211">
        <ele>119.976685</ele>
        <time>2019-06-19 14:07:29,564</time>
      </trkpt>
      <trkpt lat="43.20751" lon="5.42109">
        <ele>119.60541</ele>
        <time>2019-06-19 14:07:31,346</time>
      </trkpt>
      <trkpt lat="43.2075" lon="5.42109">
        <ele>119.18048</ele>
        <time>2019-06-19 14:07:32,546</time>
      </trkpt>
      <trkpt lat="43.20748" lon="5.42109">
        <ele>118.784424</ele>
        <time>2019-06-19 14:07:34,345</time>
      </trkpt>
      <trkpt lat="43.20747" lon="5.42109">
        <ele>117.33386</ele>
        <time>2019-06-19 14:07:35,573</time>
      </trkpt>
      <trkpt lat="43.20744" lon="5.42109">
        <ele>118.238464</ele>
        <time>2019-06-19 14:07:37,341</time>
      </trkpt>
      <trkpt lat="43.20743" lon="5.42109">
        <ele>118.77423</ele>
        <time>2019-06-19 14:07:38,565</time>
      </trkpt>
      <trkpt lat="43.20741" lon="5.42109">
        <ele>117.711</ele>
        <time>2019-06-19 14:07:40,348</time>
      </trkpt>
      <trkpt lat="43.20741" lon="5.42109">
        <ele>118.103516</ele>
        <time>2019-06-19 14:07:41,553</time>
      </trkpt>
      <trkpt lat="43.2074" lon="5.42108">
        <ele>118.67468</ele>
        <time>2019-06-19 14:07:43,351</time>
      </trkpt>
      <trkpt lat="43.20739" lon="5.42108">
        <ele>118.817566</ele>
        <time>2019-06-19 14:07:44,625</time>
      </trkpt>
      <trkpt lat="43.20739" lon="5.42108">
        <ele>119.42401</ele>
        <time>2019-06-19 14:07:56,370</time>
      </trkpt>
      <trkpt lat="43.20739" lon="5.42108">
        <ele>120.5506</ele>
        <time>2019-06-19 14:07:57,352</time>
      </trkpt>
      <trkpt lat="43.20738" lon="5.42108">
        <ele>121.43091</ele>
        <time>2019-06-19 14:07:58,340</time>
      </trkpt>
      <trkpt lat="43.20737" lon="5.42109">
        <ele>121.858826</ele>
        <time>2019-06-19 14:08:00,352</time>
      </trkpt>
      <trkpt lat="43.20736" lon="5.42109">
        <ele>120.563354</ele>
        <time>2019-06-19 14:08:05,348</time>
      </trkpt>
      <trkpt lat="43.20735" lon="5.4211">
        <ele>119.79108</ele>
        <time>2019-06-19 14:08:06,625</time>
      </trkpt>
      <trkpt lat="43.20735" lon="5.4211">
        <ele>119.75159</ele>
        <time>2019-06-19 14:08:08,354</time>
      </trkpt>
      <trkpt lat="43.20734" lon="5.4211">
        <ele>118.38318</ele>
        <time>2019-06-19 14:08:09,348</time>
      </trkpt>
      <trkpt lat="43.20732" lon="5.4211">
        <ele>117.97693</ele>
        <time>2019-06-19 14:08:10,349</time>
      </trkpt>
      <trkpt lat="43.20731" lon="5.42109">
        <ele>119.52753</ele>
        <time>2019-06-19 14:08:14,352</time>
      </trkpt>
      <trkpt lat="43.20731" lon="5.42109">
        <ele>118.71643</ele>
        <time>2019-06-19 14:08:15,599</time>
      </trkpt>
      <trkpt lat="43.20732" lon="5.42109">
        <ele>121.240295</ele>
        <time>2019-06-19 14:08:24,353</time>
      </trkpt>
      <trkpt lat="43.20731" lon="5.42109">
        <ele>120.890015</ele>
        <time>2019-06-19 14:08:25,499</time>
      </trkpt>
      <trkpt lat="43.20731" lon="5.4211">
        <ele>123.88025</ele>
        <time>2019-06-19 14:08:27,352</time>
      </trkpt>
      <trkpt lat="43.20731" lon="5.4211">
        <ele>123.59778</ele>
        <time>2019-06-19 14:08:28,349</time>
      </trkpt>
      <trkpt lat="43.20731" lon="5.4211">
        <ele>126.35687</ele>
        <time>2019-06-19 14:08:42,349</time>
      </trkpt>
      <trkpt lat="43.20731" lon="5.42109">
        <ele>126.14978</ele>
        <time>2019-06-19 14:08:43,591</time>
      </trkpt>
      <trkpt lat="43.20731" lon="5.42108">
        <ele>128.09174</ele>
        <time>2019-06-19 14:08:45,341</time>
      </trkpt>
      <trkpt lat="43.2073" lon="5.42108">
        <ele>126.79822</ele>
        <time>2019-06-19 14:08:46,339</time>
      </trkpt>
      <trkpt lat="43.2073" lon="5.42109">
        <ele>127.3161</ele>
        <time>2019-06-19 14:08:49,340</time>
      </trkpt>
      <trkpt lat="43.20729" lon="5.42108">
        <ele>127.00354</ele>
        <time>2019-06-19 14:08:50,343</time>
      </trkpt>
      <trkpt lat="43.20729" lon="5.42108">
        <ele>128.34814</ele>
        <time>2019-06-19 14:08:53,337</time>
      </trkpt>
      <trkpt lat="43.20729" lon="5.42107">
        <ele>129.23175</ele>
        <time>2019-06-19 14:08:54,343</time>
      </trkpt>
      <trkpt lat="43.20729" lon="5.42107">
        <ele>131.00256</ele>
        <time>2019-06-19 14:08:58,351</time>
      </trkpt>
      <trkpt lat="43.20729" lon="5.42107">
        <ele>130.73938</ele>
        <time>2019-06-19 14:08:59,337</time>
      </trkpt>
      <trkpt lat="43.20729" lon="5.42107">
        <ele>133.33667</ele>
        <time>2019-06-19 14:09:10,562</time>
      </trkpt>
      <trkpt lat="43.2073" lon="5.42107">
        <ele>135.00952</ele>
        <time>2019-06-19 14:09:12,344</time>
      </trkpt>
      <trkpt lat="43.2073" lon="5.42106">
        <ele>135.65369</ele>
        <time>2019-06-19 14:09:13,479</time>
      </trkpt>
      <trkpt lat="43.2073" lon="5.42106">
        <ele>136.41339</ele>
        <time>2019-06-19 14:09:15,353</time>
      </trkpt>
      <trkpt lat="43.20732" lon="5.42106">
        <ele>140.49603</ele>
        <time>2019-06-19 14:09:20,344</time>
      </trkpt>
      <trkpt lat="43.20732" lon="5.42106">
        <ele>140.63391</ele>
        <time>2019-06-19 14:09:21,350</time>
      </trkpt>
      <trkpt lat="43.20733" lon="5.42106">
        <ele>140.2732</ele>
        <time>2019-06-19 14:09:22,347</time>
      </trkpt>
      <trkpt lat="43.20732" lon="5.42106">
        <ele>140.42395</ele>
        <time>2019-06-19 14:09:24,336</time>
      </trkpt>
      <trkpt lat="43.20732" lon="5.42105">
        <ele>140.5965</ele>
        <time>2019-06-19 14:09:25,340</time>
      </trkpt>
      <trkpt lat="43.20731" lon="5.42104">
        <ele>141.54279</ele>
        <time>2019-06-19 14:09:26,358</time>
      </trkpt>
      <trkpt lat="43.20731" lon="5.42103">
        <ele>140.79187</ele>
        <time>2019-06-19 14:09:28,338</time>
      </trkpt>
      <trkpt lat="43.2073" lon="5.42102">
        <ele>141.78333</ele>
        <time>2019-06-19 14:09:29,339</time>
      </trkpt>
      <trkpt lat="43.2073" lon="5.42101">
        <ele>143.38055</ele>
        <time>2019-06-19 14:09:30,351</time>
      </trkpt>
      <trkpt lat="43.2073" lon="5.42101">
        <ele>143.39355</ele>
        <time>2019-06-19 14:09:31,350</time>
      </trkpt>
      <trkpt lat="43.2073" lon="5.421">
        <ele>143.82617</ele>
        <time>2019-06-19 14:09:32,515</time>
      </trkpt>
      <trkpt lat="43.2073" lon="5.42099">
        <ele>146.84778</ele>
        <time>2019-06-19 14:09:34,349</time>
      </trkpt>
      <trkpt lat="43.2073" lon="5.42098">
        <ele>146.95728</ele>
        <time>2019-06-19 14:09:35,495</time>
      </trkpt>
      <trkpt lat="43.2073" lon="5.42098">
        <ele>148.32031</ele>
        <time>2019-06-19 14:09:37,348</time>
      </trkpt>
      <trkpt lat="43.20731" lon="5.42098">
        <ele>149.82715</ele>
        <time>2019-06-19 14:09:38,608</time>
      </trkpt>
      <trkpt lat="43.20731" lon="5.42098">
        <ele>149.17828</ele>
        <time>2019-06-19 14:09:40,346</time>
      </trkpt>
      <trkpt lat="43.2073" lon="5.42097">
        <ele>148.78961</ele>
        <time>2019-06-19 14:09:41,355</time>
      </trkpt>
      <trkpt lat="43.2073" lon="5.42097">
        <ele>148.86053</ele>
        <time>2019-06-19 14:09:42,585</time>
      </trkpt>
      <trkpt lat="43.20729" lon="5.42097">
        <ele>148.88135</ele>
        <time>2019-06-19 14:09:45,591</time>
      </trkpt>
      <trkpt lat="43.20729" lon="5.42096">
        <ele>149.16663</ele>
        <time>2019-06-19 14:09:47,341</time>
      </trkpt>
      <trkpt lat="43.20729" lon="5.42095">
        <ele>149.43774</ele>
        <time>2019-06-19 14:09:48,348</time>
      </trkpt>
      <trkpt lat="43.20729" lon="5.42095">
        <ele>149.87354</ele>
        <time>2019-06-19 14:09:49,595</time>
      </trkpt>
      <trkpt lat="43.20729" lon="5.42093">
        <ele>149.56604</ele>
        <time>2019-06-19 14:09:51,349</time>
      </trkpt>
      <trkpt lat="43.20729" lon="5.42093">
        <ele>149.25049</ele>
        <time>2019-06-19 14:09:52,625</time>
      </trkpt>
      <trkpt lat="43.20731" lon="5.42093">
        <ele>148.57147</ele>
        <time>2019-06-19 14:09:54,360</time>
      </trkpt>
      <trkpt lat="43.20732" lon="5.42092">
        <ele>147.87793</ele>
        <time>2019-06-19 14:09:55,345</time>
      </trkpt>
      <trkpt lat="43.20732" lon="5.42092">
        <ele>147.39905</ele>
        <time>2019-06-19 14:09:56,351</time>
      </trkpt>
      <trkpt lat="43.20731" lon="5.42092">
        <ele>146.61957</ele>
        <time>2019-06-19 14:09:57,481</time>
      </trkpt>
      <trkpt lat="43.20728" lon="5.42093">
        <ele>145.92639</ele>
        <time>2019-06-19 14:09:59,354</time>
      </trkpt>
      <trkpt lat="43.20727" lon="5.42093">
        <ele>145.45123</ele>
        <time>2019-06-19 14:10:00,350</time>
      </trkpt>
      <trkpt lat="43.20726" lon="5.42093">
        <ele>145.62854</ele>
        <time>2019-06-19 14:10:01,466</time>
      </trkpt>
      <trkpt lat="43.20725" lon="5.42092">
        <ele>145.2793</ele>
        <time>2019-06-19 14:10:03,350</time>
      </trkpt>
      <trkpt lat="43.20724" lon="5.42092">
        <ele>144.74817</ele>
        <time>2019-06-19 14:10:04,618</time>
      </trkpt>
      <trkpt lat="43.20723" lon="5.42091">
        <ele>145.25989</ele>
        <time>2019-06-19 14:10:06,355</time>
      </trkpt>
      <trkpt lat="43.20723" lon="5.4209">
        <ele>144.0957</ele>
        <time>2019-06-19 14:10:07,348</time>
      </trkpt>
      <trkpt lat="43.20721" lon="5.4209">
        <ele>142.76892</ele>
        <time>2019-06-19 14:10:08,591</time>
      </trkpt>
      <trkpt lat="43.20719" lon="5.4209">
        <ele>144.0149</ele>
        <time>2019-06-19 14:10:10,346</time>
      </trkpt>
      <trkpt lat="43.20718" lon="5.42091">
        <ele>144.28772</ele>
        <time>2019-06-19 14:10:11,349</time>
      </trkpt>
      <trkpt lat="43.20718" lon="5.4209">
        <ele>143.68597</ele>
        <time>2019-06-19 14:10:12,349</time>
      </trkpt>
      <trkpt lat="43.20717" lon="5.4209">
        <ele>144.32202</ele>
        <time>2019-06-19 14:10:13,558</time>
      </trkpt>
      <trkpt lat="43.20716" lon="5.42091">
        <ele>144.2533</ele>
        <time>2019-06-19 14:10:15,340</time>
      </trkpt>
      <trkpt lat="43.20716" lon="5.42091">
        <ele>143.5061</ele>
        <time>2019-06-19 14:10:16,341</time>
      </trkpt>
      <trkpt lat="43.20716" lon="5.42091">
        <ele>144.45947</ele>
        <time>2019-06-19 14:10:19,368</time>
      </trkpt>
      <trkpt lat="43.20716" lon="5.4209">
        <ele>145.75854</ele>
        <time>2019-06-19 14:10:20,341</time>
      </trkpt>
      <trkpt lat="43.20716" lon="5.4209">
        <ele>146.60706</ele>
        <time>2019-06-19 14:10:21,554</time>
      </trkpt>
      <trkpt lat="43.20716" lon="5.42087">
        <ele>148.24335</ele>
        <time>2019-06-19 14:10:24,340</time>
      </trkpt>
      <trkpt lat="43.20716" lon="5.42087">
        <ele>147.6919</ele>
        <time>2019-06-19 14:10:25,343</time>
      </trkpt>
      <trkpt lat="43.20717" lon="5.42087">
        <ele>151.23492</ele>
        <time>2019-06-19 14:10:27,340</time>
      </trkpt>
      <trkpt lat="43.20717" lon="5.42087">
        <ele>149.89551</ele>
        <time>2019-06-19 14:10:28,348</time>
      </trkpt>
      <trkpt lat="43.20716" lon="5.42086">
        <ele>150.07556</ele>
        <time>2019-06-19 14:10:34,343</time>
      </trkpt>
      <trkpt lat="43.20715" lon="5.42086">
        <ele>149.26562</ele>
        <time>2019-06-19 14:10:35,577</time>
      </trkpt>
      <trkpt lat="43.20715" lon="5.42089">
        <ele>151.34949</ele>
        <time>2019-06-19 14:10:49,338</time>
      </trkpt>
      <trkpt lat="43.20715" lon="5.42088">
        <ele>151.77039</ele>
        <time>2019-06-19 14:10:50,593</time>
      </trkpt>
      <trkpt lat="43.20717" lon="5.4209">
        <ele>156.69757</ele>
        <time>2019-06-19 14:11:16,339</time>
      </trkpt>
      <trkpt lat="43.20718" lon="5.42089">
        <ele>156.69891</ele>
        <time>2019-06-19 14:11:17,341</time>
      </trkpt>
      <trkpt lat="43.2072" lon="5.42089">
        <ele>157.56091</ele>
        <time>2019-06-19 14:11:35,358</time>
      </trkpt>
      <trkpt lat="43.2072" lon="5.4209">
        <ele>157.82532</ele>
        <time>2019-06-19 14:11:36,637</time>
      </trkpt>
      <trkpt lat="43.20717" lon="5.42091">
        <ele>157.92297</ele>
        <time>2019-06-19 14:11:57,339</time>
      </trkpt>
      <trkpt lat="43.20717" lon="5.42091">
        <ele>155.44836</ele>
        <time>2019-06-19 14:11:58,541</time>
      </trkpt>
      <trkpt lat="43.20716" lon="5.42091">
        <ele>156.44824</ele>
        <time>2019-06-19 14:12:00,337</time>
      </trkpt>
      <trkpt lat="43.20716" lon="5.42091">
        <ele>156.06616</ele>
        <time>2019-06-19 14:12:01,520</time>
      </trkpt>
      <trkpt lat="43.20715" lon="5.4209">
        <ele>153.89343</ele>
        <time>2019-06-19 14:12:28,343</time>
      </trkpt>
      <trkpt lat="43.20715" lon="5.42089">
        <ele>153.65808</ele>
        <time>2019-06-19 14:12:41,344</time>
      </trkpt>
      <trkpt lat="43.20715" lon="5.42089">
        <ele>153.5888</ele>
        <time>2019-06-19 14:12:42,443</time>
      </trkpt>
      <trkpt lat="43.20714" lon="5.42089">
        <ele>153.60559</ele>
        <time>2019-06-19 14:15:42,520</time>
      </trkpt>
      <trkpt lat="43.20714" lon="5.42089">
        <ele>153.60956</ele>
        <time>2019-06-19 14:15:47,537</time>
      </trkpt>
      <trkpt lat="43.20713" lon="5.42089">
        <ele>177.03418</ele>
        <time>2019-06-19 14:15:47,909</time>
      </trkpt>
      <trkpt lat="43.20713" lon="5.42089">
        <ele>155.74304</ele>
        <time>2019-06-19 14:16:21,920</time>
      </trkpt>
      <trkpt lat="43.20713" lon="5.42089">
        <ele>155.4574</ele>
        <time>2019-06-19 14:16:43,752</time>
      </trkpt>
      <trkpt lat="43.20713" lon="5.42089">
        <ele>155.35425</ele>
        <time>2019-06-19 14:16:50,761</time>
      </trkpt>
      <trkpt lat="43.20713" lon="5.42089">
        <ele>155.24048</ele>
        <time>2019-06-19 14:16:51,756</time>
      </trkpt>
      <trkpt lat="43.20713" lon="5.42089">
        <ele>156.4909</ele>
        <time>2019-06-19 14:16:58,752</time>
      </trkpt>
      <trkpt lat="43.20713" lon="5.42089">
        <ele>156.34625</ele>
        <time>2019-06-19 14:16:59,928</time>
      </trkpt>
      <trkpt lat="43.20714" lon="5.42089">
        <ele>156.50159</ele>
        <time>2019-06-19 14:17:10,755</time>
      </trkpt>
      <trkpt lat="43.20714" lon="5.42089">
        <ele>156.25311</ele>
        <time>2019-06-19 14:17:11,766</time>
      </trkpt>
      <trkpt lat="43.20714" lon="5.4209">
        <ele>157.67505</ele>
        <time>2019-06-19 14:18:30,428</time>
      </trkpt>
      <trkpt lat="43.20714" lon="5.4209">
        <ele>156.96887</ele>
        <time>2019-06-19 14:18:34,424</time>
      </trkpt>
      <trkpt lat="43.20714" lon="5.4209">
        <ele>157.78703</ele>
        <time>2019-06-19 14:18:35,681</time>
      </trkpt>
      <trkpt lat="43.2071" lon="5.42089">
        <ele>146.68927</ele>
        <time>2019-06-19 14:23:28,220</time>
      </trkpt>
      <trkpt lat="43.2071" lon="5.42089">
        <ele>146.26526</ele>
        <time>2019-06-19 14:23:30,230</time>
      </trkpt>
      <trkpt lat="43.2071" lon="5.42088">
        <ele>149.40582</ele>
        <time>2019-06-19 14:23:32,224</time>
      </trkpt>
      <trkpt lat="43.20712" lon="5.42088">
        <ele>152.67224</ele>
        <time>2019-06-19 14:23:39,228</time>
      </trkpt>
      <trkpt lat="43.20711" lon="5.42088">
        <ele>153.25665</ele>
        <time>2019-06-19 14:23:40,230</time>
      </trkpt>
      <trkpt lat="43.20711" lon="5.42087">
        <ele>154.07916</ele>
        <time>2019-06-19 14:23:57,309</time>
      </trkpt>
      <trkpt lat="43.20711" lon="5.42087">
        <ele>203.94409</ele>
        <time>2019-06-19 14:23:58,240</time>
      </trkpt>
      <trkpt lat="43.20709" lon="5.42087">
        <ele>153.56653</ele>
        <time>2019-06-19 14:27:49,192</time>
      </trkpt>
      <trkpt lat="43.20709" lon="5.42086">
        <ele>151.56061</ele>
        <time>2019-06-19 14:27:50,187</time>
      </trkpt>
      <trkpt lat="43.20711" lon="5.42084">
        <ele>156.88202</ele>
        <time>2019-06-19 14:28:10,188</time>
      </trkpt>
      <trkpt lat="43.20711" lon="5.42084">
        <ele>153.04095</ele>
        <time>2019-06-19 14:28:36,188</time>
      </trkpt>
      <trkpt lat="43.20711" lon="5.42084">
        <ele>153.18689</ele>
        <time>2019-06-19 14:28:59,311</time>
      </trkpt>
      <trkpt lat="43.20711" lon="5.42084">
        <ele>152.42834</ele>
        <time>2019-06-19 14:29:27,221</time>
      </trkpt>
      <trkpt lat="43.20711" lon="5.42084">
        <ele>152.29797</ele>
        <time>2019-06-19 14:29:47,199</time>
      </trkpt>
      <trkpt lat="43.20711" lon="5.42084">
        <ele>152.45691</ele>
        <time>2019-06-19 14:31:15,196</time>
      </trkpt>
      <trkpt lat="43.20712" lon="5.42087">
        <ele>155.93915</ele>
        <time>2019-06-19 14:32:20,187</time>
      </trkpt>
      <trkpt lat="43.20712" lon="5.42087">
        <ele>157.83325</ele>
        <time>2019-06-19 14:32:44,397</time>
      </trkpt>
      <trkpt lat="43.2071" lon="5.4209">
        <ele>157.73712</ele>
        <time>2019-06-19 14:33:24,185</time>
      </trkpt>
      <trkpt lat="43.2071" lon="5.4209">
        <ele>157.8523</ele>
        <time>2019-06-19 14:33:41,189</time>
      </trkpt>
      <trkpt lat="43.2071" lon="5.4209">
        <ele>158.4049</ele>
        <time>2019-06-19 14:33:42,184</time>
      </trkpt>
      <trkpt lat="43.2071" lon="5.42089">
        <ele>160.46375</ele>
        <time>2019-06-19 14:33:43,187</time>
      </trkpt>
      <trkpt lat="43.20711" lon="5.42089">
        <ele>158.5094</ele>
        <time>2019-06-19 14:34:05,186</time>
      </trkpt>
      <trkpt lat="43.20711" lon="5.42089">
        <ele>159.18054</ele>
        <time>2019-06-19 14:34:21,188</time>
      </trkpt>
      <trkpt lat="43.20711" lon="5.4209">
        <ele>158.63324</ele>
        <time>2019-06-19 14:34:22,184</time>
      </trkpt>
      <trkpt lat="43.20709" lon="5.42088">
        <ele>159.89172</ele>
        <time>2019-06-19 14:34:58,195</time>
      </trkpt>
      <trkpt lat="43.20709" lon="5.42088">
        <ele>162.05823</ele>
        <time>2019-06-19 14:35:49,207</time>
      </trkpt>
      <trkpt lat="43.2071" lon="5.4209">
        <ele>159.42432</ele>
        <time>2019-06-19 14:35:52,197</time>
      </trkpt>
      <trkpt lat="43.20711" lon="5.42088">
        <ele>157.98682</ele>
        <time>2019-06-19 14:35:53,198</time>
      </trkpt>
      <trkpt lat="43.20711" lon="5.42089">
        <ele>157.16888</ele>
        <time>2019-06-19 14:36:15,184</time>
      </trkpt>
      <trkpt lat="43.20711" lon="5.42089">
        <ele>157.9881</ele>
        <time>2019-06-19 14:36:16,184</time>
      </trkpt>
      <trkpt lat="43.2071" lon="5.42089">
        <ele>158.45898</ele>
        <time>2019-06-19 14:36:17,184</time>
      </trkpt>
      <trkpt lat="43.20707" lon="5.42089">
        <ele>160.0625</ele>
        <time>2019-06-19 14:36:23,188</time>
      </trkpt>
      <trkpt lat="43.20706" lon="5.42089">
        <ele>159.25342</ele>
        <time>2019-06-19 14:36:24,356</time>
      </trkpt>
      <trkpt lat="43.20706" lon="5.4209">
        <ele>158.93512</ele>
        <time>2019-06-19 14:36:26,187</time>
      </trkpt>
      <trkpt lat="43.20705" lon="5.42089">
        <ele>158.31354</ele>
        <time>2019-06-19 14:36:29,185</time>
      </trkpt>
      <trkpt lat="43.20704" lon="5.42089">
        <ele>158.70605</ele>
        <time>2019-06-19 14:36:30,468</time>
      </trkpt>
      <trkpt lat="43.20703" lon="5.42089">
        <ele>157.73145</ele>
        <time>2019-06-19 14:36:32,232</time>
      </trkpt>
      <trkpt lat="43.20703" lon="5.42089">
        <ele>158.36713</ele>
        <time>2019-06-19 14:36:33,189</time>
      </trkpt>
      <trkpt lat="43.20702" lon="5.42089">
        <ele>158.92126</ele>
        <time>2019-06-19 14:36:34,411</time>
      </trkpt>
      <trkpt lat="43.20702" lon="5.42089">
        <ele>157.16455</ele>
        <time>2019-06-19 14:36:42,186</time>
      </trkpt>
      <trkpt lat="43.20702" lon="5.42088">
        <ele>156.66461</ele>
        <time>2019-06-19 14:36:43,190</time>
      </trkpt>
      <trkpt lat="43.20701" lon="5.42087">
        <ele>155.97607</ele>
        <time>2019-06-19 14:36:44,184</time>
      </trkpt>
      <trkpt lat="43.20701" lon="5.42087">
        <ele>155.69043</ele>
        <time>2019-06-19 14:36:45,186</time>
      </trkpt>
      <trkpt lat="43.20701" lon="5.42086">
        <ele>154.68512</ele>
        <time>2019-06-19 14:36:46,187</time>
      </trkpt>
      <trkpt lat="43.207" lon="5.42085">
        <ele>155.09125</ele>
        <time>2019-06-19 14:36:47,188</time>
      </trkpt>
      <trkpt lat="43.20699" lon="5.42084">
        <ele>155.98755</ele>
        <time>2019-06-19 14:36:52,191</time>
      </trkpt>
      <trkpt lat="43.20699" lon="5.42084">
        <ele>156.20312</ele>
        <time>2019-06-19 14:36:53,286</time>
      </trkpt>
      <trkpt lat="43.20699" lon="5.42085">
        <ele>155.31415</ele>
        <time>2019-06-19 14:36:55,192</time>
      </trkpt>
      <trkpt lat="43.20699" lon="5.42085">
        <ele>154.62964</ele>
        <time>2019-06-19 14:36:56,186</time>
      </trkpt>
      <trkpt lat="43.207" lon="5.42086">
        <ele>151.9065</ele>
        <time>2019-06-19 14:37:01,188</time>
      </trkpt>
      <trkpt lat="43.207" lon="5.42086">
        <ele>152.07458</ele>
        <time>2019-06-19 14:37:02,207</time>
      </trkpt>
      <trkpt lat="43.20699" lon="5.42087">
        <ele>150.75659</ele>
        <time>2019-06-19 14:37:08,197</time>
      </trkpt>
      <trkpt lat="43.20698" lon="5.42087">
        <ele>149.9809</ele>
        <time>2019-06-19 14:37:09,207</time>
      </trkpt>
      <trkpt lat="43.20698" lon="5.42086">
        <ele>150.08801</ele>
        <time>2019-06-19 14:37:10,189</time>
      </trkpt>
      <trkpt lat="43.20697" lon="5.42086">
        <ele>149.77142</ele>
        <time>2019-06-19 14:37:11,203</time>
      </trkpt>
      <trkpt lat="43.20697" lon="5.42085">
        <ele>148.32501</ele>
        <time>2019-06-19 14:37:17,194</time>
      </trkpt>
      <trkpt lat="43.20697" lon="5.42085">
        <ele>147.92865</ele>
        <time>2019-06-19 14:37:18,193</time>
      </trkpt>
      <trkpt lat="43.20697" lon="5.42086">
        <ele>146.34753</ele>
        <time>2019-06-19 14:37:22,187</time>
      </trkpt>
      <trkpt lat="43.20697" lon="5.42086">
        <ele>146.56274</ele>
        <time>2019-06-19 14:37:23,186</time>
      </trkpt>
      <trkpt lat="43.20697" lon="5.42086">
        <ele>146.99011</ele>
        <time>2019-06-19 14:37:24,182</time>
      </trkpt>
      <trkpt lat="43.20696" lon="5.42086">
        <ele>147.96918</ele>
        <time>2019-06-19 14:37:25,193</time>
      </trkpt>
      <trkpt lat="43.20696" lon="5.42087">
        <ele>148.06201</ele>
        <time>2019-06-19 14:37:26,192</time>
      </trkpt>
      <trkpt lat="43.20696" lon="5.42086">
        <ele>147.25928</ele>
        <time>2019-06-19 14:37:27,192</time>
      </trkpt>
      <trkpt lat="43.20696" lon="5.42086">
        <ele>147.01672</ele>
        <time>2019-06-19 14:37:28,189</time>
      </trkpt>
      <trkpt lat="43.20696" lon="5.42086">
        <ele>146.69775</ele>
        <time>2019-06-19 14:37:29,190</time>
      </trkpt>
      <trkpt lat="43.20696" lon="5.42086">
        <ele>145.81787</ele>
        <time>2019-06-19 14:37:30,192</time>
      </trkpt>
      <trkpt lat="43.20696" lon="5.42086">
        <ele>145.36237</ele>
        <time>2019-06-19 14:37:31,184</time>
      </trkpt>
      <trkpt lat="43.20697" lon="5.42087">
        <ele>143.72937</ele>
        <time>2019-06-19 14:37:36,382</time>
      </trkpt>
      <trkpt lat="43.20697" lon="5.42087">
        <ele>143.54651</ele>
        <time>2019-06-19 14:37:38,188</time>
      </trkpt>
      <trkpt lat="43.20697" lon="5.42087">
        <ele>143.38574</ele>
        <time>2019-06-19 14:37:59,189</time>
      </trkpt>
      <trkpt lat="43.20697" lon="5.42086">
        <ele>142.59595</ele>
        <time>2019-06-19 14:38:00,187</time>
      </trkpt>
      <trkpt lat="43.20695" lon="5.42085">
        <ele>144.75165</ele>
        <time>2019-06-19 14:38:09,419</time>
      </trkpt>
      <trkpt lat="43.20694" lon="5.42085">
        <ele>145.45154</ele>
        <time>2019-06-19 14:38:11,185</time>
      </trkpt>
      <trkpt lat="43.20693" lon="5.42082">
        <ele>144.60645</ele>
        <time>2019-06-19 14:38:40,441</time>
      </trkpt>
      <trkpt lat="43.20693" lon="5.42082">
        <ele>144.63098</ele>
        <time>2019-06-19 14:39:03,185</time>
      </trkpt>
      <trkpt lat="43.20693" lon="5.42082">
        <ele>143.3985</ele>
        <time>2019-06-19 14:39:20,192</time>
      </trkpt>
      <trkpt lat="43.20693" lon="5.42082">
        <ele>144.30725</ele>
        <time>2019-06-19 14:39:21,184</time>
      </trkpt>
      <trkpt lat="43.20693" lon="5.42083">
        <ele>144.21619</ele>
        <time>2019-06-19 14:39:50,179</time>
      </trkpt>
      <trkpt lat="43.20693" lon="5.42083">
        <ele>143.93988</ele>
        <time>2019-06-19 14:41:01,184</time>
      </trkpt>
      <trkpt lat="43.20693" lon="5.42083">
        <ele>144.46454</ele>
        <time>2019-06-19 14:41:57,185</time>
      </trkpt>
      <trkpt lat="43.20693" lon="5.42084">
        <ele>144.03479</ele>
        <time>2019-06-19 14:42:01,245</time>
      </trkpt>
      <trkpt lat="43.20694" lon="5.42083">
        <ele>142.88733</ele>
        <time>2019-06-19 14:42:02,185</time>
      </trkpt>
      <trkpt lat="43.20696" lon="5.42081">
        <ele>141.30566</ele>
        <time>2019-06-19 14:42:30,180</time>
      </trkpt>
      <trkpt lat="43.20696" lon="5.42082">
        <ele>140.94708</ele>
        <time>2019-06-19 14:42:47,193</time>
      </trkpt>
      <trkpt lat="43.20697" lon="5.42082">
        <ele>141.11017</ele>
        <time>2019-06-19 14:42:48,184</time>
      </trkpt>
      <trkpt lat="43.20698" lon="5.42086">
        <ele>141.14136</ele>
        <time>2019-06-19 14:43:10,186</time>
      </trkpt>
      <trkpt lat="43.20698" lon="5.42086">
        <ele>142.74359</ele>
        <time>2019-06-19 14:43:11,187</time>
      </trkpt>
      <trkpt lat="43.20699" lon="5.42089">
        <ele>142.65662</ele>
        <time>2019-06-19 14:43:22,185</time>
      </trkpt>
      <trkpt lat="43.20699" lon="5.42089">
        <ele>142.14142</ele>
        <time>2019-06-19 14:43:23,182</time>
      </trkpt>
      <trkpt lat="43.20699" lon="5.42089">
        <ele>140.9826</ele>
        <time>2019-06-19 14:43:24,182</time>
      </trkpt>
      <trkpt lat="43.20699" lon="5.42088">
        <ele>140.2229</ele>
        <time>2019-06-19 14:43:25,181</time>
      </trkpt>
      <trkpt lat="43.20698" lon="5.42092">
        <ele>142.62292</ele>
        <time>2019-06-19 14:43:57,197</time>
      </trkpt>
      <trkpt lat="43.20698" lon="5.42092">
        <ele>142.69214</ele>
        <time>2019-06-19 14:44:25,193</time>
      </trkpt>
      <trkpt lat="43.20698" lon="5.42092">
        <ele>142.59448</ele>
        <time>2019-06-19 14:44:53,189</time>
      </trkpt>
      <trkpt lat="43.20699" lon="5.42092">
        <ele>141.89893</ele>
        <time>2019-06-19 14:45:14,449</time>
      </trkpt>
      <trkpt lat="43.20698" lon="5.42088">
        <ele>142.4721</ele>
        <time>2019-06-19 14:45:53,411</time>
      </trkpt>
      <trkpt lat="43.20694" lon="5.42085">
        <ele>147.06262</ele>
        <time>2019-06-19 14:46:37,190</time>
      </trkpt>
      <trkpt lat="43.20693" lon="5.42086">
        <ele>146.42297</ele>
        <time>2019-06-19 14:46:57,180</time>
      </trkpt>
      <trkpt lat="43.20693" lon="5.42086">
        <ele>144.55914</ele>
        <time>2019-06-19 14:47:21,183</time>
      </trkpt>
      <trkpt lat="43.20693" lon="5.42086">
        <ele>145.61475</ele>
        <time>2019-06-19 14:47:22,189</time>
      </trkpt>
      <trkpt lat="43.20693" lon="5.42084">
        <ele>145.83679</ele>
        <time>2019-06-19 14:47:30,217</time>
      </trkpt>
      <trkpt lat="43.20693" lon="5.42084">
        <ele>145.58301</ele>
        <time>2019-06-19 14:47:31,183</time>
      </trkpt>
      <trkpt lat="43.20693" lon="5.42083">
        <ele>144.25232</ele>
        <time>2019-06-19 14:47:58,188</time>
      </trkpt>
      <trkpt lat="43.20693" lon="5.42083">
        <ele>144.38794</ele>
        <time>2019-06-19 14:48:35,316</time>
      </trkpt>
      <trkpt lat="43.20693" lon="5.42083">
        <ele>144.38452</ele>
        <time>2019-06-19 14:49:03,181</time>
      </trkpt>
      <trkpt lat="43.20693" lon="5.42083">
        <ele>143.87915</ele>
        <time>2019-06-19 14:49:27,438</time>
      </trkpt>
      <trkpt lat="43.20694" lon="5.42084">
        <ele>143.95947</ele>
        <time>2019-06-19 14:49:29,180</time>
      </trkpt>
      <trkpt lat="43.20694" lon="5.42085">
        <ele>143.50232</ele>
        <time>2019-06-19 14:49:30,403</time>
      </trkpt>
      <trkpt lat="43.20699" lon="5.42084">
        <ele>137.10907</ele>
        <time>2019-06-19 14:49:57,181</time>
      </trkpt>
      <trkpt lat="43.20699" lon="5.42084">
        <ele>137.11218</ele>
        <time>2019-06-19 14:50:21,185</time>
      </trkpt>
      <trkpt lat="43.20699" lon="5.42084">
        <ele>137.40576</ele>
        <time>2019-06-19 14:50:38,184</time>
      </trkpt>
      <trkpt lat="43.20699" lon="5.42085">
        <ele>137.53839</ele>
        <time>2019-06-19 14:50:39,196</time>
      </trkpt>
      <trkpt lat="43.20699" lon="5.42084">
        <ele>137.63422</ele>
        <time>2019-06-19 14:50:41,192</time>
      </trkpt>
      <trkpt lat="43.20699" lon="5.42084">
        <ele>137.71118</ele>
        <time>2019-06-19 14:50:42,196</time>
      </trkpt>
      <trkpt lat="43.20699" lon="5.42085">
        <ele>138.13379</ele>
        <time>2019-06-19 14:50:50,186</time>
      </trkpt>
      <trkpt lat="43.20699" lon="5.42085">
        <ele>138.4278</ele>
        <time>2019-06-19 14:50:51,190</time>
      </trkpt>
      <trkpt lat="43.207" lon="5.42086">
        <ele>138.09906</ele>
        <time>2019-06-19 14:51:01,185</time>
      </trkpt>
      <trkpt lat="43.207" lon="5.42086">
        <ele>138.12006</ele>
        <time>2019-06-19 14:51:02,191</time>
      </trkpt>
      <trkpt lat="43.20699" lon="5.42087">
        <ele>138.42249</ele>
        <time>2019-06-19 14:51:03,181</time>
      </trkpt>
      <trkpt lat="43.20699" lon="5.42087">
        <ele>138.57422</ele>
        <time>2019-06-19 14:51:04,191</time>
      </trkpt>
      <trkpt lat="43.20698" lon="5.42088">
        <ele>138.91302</ele>
        <time>2019-06-19 14:51:20,203</time>
      </trkpt>
      <trkpt lat="43.20698" lon="5.42088">
        <ele>139.68219</ele>
        <time>2019-06-19 14:51:21,196</time>
      </trkpt>
      <trkpt lat="43.20697" lon="5.42087">
        <ele>144.61023</ele>
        <time>2019-06-19 14:51:57,191</time>
      </trkpt>
      <trkpt lat="43.20697" lon="5.42088">
        <ele>144.22229</ele>
        <time>2019-06-19 14:52:29,180</time>
      </trkpt>
      <trkpt lat="43.20697" lon="5.42088">
        <ele>141.74097</ele>
        <time>2019-06-19 14:53:14,181</time>
      </trkpt>
      <trkpt lat="43.20697" lon="5.42088">
        <ele>143.98627</ele>
        <time>2019-06-19 14:53:54,187</time>
      </trkpt>
      <trkpt lat="43.20696" lon="5.42089">
        <ele>144.19122</ele>
        <time>2019-06-19 14:54:37,190</time>
      </trkpt>
      <trkpt lat="43.20696" lon="5.42089">
        <ele>145.1651</ele>
        <time>2019-06-19 14:55:07,183</time>
      </trkpt>
      <trkpt lat="43.20696" lon="5.4209">
        <ele>146.15106</ele>
        <time>2019-06-19 14:55:08,186</time>
      </trkpt>
      <trkpt lat="43.20696" lon="5.4209">
        <ele>146.92493</ele>
        <time>2019-06-19 14:55:09,186</time>
      </trkpt>
      <trkpt lat="43.20696" lon="5.42089">
        <ele>146.99017</ele>
        <time>2019-06-19 14:55:10,322</time>
      </trkpt>
      <trkpt lat="43.20693" lon="5.4209">
        <ele>153.1532</ele>
        <time>2019-06-19 14:55:38,178</time>
      </trkpt>
      <trkpt lat="43.20689" lon="5.42092">
        <ele>157.26624</ele>
        <time>2019-06-19 14:56:07,185</time>
      </trkpt>
      <trkpt lat="43.20689" lon="5.42092">
        <ele>156.5777</ele>
        <time>2019-06-19 14:56:14,182</time>
      </trkpt>
      <trkpt lat="43.20689" lon="5.42092">
        <ele>157.28223</ele>
        <time>2019-06-19 14:56:15,183</time>
      </trkpt>
      <trkpt lat="43.20689" lon="5.42092">
        <ele>157.77136</ele>
        <time>2019-06-19 14:56:16,180</time>
      </trkpt>
      <trkpt lat="43.20689" lon="5.42092">
        <ele>157.8866</ele>
        <time>2019-06-19 14:56:17,188</time>
      </trkpt>
      <trkpt lat="43.20695" lon="5.42088">
        <ele>151.75726</ele>
        <time>2019-06-19 14:56:39,356</time>
      </trkpt>
      <trkpt lat="43.20701" lon="5.42083">
        <ele>134.56818</ele>
        <time>2019-06-19 14:57:09,196</time>
      </trkpt>
      <trkpt lat="43.20702" lon="5.42083">
        <ele>134.45184</ele>
        <time>2019-06-19 14:57:25,190</time>
      </trkpt>
      <trkpt lat="43.20701" lon="5.42083">
        <ele>136.13025</ele>
        <time>2019-06-19 14:57:26,317</time>
      </trkpt>
      <trkpt lat="43.20703" lon="5.42082">
        <ele>130.44812</ele>
        <time>2019-06-19 14:57:34,182</time>
      </trkpt>
      <trkpt lat="43.20704" lon="5.42082">
        <ele>130.23169</ele>
        <time>2019-06-19 14:57:35,193</time>
      </trkpt>
      <trkpt lat="43.20704" lon="5.42082">
        <ele>134.45184</ele>
        <time>2019-06-19 14:57:36,191</time>
      </trkpt>
      <trkpt lat="43.20704" lon="5.42082">
        <ele>130.37433</ele>
        <time>2019-06-19 14:57:37,382</time>
      </trkpt>
      <trkpt lat="43.20703" lon="5.42084">
        <ele>132.0885</ele>
        <time>2019-06-19 14:57:44,192</time>
      </trkpt>
      <trkpt lat="43.20703" lon="5.42084">
        <ele>132.31818</ele>
        <time>2019-06-19 14:57:45,184</time>
      </trkpt>
      <trkpt lat="43.20703" lon="5.42085">
        <ele>133.84875</ele>
        <time>2019-06-19 14:58:22,188</time>
      </trkpt>
      <trkpt lat="43.20703" lon="5.42085">
        <ele>135.05835</ele>
        <time>2019-06-19 14:58:55,197</time>
      </trkpt>
      <trkpt lat="43.20702" lon="5.42086">
        <ele>136.29419</ele>
        <time>2019-06-19 14:58:56,190</time>
      </trkpt>
      <trkpt lat="43.20699" lon="5.42087">
        <ele>154.59009</ele>
        <time>2019-06-19 14:59:41,189</time>
      </trkpt>
      <trkpt lat="43.20699" lon="5.42088">
        <ele>154.49841</ele>
        <time>2019-06-19 14:59:48,179</time>
      </trkpt>
      <trkpt lat="43.20699" lon="5.42088">
        <ele>154.82983</ele>
        <time>2019-06-19 14:59:49,188</time>
      </trkpt>
      <trkpt lat="43.20698" lon="5.42089">
        <ele>146.06628</ele>
        <time>2019-06-19 14:59:55,185</time>
      </trkpt>
      <trkpt lat="43.20698" lon="5.4209">
        <ele>146.71997</ele>
        <time>2019-06-19 14:59:56,183</time>
      </trkpt>
      <trkpt lat="43.20697" lon="5.42092">
        <ele>147.17944</ele>
        <time>2019-06-19 15:00:32,185</time>
      </trkpt>
      <trkpt lat="43.20697" lon="5.42092">
        <ele>147.21008</ele>
        <time>2019-06-19 15:00:33,332</time>
      </trkpt>
      <trkpt lat="43.20696" lon="5.4209">
        <ele>147.38165</ele>
        <time>2019-06-19 15:01:02,413</time>
      </trkpt>
      <trkpt lat="43.20696" lon="5.4209">
        <ele>147.50946</ele>
        <time>2019-06-19 15:01:30,366</time>
      </trkpt>
      <trkpt lat="43.20696" lon="5.4209">
        <ele>145.3789</ele>
        <time>2019-06-19 15:02:05,397</time>
      </trkpt>
      <trkpt lat="43.20696" lon="5.42091">
        <ele>148.07971</ele>
        <time>2019-06-19 15:02:43,182</time>
      </trkpt>
      <trkpt lat="43.20696" lon="5.4209">
        <ele>147.1383</ele>
        <time>2019-06-19 15:02:44,281</time>
      </trkpt>
      <trkpt lat="43.20697" lon="5.4209">
        <ele>145.41602</ele>
        <time>2019-06-19 15:03:18,185</time>
      </trkpt>
      <trkpt lat="43.20696" lon="5.4209">
        <ele>146.82983</ele>
        <time>2019-06-19 15:03:30,403</time>
      </trkpt>
      <trkpt lat="43.20695" lon="5.42092">
        <ele>146.97516</ele>
        <time>2019-06-19 15:03:32,185</time>
      </trkpt>
      <trkpt lat="43.20695" lon="5.42093">
        <ele>146.67163</ele>
        <time>2019-06-19 15:03:33,361</time>
      </trkpt>
      <trkpt lat="43.20696" lon="5.42093">
        <ele>146.69543</ele>
        <time>2019-06-19 15:03:35,179</time>
      </trkpt>
      <trkpt lat="43.20697" lon="5.42092">
        <ele>147.20764</ele>
        <time>2019-06-19 15:03:38,196</time>
      </trkpt>
      <trkpt lat="43.20698" lon="5.42092">
        <ele>146.57623</ele>
        <time>2019-06-19 15:03:40,357</time>
      </trkpt>
      <trkpt lat="43.20699" lon="5.42091">
        <ele>145.45251</ele>
        <time>2019-06-19 15:03:42,188</time>
      </trkpt>
      <trkpt lat="43.20699" lon="5.42091">
        <ele>146.16473</ele>
        <time>2019-06-19 15:03:43,347</time>
      </trkpt>
      <trkpt lat="43.207" lon="5.4209">
        <ele>146.33716</ele>
        <time>2019-06-19 15:03:49,189</time>
      </trkpt>
      <trkpt lat="43.20701" lon="5.4209">
        <ele>145.02576</ele>
        <time>2019-06-19 15:03:50,255</time>
      </trkpt>
      <trkpt lat="43.20703" lon="5.42089">
        <ele>144.67041</ele>
        <time>2019-06-19 15:04:11,366</time>
      </trkpt>
      <trkpt lat="43.20703" lon="5.42089">
        <ele>144.8783</ele>
        <time>2019-06-19 15:04:35,186</time>
      </trkpt>
      <trkpt lat="43.20703" lon="5.42089">
        <ele>144.14618</ele>
        <time>2019-06-19 15:04:36,193</time>
      </trkpt>
      <trkpt lat="43.20704" lon="5.42089">
        <ele>143.47888</ele>
        <time>2019-06-19 15:04:37,196</time>
      </trkpt>
      <trkpt lat="43.20708" lon="5.42089">
        <ele>136.70148</ele>
        <time>2019-06-19 15:04:59,195</time>
      </trkpt>
      <trkpt lat="43.20709" lon="5.42088">
        <ele>136.0979</ele>
        <time>2019-06-19 15:05:27,409</time>
      </trkpt>
      <trkpt lat="43.20708" lon="5.42088">
        <ele>138.1355</ele>
        <time>2019-06-19 15:05:51,185</time>
      </trkpt>
      <trkpt lat="43.20707" lon="5.42087">
        <ele>136.31787</ele>
        <time>2019-06-19 15:05:52,173</time>
      </trkpt>
      <trkpt lat="43.20704" lon="5.42084">
        <ele>135.08246</ele>
        <time>2019-06-19 15:06:05,190</time>
      </trkpt>
      <trkpt lat="43.20703" lon="5.42084">
        <ele>134.42542</ele>
        <time>2019-06-19 15:06:06,183</time>
      </trkpt>
      <trkpt lat="43.20703" lon="5.42081">
        <ele>132.3985</ele>
        <time>2019-06-19 15:06:29,191</time>
      </trkpt>
      <trkpt lat="43.20703" lon="5.4208">
        <ele>131.56616</ele>
        <time>2019-06-19 15:06:32,193</time>
      </trkpt>
      <trkpt lat="43.20704" lon="5.42078">
        <ele>128.43909</ele>
        <time>2019-06-19 15:06:33,179</time>
      </trkpt>
      <trkpt lat="43.20708" lon="5.42073">
        <ele>123.596375</ele>
        <time>2019-06-19 15:06:37,185</time>
      </trkpt>
      <trkpt lat="43.20708" lon="5.42073">
        <ele>123.23352</ele>
        <time>2019-06-19 15:06:38,172</time>
      </trkpt>
      <trkpt lat="43.20708" lon="5.42068">
        <ele>121.52228</ele>
        <time>2019-06-19 15:06:45,188</time>
      </trkpt>
      <trkpt lat="43.20708" lon="5.42068">
        <ele>121.586914</ele>
        <time>2019-06-19 15:06:46,196</time>
      </trkpt>
      <trkpt lat="43.20708" lon="5.42067">
        <ele>120.79413</ele>
        <time>2019-06-19 15:06:49,178</time>
      </trkpt>
      <trkpt lat="43.20708" lon="5.42065">
        <ele>119.2428</ele>
        <time>2019-06-19 15:06:50,212</time>
      </trkpt>
      <trkpt lat="43.20708" lon="5.42064">
        <ele>119.164246</ele>
        <time>2019-06-19 15:06:51,219</time>
      </trkpt>
      <trkpt lat="43.20709" lon="5.42063">
        <ele>118.17395</ele>
        <time>2019-06-19 15:06:52,212</time>
      </trkpt>
      <trkpt lat="43.20709" lon="5.42062">
        <ele>117.16284</ele>
        <time>2019-06-19 15:06:53,180</time>
      </trkpt>
      <trkpt lat="43.20708" lon="5.42061">
        <ele>116.8728</ele>
        <time>2019-06-19 15:06:54,393</time>
      </trkpt>
      <trkpt lat="43.20707" lon="5.4206">
        <ele>116.14508</ele>
        <time>2019-06-19 15:06:56,190</time>
      </trkpt>
      <trkpt lat="43.20707" lon="5.4206">
        <ele>115.06378</ele>
        <time>2019-06-19 15:06:57,328</time>
      </trkpt>
      <trkpt lat="43.20706" lon="5.4206">
        <ele>113.64685</ele>
        <time>2019-06-19 15:07:03,188</time>
      </trkpt>
      <trkpt lat="43.20705" lon="5.4206">
        <ele>113.9444</ele>
        <time>2019-06-19 15:07:04,410</time>
      </trkpt>
      <trkpt lat="43.20703" lon="5.4206">
        <ele>113.75897</ele>
        <time>2019-06-19 15:07:14,423</time>
      </trkpt>
      <trkpt lat="43.20703" lon="5.42059">
        <ele>114.39038</ele>
        <time>2019-06-19 15:07:16,185</time>
      </trkpt>
      <trkpt lat="43.20701" lon="5.42059">
        <ele>114.55554</ele>
        <time>2019-06-19 15:07:22,183</time>
      </trkpt>
      <trkpt lat="43.20701" lon="5.42058">
        <ele>113.77661</ele>
        <time>2019-06-19 15:07:23,315</time>
      </trkpt>
      <trkpt lat="43.20701" lon="5.42058">
        <ele>116.125244</ele>
        <time>2019-06-19 15:07:35,201</time>
      </trkpt>
      <trkpt lat="43.20701" lon="5.42058">
        <ele>117.29993</ele>
        <time>2019-06-19 15:07:36,188</time>
      </trkpt>
      <trkpt lat="43.207" lon="5.42057">
        <ele>116.97565</ele>
        <time>2019-06-19 15:07:37,194</time>
      </trkpt>
      <trkpt lat="43.20695" lon="5.4206">
        <ele>121.00995</ele>
        <time>2019-06-19 15:08:01,181</time>
      </trkpt>
      <trkpt lat="43.20694" lon="5.42061">
        <ele>121.57117</ele>
        <time>2019-06-19 15:08:02,409</time>
      </trkpt>
      <trkpt lat="43.20693" lon="5.42064">
        <ele>124.84131</ele>
        <time>2019-06-19 15:08:13,183</time>
      </trkpt>
      <trkpt lat="43.20693" lon="5.42065">
        <ele>124.94446</ele>
        <time>2019-06-19 15:08:14,392</time>
      </trkpt>
      <trkpt lat="43.20693" lon="5.42065">
        <ele>125.810425</ele>
        <time>2019-06-19 15:08:16,180</time>
      </trkpt>
      <trkpt lat="43.20692" lon="5.42065">
        <ele>125.97778</ele>
        <time>2019-06-19 15:08:17,186</time>
      </trkpt>
      <trkpt lat="43.20692" lon="5.42066">
        <ele>125.80206</ele>
        <time>2019-06-19 15:08:20,180</time>
      </trkpt>
      <trkpt lat="43.20692" lon="5.42066">
        <ele>125.701294</ele>
        <time>2019-06-19 15:08:21,187</time>
      </trkpt>
      <trkpt lat="43.20691" lon="5.42066">
        <ele>126.761475</ele>
        <time>2019-06-19 15:08:49,426</time>
      </trkpt>
      <trkpt lat="43.20691" lon="5.42066">
        <ele>126.187195</ele>
        <time>2019-06-19 15:08:51,182</time>
      </trkpt>
      <trkpt lat="43.20692" lon="5.42066">
        <ele>126.56903</ele>
        <time>2019-06-19 15:08:52,383</time>
      </trkpt>
      <trkpt lat="43.20692" lon="5.42066">
        <ele>126.848816</ele>
        <time>2019-06-19 15:08:54,186</time>
      </trkpt>
      <trkpt lat="43.20692" lon="5.42065">
        <ele>127.08887</ele>
        <time>2019-06-19 15:08:55,368</time>
      </trkpt>
      <trkpt lat="43.20693" lon="5.42065">
        <ele>127.87982</ele>
        <time>2019-06-19 15:08:57,180</time>
      </trkpt>
      <trkpt lat="43.20695" lon="5.42061">
        <ele>123.14673</ele>
        <time>2019-06-19 15:09:06,416</time>
      </trkpt>
      <trkpt lat="43.20696" lon="5.42061">
        <ele>122.519714</ele>
        <time>2019-06-19 15:09:08,180</time>
      </trkpt>
      <trkpt lat="43.20696" lon="5.4206">
        <ele>122.358765</ele>
        <time>2019-06-19 15:09:09,423</time>
      </trkpt>
      <trkpt lat="43.20697" lon="5.42058">
        <ele>123.150024</ele>
        <time>2019-06-19 15:09:18,447</time>
      </trkpt>
      <trkpt lat="43.20698" lon="5.42057">
        <ele>123.31055</ele>
        <time>2019-06-19 15:09:20,195</time>
      </trkpt>
      <trkpt lat="43.20698" lon="5.42057">
        <ele>124.880066</ele>
        <time>2019-06-19 15:09:23,188</time>
      </trkpt>
      <trkpt lat="43.20698" lon="5.42057">
        <ele>124.77759</ele>
        <time>2019-06-19 15:09:24,343</time>
      </trkpt>
      <trkpt lat="43.20697" lon="5.42057">
        <ele>124.86975</ele>
        <time>2019-06-19 15:09:29,202</time>
      </trkpt>
      <trkpt lat="43.20697" lon="5.42056">
        <ele>123.043335</ele>
        <time>2019-06-19 15:09:30,177</time>
      </trkpt>
      <trkpt lat="43.20698" lon="5.42055">
        <ele>122.43103</ele>
        <time>2019-06-19 15:09:31,192</time>
      </trkpt>
      <trkpt lat="43.20698" lon="5.42054">
        <ele>121.53247</ele>
        <time>2019-06-19 15:09:32,194</time>
      </trkpt>
      <trkpt lat="43.20697" lon="5.42059">
        <ele>120.747925</ele>
        <time>2019-06-19 15:09:51,191</time>
      </trkpt>
      <trkpt lat="43.20698" lon="5.42059">
        <ele>120.04706</ele>
        <time>2019-06-19 15:09:52,429</time>
      </trkpt>
      <trkpt lat="43.20696" lon="5.42056">
        <ele>126.81256</ele>
        <time>2019-06-19 15:10:14,177</time>
      </trkpt>
      <trkpt lat="43.20696" lon="5.42055">
        <ele>127.06738</ele>
        <time>2019-06-19 15:10:15,387</time>
      </trkpt>
      <trkpt lat="43.20695" lon="5.42055">
        <ele>127.583496</ele>
        <time>2019-06-19 15:10:18,190</time>
      </trkpt>
      <trkpt lat="43.20695" lon="5.42054">
        <ele>127.19226</ele>
        <time>2019-06-19 15:10:19,171</time>
      </trkpt>
      <trkpt lat="43.20695" lon="5.42053">
        <ele>127.5509</ele>
        <time>2019-06-19 15:10:20,185</time>
      </trkpt>
      <trkpt lat="43.20695" lon="5.42053">
        <ele>127.66724</ele>
        <time>2019-06-19 15:10:21,178</time>
      </trkpt>
      <trkpt lat="43.20695" lon="5.42052">
        <ele>128.50629</ele>
        <time>2019-06-19 15:10:22,205</time>
      </trkpt>
      <trkpt lat="43.20695" lon="5.42052">
        <ele>128.57599</ele>
        <time>2019-06-19 15:10:23,188</time>
      </trkpt>
      <trkpt lat="43.20694" lon="5.42052">
        <ele>129.40729</ele>
        <time>2019-06-19 15:10:28,195</time>
      </trkpt>
      <trkpt lat="43.20693" lon="5.42052">
        <ele>129.60602</ele>
        <time>2019-06-19 15:10:29,188</time>
      </trkpt>
      <trkpt lat="43.20693" lon="5.42052">
        <ele>129.75525</ele>
        <time>2019-06-19 15:10:30,335</time>
      </trkpt>
      <trkpt lat="43.20693" lon="5.42051">
        <ele>128.92993</ele>
        <time>2019-06-19 15:10:32,180</time>
      </trkpt>
      <trkpt lat="43.20694" lon="5.4205">
        <ele>126.29108</ele>
        <time>2019-06-19 15:10:33,368</time>
      </trkpt>
      <trkpt lat="43.20695" lon="5.42047">
        <ele>126.43201</ele>
        <time>2019-06-19 15:10:35,183</time>
      </trkpt>
      <trkpt lat="43.20696" lon="5.42046">
        <ele>126.79895</ele>
        <time>2019-06-19 15:10:38,184</time>
      </trkpt>
      <trkpt lat="43.20696" lon="5.42046">
        <ele>126.65674</ele>
        <time>2019-06-19 15:10:39,389</time>
      </trkpt>
      <trkpt lat="43.20695" lon="5.42046">
        <ele>129.46637</ele>
        <time>2019-06-19 15:10:54,191</time>
      </trkpt>
      <trkpt lat="43.20697" lon="5.42045">
        <ele>127.388</ele>
        <time>2019-06-19 15:10:55,249</time>
      </trkpt>
      <trkpt lat="43.207" lon="5.42044">
        <ele>123.798706</ele>
        <time>2019-06-19 15:11:00,193</time>
      </trkpt>
      <trkpt lat="43.207" lon="5.42044">
        <ele>123.59961</ele>
        <time>2019-06-19 15:11:01,318</time>
      </trkpt>
      <trkpt lat="43.20699" lon="5.42044">
        <ele>124.35547</ele>
        <time>2019-06-19 15:11:03,451</time>
      </trkpt>
      <trkpt lat="43.207" lon="5.42043">
        <ele>124.21515</ele>
        <time>2019-06-19 15:11:05,180</time>
      </trkpt>
      <trkpt lat="43.20701" lon="5.42043">
        <ele>124.093994</ele>
        <time>2019-06-19 15:11:06,349</time>
      </trkpt>
      <trkpt lat="43.20702" lon="5.42042">
        <ele>125.23755</ele>
        <time>2019-06-19 15:11:11,183</time>
      </trkpt>
      <trkpt lat="43.20702" lon="5.42042">
        <ele>125.26868</ele>
        <time>2019-06-19 15:11:12,358</time>
      </trkpt>
      <trkpt lat="43.20702" lon="5.42043">
        <ele>126.40143</ele>
        <time>2019-06-19 15:11:19,179</time>
      </trkpt>
      <trkpt lat="43.20702" lon="5.42043">
        <ele>125.743774</ele>
        <time>2019-06-19 15:11:20,184</time>
      </trkpt>
      <trkpt lat="43.20704" lon="5.42041">
        <ele>124.07471</ele>
        <time>2019-06-19 15:11:46,190</time>
      </trkpt>
      <trkpt lat="43.20705" lon="5.42041">
        <ele>124.52063</ele>
        <time>2019-06-19 15:11:47,364</time>
      </trkpt>
      <trkpt lat="43.20704" lon="5.4204">
        <ele>124.36444</ele>
        <time>2019-06-19 15:11:49,183</time>
      </trkpt>
      <trkpt lat="43.20705" lon="5.42039">
        <ele>123.17584</ele>
        <time>2019-06-19 15:11:52,191</time>
      </trkpt>
      <trkpt lat="43.20705" lon="5.42038">
        <ele>121.61072</ele>
        <time>2019-06-19 15:11:53,195</time>
      </trkpt>
      <trkpt lat="43.20705" lon="5.42038">
        <ele>120.38928</ele>
        <time>2019-06-19 15:11:54,188</time>
      </trkpt>
      <trkpt lat="43.20704" lon="5.42038">
        <ele>120.33179</ele>
        <time>2019-06-19 15:11:55,184</time>
      </trkpt>
      <trkpt lat="43.20703" lon="5.42037">
        <ele>120.5426</ele>
        <time>2019-06-19 15:12:00,188</time>
      </trkpt>
      <trkpt lat="43.20703" lon="5.42037">
        <ele>120.37543</ele>
        <time>2019-06-19 15:12:01,187</time>
      </trkpt>
      <trkpt lat="43.207" lon="5.42036">
        <ele>120.7572</ele>
        <time>2019-06-19 15:12:08,175</time>
      </trkpt>
      <trkpt lat="43.207" lon="5.42036">
        <ele>121.38556</ele>
        <time>2019-06-19 15:12:09,264</time>
      </trkpt>
      <trkpt lat="43.20701" lon="5.42035">
        <ele>120.56738</ele>
        <time>2019-06-19 15:12:10,177</time>
      </trkpt>
      <trkpt lat="43.20703" lon="5.42034">
        <ele>119.4657</ele>
        <time>2019-06-19 15:12:12,186</time>
      </trkpt>
      <trkpt lat="43.20704" lon="5.42034">
        <ele>118.72443</ele>
        <time>2019-06-19 15:12:13,383</time>
      </trkpt>
      <trkpt lat="43.20702" lon="5.42032">
        <ele>121.30841</ele>
        <time>2019-06-19 15:12:34,181</time>
      </trkpt>
      <trkpt lat="43.20701" lon="5.42031">
        <ele>121.91626</ele>
        <time>2019-06-19 15:12:35,189</time>
      </trkpt>
      <trkpt lat="43.207" lon="5.42031">
        <ele>122.568665</ele>
        <time>2019-06-19 15:12:36,192</time>
      </trkpt>
      <trkpt lat="43.20699" lon="5.42031">
        <ele>122.244995</ele>
        <time>2019-06-19 15:12:37,181</time>
      </trkpt>
      <trkpt lat="43.20698" lon="5.4203">
        <ele>122.045166</ele>
        <time>2019-06-19 15:12:38,187</time>
      </trkpt>
      <trkpt lat="43.20698" lon="5.42028">
        <ele>121.46539</ele>
        <time>2019-06-19 15:12:39,189</time>
      </trkpt>
      <trkpt lat="43.20697" lon="5.42026">
        <ele>121.527466</ele>
        <time>2019-06-19 15:12:41,183</time>
      </trkpt>
      <trkpt lat="43.20697" lon="5.42024">
        <ele>122.22101</ele>
        <time>2019-06-19 15:12:42,180</time>
      </trkpt>
      <trkpt lat="43.20696" lon="5.42023">
        <ele>121.5827</ele>
        <time>2019-06-19 15:12:43,180</time>
      </trkpt>
      <trkpt lat="43.20696" lon="5.42021">
        <ele>121.143555</ele>
        <time>2019-06-19 15:12:45,180</time>
      </trkpt>
      <trkpt lat="43.20696" lon="5.4202">
        <ele>122.11224</ele>
        <time>2019-06-19 15:12:46,181</time>
      </trkpt>
      <trkpt lat="43.20696" lon="5.4202">
        <ele>121.93707</ele>
        <time>2019-06-19 15:12:47,177</time>
      </trkpt>
      <trkpt lat="43.20693" lon="5.42021">
        <ele>122.77582</ele>
        <time>2019-06-19 15:12:53,181</time>
      </trkpt>
      <trkpt lat="43.20693" lon="5.42021">
        <ele>120.807495</ele>
        <time>2019-06-19 15:12:54,343</time>
      </trkpt>
      <trkpt lat="43.20691" lon="5.42017">
        <ele>120.012146</ele>
        <time>2019-06-19 15:13:00,185</time>
      </trkpt>
      <trkpt lat="43.2069" lon="5.42016">
        <ele>118.911194</ele>
        <time>2019-06-19 15:13:01,289</time>
      </trkpt>
      <trkpt lat="43.20688" lon="5.42015">
        <ele>117.65057</ele>
        <time>2019-06-19 15:13:03,405</time>
      </trkpt>
      <trkpt lat="43.20688" lon="5.42014">
        <ele>116.33362</ele>
        <time>2019-06-19 15:13:05,185</time>
      </trkpt>
      <trkpt lat="43.20688" lon="5.42014">
        <ele>114.69556</ele>
        <time>2019-06-19 15:13:06,337</time>
      </trkpt>
      <trkpt lat="43.20688" lon="5.42013">
        <ele>112.565186</ele>
        <time>2019-06-19 15:13:08,179</time>
      </trkpt>
      <trkpt lat="43.20688" lon="5.42012">
        <ele>113.90747</ele>
        <time>2019-06-19 15:13:09,190</time>
      </trkpt>
      <trkpt lat="43.20688" lon="5.42012">
        <ele>112.63037</ele>
        <time>2019-06-19 15:13:10,189</time>
      </trkpt>
      <trkpt lat="43.20689" lon="5.42009">
        <ele>107.93262</ele>
        <time>2019-06-19 15:13:15,176</time>
      </trkpt>
      <trkpt lat="43.2069" lon="5.42009">
        <ele>106.76648</ele>
        <time>2019-06-19 15:13:17,277</time>
      </trkpt>
      <trkpt lat="43.20691" lon="5.42007">
        <ele>111.84375</ele>
        <time>2019-06-19 15:13:19,365</time>
      </trkpt>
      <trkpt lat="43.20691" lon="5.42008">
        <ele>110.168945</ele>
        <time>2019-06-19 15:13:21,188</time>
      </trkpt>
      <trkpt lat="43.20691" lon="5.42006">
        <ele>109.44562</ele>
        <time>2019-06-19 15:13:25,299</time>
      </trkpt>
      <trkpt lat="43.20691" lon="5.42005">
        <ele>108.71588</ele>
        <time>2019-06-19 15:13:35,192</time>
      </trkpt>
      <trkpt lat="43.20691" lon="5.42004">
        <ele>108.66284</ele>
        <time>2019-06-19 15:13:37,220</time>
      </trkpt>
      <trkpt lat="43.20692" lon="5.42005">
        <ele>111.93878</ele>
        <time>2019-06-19 15:13:44,182</time>
      </trkpt>
      <trkpt lat="43.20692" lon="5.42005">
        <ele>112.07733</ele>
        <time>2019-06-19 15:13:45,333</time>
      </trkpt>
      <trkpt lat="43.20693" lon="5.42006">
        <ele>114.47443</ele>
        <time>2019-06-19 15:13:50,184</time>
      </trkpt>
      <trkpt lat="43.20693" lon="5.42006">
        <ele>115.80829</ele>
        <time>2019-06-19 15:13:51,354</time>
      </trkpt>
      <trkpt lat="43.20693" lon="5.42006">
        <ele>116.14142</ele>
        <time>2019-06-19 15:13:56,184</time>
      </trkpt>
      <trkpt lat="43.20692" lon="5.42007">
        <ele>115.54895</ele>
        <time>2019-06-19 15:13:59,396</time>
      </trkpt>
      <trkpt lat="43.20691" lon="5.42008">
        <ele>115.688965</ele>
        <time>2019-06-19 15:14:01,182</time>
      </trkpt>
      <trkpt lat="43.20691" lon="5.4201">
        <ele>117.63092</ele>
        <time>2019-06-19 15:14:07,390</time>
      </trkpt>
      <trkpt lat="43.20693" lon="5.42011">
        <ele>119.20563</ele>
        <time>2019-06-19 15:14:09,180</time>
      </trkpt>
      <trkpt lat="43.20693" lon="5.42011">
        <ele>116.14142</ele>
        <time>2019-06-19 15:14:10,318</time>
      </trkpt>
      <trkpt lat="43.20693" lon="5.42011">
        <ele>116.90222</ele>
        <time>2019-06-19 15:14:15,182</time>
      </trkpt>
      <trkpt lat="43.20693" lon="5.42011">
        <ele>117.01404</ele>
        <time>2019-06-19 15:14:16,365</time>
      </trkpt>
      <trkpt lat="43.20693" lon="5.42011">
        <ele>116.33862</ele>
        <time>2019-06-19 15:14:18,180</time>
      </trkpt>
      <trkpt lat="43.20693" lon="5.42011">
        <ele>117.569214</ele>
        <time>2019-06-19 15:14:21,395</time>
      </trkpt>
      <trkpt lat="43.2069" lon="5.4201">
        <ele>118.63275</ele>
        <time>2019-06-19 15:17:42,340</time>
      </trkpt>
      <trkpt lat="43.2069" lon="5.4201">
        <ele>118.9613</ele>
        <time>2019-06-19 15:20:28,188</time>
      </trkpt>
      <trkpt lat="43.2069" lon="5.42012">
        <ele>123.90381</ele>
        <time>2019-06-19 15:25:23,183</time>
      </trkpt>
      <trkpt lat="43.2069" lon="5.42011">
        <ele>124.19391</ele>
        <time>2019-06-19 15:25:24,374</time>
      </trkpt>
      <trkpt lat="43.2069" lon="5.42009">
        <ele>126.340515</ele>
        <time>2019-06-19 15:25:31,184</time>
      </trkpt>
      <trkpt lat="43.2069" lon="5.42009">
        <ele>125.93854</ele>
        <time>2019-06-19 15:25:32,192</time>
      </trkpt>
      <trkpt lat="43.20691" lon="5.4201">
        <ele>126.668335</ele>
        <time>2019-06-19 15:25:33,310</time>
      </trkpt>
      <trkpt lat="43.20689" lon="5.42008">
        <ele>128.93158</ele>
        <time>2019-06-19 15:25:55,177</time>
      </trkpt>
      <trkpt lat="43.20689" lon="5.42008">
        <ele>128.90076</ele>
        <time>2019-06-19 15:26:04,179</time>
      </trkpt>
      <trkpt lat="43.20689" lon="5.42008">
        <ele>128.94214</ele>
        <time>2019-06-19 15:26:05,176</time>
      </trkpt>
      <trkpt lat="43.20691" lon="5.42009">
        <ele>131.09937</ele>
        <time>2019-06-19 15:26:25,183</time>
      </trkpt>
      <trkpt lat="43.20689" lon="5.42009">
        <ele>130.37292</ele>
        <time>2019-06-19 15:26:48,176</time>
      </trkpt>
      <trkpt lat="43.2069" lon="5.42007">
        <ele>131.21814</ele>
        <time>2019-06-19 15:27:01,297</time>
      </trkpt>
      <trkpt lat="43.2069" lon="5.42008">
        <ele>131.5711</ele>
        <time>2019-06-19 15:27:03,197</time>
      </trkpt>
      <trkpt lat="43.20689" lon="5.42007">
        <ele>131.94452</ele>
        <time>2019-06-19 15:27:31,174</time>
      </trkpt>
      <trkpt lat="43.20689" lon="5.42007">
        <ele>131.99231</ele>
        <time>2019-06-19 15:27:51,180</time>
      </trkpt>
      <trkpt lat="43.20689" lon="5.42006">
        <ele>133.4823</ele>
        <time>2019-06-19 15:28:15,185</time>
      </trkpt>
      <trkpt lat="43.20689" lon="5.42006">
        <ele>133.44427</ele>
        <time>2019-06-19 15:28:16,287</time>
      </trkpt>
      <trkpt lat="43.20689" lon="5.42006">
        <ele>134.58997</ele>
        <time>2019-06-19 15:28:37,183</time>
      </trkpt>
      <trkpt lat="43.2069" lon="5.42006">
        <ele>134.8114</ele>
        <time>2019-06-19 15:28:38,189</time>
      </trkpt>
      <trkpt lat="43.2069" lon="5.42006">
        <ele>134.89575</ele>
        <time>2019-06-19 15:28:39,184</time>
      </trkpt>
      <trkpt lat="43.2069" lon="5.42005">
        <ele>134.85321</ele>
        <time>2019-06-19 15:28:40,186</time>
      </trkpt>
      <trkpt lat="43.2069" lon="5.42006">
        <ele>135.6399</ele>
        <time>2019-06-19 15:28:43,185</time>
      </trkpt>
      <trkpt lat="43.20692" lon="5.42006">
        <ele>136.24408</ele>
        <time>2019-06-19 15:28:57,183</time>
      </trkpt>
      <trkpt lat="43.20692" lon="5.42006">
        <ele>135.91724</ele>
        <time>2019-06-19 15:28:58,320</time>
      </trkpt>
      <trkpt lat="43.20693" lon="5.42006">
        <ele>135.87714</ele>
        <time>2019-06-19 15:29:01,281</time>
      </trkpt>
      <trkpt lat="43.20694" lon="5.42005">
        <ele>135.82489</ele>
        <time>2019-06-19 15:29:03,349</time>
      </trkpt>
      <trkpt lat="43.20694" lon="5.42005">
        <ele>135.62677</ele>
        <time>2019-06-19 15:29:05,186</time>
      </trkpt>
      <trkpt lat="43.20693" lon="5.42005">
        <ele>137.03845</ele>
        <time>2019-06-19 15:29:06,381</time>
      </trkpt>
      <trkpt lat="43.20694" lon="5.42005">
        <ele>137.48035</ele>
        <time>2019-06-19 15:29:11,181</time>
      </trkpt>
      <trkpt lat="43.20694" lon="5.42005">
        <ele>137.73999</ele>
        <time>2019-06-19 15:29:12,180</time>
      </trkpt>
      <trkpt lat="43.20695" lon="5.42007">
        <ele>138.39459</ele>
        <time>2019-06-19 15:29:23,198</time>
      </trkpt>
      <trkpt lat="43.20695" lon="5.42007">
        <ele>139.47931</ele>
        <time>2019-06-19 15:29:27,406</time>
      </trkpt>
      <trkpt lat="43.20695" lon="5.42007">
        <ele>139.00146</ele>
        <time>2019-06-19 15:29:30,347</time>
      </trkpt>
      <trkpt lat="43.20695" lon="5.42007">
        <ele>139.63586</ele>
        <time>2019-06-19 15:29:32,178</time>
      </trkpt>
      <trkpt lat="43.20696" lon="5.42006">
        <ele>138.38977</ele>
        <time>2019-06-19 15:29:35,191</time>
      </trkpt>
      <trkpt lat="43.20696" lon="5.42006">
        <ele>137.04352</ele>
        <time>2019-06-19 15:29:39,181</time>
      </trkpt>
      <trkpt lat="43.20696" lon="5.42006">
        <ele>137.02844</ele>
        <time>2019-06-19 15:29:40,190</time>
      </trkpt>
      <trkpt lat="43.20696" lon="5.42007">
        <ele>137.8977</ele>
        <time>2019-06-19 15:29:42,173</time>
      </trkpt>
      <trkpt lat="43.20696" lon="5.42007">
        <ele>137.97754</ele>
        <time>2019-06-19 15:29:44,180</time>
      </trkpt>
      <trkpt lat="43.20696" lon="5.42007">
        <ele>138.23419</ele>
        <time>2019-06-19 15:29:45,198</time>
      </trkpt>
      <trkpt lat="43.20696" lon="5.42007">
        <ele>137.3891</ele>
        <time>2019-06-19 15:29:48,184</time>
      </trkpt>
      <trkpt lat="43.20697" lon="5.42007">
        <ele>137.2627</ele>
        <time>2019-06-19 15:29:49,177</time>
      </trkpt>
      <trkpt lat="43.20696" lon="5.42008">
        <ele>139.07605</ele>
        <time>2019-06-19 15:30:02,177</time>
      </trkpt>
      <trkpt lat="43.20696" lon="5.42008">
        <ele>138.67151</ele>
        <time>2019-06-19 15:30:03,355</time>
      </trkpt>
      <trkpt lat="43.207" lon="5.42008">
        <ele>140.00012</ele>
        <time>2019-06-19 15:30:18,177</time>
      </trkpt>
      <trkpt lat="43.207" lon="5.42008">
        <ele>140.0285</ele>
        <time>2019-06-19 15:30:19,359</time>
      </trkpt>
      <trkpt lat="43.20701" lon="5.42008">
        <ele>144.35962</ele>
        <time>2019-06-19 15:30:32,173</time>
      </trkpt>
      <trkpt lat="43.20701" lon="5.42008">
        <ele>143.92108</ele>
        <time>2019-06-19 15:30:33,339</time>
      </trkpt>
      <trkpt lat="43.20702" lon="5.42011">
        <ele>145.5332</ele>
        <time>2019-06-19 15:30:56,435</time>
      </trkpt>
      <trkpt lat="43.20702" lon="5.42011">
        <ele>145.36713</ele>
        <time>2019-06-19 15:30:59,379</time>
      </trkpt>
      <trkpt lat="43.20703" lon="5.42012">
        <ele>143.87054</ele>
        <time>2019-06-19 15:31:04,183</time>
      </trkpt>
      <trkpt lat="43.20703" lon="5.42012">
        <ele>144.5252</ele>
        <time>2019-06-19 15:31:05,185</time>
      </trkpt>
      <trkpt lat="43.20703" lon="5.42012">
        <ele>145.58752</ele>
        <time>2019-06-19 15:31:06,244</time>
      </trkpt>
      <trkpt lat="43.20703" lon="5.42011">
        <ele>145.44568</ele>
        <time>2019-06-19 15:31:07,174</time>
      </trkpt>
      <trkpt lat="43.20704" lon="5.42012">
        <ele>143.3125</ele>
        <time>2019-06-19 15:31:13,446</time>
      </trkpt>
      <trkpt lat="43.20704" lon="5.42012">
        <ele>143.60901</ele>
        <time>2019-06-19 15:31:15,194</time>
      </trkpt>
      <trkpt lat="43.20705" lon="5.42012">
        <ele>144.21289</ele>
        <time>2019-06-19 15:31:41,179</time>
      </trkpt>
      <trkpt lat="43.20705" lon="5.42012">
        <ele>143.87787</ele>
        <time>2019-06-19 15:31:42,186</time>
      </trkpt>
      <trkpt lat="43.20703" lon="5.42009">
        <ele>140.81097</ele>
        <time>2019-06-19 15:32:03,186</time>
      </trkpt>
      <trkpt lat="43.20704" lon="5.42009">
        <ele>140.68854</ele>
        <time>2019-06-19 15:32:04,396</time>
      </trkpt>
      <trkpt lat="43.20706" lon="5.42006">
        <ele>136.74664</ele>
        <time>2019-06-19 15:32:34,183</time>
      </trkpt>
      <trkpt lat="43.20707" lon="5.42006">
        <ele>136.58221</ele>
        <time>2019-06-19 15:32:37,179</time>
      </trkpt>
      <trkpt lat="43.20707" lon="5.42006">
        <ele>135.95398</ele>
        <time>2019-06-19 15:32:38,403</time>
      </trkpt>
      <trkpt lat="43.20708" lon="5.42006">
        <ele>136.10266</ele>
        <time>2019-06-19 15:32:40,187</time>
      </trkpt>
      <trkpt lat="43.20708" lon="5.42006">
        <ele>135.95917</ele>
        <time>2019-06-19 15:32:41,186</time>
      </trkpt>
      <trkpt lat="43.20708" lon="5.42007">
        <ele>137.41089</ele>
        <time>2019-06-19 15:33:03,196</time>
      </trkpt>
      <trkpt lat="43.20708" lon="5.42007">
        <ele>137.59125</ele>
        <time>2019-06-19 15:33:31,179</time>
      </trkpt>
      <trkpt lat="43.20708" lon="5.42007">
        <ele>137.90405</ele>
        <time>2019-06-19 15:33:58,375</time>
      </trkpt>
      <trkpt lat="43.20707" lon="5.42007">
        <ele>139.43518</ele>
        <time>2019-06-19 15:34:29,184</time>
      </trkpt>
      <trkpt lat="43.20707" lon="5.42007">
        <ele>138.65881</ele>
        <time>2019-06-19 15:34:58,190</time>
      </trkpt>
      <trkpt lat="43.20707" lon="5.42007">
        <ele>138.85681</ele>
        <time>2019-06-19 15:35:31,190</time>
      </trkpt>
      <trkpt lat="43.20707" lon="5.42007">
        <ele>139.09143</ele>
        <time>2019-06-19 15:36:03,312</time>
      </trkpt>
      <trkpt lat="43.20708" lon="5.42008">
        <ele>140.04553</ele>
        <time>2019-06-19 15:36:21,366</time>
      </trkpt>
      <trkpt lat="43.20708" lon="5.42009">
        <ele>139.74524</ele>
        <time>2019-06-19 15:36:23,179</time>
      </trkpt>
      <trkpt lat="43.20711" lon="5.42003">
        <ele>139.3988</ele>
        <time>2019-06-19 15:36:46,182</time>
      </trkpt>
      <trkpt lat="43.20712" lon="5.42003">
        <ele>139.59631</ele>
        <time>2019-06-19 15:36:47,178</time>
      </trkpt>
      <trkpt lat="43.20712" lon="5.42003">
        <ele>139.37677</ele>
        <time>2019-06-19 15:36:48,176</time>
      </trkpt>
      <trkpt lat="43.20712" lon="5.42002">
        <ele>138.96326</ele>
        <time>2019-06-19 15:36:49,178</time>
      </trkpt>
      <trkpt lat="43.20709" lon="5.42003">
        <ele>144.6297</ele>
        <time>2019-06-19 15:37:20,388</time>
      </trkpt>
      <trkpt lat="43.20711" lon="5.42002">
        <ele>143.28876</ele>
        <time>2019-06-19 15:37:25,180</time>
      </trkpt>
      <trkpt lat="43.20711" lon="5.42002">
        <ele>142.93127</ele>
        <time>2019-06-19 15:37:26,314</time>
      </trkpt>
      <trkpt lat="43.20712" lon="5.42005">
        <ele>140.9018</ele>
        <time>2019-06-19 15:37:41,192</time>
      </trkpt>
      <trkpt lat="43.20712" lon="5.42005">
        <ele>141.42084</ele>
        <time>2019-06-19 15:37:42,403</time>
      </trkpt>
      <trkpt lat="43.20711" lon="5.42008">
        <ele>142.88098</ele>
        <time>2019-06-19 15:38:01,323</time>
      </trkpt>
      <trkpt lat="43.20712" lon="5.42008">
        <ele>143.815</ele>
        <time>2019-06-19 15:38:03,189</time>
      </trkpt>
      <trkpt lat="43.20712" lon="5.42008">
        <ele>140.61444</ele>
        <time>2019-06-19 15:38:04,285</time>
      </trkpt>
      <trkpt lat="43.20709" lon="5.42004">
        <ele>131.72766</ele>
        <time>2019-06-19 15:38:30,324</time>
      </trkpt>
      <trkpt lat="43.20708" lon="5.42004">
        <ele>123.52557</ele>
        <time>2019-06-19 15:38:43,189</time>
      </trkpt>
      <trkpt lat="43.20707" lon="5.42005">
        <ele>123.30853</ele>
        <time>2019-06-19 15:38:44,349</time>
      </trkpt>
      <trkpt lat="43.2069" lon="5.42004">
        <ele>130.35059</ele>
        <time>2019-06-19 15:39:12,186</time>
      </trkpt>
      <trkpt lat="43.2069" lon="5.42004">
        <ele>132.37799</ele>
        <time>2019-06-19 15:39:15,178</time>
      </trkpt>
      <trkpt lat="43.2069" lon="5.42005">
        <ele>132.98517</ele>
        <time>2019-06-19 15:39:16,395</time>
      </trkpt>
      <trkpt lat="43.20689" lon="5.42002">
        <ele>134.31506</ele>
        <time>2019-06-19 15:39:36,183</time>
      </trkpt>
      <trkpt lat="43.2069" lon="5.42002">
        <ele>134.19714</ele>
        <time>2019-06-19 15:39:37,190</time>
      </trkpt>
      <trkpt lat="43.2069" lon="5.42002">
        <ele>134.65448</ele>
        <time>2019-06-19 15:39:38,182</time>
      </trkpt>
      <trkpt lat="43.20691" lon="5.42001">
        <ele>134.00952</ele>
        <time>2019-06-19 15:39:39,190</time>
      </trkpt>
      <trkpt lat="43.20689" lon="5.42001">
        <ele>123.84094</ele>
        <time>2019-06-19 15:40:03,239</time>
      </trkpt>
      <trkpt lat="43.20688" lon="5.42">
        <ele>125.04932</ele>
        <time>2019-06-19 15:40:04,184</time>
      </trkpt>
      <trkpt lat="43.20685" lon="5.41997">
        <ele>128.1145</ele>
        <time>2019-06-19 15:40:07,181</time>
      </trkpt>
      <trkpt lat="43.20685" lon="5.41996">
        <ele>128.61914</ele>
        <time>2019-06-19 15:40:08,299</time>
      </trkpt>
      <trkpt lat="43.20683" lon="5.4199">
        <ele>132.79102</ele>
        <time>2019-06-19 15:40:34,175</time>
      </trkpt>
      <trkpt lat="43.20683" lon="5.4199">
        <ele>134.03247</ele>
        <time>2019-06-19 15:40:54,183</time>
      </trkpt>
      <trkpt lat="43.20683" lon="5.4199">
        <ele>134.64374</ele>
        <time>2019-06-19 15:41:14,197</time>
      </trkpt>
      <trkpt lat="43.20684" lon="5.41991">
        <ele>135.1355</ele>
        <time>2019-06-19 15:41:40,184</time>
      </trkpt>
      <trkpt lat="43.20684" lon="5.41991">
        <ele>134.64734</ele>
        <time>2019-06-19 15:41:41,183</time>
      </trkpt>
      <trkpt lat="43.20687" lon="5.41994">
        <ele>146.44434</ele>
        <time>2019-06-19 15:41:55,188</time>
      </trkpt>
      <trkpt lat="43.20687" lon="5.41995">
        <ele>146.1095</ele>
        <time>2019-06-19 15:41:56,176</time>
      </trkpt>
      <trkpt lat="43.20688" lon="5.41995">
        <ele>145.25806</ele>
        <time>2019-06-19 15:41:57,176</time>
      </trkpt>
      <trkpt lat="43.20691" lon="5.41997">
        <ele>140.26636</ele>
        <time>2019-06-19 15:42:04,178</time>
      </trkpt>
      <trkpt lat="43.20691" lon="5.41997">
        <ele>139.3562</ele>
        <time>2019-06-19 15:42:05,183</time>
      </trkpt>
      <trkpt lat="43.20691" lon="5.41997">
        <ele>138.4978</ele>
        <time>2019-06-19 15:42:06,181</time>
      </trkpt>
      <trkpt lat="43.20691" lon="5.41997">
        <ele>137.1156</ele>
        <time>2019-06-19 15:42:07,189</time>
      </trkpt>
      <trkpt lat="43.20691" lon="5.41997">
        <ele>135.93958</ele>
        <time>2019-06-19 15:42:08,180</time>
      </trkpt>
      <trkpt lat="43.20693" lon="5.41997">
        <ele>135.1278</ele>
        <time>2019-06-19 15:42:09,175</time>
      </trkpt>
      <trkpt lat="43.20696" lon="5.42001">
        <ele>137.98999</ele>
        <time>2019-06-19 15:42:32,181</time>
      </trkpt>
      <trkpt lat="43.20699" lon="5.41999">
        <ele>133.16168</ele>
        <time>2019-06-19 15:42:52,181</time>
      </trkpt>
      <trkpt lat="43.20702" lon="5.42004">
        <ele>140.39246</ele>
        <time>2019-06-19 15:43:16,356</time>
      </trkpt>
      <trkpt lat="43.20703" lon="5.42004">
        <ele>138.55945</ele>
        <time>2019-06-19 15:43:33,178</time>
      </trkpt>
      <trkpt lat="43.20702" lon="5.42004">
        <ele>141.19165</ele>
        <time>2019-06-19 15:43:34,176</time>
      </trkpt>
      <trkpt lat="43.20701" lon="5.42005">
        <ele>140.10553</ele>
        <time>2019-06-19 15:43:38,177</time>
      </trkpt>
      <trkpt lat="43.20701" lon="5.42004">
        <ele>140.75256</ele>
        <time>2019-06-19 15:43:39,184</time>
      </trkpt>
      <trkpt lat="43.20702" lon="5.42005">
        <ele>140.57184</ele>
        <time>2019-06-19 15:43:40,189</time>
      </trkpt>
      <trkpt lat="43.20702" lon="5.42005">
        <ele>140.54865</ele>
        <time>2019-06-19 15:43:43,175</time>
      </trkpt>
      <trkpt lat="43.20702" lon="5.42005">
        <ele>139.91321</ele>
        <time>2019-06-19 15:43:44,178</time>
      </trkpt>
      <trkpt lat="43.20704" lon="5.42005">
        <ele>137.84631</ele>
        <time>2019-06-19 15:43:50,173</time>
      </trkpt>
      <trkpt lat="43.20704" lon="5.42005">
        <ele>139.16309</ele>
        <time>2019-06-19 15:43:51,181</time>
      </trkpt>
      <trkpt lat="43.20706" lon="5.42006">
        <ele>139.68402</ele>
        <time>2019-06-19 15:44:12,177</time>
      </trkpt>
      <trkpt lat="43.20705" lon="5.42006">
        <ele>139.9707</ele>
        <time>2019-06-19 15:44:13,366</time>
      </trkpt>
      <trkpt lat="43.20705" lon="5.42008">
        <ele>140.87012</ele>
        <time>2019-06-19 15:44:21,181</time>
      </trkpt>
      <trkpt lat="43.20706" lon="5.42008">
        <ele>140.72992</ele>
        <time>2019-06-19 15:44:22,181</time>
      </trkpt>
      <trkpt lat="43.20707" lon="5.42009">
        <ele>142.56781</ele>
        <time>2019-06-19 15:44:27,188</time>
      </trkpt>
      <trkpt lat="43.20707" lon="5.42009">
        <ele>142.37292</ele>
        <time>2019-06-19 15:44:28,364</time>
      </trkpt>
      <trkpt lat="43.20707" lon="5.42008">
        <ele>140.96802</ele>
        <time>2019-06-19 15:44:35,184</time>
      </trkpt>
      <trkpt lat="43.20707" lon="5.42008">
        <ele>139.99109</ele>
        <time>2019-06-19 15:44:36,179</time>
      </trkpt>
      <trkpt lat="43.20708" lon="5.42008">
        <ele>140.35425</ele>
        <time>2019-06-19 15:44:39,177</time>
      </trkpt>
      <trkpt lat="43.20708" lon="5.42008">
        <ele>139.56189</ele>
        <time>2019-06-19 15:44:40,188</time>
      </trkpt>
      <trkpt lat="43.20709" lon="5.42008">
        <ele>139.35577</ele>
        <time>2019-06-19 15:44:43,187</time>
      </trkpt>
      <trkpt lat="43.2071" lon="5.42007">
        <ele>140.35425</ele>
        <time>2019-06-19 15:44:44,177</time>
      </trkpt>
      <trkpt lat="43.20711" lon="5.42006">
        <ele>138.32495</ele>
        <time>2019-06-19 15:44:48,177</time>
      </trkpt>
      <trkpt lat="43.2071" lon="5.42006">
        <ele>139.52454</ele>
        <time>2019-06-19 15:44:50,184</time>
      </trkpt>
      <trkpt lat="43.20711" lon="5.42006">
        <ele>139.24841</ele>
        <time>2019-06-19 15:44:52,180</time>
      </trkpt>
      <trkpt lat="43.20711" lon="5.42006">
        <ele>139.51532</ele>
        <time>2019-06-19 15:44:53,178</time>
      </trkpt>
      <trkpt lat="43.2071" lon="5.42006">
        <ele>140.72864</ele>
        <time>2019-06-19 15:44:54,181</time>
      </trkpt>
      <trkpt lat="43.2071" lon="5.42007">
        <ele>141.15436</ele>
        <time>2019-06-19 15:44:55,177</time>
      </trkpt>
      <trkpt lat="43.2071" lon="5.42006">
        <ele>141.5238</ele>
        <time>2019-06-19 15:44:56,181</time>
      </trkpt>
      <trkpt lat="43.20708" lon="5.42007">
        <ele>139.51532</ele>
        <time>2019-06-19 15:45:02,176</time>
      </trkpt>
      <trkpt lat="43.20708" lon="5.42008">
        <ele>142.80865</ele>
        <time>2019-06-19 15:45:03,190</time>
      </trkpt>
      <trkpt lat="43.20709" lon="5.42007">
        <ele>143.40546</ele>
        <time>2019-06-19 15:45:06,181</time>
      </trkpt>
      <trkpt lat="43.20708" lon="5.42007">
        <ele>143.62817</ele>
        <time>2019-06-19 15:45:07,179</time>
      </trkpt>
      <trkpt lat="43.20708" lon="5.42007">
        <ele>144.55273</ele>
        <time>2019-06-19 15:45:10,179</time>
      </trkpt>
      <trkpt lat="43.20709" lon="5.42007">
        <ele>145.14185</ele>
        <time>2019-06-19 15:45:11,181</time>
      </trkpt>
      <trkpt lat="43.20709" lon="5.42007">
        <ele>145.94733</ele>
        <time>2019-06-19 15:45:12,181</time>
      </trkpt>
      <trkpt lat="43.20708" lon="5.42007">
        <ele>145.74231</ele>
        <time>2019-06-19 15:45:13,181</time>
      </trkpt>
      <trkpt lat="43.20708" lon="5.42007">
        <ele>145.55768</ele>
        <time>2019-06-19 15:45:17,179</time>
      </trkpt>
      <trkpt lat="43.20708" lon="5.42007">
        <ele>145.22278</ele>
        <time>2019-06-19 15:45:18,178</time>
      </trkpt>
      <trkpt lat="43.20709" lon="5.42007">
        <ele>145.2793</ele>
        <time>2019-06-19 15:45:22,184</time>
      </trkpt>
      <trkpt lat="43.2071" lon="5.42005">
        <ele>144.96661</ele>
        <time>2019-06-19 15:45:26,185</time>
      </trkpt>
      <trkpt lat="43.2071" lon="5.42005">
        <ele>144.83948</ele>
        <time>2019-06-19 15:45:28,184</time>
      </trkpt>
      <trkpt lat="43.2071" lon="5.42005">
        <ele>144.70099</ele>
        <time>2019-06-19 15:45:29,180</time>
      </trkpt>
      <trkpt lat="43.2071" lon="5.42005">
        <ele>144.62048</ele>
        <time>2019-06-19 15:45:36,193</time>
      </trkpt>
      <trkpt lat="43.2071" lon="5.42005">
        <ele>144.59747</ele>
        <time>2019-06-19 15:45:38,182</time>
      </trkpt>
      <trkpt lat="43.20711" lon="5.42004">
        <ele>144.50427</ele>
        <time>2019-06-19 15:45:39,178</time>
      </trkpt>
      <trkpt lat="43.20711" lon="5.42004">
        <ele>145.63318</ele>
        <time>2019-06-19 15:45:40,192</time>
      </trkpt>
      <trkpt lat="43.20711" lon="5.42004">
        <ele>145.19104</ele>
        <time>2019-06-19 15:45:42,182</time>
      </trkpt>
      <trkpt lat="43.20711" lon="5.42004">
        <ele>145.78882</ele>
        <time>2019-06-19 15:45:43,335</time>
      </trkpt>
      <trkpt lat="43.20709" lon="5.42004">
        <ele>150.58698</ele>
        <time>2019-06-19 15:46:12,330</time>
      </trkpt>
      <trkpt lat="43.2071" lon="5.42004">
        <ele>151.66418</ele>
        <time>2019-06-19 15:46:34,183</time>
      </trkpt>
      <trkpt lat="43.2071" lon="5.42005">
        <ele>152.80585</ele>
        <time>2019-06-19 15:46:56,176</time>
      </trkpt>
      <trkpt lat="43.2071" lon="5.42005">
        <ele>152.8197</ele>
        <time>2019-06-19 15:47:16,189</time>
      </trkpt>
      <trkpt lat="43.20708" lon="5.42007">
        <ele>153.51245</ele>
        <time>2019-06-19 15:47:21,182</time>
      </trkpt>
      <trkpt lat="43.20707" lon="5.42008">
        <ele>154.43475</ele>
        <time>2019-06-19 15:47:22,185</time>
      </trkpt>
      <trkpt lat="43.207" lon="5.42013">
        <ele>157.47864</ele>
        <time>2019-06-19 15:48:23,361</time>
      </trkpt>
      <trkpt lat="43.207" lon="5.42013">
        <ele>157.6684</ele>
        <time>2019-06-19 15:49:33,192</time>
      </trkpt>
      <trkpt lat="43.20699" lon="5.42013">
        <ele>158.30566</ele>
        <time>2019-06-19 15:50:42,180</time>
      </trkpt>
      <trkpt lat="43.20699" lon="5.42013">
        <ele>156.63715</ele>
        <time>2019-06-19 15:51:53,181</time>
      </trkpt>
      <trkpt lat="43.20699" lon="5.42013">
        <ele>157.65955</ele>
        <time>2019-06-19 15:51:54,389</time>
      </trkpt>
      <trkpt lat="43.20701" lon="5.42008">
        <ele>165.28271</ele>
        <time>2019-06-19 15:52:28,178</time>
      </trkpt>
      <trkpt lat="43.20701" lon="5.42008">
        <ele>160.96606</ele>
        <time>2019-06-19 15:52:56,411</time>
      </trkpt>
      <trkpt lat="43.20701" lon="5.42008">
        <ele>157.82806</ele>
        <time>2019-06-19 15:53:40,384</time>
      </trkpt>
      <trkpt lat="43.20701" lon="5.42008">
        <ele>155.14075</ele>
        <time>2019-06-19 15:54:12,173</time>
      </trkpt>
      <trkpt lat="43.20701" lon="5.42008">
        <ele>158.68378</ele>
        <time>2019-06-19 15:54:43,177</time>
      </trkpt>
      <trkpt lat="43.20702" lon="5.42008">
        <ele>159.57385</ele>
        <time>2019-06-19 15:54:56,179</time>
      </trkpt>
      <trkpt lat="43.20702" lon="5.42007">
        <ele>159.21936</ele>
        <time>2019-06-19 15:54:57,307</time>
      </trkpt>
      <trkpt lat="43.20706" lon="5.42006">
        <ele>125.18506</ele>
        <time>2019-06-19 15:55:26,228</time>
      </trkpt>
      <trkpt lat="43.20716" lon="5.42001">
        <ele>152.46637</ele>
        <time>2019-06-19 15:55:44,180</time>
      </trkpt>
      <trkpt lat="43.20715" lon="5.42001">
        <ele>154.54083</ele>
        <time>2019-06-19 15:55:45,180</time>
      </trkpt>
      <trkpt lat="43.20714" lon="5.42001">
        <ele>155.74164</ele>
        <time>2019-06-19 15:55:46,173</time>
      </trkpt>
      <trkpt lat="43.20714" lon="5.42001">
        <ele>156.99103</ele>
        <time>2019-06-19 15:55:48,189</time>
      </trkpt>
      <trkpt lat="43.20714" lon="5.42001">
        <ele>156.62744</ele>
        <time>2019-06-19 15:55:49,352</time>
      </trkpt>
      <trkpt lat="43.20713" lon="5.42003">
        <ele>160.53088</ele>
        <time>2019-06-19 15:55:54,179</time>
      </trkpt>
      <trkpt lat="43.20713" lon="5.42003">
        <ele>161.31909</ele>
        <time>2019-06-19 15:55:55,194</time>
      </trkpt>
      <trkpt lat="43.20712" lon="5.42002">
        <ele>161.93799</ele>
        <time>2019-06-19 15:56:04,184</time>
      </trkpt>
      <trkpt lat="43.20712" lon="5.42002">
        <ele>163.2644</ele>
        <time>2019-06-19 15:56:05,179</time>
      </trkpt>
      <trkpt lat="43.20711" lon="5.42002">
        <ele>164.04657</ele>
        <time>2019-06-19 15:56:06,177</time>
      </trkpt>
      <trkpt lat="43.20709" lon="5.42004">
        <ele>162.57336</ele>
        <time>2019-06-19 15:56:13,178</time>
      </trkpt>
      <trkpt lat="43.2071" lon="5.42004">
        <ele>162.3728</ele>
        <time>2019-06-19 15:56:14,180</time>
      </trkpt>
      <trkpt lat="43.2071" lon="5.42002">
        <ele>159.4469</ele>
        <time>2019-06-19 15:56:35,173</time>
      </trkpt>
      <trkpt lat="43.2071" lon="5.42003">
        <ele>160.15613</ele>
        <time>2019-06-19 15:56:40,192</time>
      </trkpt>
      <trkpt lat="43.2071" lon="5.42002">
        <ele>160.63165</ele>
        <time>2019-06-19 15:56:41,215</time>
      </trkpt>
      <trkpt lat="43.2071" lon="5.42003">
        <ele>162.22485</ele>
        <time>2019-06-19 15:56:48,196</time>
      </trkpt>
      <trkpt lat="43.2071" lon="5.42004">
        <ele>161.51422</ele>
        <time>2019-06-19 15:56:49,190</time>
      </trkpt>
      <trkpt lat="43.20711" lon="5.42">
        <ele>160.13391</ele>
        <time>2019-06-19 15:57:11,186</time>
      </trkpt>
      <trkpt lat="43.20711" lon="5.42">
        <ele>160.40552</ele>
        <time>2019-06-19 15:57:12,352</time>
      </trkpt>
      <trkpt lat="43.20712" lon="5.42003">
        <ele>162.47363</ele>
        <time>2019-06-19 15:57:26,181</time>
      </trkpt>
      <trkpt lat="43.20712" lon="5.42004">
        <ele>162.43884</ele>
        <time>2019-06-19 15:57:27,394</time>
      </trkpt>
      <trkpt lat="43.20711" lon="5.42005">
        <ele>162.7312</ele>
        <time>2019-06-19 15:57:49,183</time>
      </trkpt>
      <trkpt lat="43.20711" lon="5.42006">
        <ele>163.35901</ele>
        <time>2019-06-19 15:57:50,176</time>
      </trkpt>
      <trkpt lat="43.2071" lon="5.42005">
        <ele>163.7879</ele>
        <time>2019-06-19 15:57:53,181</time>
      </trkpt>
      <trkpt lat="43.2071" lon="5.42005">
        <ele>163.65808</ele>
        <time>2019-06-19 15:57:54,194</time>
      </trkpt>
      <trkpt lat="43.20711" lon="5.42004">
        <ele>162.88367</ele>
        <time>2019-06-19 15:57:55,190</time>
      </trkpt>
      <trkpt lat="43.20712" lon="5.42003">
        <ele>162.5835</ele>
        <time>2019-06-19 15:57:56,188</time>
      </trkpt>
      <trkpt lat="43.20712" lon="5.42002">
        <ele>163.55164</ele>
        <time>2019-06-19 15:57:57,189</time>
      </trkpt>
      <trkpt lat="43.2071" lon="5.42005">
        <ele>167.80627</ele>
        <time>2019-06-19 15:58:03,196</time>
      </trkpt>
      <trkpt lat="43.2071" lon="5.42005">
        <ele>167.75195</ele>
        <time>2019-06-19 15:58:04,173</time>
      </trkpt>
      <trkpt lat="43.20711" lon="5.42007">
        <ele>167.62701</ele>
        <time>2019-06-19 15:58:11,175</time>
      </trkpt>
      <trkpt lat="43.20711" lon="5.42008">
        <ele>168.34949</ele>
        <time>2019-06-19 15:58:12,183</time>
      </trkpt>
      <trkpt lat="43.20711" lon="5.42006">
        <ele>169.55359</ele>
        <time>2019-06-19 15:58:32,179</time>
      </trkpt>
      <trkpt lat="43.20712" lon="5.42007">
        <ele>169.04303</ele>
        <time>2019-06-19 15:58:44,196</time>
      </trkpt>
      <trkpt lat="43.20713" lon="5.42007">
        <ele>169.37366</ele>
        <time>2019-06-19 15:58:45,180</time>
      </trkpt>
      <trkpt lat="43.20713" lon="5.42009">
        <ele>171.13678</ele>
        <time>2019-06-19 15:58:46,185</time>
      </trkpt>
      <trkpt lat="43.20712" lon="5.4201">
        <ele>172.26294</ele>
        <time>2019-06-19 15:58:49,434</time>
      </trkpt>
      <trkpt lat="43.20712" lon="5.42009">
        <ele>172.83838</ele>
        <time>2019-06-19 15:58:51,176</time>
      </trkpt>
      <trkpt lat="43.20712" lon="5.4201">
        <ele>173.06628</ele>
        <time>2019-06-19 15:58:58,347</time>
      </trkpt>
      <trkpt lat="43.20712" lon="5.42011">
        <ele>174.62164</ele>
        <time>2019-06-19 15:59:00,172</time>
      </trkpt>
      <trkpt lat="43.20713" lon="5.42008">
        <ele>170.64008</ele>
        <time>2019-06-19 15:59:07,175</time>
      </trkpt>
      <trkpt lat="43.20713" lon="5.42008">
        <ele>170.43188</ele>
        <time>2019-06-19 15:59:08,374</time>
      </trkpt>
      <trkpt lat="43.2071" lon="5.42009">
        <ele>172.82489</ele>
        <time>2019-06-19 15:59:10,175</time>
      </trkpt>
      <trkpt lat="43.20709" lon="5.42011">
        <ele>172.2439</ele>
        <time>2019-06-19 15:59:16,172</time>
      </trkpt>
      <trkpt lat="43.20709" lon="5.42011">
        <ele>172.42676</ele>
        <time>2019-06-19 15:59:17,356</time>
      </trkpt>
      <trkpt lat="43.20709" lon="5.42015">
        <ele>169.8565</ele>
        <time>2019-06-19 15:59:31,331</time>
      </trkpt>
      <trkpt lat="43.20709" lon="5.42016">
        <ele>171.18958</ele>
        <time>2019-06-19 15:59:33,178</time>
      </trkpt>
      <trkpt lat="43.20709" lon="5.42016">
        <ele>170.75671</ele>
        <time>2019-06-19 15:59:53,178</time>
      </trkpt>
      <trkpt lat="43.20709" lon="5.42015">
        <ele>170.0669</ele>
        <time>2019-06-19 15:59:57,179</time>
      </trkpt>
      <trkpt lat="43.2071" lon="5.42015">
        <ele>170.29254</ele>
        <time>2019-06-19 15:59:58,173</time>
      </trkpt>
      <trkpt lat="43.2071" lon="5.42012">
        <ele>165.9472</ele>
        <time>2019-06-19 16:00:09,176</time>
      </trkpt>
      <trkpt lat="43.20711" lon="5.42012">
        <ele>149.4386</ele>
        <time>2019-06-19 16:00:10,179</time>
      </trkpt>
      <trkpt lat="43.20711" lon="5.42013">
        <ele>150.34753</ele>
        <time>2019-06-19 16:00:11,187</time>
      </trkpt>
      <trkpt lat="43.20712" lon="5.42014">
        <ele>151.29651</ele>
        <time>2019-06-19 16:00:12,169</time>
      </trkpt>
      <trkpt lat="43.20713" lon="5.42014">
        <ele>153.19153</ele>
        <time>2019-06-19 16:00:13,182</time>
      </trkpt>
      <trkpt lat="43.20714" lon="5.42017">
        <ele>164.78723</ele>
        <time>2019-06-19 16:00:30,178</time>
      </trkpt>
      <trkpt lat="43.20714" lon="5.42017">
        <ele>165.96704</ele>
        <time>2019-06-19 16:00:31,179</time>
      </trkpt>
      <trkpt lat="43.2071" lon="5.42019">
        <ele>159.7857</ele>
        <time>2019-06-19 16:00:43,350</time>
      </trkpt>
      <trkpt lat="43.20711" lon="5.42017">
        <ele>159.86145</ele>
        <time>2019-06-19 16:00:45,170</time>
      </trkpt>
      <trkpt lat="43.20714" lon="5.42018">
        <ele>158.50507</ele>
        <time>2019-06-19 16:00:52,329</time>
      </trkpt>
      <trkpt lat="43.20714" lon="5.42019">
        <ele>147.25183</ele>
        <time>2019-06-19 16:00:54,178</time>
      </trkpt>
      <trkpt lat="43.20713" lon="5.42021">
        <ele>152.6604</ele>
        <time>2019-06-19 16:00:58,372</time>
      </trkpt>
      <trkpt lat="43.20713" lon="5.42018">
        <ele>157.26251</ele>
        <time>2019-06-19 16:01:00,178</time>
      </trkpt>
      <trkpt lat="43.20713" lon="5.42017">
        <ele>158.86572</ele>
        <time>2019-06-19 16:01:01,325</time>
      </trkpt>
      <trkpt lat="43.20715" lon="5.42022">
        <ele>149.1228</ele>
        <time>2019-06-19 16:01:34,176</time>
      </trkpt>
      <trkpt lat="43.20714" lon="5.42032">
        <ele>149.00745</ele>
        <time>2019-06-19 16:02:01,281</time>
      </trkpt>
      <trkpt lat="43.20715" lon="5.42024">
        <ele>144.33398</ele>
        <time>2019-06-19 16:02:08,178</time>
      </trkpt>
      <trkpt lat="43.20716" lon="5.42023">
        <ele>144.27435</ele>
        <time>2019-06-19 16:02:09,358</time>
      </trkpt>
      <trkpt lat="43.20717" lon="5.42022">
        <ele>139.47034</ele>
        <time>2019-06-19 16:02:23,179</time>
      </trkpt>
      <trkpt lat="43.20718" lon="5.42023">
        <ele>138.49768</ele>
        <time>2019-06-19 16:02:24,299</time>
      </trkpt>
      <trkpt lat="43.20717" lon="5.42024">
        <ele>143.56525</ele>
        <time>2019-06-19 16:02:28,179</time>
      </trkpt>
      <trkpt lat="43.20717" lon="5.42024">
        <ele>142.68054</ele>
        <time>2019-06-19 16:02:29,360</time>
      </trkpt>
      <trkpt lat="43.20717" lon="5.42026">
        <ele>138.27728</ele>
        <time>2019-06-19 16:02:37,346</time>
      </trkpt>
      <trkpt lat="43.20717" lon="5.42027">
        <ele>137.67908</ele>
        <time>2019-06-19 16:02:39,176</time>
      </trkpt>
      <trkpt lat="43.20719" lon="5.42027">
        <ele>136.56287</ele>
        <time>2019-06-19 16:02:42,175</time>
      </trkpt>
      <trkpt lat="43.20718" lon="5.42028">
        <ele>137.6134</ele>
        <time>2019-06-19 16:02:43,313</time>
      </trkpt>
      <trkpt lat="43.20721" lon="5.42027">
        <ele>132.54968</ele>
        <time>2019-06-19 16:03:00,171</time>
      </trkpt>
      <trkpt lat="43.20721" lon="5.42028">
        <ele>132.2248</ele>
        <time>2019-06-19 16:03:01,249</time>
      </trkpt>
      <trkpt lat="43.20721" lon="5.42028">
        <ele>131.53992</ele>
        <time>2019-06-19 16:03:02,176</time>
      </trkpt>
      <trkpt lat="43.2073" lon="5.42021">
        <ele>118.56091</ele>
        <time>2019-06-19 16:03:33,374</time>
      </trkpt>
      <trkpt lat="43.20728" lon="5.42015">
        <ele>116.19861</ele>
        <time>2019-06-19 16:03:39,339</time>
      </trkpt>
      <trkpt lat="43.20729" lon="5.42015">
        <ele>115.83057</ele>
        <time>2019-06-19 16:03:41,183</time>
      </trkpt>
      <trkpt lat="43.20729" lon="5.42016">
        <ele>114.160645</ele>
        <time>2019-06-19 16:03:44,175</time>
      </trkpt>
      <trkpt lat="43.2073" lon="5.42016">
        <ele>113.78162</ele>
        <time>2019-06-19 16:03:45,313</time>
      </trkpt>
      <trkpt lat="43.20731" lon="5.42015">
        <ele>110.581665</ele>
        <time>2019-06-19 16:03:59,341</time>
      </trkpt>
      <trkpt lat="43.20731" lon="5.42017">
        <ele>109.91589</ele>
        <time>2019-06-19 16:04:01,169</time>
      </trkpt>
      <trkpt lat="43.20729" lon="5.42016">
        <ele>109.61249</ele>
        <time>2019-06-19 16:04:08,345</time>
      </trkpt>
      <trkpt lat="43.20729" lon="5.42015">
        <ele>109.10632</ele>
        <time>2019-06-19 16:04:10,176</time>
      </trkpt>
      <trkpt lat="43.2073" lon="5.42014">
        <ele>107.56378</ele>
        <time>2019-06-19 16:04:14,381</time>
      </trkpt>
      <trkpt lat="43.20731" lon="5.42014">
        <ele>106.62537</ele>
        <time>2019-06-19 16:04:16,177</time>
      </trkpt>
      <trkpt lat="43.20732" lon="5.42015">
        <ele>106.06598</ele>
        <time>2019-06-19 16:04:17,340</time>
      </trkpt>
      <trkpt lat="43.20735" lon="5.42016">
        <ele>103.11804</ele>
        <time>2019-06-19 16:04:22,174</time>
      </trkpt>
      <trkpt lat="43.20735" lon="5.42016">
        <ele>103.39557</ele>
        <time>2019-06-19 16:04:23,298</time>
      </trkpt>
      <trkpt lat="43.20739" lon="5.42015">
        <ele>112.36658</ele>
        <time>2019-06-19 16:04:38,322</time>
      </trkpt>
      <trkpt lat="43.20739" lon="5.42016">
        <ele>110.15607</ele>
        <time>2019-06-19 16:04:40,405</time>
      </trkpt>
      <trkpt lat="43.20741" lon="5.42016">
        <ele>106.74829</ele>
        <time>2019-06-19 16:04:42,178</time>
      </trkpt>
      <trkpt lat="43.20741" lon="5.42017">
        <ele>104.95935</ele>
        <time>2019-06-19 16:04:43,344</time>
      </trkpt>
      <trkpt lat="43.20742" lon="5.42017">
        <ele>102.556335</ele>
        <time>2019-06-19 16:04:45,183</time>
      </trkpt>
      <trkpt lat="43.2074" lon="5.42013">
        <ele>101.345764</ele>
        <time>2019-06-19 16:04:55,181</time>
      </trkpt>
      <trkpt lat="43.2074" lon="5.42014">
        <ele>128.73212</ele>
        <time>2019-06-19 16:04:56,316</time>
      </trkpt>
      <trkpt lat="43.20741" lon="5.42013">
        <ele>100.05975</ele>
        <time>2019-06-19 16:05:13,173</time>
      </trkpt>
      <trkpt lat="43.20741" lon="5.42012">
        <ele>98.422485</ele>
        <time>2019-06-19 16:05:14,383</time>
      </trkpt>
      <trkpt lat="43.20742" lon="5.42011">
        <ele>97.9353</ele>
        <time>2019-06-19 16:05:16,178</time>
      </trkpt>
      <trkpt lat="43.20745" lon="5.4201">
        <ele>126.6543</ele>
        <time>2019-06-19 16:05:19,185</time>
      </trkpt>
      <trkpt lat="43.20745" lon="5.4201">
        <ele>125.22296</ele>
        <time>2019-06-19 16:05:20,361</time>
      </trkpt>
      <trkpt lat="43.20743" lon="5.4201">
        <ele>119.538025</ele>
        <time>2019-06-19 16:05:22,179</time>
      </trkpt>
      <trkpt lat="43.20736" lon="5.42011">
        <ele>99.1543</ele>
        <time>2019-06-19 16:05:41,178</time>
      </trkpt>
      <trkpt lat="43.20736" lon="5.42012">
        <ele>98.96069</ele>
        <time>2019-06-19 16:05:42,174</time>
      </trkpt>
      <trkpt lat="43.20735" lon="5.42012">
        <ele>97.10199</ele>
        <time>2019-06-19 16:05:43,180</time>
      </trkpt>
      <trkpt lat="43.20731" lon="5.42006">
        <ele>113.25281</ele>
        <time>2019-06-19 16:05:51,184</time>
      </trkpt>
      <trkpt lat="43.20731" lon="5.42005">
        <ele>111.02246</ele>
        <time>2019-06-19 16:05:52,180</time>
      </trkpt>
      <trkpt lat="43.20731" lon="5.42005">
        <ele>107.83838</ele>
        <time>2019-06-19 16:05:54,181</time>
      </trkpt>
      <trkpt lat="43.2073" lon="5.42005">
        <ele>107.1485</ele>
        <time>2019-06-19 16:05:55,304</time>
      </trkpt>
      <trkpt lat="43.20727" lon="5.42007">
        <ele>103.61798</ele>
        <time>2019-06-19 16:06:26,352</time>
      </trkpt>
      <trkpt lat="43.20727" lon="5.42006">
        <ele>99.359985</ele>
        <time>2019-06-19 16:06:29,177</time>
      </trkpt>
      <trkpt lat="43.20728" lon="5.42005">
        <ele>115.8465</ele>
        <time>2019-06-19 16:06:30,237</time>
      </trkpt>
      <trkpt lat="43.20725" lon="5.42">
        <ele>101.00604</ele>
        <time>2019-06-19 16:06:49,177</time>
      </trkpt>
      <trkpt lat="43.20724" lon="5.42">
        <ele>128.19012</ele>
        <time>2019-06-19 16:06:50,183</time>
      </trkpt>
      <trkpt lat="43.20731" lon="5.41999">
        <ele>102.10382</ele>
        <time>2019-06-19 16:07:09,179</time>
      </trkpt>
      <trkpt lat="43.20731" lon="5.41999">
        <ele>101.74817</ele>
        <time>2019-06-19 16:07:10,392</time>
      </trkpt>
      <trkpt lat="43.20729" lon="5.41995">
        <ele>111.64227</ele>
        <time>2019-06-19 16:07:34,187</time>
      </trkpt>
      <trkpt lat="43.20729" lon="5.41995">
        <ele>109.90918</ele>
        <time>2019-06-19 16:07:35,349</time>
      </trkpt>
      <trkpt lat="43.20725" lon="5.42003">
        <ele>105.071594</ele>
        <time>2019-06-19 16:08:04,179</time>
      </trkpt>
      <trkpt lat="43.20724" lon="5.42004">
        <ele>128.20557</ele>
        <time>2019-06-19 16:08:09,286</time>
      </trkpt>
      <trkpt lat="43.20723" lon="5.42005">
        <ele>122.89661</ele>
        <time>2019-06-19 16:08:11,408</time>
      </trkpt>
      <trkpt lat="43.20717" lon="5.42006">
        <ele>94.802124</ele>
        <time>2019-06-19 16:08:37,297</time>
      </trkpt>
      <trkpt lat="43.20716" lon="5.42007">
        <ele>94.10437</ele>
        <time>2019-06-19 16:08:39,329</time>
      </trkpt>
      <trkpt lat="43.20716" lon="5.42007">
        <ele>102.14465</ele>
        <time>2019-06-19 16:09:16,325</time>
      </trkpt>
      <trkpt lat="43.20714" lon="5.42003">
        <ele>106.147705</ele>
        <time>2019-06-19 16:09:45,180</time>
      </trkpt>
      <trkpt lat="43.20715" lon="5.42002">
        <ele>105.06055</ele>
        <time>2019-06-19 16:09:46,194</time>
      </trkpt>
      <trkpt lat="43.20715" lon="5.41998">
        <ele>96.69299</ele>
        <time>2019-06-19 16:09:54,164</time>
      </trkpt>
      <trkpt lat="43.20715" lon="5.41996">
        <ele>130.06268</ele>
        <time>2019-06-19 16:09:55,191</time>
      </trkpt>
      <trkpt lat="43.20715" lon="5.41995">
        <ele>121.72705</ele>
        <time>2019-06-19 16:09:59,176</time>
      </trkpt>
      <trkpt lat="43.20715" lon="5.41994">
        <ele>119.80139</ele>
        <time>2019-06-19 16:10:00,178</time>
      </trkpt>
      <trkpt lat="43.20714" lon="5.41993">
        <ele>105.73895</ele>
        <time>2019-06-19 16:10:06,283</time>
      </trkpt>
      <trkpt lat="43.20714" lon="5.41994">
        <ele>102.8457</ele>
        <time>2019-06-19 16:10:08,344</time>
      </trkpt>
      <trkpt lat="43.20715" lon="5.42002">
        <ele>119.87445</ele>
        <time>2019-06-19 16:10:39,434</time>
      </trkpt>
      <trkpt lat="43.20714" lon="5.42006">
        <ele>103.29675</ele>
        <time>2019-06-19 16:10:47,177</time>
      </trkpt>
      <trkpt lat="43.20715" lon="5.42006">
        <ele>121.737305</ele>
        <time>2019-06-19 16:10:48,181</time>
      </trkpt>
      <trkpt lat="43.20715" lon="5.42007">
        <ele>119.48389</ele>
        <time>2019-06-19 16:10:49,183</time>
      </trkpt>
      <trkpt lat="43.20718" lon="5.42004">
        <ele>101.35565</ele>
        <time>2019-06-19 16:10:55,184</time>
      </trkpt>
      <trkpt lat="43.20718" lon="5.42001">
        <ele>96.529785</ele>
        <time>2019-06-19 16:10:56,176</time>
      </trkpt>
      <trkpt lat="43.20719" lon="5.42">
        <ele>113.12085</ele>
        <time>2019-06-19 16:11:03,186</time>
      </trkpt>
      <trkpt lat="43.20719" lon="5.42001">
        <ele>109.14111</ele>
        <time>2019-06-19 16:11:04,228</time>
      </trkpt>
      <trkpt lat="43.20719" lon="5.42003">
        <ele>102.18976</ele>
        <time>2019-06-19 16:11:06,352</time>
      </trkpt>
      <trkpt lat="43.2072" lon="5.42004">
        <ele>96.16022</ele>
        <time>2019-06-19 16:11:08,176</time>
      </trkpt>
      <trkpt lat="43.2072" lon="5.42004">
        <ele>140.43286</ele>
        <time>2019-06-19 16:11:09,179</time>
      </trkpt>
      <trkpt lat="43.2072" lon="5.42003">
        <ele>136.29779</ele>
        <time>2019-06-19 16:11:10,246</time>
      </trkpt>
      <trkpt lat="43.20721" lon="5.42003">
        <ele>131.72327</ele>
        <time>2019-06-19 16:11:11,183</time>
      </trkpt>
      <trkpt lat="43.20721" lon="5.42002">
        <ele>106.98743</ele>
        <time>2019-06-19 16:11:17,177</time>
      </trkpt>
      <trkpt lat="43.20722" lon="5.42002">
        <ele>104.518005</ele>
        <time>2019-06-19 16:11:18,186</time>
      </trkpt>
      <trkpt lat="43.20724" lon="5.41989">
        <ele>75.69983</ele>
        <time>2019-06-19 16:11:24,181</time>
      </trkpt>
      <trkpt lat="43.20724" lon="5.41988">
        <ele>71.66223</ele>
        <time>2019-06-19 16:11:25,177</time>
      </trkpt>
      <trkpt lat="43.20727" lon="5.41974">
        <ele>91.19208</ele>
        <time>2019-06-19 16:11:48,184</time>
      </trkpt>
      <trkpt lat="43.20726" lon="5.41975">
        <ele>63.674866</ele>
        <time>2019-06-19 16:11:56,190</time>
      </trkpt>
      <trkpt lat="43.20726" lon="5.41974">
        <ele>62.92981</ele>
        <time>2019-06-19 16:11:57,188</time>
      </trkpt>
      <trkpt lat="43.20726" lon="5.41974">
        <ele>62.475464</ele>
        <time>2019-06-19 16:11:58,188</time>
      </trkpt>
      <trkpt lat="43.20726" lon="5.41974">
        <ele>61.40277</ele>
        <time>2019-06-19 16:11:59,184</time>
      </trkpt>
      <trkpt lat="43.20726" lon="5.41973">
        <ele>126.373535</ele>
        <time>2019-06-19 16:12:00,183</time>
      </trkpt>
      <trkpt lat="43.20725" lon="5.41975">
        <ele>92.576904</ele>
        <time>2019-06-19 16:12:06,177</time>
      </trkpt>
      <trkpt lat="43.20726" lon="5.41975">
        <ele>85.73169</ele>
        <time>2019-06-19 16:12:07,341</time>
      </trkpt>
      <trkpt lat="43.20726" lon="5.41976">
        <ele>68.01898</ele>
        <time>2019-06-19 16:12:14,181</time>
      </trkpt>
      <trkpt lat="43.20726" lon="5.41975">
        <ele>64.67761</ele>
        <time>2019-06-19 16:12:15,174</time>
      </trkpt>
      <trkpt lat="43.20726" lon="5.41975">
        <ele>62.607727</ele>
        <time>2019-06-19 16:12:17,182</time>
      </trkpt>
      <trkpt lat="43.20726" lon="5.41975">
        <ele>62.188293</ele>
        <time>2019-06-19 16:12:18,187</time>
      </trkpt>
      <trkpt lat="43.20726" lon="5.41976">
        <ele>61.34973</ele>
        <time>2019-06-19 16:12:19,169</time>
      </trkpt>
      <trkpt lat="43.20724" lon="5.4198">
        <ele>56.46466</ele>
        <time>2019-06-19 16:12:44,188</time>
      </trkpt>
      <trkpt lat="43.20724" lon="5.41981">
        <ele>57.694702</ele>
        <time>2019-06-19 16:12:47,431</time>
      </trkpt>
      <trkpt lat="43.20724" lon="5.41982">
        <ele>58.23181</ele>
        <time>2019-06-19 16:12:49,180</time>
      </trkpt>
      <trkpt lat="43.2072" lon="5.41987">
        <ele>130.61884</ele>
        <time>2019-06-19 16:13:09,186</time>
      </trkpt>
      <trkpt lat="43.2072" lon="5.41988">
        <ele>61.812866</ele>
        <time>2019-06-19 16:13:23,409</time>
      </trkpt>
      <trkpt lat="43.20719" lon="5.4199">
        <ele>61.949036</ele>
        <time>2019-06-19 16:13:25,179</time>
      </trkpt>
      <trkpt lat="43.20719" lon="5.41992">
        <ele>63.671265</ele>
        <time>2019-06-19 16:13:31,172</time>
      </trkpt>
      <trkpt lat="43.20719" lon="5.41992">
        <ele>63.046204</ele>
        <time>2019-06-19 16:13:32,355</time>
      </trkpt>
      <trkpt lat="43.20718" lon="5.41991">
        <ele>61.01367</ele>
        <time>2019-06-19 16:13:37,178</time>
      </trkpt>
      <trkpt lat="43.20718" lon="5.4199">
        <ele>59.686035</ele>
        <time>2019-06-19 16:13:38,304</time>
      </trkpt>
      <trkpt lat="43.20718" lon="5.41989">
        <ele>60.355957</ele>
        <time>2019-06-19 16:13:40,173</time>
      </trkpt>
      <trkpt lat="43.20719" lon="5.41989">
        <ele>59.80591</ele>
        <time>2019-06-19 16:13:41,354</time>
      </trkpt>
      <trkpt lat="43.20719" lon="5.41988">
        <ele>57.55243</ele>
        <time>2019-06-19 16:13:46,174</time>
      </trkpt>
      <trkpt lat="43.20719" lon="5.41988">
        <ele>57.348022</ele>
        <time>2019-06-19 16:13:47,308</time>
      </trkpt>
      <trkpt lat="43.20719" lon="5.41989">
        <ele>111.59473</ele>
        <time>2019-06-19 16:13:49,183</time>
      </trkpt>
      <trkpt lat="43.20719" lon="5.41989">
        <ele>108.08362</ele>
        <time>2019-06-19 16:13:50,207</time>
      </trkpt>
      <trkpt lat="43.20719" lon="5.41989">
        <ele>103.854004</ele>
        <time>2019-06-19 16:13:51,173</time>
      </trkpt>
      <trkpt lat="43.20719" lon="5.41989">
        <ele>91.68506</ele>
        <time>2019-06-19 16:13:54,177</time>
      </trkpt>
      <trkpt lat="43.20719" lon="5.41989">
        <ele>87.859375</ele>
        <time>2019-06-19 16:13:55,171</time>
      </trkpt>
      <trkpt lat="43.2072" lon="5.41988">
        <ele>83.12207</ele>
        <time>2019-06-19 16:13:56,319</time>
      </trkpt>
      <trkpt lat="43.20723" lon="5.41985">
        <ele>76.230225</ele>
        <time>2019-06-19 16:13:58,326</time>
      </trkpt>
      <trkpt lat="43.20724" lon="5.41984">
        <ele>73.185425</ele>
        <time>2019-06-19 16:14:01,206</time>
      </trkpt>
      <trkpt lat="43.20724" lon="5.41984">
        <ele>71.98248</ele>
        <time>2019-06-19 16:14:02,177</time>
      </trkpt>
      <trkpt lat="43.20724" lon="5.41984">
        <ele>65.803955</ele>
        <time>2019-06-19 16:14:06,312</time>
      </trkpt>
      <trkpt lat="43.20723" lon="5.41984">
        <ele>64.73993</ele>
        <time>2019-06-19 16:14:08,337</time>
      </trkpt>
      <trkpt lat="43.20723" lon="5.41986">
        <ele>61.780945</ele>
        <time>2019-06-19 16:14:13,178</time>
      </trkpt>
      <trkpt lat="43.20724" lon="5.41984">
        <ele>59.85858</ele>
        <time>2019-06-19 16:14:14,426</time>
      </trkpt>
      <trkpt lat="43.20725" lon="5.41982">
        <ele>58.453735</ele>
        <time>2019-06-19 16:14:16,183</time>
      </trkpt>
      <trkpt lat="43.20726" lon="5.41981">
        <ele>57.33789</ele>
        <time>2019-06-19 16:14:17,186</time>
      </trkpt>
      <trkpt lat="43.2073" lon="5.41979">
        <ele>74.38403</ele>
        <time>2019-06-19 16:14:35,176</time>
      </trkpt>
      <trkpt lat="43.2073" lon="5.41978">
        <ele>73.45032</ele>
        <time>2019-06-19 16:14:38,384</time>
      </trkpt>
      <trkpt lat="43.20729" lon="5.41979">
        <ele>113.76123</ele>
        <time>2019-06-19 16:14:40,179</time>
      </trkpt>
      <trkpt lat="43.20728" lon="5.41979">
        <ele>110.74432</ele>
        <time>2019-06-19 16:14:41,320</time>
      </trkpt>
      <trkpt lat="43.20727" lon="5.41978">
        <ele>91.01196</ele>
        <time>2019-06-19 16:14:46,177</time>
      </trkpt>
      <trkpt lat="43.20727" lon="5.41979">
        <ele>87.026245</ele>
        <time>2019-06-19 16:14:47,312</time>
      </trkpt>
      <trkpt lat="43.20722" lon="5.41986">
        <ele>61.21808</ele>
        <time>2019-06-19 16:15:08,169</time>
      </trkpt>
      <trkpt lat="43.20723" lon="5.41986">
        <ele>60.526245</ele>
        <time>2019-06-19 16:15:11,176</time>
      </trkpt>
      <trkpt lat="43.20723" lon="5.41986">
        <ele>60.406372</ele>
        <time>2019-06-19 16:15:12,171</time>
      </trkpt>
      <trkpt lat="43.20728" lon="5.41983">
        <ele>76.15637</ele>
        <time>2019-06-19 16:15:32,185</time>
      </trkpt>
      <trkpt lat="43.20728" lon="5.41985">
        <ele>77.386475</ele>
        <time>2019-06-19 16:15:41,311</time>
      </trkpt>
      <trkpt lat="43.20729" lon="5.41985">
        <ele>77.4046</ele>
        <time>2019-06-19 16:15:43,385</time>
      </trkpt>
      <trkpt lat="43.20732" lon="5.41993">
        <ele>111.04321</ele>
        <time>2019-06-19 16:16:19,176</time>
      </trkpt>
      <trkpt lat="43.20737" lon="5.41994">
        <ele>110.53607</ele>
        <time>2019-06-19 16:16:37,170</time>
      </trkpt>
      <trkpt lat="43.20736" lon="5.41994">
        <ele>110.693726</ele>
        <time>2019-06-19 16:16:38,406</time>
      </trkpt>
      <trkpt lat="43.20735" lon="5.42002">
        <ele>114.01575</ele>
        <time>2019-06-19 16:17:02,167</time>
      </trkpt>
      <trkpt lat="43.20735" lon="5.42003">
        <ele>116.84589</ele>
        <time>2019-06-19 16:17:22,176</time>
      </trkpt>
      <trkpt lat="43.20734" lon="5.42004">
        <ele>118.23309</ele>
        <time>2019-06-19 16:17:27,170</time>
      </trkpt>
      <trkpt lat="43.20734" lon="5.42005">
        <ele>119.35797</ele>
        <time>2019-06-19 16:17:28,182</time>
      </trkpt>
      <trkpt lat="43.20733" lon="5.4201">
        <ele>121.91803</ele>
        <time>2019-06-19 16:17:33,346</time>
      </trkpt>
      <trkpt lat="43.20734" lon="5.42012">
        <ele>123.66858</ele>
        <time>2019-06-19 16:17:35,179</time>
      </trkpt>
      <trkpt lat="43.20733" lon="5.42018">
        <ele>128.55688</ele>
        <time>2019-06-19 16:18:00,177</time>
      </trkpt>
      <trkpt lat="43.20733" lon="5.42018">
        <ele>128.74933</ele>
        <time>2019-06-19 16:18:01,169</time>
      </trkpt>
      <trkpt lat="43.20733" lon="5.42019">
        <ele>129.24585</ele>
        <time>2019-06-19 16:18:03,315</time>
      </trkpt>
      <trkpt lat="43.20731" lon="5.42016">
        <ele>128.69678</ele>
        <time>2019-06-19 16:18:05,412</time>
      </trkpt>
      <trkpt lat="43.20732" lon="5.42016">
        <ele>120.67297</ele>
        <time>2019-06-19 16:18:33,256</time>
      </trkpt>
      <trkpt lat="43.20733" lon="5.42016">
        <ele>120.32977</ele>
        <time>2019-06-19 16:18:34,175</time>
      </trkpt>
      <trkpt lat="43.20733" lon="5.42015">
        <ele>119.790955</ele>
        <time>2019-06-19 16:18:35,386</time>
      </trkpt>
      <trkpt lat="43.20729" lon="5.42008">
        <ele>105.86493</ele>
        <time>2019-06-19 16:19:05,352</time>
      </trkpt>
      <trkpt lat="43.20728" lon="5.42006">
        <ele>102.74823</ele>
        <time>2019-06-19 16:19:25,243</time>
      </trkpt>
      <trkpt lat="43.20727" lon="5.42008">
        <ele>105.24628</ele>
        <time>2019-06-19 16:19:26,171</time>
      </trkpt>
      <trkpt lat="43.20727" lon="5.4201">
        <ele>100.62378</ele>
        <time>2019-06-19 16:19:30,343</time>
      </trkpt>
      <trkpt lat="43.20728" lon="5.42009">
        <ele>97.49957</ele>
        <time>2019-06-19 16:19:32,406</time>
      </trkpt>
      <trkpt lat="43.20726" lon="5.4201">
        <ele>104.89526</ele>
        <time>2019-06-19 16:19:59,180</time>
      </trkpt>
      <trkpt lat="43.20727" lon="5.42015">
        <ele>106.75079</ele>
        <time>2019-06-19 16:20:26,179</time>
      </trkpt>
      <trkpt lat="43.20727" lon="5.42016">
        <ele>106.8772</ele>
        <time>2019-06-19 16:20:27,378</time>
      </trkpt>
      <trkpt lat="43.2073" lon="5.42011">
        <ele>103.79077</ele>
        <time>2019-06-19 16:20:59,205</time>
      </trkpt>
      <trkpt lat="43.20731" lon="5.42013">
        <ele>98.02649</ele>
        <time>2019-06-19 16:21:29,374</time>
      </trkpt>
      <trkpt lat="43.20731" lon="5.42014">
        <ele>97.08734</ele>
        <time>2019-06-19 16:21:34,173</time>
      </trkpt>
      <trkpt lat="43.2073" lon="5.42015">
        <ele>98.09082</ele>
        <time>2019-06-19 16:21:35,353</time>
      </trkpt>
      <trkpt lat="43.20726" lon="5.42015">
        <ele>95.697754</ele>
        <time>2019-06-19 16:22:17,172</time>
      </trkpt>
      <trkpt lat="43.20718" lon="5.42021">
        <ele>105.643616</ele>
        <time>2019-06-19 16:22:47,175</time>
      </trkpt>
      <trkpt lat="43.20718" lon="5.42017">
        <ele>194.16754</ele>
        <time>2019-06-19 16:23:04,027</time>
      </trkpt>
      <trkpt lat="43.20718" lon="5.42016">
        <ele>183.27356</ele>
        <time>2019-06-19 16:23:05,030</time>
      </trkpt>
      <trkpt lat="43.2072" lon="5.42011">
        <ele>150.59607</ele>
        <time>2019-06-19 16:23:09,032</time>
      </trkpt>
      <trkpt lat="43.20721" lon="5.4201">
        <ele>147.19275</ele>
        <time>2019-06-19 16:23:10,039</time>
      </trkpt>
      <trkpt lat="43.20721" lon="5.4201">
        <ele>145.87256</ele>
        <time>2019-06-19 16:23:11,044</time>
      </trkpt>
      <trkpt lat="43.20722" lon="5.42009">
        <ele>145.59473</ele>
        <time>2019-06-19 16:23:12,038</time>
      </trkpt>
      <trkpt lat="43.20723" lon="5.4201">
        <ele>119.67578</ele>
        <time>2019-06-19 16:23:20,038</time>
      </trkpt>
      <trkpt lat="43.20723" lon="5.4201">
        <ele>117.7074</ele>
        <time>2019-06-19 16:23:21,051</time>
      </trkpt>
      <trkpt lat="43.20722" lon="5.42015">
        <ele>109.482056</ele>
        <time>2019-06-19 16:23:36,461</time>
      </trkpt>
      <trkpt lat="43.20723" lon="5.42016">
        <ele>108.02026</ele>
        <time>2019-06-19 16:23:37,466</time>
      </trkpt>
      <trkpt lat="43.20722" lon="5.42011">
        <ele>100.97272</ele>
        <time>2019-06-19 16:24:01,470</time>
      </trkpt>
      <trkpt lat="43.20721" lon="5.42013">
        <ele>113.13129</ele>
        <time>2019-06-19 16:24:23,469</time>
      </trkpt>
      <trkpt lat="43.20717" lon="5.42022">
        <ele>125.759094</ele>
        <time>2019-06-19 16:24:42,667</time>
      </trkpt>
      <trkpt lat="43.20716" lon="5.42022">
        <ele>126.98346</ele>
        <time>2019-06-19 16:24:44,460</time>
      </trkpt>
      <trkpt lat="43.20714" lon="5.42024">
        <ele>128.91656</ele>
        <time>2019-06-19 16:24:49,659</time>
      </trkpt>
      <trkpt lat="43.20713" lon="5.42025">
        <ele>130.44922</ele>
        <time>2019-06-19 16:24:51,469</time>
      </trkpt>
      <trkpt lat="43.20713" lon="5.42025">
        <ele>131.70398</ele>
        <time>2019-06-19 16:24:52,620</time>
      </trkpt>
      <trkpt lat="43.20713" lon="5.42026">
        <ele>132.56085</ele>
        <time>2019-06-19 16:24:54,625</time>
      </trkpt>
      <trkpt lat="43.20715" lon="5.42023">
        <ele>141.88672</ele>
        <time>2019-06-19 16:25:05,468</time>
      </trkpt>
      <trkpt lat="43.20715" lon="5.42022">
        <ele>142.87738</ele>
        <time>2019-06-19 16:25:06,465</time>
      </trkpt>
      <trkpt lat="43.20715" lon="5.42025">
        <ele>158.86658</ele>
        <time>2019-06-19 16:25:29,557</time>
      </trkpt>
      <trkpt lat="43.20718" lon="5.42024">
        <ele>182.17603</ele>
        <time>2019-06-19 16:25:58,684</time>
      </trkpt>
      <trkpt lat="43.20716" lon="5.4203">
        <ele>183.83417</ele>
        <time>2019-06-19 16:26:30,468</time>
      </trkpt>
      <trkpt lat="43.20717" lon="5.42027">
        <ele>187.36646</ele>
        <time>2019-06-19 16:26:58,692</time>
      </trkpt>
      <trkpt lat="43.20712" lon="5.42027">
        <ele>187.01782</ele>
        <time>2019-06-19 16:27:23,688</time>
      </trkpt>
      <trkpt lat="43.20713" lon="5.42023">
        <ele>182.11902</ele>
        <time>2019-06-19 16:27:51,474</time>
      </trkpt>
      <trkpt lat="43.20715" lon="5.42026">
        <ele>196.27026</ele>
        <time>2019-06-19 16:28:18,463</time>
      </trkpt>
      <trkpt lat="43.20713" lon="5.42025">
        <ele>201.90118</ele>
        <time>2019-06-19 16:28:31,471</time>
      </trkpt>
      <trkpt lat="43.20713" lon="5.42025">
        <ele>202.42181</ele>
        <time>2019-06-19 16:28:32,475</time>
      </trkpt>
      <trkpt lat="43.20713" lon="5.42026">
        <ele>224.83044</ele>
        <time>2019-06-19 16:28:37,472</time>
      </trkpt>
      <trkpt lat="43.20713" lon="5.42026">
        <ele>221.94354</ele>
        <time>2019-06-19 16:28:38,466</time>
      </trkpt>
      <trkpt lat="43.20714" lon="5.42026">
        <ele>218.45691</ele>
        <time>2019-06-19 16:28:39,470</time>
      </trkpt>
      <trkpt lat="43.20714" lon="5.42028">
        <ele>205.65417</ele>
        <time>2019-06-19 16:28:58,471</time>
      </trkpt>
      <trkpt lat="43.20714" lon="5.42029">
        <ele>205.35089</ele>
        <time>2019-06-19 16:29:01,517</time>
      </trkpt>
      <trkpt lat="43.20715" lon="5.42028">
        <ele>206.71979</ele>
        <time>2019-06-19 16:29:07,476</time>
      </trkpt>
      <trkpt lat="43.20715" lon="5.42028">
        <ele>207.01007</ele>
        <time>2019-06-19 16:29:08,724</time>
      </trkpt>
      <trkpt lat="43.20715" lon="5.42029">
        <ele>207.0191</ele>
        <time>2019-06-19 16:29:10,464</time>
      </trkpt>
      <trkpt lat="43.20716" lon="5.42029">
        <ele>207.53796</ele>
        <time>2019-06-19 16:29:11,500</time>
      </trkpt>
      <trkpt lat="43.20716" lon="5.42028">
        <ele>207.92401</ele>
        <time>2019-06-19 16:29:12,479</time>
      </trkpt>
      <trkpt lat="43.20716" lon="5.42028">
        <ele>208.40173</ele>
        <time>2019-06-19 16:29:13,464</time>
      </trkpt>
      <trkpt lat="43.20716" lon="5.42028">
        <ele>208.30408</ele>
        <time>2019-06-19 16:29:19,655</time>
      </trkpt>
      <trkpt lat="43.20716" lon="5.42028">
        <ele>208.62549</ele>
        <time>2019-06-19 16:29:21,475</time>
      </trkpt>
      <trkpt lat="43.20717" lon="5.42028">
        <ele>210.94507</ele>
        <time>2019-06-19 16:29:25,471</time>
      </trkpt>
      <trkpt lat="43.20717" lon="5.42029">
        <ele>210.24207</ele>
        <time>2019-06-19 16:29:26,465</time>
      </trkpt>
      <trkpt lat="43.20717" lon="5.4203">
        <ele>214.57837</ele>
        <time>2019-06-19 16:29:44,687</time>
      </trkpt>
      <trkpt lat="43.20717" lon="5.4203">
        <ele>213.68744</ele>
        <time>2019-06-19 16:29:46,479</time>
      </trkpt>
      <trkpt lat="43.20721" lon="5.42029">
        <ele>206.84888</ele>
        <time>2019-06-19 16:30:00,477</time>
      </trkpt>
      <trkpt lat="43.20722" lon="5.42029">
        <ele>206.28772</ele>
        <time>2019-06-19 16:30:01,470</time>
      </trkpt>
      <trkpt lat="43.20722" lon="5.42028">
        <ele>206.28613</ele>
        <time>2019-06-19 16:30:02,471</time>
      </trkpt>
      <trkpt lat="43.20722" lon="5.42028">
        <ele>209.85359</ele>
        <time>2019-06-19 16:30:03,473</time>
      </trkpt>
      <trkpt lat="43.20723" lon="5.42028">
        <ele>205.38281</ele>
        <time>2019-06-19 16:30:04,470</time>
      </trkpt>
      <trkpt lat="43.20723" lon="5.42028">
        <ele>204.33356</ele>
        <time>2019-06-19 16:30:05,493</time>
      </trkpt>
      <trkpt lat="43.20722" lon="5.42026">
        <ele>205.54865</ele>
        <time>2019-06-19 16:30:12,480</time>
      </trkpt>
      <trkpt lat="43.20722" lon="5.42026">
        <ele>205.38281</ele>
        <time>2019-06-19 16:30:13,481</time>
      </trkpt>
      <trkpt lat="43.20722" lon="5.42026">
        <ele>207.53741</ele>
        <time>2019-06-19 16:30:29,484</time>
      </trkpt>
      <trkpt lat="43.20721" lon="5.42026">
        <ele>207.43243</ele>
        <time>2019-06-19 16:30:30,478</time>
      </trkpt>
      <trkpt lat="43.20721" lon="5.42026">
        <ele>207.85004</ele>
        <time>2019-06-19 16:30:35,470</time>
      </trkpt>
      <trkpt lat="43.20721" lon="5.42025">
        <ele>209.13818</ele>
        <time>2019-06-19 16:30:36,458</time>
      </trkpt>
      <trkpt lat="43.20719" lon="5.42022">
        <ele>207.77881</ele>
        <time>2019-06-19 16:31:10,480</time>
      </trkpt>
      <trkpt lat="43.20719" lon="5.42021">
        <ele>207.71942</ele>
        <time>2019-06-19 16:31:36,478</time>
      </trkpt>
      <trkpt lat="43.20719" lon="5.42022">
        <ele>208.61383</ele>
        <time>2019-06-19 16:31:45,480</time>
      </trkpt>
      <trkpt lat="43.2072" lon="5.42021">
        <ele>207.94531</ele>
        <time>2019-06-19 16:31:46,466</time>
      </trkpt>
      <trkpt lat="43.2072" lon="5.42019">
        <ele>207.25433</ele>
        <time>2019-06-19 16:32:11,469</time>
      </trkpt>
      <trkpt lat="43.20721" lon="5.42018">
        <ele>206.49707</ele>
        <time>2019-06-19 16:32:35,472</time>
      </trkpt>
      <trkpt lat="43.20721" lon="5.42017">
        <ele>206.7431</ele>
        <time>2019-06-19 16:32:59,652</time>
      </trkpt>
      <trkpt lat="43.20721" lon="5.42017">
        <ele>205.89655</ele>
        <time>2019-06-19 16:33:13,510</time>
      </trkpt>
      <trkpt lat="43.20721" lon="5.42017">
        <ele>206.03912</ele>
        <time>2019-06-19 16:33:14,460</time>
      </trkpt>
      <trkpt lat="43.20721" lon="5.42017">
        <ele>206.1336</ele>
        <time>2019-06-19 16:33:17,471</time>
      </trkpt>
      <trkpt lat="43.20721" lon="5.42016">
        <ele>205.40222</ele>
        <time>2019-06-19 16:33:18,462</time>
      </trkpt>
      <trkpt lat="43.20721" lon="5.42016">
        <ele>205.9317</ele>
        <time>2019-06-19 16:33:19,627</time>
      </trkpt>
      <trkpt lat="43.20721" lon="5.42016">
        <ele>206.1372</ele>
        <time>2019-06-19 16:33:24,587</time>
      </trkpt>
      <trkpt lat="43.20721" lon="5.42017">
        <ele>205.99194</ele>
        <time>2019-06-19 16:33:26,458</time>
      </trkpt>
      <trkpt lat="43.20722" lon="5.42016">
        <ele>204.409</ele>
        <time>2019-06-19 16:33:31,460</time>
      </trkpt>
      <trkpt lat="43.20722" lon="5.42016">
        <ele>204.49268</ele>
        <time>2019-06-19 16:33:32,474</time>
      </trkpt>
      <trkpt lat="43.20721" lon="5.42018">
        <ele>207.74042</ele>
        <time>2019-06-19 16:33:54,475</time>
      </trkpt>
      <trkpt lat="43.20721" lon="5.42016">
        <ele>209.87274</ele>
        <time>2019-06-19 16:34:20,476</time>
      </trkpt>
      <trkpt lat="43.2072" lon="5.42017">
        <ele>214.97894</ele>
        <time>2019-06-19 16:34:52,471</time>
      </trkpt>
      <trkpt lat="43.20721" lon="5.42017">
        <ele>216.35706</ele>
        <time>2019-06-19 16:35:11,475</time>
      </trkpt>
      <trkpt lat="43.20721" lon="5.42017">
        <ele>215.07361</ele>
        <time>2019-06-19 16:35:12,473</time>
      </trkpt>
      <trkpt lat="43.2072" lon="5.42017">
        <ele>214.25061</ele>
        <time>2019-06-19 16:35:13,610</time>
      </trkpt>
      <trkpt lat="43.20719" lon="5.42019">
        <ele>215.32684</ele>
        <time>2019-06-19 16:35:15,473</time>
      </trkpt>
      <trkpt lat="43.20716" lon="5.42021">
        <ele>215.07458</ele>
        <time>2019-06-19 16:35:30,476</time>
      </trkpt>
      <trkpt lat="43.20717" lon="5.4202">
        <ele>212.93488</ele>
        <time>2019-06-19 16:35:31,709</time>
      </trkpt>
      <trkpt lat="43.20719" lon="5.4202">
        <ele>214.03613</ele>
        <time>2019-06-19 16:35:35,482</time>
      </trkpt>
      <trkpt lat="43.20719" lon="5.4202">
        <ele>215.07544</ele>
        <time>2019-06-19 16:35:36,484</time>
      </trkpt>
      <trkpt lat="43.20722" lon="5.42016">
        <ele>215.72632</ele>
        <time>2019-06-19 16:36:04,487</time>
      </trkpt>
      <trkpt lat="43.20723" lon="5.42012">
        <ele>208.96832</ele>
        <time>2019-06-19 16:36:29,682</time>
      </trkpt>
      <trkpt lat="43.20722" lon="5.42016">
        <ele>207.80621</ele>
        <time>2019-06-19 16:36:49,481</time>
      </trkpt>
      <trkpt lat="43.20722" lon="5.42014">
        <ele>203.12488</ele>
        <time>2019-06-19 16:37:14,473</time>
      </trkpt>
      <trkpt lat="43.20719" lon="5.42016">
        <ele>204.68713</ele>
        <time>2019-06-19 16:37:53,473</time>
      </trkpt>
      <trkpt lat="43.2072" lon="5.42015">
        <ele>202.06274</ele>
        <time>2019-06-19 16:38:03,466</time>
      </trkpt>
      <trkpt lat="43.2072" lon="5.42015">
        <ele>201.96619</ele>
        <time>2019-06-19 16:38:04,694</time>
      </trkpt>
      <trkpt lat="43.20722" lon="5.42017">
        <ele>197.2019</ele>
        <time>2019-06-19 16:38:39,457</time>
      </trkpt>
      <trkpt lat="43.20722" lon="5.42017">
        <ele>197.14038</ele>
        <time>2019-06-19 16:39:05,464</time>
      </trkpt>
      <trkpt lat="43.20722" lon="5.42018">
        <ele>193.17181</ele>
        <time>2019-06-19 16:39:42,485</time>
      </trkpt>
      <trkpt lat="43.2072" lon="5.42018">
        <ele>192.75385</ele>
        <time>2019-06-19 16:39:52,489</time>
      </trkpt>
      <trkpt lat="43.20721" lon="5.42018">
        <ele>192.776</ele>
        <time>2019-06-19 16:39:53,478</time>
      </trkpt>
      <trkpt lat="43.20722" lon="5.42019">
        <ele>191.11902</ele>
        <time>2019-06-19 16:40:15,755</time>
      </trkpt>
      <trkpt lat="43.20722" lon="5.42019">
        <ele>191.13599</ele>
        <time>2019-06-19 16:40:45,484</time>
      </trkpt>
      <trkpt lat="43.20722" lon="5.4202">
        <ele>191.12225</ele>
        <time>2019-06-19 16:41:03,498</time>
      </trkpt>
      <trkpt lat="43.20722" lon="5.4202">
        <ele>189.94464</ele>
        <time>2019-06-19 16:41:04,471</time>
      </trkpt>
      <trkpt lat="43.20722" lon="5.4202">
        <ele>190.0528</ele>
        <time>2019-06-19 16:41:07,479</time>
      </trkpt>
      <trkpt lat="43.20722" lon="5.4202">
        <ele>189.06012</ele>
        <time>2019-06-19 16:41:08,456</time>
      </trkpt>
      <trkpt lat="43.20722" lon="5.4202">
        <ele>189.04236</ele>
        <time>2019-06-19 16:41:09,645</time>
      </trkpt>
      <trkpt lat="43.20722" lon="5.42019">
        <ele>187.43774</ele>
        <time>2019-06-19 16:41:15,759</time>
      </trkpt>
      <trkpt lat="43.20721" lon="5.42019">
        <ele>189.94464</ele>
        <time>2019-06-19 16:41:17,488</time>
      </trkpt>
      <trkpt lat="43.20721" lon="5.42021">
        <ele>187.24402</ele>
        <time>2019-06-19 17:00:43,482</time>
      </trkpt>
      <trkpt lat="43.20721" lon="5.42021">
        <ele>187.2439</ele>
        <time>2019-06-19 17:01:37,470</time>
      </trkpt>
      <trkpt lat="43.2072" lon="5.42022">
        <ele>188.79358</ele>
        <time>2019-06-19 17:10:33,475</time>
      </trkpt>
      <trkpt lat="43.2072" lon="5.42024">
        <ele>184.48773</ele>
        <time>2019-06-19 17:25:11,677</time>
      </trkpt>
      <trkpt lat="43.2072" lon="5.42024">
        <ele>184.47522</ele>
        <time>2019-06-19 17:25:38,459</time>
      </trkpt>
      <trkpt lat="43.2072" lon="5.42024">
        <ele>184.258</ele>
        <time>2019-06-19 17:25:57,465</time>
      </trkpt>
      <trkpt lat="43.2072" lon="5.42024">
        <ele>184.28436</ele>
        <time>2019-06-19 17:25:58,678</time>
      </trkpt>
      <trkpt lat="43.20719" lon="5.42023">
        <ele>184.40076</ele>
        <time>2019-06-19 17:29:53,473</time>
      </trkpt>
      <trkpt lat="43.20719" lon="5.42023">
        <ele>184.51703</ele>
        <time>2019-06-19 17:29:54,710</time>
      </trkpt>
      <trkpt lat="43.20719" lon="5.42023">
        <ele>184.02655</ele>
        <time>2019-06-19 17:32:58,464</time>
      </trkpt>
      <trkpt lat="43.2072" lon="5.42025">
        <ele>184.83429</ele>
        <time>2019-06-19 17:33:43,475</time>
      </trkpt>
      <trkpt lat="43.20719" lon="5.42025">
        <ele>185.21814</ele>
        <time>2019-06-19 17:33:44,465</time>
      </trkpt>
      <trkpt lat="43.20719" lon="5.42024">
        <ele>185.38416</ele>
        <time>2019-06-19 17:33:50,642</time>
      </trkpt>
      <trkpt lat="43.20719" lon="5.42024">
        <ele>185.96454</ele>
        <time>2019-06-19 17:33:52,472</time>
      </trkpt>
      <trkpt lat="43.20718" lon="5.42023">
        <ele>184.87134</ele>
        <time>2019-06-19 17:35:49,469</time>
      </trkpt>
      <trkpt lat="43.20718" lon="5.42023">
        <ele>184.90936</ele>
        <time>2019-06-19 17:36:11,459</time>
      </trkpt>
      <trkpt lat="43.20719" lon="5.42022">
        <ele>183.07391</ele>
        <time>2019-06-19 17:36:31,471</time>
      </trkpt>
      <trkpt lat="43.20719" lon="5.42022">
        <ele>183.41345</ele>
        <time>2019-06-19 17:36:40,471</time>
      </trkpt>
      <trkpt lat="43.20719" lon="5.42022">
        <ele>183.56573</ele>
        <time>2019-06-19 17:36:41,462</time>
      </trkpt>
      <trkpt lat="43.20718" lon="5.42022">
        <ele>182.492</ele>
        <time>2019-06-19 17:37:01,470</time>
      </trkpt>
      <trkpt lat="43.20719" lon="5.42027">
        <ele>186.58105</ele>
        <time>2019-06-19 17:37:26,467</time>
      </trkpt>
      <trkpt lat="43.20719" lon="5.42027">
        <ele>186.6944</ele>
        <time>2019-06-19 17:37:49,639</time>
      </trkpt>
      <trkpt lat="43.20719" lon="5.42027">
        <ele>186.51099</ele>
        <time>2019-06-19 17:38:13,456</time>
      </trkpt>
      <trkpt lat="43.20719" lon="5.42027">
        <ele>186.49261</ele>
        <time>2019-06-19 17:38:37,703</time>
      </trkpt>
      <trkpt lat="43.20719" lon="5.42027">
        <ele>186.53638</ele>
        <time>2019-06-19 17:39:03,459</time>
      </trkpt>
      <trkpt lat="43.20718" lon="5.42027">
        <ele>186.75513</ele>
        <time>2019-06-19 17:39:29,480</time>
      </trkpt>
      <trkpt lat="43.20718" lon="5.42028">
        <ele>186.86029</ele>
        <time>2019-06-19 17:39:56,468</time>
      </trkpt>
      <trkpt lat="43.20718" lon="5.42028">
        <ele>186.86804</ele>
        <time>2019-06-19 17:40:45,723</time>
      </trkpt>
      <trkpt lat="43.20719" lon="5.42028">
        <ele>186.8346</ele>
        <time>2019-06-19 17:41:10,496</time>
      </trkpt>
      <trkpt lat="43.20719" lon="5.42028">
        <ele>187.04639</ele>
        <time>2019-06-19 17:41:55,467</time>
      </trkpt>
      <trkpt lat="43.20719" lon="5.42028">
        <ele>187.23694</ele>
        <time>2019-06-19 17:42:54,481</time>
      </trkpt>
      <trkpt lat="43.20719" lon="5.42028">
        <ele>187.22278</ele>
        <time>2019-06-19 17:43:20,460</time>
      </trkpt>
      <trkpt lat="43.20719" lon="5.42028">
        <ele>187.17114</ele>
        <time>2019-06-19 17:43:45,615</time>
      </trkpt>
      <trkpt lat="43.20719" lon="5.42028">
        <ele>187.18713</ele>
        <time>2019-06-19 17:44:16,467</time>
      </trkpt>
      <trkpt lat="43.20719" lon="5.42028">
        <ele>187.17932</ele>
        <time>2019-06-19 17:44:42,457</time>
      </trkpt>
      <trkpt lat="43.20719" lon="5.42028">
        <ele>187.17346</ele>
        <time>2019-06-19 17:45:10,495</time>
      </trkpt>
      <trkpt lat="43.20719" lon="5.42028">
        <ele>187.1886</ele>
        <time>2019-06-19 17:45:36,716</time>
      </trkpt>
      <trkpt lat="43.20719" lon="5.42028">
        <ele>187.22064</ele>
        <time>2019-06-19 17:46:02,467</time>
      </trkpt>
      <trkpt lat="43.20719" lon="5.42028">
        <ele>187.18958</ele>
        <time>2019-06-19 17:46:27,466</time>
      </trkpt>
      <trkpt lat="43.20719" lon="5.42028">
        <ele>187.19727</ele>
        <time>2019-06-19 17:46:51,471</time>
      </trkpt>
      <trkpt lat="43.20719" lon="5.42028">
        <ele>187.16858</ele>
        <time>2019-06-19 17:47:17,467</time>
      </trkpt>
      <trkpt lat="43.20719" lon="5.42028">
        <ele>187.15717</ele>
        <time>2019-06-19 17:47:39,464</time>
      </trkpt>
      <trkpt lat="43.20719" lon="5.42028">
        <ele>187.13904</ele>
        <time>2019-06-19 17:48:03,729</time>
      </trkpt>
      <trkpt lat="43.20719" lon="5.42028">
        <ele>186.82648</ele>
        <time>2019-06-19 17:48:26,475</time>
      </trkpt>
      <trkpt lat="43.20719" lon="5.42028">
        <ele>186.59973</ele>
        <time>2019-06-19 17:48:27,464</time>
      </trkpt>
      <trkpt lat="43.2072" lon="5.42028">
        <ele>186.13892</ele>
        <time>2019-06-19 17:48:40,736</time>
      </trkpt>
      <trkpt lat="43.2072" lon="5.42027">
        <ele>184.58539</ele>
        <time>2019-06-19 17:48:42,472</time>
      </trkpt>
      <trkpt lat="43.2072" lon="5.42027">
        <ele>184.4701</ele>
        <time>2019-06-19 17:48:43,470</time>
      </trkpt>
      <trkpt lat="43.2072" lon="5.42026">
        <ele>184.51099</ele>
        <time>2019-06-19 17:48:44,457</time>
      </trkpt>
      <trkpt lat="43.2072" lon="5.42026">
        <ele>184.23419</ele>
        <time>2019-06-19 17:48:46,473</time>
      </trkpt>
      <trkpt lat="43.2072" lon="5.42026">
        <ele>184.12396</ele>
        <time>2019-06-19 17:48:47,667</time>
      </trkpt>
      <trkpt lat="43.2072" lon="5.42025">
        <ele>183.87958</ele>
        <time>2019-06-19 17:48:49,466</time>
      </trkpt>
      <trkpt lat="43.20721" lon="5.42025">
        <ele>184.12634</ele>
        <time>2019-06-19 17:48:50,657</time>
      </trkpt>
      <trkpt lat="43.20721" lon="5.42025">
        <ele>184.54803</ele>
        <time>2019-06-19 17:48:52,474</time>
      </trkpt>
      <trkpt lat="43.20721" lon="5.42026">
        <ele>184.36322</ele>
        <time>2019-06-19 17:48:55,468</time>
      </trkpt>
      <trkpt lat="43.20721" lon="5.42025">
        <ele>183.93445</ele>
        <time>2019-06-19 17:48:56,471</time>
      </trkpt>
      <trkpt lat="43.20722" lon="5.42025">
        <ele>183.79034</ele>
        <time>2019-06-19 17:48:57,462</time>
      </trkpt>
      <trkpt lat="43.20724" lon="5.42025">
        <ele>181.97113</ele>
        <time>2019-06-19 17:49:01,480</time>
      </trkpt>
      <trkpt lat="43.20724" lon="5.42023">
        <ele>181.6034</ele>
        <time>2019-06-19 17:49:05,482</time>
      </trkpt>
      <trkpt lat="43.20725" lon="5.42023">
        <ele>181.17334</ele>
        <time>2019-06-19 17:49:07,470</time>
      </trkpt>
      <trkpt lat="43.20725" lon="5.42024">
        <ele>182.31299</ele>
        <time>2019-06-19 17:49:08,487</time>
      </trkpt>
      <trkpt lat="43.20726" lon="5.42026">
        <ele>182.203</ele>
        <time>2019-06-19 17:49:12,481</time>
      </trkpt>
      <trkpt lat="43.20725" lon="5.42026">
        <ele>182.97229</ele>
        <time>2019-06-19 17:49:14,496</time>
      </trkpt>
      <trkpt lat="43.20725" lon="5.42027">
        <ele>182.55133</ele>
        <time>2019-06-19 17:49:15,477</time>
      </trkpt>
      <trkpt lat="43.20725" lon="5.42028">
        <ele>184.16833</ele>
        <time>2019-06-19 17:49:21,466</time>
      </trkpt>
      <trkpt lat="43.20725" lon="5.42029">
        <ele>184.80078</ele>
        <time>2019-06-19 17:49:22,462</time>
      </trkpt>
      <trkpt lat="43.20725" lon="5.4203">
        <ele>185.12732</ele>
        <time>2019-06-19 17:49:23,489</time>
      </trkpt>
      <trkpt lat="43.20726" lon="5.42031">
        <ele>184.89917</ele>
        <time>2019-06-19 17:49:25,477</time>
      </trkpt>
      <trkpt lat="43.20727" lon="5.42032">
        <ele>185.17377</ele>
        <time>2019-06-19 17:49:26,474</time>
      </trkpt>
      <trkpt lat="43.20727" lon="5.42032">
        <ele>185.04858</ele>
        <time>2019-06-19 17:49:27,484</time>
      </trkpt>
      <trkpt lat="43.20727" lon="5.42033">
        <ele>191.84613</ele>
        <time>2019-06-19 17:49:30,336</time>
      </trkpt>
      <trkpt lat="43.20728" lon="5.42035">
        <ele>189.67981</ele>
        <time>2019-06-19 17:49:31,629</time>
      </trkpt>
      <trkpt lat="43.20729" lon="5.42035">
        <ele>187.94318</ele>
        <time>2019-06-19 17:49:33,466</time>
      </trkpt>
      <trkpt lat="43.2073" lon="5.42035">
        <ele>185.51166</ele>
        <time>2019-06-19 17:49:39,471</time>
      </trkpt>
      <trkpt lat="43.20731" lon="5.42036">
        <ele>184.40656</ele>
        <time>2019-06-19 17:49:42,458</time>
      </trkpt>
      <trkpt lat="43.20732" lon="5.42036">
        <ele>183.87854</ele>
        <time>2019-06-19 17:49:45,463</time>
      </trkpt>
      <trkpt lat="43.20731" lon="5.42036">
        <ele>183.92389</ele>
        <time>2019-06-19 17:49:46,466</time>
      </trkpt>
      <trkpt lat="43.20731" lon="5.42037">
        <ele>182.50623</ele>
        <time>2019-06-19 17:49:47,753</time>
      </trkpt>
      <trkpt lat="43.20732" lon="5.42037">
        <ele>181.08594</ele>
        <time>2019-06-19 17:49:49,492</time>
      </trkpt>
      <trkpt lat="43.20732" lon="5.42037">
        <ele>181.12128</ele>
        <time>2019-06-19 17:49:50,474</time>
      </trkpt>
      <trkpt lat="43.20732" lon="5.42037">
        <ele>180.45581</ele>
        <time>2019-06-19 17:49:51,639</time>
      </trkpt>
      <trkpt lat="43.20733" lon="5.42038">
        <ele>180.33838</ele>
        <time>2019-06-19 17:49:53,465</time>
      </trkpt>
      <trkpt lat="43.20733" lon="5.42039">
        <ele>178.19897</ele>
        <time>2019-06-19 17:49:54,699</time>
      </trkpt>
      <trkpt lat="43.20736" lon="5.42039">
        <ele>176.36285</ele>
        <time>2019-06-19 17:49:56,463</time>
      </trkpt>
      <trkpt lat="43.20736" lon="5.4204">
        <ele>177.62292</ele>
        <time>2019-06-19 17:50:01,464</time>
      </trkpt>
      <trkpt lat="43.20735" lon="5.42041">
        <ele>179.05463</ele>
        <time>2019-06-19 17:50:02,728</time>
      </trkpt>
      <trkpt lat="43.20733" lon="5.42043">
        <ele>180.16992</ele>
        <time>2019-06-19 17:50:05,470</time>
      </trkpt>
      <trkpt lat="43.20733" lon="5.4205">
        <ele>177.59851</ele>
        <time>2019-06-19 17:50:14,726</time>
      </trkpt>
      <trkpt lat="43.20733" lon="5.42051">
        <ele>177.27771</ele>
        <time>2019-06-19 17:50:16,467</time>
      </trkpt>
      <trkpt lat="43.20732" lon="5.42051">
        <ele>177.65173</ele>
        <time>2019-06-19 17:50:18,458</time>
      </trkpt>
      <trkpt lat="43.20732" lon="5.42051">
        <ele>177.65393</ele>
        <time>2019-06-19 17:50:29,700</time>
      </trkpt>
      <trkpt lat="43.20732" lon="5.42051">
        <ele>176.93457</ele>
        <time>2019-06-19 17:50:31,462</time>
      </trkpt>
      <trkpt lat="43.20731" lon="5.42051">
        <ele>174.61548</ele>
        <time>2019-06-19 17:50:45,464</time>
      </trkpt>
      <trkpt lat="43.20731" lon="5.42052">
        <ele>174.56372</ele>
        <time>2019-06-19 17:50:46,662</time>
      </trkpt>
      <trkpt lat="43.20729" lon="5.4205">
        <ele>173.0354</ele>
        <time>2019-06-19 17:50:59,481</time>
      </trkpt>
      <trkpt lat="43.20729" lon="5.4205">
        <ele>173.15588</ele>
        <time>2019-06-19 17:51:00,462</time>
      </trkpt>
      <trkpt lat="43.20729" lon="5.4205">
        <ele>172.48633</ele>
        <time>2019-06-19 17:51:01,460</time>
      </trkpt>
      <trkpt lat="43.20728" lon="5.4205">
        <ele>170.75891</ele>
        <time>2019-06-19 17:51:06,466</time>
      </trkpt>
      <trkpt lat="43.20728" lon="5.42051">
        <ele>170.99957</ele>
        <time>2019-06-19 17:51:08,722</time>
      </trkpt>
      <trkpt lat="43.20728" lon="5.42052">
        <ele>172.1571</ele>
        <time>2019-06-19 17:51:11,473</time>
      </trkpt>
      <trkpt lat="43.20728" lon="5.42053">
        <ele>171.90613</ele>
        <time>2019-06-19 17:51:12,752</time>
      </trkpt>
      <trkpt lat="43.20728" lon="5.42056">
        <ele>174.55762</ele>
        <time>2019-06-19 17:51:27,472</time>
      </trkpt>
      <trkpt lat="43.20727" lon="5.42057">
        <ele>175.01715</ele>
        <time>2019-06-19 17:51:28,605</time>
      </trkpt>
      <trkpt lat="43.20726" lon="5.42058">
        <ele>173.88847</ele>
        <time>2019-06-19 17:51:30,468</time>
      </trkpt>
      <trkpt lat="43.20727" lon="5.42061">
        <ele>175.11684</ele>
        <time>2019-06-19 17:51:42,731</time>
      </trkpt>
      <trkpt lat="43.20728" lon="5.4206">
        <ele>172.2005</ele>
        <time>2019-06-19 17:51:44,481</time>
      </trkpt>
      <trkpt lat="43.20728" lon="5.4206">
        <ele>172.50208</ele>
        <time>2019-06-19 17:51:45,475</time>
      </trkpt>
      <trkpt lat="43.20727" lon="5.42061">
        <ele>172.75702</ele>
        <time>2019-06-19 17:51:46,689</time>
      </trkpt>
      <trkpt lat="43.20727" lon="5.42062">
        <ele>172.40979</ele>
        <time>2019-06-19 17:51:48,466</time>
      </trkpt>
      <trkpt lat="43.20726" lon="5.42062">
        <ele>170.58868</ele>
        <time>2019-06-19 17:51:54,486</time>
      </trkpt>
      <trkpt lat="43.20725" lon="5.42061">
        <ele>169.40613</ele>
        <time>2019-06-19 17:52:03,468</time>
      </trkpt>
      <trkpt lat="43.20725" lon="5.42062">
        <ele>169.4726</ele>
        <time>2019-06-19 17:52:04,728</time>
      </trkpt>
      <trkpt lat="43.20724" lon="5.42062">
        <ele>169.56366</ele>
        <time>2019-06-19 17:52:08,752</time>
      </trkpt>
      <trkpt lat="43.20723" lon="5.42063">
        <ele>170.35016</ele>
        <time>2019-06-19 17:52:11,465</time>
      </trkpt>
      <trkpt lat="43.20721" lon="5.42064">
        <ele>169.61224</ele>
        <time>2019-06-19 17:52:16,465</time>
      </trkpt>
      <trkpt lat="43.20721" lon="5.42065">
        <ele>170.07825</ele>
        <time>2019-06-19 17:52:19,466</time>
      </trkpt>
      <trkpt lat="43.20721" lon="5.42066">
        <ele>169.58386</ele>
        <time>2019-06-19 17:52:20,482</time>
      </trkpt>
      <trkpt lat="43.2072" lon="5.42066">
        <ele>170.31134</ele>
        <time>2019-06-19 17:52:21,480</time>
      </trkpt>
      <trkpt lat="43.2072" lon="5.42067">
        <ele>169.62952</ele>
        <time>2019-06-19 17:52:23,476</time>
      </trkpt>
      <trkpt lat="43.2072" lon="5.42067">
        <ele>169.1452</ele>
        <time>2019-06-19 17:52:25,474</time>
      </trkpt>
      <trkpt lat="43.2072" lon="5.42068">
        <ele>169.39752</ele>
        <time>2019-06-19 17:52:26,498</time>
      </trkpt>
      <trkpt lat="43.20719" lon="5.42068">
        <ele>169.14587</ele>
        <time>2019-06-19 17:52:27,478</time>
      </trkpt>
      <trkpt lat="43.20719" lon="5.42069">
        <ele>168.39679</ele>
        <time>2019-06-19 17:52:30,463</time>
      </trkpt>
      <trkpt lat="43.20719" lon="5.42069">
        <ele>167.78467</ele>
        <time>2019-06-19 17:52:31,455</time>
      </trkpt>
      <trkpt lat="43.2072" lon="5.42071">
        <ele>165.83276</ele>
        <time>2019-06-19 17:52:39,632</time>
      </trkpt>
      <trkpt lat="43.20721" lon="5.42072">
        <ele>163.89221</ele>
        <time>2019-06-19 17:52:55,478</time>
      </trkpt>
      <trkpt lat="43.20721" lon="5.42072">
        <ele>164.05957</ele>
        <time>2019-06-19 17:52:56,485</time>
      </trkpt>
      <trkpt lat="43.20721" lon="5.42073">
        <ele>164.43054</ele>
        <time>2019-06-19 17:53:00,473</time>
      </trkpt>
      <trkpt lat="43.20722" lon="5.42073">
        <ele>164.36841</ele>
        <time>2019-06-19 17:53:01,468</time>
      </trkpt>
      <trkpt lat="43.20722" lon="5.42073">
        <ele>163.32153</ele>
        <time>2019-06-19 17:53:02,724</time>
      </trkpt>
      <trkpt lat="43.20722" lon="5.42074">
        <ele>163.3291</ele>
        <time>2019-06-19 17:53:04,468</time>
      </trkpt>
      <trkpt lat="43.20724" lon="5.42074">
        <ele>161.0957</ele>
        <time>2019-06-19 17:53:06,744</time>
      </trkpt>
      <trkpt lat="43.20724" lon="5.42074">
        <ele>160.67639</ele>
        <time>2019-06-19 17:53:08,480</time>
      </trkpt>
      <trkpt lat="43.20724" lon="5.42074">
        <ele>160.70398</ele>
        <time>2019-06-19 17:53:09,472</time>
      </trkpt>
      <trkpt lat="43.20724" lon="5.42074">
        <ele>159.58655</ele>
        <time>2019-06-19 17:53:20,469</time>
      </trkpt>
      <trkpt lat="43.20725" lon="5.42074">
        <ele>159.73761</ele>
        <time>2019-06-19 17:53:21,478</time>
      </trkpt>
      <trkpt lat="43.20725" lon="5.42075">
        <ele>159.40546</ele>
        <time>2019-06-19 17:53:29,757</time>
      </trkpt>
      <trkpt lat="43.20725" lon="5.42076">
        <ele>160.54877</ele>
        <time>2019-06-19 17:53:31,486</time>
      </trkpt>
      <trkpt lat="43.20726" lon="5.42077">
        <ele>158.88037</ele>
        <time>2019-06-19 17:53:40,467</time>
      </trkpt>
      <trkpt lat="43.20723" lon="5.42079">
        <ele>157.41772</ele>
        <time>2019-06-19 17:53:46,472</time>
      </trkpt>
      <trkpt lat="43.20722" lon="5.42079">
        <ele>157.72144</ele>
        <time>2019-06-19 17:53:47,724</time>
      </trkpt>
      <trkpt lat="43.20721" lon="5.4208">
        <ele>157.47546</ele>
        <time>2019-06-19 17:53:49,478</time>
      </trkpt>
      <trkpt lat="43.2072" lon="5.4208">
        <ele>159.62097</ele>
        <time>2019-06-19 17:53:56,474</time>
      </trkpt>
      <trkpt lat="43.2072" lon="5.4208">
        <ele>159.44458</ele>
        <time>2019-06-19 17:53:57,465</time>
      </trkpt>
      <trkpt lat="43.20719" lon="5.42082">
        <ele>159.84418</ele>
        <time>2019-06-19 17:54:00,471</time>
      </trkpt>
      <trkpt lat="43.20718" lon="5.42083">
        <ele>158.40625</ele>
        <time>2019-06-19 17:54:04,703</time>
      </trkpt>
      <trkpt lat="43.20719" lon="5.42083">
        <ele>158.04224</ele>
        <time>2019-06-19 17:54:07,745</time>
      </trkpt>
      <trkpt lat="43.20718" lon="5.42084">
        <ele>156.96814</ele>
        <time>2019-06-19 17:54:09,473</time>
      </trkpt>
      <trkpt lat="43.20718" lon="5.42084">
        <ele>157.23035</ele>
        <time>2019-06-19 17:54:10,475</time>
      </trkpt>
      <trkpt lat="43.20717" lon="5.42085">
        <ele>159.84418</ele>
        <time>2019-06-19 17:54:11,468</time>
      </trkpt>
      <trkpt lat="43.20719" lon="5.42085">
        <ele>156.3017</ele>
        <time>2019-06-19 17:54:19,459</time>
      </trkpt>
      <trkpt lat="43.20719" lon="5.42084">
        <ele>156.50916</ele>
        <time>2019-06-19 17:54:21,462</time>
      </trkpt>
      <trkpt lat="43.2072" lon="5.42085">
        <ele>159.943</ele>
        <time>2019-06-19 17:54:22,460</time>
      </trkpt>
      <trkpt lat="43.2072" lon="5.42085">
        <ele>158.85364</ele>
        <time>2019-06-19 17:54:23,463</time>
      </trkpt>
      <trkpt lat="43.2072" lon="5.42085">
        <ele>159.19006</ele>
        <time>2019-06-19 17:54:24,459</time>
      </trkpt>
      <trkpt lat="43.2072" lon="5.42085">
        <ele>159.09558</ele>
        <time>2019-06-19 17:54:27,661</time>
      </trkpt>
      <trkpt lat="43.2072" lon="5.42086">
        <ele>158.89093</ele>
        <time>2019-06-19 17:54:29,462</time>
      </trkpt>
      <trkpt lat="43.2072" lon="5.42087">
        <ele>158.93738</ele>
        <time>2019-06-19 17:54:30,661</time>
      </trkpt>
      <trkpt lat="43.2072" lon="5.42088">
        <ele>158.45648</ele>
        <time>2019-06-19 17:54:32,464</time>
      </trkpt>
      <trkpt lat="43.2072" lon="5.42088">
        <ele>158.70898</ele>
        <time>2019-06-19 17:54:33,633</time>
      </trkpt>
      <trkpt lat="43.20721" lon="5.4209">
        <ele>201.5841</ele>
        <time>2019-06-19 17:54:38,460</time>
      </trkpt>
      <trkpt lat="43.20721" lon="5.4209">
        <ele>192.70795</ele>
        <time>2019-06-19 17:54:39,677</time>
      </trkpt>
      <trkpt lat="43.2072" lon="5.4209">
        <ele>179.39282</ele>
        <time>2019-06-19 17:54:41,465</time>
      </trkpt>
      <trkpt lat="43.2072" lon="5.42089">
        <ele>159.97699</ele>
        <time>2019-06-19 17:54:45,469</time>
      </trkpt>
      <trkpt lat="43.20722" lon="5.42089">
        <ele>159.71796</ele>
        <time>2019-06-19 17:54:47,475</time>
      </trkpt>
      <trkpt lat="43.20722" lon="5.4209">
        <ele>159.50574</ele>
        <time>2019-06-19 17:54:48,471</time>
      </trkpt>
      <trkpt lat="43.20723" lon="5.42091">
        <ele>157.93292</ele>
        <time>2019-06-19 17:54:50,462</time>
      </trkpt>
      <trkpt lat="43.20723" lon="5.42091">
        <ele>157.45691</ele>
        <time>2019-06-19 17:54:51,482</time>
      </trkpt>
      <trkpt lat="43.20723" lon="5.42091">
        <ele>157.1477</ele>
        <time>2019-06-19 17:54:52,472</time>
      </trkpt>
      <trkpt lat="43.20723" lon="5.42091">
        <ele>156.73761</ele>
        <time>2019-06-19 17:54:53,459</time>
      </trkpt>
      <trkpt lat="43.20724" lon="5.42092">
        <ele>156.88147</ele>
        <time>2019-06-19 17:54:55,466</time>
      </trkpt>
      <trkpt lat="43.20723" lon="5.42093">
        <ele>157.50342</ele>
        <time>2019-06-19 17:54:58,468</time>
      </trkpt>
      <trkpt lat="43.20721" lon="5.42095">
        <ele>151.38757</ele>
        <time>2019-06-19 17:55:01,470</time>
      </trkpt>
      <trkpt lat="43.2072" lon="5.42095">
        <ele>151.21631</ele>
        <time>2019-06-19 17:55:03,475</time>
      </trkpt>
      <trkpt lat="43.20719" lon="5.42095">
        <ele>150.27985</ele>
        <time>2019-06-19 17:55:05,465</time>
      </trkpt>
      <trkpt lat="43.20719" lon="5.42096">
        <ele>150.2138</ele>
        <time>2019-06-19 17:55:06,467</time>
      </trkpt>
      <trkpt lat="43.20719" lon="5.42096">
        <ele>149.96826</ele>
        <time>2019-06-19 17:55:07,458</time>
      </trkpt>
      <trkpt lat="43.20719" lon="5.42096">
        <ele>153.28442</ele>
        <time>2019-06-19 17:55:08,462</time>
      </trkpt>
      <trkpt lat="43.20719" lon="5.42096">
        <ele>148.52704</ele>
        <time>2019-06-19 17:55:10,474</time>
      </trkpt>
      <trkpt lat="43.20719" lon="5.42096">
        <ele>148.55951</ele>
        <time>2019-06-19 17:55:11,473</time>
      </trkpt>
      <trkpt lat="43.2072" lon="5.42099">
        <ele>147.85962</ele>
        <time>2019-06-19 17:55:16,479</time>
      </trkpt>
      <trkpt lat="43.2072" lon="5.42099">
        <ele>147.3468</ele>
        <time>2019-06-19 17:55:20,480</time>
      </trkpt>
      <trkpt lat="43.20721" lon="5.421">
        <ele>145.90997</ele>
        <time>2019-06-19 17:55:23,459</time>
      </trkpt>
      <trkpt lat="43.20721" lon="5.421">
        <ele>145.28564</ele>
        <time>2019-06-19 17:55:24,474</time>
      </trkpt>
      <trkpt lat="43.2072" lon="5.421">
        <ele>145.45538</ele>
        <time>2019-06-19 17:55:26,481</time>
      </trkpt>
      <trkpt lat="43.20722" lon="5.42101">
        <ele>147.45312</ele>
        <time>2019-06-19 17:55:32,458</time>
      </trkpt>
      <trkpt lat="43.20725" lon="5.42103">
        <ele>146.47632</ele>
        <time>2019-06-19 17:55:38,285</time>
      </trkpt>
      <trkpt lat="43.20725" lon="5.42103">
        <ele>184.81952</ele>
        <time>2019-06-19 17:55:39,290</time>
      </trkpt>
      <trkpt lat="43.20725" lon="5.42104">
        <ele>174.49933</ele>
        <time>2019-06-19 17:55:40,287</time>
      </trkpt>
      <trkpt lat="43.20725" lon="5.42105">
        <ele>153.61584</ele>
        <time>2019-06-19 17:55:49,274</time>
      </trkpt>
      <trkpt lat="43.20726" lon="5.42105">
        <ele>153.18414</ele>
        <time>2019-06-19 17:55:51,276</time>
      </trkpt>
      <trkpt lat="43.20725" lon="5.42105">
        <ele>153.10461</ele>
        <time>2019-06-19 17:55:52,273</time>
      </trkpt>
      <trkpt lat="43.20725" lon="5.42106">
        <ele>152.83112</ele>
        <time>2019-06-19 17:55:54,273</time>
      </trkpt>
      <trkpt lat="43.20726" lon="5.42107">
        <ele>151.10559</ele>
        <time>2019-06-19 17:55:57,274</time>
      </trkpt>
      <trkpt lat="43.20728" lon="5.42108">
        <ele>149.81793</ele>
        <time>2019-06-19 17:56:00,278</time>
      </trkpt>
      <trkpt lat="43.20729" lon="5.42109">
        <ele>142.93365</ele>
        <time>2019-06-19 17:56:06,295</time>
      </trkpt>
      <trkpt lat="43.20729" lon="5.42109">
        <ele>143.40479</ele>
        <time>2019-06-19 17:56:07,524</time>
      </trkpt>
      <trkpt lat="43.2073" lon="5.42108">
        <ele>140.69763</ele>
        <time>2019-06-19 17:56:31,281</time>
      </trkpt>
      <trkpt lat="43.2073" lon="5.42109">
        <ele>140.84515</ele>
        <time>2019-06-19 17:56:32,277</time>
      </trkpt>
      <trkpt lat="43.20731" lon="5.42109">
        <ele>139.28064</ele>
        <time>2019-06-19 17:56:33,317</time>
      </trkpt>
      <trkpt lat="43.20732" lon="5.42108">
        <ele>139.07507</ele>
        <time>2019-06-19 17:56:35,341</time>
      </trkpt>
      <trkpt lat="43.20732" lon="5.42109">
        <ele>139.26233</ele>
        <time>2019-06-19 17:56:36,274</time>
      </trkpt>
      <trkpt lat="43.20735" lon="5.4211">
        <ele>138.5528</ele>
        <time>2019-06-19 17:56:45,279</time>
      </trkpt>
      <trkpt lat="43.20735" lon="5.4211">
        <ele>137.02612</ele>
        <time>2019-06-19 17:56:46,508</time>
      </trkpt>
      <trkpt lat="43.20736" lon="5.4211">
        <ele>133.23773</ele>
        <time>2019-06-19 17:56:52,274</time>
      </trkpt>
      <trkpt lat="43.20736" lon="5.42111">
        <ele>133.98145</ele>
        <time>2019-06-19 17:56:53,460</time>
      </trkpt>
      <trkpt lat="43.20738" lon="5.42112">
        <ele>133.0354</ele>
        <time>2019-06-19 17:56:58,272</time>
      </trkpt>
      <trkpt lat="43.20738" lon="5.42111">
        <ele>137.02612</ele>
        <time>2019-06-19 17:56:59,275</time>
      </trkpt>
      <trkpt lat="43.20739" lon="5.42111">
        <ele>133.23743</ele>
        <time>2019-06-19 17:57:01,358</time>
      </trkpt>
      <trkpt lat="43.2074" lon="5.42111">
        <ele>134.25183</ele>
        <time>2019-06-19 17:57:02,266</time>
      </trkpt>
      <trkpt lat="43.20741" lon="5.42111">
        <ele>133.38867</ele>
        <time>2019-06-19 17:57:06,510</time>
      </trkpt>
      <trkpt lat="43.20743" lon="5.42111">
        <ele>130.26147</ele>
        <time>2019-06-19 17:57:14,275</time>
      </trkpt>
      <trkpt lat="43.20743" lon="5.42111">
        <ele>130.69147</ele>
        <time>2019-06-19 17:57:15,460</time>
      </trkpt>
      <trkpt lat="43.20744" lon="5.42111">
        <ele>129.83887</ele>
        <time>2019-06-19 17:57:17,282</time>
      </trkpt>
      <trkpt lat="43.20744" lon="5.42111">
        <ele>129.07434</ele>
        <time>2019-06-19 17:57:18,508</time>
      </trkpt>
      <trkpt lat="43.20746" lon="5.42112">
        <ele>130.26147</ele>
        <time>2019-06-19 17:57:27,276</time>
      </trkpt>
      <trkpt lat="43.20749" lon="5.42113">
        <ele>129.6991</ele>
        <time>2019-06-19 17:57:30,273</time>
      </trkpt>
      <trkpt lat="43.2075" lon="5.42113">
        <ele>126.7962</ele>
        <time>2019-06-19 17:57:34,489</time>
      </trkpt>
      <trkpt lat="43.2075" lon="5.42114">
        <ele>126.85596</ele>
        <time>2019-06-19 17:57:36,285</time>
      </trkpt>
      <trkpt lat="43.20751" lon="5.42114">
        <ele>124.99719</ele>
        <time>2019-06-19 17:57:43,448</time>
      </trkpt>
      <trkpt lat="43.20753" lon="5.42115">
        <ele>124.64996</ele>
        <time>2019-06-19 17:57:45,277</time>
      </trkpt>
      <trkpt lat="43.20752" lon="5.42115">
        <ele>117.61963</ele>
        <time>2019-06-19 17:57:50,352</time>
      </trkpt>
      <trkpt lat="43.20752" lon="5.42114">
        <ele>117.63513</ele>
        <time>2019-06-19 17:57:51,283</time>
      </trkpt>
      <trkpt lat="43.20752" lon="5.42115">
        <ele>116.45087</ele>
        <time>2019-06-19 17:57:54,281</time>
      </trkpt>
      <trkpt lat="43.20752" lon="5.42116">
        <ele>124.99719</ele>
        <time>2019-06-19 17:57:55,481</time>
      </trkpt>
      <trkpt lat="43.20751" lon="5.42119">
        <ele>116.44092</ele>
        <time>2019-06-19 17:57:57,273</time>
      </trkpt>
      <trkpt lat="43.2075" lon="5.42121">
        <ele>117.167725</ele>
        <time>2019-06-19 17:58:00,282</time>
      </trkpt>
      <trkpt lat="43.20749" lon="5.42121">
        <ele>117.41852</ele>
        <time>2019-06-19 17:58:01,470</time>
      </trkpt>
      <trkpt lat="43.20749" lon="5.42121">
        <ele>116.97168</ele>
        <time>2019-06-19 17:58:03,278</time>
      </trkpt>
      <trkpt lat="43.20747" lon="5.42123">
        <ele>117.69281</ele>
        <time>2019-06-19 17:58:09,283</time>
      </trkpt>
      <trkpt lat="43.20747" lon="5.42124">
        <ele>116.44092</ele>
        <time>2019-06-19 17:58:10,488</time>
      </trkpt>
      <trkpt lat="43.20747" lon="5.42126">
        <ele>114.99884</ele>
        <time>2019-06-19 17:58:12,275</time>
      </trkpt>
      <trkpt lat="43.20748" lon="5.42128">
        <ele>115.003235</ele>
        <time>2019-06-19 17:58:13,479</time>
      </trkpt>
      <trkpt lat="43.20749" lon="5.42131">
        <ele>114.22815</ele>
        <time>2019-06-19 17:58:15,275</time>
      </trkpt>
      <trkpt lat="43.2075" lon="5.42132">
        <ele>113.21704</ele>
        <time>2019-06-19 17:58:16,539</time>
      </trkpt>
      <trkpt lat="43.20752" lon="5.42133">
        <ele>110.39819</ele>
        <time>2019-06-19 17:58:18,288</time>
      </trkpt>
      <trkpt lat="43.20753" lon="5.42133">
        <ele>109.33838</ele>
        <time>2019-06-19 17:58:19,278</time>
      </trkpt>
      <trkpt lat="43.20753" lon="5.42132">
        <ele>108.09387</ele>
        <time>2019-06-19 17:58:21,284</time>
      </trkpt>
      <trkpt lat="43.20754" lon="5.42131">
        <ele>108.42401</ele>
        <time>2019-06-19 17:58:24,275</time>
      </trkpt>
      <trkpt lat="43.20754" lon="5.42132">
        <ele>108.223755</ele>
        <time>2019-06-19 17:58:25,527</time>
      </trkpt>
      <trkpt lat="43.20755" lon="5.42132">
        <ele>107.54193</ele>
        <time>2019-06-19 17:58:27,278</time>
      </trkpt>
      <trkpt lat="43.20758" lon="5.42132">
        <ele>108.42401</ele>
        <time>2019-06-19 17:58:36,266</time>
      </trkpt>
      <trkpt lat="43.20758" lon="5.42135">
        <ele>101.225586</ele>
        <time>2019-06-19 17:58:40,282</time>
      </trkpt>
      <trkpt lat="43.20762" lon="5.42134">
        <ele>99.70239</ele>
        <time>2019-06-19 17:58:48,538</time>
      </trkpt>
      <trkpt lat="43.20763" lon="5.42133">
        <ele>99.18921</ele>
        <time>2019-06-19 17:58:51,503</time>
      </trkpt>
      <trkpt lat="43.20763" lon="5.42136">
        <ele>99.48633</ele>
        <time>2019-06-19 17:58:57,294</time>
      </trkpt>
      <trkpt lat="43.20763" lon="5.42136">
        <ele>99.29901</ele>
        <time>2019-06-19 17:58:58,271</time>
      </trkpt>
      <trkpt lat="43.20764" lon="5.42136">
        <ele>99.643555</ele>
        <time>2019-06-19 17:58:59,404</time>
      </trkpt>
      <trkpt lat="43.20766" lon="5.42136">
        <ele>99.18921</ele>
        <time>2019-06-19 17:59:02,513</time>
      </trkpt>
      <trkpt lat="43.20767" lon="5.42136">
        <ele>99.30548</ele>
        <time>2019-06-19 17:59:04,266</time>
      </trkpt>
      <trkpt lat="43.20768" lon="5.42136">
        <ele>99.598755</ele>
        <time>2019-06-19 17:59:05,286</time>
      </trkpt>
      <trkpt lat="43.20768" lon="5.42136">
        <ele>99.3136</ele>
        <time>2019-06-19 17:59:06,389</time>
      </trkpt>
      <trkpt lat="43.20769" lon="5.42137">
        <ele>99.13153</ele>
        <time>2019-06-19 17:59:08,277</time>
      </trkpt>
      <trkpt lat="43.2077" lon="5.42137">
        <ele>100.21124</ele>
        <time>2019-06-19 17:59:09,276</time>
      </trkpt>
      <trkpt lat="43.20771" lon="5.4214">
        <ele>99.47186</ele>
        <time>2019-06-19 17:59:12,276</time>
      </trkpt>
      <trkpt lat="43.20772" lon="5.4214">
        <ele>98.59253</ele>
        <time>2019-06-19 17:59:13,508</time>
      </trkpt>
      <trkpt lat="43.20775" lon="5.42137">
        <ele>93.17786</ele>
        <time>2019-06-19 17:59:24,273</time>
      </trkpt>
      <trkpt lat="43.20776" lon="5.42136">
        <ele>93.36682</ele>
        <time>2019-06-19 17:59:25,481</time>
      </trkpt>
      <trkpt lat="43.20776" lon="5.42136">
        <ele>92.8114</ele>
        <time>2019-06-19 17:59:27,279</time>
      </trkpt>
      <trkpt lat="43.20781" lon="5.42134">
        <ele>90.72424</ele>
        <time>2019-06-19 17:59:36,272</time>
      </trkpt>
      <trkpt lat="43.20785" lon="5.42138">
        <ele>90.33264</ele>
        <time>2019-06-19 17:59:45,281</time>
      </trkpt>
      <trkpt lat="43.20791" lon="5.42137">
        <ele>88.92981</ele>
        <time>2019-06-19 17:59:57,290</time>
      </trkpt>
      <trkpt lat="43.20792" lon="5.42137">
        <ele>87.4281</ele>
        <time>2019-06-19 18:00:00,282</time>
      </trkpt>
      <trkpt lat="43.20792" lon="5.42138">
        <ele>86.32556</ele>
        <time>2019-06-19 18:00:02,492</time>
      </trkpt>
      <trkpt lat="43.20792" lon="5.42137">
        <ele>86.105774</ele>
        <time>2019-06-19 18:00:04,296</time>
      </trkpt>
      <trkpt lat="43.20793" lon="5.42139">
        <ele>82.56256</ele>
        <time>2019-06-19 18:00:10,280</time>
      </trkpt>
      <trkpt lat="43.20793" lon="5.42138">
        <ele>82.21692</ele>
        <time>2019-06-19 18:00:11,501</time>
      </trkpt>
      <trkpt lat="43.20792" lon="5.42139">
        <ele>87.4281</ele>
        <time>2019-06-19 18:00:13,275</time>
      </trkpt>
      <trkpt lat="43.20794" lon="5.4214">
        <ele>77.76929</ele>
        <time>2019-06-19 18:00:17,278</time>
      </trkpt>
      <trkpt lat="43.20798" lon="5.42138">
        <ele>75.20746</ele>
        <time>2019-06-19 18:00:22,289</time>
      </trkpt>
      <trkpt lat="43.20802" lon="5.42136">
        <ele>71.47711</ele>
        <time>2019-06-19 18:00:26,281</time>
      </trkpt>
      <trkpt lat="43.20804" lon="5.42131">
        <ele>71.20105</ele>
        <time>2019-06-19 18:00:31,273</time>
      </trkpt>
      <trkpt lat="43.20804" lon="5.42131">
        <ele>71.08978</ele>
        <time>2019-06-19 18:00:32,263</time>
      </trkpt>
      <trkpt lat="43.20805" lon="5.42131">
        <ele>71.87549</ele>
        <time>2019-06-19 18:00:35,277</time>
      </trkpt>
      <trkpt lat="43.20806" lon="5.42131">
        <ele>72.51233</ele>
        <time>2019-06-19 18:00:39,281</time>
      </trkpt>
      <trkpt lat="43.20809" lon="5.42133">
        <ele>73.54785</ele>
        <time>2019-06-19 18:00:43,511</time>
      </trkpt>
      <trkpt lat="43.2081" lon="5.42133">
        <ele>73.51898</ele>
        <time>2019-06-19 18:00:45,276</time>
      </trkpt>
      <trkpt lat="43.20814" lon="5.42133">
        <ele>74.66577</ele>
        <time>2019-06-19 18:00:49,496</time>
      </trkpt>
      <trkpt lat="43.20815" lon="5.42132">
        <ele>75.51587</ele>
        <time>2019-06-19 18:00:51,280</time>
      </trkpt>
      <trkpt lat="43.20816" lon="5.42132">
        <ele>72.51233</ele>
        <time>2019-06-19 18:00:52,498</time>
      </trkpt>
      <trkpt lat="43.20817" lon="5.42127">
        <ele>74.88794</ele>
        <time>2019-06-19 18:01:17,278</time>
      </trkpt>
      <trkpt lat="43.20817" lon="5.42127">
        <ele>76.523254</ele>
        <time>2019-06-19 18:01:44,355</time>
      </trkpt>
      <trkpt lat="43.20817" lon="5.42127">
        <ele>75.15491</ele>
        <time>2019-06-19 18:02:11,271</time>
      </trkpt>
      <trkpt lat="43.20817" lon="5.42126">
        <ele>83.47888</ele>
        <time>2019-06-19 18:02:30,281</time>
      </trkpt>
      <trkpt lat="43.20817" lon="5.42125">
        <ele>83.04077</ele>
        <time>2019-06-19 18:02:32,291</time>
      </trkpt>
      <trkpt lat="43.20817" lon="5.42124">
        <ele>81.86304</ele>
        <time>2019-06-19 18:02:33,479</time>
      </trkpt>
      <trkpt lat="43.20818" lon="5.42124">
        <ele>80.24396</ele>
        <time>2019-06-19 18:02:35,292</time>
      </trkpt>
      <trkpt lat="43.20818" lon="5.42124">
        <ele>79.691284</ele>
        <time>2019-06-19 18:02:36,533</time>
      </trkpt>
      <trkpt lat="43.20821" lon="5.42124">
        <ele>79.80481</ele>
        <time>2019-06-19 18:02:39,284</time>
      </trkpt>
      <trkpt lat="43.20825" lon="5.42124">
        <ele>78.84668</ele>
        <time>2019-06-19 18:02:43,487</time>
      </trkpt>
      <trkpt lat="43.20828" lon="5.42121">
        <ele>78.53363</ele>
        <time>2019-06-19 18:02:48,283</time>
      </trkpt>
      <trkpt lat="43.20832" lon="5.42118">
        <ele>78.45117</ele>
        <time>2019-06-19 18:02:54,277</time>
      </trkpt>
      <trkpt lat="43.20835" lon="5.42118">
        <ele>76.658936</ele>
        <time>2019-06-19 18:03:00,276</time>
      </trkpt>
      <trkpt lat="43.20839" lon="5.42117">
        <ele>76.1134</ele>
        <time>2019-06-19 18:03:09,285</time>
      </trkpt>
      <trkpt lat="43.20839" lon="5.42118">
        <ele>74.15576</ele>
        <time>2019-06-19 18:03:12,272</time>
      </trkpt>
      <trkpt lat="43.20839" lon="5.4212">
        <ele>76.50751</ele>
        <time>2019-06-19 18:03:15,283</time>
      </trkpt>
      <trkpt lat="43.20839" lon="5.42125">
        <ele>71.49518</ele>
        <time>2019-06-19 18:03:26,273</time>
      </trkpt>
      <trkpt lat="43.20837" lon="5.4213">
        <ele>72.40875</ele>
        <time>2019-06-19 18:03:35,276</time>
      </trkpt>
      <trkpt lat="43.20842" lon="5.42133">
        <ele>72.36322</ele>
        <time>2019-06-19 18:04:02,283</time>
      </trkpt>
      <trkpt lat="43.20842" lon="5.42134">
        <ele>70.56775</ele>
        <time>2019-06-19 18:04:08,272</time>
      </trkpt>
      <trkpt lat="43.20843" lon="5.42135">
        <ele>74.30957</ele>
        <time>2019-06-19 18:04:09,441</time>
      </trkpt>
      <trkpt lat="43.20843" lon="5.42136">
        <ele>74.710205</ele>
        <time>2019-06-19 18:04:11,284</time>
      </trkpt>
      <trkpt lat="43.20843" lon="5.42136">
        <ele>74.32385</ele>
        <time>2019-06-19 18:04:12,269</time>
      </trkpt>
      <trkpt lat="43.20845" lon="5.42131">
        <ele>70.32086</ele>
        <time>2019-06-19 18:04:28,283</time>
      </trkpt>
      <trkpt lat="43.20845" lon="5.4213">
        <ele>70.151306</ele>
        <time>2019-06-19 18:04:29,488</time>
      </trkpt>
      <trkpt lat="43.20847" lon="5.42129">
        <ele>70.50574</ele>
        <time>2019-06-19 18:04:33,273</time>
      </trkpt>
      <trkpt lat="43.20847" lon="5.42129">
        <ele>70.461426</ele>
        <time>2019-06-19 18:04:35,380</time>
      </trkpt>
      <trkpt lat="43.20848" lon="5.4213">
        <ele>70.53961</ele>
        <time>2019-06-19 18:04:40,268</time>
      </trkpt>
      <trkpt lat="43.20848" lon="5.4213">
        <ele>70.22992</ele>
        <time>2019-06-19 18:04:41,535</time>
      </trkpt>
      <trkpt lat="43.2085" lon="5.42135">
        <ele>68.817444</ele>
        <time>2019-06-19 18:04:46,498</time>
      </trkpt>
      <trkpt lat="43.20852" lon="5.42133">
        <ele>69.47125</ele>
        <time>2019-06-19 18:04:49,401</time>
      </trkpt>
      <trkpt lat="43.20854" lon="5.42133">
        <ele>68.60828</ele>
        <time>2019-06-19 18:04:52,563</time>
      </trkpt>
      <trkpt lat="43.20858" lon="5.42136">
        <ele>68.29352</ele>
        <time>2019-06-19 18:05:02,273</time>
      </trkpt>
      <trkpt lat="43.20858" lon="5.42136">
        <ele>67.883484</ele>
        <time>2019-06-19 18:05:03,278</time>
      </trkpt>
      <trkpt lat="43.20859" lon="5.42136">
        <ele>67.11536</ele>
        <time>2019-06-19 18:05:04,467</time>
      </trkpt>
      <trkpt lat="43.2086" lon="5.42139">
        <ele>66.368835</ele>
        <time>2019-06-19 18:05:09,276</time>
      </trkpt>
      <trkpt lat="43.20865" lon="5.4214">
        <ele>64.3512</ele>
        <time>2019-06-19 18:05:17,449</time>
      </trkpt>
      <trkpt lat="43.20866" lon="5.42141">
        <ele>63.91382</ele>
        <time>2019-06-19 18:05:19,277</time>
      </trkpt>
      <trkpt lat="43.20868" lon="5.42141">
        <ele>63.39392</ele>
        <time>2019-06-19 18:05:23,282</time>
      </trkpt>
      <trkpt lat="43.20869" lon="5.42142">
        <ele>62.680054</ele>
        <time>2019-06-19 18:05:26,279</time>
      </trkpt>
      <trkpt lat="43.20872" lon="5.42142">
        <ele>62.792603</ele>
        <time>2019-06-19 18:05:30,510</time>
      </trkpt>
      <trkpt lat="43.20874" lon="5.42141">
        <ele>62.923706</ele>
        <time>2019-06-19 18:05:32,274</time>
      </trkpt>
      <trkpt lat="43.20877" lon="5.42136">
        <ele>63.554443</ele>
        <time>2019-06-19 18:05:36,281</time>
      </trkpt>
      <trkpt lat="43.20882" lon="5.42132">
        <ele>63.01837</ele>
        <time>2019-06-19 18:05:43,329</time>
      </trkpt>
      <trkpt lat="43.20883" lon="5.42132">
        <ele>63.046997</ele>
        <time>2019-06-19 18:05:44,280</time>
      </trkpt>
      <trkpt lat="43.20883" lon="5.42132">
        <ele>62.932556</ele>
        <time>2019-06-19 18:05:45,277</time>
      </trkpt>
      <trkpt lat="43.20883" lon="5.42131">
        <ele>62.789246</ele>
        <time>2019-06-19 18:05:46,275</time>
      </trkpt>
      <trkpt lat="43.20884" lon="5.42131">
        <ele>61.34552</ele>
        <time>2019-06-19 18:05:49,271</time>
      </trkpt>
      <trkpt lat="43.20884" lon="5.42131">
        <ele>60.532166</ele>
        <time>2019-06-19 18:05:50,275</time>
      </trkpt>
      <trkpt lat="43.20884" lon="5.4213">
        <ele>63.37097</ele>
        <time>2019-06-19 18:05:51,281</time>
      </trkpt>
      <trkpt lat="43.20884" lon="5.4213">
        <ele>60.816223</ele>
        <time>2019-06-19 18:05:52,267</time>
      </trkpt>
      <trkpt lat="43.20884" lon="5.4213">
        <ele>60.67334</ele>
        <time>2019-06-19 18:05:53,270</time>
      </trkpt>
      <trkpt lat="43.20884" lon="5.42131">
        <ele>101.14191</ele>
        <time>2019-06-19 18:05:59,532</time>
      </trkpt>
      <trkpt lat="43.20884" lon="5.42132">
        <ele>83.352905</ele>
        <time>2019-06-19 18:06:01,281</time>
      </trkpt>
      <trkpt lat="43.20885" lon="5.42132">
        <ele>64.69928</ele>
        <time>2019-06-19 18:06:08,271</time>
      </trkpt>
      <trkpt lat="43.20886" lon="5.42133">
        <ele>63.468384</ele>
        <time>2019-06-19 18:06:11,267</time>
      </trkpt>
      <trkpt lat="43.20887" lon="5.42134">
        <ele>70.718506</ele>
        <time>2019-06-19 18:06:12,268</time>
      </trkpt>
      <trkpt lat="43.20888" lon="5.42134">
        <ele>62.89984</ele>
        <time>2019-06-19 18:06:13,273</time>
      </trkpt>
      <trkpt lat="43.20889" lon="5.42133">
        <ele>60.753235</ele>
        <time>2019-06-19 18:06:14,268</time>
      </trkpt>
      <trkpt lat="43.20891" lon="5.42132">
        <ele>59.533997</ele>
        <time>2019-06-19 18:06:17,277</time>
      </trkpt>
      <trkpt lat="43.20893" lon="5.4213">
        <ele>57.686584</ele>
        <time>2019-06-19 18:06:21,268</time>
      </trkpt>
      <trkpt lat="43.20895" lon="5.42129">
        <ele>57.52893</ele>
        <time>2019-06-19 18:06:23,268</time>
      </trkpt>
      <trkpt lat="43.20899" lon="5.42123">
        <ele>57.233154</ele>
        <time>2019-06-19 18:06:30,262</time>
      </trkpt>
      <trkpt lat="43.20903" lon="5.42116">
        <ele>55.63556</ele>
        <time>2019-06-19 18:06:41,271</time>
      </trkpt>
      <trkpt lat="43.20903" lon="5.42116">
        <ele>56.536682</ele>
        <time>2019-06-19 18:06:43,255</time>
      </trkpt>
      <trkpt lat="43.20903" lon="5.42115">
        <ele>57.111206</ele>
        <time>2019-06-19 18:06:44,267</time>
      </trkpt>
      <trkpt lat="43.20904" lon="5.42114">
        <ele>55.921265</ele>
        <time>2019-06-19 18:06:46,267</time>
      </trkpt>
      <trkpt lat="43.20905" lon="5.42113">
        <ele>56.64691</ele>
        <time>2019-06-19 18:06:57,274</time>
      </trkpt>
      <trkpt lat="43.20905" lon="5.42114">
        <ele>57.02057</ele>
        <time>2019-06-19 18:06:59,266</time>
      </trkpt>
      <trkpt lat="43.20903" lon="5.42114">
        <ele>56.6261</ele>
        <time>2019-06-19 18:07:19,266</time>
      </trkpt>
      <trkpt lat="43.20905" lon="5.42112">
        <ele>56.475708</ele>
        <time>2019-06-19 18:12:30,900</time>
      </trkpt>
      <trkpt lat="43.20905" lon="5.42112">
        <ele>55.559082</ele>
        <time>2019-06-19 18:12:35,725</time>
      </trkpt>
      <trkpt lat="43.20905" lon="5.42112">
        <ele>56.212097</ele>
        <time>2019-06-19 18:12:36,863</time>
      </trkpt>
      <trkpt lat="43.20904" lon="5.42112">
        <ele>53.986572</ele>
        <time>2019-06-19 18:13:04,736</time>
      </trkpt>
      <trkpt lat="43.20905" lon="5.42112">
        <ele>54.03711</ele>
        <time>2019-06-19 18:13:21,756</time>
      </trkpt>
      <trkpt lat="43.20905" lon="5.42112">
        <ele>55.93518</ele>
        <time>2019-06-19 18:13:22,728</time>
      </trkpt>
      <trkpt lat="43.20904" lon="5.42112">
        <ele>55.463257</ele>
        <time>2019-06-19 18:13:23,985</time>
      </trkpt>
      <trkpt lat="43.20903" lon="5.42111">
        <ele>55.954224</ele>
        <time>2019-06-19 18:13:35,742</time>
      </trkpt>
      <trkpt lat="43.20905" lon="5.42109">
        <ele>57.493713</ele>
        <time>2019-06-19 18:13:41,734</time>
      </trkpt>
      <trkpt lat="43.20907" lon="5.42105">
        <ele>56.6521</ele>
        <time>2019-06-19 18:13:46,736</time>
      </trkpt>
      <trkpt lat="43.20909" lon="5.421">
        <ele>57.806885</ele>
        <time>2019-06-19 18:13:52,730</time>
      </trkpt>
      <trkpt lat="43.20912" lon="5.42097">
        <ele>55.689087</ele>
        <time>2019-06-19 18:13:56,728</time>
      </trkpt>
      <trkpt lat="43.20914" lon="5.42094">
        <ele>54.59546</ele>
        <time>2019-06-19 18:14:01,733</time>
      </trkpt>
      <trkpt lat="43.20916" lon="5.42089">
        <ele>55.91266</ele>
        <time>2019-06-19 18:14:09,731</time>
      </trkpt>
      <trkpt lat="43.2092" lon="5.42085">
        <ele>57.82086</ele>
        <time>2019-06-19 18:14:16,731</time>
      </trkpt>
      <trkpt lat="43.20921" lon="5.4208">
        <ele>56.930298</ele>
        <time>2019-06-19 18:14:22,735</time>
      </trkpt>
      <trkpt lat="43.20922" lon="5.42073">
        <ele>59.764526</ele>
        <time>2019-06-19 18:14:29,958</time>
      </trkpt>
      <trkpt lat="43.20924" lon="5.42068">
        <ele>58.420715</ele>
        <time>2019-06-19 18:14:34,770</time>
      </trkpt>
      <trkpt lat="43.20925" lon="5.42063">
        <ele>60.337036</ele>
        <time>2019-06-19 18:14:38,728</time>
      </trkpt>
      <trkpt lat="43.20922" lon="5.42057">
        <ele>62.07965</ele>
        <time>2019-06-19 18:14:49,744</time>
      </trkpt>
      <trkpt lat="43.20922" lon="5.42054">
        <ele>62.233337</ele>
        <time>2019-06-19 18:14:54,737</time>
      </trkpt>
      <trkpt lat="43.20922" lon="5.42053">
        <ele>62.376343</ele>
        <time>2019-06-19 18:14:55,719</time>
      </trkpt>
      <trkpt lat="43.20922" lon="5.42052">
        <ele>62.512207</ele>
        <time>2019-06-19 18:14:58,726</time>
      </trkpt>
      <trkpt lat="43.20924" lon="5.42049">
        <ele>60.327087</ele>
        <time>2019-06-19 18:15:01,728</time>
      </trkpt>
      <trkpt lat="43.20928" lon="5.42049">
        <ele>59.818176</ele>
        <time>2019-06-19 18:15:05,818</time>
      </trkpt>
      <trkpt lat="43.2093" lon="5.42041">
        <ele>62.14038</ele>
        <time>2019-06-19 18:15:13,740</time>
      </trkpt>
      <trkpt lat="43.20931" lon="5.42037">
        <ele>61.916138</ele>
        <time>2019-06-19 18:15:16,995</time>
      </trkpt>
      <trkpt lat="43.20932" lon="5.42033">
        <ele>62.226562</ele>
        <time>2019-06-19 18:15:19,741</time>
      </trkpt>
      <trkpt lat="43.20934" lon="5.42031">
        <ele>62.354126</ele>
        <time>2019-06-19 18:15:21,727</time>
      </trkpt>
      <trkpt lat="43.20936" lon="5.42027">
        <ele>62.343506</ele>
        <time>2019-06-19 18:15:25,730</time>
      </trkpt>
      <trkpt lat="43.20937" lon="5.42025">
        <ele>61.6886</ele>
        <time>2019-06-19 18:15:27,733</time>
      </trkpt>
      <trkpt lat="43.20939" lon="5.42022">
        <ele>62.395325</ele>
        <time>2019-06-19 18:15:30,737</time>
      </trkpt>
      <trkpt lat="43.20942" lon="5.42016">
        <ele>62.12433</ele>
        <time>2019-06-19 18:15:36,778</time>
      </trkpt>
      <trkpt lat="43.20944" lon="5.42015">
        <ele>61.57025</ele>
        <time>2019-06-19 18:15:38,747</time>
      </trkpt>
      <trkpt lat="43.20948" lon="5.42012">
        <ele>63.00879</ele>
        <time>2019-06-19 18:15:45,737</time>
      </trkpt>
      <trkpt lat="43.2095" lon="5.4201">
        <ele>63.075195</ele>
        <time>2019-06-19 18:15:48,740</time>
      </trkpt>
      <trkpt lat="43.20952" lon="5.42008">
        <ele>62.31488</ele>
        <time>2019-06-19 18:15:56,983</time>
      </trkpt>
      <trkpt lat="43.20952" lon="5.42008">
        <ele>63.00879</ele>
        <time>2019-06-19 18:15:58,748</time>
      </trkpt>
      <trkpt lat="43.20952" lon="5.42008">
        <ele>61.99933</ele>
        <time>2019-06-19 18:16:01,999</time>
      </trkpt>
      <trkpt lat="43.20955" lon="5.42005">
        <ele>61.59857</ele>
        <time>2019-06-19 18:16:05,737</time>
      </trkpt>
      <trkpt lat="43.20958" lon="5.42001">
        <ele>60.939453</ele>
        <time>2019-06-19 18:16:11,741</time>
      </trkpt>
      <trkpt lat="43.2096" lon="5.41996">
        <ele>58.284485</ele>
        <time>2019-06-19 18:16:17,727</time>
      </trkpt>
      <trkpt lat="43.20963" lon="5.4199">
        <ele>57.58026</ele>
        <time>2019-06-19 18:16:22,747</time>
      </trkpt>
      <trkpt lat="43.20963" lon="5.41988">
        <ele>57.661926</ele>
        <time>2019-06-19 18:16:24,923</time>
      </trkpt>
      <trkpt lat="43.20965" lon="5.41985">
        <ele>56.831787</ele>
        <time>2019-06-19 18:16:27,727</time>
      </trkpt>
      <trkpt lat="43.20966" lon="5.41982">
        <ele>55.282898</ele>
        <time>2019-06-19 18:16:31,911</time>
      </trkpt>
      <trkpt lat="43.20967" lon="5.41979">
        <ele>57.661926</ele>
        <time>2019-06-19 18:16:36,736</time>
      </trkpt>
      <trkpt lat="43.20967" lon="5.41979">
        <ele>55.60205</ele>
        <time>2019-06-19 18:16:37,723</time>
      </trkpt>
      <trkpt lat="43.20968" lon="5.4198">
        <ele>55.962463</ele>
        <time>2019-06-19 18:16:38,723</time>
      </trkpt>
      <trkpt lat="43.20968" lon="5.4198">
        <ele>55.387695</ele>
        <time>2019-06-19 18:16:39,728</time>
      </trkpt>
      <trkpt lat="43.20971" lon="5.41986">
        <ele>55.60205</ele>
        <time>2019-06-19 18:16:48,742</time>
      </trkpt>
      <trkpt lat="43.20973" lon="5.41985">
        <ele>52.7453</ele>
        <time>2019-06-19 18:16:52,944</time>
      </trkpt>
      <trkpt lat="43.20975" lon="5.41982">
        <ele>52.30371</ele>
        <time>2019-06-19 18:16:55,973</time>
      </trkpt>
      <trkpt lat="43.20981" lon="5.41981">
        <ele>51.79016</ele>
        <time>2019-06-19 18:17:02,999</time>
      </trkpt>
      <trkpt lat="43.20984" lon="5.41981">
        <ele>51.68976</ele>
        <time>2019-06-19 18:17:05,723</time>
      </trkpt>
      <trkpt lat="43.20986" lon="5.4198">
        <ele>51.174866</ele>
        <time>2019-06-19 18:17:08,724</time>
      </trkpt>
      <trkpt lat="43.20989" lon="5.4198">
        <ele>67.94891</ele>
        <time>2019-06-19 18:17:11,741</time>
      </trkpt>
      <trkpt lat="43.20993" lon="5.41981">
        <ele>54.887146</ele>
        <time>2019-06-19 18:17:16,561</time>
      </trkpt>
      <trkpt lat="43.20993" lon="5.41982">
        <ele>52.95807</ele>
        <time>2019-06-19 18:17:18,566</time>
      </trkpt>
      <trkpt lat="43.20993" lon="5.41982">
        <ele>52.483887</ele>
        <time>2019-06-19 18:17:19,803</time>
      </trkpt>
      <trkpt lat="43.20992" lon="5.41984">
        <ele>69.85126</ele>
        <time>2019-06-19 18:17:22,649</time>
      </trkpt>
      <trkpt lat="43.20992" lon="5.41988">
        <ele>55.14331</ele>
        <time>2019-06-19 18:17:26,644</time>
      </trkpt>
      <trkpt lat="43.20992" lon="5.41992">
        <ele>51.661743</ele>
        <time>2019-06-19 18:17:30,643</time>
      </trkpt>
      <trkpt lat="43.20993" lon="5.41996">
        <ele>50.854248</ele>
        <time>2019-06-19 18:17:34,887</time>
      </trkpt>
      <trkpt lat="43.20996" lon="5.41997">
        <ele>49.851685</ele>
        <time>2019-06-19 18:17:40,648</time>
      </trkpt>
      <trkpt lat="43.21001" lon="5.42001">
        <ele>46.963257</ele>
        <time>2019-06-19 18:17:49,640</time>
      </trkpt>
      <trkpt lat="43.21003" lon="5.42001">
        <ele>46.4917</ele>
        <time>2019-06-19 18:17:52,646</time>
      </trkpt>
      <trkpt lat="43.21006" lon="5.41999">
        <ele>46.241943</ele>
        <time>2019-06-19 18:17:56,639</time>
      </trkpt>
      <trkpt lat="43.21008" lon="5.42">
        <ele>46.963257</ele>
        <time>2019-06-19 18:17:58,640</time>
      </trkpt>
      <trkpt lat="43.21011" lon="5.42005">
        <ele>44.63385</ele>
        <time>2019-06-19 18:18:02,836</time>
      </trkpt>
      <trkpt lat="43.21012" lon="5.42007">
        <ele>43.972168</ele>
        <time>2019-06-19 18:18:04,641</time>
      </trkpt>
      <trkpt lat="43.21013" lon="5.4201">
        <ele>44.32794</ele>
        <time>2019-06-19 18:18:07,649</time>
      </trkpt>
      <trkpt lat="43.21016" lon="5.42015">
        <ele>44.972473</ele>
        <time>2019-06-19 18:18:12,649</time>
      </trkpt>
      <trkpt lat="43.21019" lon="5.42018">
        <ele>45.759216</ele>
        <time>2019-06-19 18:18:15,655</time>
      </trkpt>
      <trkpt lat="43.21023" lon="5.42019">
        <ele>45.901245</ele>
        <time>2019-06-19 18:18:19,671</time>
      </trkpt>
      <trkpt lat="43.21026" lon="5.4202">
        <ele>46.20166</ele>
        <time>2019-06-19 18:18:24,643</time>
      </trkpt>
      <trkpt lat="43.21029" lon="5.42025">
        <ele>45.190125</ele>
        <time>2019-06-19 18:18:30,630</time>
      </trkpt>
      <trkpt lat="43.21029" lon="5.42026">
        <ele>45.11383</ele>
        <time>2019-06-19 18:18:31,635</time>
      </trkpt>
      <trkpt lat="43.21029" lon="5.42026">
        <ele>45.179077</ele>
        <time>2019-06-19 18:18:32,642</time>
      </trkpt>
      <trkpt lat="43.21029" lon="5.42028">
        <ele>47.62018</ele>
        <time>2019-06-19 18:18:38,824</time>
      </trkpt>
      <trkpt lat="43.2103" lon="5.42028">
        <ele>48.29834</ele>
        <time>2019-06-19 18:18:41,638</time>
      </trkpt>
      <trkpt lat="43.2103" lon="5.42028">
        <ele>47.844727</ele>
        <time>2019-06-19 18:18:42,653</time>
      </trkpt>
      <trkpt lat="43.21032" lon="5.42029">
        <ele>48.296387</ele>
        <time>2019-06-19 18:18:53,916</time>
      </trkpt>
      <trkpt lat="43.21033" lon="5.42029">
        <ele>47.858032</ele>
        <time>2019-06-19 18:18:55,642</time>
      </trkpt>
      <trkpt lat="43.21033" lon="5.4203">
        <ele>47.672302</ele>
        <time>2019-06-19 18:19:00,657</time>
      </trkpt>
      <trkpt lat="43.21037" lon="5.42029">
        <ele>46.14624</ele>
        <time>2019-06-19 18:19:10,655</time>
      </trkpt>
      <trkpt lat="43.21036" lon="5.4203">
        <ele>46.139343</ele>
        <time>2019-06-19 18:19:11,643</time>
      </trkpt>
      <trkpt lat="43.21036" lon="5.4203">
        <ele>45.576233</ele>
        <time>2019-06-19 18:19:12,652</time>
      </trkpt>
      <trkpt lat="43.21036" lon="5.42031">
        <ele>46.496582</ele>
        <time>2019-06-19 18:19:13,642</time>
      </trkpt>
      <trkpt lat="43.21035" lon="5.42031">
        <ele>46.217834</ele>
        <time>2019-06-19 18:19:14,646</time>
      </trkpt>
      <trkpt lat="43.21036" lon="5.42031">
        <ele>46.47815</ele>
        <time>2019-06-19 18:20:27,650</time>
      </trkpt>
      <trkpt lat="43.21036" lon="5.42029">
        <ele>49.72528</ele>
        <time>2019-06-19 18:36:04,665</time>
      </trkpt>
      <trkpt lat="43.21036" lon="5.4203">
        <ele>49.517822</ele>
        <time>2019-06-19 18:37:15,650</time>
      </trkpt>
      <trkpt lat="43.21036" lon="5.4203">
        <ele>49.91742</ele>
        <time>2019-06-19 18:37:16,646</time>
      </trkpt>
      <trkpt lat="43.21035" lon="5.42035">
        <ele>59.418945</ele>
        <time>2019-06-19 18:39:52,645</time>
      </trkpt>
      <trkpt lat="43.21034" lon="5.42034">
        <ele>58.56891</ele>
        <time>2019-06-19 18:43:16,921</time>
      </trkpt>
      <trkpt lat="43.21033" lon="5.42034">
        <ele>56.986633</ele>
        <time>2019-06-19 18:43:18,659</time>
      </trkpt>
      <trkpt lat="43.21032" lon="5.42036">
        <ele>61.434326</ele>
        <time>2019-06-19 18:44:36,633</time>
      </trkpt>
      <trkpt lat="43.21032" lon="5.42037">
        <ele>60.327393</ele>
        <time>2019-06-19 18:44:37,633</time>
      </trkpt>
      <trkpt lat="43.21033" lon="5.42037">
        <ele>59.699097</ele>
        <time>2019-06-19 18:44:44,641</time>
      </trkpt>
      <trkpt lat="43.21033" lon="5.42037">
        <ele>59.702576</ele>
        <time>2019-06-19 18:44:45,638</time>
      </trkpt>
      <trkpt lat="43.21033" lon="5.42036">
        <ele>58.117737</ele>
        <time>2019-06-19 18:44:47,639</time>
      </trkpt>
      <trkpt lat="43.21033" lon="5.42036">
        <ele>57.81732</ele>
        <time>2019-06-19 18:44:48,634</time>
      </trkpt>
      <trkpt lat="43.21033" lon="5.42037">
        <ele>57.60321</ele>
        <time>2019-06-19 18:45:14,823</time>
      </trkpt>
      <trkpt lat="43.21033" lon="5.42038">
        <ele>58.241394</ele>
        <time>2019-06-19 18:45:29,640</time>
      </trkpt>
      <trkpt lat="43.21033" lon="5.42038">
        <ele>58.667725</ele>
        <time>2019-06-19 18:45:30,793</time>
      </trkpt>
      <trkpt lat="43.21033" lon="5.42037">
        <ele>57.766235</ele>
        <time>2019-06-19 18:45:32,871</time>
      </trkpt>
      <trkpt lat="43.21033" lon="5.42034">
        <ele>57.958984</ele>
        <time>2019-06-19 18:45:37,632</time>
      </trkpt>
      <trkpt lat="43.21034" lon="5.42032">
        <ele>58.05127</ele>
        <time>2019-06-19 18:45:41,805</time>
      </trkpt>
      <trkpt lat="43.21033" lon="5.42031">
        <ele>56.97876</ele>
        <time>2019-06-19 18:45:43,636</time>
      </trkpt>
      <trkpt lat="43.21033" lon="5.4203">
        <ele>56.838074</ele>
        <time>2019-06-19 18:45:44,640</time>
      </trkpt>
      <trkpt lat="43.21032" lon="5.42031">
        <ele>59.72412</ele>
        <time>2019-06-19 18:45:47,648</time>
      </trkpt>
      <trkpt lat="43.21031" lon="5.4203">
        <ele>60.04712</ele>
        <time>2019-06-19 18:46:12,645</time>
      </trkpt>
      <trkpt lat="43.21031" lon="5.4203">
        <ele>59.811646</ele>
        <time>2019-06-19 18:46:30,642</time>
      </trkpt>
      <trkpt lat="43.21031" lon="5.4203">
        <ele>59.714783</ele>
        <time>2019-06-19 18:46:31,644</time>
      </trkpt>
      <trkpt lat="43.21031" lon="5.42028">
        <ele>58.508728</ele>
        <time>2019-06-19 18:46:41,644</time>
      </trkpt>
      <trkpt lat="43.21031" lon="5.42028">
        <ele>58.334045</ele>
        <time>2019-06-19 18:46:42,892</time>
      </trkpt>
      <trkpt lat="43.21031" lon="5.42027">
        <ele>57.858337</ele>
        <time>2019-06-19 18:46:44,647</time>
      </trkpt>
      <trkpt lat="43.2103" lon="5.42026">
        <ele>59.15863</ele>
        <time>2019-06-19 18:46:45,643</time>
      </trkpt>
      <trkpt lat="43.2103" lon="5.42023">
        <ele>56.66162</ele>
        <time>2019-06-19 18:46:49,641</time>
      </trkpt>
      <trkpt lat="43.21029" lon="5.4202">
        <ele>55.983643</ele>
        <time>2019-06-19 18:46:54,643</time>
      </trkpt>
      <trkpt lat="43.21027" lon="5.42016">
        <ele>54.857544</ele>
        <time>2019-06-19 18:46:59,846</time>
      </trkpt>
      <trkpt lat="43.21025" lon="5.42012">
        <ele>54.63275</ele>
        <time>2019-06-19 18:47:04,638</time>
      </trkpt>
      <trkpt lat="43.21027" lon="5.42008">
        <ele>56.05475</ele>
        <time>2019-06-19 18:47:12,647</time>
      </trkpt>
      <trkpt lat="43.21027" lon="5.42007">
        <ele>84.60596</ele>
        <time>2019-06-19 18:47:16,849</time>
      </trkpt>
      <trkpt lat="43.21028" lon="5.42007">
        <ele>66.41278</ele>
        <time>2019-06-19 18:47:20,653</time>
      </trkpt>
      <trkpt lat="43.21029" lon="5.42007">
        <ele>56.240417</ele>
        <time>2019-06-19 18:47:21,655</time>
      </trkpt>
      <trkpt lat="43.21031" lon="5.42007">
        <ele>61.932373</ele>
        <time>2019-06-19 18:47:27,647</time>
      </trkpt>
      <trkpt lat="43.21031" lon="5.42008">
        <ele>61.534973</ele>
        <time>2019-06-19 18:47:28,650</time>
      </trkpt>
      <trkpt lat="43.21031" lon="5.42008">
        <ele>61.42621</ele>
        <time>2019-06-19 18:47:29,907</time>
      </trkpt>
      <trkpt lat="43.21032" lon="5.42003">
        <ele>63.805054</ele>
        <time>2019-06-19 18:47:33,930</time>
      </trkpt>
      <trkpt lat="43.21035" lon="5.41998">
        <ele>60.555664</ele>
        <time>2019-06-19 18:47:39,646</time>
      </trkpt>
      <trkpt lat="43.21037" lon="5.41995">
        <ele>60.41925</ele>
        <time>2019-06-19 18:47:43,651</time>
      </trkpt>
      <trkpt lat="43.21042" lon="5.41994">
        <ele>60.596375</ele>
        <time>2019-06-19 18:47:50,666</time>
      </trkpt>
      <trkpt lat="43.21043" lon="5.41994">
        <ele>60.817688</ele>
        <time>2019-06-19 18:47:52,925</time>
      </trkpt>
      <trkpt lat="43.21043" lon="5.41993">
        <ele>61.77185</ele>
        <time>2019-06-19 18:47:54,659</time>
      </trkpt>
      <trkpt lat="43.21045" lon="5.41994">
        <ele>61.992798</ele>
        <time>2019-06-19 18:47:57,646</time>
      </trkpt>
      <trkpt lat="43.21047" lon="5.41993">
        <ele>60.35797</ele>
        <time>2019-06-19 18:48:01,648</time>
      </trkpt>
      <trkpt lat="43.2105" lon="5.41995">
        <ele>62.192688</ele>
        <time>2019-06-19 18:48:05,867</time>
      </trkpt>
      <trkpt lat="43.21054" lon="5.41997">
        <ele>63.02777</ele>
        <time>2019-06-19 18:48:10,644</time>
      </trkpt>
      <trkpt lat="43.21057" lon="5.41998">
        <ele>60.520447</ele>
        <time>2019-06-19 18:48:13,652</time>
      </trkpt>
      <trkpt lat="43.21059" lon="5.42">
        <ele>63.47284</ele>
        <time>2019-06-19 18:48:16,643</time>
      </trkpt>
      <trkpt lat="43.2107" lon="5.42005">
        <ele>63.876404</ele>
        <time>2019-06-19 18:48:32,640</time>
      </trkpt>
      <trkpt lat="43.2107" lon="5.42005">
        <ele>64.0683</ele>
        <time>2019-06-19 18:48:33,772</time>
      </trkpt>
      <trkpt lat="43.21071" lon="5.42004">
        <ele>64.2287</ele>
        <time>2019-06-19 18:48:35,641</time>
      </trkpt>
      <trkpt lat="43.2107" lon="5.42004">
        <ele>64.48328</ele>
        <time>2019-06-19 18:48:36,645</time>
      </trkpt>
      <trkpt lat="43.21071" lon="5.42004">
        <ele>63.356323</ele>
        <time>2019-06-19 18:48:38,646</time>
      </trkpt>
      <trkpt lat="43.21071" lon="5.42005">
        <ele>65.9386</ele>
        <time>2019-06-19 18:49:09,649</time>
      </trkpt>
      <trkpt lat="43.21071" lon="5.42004">
        <ele>65.673706</ele>
        <time>2019-06-19 18:49:10,904</time>
      </trkpt>
      <trkpt lat="43.21071" lon="5.42004">
        <ele>64.782715</ele>
        <time>2019-06-19 18:49:13,644</time>
      </trkpt>
      <trkpt lat="43.21071" lon="5.42004">
        <ele>64.35718</ele>
        <time>2019-06-19 18:49:14,651</time>
      </trkpt>
      <trkpt lat="43.21071" lon="5.42006">
        <ele>63.672607</ele>
        <time>2019-06-19 18:49:20,627</time>
      </trkpt>
      <trkpt lat="43.21072" lon="5.42006">
        <ele>64.35327</ele>
        <time>2019-06-19 18:49:23,645</time>
      </trkpt>
      <trkpt lat="43.21073" lon="5.42004">
        <ele>64.269104</ele>
        <time>2019-06-19 18:49:47,637</time>
      </trkpt>
      <trkpt lat="43.21074" lon="5.42004">
        <ele>64.12219</ele>
        <time>2019-06-19 18:49:48,771</time>
      </trkpt>
      <trkpt lat="43.21074" lon="5.42004">
        <ele>64.06244</ele>
        <time>2019-06-19 18:50:19,675</time>
      </trkpt>
      <trkpt lat="43.21074" lon="5.42004">
        <ele>65.15039</ele>
        <time>2019-06-19 18:50:37,645</time>
      </trkpt>
      <trkpt lat="43.21077" lon="5.42005">
        <ele>67.308044</ele>
        <time>2019-06-19 18:50:41,689</time>
      </trkpt>
      <trkpt lat="43.21081" lon="5.42006">
        <ele>68.19061</ele>
        <time>2019-06-19 18:50:47,635</time>
      </trkpt>
      <trkpt lat="43.21083" lon="5.42007">
        <ele>68.68646</ele>
        <time>2019-06-19 18:50:50,656</time>
      </trkpt>
      <trkpt lat="43.21085" lon="5.42009">
        <ele>70.30707</ele>
        <time>2019-06-19 18:50:53,772</time>
      </trkpt>
      <trkpt lat="43.21088" lon="5.42008">
        <ele>70.76355</ele>
        <time>2019-06-19 18:50:57,639</time>
      </trkpt>
      <trkpt lat="43.21093" lon="5.42008">
        <ele>72.72644</ele>
        <time>2019-06-19 18:51:03,638</time>
      </trkpt>
      <trkpt lat="43.21096" lon="5.42007">
        <ele>74.5296</ele>
        <time>2019-06-19 18:51:06,635</time>
      </trkpt>
      <trkpt lat="43.21099" lon="5.42004">
        <ele>76.071106</ele>
        <time>2019-06-19 18:51:10,655</time>
      </trkpt>
      <trkpt lat="43.21102" lon="5.42001">
        <ele>77.60199</ele>
        <time>2019-06-19 18:51:15,643</time>
      </trkpt>
      <trkpt lat="43.21104" lon="5.41998">
        <ele>78.708496</ele>
        <time>2019-06-19 18:51:19,641</time>
      </trkpt>
      <trkpt lat="43.21105" lon="5.41996">
        <ele>79.80463</ele>
        <time>2019-06-19 18:51:22,650</time>
      </trkpt>
      <trkpt lat="43.21108" lon="5.41985">
        <ele>81.704956</ele>
        <time>2019-06-19 18:51:30,650</time>
      </trkpt>
      <trkpt lat="43.2111" lon="5.4198">
        <ele>82.716736</ele>
        <time>2019-06-19 18:51:34,646</time>
      </trkpt>
      <trkpt lat="43.2111" lon="5.41976">
        <ele>83.66565</ele>
        <time>2019-06-19 18:51:37,645</time>
      </trkpt>
      <trkpt lat="43.21112" lon="5.41972">
        <ele>84.59015</ele>
        <time>2019-06-19 18:51:41,681</time>
      </trkpt>
      <trkpt lat="43.21114" lon="5.41967">
        <ele>85.56189</ele>
        <time>2019-06-19 18:51:45,655</time>
      </trkpt>
      <trkpt lat="43.21114" lon="5.41963">
        <ele>85.567444</ele>
        <time>2019-06-19 18:51:48,641</time>
      </trkpt>
      <trkpt lat="43.21117" lon="5.41955">
        <ele>85.145996</ele>
        <time>2019-06-19 18:51:56,636</time>
      </trkpt>
      <trkpt lat="43.2112" lon="5.41952">
        <ele>84.351685</ele>
        <time>2019-06-19 18:52:00,636</time>
      </trkpt>
      <trkpt lat="43.21122" lon="5.4195">
        <ele>83.9303</ele>
        <time>2019-06-19 18:52:03,639</time>
      </trkpt>
      <trkpt lat="43.21125" lon="5.41947">
        <ele>81.980774</ele>
        <time>2019-06-19 18:52:07,831</time>
      </trkpt>
      <trkpt lat="43.21129" lon="5.41942">
        <ele>81.844666</ele>
        <time>2019-06-19 18:52:12,635</time>
      </trkpt>
      <trkpt lat="43.21132" lon="5.4194">
        <ele>80.54614</ele>
        <time>2019-06-19 18:52:15,648</time>
      </trkpt>
      <trkpt lat="43.21135" lon="5.41937">
        <ele>79.16235</ele>
        <time>2019-06-19 18:52:19,642</time>
      </trkpt>
      <trkpt lat="43.21142" lon="5.41932">
        <ele>77.96619</ele>
        <time>2019-06-19 18:52:27,647</time>
      </trkpt>
      <trkpt lat="43.21145" lon="5.4193">
        <ele>78.04669</ele>
        <time>2019-06-19 18:52:31,663</time>
      </trkpt>
      <trkpt lat="43.21146" lon="5.41927">
        <ele>78.304016</ele>
        <time>2019-06-19 18:52:34,668</time>
      </trkpt>
      <trkpt lat="43.2115" lon="5.41924">
        <ele>78.43207</ele>
        <time>2019-06-19 18:52:39,913</time>
      </trkpt>
      <trkpt lat="43.21156" lon="5.41918">
        <ele>79.239136</ele>
        <time>2019-06-19 18:52:48,649</time>
      </trkpt>
      <trkpt lat="43.21159" lon="5.41915">
        <ele>78.74115</ele>
        <time>2019-06-19 18:52:52,644</time>
      </trkpt>
      <trkpt lat="43.21164" lon="5.4191">
        <ele>76.467896</ele>
        <time>2019-06-19 18:52:59,673</time>
      </trkpt>
      <trkpt lat="43.21173" lon="5.41904">
        <ele>75.03186</ele>
        <time>2019-06-19 18:53:09,651</time>
      </trkpt>
      <trkpt lat="43.21176" lon="5.41903">
        <ele>74.75171</ele>
        <time>2019-06-19 18:53:13,863</time>
      </trkpt>
      <trkpt lat="43.21183" lon="5.41899">
        <ele>74.06482</ele>
        <time>2019-06-19 18:53:22,945</time>
      </trkpt>
      <trkpt lat="43.21193" lon="5.41892">
        <ele>74.06482</ele>
        <time>2019-06-19 18:53:34,657</time>
      </trkpt>
      <trkpt lat="43.21196" lon="5.41891">
        <ele>73.87451</ele>
        <time>2019-06-19 18:53:37,643</time>
      </trkpt>
      <trkpt lat="43.21197" lon="5.4189">
        <ele>73.88306</ele>
        <time>2019-06-19 18:53:38,860</time>
      </trkpt>
      <trkpt lat="43.212" lon="5.41888">
        <ele>73.863464</ele>
        <time>2019-06-19 18:53:41,820</time>
      </trkpt>
      <trkpt lat="43.21201" lon="5.41888">
        <ele>73.50214</ele>
        <time>2019-06-19 18:53:43,646</time>
      </trkpt>
      <trkpt lat="43.21204" lon="5.41888">
        <ele>72.26489</ele>
        <time>2019-06-19 18:53:46,645</time>
      </trkpt>
      <trkpt lat="43.21205" lon="5.41887">
        <ele>72.599976</ele>
        <time>2019-06-19 18:53:47,822</time>
      </trkpt>
      <trkpt lat="43.21207" lon="5.41886">
        <ele>74.07916</ele>
        <time>2019-06-19 18:53:49,652</time>
      </trkpt>
      <trkpt lat="43.2121" lon="5.41885">
        <ele>72.01892</ele>
        <time>2019-06-19 18:53:52,262</time>
      </trkpt>
      <trkpt lat="43.21214" lon="5.41882">
        <ele>72.33099</ele>
        <time>2019-06-19 18:53:57,271</time>
      </trkpt>
      <trkpt lat="43.21218" lon="5.41878">
        <ele>116.14026</ele>
        <time>2019-06-19 18:54:02,263</time>
      </trkpt>
      <trkpt lat="43.21221" lon="5.41877">
        <ele>86.06189</ele>
        <time>2019-06-19 18:54:04,865</time>
      </trkpt>
      <trkpt lat="43.21232" lon="5.4187">
        <ele>73.57428</ele>
        <time>2019-06-19 18:54:16,849</time>
      </trkpt>
      <trkpt lat="43.21234" lon="5.41869">
        <ele>73.16876</ele>
        <time>2019-06-19 18:54:19,854</time>
      </trkpt>
      <trkpt lat="43.21238" lon="5.41867">
        <ele>73.74286</ele>
        <time>2019-06-19 18:54:24,104</time>
      </trkpt>
      <trkpt lat="43.21244" lon="5.4186">
        <ele>74.880005</ele>
        <time>2019-06-19 18:54:32,850</time>
      </trkpt>
      <trkpt lat="43.21247" lon="5.41859">
        <ele>73.74286</ele>
        <time>2019-06-19 18:54:35,855</time>
      </trkpt>
      <trkpt lat="43.21251" lon="5.41859">
        <ele>75.395386</ele>
        <time>2019-06-19 18:54:39,863</time>
      </trkpt>
      <trkpt lat="43.21252" lon="5.41859">
        <ele>76.27539</ele>
        <time>2019-06-19 18:54:42,066</time>
      </trkpt>
      <trkpt lat="43.21256" lon="5.41856">
        <ele>77.32776</ele>
        <time>2019-06-19 18:54:46,866</time>
      </trkpt>
      <trkpt lat="43.21259" lon="5.41852">
        <ele>77.85248</ele>
        <time>2019-06-19 18:54:53,829</time>
      </trkpt>
      <trkpt lat="43.21263" lon="5.41851">
        <ele>78.70398</ele>
        <time>2019-06-19 18:54:57,865</time>
      </trkpt>
      <trkpt lat="43.21265" lon="5.41851">
        <ele>78.206055</ele>
        <time>2019-06-19 18:55:00,846</time>
      </trkpt>
      <trkpt lat="43.21268" lon="5.41843">
        <ele>78.291626</ele>
        <time>2019-06-19 18:55:10,128</time>
      </trkpt>
      <trkpt lat="43.2127" lon="5.41838">
        <ele>79.794495</ele>
        <time>2019-06-19 18:55:16,857</time>
      </trkpt>
      <trkpt lat="43.21273" lon="5.41836">
        <ele>78.94586</ele>
        <time>2019-06-19 18:55:22,837</time>
      </trkpt>
      <trkpt lat="43.21276" lon="5.41836">
        <ele>85.92529</ele>
        <time>2019-06-19 18:55:28,843</time>
      </trkpt>
      <trkpt lat="43.2128" lon="5.41835">
        <ele>88.74719</ele>
        <time>2019-06-19 18:55:38,849</time>
      </trkpt>
      <trkpt lat="43.21282" lon="5.4183">
        <ele>93.03406</ele>
        <time>2019-06-19 18:55:47,845</time>
      </trkpt>
      <trkpt lat="43.21285" lon="5.41825">
        <ele>95.14447</ele>
        <time>2019-06-19 18:55:55,841</time>
      </trkpt>
      <trkpt lat="43.21286" lon="5.41825">
        <ele>96.92444</ele>
        <time>2019-06-19 18:56:00,846</time>
      </trkpt>
      <trkpt lat="43.21287" lon="5.41825">
        <ele>94.24237</ele>
        <time>2019-06-19 18:56:02,859</time>
      </trkpt>
      <trkpt lat="43.21288" lon="5.41823">
        <ele>97.01587</ele>
        <time>2019-06-19 18:56:04,844</time>
      </trkpt>
      <trkpt lat="43.21292" lon="5.41823">
        <ele>97.03186</ele>
        <time>2019-06-19 18:56:09,851</time>
      </trkpt>
      <trkpt lat="43.21296" lon="5.4182">
        <ele>99.44269</ele>
        <time>2019-06-19 18:56:16,863</time>
      </trkpt>
      <trkpt lat="43.21298" lon="5.41813">
        <ele>99.66809</ele>
        <time>2019-06-19 18:56:28,110</time>
      </trkpt>
      <trkpt lat="43.21297" lon="5.41811">
        <ele>100.91699</ele>
        <time>2019-06-19 18:56:31,847</time>
      </trkpt>
      <trkpt lat="43.21298" lon="5.4181">
        <ele>101.45184</ele>
        <time>2019-06-19 18:56:32,849</time>
      </trkpt>
      <trkpt lat="43.21298" lon="5.4181">
        <ele>101.685486</ele>
        <time>2019-06-19 18:56:33,848</time>
      </trkpt>
      <trkpt lat="43.21298" lon="5.41806">
        <ele>101.045044</ele>
        <time>2019-06-19 18:56:37,946</time>
      </trkpt>
      <trkpt lat="43.21298" lon="5.41806">
        <ele>100.73712</ele>
        <time>2019-06-19 18:56:38,861</time>
      </trkpt>
      <trkpt lat="43.21298" lon="5.41804">
        <ele>101.48956</ele>
        <time>2019-06-19 18:56:40,844</time>
      </trkpt>
      <trkpt lat="43.21298" lon="5.41804">
        <ele>101.45032</ele>
        <time>2019-06-19 18:56:42,101</time>
      </trkpt>
      <trkpt lat="43.21303" lon="5.41799">
        <ele>106.798645</ele>
        <time>2019-06-19 18:56:53,076</time>
      </trkpt>
      <trkpt lat="43.21304" lon="5.41798">
        <ele>106.12866</ele>
        <time>2019-06-19 18:56:54,839</time>
      </trkpt>
      <trkpt lat="43.21304" lon="5.41793">
        <ele>106.256226</ele>
        <time>2019-06-19 18:56:59,851</time>
      </trkpt>
      <trkpt lat="43.21304" lon="5.41788">
        <ele>104.43567</ele>
        <time>2019-06-19 18:57:03,850</time>
      </trkpt>
      <trkpt lat="43.21304" lon="5.41782">
        <ele>103.84192</ele>
        <time>2019-06-19 18:57:11,137</time>
      </trkpt>
      <trkpt lat="43.21304" lon="5.41778">
        <ele>104.07434</ele>
        <time>2019-06-19 18:57:14,846</time>
      </trkpt>
      <trkpt lat="43.21309" lon="5.41777">
        <ele>105.30408</ele>
        <time>2019-06-19 18:57:22,859</time>
      </trkpt>
      <trkpt lat="43.21312" lon="5.41777">
        <ele>113.505066</ele>
        <time>2019-06-19 18:57:26,848</time>
      </trkpt>
      <trkpt lat="43.21312" lon="5.41774">
        <ele>103.57788</ele>
        <time>2019-06-19 18:57:30,846</time>
      </trkpt>
      <trkpt lat="43.21314" lon="5.41769">
        <ele>108.41675</ele>
        <time>2019-06-19 18:57:36,852</time>
      </trkpt>
      <trkpt lat="43.21315" lon="5.41762">
        <ele>108.92029</ele>
        <time>2019-06-19 18:57:42,849</time>
      </trkpt>
      <trkpt lat="43.21316" lon="5.41758">
        <ele>108.14795</ele>
        <time>2019-06-19 18:57:46,854</time>
      </trkpt>
      <trkpt lat="43.21319" lon="5.41747">
        <ele>108.315735</ele>
        <time>2019-06-19 18:57:54,850</time>
      </trkpt>
      <trkpt lat="43.21322" lon="5.4174">
        <ele>110.02759</ele>
        <time>2019-06-19 18:58:01,139</time>
      </trkpt>
      <trkpt lat="43.21327" lon="5.41734">
        <ele>110.76526</ele>
        <time>2019-06-19 18:58:06,864</time>
      </trkpt>
      <trkpt lat="43.21329" lon="5.41733">
        <ele>110.54242</ele>
        <time>2019-06-19 18:58:09,104</time>
      </trkpt>
      <trkpt lat="43.21333" lon="5.4173">
        <ele>110.42047</ele>
        <time>2019-06-19 18:58:12,845</time>
      </trkpt>
      <trkpt lat="43.21335" lon="5.4173">
        <ele>110.082275</ele>
        <time>2019-06-19 18:58:14,854</time>
      </trkpt>
      <trkpt lat="43.21337" lon="5.41729">
        <ele>110.29755</ele>
        <time>2019-06-19 18:58:16,844</time>
      </trkpt>
      <trkpt lat="43.21343" lon="5.41726">
        <ele>110.05994</ele>
        <time>2019-06-19 18:58:21,845</time>
      </trkpt>
      <trkpt lat="43.21347" lon="5.41724">
        <ele>110.50574</ele>
        <time>2019-06-19 18:58:25,850</time>
      </trkpt>
      <trkpt lat="43.2135" lon="5.41721">
        <ele>111.77576</ele>
        <time>2019-06-19 18:58:28,852</time>
      </trkpt>
      <trkpt lat="43.21352" lon="5.41717">
        <ele>112.18469</ele>
        <time>2019-06-19 18:58:32,852</time>
      </trkpt>
      <trkpt lat="43.21354" lon="5.41715">
        <ele>111.71515</ele>
        <time>2019-06-19 18:58:34,851</time>
      </trkpt>
      <trkpt lat="43.21355" lon="5.41712">
        <ele>113.41565</ele>
        <time>2019-06-19 18:58:37,845</time>
      </trkpt>
      <trkpt lat="43.21359" lon="5.41709">
        <ele>114.19281</ele>
        <time>2019-06-19 18:58:43,136</time>
      </trkpt>
      <trkpt lat="43.21361" lon="5.41708">
        <ele>115.38849</ele>
        <time>2019-06-19 18:58:45,855</time>
      </trkpt>
      <trkpt lat="43.21364" lon="5.41704">
        <ele>115.024475</ele>
        <time>2019-06-19 18:58:49,848</time>
      </trkpt>
      <trkpt lat="43.21366" lon="5.41702">
        <ele>115.45557</ele>
        <time>2019-06-19 18:58:52,847</time>
      </trkpt>
      <trkpt lat="43.21368" lon="5.41699">
        <ele>116.018616</ele>
        <time>2019-06-19 18:58:55,870</time>
      </trkpt>
      <trkpt lat="43.2137" lon="5.41697">
        <ele>116.8775</ele>
        <time>2019-06-19 18:58:58,871</time>
      </trkpt>
      <trkpt lat="43.21372" lon="5.41694">
        <ele>117.91943</ele>
        <time>2019-06-19 18:59:02,841</time>
      </trkpt>
      <trkpt lat="43.21375" lon="5.41687">
        <ele>120.46118</ele>
        <time>2019-06-19 18:59:12,145</time>
      </trkpt>
      <trkpt lat="43.21378" lon="5.41681">
        <ele>122.85474</ele>
        <time>2019-06-19 18:59:20,843</time>
      </trkpt>
      <trkpt lat="43.2138" lon="5.41676">
        <ele>122.553406</ele>
        <time>2019-06-19 18:59:26,084</time>
      </trkpt>
      <trkpt lat="43.21383" lon="5.4167">
        <ele>120.158264</ele>
        <time>2019-06-19 18:59:33,849</time>
      </trkpt>
      <trkpt lat="43.21383" lon="5.41669">
        <ele>121.535645</ele>
        <time>2019-06-19 18:59:35,115</time>
      </trkpt>
      <trkpt lat="43.21383" lon="5.41669">
        <ele>120.624084</ele>
        <time>2019-06-19 18:59:36,886</time>
      </trkpt>
      <trkpt lat="43.21384" lon="5.41667">
        <ele>121.46045</ele>
        <time>2019-06-19 18:59:40,879</time>
      </trkpt>
      <trkpt lat="43.21388" lon="5.41662">
        <ele>122.36023</ele>
        <time>2019-06-19 18:59:47,852</time>
      </trkpt>
      <trkpt lat="43.2139" lon="5.41656">
        <ele>122.71826</ele>
        <time>2019-06-19 18:59:54,850</time>
      </trkpt>
      <trkpt lat="43.21393" lon="5.41654">
        <ele>122.74835</ele>
        <time>2019-06-19 19:00:00,853</time>
      </trkpt>
      <trkpt lat="43.21396" lon="5.41653">
        <ele>126.14368</ele>
        <time>2019-06-19 19:00:06,855</time>
      </trkpt>
      <trkpt lat="43.214" lon="5.4165">
        <ele>128.5993</ele>
        <time>2019-06-19 19:00:18,048</time>
      </trkpt>
      <trkpt lat="43.21404" lon="5.41644">
        <ele>129.96582</ele>
        <time>2019-06-19 19:00:29,842</time>
      </trkpt>
      <trkpt lat="43.21406" lon="5.4164">
        <ele>131.26117</ele>
        <time>2019-06-19 19:00:35,862</time>
      </trkpt>
      <trkpt lat="43.21407" lon="5.41637">
        <ele>131.17114</ele>
        <time>2019-06-19 19:00:38,847</time>
      </trkpt>
      <trkpt lat="43.21409" lon="5.41632">
        <ele>130.79828</ele>
        <time>2019-06-19 19:00:43,853</time>
      </trkpt>
      <trkpt lat="43.21411" lon="5.41629">
        <ele>130.3501</ele>
        <time>2019-06-19 19:00:46,843</time>
      </trkpt>
      <trkpt lat="43.21414" lon="5.41626">
        <ele>130.83722</ele>
        <time>2019-06-19 19:00:50,866</time>
      </trkpt>
      <trkpt lat="43.21415" lon="5.41624">
        <ele>129.29187</ele>
        <time>2019-06-19 19:00:56,853</time>
      </trkpt>
      <trkpt lat="43.21415" lon="5.41624">
        <ele>129.23218</ele>
        <time>2019-06-19 19:00:57,851</time>
      </trkpt>
      <trkpt lat="43.21416" lon="5.41623">
        <ele>129.50842</ele>
        <time>2019-06-19 19:00:58,951</time>
      </trkpt>
      <trkpt lat="43.21418" lon="5.41619">
        <ele>130.54999</ele>
        <time>2019-06-19 19:01:04,852</time>
      </trkpt>
      <trkpt lat="43.21423" lon="5.41609">
        <ele>132.08752</ele>
        <time>2019-06-19 19:01:18,843</time>
      </trkpt>
      <trkpt lat="43.21425" lon="5.41605">
        <ele>135.59924</ele>
        <time>2019-06-19 19:01:23,845</time>
      </trkpt>
      <trkpt lat="43.21429" lon="5.41603">
        <ele>137.41077</ele>
        <time>2019-06-19 19:01:28,855</time>
      </trkpt>
      <trkpt lat="43.21431" lon="5.41602">
        <ele>139.17963</ele>
        <time>2019-06-19 19:01:33,845</time>
      </trkpt>
      <trkpt lat="43.21434" lon="5.41601">
        <ele>139.89008</ele>
        <time>2019-06-19 19:01:39,069</time>
      </trkpt>
      <trkpt lat="43.21433" lon="5.41601">
        <ele>139.9851</ele>
        <time>2019-06-19 19:01:40,842</time>
      </trkpt>
      <trkpt lat="43.21434" lon="5.41599">
        <ele>140.94476</ele>
        <time>2019-06-19 19:01:44,113</time>
      </trkpt>
      <trkpt lat="43.21434" lon="5.41599">
        <ele>140.7641</ele>
        <time>2019-06-19 19:01:45,874</time>
      </trkpt>
      <trkpt lat="43.21434" lon="5.41598">
        <ele>140.04181</ele>
        <time>2019-06-19 19:01:47,860</time>
      </trkpt>
      <trkpt lat="43.21434" lon="5.41598">
        <ele>140.23315</ele>
        <time>2019-06-19 19:01:49,851</time>
      </trkpt>
      <trkpt lat="43.21434" lon="5.41598">
        <ele>139.78137</ele>
        <time>2019-06-19 19:01:50,848</time>
      </trkpt>
      <trkpt lat="43.21435" lon="5.41597">
        <ele>139.5976</ele>
        <time>2019-06-19 19:01:54,850</time>
      </trkpt>
      <trkpt lat="43.21435" lon="5.41597">
        <ele>139.53296</ele>
        <time>2019-06-19 19:01:56,111</time>
      </trkpt>
      <trkpt lat="43.2144" lon="5.41598">
        <ele>137.9812</ele>
        <time>2019-06-19 19:02:02,844</time>
      </trkpt>
      <trkpt lat="43.21443" lon="5.41599">
        <ele>136.93536</ele>
        <time>2019-06-19 19:02:07,845</time>
      </trkpt>
      <trkpt lat="43.21445" lon="5.41602">
        <ele>138.10956</ele>
        <time>2019-06-19 19:02:10,844</time>
      </trkpt>
      <trkpt lat="43.21448" lon="5.41605">
        <ele>137.8429</ele>
        <time>2019-06-19 19:02:13,837</time>
      </trkpt>
      <trkpt lat="43.2145" lon="5.41606">
        <ele>137.5517</ele>
        <time>2019-06-19 19:02:16,061</time>
      </trkpt>
      <trkpt lat="43.2146" lon="5.41611">
        <ele>137.5346</ele>
        <time>2019-06-19 19:02:24,845</time>
      </trkpt>
      <trkpt lat="43.21463" lon="5.41613">
        <ele>137.34814</ele>
        <time>2019-06-19 19:02:29,846</time>
      </trkpt>
      <trkpt lat="43.21467" lon="5.41613">
        <ele>138.23389</ele>
        <time>2019-06-19 19:02:33,842</time>
      </trkpt>
      <trkpt lat="43.21471" lon="5.41613">
        <ele>138.92993</ele>
        <time>2019-06-19 19:02:37,852</time>
      </trkpt>
      <trkpt lat="43.21479" lon="5.41613">
        <ele>139.15009</ele>
        <time>2019-06-19 19:02:46,847</time>
      </trkpt>
      <trkpt lat="43.21483" lon="5.41612">
        <ele>139.09082</ele>
        <time>2019-06-19 19:02:50,845</time>
      </trkpt>
      <trkpt lat="43.21485" lon="5.41612">
        <ele>138.82812</ele>
        <time>2019-06-19 19:02:53,845</time>
      </trkpt>
      <trkpt lat="43.21488" lon="5.41612">
        <ele>138.70319</ele>
        <time>2019-06-19 19:02:57,845</time>
      </trkpt>
      <trkpt lat="43.21493" lon="5.41613">
        <ele>140.65875</ele>
        <time>2019-06-19 19:03:03,840</time>
      </trkpt>
      <trkpt lat="43.21495" lon="5.41614">
        <ele>141.47498</ele>
        <time>2019-06-19 19:03:06,851</time>
      </trkpt>
      <trkpt lat="43.21498" lon="5.41617">
        <ele>142.78552</ele>
        <time>2019-06-19 19:03:12,129</time>
      </trkpt>
      <trkpt lat="43.215" lon="5.4162">
        <ele>143.22064</ele>
        <time>2019-06-19 19:03:17,844</time>
      </trkpt>
      <trkpt lat="43.21503" lon="5.41622">
        <ele>143.30603</ele>
        <time>2019-06-19 19:03:22,062</time>
      </trkpt>
      <trkpt lat="43.21506" lon="5.41624">
        <ele>144.67853</ele>
        <time>2019-06-19 19:03:26,837</time>
      </trkpt>
      <trkpt lat="43.21509" lon="5.41625">
        <ele>146.9339</ele>
        <time>2019-06-19 19:03:32,868</time>
      </trkpt>
      <trkpt lat="43.21512" lon="5.41623">
        <ele>149.75848</ele>
        <time>2019-06-19 19:03:38,860</time>
      </trkpt>
      <trkpt lat="43.21514" lon="5.41623">
        <ele>150.91956</ele>
        <time>2019-06-19 19:03:42,852</time>
      </trkpt>
      <trkpt lat="43.21517" lon="5.41621">
        <ele>150.37213</ele>
        <time>2019-06-19 19:03:48,962</time>
      </trkpt>
      <trkpt lat="43.21519" lon="5.41624">
        <ele>151.07806</ele>
        <time>2019-06-19 19:03:51,847</time>
      </trkpt>
      <trkpt lat="43.21522" lon="5.41626">
        <ele>152.71313</ele>
        <time>2019-06-19 19:03:57,840</time>
      </trkpt>
      <trkpt lat="43.21524" lon="5.41626">
        <ele>150.25104</ele>
        <time>2019-06-19 19:04:00,852</time>
      </trkpt>
      <trkpt lat="43.21528" lon="5.41624">
        <ele>155.6897</ele>
        <time>2019-06-19 19:04:07,847</time>
      </trkpt>
      <trkpt lat="43.21529" lon="5.41623">
        <ele>156.57874</ele>
        <time>2019-06-19 19:04:10,846</time>
      </trkpt>
      <trkpt lat="43.21531" lon="5.41624">
        <ele>156.58057</ele>
        <time>2019-06-19 19:04:15,837</time>
      </trkpt>
      <trkpt lat="43.21534" lon="5.41627">
        <ele>156.72925</ele>
        <time>2019-06-19 19:04:19,850</time>
      </trkpt>
      <trkpt lat="43.21538" lon="5.41626">
        <ele>156.77277</ele>
        <time>2019-06-19 19:04:25,849</time>
      </trkpt>
      <trkpt lat="43.21542" lon="5.41624">
        <ele>159.24768</ele>
        <time>2019-06-19 19:04:31,094</time>
      </trkpt>
      <trkpt lat="43.21544" lon="5.41626">
        <ele>159.87592</ele>
        <time>2019-06-19 19:04:36,852</time>
      </trkpt>
      <trkpt lat="43.21548" lon="5.41624">
        <ele>159.6842</ele>
        <time>2019-06-19 19:04:43,854</time>
      </trkpt>
      <trkpt lat="43.21551" lon="5.4162">
        <ele>160.38654</ele>
        <time>2019-06-19 19:04:47,854</time>
      </trkpt>
      <trkpt lat="43.21556" lon="5.41619">
        <ele>159.1814</ele>
        <time>2019-06-19 19:04:55,864</time>
      </trkpt>
      <trkpt lat="43.21556" lon="5.41614">
        <ele>161.1753</ele>
        <time>2019-06-19 19:05:02,839</time>
      </trkpt>
      <trkpt lat="43.21557" lon="5.41607">
        <ele>160.71051</ele>
        <time>2019-06-19 19:05:09,855</time>
      </trkpt>
      <trkpt lat="43.21557" lon="5.41604">
        <ele>161.62646</ele>
        <time>2019-06-19 19:05:12,839</time>
      </trkpt>
      <trkpt lat="43.21557" lon="5.41599">
        <ele>161.54712</ele>
        <time>2019-06-19 19:05:16,869</time>
      </trkpt>
      <trkpt lat="43.2156" lon="5.41599">
        <ele>164.09839</ele>
        <time>2019-06-19 19:05:23,847</time>
      </trkpt>
      <trkpt lat="43.21562" lon="5.41603">
        <ele>168.24475</ele>
        <time>2019-06-19 19:05:28,854</time>
      </trkpt>
      <trkpt lat="43.21565" lon="5.41604">
        <ele>166.8695</ele>
        <time>2019-06-19 19:05:33,848</time>
      </trkpt>
      <trkpt lat="43.21564" lon="5.416">
        <ele>166.60577</ele>
        <time>2019-06-19 19:05:37,844</time>
      </trkpt>
      <trkpt lat="43.21563" lon="5.41596">
        <ele>167.84955</ele>
        <time>2019-06-19 19:05:40,849</time>
      </trkpt>
      <trkpt lat="43.21561" lon="5.41592">
        <ele>167.79755</ele>
        <time>2019-06-19 19:05:43,840</time>
      </trkpt>
      <trkpt lat="43.21559" lon="5.41589">
        <ele>168.66943</ele>
        <time>2019-06-19 19:05:47,838</time>
      </trkpt>
      <trkpt lat="43.21557" lon="5.41586">
        <ele>169.3725</ele>
        <time>2019-06-19 19:05:52,840</time>
      </trkpt>
      <trkpt lat="43.21554" lon="5.41582">
        <ele>177.46887</ele>
        <time>2019-06-19 19:05:57,931</time>
      </trkpt>
      <trkpt lat="43.2155" lon="5.41582">
        <ele>171.20923</ele>
        <time>2019-06-19 19:06:03,921</time>
      </trkpt>
      <trkpt lat="43.21547" lon="5.41581">
        <ele>171.02954</ele>
        <time>2019-06-19 19:06:06,920</time>
      </trkpt>
      <trkpt lat="43.21545" lon="5.41577">
        <ele>176.50769</ele>
        <time>2019-06-19 19:06:11,463</time>
      </trkpt>
      <trkpt lat="43.21549" lon="5.41576">
        <ele>173.25677</ele>
        <time>2019-06-19 19:06:17,469</time>
      </trkpt>
      <trkpt lat="43.21552" lon="5.41576">
        <ele>172.98828</ele>
        <time>2019-06-19 19:06:20,460</time>
      </trkpt>
      <trkpt lat="43.21557" lon="5.41575">
        <ele>173.79926</ele>
        <time>2019-06-19 19:06:25,464</time>
      </trkpt>
      <trkpt lat="43.2156" lon="5.41575">
        <ele>174.70258</ele>
        <time>2019-06-19 19:06:28,465</time>
      </trkpt>
      <trkpt lat="43.21565" lon="5.41576">
        <ele>178.26208</ele>
        <time>2019-06-19 19:06:35,600</time>
      </trkpt>
      <trkpt lat="43.21567" lon="5.41571">
        <ele>179.41675</ele>
        <time>2019-06-19 19:06:41,603</time>
      </trkpt>
      <trkpt lat="43.21566" lon="5.41568">
        <ele>180.03613</ele>
        <time>2019-06-19 19:06:44,733</time>
      </trkpt>
      <trkpt lat="43.21567" lon="5.41564">
        <ele>180.86536</ele>
        <time>2019-06-19 19:06:52,605</time>
      </trkpt>
      <trkpt lat="43.2157" lon="5.41563">
        <ele>182.07544</ele>
        <time>2019-06-19 19:06:57,609</time>
      </trkpt>
      <trkpt lat="43.21572" lon="5.4156">
        <ele>182.45215</ele>
        <time>2019-06-19 19:07:01,617</time>
      </trkpt>
      <trkpt lat="43.21575" lon="5.41557">
        <ele>183.43896</ele>
        <time>2019-06-19 19:07:06,611</time>
      </trkpt>
      <trkpt lat="43.21578" lon="5.41553">
        <ele>184.06512</ele>
        <time>2019-06-19 19:07:10,611</time>
      </trkpt>
      <trkpt lat="43.21581" lon="5.41551">
        <ele>196.21033</ele>
        <time>2019-06-19 19:07:14,085</time>
      </trkpt>
      <trkpt lat="43.21587" lon="5.41552">
        <ele>187.58966</ele>
        <time>2019-06-19 19:07:23,076</time>
      </trkpt>
      <trkpt lat="43.21596" lon="5.41552">
        <ele>186.22083</ele>
        <time>2019-06-19 19:07:34,079</time>
      </trkpt>
      <trkpt lat="43.21597" lon="5.4155">
        <ele>186.45703</ele>
        <time>2019-06-19 19:07:37,074</time>
      </trkpt>
      <trkpt lat="43.21597" lon="5.4155">
        <ele>189.86438</ele>
        <time>2019-06-19 19:07:53,855</time>
      </trkpt>
      <trkpt lat="43.21597" lon="5.4155">
        <ele>190.03711</ele>
        <time>2019-06-19 19:07:55,038</time>
      </trkpt>
      <trkpt lat="43.21596" lon="5.41549">
        <ele>189.9314</ele>
        <time>2019-06-19 19:08:13,846</time>
      </trkpt>
      <trkpt lat="43.21596" lon="5.41549">
        <ele>189.8703</ele>
        <time>2019-06-19 19:08:15,849</time>
      </trkpt>
      <trkpt lat="43.21596" lon="5.4155">
        <ele>190.21155</ele>
        <time>2019-06-19 19:08:45,850</time>
      </trkpt>
      <trkpt lat="43.21597" lon="5.4155">
        <ele>190.32898</ele>
        <time>2019-06-19 19:08:47,106</time>
      </trkpt>
      <trkpt lat="43.21597" lon="5.41552">
        <ele>193.61755</ele>
        <time>2019-06-19 19:09:48,102</time>
      </trkpt>
      <trkpt lat="43.21597" lon="5.41552">
        <ele>193.61755</ele>
        <time>2019-06-19 19:09:58,108</time>
      </trkpt>
      <trkpt lat="43.21598" lon="5.41551">
        <ele>193.01147</ele>
        <time>2019-06-19 19:09:59,852</time>
      </trkpt>
      <trkpt lat="43.21601" lon="5.4155">
        <ele>191.91614</ele>
        <time>2019-06-19 19:10:02,835</time>
      </trkpt>
      <trkpt lat="43.21604" lon="5.41549">
        <ele>190.74756</ele>
        <time>2019-06-19 19:10:05,839</time>
      </trkpt>
      <trkpt lat="43.21608" lon="5.41549">
        <ele>189.96698</ele>
        <time>2019-06-19 19:10:08,855</time>
      </trkpt>
      <trkpt lat="43.21612" lon="5.41549">
        <ele>189.96973</ele>
        <time>2019-06-19 19:10:11,851</time>
      </trkpt>
      <trkpt lat="43.21614" lon="5.4155">
        <ele>189.36829</ele>
        <time>2019-06-19 19:10:13,843</time>
      </trkpt>
      <trkpt lat="43.21616" lon="5.41551">
        <ele>188.74707</ele>
        <time>2019-06-19 19:10:15,849</time>
      </trkpt>
      <trkpt lat="43.21619" lon="5.41551">
        <ele>188.00427</ele>
        <time>2019-06-19 19:10:18,869</time>
      </trkpt>
      <trkpt lat="43.21621" lon="5.41551">
        <ele>187.69238</ele>
        <time>2019-06-19 19:10:20,848</time>
      </trkpt>
      <trkpt lat="43.21624" lon="5.41552">
        <ele>187.31787</ele>
        <time>2019-06-19 19:10:23,132</time>
      </trkpt>
      <trkpt lat="43.21627" lon="5.41552">
        <ele>187.27515</ele>
        <time>2019-06-19 19:10:25,839</time>
      </trkpt>
      <trkpt lat="43.21634" lon="5.41557">
        <ele>186.81018</ele>
        <time>2019-06-19 19:10:33,101</time>
      </trkpt>
      <trkpt lat="43.21637" lon="5.41559">
        <ele>187.31787</ele>
        <time>2019-06-19 19:10:35,839</time>
      </trkpt>
      <trkpt lat="43.21639" lon="5.41559">
        <ele>187.84973</ele>
        <time>2019-06-19 19:10:38,103</time>
      </trkpt>
      <trkpt lat="43.21642" lon="5.41558">
        <ele>187.50763</ele>
        <time>2019-06-19 19:10:39,863</time>
      </trkpt>
      <trkpt lat="43.21645" lon="5.41557">
        <ele>187.59827</ele>
        <time>2019-06-19 19:10:42,870</time>
      </trkpt>
      <trkpt lat="43.21649" lon="5.41555">
        <ele>187.87122</ele>
        <time>2019-06-19 19:10:45,851</time>
      </trkpt>
      <trkpt lat="43.21651" lon="5.41555">
        <ele>187.96863</ele>
        <time>2019-06-19 19:10:47,851</time>
      </trkpt>
      <trkpt lat="43.21653" lon="5.41554">
        <ele>188.25061</ele>
        <time>2019-06-19 19:10:49,853</time>
      </trkpt>
      <trkpt lat="43.21657" lon="5.41553">
        <ele>188.82</ele>
        <time>2019-06-19 19:10:52,852</time>
      </trkpt>
      <trkpt lat="43.2166" lon="5.41551">
        <ele>189.05798</ele>
        <time>2019-06-19 19:10:55,841</time>
      </trkpt>
      <trkpt lat="43.21663" lon="5.41549">
        <ele>188.91064</ele>
        <time>2019-06-19 19:10:58,865</time>
      </trkpt>
      <trkpt lat="43.21667" lon="5.41547">
        <ele>189.26056</ele>
        <time>2019-06-19 19:11:02,844</time>
      </trkpt>
      <trkpt lat="43.21672" lon="5.41545">
        <ele>189.43817</ele>
        <time>2019-06-19 19:11:08,074</time>
      </trkpt>
      <trkpt lat="43.21677" lon="5.41543">
        <ele>188.95294</ele>
        <time>2019-06-19 19:11:12,848</time>
      </trkpt>
      <trkpt lat="43.2168" lon="5.41542">
        <ele>189.26056</ele>
        <time>2019-06-19 19:11:15,860</time>
      </trkpt>
      <trkpt lat="43.21688" lon="5.4154">
        <ele>191.43542</ele>
        <time>2019-06-19 19:11:22,843</time>
      </trkpt>
      <trkpt lat="43.21691" lon="5.41539">
        <ele>195.29565</ele>
        <time>2019-06-19 19:11:26,028</time>
      </trkpt>
      <trkpt lat="43.21693" lon="5.41538">
        <ele>189.95935</ele>
        <time>2019-06-19 19:11:27,839</time>
      </trkpt>
      <trkpt lat="43.21695" lon="5.41537">
        <ele>189.90735</ele>
        <time>2019-06-19 19:11:29,844</time>
      </trkpt>
      <trkpt lat="43.21699" lon="5.41535">
        <ele>191.08417</ele>
        <time>2019-06-19 19:11:32,844</time>
      </trkpt>
      <trkpt lat="43.21701" lon="5.41535">
        <ele>191.61243</ele>
        <time>2019-06-19 19:11:34,849</time>
      </trkpt>
      <trkpt lat="43.21703" lon="5.41534">
        <ele>189.95935</ele>
        <time>2019-06-19 19:11:36,844</time>
      </trkpt>
      <trkpt lat="43.21707" lon="5.41533">
        <ele>193.2586</ele>
        <time>2019-06-19 19:11:39,850</time>
      </trkpt>
      <trkpt lat="43.21709" lon="5.41533">
        <ele>193.14453</ele>
        <time>2019-06-19 19:11:42,045</time>
      </trkpt>
      <trkpt lat="43.2171" lon="5.41532">
        <ele>193.15839</ele>
        <time>2019-06-19 19:11:43,843</time>
      </trkpt>
      <trkpt lat="43.21712" lon="5.41529">
        <ele>192.98358</ele>
        <time>2019-06-19 19:11:45,835</time>
      </trkpt>
      <trkpt lat="43.21714" lon="5.41528">
        <ele>193.36084</ele>
        <time>2019-06-19 19:11:48,837</time>
      </trkpt>
      <trkpt lat="43.21716" lon="5.4153">
        <ele>194.32068</ele>
        <time>2019-06-19 19:11:51,838</time>
      </trkpt>
      <trkpt lat="43.2172" lon="5.41533">
        <ele>196.27032</ele>
        <time>2019-06-19 19:11:56,848</time>
      </trkpt>
      <trkpt lat="43.21723" lon="5.41535">
        <ele>197.76392</ele>
        <time>2019-06-19 19:12:01,839</time>
      </trkpt>
      <trkpt lat="43.21726" lon="5.41536">
        <ele>198.63342</ele>
        <time>2019-06-19 19:12:07,855</time>
      </trkpt>
      <trkpt lat="43.21728" lon="5.41536">
        <ele>198.78265</ele>
        <time>2019-06-19 19:12:10,833</time>
      </trkpt>
      <trkpt lat="43.21731" lon="5.41538">
        <ele>199.5426</ele>
        <time>2019-06-19 19:12:15,841</time>
      </trkpt>
      <trkpt lat="43.21734" lon="5.41539">
        <ele>198.6286</ele>
        <time>2019-06-19 19:12:19,853</time>
      </trkpt>
      <trkpt lat="43.21736" lon="5.41539">
        <ele>200.6106</ele>
        <time>2019-06-19 19:12:23,838</time>
      </trkpt>
      <trkpt lat="43.2174" lon="5.41539">
        <ele>201.26544</ele>
        <time>2019-06-19 19:12:27,843</time>
      </trkpt>
      <trkpt lat="43.21742" lon="5.41543">
        <ele>203.25317</ele>
        <time>2019-06-19 19:12:34,841</time>
      </trkpt>
      <trkpt lat="43.21745" lon="5.41546">
        <ele>202.99597</ele>
        <time>2019-06-19 19:12:38,843</time>
      </trkpt>
      <trkpt lat="43.21747" lon="5.41549">
        <ele>203.80945</ele>
        <time>2019-06-19 19:12:42,840</time>
      </trkpt>
      <trkpt lat="43.21749" lon="5.41549">
        <ele>204.11652</ele>
        <time>2019-06-19 19:12:45,838</time>
      </trkpt>
      <trkpt lat="43.21754" lon="5.41551">
        <ele>206.98029</ele>
        <time>2019-06-19 19:12:53,845</time>
      </trkpt>
      <trkpt lat="43.21756" lon="5.41553">
        <ele>209.05731</ele>
        <time>2019-06-19 19:12:57,839</time>
      </trkpt>
      <trkpt lat="43.21759" lon="5.41556">
        <ele>209.58716</ele>
        <time>2019-06-19 19:13:02,843</time>
      </trkpt>
      <trkpt lat="43.21761" lon="5.41559">
        <ele>209.47278</ele>
        <time>2019-06-19 19:13:07,841</time>
      </trkpt>
      <trkpt lat="43.21762" lon="5.41562">
        <ele>210.19153</ele>
        <time>2019-06-19 19:13:10,870</time>
      </trkpt>
      <trkpt lat="43.21764" lon="5.41564">
        <ele>210.44482</ele>
        <time>2019-06-19 19:13:13,840</time>
      </trkpt>
      <trkpt lat="43.21766" lon="5.41568">
        <ele>211.80133</ele>
        <time>2019-06-19 19:13:17,843</time>
      </trkpt>
      <trkpt lat="43.21768" lon="5.4157">
        <ele>212.32812</ele>
        <time>2019-06-19 19:13:20,848</time>
      </trkpt>
      <trkpt lat="43.21769" lon="5.41572">
        <ele>214.1482</ele>
        <time>2019-06-19 19:13:23,835</time>
      </trkpt>
      <trkpt lat="43.21772" lon="5.41577">
        <ele>215.6087</ele>
        <time>2019-06-19 19:13:31,836</time>
      </trkpt>
      <trkpt lat="43.21779" lon="5.4158">
        <ele>217.07434</ele>
        <time>2019-06-19 19:13:43,847</time>
      </trkpt>
      <trkpt lat="43.21787" lon="5.41583">
        <ele>217.67883</ele>
        <time>2019-06-19 19:13:52,844</time>
      </trkpt>
      <trkpt lat="43.21793" lon="5.4159">
        <ele>219.04102</ele>
        <time>2019-06-19 19:14:01,850</time>
      </trkpt>
      <trkpt lat="43.21794" lon="5.41591">
        <ele>219.39044</ele>
        <time>2019-06-19 19:14:03,837</time>
      </trkpt>
      <trkpt lat="43.21794" lon="5.41591">
        <ele>219.04102</ele>
        <time>2019-06-19 19:14:10,846</time>
      </trkpt>
      <trkpt lat="43.21794" lon="5.41591">
        <ele>220.13098</ele>
        <time>2019-06-19 19:14:11,840</time>
      </trkpt>
      <trkpt lat="43.21794" lon="5.41591">
        <ele>220.59009</ele>
        <time>2019-06-19 19:14:18,847</time>
      </trkpt>
      <trkpt lat="43.21794" lon="5.41591">
        <ele>219.94513</ele>
        <time>2019-06-19 19:14:19,996</time>
      </trkpt>
      <trkpt lat="43.21795" lon="5.41591">
        <ele>218.45886</ele>
        <time>2019-06-19 19:14:38,289</time>
      </trkpt>
      <trkpt lat="43.21795" lon="5.41591">
        <ele>218.49158</ele>
        <time>2019-06-19 19:14:39,287</time>
      </trkpt>
      <trkpt lat="43.21795" lon="5.4159">
        <ele>219.29645</ele>
        <time>2019-06-19 19:15:02,410</time>
      </trkpt>
      <trkpt lat="43.21799" lon="5.41594">
        <ele>219.58112</ele>
        <time>2019-06-19 19:15:07,294</time>
      </trkpt>
      <trkpt lat="43.21801" lon="5.41596">
        <ele>218.67847</ele>
        <time>2019-06-19 19:15:10,300</time>
      </trkpt>
      <trkpt lat="43.21804" lon="5.41597">
        <ele>219.01453</ele>
        <time>2019-06-19 19:15:13,293</time>
      </trkpt>
      <trkpt lat="43.21807" lon="5.41597">
        <ele>218.71387</ele>
        <time>2019-06-19 19:15:16,292</time>
      </trkpt>
      <trkpt lat="43.21811" lon="5.41597">
        <ele>219.3211</ele>
        <time>2019-06-19 19:15:19,422</time>
      </trkpt>
      <trkpt lat="43.21814" lon="5.41597">
        <ele>219.30206</ele>
        <time>2019-06-19 19:15:21,297</time>
      </trkpt>
      <trkpt lat="43.21817" lon="5.41599">
        <ele>218.67749</ele>
        <time>2019-06-19 19:15:25,362</time>
      </trkpt>
      <trkpt lat="43.21823" lon="5.41606">
        <ele>218.92871</ele>
        <time>2019-06-19 19:15:33,489</time>
      </trkpt>
      <trkpt lat="43.21825" lon="5.41609">
        <ele>219.32251</ele>
        <time>2019-06-19 19:15:35,298</time>
      </trkpt>
      <trkpt lat="43.21826" lon="5.4161">
        <ele>219.54822</ele>
        <time>2019-06-19 19:15:36,299</time>
      </trkpt>
      <trkpt lat="43.21829" lon="5.41614">
        <ele>217.7398</ele>
        <time>2019-06-19 19:15:40,301</time>
      </trkpt>
      <trkpt lat="43.21835" lon="5.41623">
        <ele>218.85785</ele>
        <time>2019-06-19 19:15:48,303</time>
      </trkpt>
      <trkpt lat="43.21838" lon="5.41626">
        <ele>218.6236</ele>
        <time>2019-06-19 19:15:51,301</time>
      </trkpt>
      <trkpt lat="43.21842" lon="5.41632">
        <ele>221.24377</ele>
        <time>2019-06-19 19:15:58,307</time>
      </trkpt>
      <trkpt lat="43.21843" lon="5.41633">
        <ele>220.22644</ele>
        <time>2019-06-19 19:15:59,298</time>
      </trkpt>
      <trkpt lat="43.21844" lon="5.41636">
        <ele>219.63336</ele>
        <time>2019-06-19 19:16:01,307</time>
      </trkpt>
      <trkpt lat="43.21847" lon="5.41643">
        <ele>220.82507</ele>
        <time>2019-06-19 19:16:06,299</time>
      </trkpt>
      <trkpt lat="43.21848" lon="5.41646">
        <ele>220.96466</ele>
        <time>2019-06-19 19:16:09,303</time>
      </trkpt>
      <trkpt lat="43.21849" lon="5.41651">
        <ele>221.30511</ele>
        <time>2019-06-19 19:16:12,296</time>
      </trkpt>
      <trkpt lat="43.21852" lon="5.41662">
        <ele>218.84644</ele>
        <time>2019-06-19 19:16:21,457</time>
      </trkpt>
      <trkpt lat="43.21853" lon="5.41669">
        <ele>218.72089</ele>
        <time>2019-06-19 19:16:26,296</time>
      </trkpt>
      <trkpt lat="43.21855" lon="5.41675">
        <ele>216.60669</ele>
        <time>2019-06-19 19:16:31,283</time>
      </trkpt>
      <trkpt lat="43.21855" lon="5.41677">
        <ele>216.44708</ele>
        <time>2019-06-19 19:16:32,305</time>
      </trkpt>
      <trkpt lat="43.21858" lon="5.41682">
        <ele>216.15515</ele>
        <time>2019-06-19 19:16:39,299</time>
      </trkpt>
      <trkpt lat="43.21858" lon="5.41695">
        <ele>217.57178</ele>
        <time>2019-06-19 19:16:48,300</time>
      </trkpt>
      <trkpt lat="43.21859" lon="5.41697">
        <ele>217.33594</ele>
        <time>2019-06-19 19:16:49,302</time>
      </trkpt>
      <trkpt lat="43.21859" lon="5.41698">
        <ele>217.13379</ele>
        <time>2019-06-19 19:16:50,552</time>
      </trkpt>
      <trkpt lat="43.2186" lon="5.41701">
        <ele>216.60242</ele>
        <time>2019-06-19 19:16:52,294</time>
      </trkpt>
      <trkpt lat="43.2186" lon="5.41702">
        <ele>216.60834</ele>
        <time>2019-06-19 19:16:53,289</time>
      </trkpt>
      <trkpt lat="43.21861" lon="5.41703">
        <ele>216.21442</ele>
        <time>2019-06-19 19:16:54,300</time>
      </trkpt>
      <trkpt lat="43.21861" lon="5.41708">
        <ele>217.41455</ele>
        <time>2019-06-19 19:16:58,301</time>
      </trkpt>
      <trkpt lat="43.21863" lon="5.41714">
        <ele>215.66418</ele>
        <time>2019-06-19 19:17:02,301</time>
      </trkpt>
      <trkpt lat="43.21866" lon="5.41725">
        <ele>215.49542</ele>
        <time>2019-06-19 19:17:10,293</time>
      </trkpt>
      <trkpt lat="43.21869" lon="5.41728">
        <ele>216.79407</ele>
        <time>2019-06-19 19:17:13,293</time>
      </trkpt>
      <trkpt lat="43.21877" lon="5.41738">
        <ele>215.13226</ele>
        <time>2019-06-19 19:17:21,291</time>
      </trkpt>
      <trkpt lat="43.21878" lon="5.41739">
        <ele>217.30273</ele>
        <time>2019-06-19 19:17:22,518</time>
      </trkpt>
      <trkpt lat="43.21883" lon="5.41744">
        <ele>215.88385</ele>
        <time>2019-06-19 19:17:28,532</time>
      </trkpt>
      <trkpt lat="43.21889" lon="5.41749">
        <ele>214.9444</ele>
        <time>2019-06-19 19:17:35,520</time>
      </trkpt>
      <trkpt lat="43.21895" lon="5.41754">
        <ele>214.94928</ele>
        <time>2019-06-19 19:17:42,294</time>
      </trkpt>
      <trkpt lat="43.21903" lon="5.41758">
        <ele>216.79114</ele>
        <time>2019-06-19 19:17:49,295</time>
      </trkpt>
      <trkpt lat="43.2191" lon="5.41761">
        <ele>216.13812</ele>
        <time>2019-06-19 19:17:56,302</time>
      </trkpt>
      <trkpt lat="43.21915" lon="5.41765">
        <ele>217.63129</ele>
        <time>2019-06-19 19:18:03,318</time>
      </trkpt>
      <trkpt lat="43.2192" lon="5.41767">
        <ele>216.47882</ele>
        <time>2019-06-19 19:18:09,293</time>
      </trkpt>
      <trkpt lat="43.21931" lon="5.41769">
        <ele>212.14673</ele>
        <time>2019-06-19 19:18:18,293</time>
      </trkpt>
      <trkpt lat="43.21935" lon="5.41769">
        <ele>211.0686</ele>
        <time>2019-06-19 19:18:21,296</time>
      </trkpt>
      <trkpt lat="43.21946" lon="5.41774">
        <ele>210.13599</ele>
        <time>2019-06-19 19:18:31,288</time>
      </trkpt>
      <trkpt lat="43.21948" lon="5.41777">
        <ele>209.11072</ele>
        <time>2019-06-19 19:18:34,496</time>
      </trkpt>
      <trkpt lat="43.2195" lon="5.4178">
        <ele>209.36633</ele>
        <time>2019-06-19 19:18:37,468</time>
      </trkpt>
      <trkpt lat="43.21961" lon="5.41786">
        <ele>207.29297</ele>
        <time>2019-06-19 19:18:53,301</time>
      </trkpt>
      <trkpt lat="43.21964" lon="5.41788">
        <ele>206.73584</ele>
        <time>2019-06-19 19:18:57,304</time>
      </trkpt>
      <trkpt lat="43.21969" lon="5.41789">
        <ele>203.5542</ele>
        <time>2019-06-19 19:19:03,301</time>
      </trkpt>
      <trkpt lat="43.21971" lon="5.41789">
        <ele>202.46191</ele>
        <time>2019-06-19 19:19:06,307</time>
      </trkpt>
      <trkpt lat="43.21973" lon="5.41792">
        <ele>203.74646</ele>
        <time>2019-06-19 19:19:09,302</time>
      </trkpt>
      <trkpt lat="43.21977" lon="5.41793">
        <ele>203.68103</ele>
        <time>2019-06-19 19:19:13,294</time>
      </trkpt>
      <trkpt lat="43.21983" lon="5.41796">
        <ele>200.8844</ele>
        <time>2019-06-19 19:19:21,503</time>
      </trkpt>
      <trkpt lat="43.21988" lon="5.41801">
        <ele>198.93665</ele>
        <time>2019-06-19 19:19:29,474</time>
      </trkpt>
      <trkpt lat="43.21991" lon="5.41804">
        <ele>199.87427</ele>
        <time>2019-06-19 19:19:32,451</time>
      </trkpt>
      <trkpt lat="43.21995" lon="5.41804">
        <ele>199.49988</ele>
        <time>2019-06-19 19:19:37,336</time>
      </trkpt>
      <trkpt lat="43.22003" lon="5.41804">
        <ele>197.30762</ele>
        <time>2019-06-19 19:19:45,284</time>
      </trkpt>
      <trkpt lat="43.22006" lon="5.41803">
        <ele>198.25208</ele>
        <time>2019-06-19 19:19:48,298</time>
      </trkpt>
      <trkpt lat="43.22009" lon="5.41802">
        <ele>197.97559</ele>
        <time>2019-06-19 19:19:52,289</time>
      </trkpt>
      <trkpt lat="43.22009" lon="5.41801">
        <ele>202.57343</ele>
        <time>2019-06-19 19:19:53,452</time>
      </trkpt>
      <trkpt lat="43.2201" lon="5.418">
        <ele>201.38336</ele>
        <time>2019-06-19 19:19:55,305</time>
      </trkpt>
      <trkpt lat="43.22011" lon="5.41798">
        <ele>200.1502</ele>
        <time>2019-06-19 19:19:58,301</time>
      </trkpt>
      <trkpt lat="43.22012" lon="5.41797">
        <ele>200.18738</ele>
        <time>2019-06-19 19:20:01,446</time>
      </trkpt>
      <trkpt lat="43.22013" lon="5.41795">
        <ele>199.53491</ele>
        <time>2019-06-19 19:20:03,297</time>
      </trkpt>
      <trkpt lat="43.22017" lon="5.41789">
        <ele>197.03864</ele>
        <time>2019-06-19 19:20:11,300</time>
      </trkpt>
      <trkpt lat="43.22019" lon="5.41787">
        <ele>197.92554</ele>
        <time>2019-06-19 19:20:16,302</time>
      </trkpt>
      <trkpt lat="43.22023" lon="5.41783">
        <ele>195.75067</ele>
        <time>2019-06-19 19:20:23,299</time>
      </trkpt>
      <trkpt lat="43.22031" lon="5.4178">
        <ele>193.00977</ele>
        <time>2019-06-19 19:20:33,301</time>
      </trkpt>
      <trkpt lat="43.22032" lon="5.41781">
        <ele>193.05603</ele>
        <time>2019-06-19 19:20:34,285</time>
      </trkpt>
      <trkpt lat="43.22042" lon="5.41774">
        <ele>194.68835</ele>
        <time>2019-06-19 19:20:45,299</time>
      </trkpt>
      <trkpt lat="43.22043" lon="5.41773">
        <ele>195.00519</ele>
        <time>2019-06-19 19:20:46,289</time>
      </trkpt>
      <trkpt lat="43.2205" lon="5.41769">
        <ele>193.01282</ele>
        <time>2019-06-19 19:20:53,562</time>
      </trkpt>
      <trkpt lat="43.22052" lon="5.41768">
        <ele>192.67065</ele>
        <time>2019-06-19 19:20:55,341</time>
      </trkpt>
      <trkpt lat="43.22052" lon="5.41768">
        <ele>192.85065</ele>
        <time>2019-06-19 19:20:56,287</time>
      </trkpt>
      <trkpt lat="43.22053" lon="5.41766">
        <ele>192.94867</ele>
        <time>2019-06-19 19:20:59,337</time>
      </trkpt>
      <trkpt lat="43.22055" lon="5.41762">
        <ele>193.6554</ele>
        <time>2019-06-19 19:21:03,300</time>
      </trkpt>
      <trkpt lat="43.22057" lon="5.41759">
        <ele>193.01282</ele>
        <time>2019-06-19 19:21:06,302</time>
      </trkpt>
      <trkpt lat="43.22058" lon="5.41757">
        <ele>191.34558</ele>
        <time>2019-06-19 19:21:08,293</time>
      </trkpt>
      <trkpt lat="43.22059" lon="5.41755">
        <ele>192.80634</ele>
        <time>2019-06-19 19:21:11,294</time>
      </trkpt>
      <trkpt lat="43.22062" lon="5.41752">
        <ele>193.34875</ele>
        <time>2019-06-19 19:21:15,332</time>
      </trkpt>
      <trkpt lat="43.22062" lon="5.41752">
        <ele>193.33582</ele>
        <time>2019-06-19 19:21:16,303</time>
      </trkpt>
      <trkpt lat="43.22063" lon="5.41751">
        <ele>193.71594</ele>
        <time>2019-06-19 19:21:18,523</time>
      </trkpt>
      <trkpt lat="43.22065" lon="5.41749">
        <ele>193.87463</ele>
        <time>2019-06-19 19:21:20,302</time>
      </trkpt>
      <trkpt lat="43.22068" lon="5.41745">
        <ele>193.19891</ele>
        <time>2019-06-19 19:21:23,303</time>
      </trkpt>
      <trkpt lat="43.22071" lon="5.41743">
        <ele>192.56464</ele>
        <time>2019-06-19 19:21:27,304</time>
      </trkpt>
      <trkpt lat="43.22076" lon="5.41742">
        <ele>193.781</ele>
        <time>2019-06-19 19:21:32,289</time>
      </trkpt>
      <trkpt lat="43.22081" lon="5.41737">
        <ele>192.60077</ele>
        <time>2019-06-19 19:21:37,307</time>
      </trkpt>
      <trkpt lat="43.22085" lon="5.41732">
        <ele>192.4729</ele>
        <time>2019-06-19 19:21:41,292</time>
      </trkpt>
      <trkpt lat="43.22087" lon="5.41731">
        <ele>192.07568</ele>
        <time>2019-06-19 19:21:43,281</time>
      </trkpt>
      <trkpt lat="43.22089" lon="5.41729">
        <ele>191.28027</ele>
        <time>2019-06-19 19:21:45,291</time>
      </trkpt>
      <trkpt lat="43.22091" lon="5.41725">
        <ele>192.06451</ele>
        <time>2019-06-19 19:21:48,300</time>
      </trkpt>
      <trkpt lat="43.22094" lon="5.4172">
        <ele>192.25537</ele>
        <time>2019-06-19 19:21:52,300</time>
      </trkpt>
      <trkpt lat="43.22095" lon="5.41718">
        <ele>192.07568</ele>
        <time>2019-06-19 19:21:54,295</time>
      </trkpt>
      <trkpt lat="43.22097" lon="5.41716">
        <ele>191.97394</ele>
        <time>2019-06-19 19:21:56,294</time>
      </trkpt>
      <trkpt lat="43.22097" lon="5.41711">
        <ele>191.81683</ele>
        <time>2019-06-19 19:21:59,327</time>
      </trkpt>
      <trkpt lat="43.22097" lon="5.41706">
        <ele>191.22815</ele>
        <time>2019-06-19 19:22:02,282</time>
      </trkpt>
      <trkpt lat="43.22097" lon="5.41698">
        <ele>192.47742</ele>
        <time>2019-06-19 19:22:09,300</time>
      </trkpt>
      <trkpt lat="43.22099" lon="5.41687">
        <ele>192.09009</ele>
        <time>2019-06-19 19:22:17,307</time>
      </trkpt>
      <trkpt lat="43.22098" lon="5.41678">
        <ele>190.03943</ele>
        <time>2019-06-19 19:22:25,299</time>
      </trkpt>
      <trkpt lat="43.22099" lon="5.41673">
        <ele>185.44806</ele>
        <time>2019-06-19 19:22:28,306</time>
      </trkpt>
      <trkpt lat="43.221" lon="5.41669">
        <ele>184.18738</ele>
        <time>2019-06-19 19:22:31,303</time>
      </trkpt>
      <trkpt lat="43.22102" lon="5.41665">
        <ele>184.23096</ele>
        <time>2019-06-19 19:22:34,299</time>
      </trkpt>
      <trkpt lat="43.22106" lon="5.41661">
        <ele>184.34338</ele>
        <time>2019-06-19 19:22:38,301</time>
      </trkpt>
      <trkpt lat="43.22107" lon="5.41661">
        <ele>185.44806</ele>
        <time>2019-06-19 19:22:39,533</time>
      </trkpt>
      <trkpt lat="43.22117" lon="5.41661">
        <ele>184.73004</ele>
        <time>2019-06-19 19:22:49,294</time>
      </trkpt>
      <trkpt lat="43.2212" lon="5.41661">
        <ele>185.35657</ele>
        <time>2019-06-19 19:22:52,308</time>
      </trkpt>
      <trkpt lat="43.22121" lon="5.41661">
        <ele>183.8075</ele>
        <time>2019-06-19 19:22:53,292</time>
      </trkpt>
      <trkpt lat="43.22123" lon="5.41662">
        <ele>186.09113</ele>
        <time>2019-06-19 19:22:58,299</time>
      </trkpt>
      <trkpt lat="43.22125" lon="5.41666">
        <ele>185.10425</ele>
        <time>2019-06-19 19:23:03,293</time>
      </trkpt>
      <trkpt lat="43.22127" lon="5.41669">
        <ele>182.45697</ele>
        <time>2019-06-19 19:23:07,293</time>
      </trkpt>
      <trkpt lat="43.22128" lon="5.41673">
        <ele>181.98315</ele>
        <time>2019-06-19 19:23:11,294</time>
      </trkpt>
      <trkpt lat="43.22129" lon="5.41678">
        <ele>181.07953</ele>
        <time>2019-06-19 19:23:14,305</time>
      </trkpt>
      <trkpt lat="43.2213" lon="5.41679">
        <ele>181.59137</ele>
        <time>2019-06-19 19:23:16,287</time>
      </trkpt>
      <trkpt lat="43.22141" lon="5.41682">
        <ele>177.53528</ele>
        <time>2019-06-19 19:23:33,294</time>
      </trkpt>
      <trkpt lat="43.22141" lon="5.41682">
        <ele>177.58923</ele>
        <time>2019-06-19 19:23:34,421</time>
      </trkpt>
      <trkpt lat="43.22142" lon="5.41683">
        <ele>179.14038</ele>
        <time>2019-06-19 19:23:37,301</time>
      </trkpt>
      <trkpt lat="43.22143" lon="5.41682">
        <ele>177.87732</ele>
        <time>2019-06-19 19:23:38,404</time>
      </trkpt>
      <trkpt lat="43.22145" lon="5.41682">
        <ele>178.5282</ele>
        <time>2019-06-19 19:23:41,311</time>
      </trkpt>
      <trkpt lat="43.22146" lon="5.41682">
        <ele>178.8612</ele>
        <time>2019-06-19 19:23:42,294</time>
      </trkpt>
      <trkpt lat="43.22147" lon="5.41681">
        <ele>179.08362</ele>
        <time>2019-06-19 19:23:43,331</time>
      </trkpt>
      <trkpt lat="43.22147" lon="5.41681">
        <ele>180.11694</ele>
        <time>2019-06-19 19:23:44,290</time>
      </trkpt>
      <trkpt lat="43.22148" lon="5.4168">
        <ele>177.35565</ele>
        <time>2019-06-19 19:23:45,491</time>
      </trkpt>
      <trkpt lat="43.22157" lon="5.41671">
        <ele>180.30835</ele>
        <time>2019-06-19 19:23:56,294</time>
      </trkpt>
      <trkpt lat="43.2216" lon="5.4167">
        <ele>184.68579</ele>
        <time>2019-06-19 19:24:00,308</time>
      </trkpt>
      <trkpt lat="43.22163" lon="5.4167">
        <ele>180.34125</ele>
        <time>2019-06-19 19:24:03,295</time>
      </trkpt>
      <trkpt lat="43.22164" lon="5.4167">
        <ele>183.52911</ele>
        <time>2019-06-19 19:24:04,524</time>
      </trkpt>
      <trkpt lat="43.22169" lon="5.41667">
        <ele>180.84064</ele>
        <time>2019-06-19 19:24:08,285</time>
      </trkpt>
      <trkpt lat="43.22172" lon="5.41666">
        <ele>179.61627</ele>
        <time>2019-06-19 19:24:11,290</time>
      </trkpt>
      <trkpt lat="43.22176" lon="5.41666">
        <ele>178.94293</ele>
        <time>2019-06-19 19:24:14,300</time>
      </trkpt>
      <trkpt lat="43.2218" lon="5.41667">
        <ele>177.68726</ele>
        <time>2019-06-19 19:24:18,309</time>
      </trkpt>
      <trkpt lat="43.22182" lon="5.41668">
        <ele>177.0708</ele>
        <time>2019-06-19 19:24:20,300</time>
      </trkpt>
      <trkpt lat="43.22187" lon="5.4167">
        <ele>175.8081</ele>
        <time>2019-06-19 19:24:24,586</time>
      </trkpt>
      <trkpt lat="43.2219" lon="5.41672">
        <ele>178.94946</ele>
        <time>2019-06-19 19:24:27,296</time>
      </trkpt>
      <trkpt lat="43.22194" lon="5.41676">
        <ele>173.35327</ele>
        <time>2019-06-19 19:24:31,305</time>
      </trkpt>
      <trkpt lat="43.22196" lon="5.41679">
        <ele>173.61682</ele>
        <time>2019-06-19 19:24:34,303</time>
      </trkpt>
      <trkpt lat="43.22199" lon="5.41682">
        <ele>173.37451</ele>
        <time>2019-06-19 19:24:37,451</time>
      </trkpt>
      <trkpt lat="43.22202" lon="5.41684">
        <ele>171.52173</ele>
        <time>2019-06-19 19:24:40,499</time>
      </trkpt>
      <trkpt lat="43.22203" lon="5.41685">
        <ele>170.96667</ele>
        <time>2019-06-19 19:24:42,295</time>
      </trkpt>
      <trkpt lat="43.22205" lon="5.41688">
        <ele>171.28485</ele>
        <time>2019-06-19 19:24:45,287</time>
      </trkpt>
      <trkpt lat="43.22208" lon="5.4169">
        <ele>171.77942</ele>
        <time>2019-06-19 19:24:48,302</time>
      </trkpt>
      <trkpt lat="43.2221" lon="5.41693">
        <ele>173.78302</ele>
        <time>2019-06-19 19:24:53,283</time>
      </trkpt>
      <trkpt lat="43.22212" lon="5.41696">
        <ele>175.93127</ele>
        <time>2019-06-19 19:24:57,299</time>
      </trkpt>
      <trkpt lat="43.22214" lon="5.41705">
        <ele>175.21753</ele>
        <time>2019-06-19 19:25:05,324</time>
      </trkpt>
      <trkpt lat="43.22218" lon="5.41708">
        <ele>174.24371</ele>
        <time>2019-06-19 19:25:09,319</time>
      </trkpt>
      <trkpt lat="43.22222" lon="5.41712">
        <ele>170.00879</ele>
        <time>2019-06-19 19:25:13,297</time>
      </trkpt>
      <trkpt lat="43.22231" lon="5.41716">
        <ele>168.69861</ele>
        <time>2019-06-19 19:25:23,289</time>
      </trkpt>
      <trkpt lat="43.22232" lon="5.41717">
        <ele>169.5741</ele>
        <time>2019-06-19 19:25:24,284</time>
      </trkpt>
      <trkpt lat="43.22234" lon="5.41719">
        <ele>169.82153</ele>
        <time>2019-06-19 19:25:27,304</time>
      </trkpt>
      <trkpt lat="43.22238" lon="5.41721">
        <ele>168.11218</ele>
        <time>2019-06-19 19:25:31,290</time>
      </trkpt>
      <trkpt lat="43.22246" lon="5.41725">
        <ele>169.59149</ele>
        <time>2019-06-19 19:25:38,448</time>
      </trkpt>
      <trkpt lat="43.22251" lon="5.41731">
        <ele>167.46228</ele>
        <time>2019-06-19 19:25:44,309</time>
      </trkpt>
      <trkpt lat="43.22254" lon="5.41734">
        <ele>167.49756</ele>
        <time>2019-06-19 19:25:47,301</time>
      </trkpt>
      <trkpt lat="43.22258" lon="5.41737">
        <ele>165.7478</ele>
        <time>2019-06-19 19:25:51,285</time>
      </trkpt>
      <trkpt lat="43.22261" lon="5.4174">
        <ele>166.37323</ele>
        <time>2019-06-19 19:25:54,305</time>
      </trkpt>
      <trkpt lat="43.22265" lon="5.41742">
        <ele>166.64734</ele>
        <time>2019-06-19 19:25:58,552</time>
      </trkpt>
      <trkpt lat="43.22267" lon="5.41745">
        <ele>166.2567</ele>
        <time>2019-06-19 19:26:01,284</time>
      </trkpt>
      <trkpt lat="43.22269" lon="5.41749">
        <ele>164.65857</ele>
        <time>2019-06-19 19:26:08,293</time>
      </trkpt>
      <trkpt lat="43.22271" lon="5.41754">
        <ele>166.01892</ele>
        <time>2019-06-19 19:26:12,545</time>
      </trkpt>
      <trkpt lat="43.22276" lon="5.41769">
        <ele>164.52429</ele>
        <time>2019-06-19 19:26:26,563</time>
      </trkpt>
      <trkpt lat="43.22276" lon="5.41772">
        <ele>163.99158</ele>
        <time>2019-06-19 19:26:29,299</time>
      </trkpt>
      <trkpt lat="43.22274" lon="5.41775">
        <ele>163.95532</ele>
        <time>2019-06-19 19:26:32,337</time>
      </trkpt>
      <trkpt lat="43.22274" lon="5.41777">
        <ele>164.7492</ele>
        <time>2019-06-19 19:26:34,510</time>
      </trkpt>
      <trkpt lat="43.22274" lon="5.4178">
        <ele>165.77087</ele>
        <time>2019-06-19 19:26:36,295</time>
      </trkpt>
      <trkpt lat="43.22273" lon="5.41784">
        <ele>164.24908</ele>
        <time>2019-06-19 19:26:40,521</time>
      </trkpt>
      <trkpt lat="43.22272" lon="5.41795">
        <ele>163.99988</ele>
        <time>2019-06-19 19:26:48,297</time>
      </trkpt>
      <trkpt lat="43.22271" lon="5.41799">
        <ele>164.67798</ele>
        <time>2019-06-19 19:26:54,550</time>
      </trkpt>
      <trkpt lat="43.2227" lon="5.418">
        <ele>164.85284</ele>
        <time>2019-06-19 19:26:58,496</time>
      </trkpt>
      <trkpt lat="43.2227" lon="5.418">
        <ele>165.07983</ele>
        <time>2019-06-19 19:27:00,295</time>
      </trkpt>
      <trkpt lat="43.22271" lon="5.418">
        <ele>164.83875</ele>
        <time>2019-06-19 19:27:01,524</time>
      </trkpt>
      <trkpt lat="43.22271" lon="5.418">
        <ele>164.80719</ele>
        <time>2019-06-19 19:27:06,300</time>
      </trkpt>
      <trkpt lat="43.22271" lon="5.41801">
        <ele>164.96558</ele>
        <time>2019-06-19 19:27:08,535</time>
      </trkpt>
      <trkpt lat="43.2227" lon="5.41801">
        <ele>162.46802</ele>
        <time>2019-06-19 19:27:23,316</time>
      </trkpt>
      <trkpt lat="43.2227" lon="5.41801">
        <ele>162.64478</ele>
        <time>2019-06-19 19:27:24,315</time>
      </trkpt>
      <trkpt lat="43.2227" lon="5.41805">
        <ele>162.3158</ele>
        <time>2019-06-19 19:28:17,291</time>
      </trkpt>
      <trkpt lat="43.22271" lon="5.41805">
        <ele>164.07202</ele>
        <time>2019-06-19 19:31:55,303</time>
      </trkpt>
      <trkpt lat="43.22271" lon="5.41805">
        <ele>164.87524</ele>
        <time>2019-06-19 19:33:01,296</time>
      </trkpt>
      <trkpt lat="43.22271" lon="5.41805">
        <ele>164.10669</ele>
        <time>2019-06-19 19:33:02,505</time>
      </trkpt>
      <trkpt lat="43.2227" lon="5.41805">
        <ele>163.73413</ele>
        <time>2019-06-19 19:33:04,292</time>
      </trkpt>
      <trkpt lat="43.2227" lon="5.41805">
        <ele>164.44043</ele>
        <time>2019-06-19 19:33:05,304</time>
      </trkpt>
      <trkpt lat="43.2227" lon="5.41805">
        <ele>164.07074</ele>
        <time>2019-06-19 19:33:06,290</time>
      </trkpt>
      <trkpt lat="43.22269" lon="5.41805">
        <ele>163.05298</ele>
        <time>2019-06-19 19:33:07,286</time>
      </trkpt>
      <trkpt lat="43.22267" lon="5.41805">
        <ele>166.54022</ele>
        <time>2019-06-19 19:33:11,292</time>
      </trkpt>
      <trkpt lat="43.22267" lon="5.41803">
        <ele>164.47498</ele>
        <time>2019-06-19 19:33:44,298</time>
      </trkpt>
      <trkpt lat="43.22267" lon="5.41802">
        <ele>163.56018</ele>
        <time>2019-06-19 19:33:47,298</time>
      </trkpt>
      <trkpt lat="43.22267" lon="5.41803">
        <ele>162.68353</ele>
        <time>2019-06-19 19:34:10,292</time>
      </trkpt>
      <trkpt lat="43.22267" lon="5.41802">
        <ele>163.63904</ele>
        <time>2019-06-19 19:34:14,285</time>
      </trkpt>
    </trkseg>
  </trk>
</gpx>